<?xml version="1.0" encoding="UTF-8" standalone="no" ?>
<gpx xmlns="http://www.topografix.com/GPX/1/1" xmlns:xsi="http://www.w3.org/2001/XMLSchema-instance" xsi:schemaLocation="http://www.topografix.com/GPX/1/1 http://www.topografix.com/GPX/1/1/gpx.xsd" version="1.1" creator="VisuGPX - https://www.visugpx.com">
  <metadata>
    <name>Tournefeuille Cyclisme sur route</name>
  </metadata>
  <trk>
    <name><![CDATA[Tournefeuille Cyclisme sur route_1]]></name>
    <trkseg>
      <trkpt lat="43.5868" lon="1.32212">
        <ele>185.2</ele>
        <time>2024-07-30T06:14:39Z</time>
      </trkpt>
      <trkpt lat="43.58686" lon="1.32196">
        <ele>185.2</ele>
        <time>2024-07-30T06:14:40Z</time>
      </trkpt>
      <trkpt lat="43.58686" lon="1.32195">
        <ele>185.2</ele>
        <time>2024-07-30T06:14:41Z</time>
      </trkpt>
      <trkpt lat="43.58686" lon="1.32188">
        <ele>185.2</ele>
        <time>2024-07-30T06:14:42Z</time>
      </trkpt>
      <trkpt lat="43.58686" lon="1.32178">
        <ele>185.4</ele>
        <time>2024-07-30T06:14:43Z</time>
      </trkpt>
      <trkpt lat="43.58686" lon="1.32174">
        <ele>185.4</ele>
        <time>2024-07-30T06:14:44Z</time>
      </trkpt>
      <trkpt lat="43.58687" lon="1.32169">
        <ele>185.6</ele>
        <time>2024-07-30T06:14:45Z</time>
      </trkpt>
      <trkpt lat="43.58688" lon="1.32161">
        <ele>185.6</ele>
        <time>2024-07-30T06:14:46Z</time>
      </trkpt>
      <trkpt lat="43.58687" lon="1.32158">
        <ele>185.8</ele>
        <time>2024-07-30T06:14:47Z</time>
      </trkpt>
      <trkpt lat="43.58687" lon="1.32153">
        <ele>185.8</ele>
        <time>2024-07-30T06:14:48Z</time>
      </trkpt>
      <trkpt lat="43.58687" lon="1.32148">
        <ele>185.8</ele>
        <time>2024-07-30T06:14:49Z</time>
      </trkpt>
      <trkpt lat="43.58687" lon="1.32144">
        <ele>185.4</ele>
        <time>2024-07-30T06:14:50Z</time>
      </trkpt>
      <trkpt lat="43.58687" lon="1.32135">
        <ele>185.4</ele>
        <time>2024-07-30T06:14:51Z</time>
      </trkpt>
      <trkpt lat="43.58687" lon="1.3213">
        <ele>185.6</ele>
        <time>2024-07-30T06:14:52Z</time>
      </trkpt>
      <trkpt lat="43.58687" lon="1.32126">
        <ele>185.6</ele>
        <time>2024-07-30T06:14:53Z</time>
      </trkpt>
      <trkpt lat="43.58688" lon="1.32119">
        <ele>185.6</ele>
        <time>2024-07-30T06:14:54Z</time>
      </trkpt>
      <trkpt lat="43.58688" lon="1.32113">
        <ele>185.6</ele>
        <time>2024-07-30T06:14:55Z</time>
      </trkpt>
      <trkpt lat="43.58689" lon="1.32108">
        <ele>185.6</ele>
        <time>2024-07-30T06:14:56Z</time>
      </trkpt>
      <trkpt lat="43.5869" lon="1.32104">
        <ele>185.6</ele>
        <time>2024-07-30T06:14:57Z</time>
      </trkpt>
      <trkpt lat="43.5869" lon="1.32096">
        <ele>185.6</ele>
        <time>2024-07-30T06:14:58Z</time>
      </trkpt>
      <trkpt lat="43.5869" lon="1.3209">
        <ele>185.6</ele>
        <time>2024-07-30T06:14:59Z</time>
      </trkpt>
      <trkpt lat="43.5869" lon="1.32085">
        <ele>185.6</ele>
        <time>2024-07-30T06:15:00Z</time>
      </trkpt>
      <trkpt lat="43.5869" lon="1.3208">
        <ele>185.6</ele>
        <time>2024-07-30T06:15:01Z</time>
      </trkpt>
      <trkpt lat="43.5869" lon="1.32072">
        <ele>185.4</ele>
        <time>2024-07-30T06:15:02Z</time>
      </trkpt>
      <trkpt lat="43.5869" lon="1.32065">
        <ele>185.4</ele>
        <time>2024-07-30T06:15:03Z</time>
      </trkpt>
      <trkpt lat="43.5869" lon="1.32059">
        <ele>185.4</ele>
        <time>2024-07-30T06:15:04Z</time>
      </trkpt>
      <trkpt lat="43.5869" lon="1.32053">
        <ele>185.2</ele>
        <time>2024-07-30T06:15:05Z</time>
      </trkpt>
      <trkpt lat="43.5869" lon="1.32045">
        <ele>185.2</ele>
        <time>2024-07-30T06:15:06Z</time>
      </trkpt>
      <trkpt lat="43.5869" lon="1.32037">
        <ele>185</ele>
        <time>2024-07-30T06:15:07Z</time>
      </trkpt>
      <trkpt lat="43.58689" lon="1.32029">
        <ele>185</ele>
        <time>2024-07-30T06:15:08Z</time>
      </trkpt>
      <trkpt lat="43.58689" lon="1.32022">
        <ele>184.8</ele>
        <time>2024-07-30T06:15:09Z</time>
      </trkpt>
      <trkpt lat="43.58688" lon="1.32013">
        <ele>184.8</ele>
        <time>2024-07-30T06:15:10Z</time>
      </trkpt>
      <trkpt lat="43.58686" lon="1.32005">
        <ele>184.8</ele>
        <time>2024-07-30T06:15:11Z</time>
      </trkpt>
      <trkpt lat="43.58685" lon="1.31999">
        <ele>184.8</ele>
        <time>2024-07-30T06:15:12Z</time>
      </trkpt>
      <trkpt lat="43.58683" lon="1.31993">
        <ele>184.8</ele>
        <time>2024-07-30T06:15:13Z</time>
      </trkpt>
      <trkpt lat="43.58681" lon="1.31987">
        <ele>184.8</ele>
        <time>2024-07-30T06:15:14Z</time>
      </trkpt>
      <trkpt lat="43.58677" lon="1.3198">
        <ele>184.8</ele>
        <time>2024-07-30T06:15:15Z</time>
      </trkpt>
      <trkpt lat="43.58674" lon="1.31975">
        <ele>184.8</ele>
        <time>2024-07-30T06:15:16Z</time>
      </trkpt>
      <trkpt lat="43.58671" lon="1.3197">
        <ele>184.8</ele>
        <time>2024-07-30T06:15:17Z</time>
      </trkpt>
      <trkpt lat="43.58668" lon="1.31965">
        <ele>185.2</ele>
        <time>2024-07-30T06:15:18Z</time>
      </trkpt>
      <trkpt lat="43.58664" lon="1.31959">
        <ele>185.2</ele>
        <time>2024-07-30T06:15:19Z</time>
      </trkpt>
      <trkpt lat="43.58661" lon="1.31954">
        <ele>185.2</ele>
        <time>2024-07-30T06:15:20Z</time>
      </trkpt>
      <trkpt lat="43.58657" lon="1.31949">
        <ele>185.4</ele>
        <time>2024-07-30T06:15:21Z</time>
      </trkpt>
      <trkpt lat="43.58654" lon="1.31943">
        <ele>185.4</ele>
        <time>2024-07-30T06:15:22Z</time>
      </trkpt>
      <trkpt lat="43.5865" lon="1.31937">
        <ele>185.6</ele>
        <time>2024-07-30T06:15:23Z</time>
      </trkpt>
      <trkpt lat="43.58647" lon="1.31931">
        <ele>185.6</ele>
        <time>2024-07-30T06:15:24Z</time>
      </trkpt>
      <trkpt lat="43.58643" lon="1.31925">
        <ele>185.8</ele>
        <time>2024-07-30T06:15:25Z</time>
      </trkpt>
      <trkpt lat="43.5864" lon="1.31918">
        <ele>185.8</ele>
        <time>2024-07-30T06:15:26Z</time>
      </trkpt>
      <trkpt lat="43.58637" lon="1.31913">
        <ele>185.8</ele>
        <time>2024-07-30T06:15:27Z</time>
      </trkpt>
      <trkpt lat="43.58633" lon="1.31906">
        <ele>185.8</ele>
        <time>2024-07-30T06:15:28Z</time>
      </trkpt>
      <trkpt lat="43.58629" lon="1.319">
        <ele>185.8</ele>
        <time>2024-07-30T06:15:29Z</time>
      </trkpt>
      <trkpt lat="43.58625" lon="1.31894">
        <ele>185.8</ele>
        <time>2024-07-30T06:15:30Z</time>
      </trkpt>
      <trkpt lat="43.58621" lon="1.3189">
        <ele>186</ele>
        <time>2024-07-30T06:15:31Z</time>
      </trkpt>
      <trkpt lat="43.58617" lon="1.31886">
        <ele>186</ele>
        <time>2024-07-30T06:15:32Z</time>
      </trkpt>
      <trkpt lat="43.58611" lon="1.31881">
        <ele>186</ele>
        <time>2024-07-30T06:15:33Z</time>
      </trkpt>
      <trkpt lat="43.58606" lon="1.31877">
        <ele>186</ele>
        <time>2024-07-30T06:15:34Z</time>
      </trkpt>
      <trkpt lat="43.586" lon="1.31872">
        <ele>186</ele>
        <time>2024-07-30T06:15:35Z</time>
      </trkpt>
      <trkpt lat="43.58596" lon="1.31869">
        <ele>186</ele>
        <time>2024-07-30T06:15:36Z</time>
      </trkpt>
      <trkpt lat="43.58591" lon="1.31863">
        <ele>186.2</ele>
        <time>2024-07-30T06:15:37Z</time>
      </trkpt>
      <trkpt lat="43.58586" lon="1.31859">
        <ele>186.2</ele>
        <time>2024-07-30T06:15:38Z</time>
      </trkpt>
      <trkpt lat="43.58581" lon="1.31855">
        <ele>186.2</ele>
        <time>2024-07-30T06:15:39Z</time>
      </trkpt>
      <trkpt lat="43.58577" lon="1.31851">
        <ele>186.4</ele>
        <time>2024-07-30T06:15:40Z</time>
      </trkpt>
      <trkpt lat="43.58572" lon="1.31848">
        <ele>186.4</ele>
        <time>2024-07-30T06:15:41Z</time>
      </trkpt>
      <trkpt lat="43.58567" lon="1.31844">
        <ele>186.4</ele>
        <time>2024-07-30T06:15:42Z</time>
      </trkpt>
      <trkpt lat="43.58562" lon="1.31839">
        <ele>186.6</ele>
        <time>2024-07-30T06:15:43Z</time>
      </trkpt>
      <trkpt lat="43.58558" lon="1.31835">
        <ele>186.8</ele>
        <time>2024-07-30T06:15:44Z</time>
      </trkpt>
      <trkpt lat="43.58553" lon="1.3183">
        <ele>186.8</ele>
        <time>2024-07-30T06:15:45Z</time>
      </trkpt>
      <trkpt lat="43.58549" lon="1.31825">
        <ele>187</ele>
        <time>2024-07-30T06:15:46Z</time>
      </trkpt>
      <trkpt lat="43.58544" lon="1.31821">
        <ele>187</ele>
        <time>2024-07-30T06:15:47Z</time>
      </trkpt>
      <trkpt lat="43.5854" lon="1.31816">
        <ele>187</ele>
        <time>2024-07-30T06:15:48Z</time>
      </trkpt>
      <trkpt lat="43.58535" lon="1.31811">
        <ele>187</ele>
        <time>2024-07-30T06:15:49Z</time>
      </trkpt>
      <trkpt lat="43.5853" lon="1.31805">
        <ele>187.2</ele>
        <time>2024-07-30T06:15:50Z</time>
      </trkpt>
      <trkpt lat="43.58526" lon="1.31801">
        <ele>187.2</ele>
        <time>2024-07-30T06:15:51Z</time>
      </trkpt>
      <trkpt lat="43.58522" lon="1.31796">
        <ele>187.4</ele>
        <time>2024-07-30T06:15:52Z</time>
      </trkpt>
      <trkpt lat="43.58518" lon="1.3179">
        <ele>187.4</ele>
        <time>2024-07-30T06:15:53Z</time>
      </trkpt>
      <trkpt lat="43.58513" lon="1.31785">
        <ele>187.4</ele>
        <time>2024-07-30T06:15:54Z</time>
      </trkpt>
      <trkpt lat="43.58509" lon="1.31779">
        <ele>187.4</ele>
        <time>2024-07-30T06:15:55Z</time>
      </trkpt>
      <trkpt lat="43.58505" lon="1.31774">
        <ele>187.6</ele>
        <time>2024-07-30T06:15:56Z</time>
      </trkpt>
      <trkpt lat="43.58501" lon="1.31768">
        <ele>187.6</ele>
        <time>2024-07-30T06:15:57Z</time>
      </trkpt>
      <trkpt lat="43.58496" lon="1.31763">
        <ele>187.8</ele>
        <time>2024-07-30T06:15:58Z</time>
      </trkpt>
      <trkpt lat="43.58492" lon="1.31758">
        <ele>187.8</ele>
        <time>2024-07-30T06:15:59Z</time>
      </trkpt>
      <trkpt lat="43.58487" lon="1.31752">
        <ele>187.8</ele>
        <time>2024-07-30T06:16:00Z</time>
      </trkpt>
      <trkpt lat="43.58483" lon="1.31747">
        <ele>188</ele>
        <time>2024-07-30T06:16:01Z</time>
      </trkpt>
      <trkpt lat="43.58479" lon="1.31742">
        <ele>188</ele>
        <time>2024-07-30T06:16:02Z</time>
      </trkpt>
      <trkpt lat="43.58474" lon="1.31737">
        <ele>188.2</ele>
        <time>2024-07-30T06:16:03Z</time>
      </trkpt>
      <trkpt lat="43.58469" lon="1.31731">
        <ele>188.2</ele>
        <time>2024-07-30T06:16:04Z</time>
      </trkpt>
      <trkpt lat="43.58465" lon="1.31726">
        <ele>188.2</ele>
        <time>2024-07-30T06:16:05Z</time>
      </trkpt>
      <trkpt lat="43.58461" lon="1.31722">
        <ele>188.2</ele>
        <time>2024-07-30T06:16:06Z</time>
      </trkpt>
      <trkpt lat="43.58456" lon="1.31715">
        <ele>188.2</ele>
        <time>2024-07-30T06:16:07Z</time>
      </trkpt>
      <trkpt lat="43.58452" lon="1.3171">
        <ele>188.4</ele>
        <time>2024-07-30T06:16:08Z</time>
      </trkpt>
      <trkpt lat="43.58448" lon="1.31705">
        <ele>188.4</ele>
        <time>2024-07-30T06:16:09Z</time>
      </trkpt>
      <trkpt lat="43.58444" lon="1.317">
        <ele>188.6</ele>
        <time>2024-07-30T06:16:10Z</time>
      </trkpt>
      <trkpt lat="43.5844" lon="1.31695">
        <ele>188.6</ele>
        <time>2024-07-30T06:16:11Z</time>
      </trkpt>
      <trkpt lat="43.58435" lon="1.3169">
        <ele>188.6</ele>
        <time>2024-07-30T06:16:12Z</time>
      </trkpt>
      <trkpt lat="43.5843" lon="1.31684">
        <ele>188.8</ele>
        <time>2024-07-30T06:16:13Z</time>
      </trkpt>
      <trkpt lat="43.58426" lon="1.31679">
        <ele>188.8</ele>
        <time>2024-07-30T06:16:14Z</time>
      </trkpt>
      <trkpt lat="43.58422" lon="1.31673">
        <ele>188.8</ele>
        <time>2024-07-30T06:16:15Z</time>
      </trkpt>
      <trkpt lat="43.58417" lon="1.31668">
        <ele>189</ele>
        <time>2024-07-30T06:16:16Z</time>
      </trkpt>
      <trkpt lat="43.58413" lon="1.31663">
        <ele>189</ele>
        <time>2024-07-30T06:16:17Z</time>
      </trkpt>
      <trkpt lat="43.58409" lon="1.31658">
        <ele>189</ele>
        <time>2024-07-30T06:16:18Z</time>
      </trkpt>
      <trkpt lat="43.58405" lon="1.31654">
        <ele>189</ele>
        <time>2024-07-30T06:16:19Z</time>
      </trkpt>
      <trkpt lat="43.58403" lon="1.3165">
        <ele>189</ele>
        <time>2024-07-30T06:16:20Z</time>
      </trkpt>
      <trkpt lat="43.584" lon="1.31647">
        <ele>188.8</ele>
        <time>2024-07-30T06:16:21Z</time>
      </trkpt>
      <trkpt lat="43.58398" lon="1.31646">
        <ele>188.6</ele>
        <time>2024-07-30T06:16:22Z</time>
      </trkpt>
      <trkpt lat="43.58396" lon="1.31645">
        <ele>188.4</ele>
        <time>2024-07-30T06:16:23Z</time>
      </trkpt>
      <trkpt lat="43.58394" lon="1.31643">
        <ele>188.2</ele>
        <time>2024-07-30T06:16:24Z</time>
      </trkpt>
      <trkpt lat="43.58391" lon="1.3164">
        <ele>188</ele>
        <time>2024-07-30T06:16:25Z</time>
      </trkpt>
      <trkpt lat="43.58389" lon="1.31637">
        <ele>188</ele>
        <time>2024-07-30T06:16:26Z</time>
      </trkpt>
      <trkpt lat="43.58385" lon="1.31634">
        <ele>187.8</ele>
        <time>2024-07-30T06:16:27Z</time>
      </trkpt>
      <trkpt lat="43.58381" lon="1.3163">
        <ele>187.6</ele>
        <time>2024-07-30T06:16:28Z</time>
      </trkpt>
      <trkpt lat="43.58376" lon="1.31626">
        <ele>187.4</ele>
        <time>2024-07-30T06:16:29Z</time>
      </trkpt>
      <trkpt lat="43.58372" lon="1.31622">
        <ele>187.2</ele>
        <time>2024-07-30T06:16:30Z</time>
      </trkpt>
      <trkpt lat="43.58368" lon="1.31618">
        <ele>186.8</ele>
        <time>2024-07-30T06:16:31Z</time>
      </trkpt>
      <trkpt lat="43.58362" lon="1.31613">
        <ele>186.6</ele>
        <time>2024-07-30T06:16:32Z</time>
      </trkpt>
      <trkpt lat="43.58356" lon="1.31607">
        <ele>186.4</ele>
        <time>2024-07-30T06:16:33Z</time>
      </trkpt>
      <trkpt lat="43.5835" lon="1.31601">
        <ele>185.8</ele>
        <time>2024-07-30T06:16:34Z</time>
      </trkpt>
      <trkpt lat="43.58344" lon="1.31596">
        <ele>185.4</ele>
        <time>2024-07-30T06:16:35Z</time>
      </trkpt>
      <trkpt lat="43.58339" lon="1.31591">
        <ele>184.4</ele>
        <time>2024-07-30T06:16:36Z</time>
      </trkpt>
      <trkpt lat="43.58334" lon="1.31586">
        <ele>183.8</ele>
        <time>2024-07-30T06:16:37Z</time>
      </trkpt>
      <trkpt lat="43.5833" lon="1.31581">
        <ele>183</ele>
        <time>2024-07-30T06:16:38Z</time>
      </trkpt>
      <trkpt lat="43.58326" lon="1.31577">
        <ele>182.6</ele>
        <time>2024-07-30T06:16:39Z</time>
      </trkpt>
      <trkpt lat="43.58323" lon="1.31574">
        <ele>181</ele>
        <time>2024-07-30T06:16:40Z</time>
      </trkpt>
      <trkpt lat="43.5832" lon="1.31572">
        <ele>179.8</ele>
        <time>2024-07-30T06:16:41Z</time>
      </trkpt>
      <trkpt lat="43.58317" lon="1.31571">
        <ele>179.2</ele>
        <time>2024-07-30T06:16:43Z</time>
      </trkpt>
      <trkpt lat="43.58314" lon="1.31569">
        <ele>178</ele>
        <time>2024-07-30T06:16:44Z</time>
      </trkpt>
      <trkpt lat="43.58311" lon="1.31565">
        <ele>177.6</ele>
        <time>2024-07-30T06:16:45Z</time>
      </trkpt>
      <trkpt lat="43.58307" lon="1.31561">
        <ele>176.6</ele>
        <time>2024-07-30T06:16:46Z</time>
      </trkpt>
      <trkpt lat="43.58302" lon="1.31556">
        <ele>176</ele>
        <time>2024-07-30T06:16:47Z</time>
      </trkpt>
      <trkpt lat="43.58296" lon="1.3155">
        <ele>175.8</ele>
        <time>2024-07-30T06:16:48Z</time>
      </trkpt>
      <trkpt lat="43.5829" lon="1.31544">
        <ele>175</ele>
        <time>2024-07-30T06:16:49Z</time>
      </trkpt>
      <trkpt lat="43.58285" lon="1.31539">
        <ele>174.8</ele>
        <time>2024-07-30T06:16:50Z</time>
      </trkpt>
      <trkpt lat="43.58279" lon="1.31533">
        <ele>174.4</ele>
        <time>2024-07-30T06:16:51Z</time>
      </trkpt>
      <trkpt lat="43.58273" lon="1.31527">
        <ele>174.2</ele>
        <time>2024-07-30T06:16:52Z</time>
      </trkpt>
      <trkpt lat="43.58267" lon="1.31522">
        <ele>173.8</ele>
        <time>2024-07-30T06:16:53Z</time>
      </trkpt>
      <trkpt lat="43.58261" lon="1.31517">
        <ele>172.8</ele>
        <time>2024-07-30T06:16:54Z</time>
      </trkpt>
      <trkpt lat="43.58256" lon="1.31511">
        <ele>172.6</ele>
        <time>2024-07-30T06:16:55Z</time>
      </trkpt>
      <trkpt lat="43.58249" lon="1.31506">
        <ele>171.8</ele>
        <time>2024-07-30T06:16:56Z</time>
      </trkpt>
      <trkpt lat="43.58243" lon="1.31502">
        <ele>171.6</ele>
        <time>2024-07-30T06:16:57Z</time>
      </trkpt>
      <trkpt lat="43.58238" lon="1.31498">
        <ele>171.2</ele>
        <time>2024-07-30T06:16:58Z</time>
      </trkpt>
      <trkpt lat="43.58232" lon="1.31494">
        <ele>171.2</ele>
        <time>2024-07-30T06:16:59Z</time>
      </trkpt>
      <trkpt lat="43.58226" lon="1.31488">
        <ele>171</ele>
        <time>2024-07-30T06:17:00Z</time>
      </trkpt>
      <trkpt lat="43.58221" lon="1.31481">
        <ele>170.6</ele>
        <time>2024-07-30T06:17:01Z</time>
      </trkpt>
      <trkpt lat="43.58216" lon="1.31474">
        <ele>170.6</ele>
        <time>2024-07-30T06:17:02Z</time>
      </trkpt>
      <trkpt lat="43.58211" lon="1.31467">
        <ele>170.2</ele>
        <time>2024-07-30T06:17:03Z</time>
      </trkpt>
      <trkpt lat="43.58206" lon="1.3146">
        <ele>170</ele>
        <time>2024-07-30T06:17:04Z</time>
      </trkpt>
      <trkpt lat="43.58201" lon="1.31453">
        <ele>169.6</ele>
        <time>2024-07-30T06:17:05Z</time>
      </trkpt>
      <trkpt lat="43.58196" lon="1.31446">
        <ele>169.4</ele>
        <time>2024-07-30T06:17:06Z</time>
      </trkpt>
      <trkpt lat="43.58191" lon="1.31438">
        <ele>169.2</ele>
        <time>2024-07-30T06:17:07Z</time>
      </trkpt>
      <trkpt lat="43.58185" lon="1.31431">
        <ele>168.8</ele>
        <time>2024-07-30T06:17:08Z</time>
      </trkpt>
      <trkpt lat="43.5818" lon="1.31424">
        <ele>168.6</ele>
        <time>2024-07-30T06:17:09Z</time>
      </trkpt>
      <trkpt lat="43.58175" lon="1.31416">
        <ele>168.2</ele>
        <time>2024-07-30T06:17:10Z</time>
      </trkpt>
      <trkpt lat="43.5817" lon="1.31409">
        <ele>168</ele>
        <time>2024-07-30T06:17:11Z</time>
      </trkpt>
      <trkpt lat="43.58165" lon="1.31401">
        <ele>167.8</ele>
        <time>2024-07-30T06:17:12Z</time>
      </trkpt>
      <trkpt lat="43.58159" lon="1.31394">
        <ele>167.4</ele>
        <time>2024-07-30T06:17:13Z</time>
      </trkpt>
      <trkpt lat="43.58154" lon="1.31387">
        <ele>167.2</ele>
        <time>2024-07-30T06:17:14Z</time>
      </trkpt>
      <trkpt lat="43.58149" lon="1.31379">
        <ele>167.2</ele>
        <time>2024-07-30T06:17:15Z</time>
      </trkpt>
      <trkpt lat="43.58144" lon="1.31372">
        <ele>167</ele>
        <time>2024-07-30T06:17:16Z</time>
      </trkpt>
      <trkpt lat="43.58139" lon="1.31364">
        <ele>167</ele>
        <time>2024-07-30T06:17:17Z</time>
      </trkpt>
      <trkpt lat="43.58133" lon="1.31357">
        <ele>167</ele>
        <time>2024-07-30T06:17:18Z</time>
      </trkpt>
      <trkpt lat="43.58128" lon="1.3135">
        <ele>166.8</ele>
        <time>2024-07-30T06:17:19Z</time>
      </trkpt>
      <trkpt lat="43.58123" lon="1.31343">
        <ele>166.8</ele>
        <time>2024-07-30T06:17:20Z</time>
      </trkpt>
      <trkpt lat="43.58118" lon="1.31336">
        <ele>166.6</ele>
        <time>2024-07-30T06:17:21Z</time>
      </trkpt>
      <trkpt lat="43.58112" lon="1.31329">
        <ele>166.4</ele>
        <time>2024-07-30T06:17:22Z</time>
      </trkpt>
      <trkpt lat="43.58107" lon="1.31322">
        <ele>166.4</ele>
        <time>2024-07-30T06:17:23Z</time>
      </trkpt>
      <trkpt lat="43.58102" lon="1.31315">
        <ele>166.2</ele>
        <time>2024-07-30T06:17:24Z</time>
      </trkpt>
      <trkpt lat="43.58097" lon="1.31308">
        <ele>166.2</ele>
        <time>2024-07-30T06:17:25Z</time>
      </trkpt>
      <trkpt lat="43.58092" lon="1.31301">
        <ele>166</ele>
        <time>2024-07-30T06:17:26Z</time>
      </trkpt>
      <trkpt lat="43.58087" lon="1.31294">
        <ele>166</ele>
        <time>2024-07-30T06:17:27Z</time>
      </trkpt>
      <trkpt lat="43.58082" lon="1.31287">
        <ele>166</ele>
        <time>2024-07-30T06:17:28Z</time>
      </trkpt>
      <trkpt lat="43.58077" lon="1.31279">
        <ele>166</ele>
        <time>2024-07-30T06:17:29Z</time>
      </trkpt>
      <trkpt lat="43.58073" lon="1.31273">
        <ele>166</ele>
        <time>2024-07-30T06:17:30Z</time>
      </trkpt>
      <trkpt lat="43.58069" lon="1.31267">
        <ele>166</ele>
        <time>2024-07-30T06:17:31Z</time>
      </trkpt>
      <trkpt lat="43.58064" lon="1.3126">
        <ele>166</ele>
        <time>2024-07-30T06:17:32Z</time>
      </trkpt>
      <trkpt lat="43.58059" lon="1.31254">
        <ele>166</ele>
        <time>2024-07-30T06:17:33Z</time>
      </trkpt>
      <trkpt lat="43.58054" lon="1.31247">
        <ele>166</ele>
        <time>2024-07-30T06:17:34Z</time>
      </trkpt>
      <trkpt lat="43.58049" lon="1.31241">
        <ele>166</ele>
        <time>2024-07-30T06:17:35Z</time>
      </trkpt>
      <trkpt lat="43.58044" lon="1.31234">
        <ele>166</ele>
        <time>2024-07-30T06:17:36Z</time>
      </trkpt>
      <trkpt lat="43.58038" lon="1.31228">
        <ele>166</ele>
        <time>2024-07-30T06:17:37Z</time>
      </trkpt>
      <trkpt lat="43.58034" lon="1.31222">
        <ele>166</ele>
        <time>2024-07-30T06:17:38Z</time>
      </trkpt>
      <trkpt lat="43.58029" lon="1.31215">
        <ele>166.2</ele>
        <time>2024-07-30T06:17:39Z</time>
      </trkpt>
      <trkpt lat="43.58024" lon="1.31208">
        <ele>166.2</ele>
        <time>2024-07-30T06:17:40Z</time>
      </trkpt>
      <trkpt lat="43.58019" lon="1.31202">
        <ele>166.2</ele>
        <time>2024-07-30T06:17:41Z</time>
      </trkpt>
      <trkpt lat="43.58014" lon="1.31195">
        <ele>166.2</ele>
        <time>2024-07-30T06:17:42Z</time>
      </trkpt>
      <trkpt lat="43.58009" lon="1.31189">
        <ele>166.2</ele>
        <time>2024-07-30T06:17:43Z</time>
      </trkpt>
      <trkpt lat="43.58004" lon="1.31183">
        <ele>166.2</ele>
        <time>2024-07-30T06:17:44Z</time>
      </trkpt>
      <trkpt lat="43.57999" lon="1.31176">
        <ele>166.2</ele>
        <time>2024-07-30T06:17:45Z</time>
      </trkpt>
      <trkpt lat="43.57994" lon="1.3117">
        <ele>166.2</ele>
        <time>2024-07-30T06:17:46Z</time>
      </trkpt>
      <trkpt lat="43.57989" lon="1.31164">
        <ele>166.2</ele>
        <time>2024-07-30T06:17:47Z</time>
      </trkpt>
      <trkpt lat="43.57983" lon="1.31158">
        <ele>166.2</ele>
        <time>2024-07-30T06:17:48Z</time>
      </trkpt>
      <trkpt lat="43.57978" lon="1.31152">
        <ele>166.2</ele>
        <time>2024-07-30T06:17:49Z</time>
      </trkpt>
      <trkpt lat="43.57973" lon="1.31145">
        <ele>166.4</ele>
        <time>2024-07-30T06:17:50Z</time>
      </trkpt>
      <trkpt lat="43.57967" lon="1.31139">
        <ele>166.4</ele>
        <time>2024-07-30T06:17:51Z</time>
      </trkpt>
      <trkpt lat="43.57962" lon="1.31133">
        <ele>166.4</ele>
        <time>2024-07-30T06:17:52Z</time>
      </trkpt>
      <trkpt lat="43.57956" lon="1.31127">
        <ele>166.4</ele>
        <time>2024-07-30T06:17:53Z</time>
      </trkpt>
      <trkpt lat="43.57951" lon="1.31121">
        <ele>166.4</ele>
        <time>2024-07-30T06:17:54Z</time>
      </trkpt>
      <trkpt lat="43.57945" lon="1.31115">
        <ele>166.4</ele>
        <time>2024-07-30T06:17:55Z</time>
      </trkpt>
      <trkpt lat="43.5794" lon="1.3111">
        <ele>166.4</ele>
        <time>2024-07-30T06:17:56Z</time>
      </trkpt>
      <trkpt lat="43.57935" lon="1.31105">
        <ele>166.2</ele>
        <time>2024-07-30T06:17:57Z</time>
      </trkpt>
      <trkpt lat="43.57928" lon="1.31098">
        <ele>166.2</ele>
        <time>2024-07-30T06:17:58Z</time>
      </trkpt>
      <trkpt lat="43.57923" lon="1.31092">
        <ele>166.2</ele>
        <time>2024-07-30T06:17:59Z</time>
      </trkpt>
      <trkpt lat="43.57917" lon="1.31086">
        <ele>166</ele>
        <time>2024-07-30T06:18:00Z</time>
      </trkpt>
      <trkpt lat="43.57911" lon="1.3108">
        <ele>166</ele>
        <time>2024-07-30T06:18:01Z</time>
      </trkpt>
      <trkpt lat="43.57906" lon="1.31074">
        <ele>166</ele>
        <time>2024-07-30T06:18:02Z</time>
      </trkpt>
      <trkpt lat="43.579" lon="1.31069">
        <ele>165.8</ele>
        <time>2024-07-30T06:18:03Z</time>
      </trkpt>
      <trkpt lat="43.57894" lon="1.31063">
        <ele>165.8</ele>
        <time>2024-07-30T06:18:04Z</time>
      </trkpt>
      <trkpt lat="43.57889" lon="1.31058">
        <ele>165.8</ele>
        <time>2024-07-30T06:18:05Z</time>
      </trkpt>
      <trkpt lat="43.57884" lon="1.31053">
        <ele>165.8</ele>
        <time>2024-07-30T06:18:06Z</time>
      </trkpt>
      <trkpt lat="43.57878" lon="1.31047">
        <ele>165.8</ele>
        <time>2024-07-30T06:18:07Z</time>
      </trkpt>
      <trkpt lat="43.57872" lon="1.31042">
        <ele>165.8</ele>
        <time>2024-07-30T06:18:08Z</time>
      </trkpt>
      <trkpt lat="43.57867" lon="1.31036">
        <ele>165.6</ele>
        <time>2024-07-30T06:18:09Z</time>
      </trkpt>
      <trkpt lat="43.57863" lon="1.31032">
        <ele>165.6</ele>
        <time>2024-07-30T06:18:10Z</time>
      </trkpt>
      <trkpt lat="43.57857" lon="1.31027">
        <ele>165.6</ele>
        <time>2024-07-30T06:18:11Z</time>
      </trkpt>
      <trkpt lat="43.57851" lon="1.3102">
        <ele>165.6</ele>
        <time>2024-07-30T06:18:12Z</time>
      </trkpt>
      <trkpt lat="43.57845" lon="1.31014">
        <ele>165.6</ele>
        <time>2024-07-30T06:18:13Z</time>
      </trkpt>
      <trkpt lat="43.5784" lon="1.31009">
        <ele>165.6</ele>
        <time>2024-07-30T06:18:14Z</time>
      </trkpt>
      <trkpt lat="43.57835" lon="1.31005">
        <ele>165.6</ele>
        <time>2024-07-30T06:18:15Z</time>
      </trkpt>
      <trkpt lat="43.5783" lon="1.30999">
        <ele>165.6</ele>
        <time>2024-07-30T06:18:16Z</time>
      </trkpt>
      <trkpt lat="43.57823" lon="1.30993">
        <ele>165.6</ele>
        <time>2024-07-30T06:18:17Z</time>
      </trkpt>
      <trkpt lat="43.57818" lon="1.30987">
        <ele>165.6</ele>
        <time>2024-07-30T06:18:18Z</time>
      </trkpt>
      <trkpt lat="43.57812" lon="1.30981">
        <ele>165.6</ele>
        <time>2024-07-30T06:18:19Z</time>
      </trkpt>
      <trkpt lat="43.57807" lon="1.30975">
        <ele>165.6</ele>
        <time>2024-07-30T06:18:20Z</time>
      </trkpt>
      <trkpt lat="43.57801" lon="1.30969">
        <ele>165.8</ele>
        <time>2024-07-30T06:18:21Z</time>
      </trkpt>
      <trkpt lat="43.57796" lon="1.30964">
        <ele>165.8</ele>
        <time>2024-07-30T06:18:22Z</time>
      </trkpt>
      <trkpt lat="43.57791" lon="1.30958">
        <ele>166</ele>
        <time>2024-07-30T06:18:23Z</time>
      </trkpt>
      <trkpt lat="43.57785" lon="1.30953">
        <ele>166</ele>
        <time>2024-07-30T06:18:24Z</time>
      </trkpt>
      <trkpt lat="43.5778" lon="1.30947">
        <ele>166</ele>
        <time>2024-07-30T06:18:25Z</time>
      </trkpt>
      <trkpt lat="43.57774" lon="1.30942">
        <ele>165.8</ele>
        <time>2024-07-30T06:18:26Z</time>
      </trkpt>
      <trkpt lat="43.57769" lon="1.30936">
        <ele>165.8</ele>
        <time>2024-07-30T06:18:27Z</time>
      </trkpt>
      <trkpt lat="43.57764" lon="1.3093">
        <ele>165.8</ele>
        <time>2024-07-30T06:18:28Z</time>
      </trkpt>
      <trkpt lat="43.57758" lon="1.30924">
        <ele>165.8</ele>
        <time>2024-07-30T06:18:29Z</time>
      </trkpt>
      <trkpt lat="43.57753" lon="1.30919">
        <ele>165.8</ele>
        <time>2024-07-30T06:18:30Z</time>
      </trkpt>
      <trkpt lat="43.57747" lon="1.30913">
        <ele>165.8</ele>
        <time>2024-07-30T06:18:31Z</time>
      </trkpt>
      <trkpt lat="43.57741" lon="1.30907">
        <ele>165.8</ele>
        <time>2024-07-30T06:18:32Z</time>
      </trkpt>
      <trkpt lat="43.57736" lon="1.30902">
        <ele>165.8</ele>
        <time>2024-07-30T06:18:33Z</time>
      </trkpt>
      <trkpt lat="43.57731" lon="1.30896">
        <ele>165.8</ele>
        <time>2024-07-30T06:18:34Z</time>
      </trkpt>
      <trkpt lat="43.57725" lon="1.3089">
        <ele>165.8</ele>
        <time>2024-07-30T06:18:35Z</time>
      </trkpt>
      <trkpt lat="43.5772" lon="1.30885">
        <ele>165.8</ele>
        <time>2024-07-30T06:18:36Z</time>
      </trkpt>
      <trkpt lat="43.57714" lon="1.30879">
        <ele>166</ele>
        <time>2024-07-30T06:18:37Z</time>
      </trkpt>
      <trkpt lat="43.57709" lon="1.30874">
        <ele>166</ele>
        <time>2024-07-30T06:18:38Z</time>
      </trkpt>
      <trkpt lat="43.57703" lon="1.30868">
        <ele>166</ele>
        <time>2024-07-30T06:18:39Z</time>
      </trkpt>
      <trkpt lat="43.57698" lon="1.30862">
        <ele>166</ele>
        <time>2024-07-30T06:18:40Z</time>
      </trkpt>
      <trkpt lat="43.57692" lon="1.30857">
        <ele>166</ele>
        <time>2024-07-30T06:18:41Z</time>
      </trkpt>
      <trkpt lat="43.57687" lon="1.30851">
        <ele>166</ele>
        <time>2024-07-30T06:18:42Z</time>
      </trkpt>
      <trkpt lat="43.57682" lon="1.30845">
        <ele>166</ele>
        <time>2024-07-30T06:18:43Z</time>
      </trkpt>
      <trkpt lat="43.57677" lon="1.30839">
        <ele>166</ele>
        <time>2024-07-30T06:18:44Z</time>
      </trkpt>
      <trkpt lat="43.57671" lon="1.30834">
        <ele>166</ele>
        <time>2024-07-30T06:18:45Z</time>
      </trkpt>
      <trkpt lat="43.57666" lon="1.30828">
        <ele>166</ele>
        <time>2024-07-30T06:18:46Z</time>
      </trkpt>
      <trkpt lat="43.57661" lon="1.30822">
        <ele>166</ele>
        <time>2024-07-30T06:18:47Z</time>
      </trkpt>
      <trkpt lat="43.57656" lon="1.30818">
        <ele>166</ele>
        <time>2024-07-30T06:18:48Z</time>
      </trkpt>
      <trkpt lat="43.5765" lon="1.3081">
        <ele>166</ele>
        <time>2024-07-30T06:18:49Z</time>
      </trkpt>
      <trkpt lat="43.57645" lon="1.30804">
        <ele>166</ele>
        <time>2024-07-30T06:18:50Z</time>
      </trkpt>
      <trkpt lat="43.5764" lon="1.30798">
        <ele>166</ele>
        <time>2024-07-30T06:18:51Z</time>
      </trkpt>
      <trkpt lat="43.57635" lon="1.30791">
        <ele>166</ele>
        <time>2024-07-30T06:18:52Z</time>
      </trkpt>
      <trkpt lat="43.5763" lon="1.30785">
        <ele>166</ele>
        <time>2024-07-30T06:18:53Z</time>
      </trkpt>
      <trkpt lat="43.57625" lon="1.30779">
        <ele>166</ele>
        <time>2024-07-30T06:18:54Z</time>
      </trkpt>
      <trkpt lat="43.5762" lon="1.30772">
        <ele>166</ele>
        <time>2024-07-30T06:18:55Z</time>
      </trkpt>
      <trkpt lat="43.57615" lon="1.30766">
        <ele>166</ele>
        <time>2024-07-30T06:18:56Z</time>
      </trkpt>
      <trkpt lat="43.5761" lon="1.3076">
        <ele>166</ele>
        <time>2024-07-30T06:18:57Z</time>
      </trkpt>
      <trkpt lat="43.57605" lon="1.30753">
        <ele>166</ele>
        <time>2024-07-30T06:18:58Z</time>
      </trkpt>
      <trkpt lat="43.576" lon="1.30746">
        <ele>166</ele>
        <time>2024-07-30T06:18:59Z</time>
      </trkpt>
      <trkpt lat="43.57595" lon="1.3074">
        <ele>166</ele>
        <time>2024-07-30T06:19:00Z</time>
      </trkpt>
      <trkpt lat="43.5759" lon="1.30733">
        <ele>166</ele>
        <time>2024-07-30T06:19:01Z</time>
      </trkpt>
      <trkpt lat="43.57586" lon="1.30726">
        <ele>166</ele>
        <time>2024-07-30T06:19:02Z</time>
      </trkpt>
      <trkpt lat="43.57581" lon="1.3072">
        <ele>165.8</ele>
        <time>2024-07-30T06:19:03Z</time>
      </trkpt>
      <trkpt lat="43.57576" lon="1.30714">
        <ele>165.8</ele>
        <time>2024-07-30T06:19:04Z</time>
      </trkpt>
      <trkpt lat="43.57571" lon="1.30707">
        <ele>165.8</ele>
        <time>2024-07-30T06:19:05Z</time>
      </trkpt>
      <trkpt lat="43.57566" lon="1.30701">
        <ele>165.8</ele>
        <time>2024-07-30T06:19:06Z</time>
      </trkpt>
      <trkpt lat="43.57561" lon="1.30694">
        <ele>165.8</ele>
        <time>2024-07-30T06:19:07Z</time>
      </trkpt>
      <trkpt lat="43.57556" lon="1.30688">
        <ele>165.8</ele>
        <time>2024-07-30T06:19:08Z</time>
      </trkpt>
      <trkpt lat="43.57551" lon="1.30682">
        <ele>165.8</ele>
        <time>2024-07-30T06:19:09Z</time>
      </trkpt>
      <trkpt lat="43.57546" lon="1.30676">
        <ele>165.8</ele>
        <time>2024-07-30T06:19:10Z</time>
      </trkpt>
      <trkpt lat="43.57541" lon="1.3067">
        <ele>165.8</ele>
        <time>2024-07-30T06:19:11Z</time>
      </trkpt>
      <trkpt lat="43.57536" lon="1.30664">
        <ele>165.8</ele>
        <time>2024-07-30T06:19:12Z</time>
      </trkpt>
      <trkpt lat="43.5753" lon="1.30658">
        <ele>165.8</ele>
        <time>2024-07-30T06:19:13Z</time>
      </trkpt>
      <trkpt lat="43.57525" lon="1.30653">
        <ele>165.8</ele>
        <time>2024-07-30T06:19:14Z</time>
      </trkpt>
      <trkpt lat="43.5752" lon="1.30647">
        <ele>165.8</ele>
        <time>2024-07-30T06:19:15Z</time>
      </trkpt>
      <trkpt lat="43.57515" lon="1.30641">
        <ele>165.8</ele>
        <time>2024-07-30T06:19:16Z</time>
      </trkpt>
      <trkpt lat="43.5751" lon="1.30635">
        <ele>165.8</ele>
        <time>2024-07-30T06:19:17Z</time>
      </trkpt>
      <trkpt lat="43.57505" lon="1.3063">
        <ele>166</ele>
        <time>2024-07-30T06:19:18Z</time>
      </trkpt>
      <trkpt lat="43.57499" lon="1.30624">
        <ele>166</ele>
        <time>2024-07-30T06:19:19Z</time>
      </trkpt>
      <trkpt lat="43.57494" lon="1.30619">
        <ele>166</ele>
        <time>2024-07-30T06:19:20Z</time>
      </trkpt>
      <trkpt lat="43.57489" lon="1.30614">
        <ele>166</ele>
        <time>2024-07-30T06:19:21Z</time>
      </trkpt>
      <trkpt lat="43.57485" lon="1.30609">
        <ele>166</ele>
        <time>2024-07-30T06:19:22Z</time>
      </trkpt>
      <trkpt lat="43.57481" lon="1.30603">
        <ele>166.2</ele>
        <time>2024-07-30T06:19:23Z</time>
      </trkpt>
      <trkpt lat="43.57476" lon="1.30599">
        <ele>166.2</ele>
        <time>2024-07-30T06:19:24Z</time>
      </trkpt>
      <trkpt lat="43.57471" lon="1.30595">
        <ele>166.2</ele>
        <time>2024-07-30T06:19:25Z</time>
      </trkpt>
      <trkpt lat="43.57467" lon="1.30591">
        <ele>166.4</ele>
        <time>2024-07-30T06:19:26Z</time>
      </trkpt>
      <trkpt lat="43.57463" lon="1.30586">
        <ele>166.4</ele>
        <time>2024-07-30T06:19:27Z</time>
      </trkpt>
      <trkpt lat="43.57458" lon="1.30581">
        <ele>166.4</ele>
        <time>2024-07-30T06:19:28Z</time>
      </trkpt>
      <trkpt lat="43.57454" lon="1.30576">
        <ele>166.4</ele>
        <time>2024-07-30T06:19:29Z</time>
      </trkpt>
      <trkpt lat="43.57449" lon="1.30571">
        <ele>166.4</ele>
        <time>2024-07-30T06:19:30Z</time>
      </trkpt>
      <trkpt lat="43.57444" lon="1.30566">
        <ele>166.6</ele>
        <time>2024-07-30T06:19:31Z</time>
      </trkpt>
      <trkpt lat="43.5744" lon="1.30561">
        <ele>166.8</ele>
        <time>2024-07-30T06:19:32Z</time>
      </trkpt>
      <trkpt lat="43.57435" lon="1.30556">
        <ele>166.8</ele>
        <time>2024-07-30T06:19:33Z</time>
      </trkpt>
      <trkpt lat="43.5743" lon="1.30552">
        <ele>166.8</ele>
        <time>2024-07-30T06:19:34Z</time>
      </trkpt>
      <trkpt lat="43.57425" lon="1.30547">
        <ele>166.8</ele>
        <time>2024-07-30T06:19:35Z</time>
      </trkpt>
      <trkpt lat="43.5742" lon="1.30541">
        <ele>166.8</ele>
        <time>2024-07-30T06:19:36Z</time>
      </trkpt>
      <trkpt lat="43.57415" lon="1.30536">
        <ele>166.6</ele>
        <time>2024-07-30T06:19:37Z</time>
      </trkpt>
      <trkpt lat="43.5741" lon="1.30531">
        <ele>166.6</ele>
        <time>2024-07-30T06:19:38Z</time>
      </trkpt>
      <trkpt lat="43.57405" lon="1.30526">
        <ele>166.6</ele>
        <time>2024-07-30T06:19:39Z</time>
      </trkpt>
      <trkpt lat="43.57401" lon="1.30522">
        <ele>166.6</ele>
        <time>2024-07-30T06:19:40Z</time>
      </trkpt>
      <trkpt lat="43.57396" lon="1.30517">
        <ele>166.6</ele>
        <time>2024-07-30T06:19:41Z</time>
      </trkpt>
      <trkpt lat="43.57391" lon="1.30512">
        <ele>166.6</ele>
        <time>2024-07-30T06:19:42Z</time>
      </trkpt>
      <trkpt lat="43.57387" lon="1.30508">
        <ele>166.4</ele>
        <time>2024-07-30T06:19:43Z</time>
      </trkpt>
      <trkpt lat="43.57382" lon="1.30503">
        <ele>166.4</ele>
        <time>2024-07-30T06:19:44Z</time>
      </trkpt>
      <trkpt lat="43.57377" lon="1.30498">
        <ele>166.4</ele>
        <time>2024-07-30T06:19:45Z</time>
      </trkpt>
      <trkpt lat="43.57373" lon="1.30493">
        <ele>166.4</ele>
        <time>2024-07-30T06:19:46Z</time>
      </trkpt>
      <trkpt lat="43.57368" lon="1.30488">
        <ele>166.4</ele>
        <time>2024-07-30T06:19:47Z</time>
      </trkpt>
      <trkpt lat="43.57364" lon="1.30483">
        <ele>166.4</ele>
        <time>2024-07-30T06:19:48Z</time>
      </trkpt>
      <trkpt lat="43.57359" lon="1.30478">
        <ele>166.4</ele>
        <time>2024-07-30T06:19:49Z</time>
      </trkpt>
      <trkpt lat="43.57355" lon="1.30473">
        <ele>166.4</ele>
        <time>2024-07-30T06:19:50Z</time>
      </trkpt>
      <trkpt lat="43.5735" lon="1.30469">
        <ele>166.4</ele>
        <time>2024-07-30T06:19:51Z</time>
      </trkpt>
      <trkpt lat="43.57346" lon="1.30464">
        <ele>166.4</ele>
        <time>2024-07-30T06:19:52Z</time>
      </trkpt>
      <trkpt lat="43.57341" lon="1.3046">
        <ele>166.6</ele>
        <time>2024-07-30T06:19:53Z</time>
      </trkpt>
      <trkpt lat="43.57337" lon="1.30455">
        <ele>166.6</ele>
        <time>2024-07-30T06:19:54Z</time>
      </trkpt>
      <trkpt lat="43.57333" lon="1.3045">
        <ele>166.8</ele>
        <time>2024-07-30T06:19:55Z</time>
      </trkpt>
      <trkpt lat="43.57329" lon="1.30445">
        <ele>166.8</ele>
        <time>2024-07-30T06:19:56Z</time>
      </trkpt>
      <trkpt lat="43.57325" lon="1.30441">
        <ele>166.8</ele>
        <time>2024-07-30T06:19:57Z</time>
      </trkpt>
      <trkpt lat="43.57321" lon="1.30436">
        <ele>166.8</ele>
        <time>2024-07-30T06:19:58Z</time>
      </trkpt>
      <trkpt lat="43.57317" lon="1.30431">
        <ele>166.8</ele>
        <time>2024-07-30T06:19:59Z</time>
      </trkpt>
      <trkpt lat="43.57313" lon="1.30427">
        <ele>166.8</ele>
        <time>2024-07-30T06:20:00Z</time>
      </trkpt>
      <trkpt lat="43.5731" lon="1.30422">
        <ele>166.8</ele>
        <time>2024-07-30T06:20:01Z</time>
      </trkpt>
      <trkpt lat="43.57306" lon="1.30418">
        <ele>166.8</ele>
        <time>2024-07-30T06:20:02Z</time>
      </trkpt>
      <trkpt lat="43.57303" lon="1.30414">
        <ele>166.8</ele>
        <time>2024-07-30T06:20:03Z</time>
      </trkpt>
      <trkpt lat="43.57299" lon="1.3041">
        <ele>166.8</ele>
        <time>2024-07-30T06:20:04Z</time>
      </trkpt>
      <trkpt lat="43.57295" lon="1.30406">
        <ele>166.8</ele>
        <time>2024-07-30T06:20:05Z</time>
      </trkpt>
      <trkpt lat="43.57291" lon="1.30402">
        <ele>166.8</ele>
        <time>2024-07-30T06:20:06Z</time>
      </trkpt>
      <trkpt lat="43.57288" lon="1.30398">
        <ele>166.8</ele>
        <time>2024-07-30T06:20:07Z</time>
      </trkpt>
      <trkpt lat="43.57284" lon="1.30393">
        <ele>166.8</ele>
        <time>2024-07-30T06:20:08Z</time>
      </trkpt>
      <trkpt lat="43.5728" lon="1.30388">
        <ele>166.8</ele>
        <time>2024-07-30T06:20:09Z</time>
      </trkpt>
      <trkpt lat="43.57275" lon="1.30384">
        <ele>166.8</ele>
        <time>2024-07-30T06:20:10Z</time>
      </trkpt>
      <trkpt lat="43.57271" lon="1.30379">
        <ele>166.8</ele>
        <time>2024-07-30T06:20:11Z</time>
      </trkpt>
      <trkpt lat="43.57267" lon="1.30374">
        <ele>166.8</ele>
        <time>2024-07-30T06:20:12Z</time>
      </trkpt>
      <trkpt lat="43.57263" lon="1.3037">
        <ele>166.8</ele>
        <time>2024-07-30T06:20:13Z</time>
      </trkpt>
      <trkpt lat="43.57258" lon="1.30365">
        <ele>166.8</ele>
        <time>2024-07-30T06:20:14Z</time>
      </trkpt>
      <trkpt lat="43.57254" lon="1.3036">
        <ele>166.8</ele>
        <time>2024-07-30T06:20:15Z</time>
      </trkpt>
      <trkpt lat="43.57249" lon="1.30355">
        <ele>166.8</ele>
        <time>2024-07-30T06:20:16Z</time>
      </trkpt>
      <trkpt lat="43.57245" lon="1.3035">
        <ele>166.8</ele>
        <time>2024-07-30T06:20:17Z</time>
      </trkpt>
      <trkpt lat="43.57241" lon="1.30345">
        <ele>166.8</ele>
        <time>2024-07-30T06:20:18Z</time>
      </trkpt>
      <trkpt lat="43.57236" lon="1.3034">
        <ele>166.8</ele>
        <time>2024-07-30T06:20:19Z</time>
      </trkpt>
      <trkpt lat="43.57232" lon="1.30335">
        <ele>167</ele>
        <time>2024-07-30T06:20:20Z</time>
      </trkpt>
      <trkpt lat="43.57228" lon="1.3033">
        <ele>167</ele>
        <time>2024-07-30T06:20:21Z</time>
      </trkpt>
      <trkpt lat="43.57223" lon="1.30325">
        <ele>167</ele>
        <time>2024-07-30T06:20:22Z</time>
      </trkpt>
      <trkpt lat="43.57219" lon="1.3032">
        <ele>167</ele>
        <time>2024-07-30T06:20:23Z</time>
      </trkpt>
      <trkpt lat="43.57214" lon="1.30315">
        <ele>167</ele>
        <time>2024-07-30T06:20:24Z</time>
      </trkpt>
      <trkpt lat="43.57209" lon="1.3031">
        <ele>167</ele>
        <time>2024-07-30T06:20:25Z</time>
      </trkpt>
      <trkpt lat="43.57205" lon="1.30304">
        <ele>167</ele>
        <time>2024-07-30T06:20:26Z</time>
      </trkpt>
      <trkpt lat="43.572" lon="1.30299">
        <ele>167</ele>
        <time>2024-07-30T06:20:27Z</time>
      </trkpt>
      <trkpt lat="43.57195" lon="1.30294">
        <ele>167</ele>
        <time>2024-07-30T06:20:28Z</time>
      </trkpt>
      <trkpt lat="43.5719" lon="1.30289">
        <ele>167</ele>
        <time>2024-07-30T06:20:29Z</time>
      </trkpt>
      <trkpt lat="43.57186" lon="1.30284">
        <ele>167</ele>
        <time>2024-07-30T06:20:30Z</time>
      </trkpt>
      <trkpt lat="43.57181" lon="1.30279">
        <ele>167</ele>
        <time>2024-07-30T06:20:31Z</time>
      </trkpt>
      <trkpt lat="43.57176" lon="1.30273">
        <ele>167</ele>
        <time>2024-07-30T06:20:32Z</time>
      </trkpt>
      <trkpt lat="43.57172" lon="1.30268">
        <ele>167</ele>
        <time>2024-07-30T06:20:33Z</time>
      </trkpt>
      <trkpt lat="43.57167" lon="1.30263">
        <ele>167.2</ele>
        <time>2024-07-30T06:20:34Z</time>
      </trkpt>
      <trkpt lat="43.57163" lon="1.30257">
        <ele>167.2</ele>
        <time>2024-07-30T06:20:35Z</time>
      </trkpt>
      <trkpt lat="43.57158" lon="1.30252">
        <ele>167.2</ele>
        <time>2024-07-30T06:20:36Z</time>
      </trkpt>
      <trkpt lat="43.57153" lon="1.30247">
        <ele>167.2</ele>
        <time>2024-07-30T06:20:37Z</time>
      </trkpt>
      <trkpt lat="43.57149" lon="1.30242">
        <ele>167.4</ele>
        <time>2024-07-30T06:20:38Z</time>
      </trkpt>
      <trkpt lat="43.57144" lon="1.30236">
        <ele>167.4</ele>
        <time>2024-07-30T06:20:39Z</time>
      </trkpt>
      <trkpt lat="43.5714" lon="1.30231">
        <ele>167.4</ele>
        <time>2024-07-30T06:20:40Z</time>
      </trkpt>
      <trkpt lat="43.57135" lon="1.30227">
        <ele>167.4</ele>
        <time>2024-07-30T06:20:41Z</time>
      </trkpt>
      <trkpt lat="43.57131" lon="1.30221">
        <ele>167.4</ele>
        <time>2024-07-30T06:20:42Z</time>
      </trkpt>
      <trkpt lat="43.57126" lon="1.30216">
        <ele>167.4</ele>
        <time>2024-07-30T06:20:43Z</time>
      </trkpt>
      <trkpt lat="43.57122" lon="1.3021">
        <ele>167.4</ele>
        <time>2024-07-30T06:20:44Z</time>
      </trkpt>
      <trkpt lat="43.57118" lon="1.30204">
        <ele>167.4</ele>
        <time>2024-07-30T06:20:45Z</time>
      </trkpt>
      <trkpt lat="43.57114" lon="1.30198">
        <ele>167.4</ele>
        <time>2024-07-30T06:20:46Z</time>
      </trkpt>
      <trkpt lat="43.5711" lon="1.30191">
        <ele>167.4</ele>
        <time>2024-07-30T06:20:47Z</time>
      </trkpt>
      <trkpt lat="43.57106" lon="1.30184">
        <ele>167.4</ele>
        <time>2024-07-30T06:20:48Z</time>
      </trkpt>
      <trkpt lat="43.57102" lon="1.30177">
        <ele>167.4</ele>
        <time>2024-07-30T06:20:49Z</time>
      </trkpt>
      <trkpt lat="43.57099" lon="1.3017">
        <ele>167.2</ele>
        <time>2024-07-30T06:20:50Z</time>
      </trkpt>
      <trkpt lat="43.57096" lon="1.30162">
        <ele>167.2</ele>
        <time>2024-07-30T06:20:51Z</time>
      </trkpt>
      <trkpt lat="43.57093" lon="1.30154">
        <ele>167.2</ele>
        <time>2024-07-30T06:20:52Z</time>
      </trkpt>
      <trkpt lat="43.5709" lon="1.30146">
        <ele>167.2</ele>
        <time>2024-07-30T06:20:53Z</time>
      </trkpt>
      <trkpt lat="43.57087" lon="1.30138">
        <ele>167.2</ele>
        <time>2024-07-30T06:20:54Z</time>
      </trkpt>
      <trkpt lat="43.57085" lon="1.3013">
        <ele>167.2</ele>
        <time>2024-07-30T06:20:55Z</time>
      </trkpt>
      <trkpt lat="43.57082" lon="1.30122">
        <ele>167.2</ele>
        <time>2024-07-30T06:20:56Z</time>
      </trkpt>
      <trkpt lat="43.5708" lon="1.30116">
        <ele>167.4</ele>
        <time>2024-07-30T06:20:57Z</time>
      </trkpt>
      <trkpt lat="43.57078" lon="1.30108">
        <ele>167.4</ele>
        <time>2024-07-30T06:20:58Z</time>
      </trkpt>
      <trkpt lat="43.57076" lon="1.301">
        <ele>167.4</ele>
        <time>2024-07-30T06:20:59Z</time>
      </trkpt>
      <trkpt lat="43.57073" lon="1.3009">
        <ele>167.4</ele>
        <time>2024-07-30T06:21:00Z</time>
      </trkpt>
      <trkpt lat="43.57071" lon="1.30082">
        <ele>167.4</ele>
        <time>2024-07-30T06:21:01Z</time>
      </trkpt>
      <trkpt lat="43.57069" lon="1.30075">
        <ele>167.6</ele>
        <time>2024-07-30T06:21:02Z</time>
      </trkpt>
      <trkpt lat="43.57066" lon="1.30067">
        <ele>167.6</ele>
        <time>2024-07-30T06:21:03Z</time>
      </trkpt>
      <trkpt lat="43.57064" lon="1.30059">
        <ele>167.6</ele>
        <time>2024-07-30T06:21:04Z</time>
      </trkpt>
      <trkpt lat="43.57061" lon="1.30051">
        <ele>167.6</ele>
        <time>2024-07-30T06:21:05Z</time>
      </trkpt>
      <trkpt lat="43.57058" lon="1.30041">
        <ele>167.6</ele>
        <time>2024-07-30T06:21:06Z</time>
      </trkpt>
      <trkpt lat="43.57056" lon="1.30034">
        <ele>167.6</ele>
        <time>2024-07-30T06:21:07Z</time>
      </trkpt>
      <trkpt lat="43.57054" lon="1.30026">
        <ele>167.8</ele>
        <time>2024-07-30T06:21:08Z</time>
      </trkpt>
      <trkpt lat="43.57051" lon="1.30015">
        <ele>167.8</ele>
        <time>2024-07-30T06:21:09Z</time>
      </trkpt>
      <trkpt lat="43.57048" lon="1.30007">
        <ele>168</ele>
        <time>2024-07-30T06:21:10Z</time>
      </trkpt>
      <trkpt lat="43.57046" lon="1.29999">
        <ele>168</ele>
        <time>2024-07-30T06:21:11Z</time>
      </trkpt>
      <trkpt lat="43.57044" lon="1.29992">
        <ele>168</ele>
        <time>2024-07-30T06:21:12Z</time>
      </trkpt>
      <trkpt lat="43.57041" lon="1.29984">
        <ele>168</ele>
        <time>2024-07-30T06:21:13Z</time>
      </trkpt>
      <trkpt lat="43.57039" lon="1.29975">
        <ele>168</ele>
        <time>2024-07-30T06:21:14Z</time>
      </trkpt>
      <trkpt lat="43.57036" lon="1.29965">
        <ele>168.2</ele>
        <time>2024-07-30T06:21:15Z</time>
      </trkpt>
      <trkpt lat="43.57034" lon="1.29959">
        <ele>168.4</ele>
        <time>2024-07-30T06:21:16Z</time>
      </trkpt>
      <trkpt lat="43.57031" lon="1.2995">
        <ele>168.4</ele>
        <time>2024-07-30T06:21:17Z</time>
      </trkpt>
      <trkpt lat="43.57029" lon="1.29942">
        <ele>168.6</ele>
        <time>2024-07-30T06:21:18Z</time>
      </trkpt>
      <trkpt lat="43.57026" lon="1.29932">
        <ele>168.6</ele>
        <time>2024-07-30T06:21:19Z</time>
      </trkpt>
      <trkpt lat="43.57024" lon="1.29923">
        <ele>168.6</ele>
        <time>2024-07-30T06:21:20Z</time>
      </trkpt>
      <trkpt lat="43.57022" lon="1.29916">
        <ele>168.6</ele>
        <time>2024-07-30T06:21:21Z</time>
      </trkpt>
      <trkpt lat="43.57019" lon="1.29908">
        <ele>168.6</ele>
        <time>2024-07-30T06:21:22Z</time>
      </trkpt>
      <trkpt lat="43.57016" lon="1.29898">
        <ele>168.8</ele>
        <time>2024-07-30T06:21:23Z</time>
      </trkpt>
      <trkpt lat="43.57014" lon="1.29889">
        <ele>168.8</ele>
        <time>2024-07-30T06:21:24Z</time>
      </trkpt>
      <trkpt lat="43.57011" lon="1.2988">
        <ele>168.8</ele>
        <time>2024-07-30T06:21:25Z</time>
      </trkpt>
      <trkpt lat="43.5701" lon="1.29874">
        <ele>168.8</ele>
        <time>2024-07-30T06:21:26Z</time>
      </trkpt>
      <trkpt lat="43.57007" lon="1.29865">
        <ele>168.8</ele>
        <time>2024-07-30T06:21:27Z</time>
      </trkpt>
      <trkpt lat="43.57005" lon="1.29856">
        <ele>168.8</ele>
        <time>2024-07-30T06:21:28Z</time>
      </trkpt>
      <trkpt lat="43.57002" lon="1.29846">
        <ele>168.8</ele>
        <time>2024-07-30T06:21:29Z</time>
      </trkpt>
      <trkpt lat="43.57" lon="1.29839">
        <ele>168.8</ele>
        <time>2024-07-30T06:21:30Z</time>
      </trkpt>
      <trkpt lat="43.56997" lon="1.29831">
        <ele>169</ele>
        <time>2024-07-30T06:21:31Z</time>
      </trkpt>
      <trkpt lat="43.56994" lon="1.29821">
        <ele>169</ele>
        <time>2024-07-30T06:21:32Z</time>
      </trkpt>
      <trkpt lat="43.56992" lon="1.29812">
        <ele>169</ele>
        <time>2024-07-30T06:21:33Z</time>
      </trkpt>
      <trkpt lat="43.56989" lon="1.29804">
        <ele>169</ele>
        <time>2024-07-30T06:21:34Z</time>
      </trkpt>
      <trkpt lat="43.56987" lon="1.29797">
        <ele>169</ele>
        <time>2024-07-30T06:21:35Z</time>
      </trkpt>
      <trkpt lat="43.56985" lon="1.29788">
        <ele>169</ele>
        <time>2024-07-30T06:21:36Z</time>
      </trkpt>
      <trkpt lat="43.56982" lon="1.29778">
        <ele>169.2</ele>
        <time>2024-07-30T06:21:37Z</time>
      </trkpt>
      <trkpt lat="43.5698" lon="1.29771">
        <ele>169.2</ele>
        <time>2024-07-30T06:21:38Z</time>
      </trkpt>
      <trkpt lat="43.56977" lon="1.29763">
        <ele>169.2</ele>
        <time>2024-07-30T06:21:39Z</time>
      </trkpt>
      <trkpt lat="43.56974" lon="1.29755">
        <ele>169.2</ele>
        <time>2024-07-30T06:21:40Z</time>
      </trkpt>
      <trkpt lat="43.56972" lon="1.29747">
        <ele>169.4</ele>
        <time>2024-07-30T06:21:41Z</time>
      </trkpt>
      <trkpt lat="43.56969" lon="1.29738">
        <ele>169.4</ele>
        <time>2024-07-30T06:21:42Z</time>
      </trkpt>
      <trkpt lat="43.56967" lon="1.29729">
        <ele>169.4</ele>
        <time>2024-07-30T06:21:43Z</time>
      </trkpt>
      <trkpt lat="43.56964" lon="1.29721">
        <ele>169.4</ele>
        <time>2024-07-30T06:21:44Z</time>
      </trkpt>
      <trkpt lat="43.56963" lon="1.29715">
        <ele>169.4</ele>
        <time>2024-07-30T06:21:45Z</time>
      </trkpt>
      <trkpt lat="43.5696" lon="1.29707">
        <ele>169.6</ele>
        <time>2024-07-30T06:21:46Z</time>
      </trkpt>
      <trkpt lat="43.56957" lon="1.29697">
        <ele>169.6</ele>
        <time>2024-07-30T06:21:47Z</time>
      </trkpt>
      <trkpt lat="43.56954" lon="1.29689">
        <ele>169.8</ele>
        <time>2024-07-30T06:21:48Z</time>
      </trkpt>
      <trkpt lat="43.56952" lon="1.29683">
        <ele>169.8</ele>
        <time>2024-07-30T06:21:49Z</time>
      </trkpt>
      <trkpt lat="43.5695" lon="1.29675">
        <ele>170</ele>
        <time>2024-07-30T06:21:50Z</time>
      </trkpt>
      <trkpt lat="43.56946" lon="1.29666">
        <ele>170</ele>
        <time>2024-07-30T06:21:51Z</time>
      </trkpt>
      <trkpt lat="43.56944" lon="1.29658">
        <ele>170.2</ele>
        <time>2024-07-30T06:21:52Z</time>
      </trkpt>
      <trkpt lat="43.56941" lon="1.2965">
        <ele>170.2</ele>
        <time>2024-07-30T06:21:53Z</time>
      </trkpt>
      <trkpt lat="43.56939" lon="1.29643">
        <ele>170.4</ele>
        <time>2024-07-30T06:21:54Z</time>
      </trkpt>
      <trkpt lat="43.56936" lon="1.29635">
        <ele>170.4</ele>
        <time>2024-07-30T06:21:55Z</time>
      </trkpt>
      <trkpt lat="43.56933" lon="1.29627">
        <ele>170.4</ele>
        <time>2024-07-30T06:21:56Z</time>
      </trkpt>
      <trkpt lat="43.5693" lon="1.29617">
        <ele>170.4</ele>
        <time>2024-07-30T06:21:57Z</time>
      </trkpt>
      <trkpt lat="43.56928" lon="1.29611">
        <ele>170.4</ele>
        <time>2024-07-30T06:21:58Z</time>
      </trkpt>
      <trkpt lat="43.56925" lon="1.29603">
        <ele>170.4</ele>
        <time>2024-07-30T06:21:59Z</time>
      </trkpt>
      <trkpt lat="43.56922" lon="1.29594">
        <ele>170.4</ele>
        <time>2024-07-30T06:22:00Z</time>
      </trkpt>
      <trkpt lat="43.56919" lon="1.29586">
        <ele>170.6</ele>
        <time>2024-07-30T06:22:01Z</time>
      </trkpt>
      <trkpt lat="43.56917" lon="1.2958">
        <ele>170.6</ele>
        <time>2024-07-30T06:22:02Z</time>
      </trkpt>
      <trkpt lat="43.56915" lon="1.29573">
        <ele>170.6</ele>
        <time>2024-07-30T06:22:03Z</time>
      </trkpt>
      <trkpt lat="43.56912" lon="1.29566">
        <ele>170.6</ele>
        <time>2024-07-30T06:22:04Z</time>
      </trkpt>
      <trkpt lat="43.56909" lon="1.29558">
        <ele>170.4</ele>
        <time>2024-07-30T06:22:05Z</time>
      </trkpt>
      <trkpt lat="43.56907" lon="1.29551">
        <ele>170.4</ele>
        <time>2024-07-30T06:22:06Z</time>
      </trkpt>
      <trkpt lat="43.56905" lon="1.29544">
        <ele>170.4</ele>
        <time>2024-07-30T06:22:07Z</time>
      </trkpt>
      <trkpt lat="43.56903" lon="1.29537">
        <ele>170.4</ele>
        <time>2024-07-30T06:22:08Z</time>
      </trkpt>
      <trkpt lat="43.56901" lon="1.29529">
        <ele>170.6</ele>
        <time>2024-07-30T06:22:09Z</time>
      </trkpt>
      <trkpt lat="43.56899" lon="1.29521">
        <ele>170.6</ele>
        <time>2024-07-30T06:22:10Z</time>
      </trkpt>
      <trkpt lat="43.56896" lon="1.29511">
        <ele>170.6</ele>
        <time>2024-07-30T06:22:11Z</time>
      </trkpt>
      <trkpt lat="43.56894" lon="1.29504">
        <ele>170.6</ele>
        <time>2024-07-30T06:22:12Z</time>
      </trkpt>
      <trkpt lat="43.56892" lon="1.29496">
        <ele>170.6</ele>
        <time>2024-07-30T06:22:13Z</time>
      </trkpt>
      <trkpt lat="43.5689" lon="1.29486">
        <ele>170.4</ele>
        <time>2024-07-30T06:22:14Z</time>
      </trkpt>
      <trkpt lat="43.56887" lon="1.29477">
        <ele>170.4</ele>
        <time>2024-07-30T06:22:15Z</time>
      </trkpt>
      <trkpt lat="43.56885" lon="1.29468">
        <ele>170.6</ele>
        <time>2024-07-30T06:22:16Z</time>
      </trkpt>
      <trkpt lat="43.56884" lon="1.29462">
        <ele>170.6</ele>
        <time>2024-07-30T06:22:17Z</time>
      </trkpt>
      <trkpt lat="43.56881" lon="1.29453">
        <ele>170.6</ele>
        <time>2024-07-30T06:22:18Z</time>
      </trkpt>
      <trkpt lat="43.56879" lon="1.29443">
        <ele>170.6</ele>
        <time>2024-07-30T06:22:19Z</time>
      </trkpt>
      <trkpt lat="43.56876" lon="1.29434">
        <ele>170.6</ele>
        <time>2024-07-30T06:22:20Z</time>
      </trkpt>
      <trkpt lat="43.56875" lon="1.29427">
        <ele>170.4</ele>
        <time>2024-07-30T06:22:21Z</time>
      </trkpt>
      <trkpt lat="43.56872" lon="1.29419">
        <ele>170.6</ele>
        <time>2024-07-30T06:22:22Z</time>
      </trkpt>
      <trkpt lat="43.5687" lon="1.2941">
        <ele>170.6</ele>
        <time>2024-07-30T06:22:23Z</time>
      </trkpt>
      <trkpt lat="43.56868" lon="1.29401">
        <ele>170.6</ele>
        <time>2024-07-30T06:22:24Z</time>
      </trkpt>
      <trkpt lat="43.56866" lon="1.29391">
        <ele>170.6</ele>
        <time>2024-07-30T06:22:25Z</time>
      </trkpt>
      <trkpt lat="43.56864" lon="1.29384">
        <ele>170.6</ele>
        <time>2024-07-30T06:22:26Z</time>
      </trkpt>
      <trkpt lat="43.56862" lon="1.29375">
        <ele>170.8</ele>
        <time>2024-07-30T06:22:27Z</time>
      </trkpt>
      <trkpt lat="43.56859" lon="1.29364">
        <ele>170.8</ele>
        <time>2024-07-30T06:22:28Z</time>
      </trkpt>
      <trkpt lat="43.56857" lon="1.29356">
        <ele>170.8</ele>
        <time>2024-07-30T06:22:29Z</time>
      </trkpt>
      <trkpt lat="43.56855" lon="1.29349">
        <ele>170.8</ele>
        <time>2024-07-30T06:22:30Z</time>
      </trkpt>
      <trkpt lat="43.56853" lon="1.2934">
        <ele>170.8</ele>
        <time>2024-07-30T06:22:31Z</time>
      </trkpt>
      <trkpt lat="43.56851" lon="1.29331">
        <ele>171</ele>
        <time>2024-07-30T06:22:32Z</time>
      </trkpt>
      <trkpt lat="43.56849" lon="1.2932">
        <ele>171.2</ele>
        <time>2024-07-30T06:22:33Z</time>
      </trkpt>
      <trkpt lat="43.56847" lon="1.29311">
        <ele>171.2</ele>
        <time>2024-07-30T06:22:34Z</time>
      </trkpt>
      <trkpt lat="43.56845" lon="1.29302">
        <ele>171.2</ele>
        <time>2024-07-30T06:22:35Z</time>
      </trkpt>
      <trkpt lat="43.56843" lon="1.29293">
        <ele>171.4</ele>
        <time>2024-07-30T06:22:36Z</time>
      </trkpt>
      <trkpt lat="43.56841" lon="1.29283">
        <ele>171.4</ele>
        <time>2024-07-30T06:22:37Z</time>
      </trkpt>
      <trkpt lat="43.56838" lon="1.29274">
        <ele>171.4</ele>
        <time>2024-07-30T06:22:38Z</time>
      </trkpt>
      <trkpt lat="43.56836" lon="1.29265">
        <ele>171.6</ele>
        <time>2024-07-30T06:22:39Z</time>
      </trkpt>
      <trkpt lat="43.56833" lon="1.29256">
        <ele>171.6</ele>
        <time>2024-07-30T06:22:40Z</time>
      </trkpt>
      <trkpt lat="43.56831" lon="1.29247">
        <ele>171.6</ele>
        <time>2024-07-30T06:22:41Z</time>
      </trkpt>
      <trkpt lat="43.56828" lon="1.29239">
        <ele>171.6</ele>
        <time>2024-07-30T06:22:42Z</time>
      </trkpt>
      <trkpt lat="43.56826" lon="1.2923">
        <ele>171.6</ele>
        <time>2024-07-30T06:22:43Z</time>
      </trkpt>
      <trkpt lat="43.56824" lon="1.29221">
        <ele>171.6</ele>
        <time>2024-07-30T06:22:44Z</time>
      </trkpt>
      <trkpt lat="43.56821" lon="1.29213">
        <ele>171.8</ele>
        <time>2024-07-30T06:22:45Z</time>
      </trkpt>
      <trkpt lat="43.56819" lon="1.29204">
        <ele>171.8</ele>
        <time>2024-07-30T06:22:46Z</time>
      </trkpt>
      <trkpt lat="43.56817" lon="1.29196">
        <ele>171.8</ele>
        <time>2024-07-30T06:22:47Z</time>
      </trkpt>
      <trkpt lat="43.56814" lon="1.29187">
        <ele>171.8</ele>
        <time>2024-07-30T06:22:48Z</time>
      </trkpt>
      <trkpt lat="43.56812" lon="1.29179">
        <ele>172</ele>
        <time>2024-07-30T06:22:49Z</time>
      </trkpt>
      <trkpt lat="43.5681" lon="1.29171">
        <ele>172</ele>
        <time>2024-07-30T06:22:50Z</time>
      </trkpt>
      <trkpt lat="43.56807" lon="1.29163">
        <ele>172</ele>
        <time>2024-07-30T06:22:51Z</time>
      </trkpt>
      <trkpt lat="43.56805" lon="1.29154">
        <ele>172</ele>
        <time>2024-07-30T06:22:52Z</time>
      </trkpt>
      <trkpt lat="43.56803" lon="1.29146">
        <ele>172.2</ele>
        <time>2024-07-30T06:22:53Z</time>
      </trkpt>
      <trkpt lat="43.56801" lon="1.29138">
        <ele>172.4</ele>
        <time>2024-07-30T06:22:54Z</time>
      </trkpt>
      <trkpt lat="43.56799" lon="1.2913">
        <ele>172.4</ele>
        <time>2024-07-30T06:22:55Z</time>
      </trkpt>
      <trkpt lat="43.56796" lon="1.29122">
        <ele>172.4</ele>
        <time>2024-07-30T06:22:56Z</time>
      </trkpt>
      <trkpt lat="43.56794" lon="1.29113">
        <ele>172.6</ele>
        <time>2024-07-30T06:22:57Z</time>
      </trkpt>
      <trkpt lat="43.56792" lon="1.29105">
        <ele>172.6</ele>
        <time>2024-07-30T06:22:58Z</time>
      </trkpt>
      <trkpt lat="43.5679" lon="1.29097">
        <ele>172.6</ele>
        <time>2024-07-30T06:22:59Z</time>
      </trkpt>
      <trkpt lat="43.56788" lon="1.29089">
        <ele>172.6</ele>
        <time>2024-07-30T06:23:00Z</time>
      </trkpt>
      <trkpt lat="43.56786" lon="1.29081">
        <ele>172.8</ele>
        <time>2024-07-30T06:23:01Z</time>
      </trkpt>
      <trkpt lat="43.56784" lon="1.29073">
        <ele>172.8</ele>
        <time>2024-07-30T06:23:02Z</time>
      </trkpt>
      <trkpt lat="43.56781" lon="1.29065">
        <ele>172.8</ele>
        <time>2024-07-30T06:23:03Z</time>
      </trkpt>
      <trkpt lat="43.56779" lon="1.29058">
        <ele>173</ele>
        <time>2024-07-30T06:23:04Z</time>
      </trkpt>
      <trkpt lat="43.56777" lon="1.2905">
        <ele>173.2</ele>
        <time>2024-07-30T06:23:05Z</time>
      </trkpt>
      <trkpt lat="43.56774" lon="1.29043">
        <ele>173.2</ele>
        <time>2024-07-30T06:23:06Z</time>
      </trkpt>
      <trkpt lat="43.56772" lon="1.29036">
        <ele>173.4</ele>
        <time>2024-07-30T06:23:07Z</time>
      </trkpt>
      <trkpt lat="43.5677" lon="1.29029">
        <ele>173.6</ele>
        <time>2024-07-30T06:23:08Z</time>
      </trkpt>
      <trkpt lat="43.56767" lon="1.29023">
        <ele>173.8</ele>
        <time>2024-07-30T06:23:09Z</time>
      </trkpt>
      <trkpt lat="43.56763" lon="1.29019">
        <ele>174</ele>
        <time>2024-07-30T06:23:10Z</time>
      </trkpt>
      <trkpt lat="43.56758" lon="1.29017">
        <ele>174</ele>
        <time>2024-07-30T06:23:11Z</time>
      </trkpt>
      <trkpt lat="43.56754" lon="1.29018">
        <ele>174.2</ele>
        <time>2024-07-30T06:23:12Z</time>
      </trkpt>
      <trkpt lat="43.56749" lon="1.29022">
        <ele>174.2</ele>
        <time>2024-07-30T06:23:13Z</time>
      </trkpt>
      <trkpt lat="43.56745" lon="1.29027">
        <ele>174.2</ele>
        <time>2024-07-30T06:23:14Z</time>
      </trkpt>
      <trkpt lat="43.5674" lon="1.29032">
        <ele>174.4</ele>
        <time>2024-07-30T06:23:15Z</time>
      </trkpt>
      <trkpt lat="43.56735" lon="1.29038">
        <ele>174.2</ele>
        <time>2024-07-30T06:23:16Z</time>
      </trkpt>
      <trkpt lat="43.5673" lon="1.29044">
        <ele>174.2</ele>
        <time>2024-07-30T06:23:17Z</time>
      </trkpt>
      <trkpt lat="43.56724" lon="1.2905">
        <ele>174.2</ele>
        <time>2024-07-30T06:23:18Z</time>
      </trkpt>
      <trkpt lat="43.56719" lon="1.29056">
        <ele>174.2</ele>
        <time>2024-07-30T06:23:19Z</time>
      </trkpt>
      <trkpt lat="43.56714" lon="1.29062">
        <ele>174</ele>
        <time>2024-07-30T06:23:20Z</time>
      </trkpt>
      <trkpt lat="43.56708" lon="1.29068">
        <ele>173.8</ele>
        <time>2024-07-30T06:23:21Z</time>
      </trkpt>
      <trkpt lat="43.56703" lon="1.29073">
        <ele>173.6</ele>
        <time>2024-07-30T06:23:22Z</time>
      </trkpt>
      <trkpt lat="43.56698" lon="1.29079">
        <ele>173.4</ele>
        <time>2024-07-30T06:23:23Z</time>
      </trkpt>
      <trkpt lat="43.56693" lon="1.29084">
        <ele>173.4</ele>
        <time>2024-07-30T06:23:24Z</time>
      </trkpt>
      <trkpt lat="43.56688" lon="1.2909">
        <ele>173.2</ele>
        <time>2024-07-30T06:23:25Z</time>
      </trkpt>
      <trkpt lat="43.56683" lon="1.29096">
        <ele>173</ele>
        <time>2024-07-30T06:23:26Z</time>
      </trkpt>
      <trkpt lat="43.56678" lon="1.29102">
        <ele>172.8</ele>
        <time>2024-07-30T06:23:27Z</time>
      </trkpt>
      <trkpt lat="43.56673" lon="1.29106">
        <ele>172.6</ele>
        <time>2024-07-30T06:23:28Z</time>
      </trkpt>
      <trkpt lat="43.56667" lon="1.29109">
        <ele>172.4</ele>
        <time>2024-07-30T06:23:29Z</time>
      </trkpt>
      <trkpt lat="43.56662" lon="1.29107">
        <ele>172.2</ele>
        <time>2024-07-30T06:23:30Z</time>
      </trkpt>
      <trkpt lat="43.56657" lon="1.29101">
        <ele>172.2</ele>
        <time>2024-07-30T06:23:31Z</time>
      </trkpt>
      <trkpt lat="43.56653" lon="1.29095">
        <ele>172</ele>
        <time>2024-07-30T06:23:32Z</time>
      </trkpt>
      <trkpt lat="43.56649" lon="1.29088">
        <ele>172</ele>
        <time>2024-07-30T06:23:33Z</time>
      </trkpt>
      <trkpt lat="43.56644" lon="1.29081">
        <ele>171.8</ele>
        <time>2024-07-30T06:23:34Z</time>
      </trkpt>
      <trkpt lat="43.5664" lon="1.29074">
        <ele>171.8</ele>
        <time>2024-07-30T06:23:35Z</time>
      </trkpt>
      <trkpt lat="43.56635" lon="1.29068">
        <ele>171.8</ele>
        <time>2024-07-30T06:23:36Z</time>
      </trkpt>
      <trkpt lat="43.5663" lon="1.29061">
        <ele>171.8</ele>
        <time>2024-07-30T06:23:37Z</time>
      </trkpt>
      <trkpt lat="43.56626" lon="1.29054">
        <ele>171.8</ele>
        <time>2024-07-30T06:23:38Z</time>
      </trkpt>
      <trkpt lat="43.56621" lon="1.29047">
        <ele>171.8</ele>
        <time>2024-07-30T06:23:39Z</time>
      </trkpt>
      <trkpt lat="43.56616" lon="1.2904">
        <ele>171.8</ele>
        <time>2024-07-30T06:23:40Z</time>
      </trkpt>
      <trkpt lat="43.56612" lon="1.29033">
        <ele>171.6</ele>
        <time>2024-07-30T06:23:41Z</time>
      </trkpt>
      <trkpt lat="43.56607" lon="1.29026">
        <ele>171.6</ele>
        <time>2024-07-30T06:23:42Z</time>
      </trkpt>
      <trkpt lat="43.56602" lon="1.29018">
        <ele>171.6</ele>
        <time>2024-07-30T06:23:43Z</time>
      </trkpt>
      <trkpt lat="43.56597" lon="1.29011">
        <ele>171.6</ele>
        <time>2024-07-30T06:23:44Z</time>
      </trkpt>
      <trkpt lat="43.56593" lon="1.29004">
        <ele>171.6</ele>
        <time>2024-07-30T06:23:45Z</time>
      </trkpt>
      <trkpt lat="43.56588" lon="1.28997">
        <ele>171.6</ele>
        <time>2024-07-30T06:23:46Z</time>
      </trkpt>
      <trkpt lat="43.56583" lon="1.2899">
        <ele>171.4</ele>
        <time>2024-07-30T06:23:47Z</time>
      </trkpt>
      <trkpt lat="43.56579" lon="1.28982">
        <ele>171.4</ele>
        <time>2024-07-30T06:23:48Z</time>
      </trkpt>
      <trkpt lat="43.56575" lon="1.28977">
        <ele>171.4</ele>
        <time>2024-07-30T06:23:49Z</time>
      </trkpt>
      <trkpt lat="43.56569" lon="1.28968">
        <ele>171.4</ele>
        <time>2024-07-30T06:23:50Z</time>
      </trkpt>
      <trkpt lat="43.56564" lon="1.28961">
        <ele>171.2</ele>
        <time>2024-07-30T06:23:51Z</time>
      </trkpt>
      <trkpt lat="43.5656" lon="1.28954">
        <ele>171.2</ele>
        <time>2024-07-30T06:23:52Z</time>
      </trkpt>
      <trkpt lat="43.56555" lon="1.28946">
        <ele>171.2</ele>
        <time>2024-07-30T06:23:53Z</time>
      </trkpt>
      <trkpt lat="43.5655" lon="1.28939">
        <ele>171.2</ele>
        <time>2024-07-30T06:23:54Z</time>
      </trkpt>
      <trkpt lat="43.56546" lon="1.28932">
        <ele>171.2</ele>
        <time>2024-07-30T06:23:55Z</time>
      </trkpt>
      <trkpt lat="43.56541" lon="1.28925">
        <ele>171.2</ele>
        <time>2024-07-30T06:23:56Z</time>
      </trkpt>
      <trkpt lat="43.56536" lon="1.28918">
        <ele>171</ele>
        <time>2024-07-30T06:23:57Z</time>
      </trkpt>
      <trkpt lat="43.56532" lon="1.28911">
        <ele>171</ele>
        <time>2024-07-30T06:23:58Z</time>
      </trkpt>
      <trkpt lat="43.56527" lon="1.28904">
        <ele>171</ele>
        <time>2024-07-30T06:23:59Z</time>
      </trkpt>
      <trkpt lat="43.56523" lon="1.28898">
        <ele>171</ele>
        <time>2024-07-30T06:24:00Z</time>
      </trkpt>
      <trkpt lat="43.56518" lon="1.28892">
        <ele>170.8</ele>
        <time>2024-07-30T06:24:01Z</time>
      </trkpt>
      <trkpt lat="43.56514" lon="1.28885">
        <ele>170.8</ele>
        <time>2024-07-30T06:24:02Z</time>
      </trkpt>
      <trkpt lat="43.5651" lon="1.28879">
        <ele>170.8</ele>
        <time>2024-07-30T06:24:03Z</time>
      </trkpt>
      <trkpt lat="43.56506" lon="1.28873">
        <ele>170.8</ele>
        <time>2024-07-30T06:24:04Z</time>
      </trkpt>
      <trkpt lat="43.56502" lon="1.28869">
        <ele>170.8</ele>
        <time>2024-07-30T06:24:05Z</time>
      </trkpt>
      <trkpt lat="43.56496" lon="1.28866">
        <ele>170.8</ele>
        <time>2024-07-30T06:24:06Z</time>
      </trkpt>
      <trkpt lat="43.56491" lon="1.28868">
        <ele>170.8</ele>
        <time>2024-07-30T06:24:07Z</time>
      </trkpt>
      <trkpt lat="43.56489" lon="1.28873">
        <ele>170.8</ele>
        <time>2024-07-30T06:24:08Z</time>
      </trkpt>
      <trkpt lat="43.56488" lon="1.2888">
        <ele>170.8</ele>
        <time>2024-07-30T06:24:09Z</time>
      </trkpt>
      <trkpt lat="43.56488" lon="1.28889">
        <ele>171</ele>
        <time>2024-07-30T06:24:10Z</time>
      </trkpt>
      <trkpt lat="43.56487" lon="1.28897">
        <ele>171</ele>
        <time>2024-07-30T06:24:11Z</time>
      </trkpt>
      <trkpt lat="43.56484" lon="1.28905">
        <ele>171</ele>
        <time>2024-07-30T06:24:12Z</time>
      </trkpt>
      <trkpt lat="43.56481" lon="1.28913">
        <ele>171</ele>
        <time>2024-07-30T06:24:13Z</time>
      </trkpt>
      <trkpt lat="43.56478" lon="1.2892">
        <ele>171</ele>
        <time>2024-07-30T06:24:14Z</time>
      </trkpt>
      <trkpt lat="43.56474" lon="1.28927">
        <ele>171</ele>
        <time>2024-07-30T06:24:15Z</time>
      </trkpt>
      <trkpt lat="43.56471" lon="1.28935">
        <ele>171</ele>
        <time>2024-07-30T06:24:16Z</time>
      </trkpt>
      <trkpt lat="43.56467" lon="1.28942">
        <ele>170.8</ele>
        <time>2024-07-30T06:24:17Z</time>
      </trkpt>
      <trkpt lat="43.56463" lon="1.2895">
        <ele>170.8</ele>
        <time>2024-07-30T06:24:18Z</time>
      </trkpt>
      <trkpt lat="43.5646" lon="1.28957">
        <ele>170.6</ele>
        <time>2024-07-30T06:24:19Z</time>
      </trkpt>
      <trkpt lat="43.56457" lon="1.28965">
        <ele>170.6</ele>
        <time>2024-07-30T06:24:20Z</time>
      </trkpt>
      <trkpt lat="43.56453" lon="1.28973">
        <ele>170.4</ele>
        <time>2024-07-30T06:24:21Z</time>
      </trkpt>
      <trkpt lat="43.5645" lon="1.28981">
        <ele>170.4</ele>
        <time>2024-07-30T06:24:22Z</time>
      </trkpt>
      <trkpt lat="43.56446" lon="1.28989">
        <ele>170.4</ele>
        <time>2024-07-30T06:24:23Z</time>
      </trkpt>
      <trkpt lat="43.56442" lon="1.28997">
        <ele>170.4</ele>
        <time>2024-07-30T06:24:24Z</time>
      </trkpt>
      <trkpt lat="43.56439" lon="1.29005">
        <ele>170.4</ele>
        <time>2024-07-30T06:24:25Z</time>
      </trkpt>
      <trkpt lat="43.56435" lon="1.29013">
        <ele>170.2</ele>
        <time>2024-07-30T06:24:26Z</time>
      </trkpt>
      <trkpt lat="43.56431" lon="1.29021">
        <ele>170.2</ele>
        <time>2024-07-30T06:24:27Z</time>
      </trkpt>
      <trkpt lat="43.56428" lon="1.29028">
        <ele>170.2</ele>
        <time>2024-07-30T06:24:28Z</time>
      </trkpt>
      <trkpt lat="43.56424" lon="1.29036">
        <ele>170.2</ele>
        <time>2024-07-30T06:24:29Z</time>
      </trkpt>
      <trkpt lat="43.5642" lon="1.29044">
        <ele>170.2</ele>
        <time>2024-07-30T06:24:30Z</time>
      </trkpt>
      <trkpt lat="43.56416" lon="1.29052">
        <ele>170.2</ele>
        <time>2024-07-30T06:24:31Z</time>
      </trkpt>
      <trkpt lat="43.56412" lon="1.2906">
        <ele>170.2</ele>
        <time>2024-07-30T06:24:32Z</time>
      </trkpt>
      <trkpt lat="43.56409" lon="1.29069">
        <ele>170.2</ele>
        <time>2024-07-30T06:24:33Z</time>
      </trkpt>
      <trkpt lat="43.56405" lon="1.29076">
        <ele>170.2</ele>
        <time>2024-07-30T06:24:34Z</time>
      </trkpt>
      <trkpt lat="43.56401" lon="1.29084">
        <ele>170</ele>
        <time>2024-07-30T06:24:35Z</time>
      </trkpt>
      <trkpt lat="43.56397" lon="1.2909">
        <ele>170</ele>
        <time>2024-07-30T06:24:36Z</time>
      </trkpt>
      <trkpt lat="43.56392" lon="1.29095">
        <ele>170</ele>
        <time>2024-07-30T06:24:37Z</time>
      </trkpt>
      <trkpt lat="43.56386" lon="1.291">
        <ele>170</ele>
        <time>2024-07-30T06:24:38Z</time>
      </trkpt>
      <trkpt lat="43.56381" lon="1.29104">
        <ele>170</ele>
        <time>2024-07-30T06:24:39Z</time>
      </trkpt>
      <trkpt lat="43.56376" lon="1.29108">
        <ele>170</ele>
        <time>2024-07-30T06:24:40Z</time>
      </trkpt>
      <trkpt lat="43.5637" lon="1.29111">
        <ele>170</ele>
        <time>2024-07-30T06:24:41Z</time>
      </trkpt>
      <trkpt lat="43.56366" lon="1.29115">
        <ele>170</ele>
        <time>2024-07-30T06:24:42Z</time>
      </trkpt>
      <trkpt lat="43.5636" lon="1.29117">
        <ele>170</ele>
        <time>2024-07-30T06:24:43Z</time>
      </trkpt>
      <trkpt lat="43.56355" lon="1.29118">
        <ele>170</ele>
        <time>2024-07-30T06:24:44Z</time>
      </trkpt>
      <trkpt lat="43.5635" lon="1.29118">
        <ele>170</ele>
        <time>2024-07-30T06:24:45Z</time>
      </trkpt>
      <trkpt lat="43.56345" lon="1.29118">
        <ele>170</ele>
        <time>2024-07-30T06:24:46Z</time>
      </trkpt>
      <trkpt lat="43.5634" lon="1.29118">
        <ele>170</ele>
        <time>2024-07-30T06:24:47Z</time>
      </trkpt>
      <trkpt lat="43.56335" lon="1.29119">
        <ele>170</ele>
        <time>2024-07-30T06:24:48Z</time>
      </trkpt>
      <trkpt lat="43.56331" lon="1.29121">
        <ele>170</ele>
        <time>2024-07-30T06:24:49Z</time>
      </trkpt>
      <trkpt lat="43.56327" lon="1.29124">
        <ele>170</ele>
        <time>2024-07-30T06:24:50Z</time>
      </trkpt>
      <trkpt lat="43.56325" lon="1.29127">
        <ele>170</ele>
        <time>2024-07-30T06:24:51Z</time>
      </trkpt>
      <trkpt lat="43.56321" lon="1.2913">
        <ele>170</ele>
        <time>2024-07-30T06:24:52Z</time>
      </trkpt>
      <trkpt lat="43.56318" lon="1.29133">
        <ele>170</ele>
        <time>2024-07-30T06:24:53Z</time>
      </trkpt>
      <trkpt lat="43.56314" lon="1.29135">
        <ele>170</ele>
        <time>2024-07-30T06:24:54Z</time>
      </trkpt>
      <trkpt lat="43.56311" lon="1.29135">
        <ele>170</ele>
        <time>2024-07-30T06:24:55Z</time>
      </trkpt>
      <trkpt lat="43.56307" lon="1.29135">
        <ele>170</ele>
        <time>2024-07-30T06:24:56Z</time>
      </trkpt>
      <trkpt lat="43.56303" lon="1.29135">
        <ele>170</ele>
        <time>2024-07-30T06:24:57Z</time>
      </trkpt>
      <trkpt lat="43.56299" lon="1.29135">
        <ele>170</ele>
        <time>2024-07-30T06:24:58Z</time>
      </trkpt>
      <trkpt lat="43.56294" lon="1.29134">
        <ele>170</ele>
        <time>2024-07-30T06:24:59Z</time>
      </trkpt>
      <trkpt lat="43.5629" lon="1.29133">
        <ele>170</ele>
        <time>2024-07-30T06:25:00Z</time>
      </trkpt>
      <trkpt lat="43.56285" lon="1.29132">
        <ele>170</ele>
        <time>2024-07-30T06:25:01Z</time>
      </trkpt>
      <trkpt lat="43.56281" lon="1.29132">
        <ele>170</ele>
        <time>2024-07-30T06:25:02Z</time>
      </trkpt>
      <trkpt lat="43.56277" lon="1.29132">
        <ele>170</ele>
        <time>2024-07-30T06:25:03Z</time>
      </trkpt>
      <trkpt lat="43.56273" lon="1.29132">
        <ele>170</ele>
        <time>2024-07-30T06:25:04Z</time>
      </trkpt>
      <trkpt lat="43.56269" lon="1.29133">
        <ele>170</ele>
        <time>2024-07-30T06:25:05Z</time>
      </trkpt>
      <trkpt lat="43.56265" lon="1.29133">
        <ele>170</ele>
        <time>2024-07-30T06:25:06Z</time>
      </trkpt>
      <trkpt lat="43.56263" lon="1.29133">
        <ele>170.2</ele>
        <time>2024-07-30T06:25:07Z</time>
      </trkpt>
      <trkpt lat="43.56261" lon="1.29133">
        <ele>170.2</ele>
        <time>2024-07-30T06:25:08Z</time>
      </trkpt>
      <trkpt lat="43.5626" lon="1.29134">
        <ele>170</ele>
        <time>2024-07-30T06:25:09Z</time>
      </trkpt>
      <trkpt lat="43.56258" lon="1.29135">
        <ele>170</ele>
        <time>2024-07-30T06:25:10Z</time>
      </trkpt>
      <trkpt lat="43.56258" lon="1.29136">
        <ele>170</ele>
        <time>2024-07-30T06:25:11Z</time>
      </trkpt>
      <trkpt lat="43.56257" lon="1.29136">
        <ele>170</ele>
        <time>2024-07-30T06:25:12Z</time>
      </trkpt>
      <trkpt lat="43.56257" lon="1.29136">
        <ele>170</ele>
        <time>2024-07-30T06:25:13Z</time>
      </trkpt>
      <trkpt lat="43.56257" lon="1.29137">
        <ele>170</ele>
        <time>2024-07-30T06:25:14Z</time>
      </trkpt>
      <trkpt lat="43.56257" lon="1.29138">
        <ele>170.2</ele>
        <time>2024-07-30T06:25:15Z</time>
      </trkpt>
      <trkpt lat="43.56257" lon="1.29138">
        <ele>170.2</ele>
        <time>2024-07-30T06:25:16Z</time>
      </trkpt>
      <trkpt lat="43.56257" lon="1.29138">
        <ele>170.2</ele>
        <time>2024-07-30T06:25:17Z</time>
      </trkpt>
      <trkpt lat="43.56257" lon="1.29138">
        <ele>170.2</ele>
        <time>2024-07-30T06:25:18Z</time>
      </trkpt>
      <trkpt lat="43.56258" lon="1.29138">
        <ele>170.2</ele>
        <time>2024-07-30T06:25:19Z</time>
      </trkpt>
      <trkpt lat="43.56259" lon="1.29138">
        <ele>170.2</ele>
        <time>2024-07-30T06:25:20Z</time>
      </trkpt>
      <trkpt lat="43.5626" lon="1.29138">
        <ele>170.2</ele>
        <time>2024-07-30T06:25:21Z</time>
      </trkpt>
      <trkpt lat="43.56262" lon="1.29138">
        <ele>170.2</ele>
        <time>2024-07-30T06:25:22Z</time>
      </trkpt>
      <trkpt lat="43.56263" lon="1.29137">
        <ele>170.2</ele>
        <time>2024-07-30T06:25:23Z</time>
      </trkpt>
      <trkpt lat="43.56265" lon="1.29137">
        <ele>170.2</ele>
        <time>2024-07-30T06:25:24Z</time>
      </trkpt>
      <trkpt lat="43.56265" lon="1.29137">
        <ele>170.2</ele>
        <time>2024-07-30T06:25:25Z</time>
      </trkpt>
      <trkpt lat="43.56265" lon="1.29137">
        <ele>170.2</ele>
        <time>2024-07-30T06:25:26Z</time>
      </trkpt>
      <trkpt lat="43.56265" lon="1.29137">
        <ele>170.2</ele>
        <time>2024-07-30T06:25:27Z</time>
      </trkpt>
      <trkpt lat="43.56263" lon="1.29139">
        <ele>170.2</ele>
        <time>2024-07-30T06:25:29Z</time>
      </trkpt>
      <trkpt lat="43.5626" lon="1.2914">
        <ele>170.2</ele>
        <time>2024-07-30T06:25:30Z</time>
      </trkpt>
      <trkpt lat="43.56258" lon="1.29141">
        <ele>170.2</ele>
        <time>2024-07-30T06:25:31Z</time>
      </trkpt>
      <trkpt lat="43.56257" lon="1.29141">
        <ele>170.2</ele>
        <time>2024-07-30T06:25:32Z</time>
      </trkpt>
      <trkpt lat="43.56257" lon="1.29141">
        <ele>170.2</ele>
        <time>2024-07-30T06:25:33Z</time>
      </trkpt>
      <trkpt lat="43.56257" lon="1.29141">
        <ele>170</ele>
        <time>2024-07-30T06:25:34Z</time>
      </trkpt>
      <trkpt lat="43.56255" lon="1.29142">
        <ele>170</ele>
        <time>2024-07-30T06:25:35Z</time>
      </trkpt>
      <trkpt lat="43.56254" lon="1.29142">
        <ele>170</ele>
        <time>2024-07-30T06:25:36Z</time>
      </trkpt>
      <trkpt lat="43.56252" lon="1.29141">
        <ele>170</ele>
        <time>2024-07-30T06:25:37Z</time>
      </trkpt>
      <trkpt lat="43.56251" lon="1.2914">
        <ele>170</ele>
        <time>2024-07-30T06:25:38Z</time>
      </trkpt>
      <trkpt lat="43.5625" lon="1.29138">
        <ele>170</ele>
        <time>2024-07-30T06:25:39Z</time>
      </trkpt>
      <trkpt lat="43.56248" lon="1.29136">
        <ele>170</ele>
        <time>2024-07-30T06:25:40Z</time>
      </trkpt>
      <trkpt lat="43.56245" lon="1.29134">
        <ele>170</ele>
        <time>2024-07-30T06:25:41Z</time>
      </trkpt>
      <trkpt lat="43.56243" lon="1.29133">
        <ele>169.8</ele>
        <time>2024-07-30T06:25:42Z</time>
      </trkpt>
      <trkpt lat="43.56239" lon="1.29132">
        <ele>169.8</ele>
        <time>2024-07-30T06:25:43Z</time>
      </trkpt>
      <trkpt lat="43.56237" lon="1.29132">
        <ele>169.8</ele>
        <time>2024-07-30T06:25:44Z</time>
      </trkpt>
      <trkpt lat="43.56237" lon="1.29132">
        <ele>169.8</ele>
        <time>2024-07-30T06:25:45Z</time>
      </trkpt>
      <trkpt lat="43.56237" lon="1.29132">
        <ele>169.8</ele>
        <time>2024-07-30T06:25:46Z</time>
      </trkpt>
      <trkpt lat="43.56237" lon="1.29132">
        <ele>169.8</ele>
        <time>2024-07-30T06:25:47Z</time>
      </trkpt>
      <trkpt lat="43.56237" lon="1.29132">
        <ele>169.6</ele>
        <time>2024-07-30T06:25:48Z</time>
      </trkpt>
      <trkpt lat="43.56233" lon="1.29131">
        <ele>166.6</ele>
        <time>2024-07-30T06:30:52Z</time>
      </trkpt>
      <trkpt lat="43.5623" lon="1.2913">
        <ele>166.6</ele>
        <time>2024-07-30T06:30:53Z</time>
      </trkpt>
      <trkpt lat="43.56226" lon="1.29129">
        <ele>166.6</ele>
        <time>2024-07-30T06:30:54Z</time>
      </trkpt>
      <trkpt lat="43.56222" lon="1.29128">
        <ele>166.6</ele>
        <time>2024-07-30T06:30:55Z</time>
      </trkpt>
      <trkpt lat="43.56218" lon="1.29124">
        <ele>166.6</ele>
        <time>2024-07-30T06:30:56Z</time>
      </trkpt>
      <trkpt lat="43.56214" lon="1.2912">
        <ele>166.6</ele>
        <time>2024-07-30T06:30:57Z</time>
      </trkpt>
      <trkpt lat="43.56211" lon="1.29116">
        <ele>166.6</ele>
        <time>2024-07-30T06:30:58Z</time>
      </trkpt>
      <trkpt lat="43.56209" lon="1.29113">
        <ele>166.6</ele>
        <time>2024-07-30T06:30:59Z</time>
      </trkpt>
      <trkpt lat="43.56206" lon="1.29107">
        <ele>166.6</ele>
        <time>2024-07-30T06:31:00Z</time>
      </trkpt>
      <trkpt lat="43.56204" lon="1.29103">
        <ele>166.6</ele>
        <time>2024-07-30T06:31:01Z</time>
      </trkpt>
      <trkpt lat="43.56203" lon="1.29099">
        <ele>166.6</ele>
        <time>2024-07-30T06:31:02Z</time>
      </trkpt>
      <trkpt lat="43.56201" lon="1.29094">
        <ele>166.6</ele>
        <time>2024-07-30T06:31:03Z</time>
      </trkpt>
      <trkpt lat="43.56199" lon="1.2909">
        <ele>166.6</ele>
        <time>2024-07-30T06:31:04Z</time>
      </trkpt>
      <trkpt lat="43.56197" lon="1.29086">
        <ele>166.6</ele>
        <time>2024-07-30T06:31:05Z</time>
      </trkpt>
      <trkpt lat="43.56196" lon="1.29083">
        <ele>166.8</ele>
        <time>2024-07-30T06:31:06Z</time>
      </trkpt>
      <trkpt lat="43.56195" lon="1.2908">
        <ele>166.8</ele>
        <time>2024-07-30T06:31:07Z</time>
      </trkpt>
      <trkpt lat="43.56193" lon="1.29076">
        <ele>166.8</ele>
        <time>2024-07-30T06:31:08Z</time>
      </trkpt>
      <trkpt lat="43.56191" lon="1.29073">
        <ele>166.8</ele>
        <time>2024-07-30T06:31:09Z</time>
      </trkpt>
      <trkpt lat="43.5619" lon="1.29069">
        <ele>166.8</ele>
        <time>2024-07-30T06:31:10Z</time>
      </trkpt>
      <trkpt lat="43.56188" lon="1.29066">
        <ele>166.8</ele>
        <time>2024-07-30T06:31:11Z</time>
      </trkpt>
      <trkpt lat="43.56187" lon="1.29064">
        <ele>166.8</ele>
        <time>2024-07-30T06:31:12Z</time>
      </trkpt>
      <trkpt lat="43.56185" lon="1.29061">
        <ele>167</ele>
        <time>2024-07-30T06:31:13Z</time>
      </trkpt>
      <trkpt lat="43.56182" lon="1.2906">
        <ele>167</ele>
        <time>2024-07-30T06:31:14Z</time>
      </trkpt>
      <trkpt lat="43.56178" lon="1.2906">
        <ele>167</ele>
        <time>2024-07-30T06:31:15Z</time>
      </trkpt>
      <trkpt lat="43.56176" lon="1.29061">
        <ele>167</ele>
        <time>2024-07-30T06:31:16Z</time>
      </trkpt>
      <trkpt lat="43.56172" lon="1.29063">
        <ele>167</ele>
        <time>2024-07-30T06:31:17Z</time>
      </trkpt>
      <trkpt lat="43.56169" lon="1.29065">
        <ele>167</ele>
        <time>2024-07-30T06:31:18Z</time>
      </trkpt>
      <trkpt lat="43.56166" lon="1.29067">
        <ele>167</ele>
        <time>2024-07-30T06:31:19Z</time>
      </trkpt>
      <trkpt lat="43.56162" lon="1.2907">
        <ele>167</ele>
        <time>2024-07-30T06:31:20Z</time>
      </trkpt>
      <trkpt lat="43.56159" lon="1.29073">
        <ele>167</ele>
        <time>2024-07-30T06:31:21Z</time>
      </trkpt>
      <trkpt lat="43.56155" lon="1.29076">
        <ele>167</ele>
        <time>2024-07-30T06:31:22Z</time>
      </trkpt>
      <trkpt lat="43.56155" lon="1.29076">
        <ele>167</ele>
        <time>2024-07-30T06:31:23Z</time>
      </trkpt>
      <trkpt lat="43.56147" lon="1.29081">
        <ele>167</ele>
        <time>2024-07-30T06:31:24Z</time>
      </trkpt>
      <trkpt lat="43.56143" lon="1.29084">
        <ele>167</ele>
        <time>2024-07-30T06:31:25Z</time>
      </trkpt>
      <trkpt lat="43.56138" lon="1.29086">
        <ele>166.8</ele>
        <time>2024-07-30T06:31:26Z</time>
      </trkpt>
      <trkpt lat="43.56134" lon="1.29089">
        <ele>166.8</ele>
        <time>2024-07-30T06:31:27Z</time>
      </trkpt>
      <trkpt lat="43.5613" lon="1.29092">
        <ele>166.8</ele>
        <time>2024-07-30T06:31:28Z</time>
      </trkpt>
      <trkpt lat="43.56126" lon="1.29094">
        <ele>166.8</ele>
        <time>2024-07-30T06:31:29Z</time>
      </trkpt>
      <trkpt lat="43.56122" lon="1.29097">
        <ele>166.8</ele>
        <time>2024-07-30T06:31:30Z</time>
      </trkpt>
      <trkpt lat="43.56118" lon="1.291">
        <ele>166.8</ele>
        <time>2024-07-30T06:31:31Z</time>
      </trkpt>
      <trkpt lat="43.56114" lon="1.29103">
        <ele>166.8</ele>
        <time>2024-07-30T06:31:32Z</time>
      </trkpt>
      <trkpt lat="43.5611" lon="1.29106">
        <ele>166.8</ele>
        <time>2024-07-30T06:31:33Z</time>
      </trkpt>
      <trkpt lat="43.56107" lon="1.29109">
        <ele>166.8</ele>
        <time>2024-07-30T06:31:34Z</time>
      </trkpt>
      <trkpt lat="43.56103" lon="1.29114">
        <ele>166.6</ele>
        <time>2024-07-30T06:31:35Z</time>
      </trkpt>
      <trkpt lat="43.56101" lon="1.29119">
        <ele>166.6</ele>
        <time>2024-07-30T06:31:36Z</time>
      </trkpt>
      <trkpt lat="43.561" lon="1.29125">
        <ele>166.6</ele>
        <time>2024-07-30T06:31:37Z</time>
      </trkpt>
      <trkpt lat="43.561" lon="1.29131">
        <ele>166.6</ele>
        <time>2024-07-30T06:31:38Z</time>
      </trkpt>
      <trkpt lat="43.56101" lon="1.29137">
        <ele>166.6</ele>
        <time>2024-07-30T06:31:39Z</time>
      </trkpt>
      <trkpt lat="43.56102" lon="1.29143">
        <ele>166.6</ele>
        <time>2024-07-30T06:31:40Z</time>
      </trkpt>
      <trkpt lat="43.56104" lon="1.29148">
        <ele>166.6</ele>
        <time>2024-07-30T06:31:41Z</time>
      </trkpt>
      <trkpt lat="43.56106" lon="1.29154">
        <ele>166.4</ele>
        <time>2024-07-30T06:31:42Z</time>
      </trkpt>
      <trkpt lat="43.56107" lon="1.29159">
        <ele>166.4</ele>
        <time>2024-07-30T06:31:43Z</time>
      </trkpt>
      <trkpt lat="43.56108" lon="1.29164">
        <ele>166.4</ele>
        <time>2024-07-30T06:31:44Z</time>
      </trkpt>
      <trkpt lat="43.56108" lon="1.29169">
        <ele>166.4</ele>
        <time>2024-07-30T06:31:45Z</time>
      </trkpt>
      <trkpt lat="43.56107" lon="1.29174">
        <ele>166.2</ele>
        <time>2024-07-30T06:31:46Z</time>
      </trkpt>
      <trkpt lat="43.56104" lon="1.29177">
        <ele>166.2</ele>
        <time>2024-07-30T06:31:47Z</time>
      </trkpt>
      <trkpt lat="43.561" lon="1.29179">
        <ele>166.2</ele>
        <time>2024-07-30T06:31:48Z</time>
      </trkpt>
      <trkpt lat="43.56096" lon="1.29181">
        <ele>166.2</ele>
        <time>2024-07-30T06:31:49Z</time>
      </trkpt>
      <trkpt lat="43.56092" lon="1.29184">
        <ele>166.2</ele>
        <time>2024-07-30T06:31:50Z</time>
      </trkpt>
      <trkpt lat="43.56088" lon="1.29187">
        <ele>166</ele>
        <time>2024-07-30T06:31:51Z</time>
      </trkpt>
      <trkpt lat="43.56083" lon="1.29189">
        <ele>166</ele>
        <time>2024-07-30T06:31:52Z</time>
      </trkpt>
      <trkpt lat="43.56078" lon="1.29189">
        <ele>165.6</ele>
        <time>2024-07-30T06:31:53Z</time>
      </trkpt>
      <trkpt lat="43.56074" lon="1.29187">
        <ele>165.6</ele>
        <time>2024-07-30T06:31:54Z</time>
      </trkpt>
      <trkpt lat="43.56069" lon="1.29184">
        <ele>165.8</ele>
        <time>2024-07-30T06:31:55Z</time>
      </trkpt>
      <trkpt lat="43.56064" lon="1.29181">
        <ele>165.4</ele>
        <time>2024-07-30T06:31:56Z</time>
      </trkpt>
      <trkpt lat="43.56059" lon="1.29178">
        <ele>165.6</ele>
        <time>2024-07-30T06:31:57Z</time>
      </trkpt>
      <trkpt lat="43.56054" lon="1.29177">
        <ele>165.4</ele>
        <time>2024-07-30T06:31:58Z</time>
      </trkpt>
      <trkpt lat="43.56049" lon="1.29175">
        <ele>165</ele>
        <time>2024-07-30T06:31:59Z</time>
      </trkpt>
      <trkpt lat="43.56043" lon="1.29173">
        <ele>165</ele>
        <time>2024-07-30T06:32:00Z</time>
      </trkpt>
      <trkpt lat="43.56038" lon="1.29172">
        <ele>165</ele>
        <time>2024-07-30T06:32:01Z</time>
      </trkpt>
      <trkpt lat="43.56033" lon="1.2917">
        <ele>164.8</ele>
        <time>2024-07-30T06:32:02Z</time>
      </trkpt>
      <trkpt lat="43.56027" lon="1.29168">
        <ele>164.8</ele>
        <time>2024-07-30T06:32:03Z</time>
      </trkpt>
      <trkpt lat="43.56022" lon="1.29167">
        <ele>164.8</ele>
        <time>2024-07-30T06:32:04Z</time>
      </trkpt>
      <trkpt lat="43.56016" lon="1.29166">
        <ele>164.6</ele>
        <time>2024-07-30T06:32:05Z</time>
      </trkpt>
      <trkpt lat="43.56011" lon="1.29165">
        <ele>164.6</ele>
        <time>2024-07-30T06:32:06Z</time>
      </trkpt>
      <trkpt lat="43.56005" lon="1.29164">
        <ele>164.6</ele>
        <time>2024-07-30T06:32:07Z</time>
      </trkpt>
      <trkpt lat="43.56" lon="1.29163">
        <ele>164.6</ele>
        <time>2024-07-30T06:32:08Z</time>
      </trkpt>
      <trkpt lat="43.55994" lon="1.29162">
        <ele>164.6</ele>
        <time>2024-07-30T06:32:09Z</time>
      </trkpt>
      <trkpt lat="43.55988" lon="1.2916">
        <ele>164.8</ele>
        <time>2024-07-30T06:32:10Z</time>
      </trkpt>
      <trkpt lat="43.55982" lon="1.29159">
        <ele>165</ele>
        <time>2024-07-30T06:32:11Z</time>
      </trkpt>
      <trkpt lat="43.55977" lon="1.29159">
        <ele>165</ele>
        <time>2024-07-30T06:32:12Z</time>
      </trkpt>
      <trkpt lat="43.55971" lon="1.29158">
        <ele>165</ele>
        <time>2024-07-30T06:32:13Z</time>
      </trkpt>
      <trkpt lat="43.55965" lon="1.29156">
        <ele>165</ele>
        <time>2024-07-30T06:32:14Z</time>
      </trkpt>
      <trkpt lat="43.55959" lon="1.29156">
        <ele>164.8</ele>
        <time>2024-07-30T06:32:15Z</time>
      </trkpt>
      <trkpt lat="43.55952" lon="1.29155">
        <ele>164.8</ele>
        <time>2024-07-30T06:32:16Z</time>
      </trkpt>
      <trkpt lat="43.55946" lon="1.29154">
        <ele>164.8</ele>
        <time>2024-07-30T06:32:17Z</time>
      </trkpt>
      <trkpt lat="43.5594" lon="1.29153">
        <ele>164.8</ele>
        <time>2024-07-30T06:32:18Z</time>
      </trkpt>
      <trkpt lat="43.55934" lon="1.29152">
        <ele>164.8</ele>
        <time>2024-07-30T06:32:19Z</time>
      </trkpt>
      <trkpt lat="43.55928" lon="1.29152">
        <ele>164.8</ele>
        <time>2024-07-30T06:32:20Z</time>
      </trkpt>
      <trkpt lat="43.55922" lon="1.29151">
        <ele>164.8</ele>
        <time>2024-07-30T06:32:21Z</time>
      </trkpt>
      <trkpt lat="43.55915" lon="1.29151">
        <ele>164.8</ele>
        <time>2024-07-30T06:32:22Z</time>
      </trkpt>
      <trkpt lat="43.5591" lon="1.29151">
        <ele>164.6</ele>
        <time>2024-07-30T06:32:23Z</time>
      </trkpt>
      <trkpt lat="43.55904" lon="1.29151">
        <ele>164.6</ele>
        <time>2024-07-30T06:32:24Z</time>
      </trkpt>
      <trkpt lat="43.55898" lon="1.29152">
        <ele>164.6</ele>
        <time>2024-07-30T06:32:25Z</time>
      </trkpt>
      <trkpt lat="43.55892" lon="1.29153">
        <ele>164.6</ele>
        <time>2024-07-30T06:32:26Z</time>
      </trkpt>
      <trkpt lat="43.55886" lon="1.29154">
        <ele>164.4</ele>
        <time>2024-07-30T06:32:27Z</time>
      </trkpt>
      <trkpt lat="43.55881" lon="1.29155">
        <ele>164.4</ele>
        <time>2024-07-30T06:32:28Z</time>
      </trkpt>
      <trkpt lat="43.55875" lon="1.29157">
        <ele>164.4</ele>
        <time>2024-07-30T06:32:29Z</time>
      </trkpt>
      <trkpt lat="43.5587" lon="1.29159">
        <ele>164.4</ele>
        <time>2024-07-30T06:32:30Z</time>
      </trkpt>
      <trkpt lat="43.55864" lon="1.29161">
        <ele>164.2</ele>
        <time>2024-07-30T06:32:31Z</time>
      </trkpt>
      <trkpt lat="43.55859" lon="1.29163">
        <ele>164.2</ele>
        <time>2024-07-30T06:32:32Z</time>
      </trkpt>
      <trkpt lat="43.55853" lon="1.29165">
        <ele>164.2</ele>
        <time>2024-07-30T06:32:33Z</time>
      </trkpt>
      <trkpt lat="43.55848" lon="1.29168">
        <ele>164.2</ele>
        <time>2024-07-30T06:32:34Z</time>
      </trkpt>
      <trkpt lat="43.55842" lon="1.29169">
        <ele>164.2</ele>
        <time>2024-07-30T06:32:35Z</time>
      </trkpt>
      <trkpt lat="43.55836" lon="1.2917">
        <ele>164.2</ele>
        <time>2024-07-30T06:32:36Z</time>
      </trkpt>
      <trkpt lat="43.5583" lon="1.29171">
        <ele>164.2</ele>
        <time>2024-07-30T06:32:37Z</time>
      </trkpt>
      <trkpt lat="43.55825" lon="1.2917">
        <ele>164.4</ele>
        <time>2024-07-30T06:32:38Z</time>
      </trkpt>
      <trkpt lat="43.55819" lon="1.29169">
        <ele>164.4</ele>
        <time>2024-07-30T06:32:39Z</time>
      </trkpt>
      <trkpt lat="43.55814" lon="1.29166">
        <ele>164.4</ele>
        <time>2024-07-30T06:32:40Z</time>
      </trkpt>
      <trkpt lat="43.55809" lon="1.29162">
        <ele>164.6</ele>
        <time>2024-07-30T06:32:41Z</time>
      </trkpt>
      <trkpt lat="43.55804" lon="1.29157">
        <ele>164.6</ele>
        <time>2024-07-30T06:32:42Z</time>
      </trkpt>
      <trkpt lat="43.558" lon="1.29152">
        <ele>164.6</ele>
        <time>2024-07-30T06:32:43Z</time>
      </trkpt>
      <trkpt lat="43.55795" lon="1.29146">
        <ele>164.6</ele>
        <time>2024-07-30T06:32:44Z</time>
      </trkpt>
      <trkpt lat="43.55791" lon="1.29141">
        <ele>164.6</ele>
        <time>2024-07-30T06:32:45Z</time>
      </trkpt>
      <trkpt lat="43.55787" lon="1.29135">
        <ele>164.6</ele>
        <time>2024-07-30T06:32:46Z</time>
      </trkpt>
      <trkpt lat="43.55781" lon="1.29129">
        <ele>164.6</ele>
        <time>2024-07-30T06:32:47Z</time>
      </trkpt>
      <trkpt lat="43.55777" lon="1.29123">
        <ele>164.6</ele>
        <time>2024-07-30T06:32:48Z</time>
      </trkpt>
      <trkpt lat="43.55773" lon="1.29118">
        <ele>164.6</ele>
        <time>2024-07-30T06:32:49Z</time>
      </trkpt>
      <trkpt lat="43.55769" lon="1.29114">
        <ele>164.6</ele>
        <time>2024-07-30T06:32:50Z</time>
      </trkpt>
      <trkpt lat="43.55765" lon="1.29109">
        <ele>164.6</ele>
        <time>2024-07-30T06:32:51Z</time>
      </trkpt>
      <trkpt lat="43.55761" lon="1.29104">
        <ele>164.6</ele>
        <time>2024-07-30T06:32:52Z</time>
      </trkpt>
      <trkpt lat="43.55756" lon="1.29099">
        <ele>164.6</ele>
        <time>2024-07-30T06:32:53Z</time>
      </trkpt>
      <trkpt lat="43.55753" lon="1.29095">
        <ele>164.6</ele>
        <time>2024-07-30T06:32:54Z</time>
      </trkpt>
      <trkpt lat="43.55749" lon="1.2909">
        <ele>164.6</ele>
        <time>2024-07-30T06:32:55Z</time>
      </trkpt>
      <trkpt lat="43.55745" lon="1.29085">
        <ele>164.6</ele>
        <time>2024-07-30T06:32:56Z</time>
      </trkpt>
      <trkpt lat="43.55741" lon="1.2908">
        <ele>164.8</ele>
        <time>2024-07-30T06:32:57Z</time>
      </trkpt>
      <trkpt lat="43.55736" lon="1.29075">
        <ele>164.8</ele>
        <time>2024-07-30T06:32:58Z</time>
      </trkpt>
      <trkpt lat="43.55732" lon="1.29071">
        <ele>164.8</ele>
        <time>2024-07-30T06:32:59Z</time>
      </trkpt>
      <trkpt lat="43.55728" lon="1.29066">
        <ele>165</ele>
        <time>2024-07-30T06:33:00Z</time>
      </trkpt>
      <trkpt lat="43.55725" lon="1.29061">
        <ele>165</ele>
        <time>2024-07-30T06:33:01Z</time>
      </trkpt>
      <trkpt lat="43.5572" lon="1.29056">
        <ele>165</ele>
        <time>2024-07-30T06:33:02Z</time>
      </trkpt>
      <trkpt lat="43.55716" lon="1.29052">
        <ele>165</ele>
        <time>2024-07-30T06:33:03Z</time>
      </trkpt>
      <trkpt lat="43.55712" lon="1.29046">
        <ele>165</ele>
        <time>2024-07-30T06:33:04Z</time>
      </trkpt>
      <trkpt lat="43.55708" lon="1.29042">
        <ele>165</ele>
        <time>2024-07-30T06:33:05Z</time>
      </trkpt>
      <trkpt lat="43.55704" lon="1.29037">
        <ele>165</ele>
        <time>2024-07-30T06:33:06Z</time>
      </trkpt>
      <trkpt lat="43.557" lon="1.29032">
        <ele>165.2</ele>
        <time>2024-07-30T06:33:07Z</time>
      </trkpt>
      <trkpt lat="43.55695" lon="1.29026">
        <ele>165.2</ele>
        <time>2024-07-30T06:33:08Z</time>
      </trkpt>
      <trkpt lat="43.55691" lon="1.29021">
        <ele>165.2</ele>
        <time>2024-07-30T06:33:09Z</time>
      </trkpt>
      <trkpt lat="43.55686" lon="1.29016">
        <ele>165.2</ele>
        <time>2024-07-30T06:33:10Z</time>
      </trkpt>
      <trkpt lat="43.55682" lon="1.29011">
        <ele>165.4</ele>
        <time>2024-07-30T06:33:11Z</time>
      </trkpt>
      <trkpt lat="43.55677" lon="1.29005">
        <ele>165.2</ele>
        <time>2024-07-30T06:33:12Z</time>
      </trkpt>
      <trkpt lat="43.55673" lon="1.29">
        <ele>165.2</ele>
        <time>2024-07-30T06:33:13Z</time>
      </trkpt>
      <trkpt lat="43.55668" lon="1.28995">
        <ele>165.2</ele>
        <time>2024-07-30T06:33:14Z</time>
      </trkpt>
      <trkpt lat="43.55663" lon="1.2899">
        <ele>165.2</ele>
        <time>2024-07-30T06:33:15Z</time>
      </trkpt>
      <trkpt lat="43.55659" lon="1.28984">
        <ele>165.4</ele>
        <time>2024-07-30T06:33:16Z</time>
      </trkpt>
      <trkpt lat="43.55654" lon="1.28979">
        <ele>165.4</ele>
        <time>2024-07-30T06:33:17Z</time>
      </trkpt>
      <trkpt lat="43.5565" lon="1.28974">
        <ele>165.4</ele>
        <time>2024-07-30T06:33:18Z</time>
      </trkpt>
      <trkpt lat="43.55645" lon="1.28968">
        <ele>165.4</ele>
        <time>2024-07-30T06:33:19Z</time>
      </trkpt>
      <trkpt lat="43.5564" lon="1.28963">
        <ele>165.6</ele>
        <time>2024-07-30T06:33:20Z</time>
      </trkpt>
      <trkpt lat="43.55635" lon="1.28957">
        <ele>165.6</ele>
        <time>2024-07-30T06:33:21Z</time>
      </trkpt>
      <trkpt lat="43.55631" lon="1.28952">
        <ele>165.6</ele>
        <time>2024-07-30T06:33:22Z</time>
      </trkpt>
      <trkpt lat="43.55626" lon="1.28946">
        <ele>165.6</ele>
        <time>2024-07-30T06:33:23Z</time>
      </trkpt>
      <trkpt lat="43.55621" lon="1.28941">
        <ele>165.6</ele>
        <time>2024-07-30T06:33:24Z</time>
      </trkpt>
      <trkpt lat="43.55616" lon="1.28936">
        <ele>165.6</ele>
        <time>2024-07-30T06:33:25Z</time>
      </trkpt>
      <trkpt lat="43.55612" lon="1.2893">
        <ele>165.6</ele>
        <time>2024-07-30T06:33:26Z</time>
      </trkpt>
      <trkpt lat="43.55607" lon="1.28925">
        <ele>165.8</ele>
        <time>2024-07-30T06:33:27Z</time>
      </trkpt>
      <trkpt lat="43.55603" lon="1.2892">
        <ele>165.8</ele>
        <time>2024-07-30T06:33:28Z</time>
      </trkpt>
      <trkpt lat="43.55598" lon="1.28915">
        <ele>165.8</ele>
        <time>2024-07-30T06:33:29Z</time>
      </trkpt>
      <trkpt lat="43.55594" lon="1.2891">
        <ele>165.8</ele>
        <time>2024-07-30T06:33:30Z</time>
      </trkpt>
      <trkpt lat="43.5559" lon="1.28906">
        <ele>165.8</ele>
        <time>2024-07-30T06:33:31Z</time>
      </trkpt>
      <trkpt lat="43.55585" lon="1.28901">
        <ele>165.8</ele>
        <time>2024-07-30T06:33:32Z</time>
      </trkpt>
      <trkpt lat="43.55581" lon="1.28897">
        <ele>165.8</ele>
        <time>2024-07-30T06:33:33Z</time>
      </trkpt>
      <trkpt lat="43.55577" lon="1.28892">
        <ele>166</ele>
        <time>2024-07-30T06:33:34Z</time>
      </trkpt>
      <trkpt lat="43.55573" lon="1.28888">
        <ele>166</ele>
        <time>2024-07-30T06:33:35Z</time>
      </trkpt>
      <trkpt lat="43.55569" lon="1.28884">
        <ele>166</ele>
        <time>2024-07-30T06:33:36Z</time>
      </trkpt>
      <trkpt lat="43.55565" lon="1.2888">
        <ele>166</ele>
        <time>2024-07-30T06:33:37Z</time>
      </trkpt>
      <trkpt lat="43.55561" lon="1.28876">
        <ele>166</ele>
        <time>2024-07-30T06:33:38Z</time>
      </trkpt>
      <trkpt lat="43.55557" lon="1.28873">
        <ele>166</ele>
        <time>2024-07-30T06:33:39Z</time>
      </trkpt>
      <trkpt lat="43.55552" lon="1.28869">
        <ele>166.2</ele>
        <time>2024-07-30T06:33:40Z</time>
      </trkpt>
      <trkpt lat="43.55548" lon="1.28866">
        <ele>166.2</ele>
        <time>2024-07-30T06:33:41Z</time>
      </trkpt>
      <trkpt lat="43.55543" lon="1.28863">
        <ele>166.2</ele>
        <time>2024-07-30T06:33:42Z</time>
      </trkpt>
      <trkpt lat="43.55539" lon="1.28861">
        <ele>166.2</ele>
        <time>2024-07-30T06:33:43Z</time>
      </trkpt>
      <trkpt lat="43.55534" lon="1.2886">
        <ele>166.2</ele>
        <time>2024-07-30T06:33:44Z</time>
      </trkpt>
      <trkpt lat="43.55529" lon="1.28858">
        <ele>166.2</ele>
        <time>2024-07-30T06:33:45Z</time>
      </trkpt>
      <trkpt lat="43.55524" lon="1.28857">
        <ele>166.4</ele>
        <time>2024-07-30T06:33:46Z</time>
      </trkpt>
      <trkpt lat="43.55519" lon="1.28856">
        <ele>166.4</ele>
        <time>2024-07-30T06:33:47Z</time>
      </trkpt>
      <trkpt lat="43.55515" lon="1.28855">
        <ele>166.4</ele>
        <time>2024-07-30T06:33:48Z</time>
      </trkpt>
      <trkpt lat="43.5551" lon="1.28854">
        <ele>166.4</ele>
        <time>2024-07-30T06:33:49Z</time>
      </trkpt>
      <trkpt lat="43.55506" lon="1.28853">
        <ele>166.4</ele>
        <time>2024-07-30T06:33:50Z</time>
      </trkpt>
      <trkpt lat="43.55502" lon="1.28852">
        <ele>166.4</ele>
        <time>2024-07-30T06:33:51Z</time>
      </trkpt>
      <trkpt lat="43.55498" lon="1.28851">
        <ele>166.6</ele>
        <time>2024-07-30T06:33:52Z</time>
      </trkpt>
      <trkpt lat="43.55494" lon="1.2885">
        <ele>166.6</ele>
        <time>2024-07-30T06:33:53Z</time>
      </trkpt>
      <trkpt lat="43.5549" lon="1.28849">
        <ele>166.8</ele>
        <time>2024-07-30T06:33:54Z</time>
      </trkpt>
      <trkpt lat="43.55486" lon="1.28848">
        <ele>166.8</ele>
        <time>2024-07-30T06:33:55Z</time>
      </trkpt>
      <trkpt lat="43.55481" lon="1.28847">
        <ele>166.8</ele>
        <time>2024-07-30T06:33:56Z</time>
      </trkpt>
      <trkpt lat="43.55476" lon="1.28847">
        <ele>166.8</ele>
        <time>2024-07-30T06:33:57Z</time>
      </trkpt>
      <trkpt lat="43.55471" lon="1.28846">
        <ele>166.8</ele>
        <time>2024-07-30T06:33:58Z</time>
      </trkpt>
      <trkpt lat="43.55465" lon="1.28844">
        <ele>166.8</ele>
        <time>2024-07-30T06:33:59Z</time>
      </trkpt>
      <trkpt lat="43.5546" lon="1.28841">
        <ele>166.8</ele>
        <time>2024-07-30T06:34:00Z</time>
      </trkpt>
      <trkpt lat="43.55455" lon="1.28837">
        <ele>167</ele>
        <time>2024-07-30T06:34:01Z</time>
      </trkpt>
      <trkpt lat="43.5545" lon="1.28832">
        <ele>167</ele>
        <time>2024-07-30T06:34:02Z</time>
      </trkpt>
      <trkpt lat="43.55445" lon="1.28827">
        <ele>167</ele>
        <time>2024-07-30T06:34:03Z</time>
      </trkpt>
      <trkpt lat="43.55441" lon="1.28822">
        <ele>167</ele>
        <time>2024-07-30T06:34:04Z</time>
      </trkpt>
      <trkpt lat="43.55436" lon="1.28817">
        <ele>167</ele>
        <time>2024-07-30T06:34:05Z</time>
      </trkpt>
      <trkpt lat="43.55431" lon="1.28812">
        <ele>167</ele>
        <time>2024-07-30T06:34:06Z</time>
      </trkpt>
      <trkpt lat="43.55426" lon="1.28806">
        <ele>167</ele>
        <time>2024-07-30T06:34:07Z</time>
      </trkpt>
      <trkpt lat="43.55421" lon="1.28801">
        <ele>167</ele>
        <time>2024-07-30T06:34:08Z</time>
      </trkpt>
      <trkpt lat="43.55416" lon="1.28796">
        <ele>167</ele>
        <time>2024-07-30T06:34:09Z</time>
      </trkpt>
      <trkpt lat="43.55412" lon="1.2879">
        <ele>167</ele>
        <time>2024-07-30T06:34:10Z</time>
      </trkpt>
      <trkpt lat="43.55407" lon="1.28785">
        <ele>167</ele>
        <time>2024-07-30T06:34:11Z</time>
      </trkpt>
      <trkpt lat="43.55402" lon="1.2878">
        <ele>167</ele>
        <time>2024-07-30T06:34:12Z</time>
      </trkpt>
      <trkpt lat="43.55398" lon="1.28775">
        <ele>167</ele>
        <time>2024-07-30T06:34:13Z</time>
      </trkpt>
      <trkpt lat="43.55394" lon="1.28769">
        <ele>167.2</ele>
        <time>2024-07-30T06:34:14Z</time>
      </trkpt>
      <trkpt lat="43.5539" lon="1.28764">
        <ele>167.2</ele>
        <time>2024-07-30T06:34:15Z</time>
      </trkpt>
      <trkpt lat="43.55385" lon="1.28759">
        <ele>167.2</ele>
        <time>2024-07-30T06:34:16Z</time>
      </trkpt>
      <trkpt lat="43.55381" lon="1.28754">
        <ele>167.4</ele>
        <time>2024-07-30T06:34:17Z</time>
      </trkpt>
      <trkpt lat="43.55377" lon="1.28748">
        <ele>167.4</ele>
        <time>2024-07-30T06:34:18Z</time>
      </trkpt>
      <trkpt lat="43.55374" lon="1.28742">
        <ele>167.4</ele>
        <time>2024-07-30T06:34:19Z</time>
      </trkpt>
      <trkpt lat="43.5537" lon="1.28736">
        <ele>167.4</ele>
        <time>2024-07-30T06:34:20Z</time>
      </trkpt>
      <trkpt lat="43.55366" lon="1.28731">
        <ele>167.4</ele>
        <time>2024-07-30T06:34:21Z</time>
      </trkpt>
      <trkpt lat="43.55362" lon="1.28725">
        <ele>167.6</ele>
        <time>2024-07-30T06:34:22Z</time>
      </trkpt>
      <trkpt lat="43.55358" lon="1.28719">
        <ele>167.6</ele>
        <time>2024-07-30T06:34:23Z</time>
      </trkpt>
      <trkpt lat="43.55355" lon="1.28713">
        <ele>167.6</ele>
        <time>2024-07-30T06:34:24Z</time>
      </trkpt>
      <trkpt lat="43.55351" lon="1.28707">
        <ele>167.6</ele>
        <time>2024-07-30T06:34:25Z</time>
      </trkpt>
      <trkpt lat="43.55347" lon="1.28701">
        <ele>167.6</ele>
        <time>2024-07-30T06:34:26Z</time>
      </trkpt>
      <trkpt lat="43.55343" lon="1.28694">
        <ele>167.6</ele>
        <time>2024-07-30T06:34:27Z</time>
      </trkpt>
      <trkpt lat="43.5534" lon="1.28688">
        <ele>167.6</ele>
        <time>2024-07-30T06:34:28Z</time>
      </trkpt>
      <trkpt lat="43.55336" lon="1.28682">
        <ele>167.6</ele>
        <time>2024-07-30T06:34:29Z</time>
      </trkpt>
      <trkpt lat="43.55332" lon="1.28676">
        <ele>167.6</ele>
        <time>2024-07-30T06:34:30Z</time>
      </trkpt>
      <trkpt lat="43.55328" lon="1.28671">
        <ele>167.6</ele>
        <time>2024-07-30T06:34:31Z</time>
      </trkpt>
      <trkpt lat="43.55324" lon="1.28665">
        <ele>167.8</ele>
        <time>2024-07-30T06:34:32Z</time>
      </trkpt>
      <trkpt lat="43.55321" lon="1.28659">
        <ele>167.8</ele>
        <time>2024-07-30T06:34:33Z</time>
      </trkpt>
      <trkpt lat="43.55317" lon="1.28654">
        <ele>167.8</ele>
        <time>2024-07-30T06:34:34Z</time>
      </trkpt>
      <trkpt lat="43.55313" lon="1.28649">
        <ele>167.8</ele>
        <time>2024-07-30T06:34:35Z</time>
      </trkpt>
      <trkpt lat="43.55309" lon="1.28644">
        <ele>167.8</ele>
        <time>2024-07-30T06:34:36Z</time>
      </trkpt>
      <trkpt lat="43.55305" lon="1.28639">
        <ele>167.8</ele>
        <time>2024-07-30T06:34:37Z</time>
      </trkpt>
      <trkpt lat="43.55301" lon="1.28634">
        <ele>168</ele>
        <time>2024-07-30T06:34:38Z</time>
      </trkpt>
      <trkpt lat="43.55296" lon="1.28629">
        <ele>168</ele>
        <time>2024-07-30T06:34:39Z</time>
      </trkpt>
      <trkpt lat="43.55292" lon="1.28625">
        <ele>168</ele>
        <time>2024-07-30T06:34:40Z</time>
      </trkpt>
      <trkpt lat="43.55287" lon="1.2862">
        <ele>168</ele>
        <time>2024-07-30T06:34:41Z</time>
      </trkpt>
      <trkpt lat="43.55283" lon="1.28616">
        <ele>168</ele>
        <time>2024-07-30T06:34:42Z</time>
      </trkpt>
      <trkpt lat="43.55278" lon="1.28611">
        <ele>168</ele>
        <time>2024-07-30T06:34:43Z</time>
      </trkpt>
      <trkpt lat="43.55274" lon="1.28607">
        <ele>168</ele>
        <time>2024-07-30T06:34:44Z</time>
      </trkpt>
      <trkpt lat="43.55269" lon="1.28604">
        <ele>168</ele>
        <time>2024-07-30T06:34:45Z</time>
      </trkpt>
      <trkpt lat="43.55265" lon="1.286">
        <ele>168</ele>
        <time>2024-07-30T06:34:46Z</time>
      </trkpt>
      <trkpt lat="43.5526" lon="1.28596">
        <ele>168</ele>
        <time>2024-07-30T06:34:47Z</time>
      </trkpt>
      <trkpt lat="43.55255" lon="1.28592">
        <ele>168</ele>
        <time>2024-07-30T06:34:48Z</time>
      </trkpt>
      <trkpt lat="43.5525" lon="1.28588">
        <ele>168.2</ele>
        <time>2024-07-30T06:34:49Z</time>
      </trkpt>
      <trkpt lat="43.55246" lon="1.28585">
        <ele>168.2</ele>
        <time>2024-07-30T06:34:50Z</time>
      </trkpt>
      <trkpt lat="43.55241" lon="1.28581">
        <ele>168.2</ele>
        <time>2024-07-30T06:34:51Z</time>
      </trkpt>
      <trkpt lat="43.55236" lon="1.28578">
        <ele>168.2</ele>
        <time>2024-07-30T06:34:52Z</time>
      </trkpt>
      <trkpt lat="43.55232" lon="1.28574">
        <ele>168.4</ele>
        <time>2024-07-30T06:34:53Z</time>
      </trkpt>
      <trkpt lat="43.55226" lon="1.2857">
        <ele>168.4</ele>
        <time>2024-07-30T06:34:54Z</time>
      </trkpt>
      <trkpt lat="43.55222" lon="1.28568">
        <ele>168.4</ele>
        <time>2024-07-30T06:34:55Z</time>
      </trkpt>
      <trkpt lat="43.55217" lon="1.28564">
        <ele>168.4</ele>
        <time>2024-07-30T06:34:56Z</time>
      </trkpt>
      <trkpt lat="43.55212" lon="1.28561">
        <ele>168.4</ele>
        <time>2024-07-30T06:34:57Z</time>
      </trkpt>
      <trkpt lat="43.55207" lon="1.28559">
        <ele>168.4</ele>
        <time>2024-07-30T06:34:58Z</time>
      </trkpt>
      <trkpt lat="43.55203" lon="1.28556">
        <ele>168.4</ele>
        <time>2024-07-30T06:34:59Z</time>
      </trkpt>
      <trkpt lat="43.55198" lon="1.28553">
        <ele>168.4</ele>
        <time>2024-07-30T06:35:00Z</time>
      </trkpt>
      <trkpt lat="43.55193" lon="1.2855">
        <ele>168.4</ele>
        <time>2024-07-30T06:35:01Z</time>
      </trkpt>
      <trkpt lat="43.55188" lon="1.28547">
        <ele>168.4</ele>
        <time>2024-07-30T06:35:02Z</time>
      </trkpt>
      <trkpt lat="43.55184" lon="1.28544">
        <ele>168.4</ele>
        <time>2024-07-30T06:35:03Z</time>
      </trkpt>
      <trkpt lat="43.55179" lon="1.28541">
        <ele>168.4</ele>
        <time>2024-07-30T06:35:04Z</time>
      </trkpt>
      <trkpt lat="43.55174" lon="1.28537">
        <ele>168.4</ele>
        <time>2024-07-30T06:35:05Z</time>
      </trkpt>
      <trkpt lat="43.55169" lon="1.28534">
        <ele>168.4</ele>
        <time>2024-07-30T06:35:06Z</time>
      </trkpt>
      <trkpt lat="43.55164" lon="1.28531">
        <ele>168.6</ele>
        <time>2024-07-30T06:35:07Z</time>
      </trkpt>
      <trkpt lat="43.55159" lon="1.28527">
        <ele>168.6</ele>
        <time>2024-07-30T06:35:08Z</time>
      </trkpt>
      <trkpt lat="43.55154" lon="1.28524">
        <ele>168.6</ele>
        <time>2024-07-30T06:35:09Z</time>
      </trkpt>
      <trkpt lat="43.55149" lon="1.28521">
        <ele>168.8</ele>
        <time>2024-07-30T06:35:10Z</time>
      </trkpt>
      <trkpt lat="43.55144" lon="1.28517">
        <ele>168.8</ele>
        <time>2024-07-30T06:35:11Z</time>
      </trkpt>
      <trkpt lat="43.5514" lon="1.28513">
        <ele>168.8</ele>
        <time>2024-07-30T06:35:12Z</time>
      </trkpt>
      <trkpt lat="43.55135" lon="1.2851">
        <ele>168.8</ele>
        <time>2024-07-30T06:35:13Z</time>
      </trkpt>
      <trkpt lat="43.5513" lon="1.28506">
        <ele>168.8</ele>
        <time>2024-07-30T06:35:14Z</time>
      </trkpt>
      <trkpt lat="43.5513" lon="1.28506">
        <ele>168.8</ele>
        <time>2024-07-30T06:35:15Z</time>
      </trkpt>
      <trkpt lat="43.55121" lon="1.28499">
        <ele>169</ele>
        <time>2024-07-30T06:35:16Z</time>
      </trkpt>
      <trkpt lat="43.55121" lon="1.28499">
        <ele>169</ele>
        <time>2024-07-30T06:35:17Z</time>
      </trkpt>
      <trkpt lat="43.55111" lon="1.28493">
        <ele>169</ele>
        <time>2024-07-30T06:35:18Z</time>
      </trkpt>
      <trkpt lat="43.55106" lon="1.2849">
        <ele>169</ele>
        <time>2024-07-30T06:35:19Z</time>
      </trkpt>
      <trkpt lat="43.55101" lon="1.28487">
        <ele>169</ele>
        <time>2024-07-30T06:35:20Z</time>
      </trkpt>
      <trkpt lat="43.55096" lon="1.28485">
        <ele>169</ele>
        <time>2024-07-30T06:35:21Z</time>
      </trkpt>
      <trkpt lat="43.5509" lon="1.28483">
        <ele>169</ele>
        <time>2024-07-30T06:35:22Z</time>
      </trkpt>
      <trkpt lat="43.55085" lon="1.28482">
        <ele>169</ele>
        <time>2024-07-30T06:35:23Z</time>
      </trkpt>
      <trkpt lat="43.55079" lon="1.28481">
        <ele>169</ele>
        <time>2024-07-30T06:35:24Z</time>
      </trkpt>
      <trkpt lat="43.55079" lon="1.28481">
        <ele>169.2</ele>
        <time>2024-07-30T06:35:25Z</time>
      </trkpt>
      <trkpt lat="43.55068" lon="1.28479">
        <ele>169.2</ele>
        <time>2024-07-30T06:35:26Z</time>
      </trkpt>
      <trkpt lat="43.55063" lon="1.28479">
        <ele>169.2</ele>
        <time>2024-07-30T06:35:27Z</time>
      </trkpt>
      <trkpt lat="43.55057" lon="1.28479">
        <ele>169.2</ele>
        <time>2024-07-30T06:35:28Z</time>
      </trkpt>
      <trkpt lat="43.55052" lon="1.28478">
        <ele>169.2</ele>
        <time>2024-07-30T06:35:29Z</time>
      </trkpt>
      <trkpt lat="43.55047" lon="1.28478">
        <ele>169.4</ele>
        <time>2024-07-30T06:35:30Z</time>
      </trkpt>
      <trkpt lat="43.55041" lon="1.28477">
        <ele>169.4</ele>
        <time>2024-07-30T06:35:31Z</time>
      </trkpt>
      <trkpt lat="43.55036" lon="1.28476">
        <ele>169.4</ele>
        <time>2024-07-30T06:35:32Z</time>
      </trkpt>
      <trkpt lat="43.55031" lon="1.28475">
        <ele>169.4</ele>
        <time>2024-07-30T06:35:33Z</time>
      </trkpt>
      <trkpt lat="43.55025" lon="1.28474">
        <ele>169.4</ele>
        <time>2024-07-30T06:35:34Z</time>
      </trkpt>
      <trkpt lat="43.5502" lon="1.28473">
        <ele>169.4</ele>
        <time>2024-07-30T06:35:35Z</time>
      </trkpt>
      <trkpt lat="43.55015" lon="1.28472">
        <ele>169.4</ele>
        <time>2024-07-30T06:35:36Z</time>
      </trkpt>
      <trkpt lat="43.55009" lon="1.28471">
        <ele>169.6</ele>
        <time>2024-07-30T06:35:37Z</time>
      </trkpt>
      <trkpt lat="43.55004" lon="1.2847">
        <ele>169.6</ele>
        <time>2024-07-30T06:35:38Z</time>
      </trkpt>
      <trkpt lat="43.54999" lon="1.28469">
        <ele>169.6</ele>
        <time>2024-07-30T06:35:39Z</time>
      </trkpt>
      <trkpt lat="43.54993" lon="1.28469">
        <ele>169.8</ele>
        <time>2024-07-30T06:35:40Z</time>
      </trkpt>
      <trkpt lat="43.54988" lon="1.28468">
        <ele>169.8</ele>
        <time>2024-07-30T06:35:41Z</time>
      </trkpt>
      <trkpt lat="43.54982" lon="1.28467">
        <ele>169.8</ele>
        <time>2024-07-30T06:35:42Z</time>
      </trkpt>
      <trkpt lat="43.54977" lon="1.28466">
        <ele>169.8</ele>
        <time>2024-07-30T06:35:43Z</time>
      </trkpt>
      <trkpt lat="43.54971" lon="1.28465">
        <ele>169.8</ele>
        <time>2024-07-30T06:35:44Z</time>
      </trkpt>
      <trkpt lat="43.54965" lon="1.28464">
        <ele>169.8</ele>
        <time>2024-07-30T06:35:45Z</time>
      </trkpt>
      <trkpt lat="43.5496" lon="1.28463">
        <ele>170</ele>
        <time>2024-07-30T06:35:46Z</time>
      </trkpt>
      <trkpt lat="43.54954" lon="1.28462">
        <ele>170</ele>
        <time>2024-07-30T06:35:47Z</time>
      </trkpt>
      <trkpt lat="43.54949" lon="1.28461">
        <ele>170</ele>
        <time>2024-07-30T06:35:48Z</time>
      </trkpt>
      <trkpt lat="43.54943" lon="1.2846">
        <ele>170</ele>
        <time>2024-07-30T06:35:49Z</time>
      </trkpt>
      <trkpt lat="43.54938" lon="1.28459">
        <ele>170</ele>
        <time>2024-07-30T06:35:50Z</time>
      </trkpt>
      <trkpt lat="43.54932" lon="1.28458">
        <ele>170</ele>
        <time>2024-07-30T06:35:51Z</time>
      </trkpt>
      <trkpt lat="43.54926" lon="1.28457">
        <ele>170</ele>
        <time>2024-07-30T06:35:52Z</time>
      </trkpt>
      <trkpt lat="43.54921" lon="1.28456">
        <ele>170.2</ele>
        <time>2024-07-30T06:35:53Z</time>
      </trkpt>
      <trkpt lat="43.54915" lon="1.28455">
        <ele>170.2</ele>
        <time>2024-07-30T06:35:54Z</time>
      </trkpt>
      <trkpt lat="43.5491" lon="1.28454">
        <ele>170.2</ele>
        <time>2024-07-30T06:35:55Z</time>
      </trkpt>
      <trkpt lat="43.54905" lon="1.28453">
        <ele>170.4</ele>
        <time>2024-07-30T06:35:56Z</time>
      </trkpt>
      <trkpt lat="43.549" lon="1.28451">
        <ele>170.4</ele>
        <time>2024-07-30T06:35:57Z</time>
      </trkpt>
      <trkpt lat="43.54894" lon="1.2845">
        <ele>170.4</ele>
        <time>2024-07-30T06:35:58Z</time>
      </trkpt>
      <trkpt lat="43.54888" lon="1.28449">
        <ele>170.4</ele>
        <time>2024-07-30T06:35:59Z</time>
      </trkpt>
      <trkpt lat="43.54883" lon="1.28448">
        <ele>170.4</ele>
        <time>2024-07-30T06:36:00Z</time>
      </trkpt>
      <trkpt lat="43.54877" lon="1.28447">
        <ele>170.4</ele>
        <time>2024-07-30T06:36:01Z</time>
      </trkpt>
      <trkpt lat="43.54872" lon="1.28446">
        <ele>170.2</ele>
        <time>2024-07-30T06:36:02Z</time>
      </trkpt>
      <trkpt lat="43.54866" lon="1.28445">
        <ele>170.2</ele>
        <time>2024-07-30T06:36:03Z</time>
      </trkpt>
      <trkpt lat="43.54861" lon="1.28444">
        <ele>170.2</ele>
        <time>2024-07-30T06:36:04Z</time>
      </trkpt>
      <trkpt lat="43.54855" lon="1.28442">
        <ele>170.2</ele>
        <time>2024-07-30T06:36:05Z</time>
      </trkpt>
      <trkpt lat="43.5485" lon="1.28441">
        <ele>170.2</ele>
        <time>2024-07-30T06:36:06Z</time>
      </trkpt>
      <trkpt lat="43.54844" lon="1.28439">
        <ele>170.2</ele>
        <time>2024-07-30T06:36:07Z</time>
      </trkpt>
      <trkpt lat="43.54839" lon="1.28438">
        <ele>170.2</ele>
        <time>2024-07-30T06:36:08Z</time>
      </trkpt>
      <trkpt lat="43.54833" lon="1.28436">
        <ele>170.2</ele>
        <time>2024-07-30T06:36:09Z</time>
      </trkpt>
      <trkpt lat="43.54828" lon="1.28435">
        <ele>170.2</ele>
        <time>2024-07-30T06:36:10Z</time>
      </trkpt>
      <trkpt lat="43.54823" lon="1.28433">
        <ele>170.4</ele>
        <time>2024-07-30T06:36:11Z</time>
      </trkpt>
      <trkpt lat="43.54818" lon="1.28432">
        <ele>170.4</ele>
        <time>2024-07-30T06:36:12Z</time>
      </trkpt>
      <trkpt lat="43.54812" lon="1.28431">
        <ele>170.4</ele>
        <time>2024-07-30T06:36:13Z</time>
      </trkpt>
      <trkpt lat="43.54806" lon="1.28429">
        <ele>170.6</ele>
        <time>2024-07-30T06:36:14Z</time>
      </trkpt>
      <trkpt lat="43.54801" lon="1.28428">
        <ele>170.6</ele>
        <time>2024-07-30T06:36:15Z</time>
      </trkpt>
      <trkpt lat="43.54795" lon="1.28427">
        <ele>170.6</ele>
        <time>2024-07-30T06:36:16Z</time>
      </trkpt>
      <trkpt lat="43.5479" lon="1.28426">
        <ele>170.8</ele>
        <time>2024-07-30T06:36:17Z</time>
      </trkpt>
      <trkpt lat="43.54784" lon="1.28425">
        <ele>170.8</ele>
        <time>2024-07-30T06:36:18Z</time>
      </trkpt>
      <trkpt lat="43.54778" lon="1.28423">
        <ele>170.8</ele>
        <time>2024-07-30T06:36:19Z</time>
      </trkpt>
      <trkpt lat="43.54772" lon="1.28422">
        <ele>170.4</ele>
        <time>2024-07-30T06:36:20Z</time>
      </trkpt>
      <trkpt lat="43.54766" lon="1.28422">
        <ele>170.4</ele>
        <time>2024-07-30T06:36:21Z</time>
      </trkpt>
      <trkpt lat="43.5476" lon="1.2842">
        <ele>170.4</ele>
        <time>2024-07-30T06:36:22Z</time>
      </trkpt>
      <trkpt lat="43.54755" lon="1.28419">
        <ele>170.4</ele>
        <time>2024-07-30T06:36:23Z</time>
      </trkpt>
      <trkpt lat="43.54749" lon="1.28418">
        <ele>170.4</ele>
        <time>2024-07-30T06:36:24Z</time>
      </trkpt>
      <trkpt lat="43.54743" lon="1.28416">
        <ele>170.4</ele>
        <time>2024-07-30T06:36:25Z</time>
      </trkpt>
      <trkpt lat="43.54738" lon="1.28415">
        <ele>170.4</ele>
        <time>2024-07-30T06:36:26Z</time>
      </trkpt>
      <trkpt lat="43.54732" lon="1.28414">
        <ele>170.6</ele>
        <time>2024-07-30T06:36:27Z</time>
      </trkpt>
      <trkpt lat="43.54726" lon="1.28413">
        <ele>170.6</ele>
        <time>2024-07-30T06:36:28Z</time>
      </trkpt>
      <trkpt lat="43.54721" lon="1.28412">
        <ele>170.4</ele>
        <time>2024-07-30T06:36:29Z</time>
      </trkpt>
      <trkpt lat="43.54715" lon="1.2841">
        <ele>170.6</ele>
        <time>2024-07-30T06:36:30Z</time>
      </trkpt>
      <trkpt lat="43.54709" lon="1.28409">
        <ele>170.2</ele>
        <time>2024-07-30T06:36:31Z</time>
      </trkpt>
      <trkpt lat="43.54704" lon="1.28407">
        <ele>170.2</ele>
        <time>2024-07-30T06:36:32Z</time>
      </trkpt>
      <trkpt lat="43.54698" lon="1.28404">
        <ele>170.2</ele>
        <time>2024-07-30T06:36:33Z</time>
      </trkpt>
      <trkpt lat="43.54693" lon="1.28402">
        <ele>170.2</ele>
        <time>2024-07-30T06:36:34Z</time>
      </trkpt>
      <trkpt lat="43.54686" lon="1.28398">
        <ele>170.4</ele>
        <time>2024-07-30T06:36:35Z</time>
      </trkpt>
      <trkpt lat="43.54682" lon="1.28396">
        <ele>170.4</ele>
        <time>2024-07-30T06:36:36Z</time>
      </trkpt>
      <trkpt lat="43.54676" lon="1.28392">
        <ele>170.4</ele>
        <time>2024-07-30T06:36:37Z</time>
      </trkpt>
      <trkpt lat="43.54671" lon="1.28389">
        <ele>170.4</ele>
        <time>2024-07-30T06:36:38Z</time>
      </trkpt>
      <trkpt lat="43.54665" lon="1.28386">
        <ele>170.4</ele>
        <time>2024-07-30T06:36:39Z</time>
      </trkpt>
      <trkpt lat="43.5466" lon="1.28382">
        <ele>170.4</ele>
        <time>2024-07-30T06:36:40Z</time>
      </trkpt>
      <trkpt lat="43.54654" lon="1.28378">
        <ele>170.4</ele>
        <time>2024-07-30T06:36:41Z</time>
      </trkpt>
      <trkpt lat="43.5465" lon="1.28374">
        <ele>170.4</ele>
        <time>2024-07-30T06:36:42Z</time>
      </trkpt>
      <trkpt lat="43.54643" lon="1.28369">
        <ele>170.6</ele>
        <time>2024-07-30T06:36:43Z</time>
      </trkpt>
      <trkpt lat="43.5464" lon="1.28365">
        <ele>170.6</ele>
        <time>2024-07-30T06:36:44Z</time>
      </trkpt>
      <trkpt lat="43.54635" lon="1.2836">
        <ele>170.6</ele>
        <time>2024-07-30T06:36:45Z</time>
      </trkpt>
      <trkpt lat="43.54631" lon="1.28355">
        <ele>170.6</ele>
        <time>2024-07-30T06:36:46Z</time>
      </trkpt>
      <trkpt lat="43.54627" lon="1.28349">
        <ele>170.8</ele>
        <time>2024-07-30T06:36:47Z</time>
      </trkpt>
      <trkpt lat="43.54623" lon="1.28343">
        <ele>170.6</ele>
        <time>2024-07-30T06:36:48Z</time>
      </trkpt>
      <trkpt lat="43.54619" lon="1.28337">
        <ele>170.8</ele>
        <time>2024-07-30T06:36:49Z</time>
      </trkpt>
      <trkpt lat="43.54616" lon="1.2833">
        <ele>170.8</ele>
        <time>2024-07-30T06:36:50Z</time>
      </trkpt>
      <trkpt lat="43.54613" lon="1.28324">
        <ele>170.8</ele>
        <time>2024-07-30T06:36:51Z</time>
      </trkpt>
      <trkpt lat="43.54609" lon="1.28318">
        <ele>170.8</ele>
        <time>2024-07-30T06:36:52Z</time>
      </trkpt>
      <trkpt lat="43.54606" lon="1.28312">
        <ele>170.8</ele>
        <time>2024-07-30T06:36:53Z</time>
      </trkpt>
      <trkpt lat="43.54602" lon="1.28305">
        <ele>170.8</ele>
        <time>2024-07-30T06:36:54Z</time>
      </trkpt>
      <trkpt lat="43.54598" lon="1.28299">
        <ele>170.8</ele>
        <time>2024-07-30T06:36:55Z</time>
      </trkpt>
      <trkpt lat="43.54595" lon="1.28293">
        <ele>170.8</ele>
        <time>2024-07-30T06:36:56Z</time>
      </trkpt>
      <trkpt lat="43.54595" lon="1.28293">
        <ele>170.8</ele>
        <time>2024-07-30T06:36:57Z</time>
      </trkpt>
      <trkpt lat="43.54587" lon="1.28281">
        <ele>170.8</ele>
        <time>2024-07-30T06:36:58Z</time>
      </trkpt>
      <trkpt lat="43.54583" lon="1.28274">
        <ele>170.8</ele>
        <time>2024-07-30T06:36:59Z</time>
      </trkpt>
      <trkpt lat="43.5458" lon="1.28268">
        <ele>170.8</ele>
        <time>2024-07-30T06:37:00Z</time>
      </trkpt>
      <trkpt lat="43.54576" lon="1.28262">
        <ele>170.8</ele>
        <time>2024-07-30T06:37:01Z</time>
      </trkpt>
      <trkpt lat="43.54572" lon="1.28256">
        <ele>170.8</ele>
        <time>2024-07-30T06:37:02Z</time>
      </trkpt>
      <trkpt lat="43.54569" lon="1.2825">
        <ele>170.8</ele>
        <time>2024-07-30T06:37:03Z</time>
      </trkpt>
      <trkpt lat="43.54565" lon="1.28244">
        <ele>170.8</ele>
        <time>2024-07-30T06:37:04Z</time>
      </trkpt>
      <trkpt lat="43.54561" lon="1.28238">
        <ele>170.8</ele>
        <time>2024-07-30T06:37:05Z</time>
      </trkpt>
      <trkpt lat="43.54557" lon="1.28233">
        <ele>170.8</ele>
        <time>2024-07-30T06:37:06Z</time>
      </trkpt>
      <trkpt lat="43.54554" lon="1.28227">
        <ele>170.8</ele>
        <time>2024-07-30T06:37:07Z</time>
      </trkpt>
      <trkpt lat="43.5455" lon="1.28221">
        <ele>170.8</ele>
        <time>2024-07-30T06:37:08Z</time>
      </trkpt>
      <trkpt lat="43.54546" lon="1.28215">
        <ele>170.8</ele>
        <time>2024-07-30T06:37:09Z</time>
      </trkpt>
      <trkpt lat="43.54542" lon="1.28209">
        <ele>170.8</ele>
        <time>2024-07-30T06:37:10Z</time>
      </trkpt>
      <trkpt lat="43.54538" lon="1.28204">
        <ele>170.8</ele>
        <time>2024-07-30T06:37:11Z</time>
      </trkpt>
      <trkpt lat="43.54534" lon="1.28198">
        <ele>170.8</ele>
        <time>2024-07-30T06:37:12Z</time>
      </trkpt>
      <trkpt lat="43.5453" lon="1.28192">
        <ele>170.8</ele>
        <time>2024-07-30T06:37:13Z</time>
      </trkpt>
      <trkpt lat="43.54526" lon="1.28187">
        <ele>171</ele>
        <time>2024-07-30T06:37:14Z</time>
      </trkpt>
      <trkpt lat="43.54521" lon="1.28181">
        <ele>171</ele>
        <time>2024-07-30T06:37:15Z</time>
      </trkpt>
      <trkpt lat="43.54517" lon="1.28176">
        <ele>171</ele>
        <time>2024-07-30T06:37:16Z</time>
      </trkpt>
      <trkpt lat="43.54513" lon="1.2817">
        <ele>171</ele>
        <time>2024-07-30T06:37:17Z</time>
      </trkpt>
      <trkpt lat="43.54508" lon="1.28164">
        <ele>171</ele>
        <time>2024-07-30T06:37:18Z</time>
      </trkpt>
      <trkpt lat="43.54505" lon="1.28159">
        <ele>171</ele>
        <time>2024-07-30T06:37:19Z</time>
      </trkpt>
      <trkpt lat="43.54501" lon="1.28154">
        <ele>171</ele>
        <time>2024-07-30T06:37:20Z</time>
      </trkpt>
      <trkpt lat="43.54497" lon="1.28148">
        <ele>171</ele>
        <time>2024-07-30T06:37:21Z</time>
      </trkpt>
      <trkpt lat="43.54493" lon="1.28142">
        <ele>171</ele>
        <time>2024-07-30T06:37:22Z</time>
      </trkpt>
      <trkpt lat="43.54489" lon="1.28137">
        <ele>171</ele>
        <time>2024-07-30T06:37:23Z</time>
      </trkpt>
      <trkpt lat="43.54485" lon="1.28131">
        <ele>171</ele>
        <time>2024-07-30T06:37:24Z</time>
      </trkpt>
      <trkpt lat="43.54481" lon="1.28125">
        <ele>171</ele>
        <time>2024-07-30T06:37:25Z</time>
      </trkpt>
      <trkpt lat="43.54477" lon="1.28119">
        <ele>171</ele>
        <time>2024-07-30T06:37:26Z</time>
      </trkpt>
      <trkpt lat="43.54473" lon="1.28114">
        <ele>171</ele>
        <time>2024-07-30T06:37:27Z</time>
      </trkpt>
      <trkpt lat="43.54469" lon="1.28108">
        <ele>171.2</ele>
        <time>2024-07-30T06:37:28Z</time>
      </trkpt>
      <trkpt lat="43.54465" lon="1.28102">
        <ele>171.2</ele>
        <time>2024-07-30T06:37:29Z</time>
      </trkpt>
      <trkpt lat="43.54461" lon="1.28096">
        <ele>171.2</ele>
        <time>2024-07-30T06:37:30Z</time>
      </trkpt>
      <trkpt lat="43.54456" lon="1.2809">
        <ele>171.2</ele>
        <time>2024-07-30T06:37:31Z</time>
      </trkpt>
      <trkpt lat="43.54452" lon="1.28084">
        <ele>171.2</ele>
        <time>2024-07-30T06:37:32Z</time>
      </trkpt>
      <trkpt lat="43.54449" lon="1.28078">
        <ele>171.2</ele>
        <time>2024-07-30T06:37:33Z</time>
      </trkpt>
      <trkpt lat="43.54445" lon="1.28072">
        <ele>171.2</ele>
        <time>2024-07-30T06:37:34Z</time>
      </trkpt>
      <trkpt lat="43.54441" lon="1.28065">
        <ele>171.2</ele>
        <time>2024-07-30T06:37:35Z</time>
      </trkpt>
      <trkpt lat="43.54437" lon="1.28058">
        <ele>171.4</ele>
        <time>2024-07-30T06:37:36Z</time>
      </trkpt>
      <trkpt lat="43.54433" lon="1.28052">
        <ele>171.4</ele>
        <time>2024-07-30T06:37:37Z</time>
      </trkpt>
      <trkpt lat="43.54429" lon="1.28045">
        <ele>171.4</ele>
        <time>2024-07-30T06:37:38Z</time>
      </trkpt>
      <trkpt lat="43.54426" lon="1.28038">
        <ele>171.4</ele>
        <time>2024-07-30T06:37:39Z</time>
      </trkpt>
      <trkpt lat="43.54422" lon="1.28032">
        <ele>171.4</ele>
        <time>2024-07-30T06:37:40Z</time>
      </trkpt>
      <trkpt lat="43.54418" lon="1.28025">
        <ele>171.4</ele>
        <time>2024-07-30T06:37:41Z</time>
      </trkpt>
      <trkpt lat="43.54415" lon="1.28018">
        <ele>171.4</ele>
        <time>2024-07-30T06:37:42Z</time>
      </trkpt>
      <trkpt lat="43.54411" lon="1.28012">
        <ele>171.4</ele>
        <time>2024-07-30T06:37:43Z</time>
      </trkpt>
      <trkpt lat="43.54408" lon="1.28005">
        <ele>171.4</ele>
        <time>2024-07-30T06:37:44Z</time>
      </trkpt>
      <trkpt lat="43.54404" lon="1.27999">
        <ele>171.4</ele>
        <time>2024-07-30T06:37:45Z</time>
      </trkpt>
      <trkpt lat="43.54401" lon="1.27992">
        <ele>171.4</ele>
        <time>2024-07-30T06:37:46Z</time>
      </trkpt>
      <trkpt lat="43.54397" lon="1.27986">
        <ele>171.4</ele>
        <time>2024-07-30T06:37:47Z</time>
      </trkpt>
      <trkpt lat="43.54394" lon="1.27979">
        <ele>171.4</ele>
        <time>2024-07-30T06:37:48Z</time>
      </trkpt>
      <trkpt lat="43.54391" lon="1.27972">
        <ele>171.4</ele>
        <time>2024-07-30T06:37:49Z</time>
      </trkpt>
      <trkpt lat="43.54387" lon="1.27965">
        <ele>171.4</ele>
        <time>2024-07-30T06:37:50Z</time>
      </trkpt>
      <trkpt lat="43.54384" lon="1.27959">
        <ele>171.4</ele>
        <time>2024-07-30T06:37:51Z</time>
      </trkpt>
      <trkpt lat="43.54381" lon="1.27952">
        <ele>171.4</ele>
        <time>2024-07-30T06:37:52Z</time>
      </trkpt>
      <trkpt lat="43.54377" lon="1.27945">
        <ele>171.4</ele>
        <time>2024-07-30T06:37:53Z</time>
      </trkpt>
      <trkpt lat="43.54374" lon="1.27938">
        <ele>171.4</ele>
        <time>2024-07-30T06:37:54Z</time>
      </trkpt>
      <trkpt lat="43.54371" lon="1.27931">
        <ele>171.4</ele>
        <time>2024-07-30T06:37:55Z</time>
      </trkpt>
      <trkpt lat="43.54367" lon="1.27924">
        <ele>171.4</ele>
        <time>2024-07-30T06:37:56Z</time>
      </trkpt>
      <trkpt lat="43.54367" lon="1.27924">
        <ele>171.4</ele>
        <time>2024-07-30T06:37:57Z</time>
      </trkpt>
      <trkpt lat="43.54361" lon="1.27911">
        <ele>171.4</ele>
        <time>2024-07-30T06:37:58Z</time>
      </trkpt>
      <trkpt lat="43.54361" lon="1.27911">
        <ele>171.4</ele>
        <time>2024-07-30T06:37:59Z</time>
      </trkpt>
      <trkpt lat="43.54355" lon="1.27898">
        <ele>171.4</ele>
        <time>2024-07-30T06:38:00Z</time>
      </trkpt>
      <trkpt lat="43.54352" lon="1.27891">
        <ele>171.6</ele>
        <time>2024-07-30T06:38:01Z</time>
      </trkpt>
      <trkpt lat="43.54349" lon="1.27884">
        <ele>171.6</ele>
        <time>2024-07-30T06:38:02Z</time>
      </trkpt>
      <trkpt lat="43.54345" lon="1.27877">
        <ele>171.6</ele>
        <time>2024-07-30T06:38:03Z</time>
      </trkpt>
      <trkpt lat="43.54342" lon="1.27871">
        <ele>171.6</ele>
        <time>2024-07-30T06:38:04Z</time>
      </trkpt>
      <trkpt lat="43.54342" lon="1.27871">
        <ele>171.6</ele>
        <time>2024-07-30T06:38:05Z</time>
      </trkpt>
      <trkpt lat="43.54336" lon="1.27856">
        <ele>171.6</ele>
        <time>2024-07-30T06:38:06Z</time>
      </trkpt>
      <trkpt lat="43.54333" lon="1.27849">
        <ele>171.6</ele>
        <time>2024-07-30T06:38:07Z</time>
      </trkpt>
      <trkpt lat="43.5433" lon="1.27842">
        <ele>171.6</ele>
        <time>2024-07-30T06:38:08Z</time>
      </trkpt>
      <trkpt lat="43.54327" lon="1.27835">
        <ele>171.8</ele>
        <time>2024-07-30T06:38:09Z</time>
      </trkpt>
      <trkpt lat="43.54324" lon="1.27828">
        <ele>171.8</ele>
        <time>2024-07-30T06:38:10Z</time>
      </trkpt>
      <trkpt lat="43.54321" lon="1.27822">
        <ele>171.8</ele>
        <time>2024-07-30T06:38:11Z</time>
      </trkpt>
      <trkpt lat="43.54318" lon="1.27815">
        <ele>171.8</ele>
        <time>2024-07-30T06:38:12Z</time>
      </trkpt>
      <trkpt lat="43.54316" lon="1.27808">
        <ele>171.8</ele>
        <time>2024-07-30T06:38:13Z</time>
      </trkpt>
      <trkpt lat="43.54313" lon="1.27801">
        <ele>171.8</ele>
        <time>2024-07-30T06:38:14Z</time>
      </trkpt>
      <trkpt lat="43.5431" lon="1.27795">
        <ele>171.8</ele>
        <time>2024-07-30T06:38:15Z</time>
      </trkpt>
      <trkpt lat="43.54308" lon="1.27788">
        <ele>171.8</ele>
        <time>2024-07-30T06:38:16Z</time>
      </trkpt>
      <trkpt lat="43.54305" lon="1.27781">
        <ele>171.8</ele>
        <time>2024-07-30T06:38:17Z</time>
      </trkpt>
      <trkpt lat="43.54303" lon="1.27774">
        <ele>171.8</ele>
        <time>2024-07-30T06:38:18Z</time>
      </trkpt>
      <trkpt lat="43.54301" lon="1.27768">
        <ele>171.8</ele>
        <time>2024-07-30T06:38:19Z</time>
      </trkpt>
      <trkpt lat="43.54299" lon="1.2776">
        <ele>171.8</ele>
        <time>2024-07-30T06:38:20Z</time>
      </trkpt>
      <trkpt lat="43.54298" lon="1.27753">
        <ele>171.8</ele>
        <time>2024-07-30T06:38:21Z</time>
      </trkpt>
      <trkpt lat="43.54296" lon="1.27746">
        <ele>171.8</ele>
        <time>2024-07-30T06:38:22Z</time>
      </trkpt>
      <trkpt lat="43.54296" lon="1.27746">
        <ele>171.8</ele>
        <time>2024-07-30T06:38:23Z</time>
      </trkpt>
      <trkpt lat="43.54293" lon="1.27731">
        <ele>171.8</ele>
        <time>2024-07-30T06:38:24Z</time>
      </trkpt>
      <trkpt lat="43.54292" lon="1.27724">
        <ele>171.8</ele>
        <time>2024-07-30T06:38:25Z</time>
      </trkpt>
      <trkpt lat="43.54291" lon="1.27716">
        <ele>172</ele>
        <time>2024-07-30T06:38:26Z</time>
      </trkpt>
      <trkpt lat="43.54289" lon="1.27709">
        <ele>172</ele>
        <time>2024-07-30T06:38:27Z</time>
      </trkpt>
      <trkpt lat="43.54288" lon="1.27701">
        <ele>172</ele>
        <time>2024-07-30T06:38:28Z</time>
      </trkpt>
      <trkpt lat="43.54286" lon="1.27693">
        <ele>172</ele>
        <time>2024-07-30T06:38:29Z</time>
      </trkpt>
      <trkpt lat="43.54285" lon="1.27685">
        <ele>172</ele>
        <time>2024-07-30T06:38:30Z</time>
      </trkpt>
      <trkpt lat="43.54284" lon="1.27678">
        <ele>172</ele>
        <time>2024-07-30T06:38:31Z</time>
      </trkpt>
      <trkpt lat="43.54282" lon="1.2767">
        <ele>172</ele>
        <time>2024-07-30T06:38:32Z</time>
      </trkpt>
      <trkpt lat="43.54281" lon="1.27662">
        <ele>172</ele>
        <time>2024-07-30T06:38:33Z</time>
      </trkpt>
      <trkpt lat="43.54279" lon="1.27654">
        <ele>172</ele>
        <time>2024-07-30T06:38:34Z</time>
      </trkpt>
      <trkpt lat="43.54278" lon="1.27647">
        <ele>172.2</ele>
        <time>2024-07-30T06:38:35Z</time>
      </trkpt>
      <trkpt lat="43.54277" lon="1.27639">
        <ele>172.2</ele>
        <time>2024-07-30T06:38:36Z</time>
      </trkpt>
      <trkpt lat="43.54275" lon="1.27632">
        <ele>172.2</ele>
        <time>2024-07-30T06:38:37Z</time>
      </trkpt>
      <trkpt lat="43.54274" lon="1.27625">
        <ele>172.2</ele>
        <time>2024-07-30T06:38:38Z</time>
      </trkpt>
      <trkpt lat="43.54273" lon="1.27618">
        <ele>172.2</ele>
        <time>2024-07-30T06:38:39Z</time>
      </trkpt>
      <trkpt lat="43.54271" lon="1.2761">
        <ele>172.2</ele>
        <time>2024-07-30T06:38:40Z</time>
      </trkpt>
      <trkpt lat="43.5427" lon="1.27603">
        <ele>172.2</ele>
        <time>2024-07-30T06:38:41Z</time>
      </trkpt>
      <trkpt lat="43.54269" lon="1.27596">
        <ele>172.2</ele>
        <time>2024-07-30T06:38:42Z</time>
      </trkpt>
      <trkpt lat="43.54267" lon="1.27588">
        <ele>172.2</ele>
        <time>2024-07-30T06:38:43Z</time>
      </trkpt>
      <trkpt lat="43.54266" lon="1.27581">
        <ele>172.2</ele>
        <time>2024-07-30T06:38:44Z</time>
      </trkpt>
      <trkpt lat="43.54265" lon="1.27573">
        <ele>172.2</ele>
        <time>2024-07-30T06:38:45Z</time>
      </trkpt>
      <trkpt lat="43.54263" lon="1.27565">
        <ele>172.2</ele>
        <time>2024-07-30T06:38:46Z</time>
      </trkpt>
      <trkpt lat="43.54261" lon="1.27558">
        <ele>172.2</ele>
        <time>2024-07-30T06:38:47Z</time>
      </trkpt>
      <trkpt lat="43.54259" lon="1.2755">
        <ele>172.2</ele>
        <time>2024-07-30T06:38:48Z</time>
      </trkpt>
      <trkpt lat="43.54257" lon="1.27543">
        <ele>172.2</ele>
        <time>2024-07-30T06:38:49Z</time>
      </trkpt>
      <trkpt lat="43.54255" lon="1.27535">
        <ele>172.2</ele>
        <time>2024-07-30T06:38:50Z</time>
      </trkpt>
      <trkpt lat="43.54253" lon="1.27528">
        <ele>172.2</ele>
        <time>2024-07-30T06:38:51Z</time>
      </trkpt>
      <trkpt lat="43.5425" lon="1.27521">
        <ele>172.2</ele>
        <time>2024-07-30T06:38:52Z</time>
      </trkpt>
      <trkpt lat="43.54248" lon="1.27514">
        <ele>172.2</ele>
        <time>2024-07-30T06:38:53Z</time>
      </trkpt>
      <trkpt lat="43.54245" lon="1.27507">
        <ele>172.2</ele>
        <time>2024-07-30T06:38:54Z</time>
      </trkpt>
      <trkpt lat="43.54242" lon="1.27501">
        <ele>172.2</ele>
        <time>2024-07-30T06:38:55Z</time>
      </trkpt>
      <trkpt lat="43.54239" lon="1.27494">
        <ele>172.2</ele>
        <time>2024-07-30T06:38:56Z</time>
      </trkpt>
      <trkpt lat="43.54235" lon="1.27488">
        <ele>172.2</ele>
        <time>2024-07-30T06:38:57Z</time>
      </trkpt>
      <trkpt lat="43.54235" lon="1.27488">
        <ele>172.2</ele>
        <time>2024-07-30T06:38:58Z</time>
      </trkpt>
      <trkpt lat="43.54229" lon="1.27477">
        <ele>172.4</ele>
        <time>2024-07-30T06:38:59Z</time>
      </trkpt>
      <trkpt lat="43.54225" lon="1.27471">
        <ele>172.4</ele>
        <time>2024-07-30T06:39:00Z</time>
      </trkpt>
      <trkpt lat="43.54222" lon="1.27465">
        <ele>172.4</ele>
        <time>2024-07-30T06:39:01Z</time>
      </trkpt>
      <trkpt lat="43.54219" lon="1.2746">
        <ele>172.4</ele>
        <time>2024-07-30T06:39:02Z</time>
      </trkpt>
      <trkpt lat="43.54215" lon="1.27454">
        <ele>172.4</ele>
        <time>2024-07-30T06:39:03Z</time>
      </trkpt>
      <trkpt lat="43.54211" lon="1.27448">
        <ele>172.4</ele>
        <time>2024-07-30T06:39:04Z</time>
      </trkpt>
      <trkpt lat="43.54208" lon="1.27442">
        <ele>172.4</ele>
        <time>2024-07-30T06:39:05Z</time>
      </trkpt>
      <trkpt lat="43.54204" lon="1.27436">
        <ele>172.4</ele>
        <time>2024-07-30T06:39:06Z</time>
      </trkpt>
      <trkpt lat="43.542" lon="1.2743">
        <ele>172.4</ele>
        <time>2024-07-30T06:39:07Z</time>
      </trkpt>
      <trkpt lat="43.54196" lon="1.27424">
        <ele>172.6</ele>
        <time>2024-07-30T06:39:08Z</time>
      </trkpt>
      <trkpt lat="43.54192" lon="1.27418">
        <ele>172.6</ele>
        <time>2024-07-30T06:39:09Z</time>
      </trkpt>
      <trkpt lat="43.54189" lon="1.27412">
        <ele>172.6</ele>
        <time>2024-07-30T06:39:10Z</time>
      </trkpt>
      <trkpt lat="43.54185" lon="1.27406">
        <ele>172.6</ele>
        <time>2024-07-30T06:39:11Z</time>
      </trkpt>
      <trkpt lat="43.54181" lon="1.274">
        <ele>172.6</ele>
        <time>2024-07-30T06:39:12Z</time>
      </trkpt>
      <trkpt lat="43.54177" lon="1.27393">
        <ele>172.8</ele>
        <time>2024-07-30T06:39:13Z</time>
      </trkpt>
      <trkpt lat="43.54173" lon="1.27387">
        <ele>172.6</ele>
        <time>2024-07-30T06:39:14Z</time>
      </trkpt>
      <trkpt lat="43.54169" lon="1.27381">
        <ele>172.6</ele>
        <time>2024-07-30T06:39:15Z</time>
      </trkpt>
      <trkpt lat="43.54165" lon="1.27374">
        <ele>172.6</ele>
        <time>2024-07-30T06:39:16Z</time>
      </trkpt>
      <trkpt lat="43.54161" lon="1.27368">
        <ele>172.6</ele>
        <time>2024-07-30T06:39:17Z</time>
      </trkpt>
      <trkpt lat="43.54161" lon="1.27368">
        <ele>172.6</ele>
        <time>2024-07-30T06:39:18Z</time>
      </trkpt>
      <trkpt lat="43.54153" lon="1.27356">
        <ele>172.8</ele>
        <time>2024-07-30T06:39:19Z</time>
      </trkpt>
      <trkpt lat="43.54149" lon="1.27349">
        <ele>173</ele>
        <time>2024-07-30T06:39:20Z</time>
      </trkpt>
      <trkpt lat="43.54146" lon="1.27343">
        <ele>173</ele>
        <time>2024-07-30T06:39:21Z</time>
      </trkpt>
      <trkpt lat="43.54142" lon="1.27337">
        <ele>173</ele>
        <time>2024-07-30T06:39:22Z</time>
      </trkpt>
      <trkpt lat="43.54138" lon="1.27331">
        <ele>173</ele>
        <time>2024-07-30T06:39:23Z</time>
      </trkpt>
      <trkpt lat="43.54134" lon="1.27324">
        <ele>173</ele>
        <time>2024-07-30T06:39:24Z</time>
      </trkpt>
      <trkpt lat="43.5413" lon="1.27318">
        <ele>173.2</ele>
        <time>2024-07-30T06:39:25Z</time>
      </trkpt>
      <trkpt lat="43.54126" lon="1.27312">
        <ele>173.2</ele>
        <time>2024-07-30T06:39:26Z</time>
      </trkpt>
      <trkpt lat="43.54123" lon="1.27306">
        <ele>173.2</ele>
        <time>2024-07-30T06:39:27Z</time>
      </trkpt>
      <trkpt lat="43.54118" lon="1.27299">
        <ele>173.2</ele>
        <time>2024-07-30T06:39:28Z</time>
      </trkpt>
      <trkpt lat="43.54114" lon="1.27293">
        <ele>173.2</ele>
        <time>2024-07-30T06:39:29Z</time>
      </trkpt>
      <trkpt lat="43.54111" lon="1.27287">
        <ele>173.2</ele>
        <time>2024-07-30T06:39:30Z</time>
      </trkpt>
      <trkpt lat="43.54107" lon="1.27281">
        <ele>173.2</ele>
        <time>2024-07-30T06:39:31Z</time>
      </trkpt>
      <trkpt lat="43.54103" lon="1.27274">
        <ele>173.4</ele>
        <time>2024-07-30T06:39:32Z</time>
      </trkpt>
      <trkpt lat="43.54099" lon="1.27268">
        <ele>173.4</ele>
        <time>2024-07-30T06:39:33Z</time>
      </trkpt>
      <trkpt lat="43.54096" lon="1.27263">
        <ele>173.4</ele>
        <time>2024-07-30T06:39:34Z</time>
      </trkpt>
      <trkpt lat="43.54092" lon="1.27257">
        <ele>173.4</ele>
        <time>2024-07-30T06:39:35Z</time>
      </trkpt>
      <trkpt lat="43.54089" lon="1.27251">
        <ele>173.4</ele>
        <time>2024-07-30T06:39:36Z</time>
      </trkpt>
      <trkpt lat="43.54085" lon="1.27245">
        <ele>173.4</ele>
        <time>2024-07-30T06:39:37Z</time>
      </trkpt>
      <trkpt lat="43.54082" lon="1.27239">
        <ele>173.4</ele>
        <time>2024-07-30T06:39:38Z</time>
      </trkpt>
      <trkpt lat="43.54078" lon="1.27233">
        <ele>173.4</ele>
        <time>2024-07-30T06:39:39Z</time>
      </trkpt>
      <trkpt lat="43.54075" lon="1.27227">
        <ele>173.4</ele>
        <time>2024-07-30T06:39:40Z</time>
      </trkpt>
      <trkpt lat="43.54071" lon="1.27222">
        <ele>173.4</ele>
        <time>2024-07-30T06:39:41Z</time>
      </trkpt>
      <trkpt lat="43.54068" lon="1.27215">
        <ele>173.4</ele>
        <time>2024-07-30T06:39:42Z</time>
      </trkpt>
      <trkpt lat="43.54064" lon="1.27209">
        <ele>173.4</ele>
        <time>2024-07-30T06:39:43Z</time>
      </trkpt>
      <trkpt lat="43.54061" lon="1.27203">
        <ele>173.4</ele>
        <time>2024-07-30T06:39:44Z</time>
      </trkpt>
      <trkpt lat="43.54057" lon="1.27198">
        <ele>173.4</ele>
        <time>2024-07-30T06:39:45Z</time>
      </trkpt>
      <trkpt lat="43.54053" lon="1.27192">
        <ele>173.2</ele>
        <time>2024-07-30T06:39:46Z</time>
      </trkpt>
      <trkpt lat="43.54049" lon="1.27186">
        <ele>173.4</ele>
        <time>2024-07-30T06:39:47Z</time>
      </trkpt>
      <trkpt lat="43.54045" lon="1.27181">
        <ele>173.4</ele>
        <time>2024-07-30T06:39:48Z</time>
      </trkpt>
      <trkpt lat="43.54041" lon="1.27175">
        <ele>173.4</ele>
        <time>2024-07-30T06:39:49Z</time>
      </trkpt>
      <trkpt lat="43.54037" lon="1.2717">
        <ele>173.4</ele>
        <time>2024-07-30T06:39:50Z</time>
      </trkpt>
      <trkpt lat="43.54032" lon="1.27164">
        <ele>173.4</ele>
        <time>2024-07-30T06:39:51Z</time>
      </trkpt>
      <trkpt lat="43.54028" lon="1.27159">
        <ele>173.6</ele>
        <time>2024-07-30T06:39:52Z</time>
      </trkpt>
      <trkpt lat="43.54024" lon="1.27154">
        <ele>173.6</ele>
        <time>2024-07-30T06:39:53Z</time>
      </trkpt>
      <trkpt lat="43.5402" lon="1.27148">
        <ele>173.6</ele>
        <time>2024-07-30T06:39:54Z</time>
      </trkpt>
      <trkpt lat="43.54016" lon="1.27143">
        <ele>173.6</ele>
        <time>2024-07-30T06:39:55Z</time>
      </trkpt>
      <trkpt lat="43.54011" lon="1.27138">
        <ele>173.8</ele>
        <time>2024-07-30T06:39:56Z</time>
      </trkpt>
      <trkpt lat="43.54007" lon="1.27132">
        <ele>173.8</ele>
        <time>2024-07-30T06:39:57Z</time>
      </trkpt>
      <trkpt lat="43.54007" lon="1.27132">
        <ele>173.8</ele>
        <time>2024-07-30T06:39:58Z</time>
      </trkpt>
      <trkpt lat="43.53998" lon="1.27122">
        <ele>173.8</ele>
        <time>2024-07-30T06:39:59Z</time>
      </trkpt>
      <trkpt lat="43.53994" lon="1.27117">
        <ele>174</ele>
        <time>2024-07-30T06:40:00Z</time>
      </trkpt>
      <trkpt lat="43.5399" lon="1.27112">
        <ele>174</ele>
        <time>2024-07-30T06:40:01Z</time>
      </trkpt>
      <trkpt lat="43.53986" lon="1.27106">
        <ele>174</ele>
        <time>2024-07-30T06:40:02Z</time>
      </trkpt>
      <trkpt lat="43.53982" lon="1.27101">
        <ele>174</ele>
        <time>2024-07-30T06:40:03Z</time>
      </trkpt>
      <trkpt lat="43.53977" lon="1.27095">
        <ele>174</ele>
        <time>2024-07-30T06:40:04Z</time>
      </trkpt>
      <trkpt lat="43.53973" lon="1.2709">
        <ele>174</ele>
        <time>2024-07-30T06:40:05Z</time>
      </trkpt>
      <trkpt lat="43.53969" lon="1.27085">
        <ele>174</ele>
        <time>2024-07-30T06:40:06Z</time>
      </trkpt>
      <trkpt lat="43.53964" lon="1.27079">
        <ele>174</ele>
        <time>2024-07-30T06:40:07Z</time>
      </trkpt>
      <trkpt lat="43.5396" lon="1.27074">
        <ele>174</ele>
        <time>2024-07-30T06:40:08Z</time>
      </trkpt>
      <trkpt lat="43.53956" lon="1.27069">
        <ele>174</ele>
        <time>2024-07-30T06:40:09Z</time>
      </trkpt>
      <trkpt lat="43.53952" lon="1.27063">
        <ele>174</ele>
        <time>2024-07-30T06:40:10Z</time>
      </trkpt>
      <trkpt lat="43.53948" lon="1.27058">
        <ele>174.2</ele>
        <time>2024-07-30T06:40:11Z</time>
      </trkpt>
      <trkpt lat="43.53944" lon="1.27053">
        <ele>174.2</ele>
        <time>2024-07-30T06:40:12Z</time>
      </trkpt>
      <trkpt lat="43.5394" lon="1.27048">
        <ele>174.2</ele>
        <time>2024-07-30T06:40:13Z</time>
      </trkpt>
      <trkpt lat="43.53936" lon="1.27042">
        <ele>174.2</ele>
        <time>2024-07-30T06:40:14Z</time>
      </trkpt>
      <trkpt lat="43.53931" lon="1.27037">
        <ele>174.2</ele>
        <time>2024-07-30T06:40:15Z</time>
      </trkpt>
      <trkpt lat="43.53927" lon="1.27032">
        <ele>174.2</ele>
        <time>2024-07-30T06:40:16Z</time>
      </trkpt>
      <trkpt lat="43.53923" lon="1.27027">
        <ele>174.2</ele>
        <time>2024-07-30T06:40:17Z</time>
      </trkpt>
      <trkpt lat="43.53919" lon="1.27021">
        <ele>174.4</ele>
        <time>2024-07-30T06:40:18Z</time>
      </trkpt>
      <trkpt lat="43.53915" lon="1.27016">
        <ele>174.4</ele>
        <time>2024-07-30T06:40:19Z</time>
      </trkpt>
      <trkpt lat="43.53911" lon="1.27011">
        <ele>174.4</ele>
        <time>2024-07-30T06:40:20Z</time>
      </trkpt>
      <trkpt lat="43.53906" lon="1.27005">
        <ele>174.4</ele>
        <time>2024-07-30T06:40:21Z</time>
      </trkpt>
      <trkpt lat="43.53902" lon="1.27">
        <ele>174.4</ele>
        <time>2024-07-30T06:40:22Z</time>
      </trkpt>
      <trkpt lat="43.53898" lon="1.26994">
        <ele>174.4</ele>
        <time>2024-07-30T06:40:23Z</time>
      </trkpt>
      <trkpt lat="43.53894" lon="1.26989">
        <ele>174.4</ele>
        <time>2024-07-30T06:40:24Z</time>
      </trkpt>
      <trkpt lat="43.5389" lon="1.26984">
        <ele>174.4</ele>
        <time>2024-07-30T06:40:25Z</time>
      </trkpt>
      <trkpt lat="43.53886" lon="1.26979">
        <ele>174.4</ele>
        <time>2024-07-30T06:40:26Z</time>
      </trkpt>
      <trkpt lat="43.53882" lon="1.26974">
        <ele>174.4</ele>
        <time>2024-07-30T06:40:27Z</time>
      </trkpt>
      <trkpt lat="43.53878" lon="1.26969">
        <ele>174.4</ele>
        <time>2024-07-30T06:40:28Z</time>
      </trkpt>
      <trkpt lat="43.53873" lon="1.26964">
        <ele>174.4</ele>
        <time>2024-07-30T06:40:29Z</time>
      </trkpt>
      <trkpt lat="43.53869" lon="1.26959">
        <ele>174.6</ele>
        <time>2024-07-30T06:40:30Z</time>
      </trkpt>
      <trkpt lat="43.53869" lon="1.26959">
        <ele>174.6</ele>
        <time>2024-07-30T06:40:31Z</time>
      </trkpt>
      <trkpt lat="43.53861" lon="1.26949">
        <ele>174.6</ele>
        <time>2024-07-30T06:40:32Z</time>
      </trkpt>
      <trkpt lat="43.53858" lon="1.26944">
        <ele>174.6</ele>
        <time>2024-07-30T06:40:33Z</time>
      </trkpt>
      <trkpt lat="43.53854" lon="1.26938">
        <ele>174.8</ele>
        <time>2024-07-30T06:40:34Z</time>
      </trkpt>
      <trkpt lat="43.53851" lon="1.26933">
        <ele>174.8</ele>
        <time>2024-07-30T06:40:35Z</time>
      </trkpt>
      <trkpt lat="43.53848" lon="1.26928">
        <ele>174.8</ele>
        <time>2024-07-30T06:40:36Z</time>
      </trkpt>
      <trkpt lat="43.53844" lon="1.26922">
        <ele>174.8</ele>
        <time>2024-07-30T06:40:37Z</time>
      </trkpt>
      <trkpt lat="43.53841" lon="1.26917">
        <ele>174.8</ele>
        <time>2024-07-30T06:40:38Z</time>
      </trkpt>
      <trkpt lat="43.53838" lon="1.26911">
        <ele>174.8</ele>
        <time>2024-07-30T06:40:39Z</time>
      </trkpt>
      <trkpt lat="43.53835" lon="1.26906">
        <ele>174.8</ele>
        <time>2024-07-30T06:40:40Z</time>
      </trkpt>
      <trkpt lat="43.53833" lon="1.269">
        <ele>174.8</ele>
        <time>2024-07-30T06:40:41Z</time>
      </trkpt>
      <trkpt lat="43.5383" lon="1.26895">
        <ele>174.8</ele>
        <time>2024-07-30T06:40:42Z</time>
      </trkpt>
      <trkpt lat="43.53828" lon="1.2689">
        <ele>174.8</ele>
        <time>2024-07-30T06:40:43Z</time>
      </trkpt>
      <trkpt lat="43.53825" lon="1.26885">
        <ele>174.8</ele>
        <time>2024-07-30T06:40:44Z</time>
      </trkpt>
      <trkpt lat="43.53823" lon="1.2688">
        <ele>174.8</ele>
        <time>2024-07-30T06:40:45Z</time>
      </trkpt>
      <trkpt lat="43.53821" lon="1.26875">
        <ele>174.8</ele>
        <time>2024-07-30T06:40:46Z</time>
      </trkpt>
      <trkpt lat="43.53819" lon="1.26871">
        <ele>174.8</ele>
        <time>2024-07-30T06:40:47Z</time>
      </trkpt>
      <trkpt lat="43.53816" lon="1.26867">
        <ele>174.8</ele>
        <time>2024-07-30T06:40:48Z</time>
      </trkpt>
      <trkpt lat="43.53813" lon="1.26865">
        <ele>175</ele>
        <time>2024-07-30T06:40:49Z</time>
      </trkpt>
      <trkpt lat="43.53809" lon="1.26866">
        <ele>175</ele>
        <time>2024-07-30T06:40:50Z</time>
      </trkpt>
      <trkpt lat="43.53806" lon="1.26869">
        <ele>175</ele>
        <time>2024-07-30T06:40:51Z</time>
      </trkpt>
      <trkpt lat="43.53804" lon="1.26874">
        <ele>174.8</ele>
        <time>2024-07-30T06:40:52Z</time>
      </trkpt>
      <trkpt lat="43.53802" lon="1.26879">
        <ele>174.8</ele>
        <time>2024-07-30T06:40:53Z</time>
      </trkpt>
      <trkpt lat="43.53801" lon="1.26886">
        <ele>174.8</ele>
        <time>2024-07-30T06:40:54Z</time>
      </trkpt>
      <trkpt lat="43.53799" lon="1.26893">
        <ele>174.6</ele>
        <time>2024-07-30T06:40:55Z</time>
      </trkpt>
      <trkpt lat="43.53798" lon="1.269">
        <ele>174.6</ele>
        <time>2024-07-30T06:40:56Z</time>
      </trkpt>
      <trkpt lat="43.53796" lon="1.26907">
        <ele>174.6</ele>
        <time>2024-07-30T06:40:57Z</time>
      </trkpt>
      <trkpt lat="43.53796" lon="1.26907">
        <ele>174.4</ele>
        <time>2024-07-30T06:40:58Z</time>
      </trkpt>
      <trkpt lat="43.53792" lon="1.26922">
        <ele>174.4</ele>
        <time>2024-07-30T06:40:59Z</time>
      </trkpt>
      <trkpt lat="43.5379" lon="1.26929">
        <ele>174.4</ele>
        <time>2024-07-30T06:41:00Z</time>
      </trkpt>
      <trkpt lat="43.53787" lon="1.26937">
        <ele>174.4</ele>
        <time>2024-07-30T06:41:01Z</time>
      </trkpt>
      <trkpt lat="43.53785" lon="1.26945">
        <ele>174.4</ele>
        <time>2024-07-30T06:41:02Z</time>
      </trkpt>
      <trkpt lat="43.53783" lon="1.26953">
        <ele>174.4</ele>
        <time>2024-07-30T06:41:03Z</time>
      </trkpt>
      <trkpt lat="43.53781" lon="1.26961">
        <ele>174.4</ele>
        <time>2024-07-30T06:41:04Z</time>
      </trkpt>
      <trkpt lat="43.53779" lon="1.26969">
        <ele>174.6</ele>
        <time>2024-07-30T06:41:05Z</time>
      </trkpt>
      <trkpt lat="43.53776" lon="1.26977">
        <ele>174.6</ele>
        <time>2024-07-30T06:41:06Z</time>
      </trkpt>
      <trkpt lat="43.53774" lon="1.26985">
        <ele>174.6</ele>
        <time>2024-07-30T06:41:07Z</time>
      </trkpt>
      <trkpt lat="43.53774" lon="1.26985">
        <ele>174.6</ele>
        <time>2024-07-30T06:41:08Z</time>
      </trkpt>
      <trkpt lat="43.5377" lon="1.27001">
        <ele>174.6</ele>
        <time>2024-07-30T06:41:09Z</time>
      </trkpt>
      <trkpt lat="43.53767" lon="1.2701">
        <ele>174.6</ele>
        <time>2024-07-30T06:41:10Z</time>
      </trkpt>
      <trkpt lat="43.53765" lon="1.27018">
        <ele>174.4</ele>
        <time>2024-07-30T06:41:11Z</time>
      </trkpt>
      <trkpt lat="43.53763" lon="1.27026">
        <ele>174.8</ele>
        <time>2024-07-30T06:41:12Z</time>
      </trkpt>
      <trkpt lat="43.53761" lon="1.27034">
        <ele>174.8</ele>
        <time>2024-07-30T06:41:13Z</time>
      </trkpt>
      <trkpt lat="43.53759" lon="1.27041">
        <ele>174.8</ele>
        <time>2024-07-30T06:41:14Z</time>
      </trkpt>
      <trkpt lat="43.53757" lon="1.27047">
        <ele>174.8</ele>
        <time>2024-07-30T06:41:15Z</time>
      </trkpt>
      <trkpt lat="43.53756" lon="1.27054">
        <ele>174.8</ele>
        <time>2024-07-30T06:41:16Z</time>
      </trkpt>
      <trkpt lat="43.53754" lon="1.2706">
        <ele>174.8</ele>
        <time>2024-07-30T06:41:17Z</time>
      </trkpt>
      <trkpt lat="43.53752" lon="1.27066">
        <ele>174.8</ele>
        <time>2024-07-30T06:41:18Z</time>
      </trkpt>
      <trkpt lat="43.53751" lon="1.27071">
        <ele>174.8</ele>
        <time>2024-07-30T06:41:19Z</time>
      </trkpt>
      <trkpt lat="43.5375" lon="1.27076">
        <ele>175</ele>
        <time>2024-07-30T06:41:20Z</time>
      </trkpt>
      <trkpt lat="43.53749" lon="1.2708">
        <ele>175</ele>
        <time>2024-07-30T06:41:21Z</time>
      </trkpt>
      <trkpt lat="43.53748" lon="1.27084">
        <ele>175.4</ele>
        <time>2024-07-30T06:41:22Z</time>
      </trkpt>
      <trkpt lat="43.53747" lon="1.27087">
        <ele>175.4</ele>
        <time>2024-07-30T06:41:23Z</time>
      </trkpt>
      <trkpt lat="43.53746" lon="1.27091">
        <ele>175.6</ele>
        <time>2024-07-30T06:41:24Z</time>
      </trkpt>
      <trkpt lat="43.53745" lon="1.27094">
        <ele>175.6</ele>
        <time>2024-07-30T06:41:25Z</time>
      </trkpt>
      <trkpt lat="43.53744" lon="1.27098">
        <ele>175.8</ele>
        <time>2024-07-30T06:41:26Z</time>
      </trkpt>
      <trkpt lat="43.53742" lon="1.27103">
        <ele>175.8</ele>
        <time>2024-07-30T06:41:27Z</time>
      </trkpt>
      <trkpt lat="43.53739" lon="1.27109">
        <ele>175.8</ele>
        <time>2024-07-30T06:41:28Z</time>
      </trkpt>
      <trkpt lat="43.53737" lon="1.27116">
        <ele>175.8</ele>
        <time>2024-07-30T06:41:29Z</time>
      </trkpt>
      <trkpt lat="43.53734" lon="1.27124">
        <ele>176</ele>
        <time>2024-07-30T06:41:30Z</time>
      </trkpt>
      <trkpt lat="43.53731" lon="1.27132">
        <ele>176</ele>
        <time>2024-07-30T06:41:31Z</time>
      </trkpt>
      <trkpt lat="43.53727" lon="1.27141">
        <ele>176</ele>
        <time>2024-07-30T06:41:32Z</time>
      </trkpt>
      <trkpt lat="43.53724" lon="1.27149">
        <ele>176.2</ele>
        <time>2024-07-30T06:41:33Z</time>
      </trkpt>
      <trkpt lat="43.53721" lon="1.27158">
        <ele>176</ele>
        <time>2024-07-30T06:41:34Z</time>
      </trkpt>
      <trkpt lat="43.53718" lon="1.27166">
        <ele>176</ele>
        <time>2024-07-30T06:41:35Z</time>
      </trkpt>
      <trkpt lat="43.53715" lon="1.27175">
        <ele>175.8</ele>
        <time>2024-07-30T06:41:36Z</time>
      </trkpt>
      <trkpt lat="43.53712" lon="1.27183">
        <ele>175.4</ele>
        <time>2024-07-30T06:41:37Z</time>
      </trkpt>
      <trkpt lat="43.53709" lon="1.27192">
        <ele>175.2</ele>
        <time>2024-07-30T06:41:38Z</time>
      </trkpt>
      <trkpt lat="43.53706" lon="1.272">
        <ele>175</ele>
        <time>2024-07-30T06:41:39Z</time>
      </trkpt>
      <trkpt lat="43.53703" lon="1.27208">
        <ele>174.8</ele>
        <time>2024-07-30T06:41:40Z</time>
      </trkpt>
      <trkpt lat="43.537" lon="1.27217">
        <ele>174.8</ele>
        <time>2024-07-30T06:41:41Z</time>
      </trkpt>
      <trkpt lat="43.53697" lon="1.27225">
        <ele>174.8</ele>
        <time>2024-07-30T06:41:42Z</time>
      </trkpt>
      <trkpt lat="43.53694" lon="1.27233">
        <ele>174.6</ele>
        <time>2024-07-30T06:41:43Z</time>
      </trkpt>
      <trkpt lat="43.53692" lon="1.27241">
        <ele>174.6</ele>
        <time>2024-07-30T06:41:44Z</time>
      </trkpt>
      <trkpt lat="43.53688" lon="1.2725">
        <ele>174.6</ele>
        <time>2024-07-30T06:41:45Z</time>
      </trkpt>
      <trkpt lat="43.53686" lon="1.27258">
        <ele>174.6</ele>
        <time>2024-07-30T06:41:46Z</time>
      </trkpt>
      <trkpt lat="43.53682" lon="1.27266">
        <ele>174.6</ele>
        <time>2024-07-30T06:41:47Z</time>
      </trkpt>
      <trkpt lat="43.53679" lon="1.27275">
        <ele>174.6</ele>
        <time>2024-07-30T06:41:48Z</time>
      </trkpt>
      <trkpt lat="43.53676" lon="1.27283">
        <ele>174.6</ele>
        <time>2024-07-30T06:41:49Z</time>
      </trkpt>
      <trkpt lat="43.53673" lon="1.27291">
        <ele>174.6</ele>
        <time>2024-07-30T06:41:50Z</time>
      </trkpt>
      <trkpt lat="43.5367" lon="1.27299">
        <ele>174.6</ele>
        <time>2024-07-30T06:41:51Z</time>
      </trkpt>
      <trkpt lat="43.53668" lon="1.27307">
        <ele>174.6</ele>
        <time>2024-07-30T06:41:52Z</time>
      </trkpt>
      <trkpt lat="43.53665" lon="1.27315">
        <ele>174.6</ele>
        <time>2024-07-30T06:41:53Z</time>
      </trkpt>
      <trkpt lat="43.53662" lon="1.27323">
        <ele>174.6</ele>
        <time>2024-07-30T06:41:54Z</time>
      </trkpt>
      <trkpt lat="43.53659" lon="1.27331">
        <ele>174.6</ele>
        <time>2024-07-30T06:41:55Z</time>
      </trkpt>
      <trkpt lat="43.53656" lon="1.27339">
        <ele>174.6</ele>
        <time>2024-07-30T06:41:56Z</time>
      </trkpt>
      <trkpt lat="43.53654" lon="1.27347">
        <ele>174.8</ele>
        <time>2024-07-30T06:41:57Z</time>
      </trkpt>
      <trkpt lat="43.53651" lon="1.27355">
        <ele>174.8</ele>
        <time>2024-07-30T06:41:58Z</time>
      </trkpt>
      <trkpt lat="43.53648" lon="1.27362">
        <ele>174.8</ele>
        <time>2024-07-30T06:41:59Z</time>
      </trkpt>
      <trkpt lat="43.53645" lon="1.2737">
        <ele>174.8</ele>
        <time>2024-07-30T06:42:00Z</time>
      </trkpt>
      <trkpt lat="43.53643" lon="1.27378">
        <ele>174.8</ele>
        <time>2024-07-30T06:42:01Z</time>
      </trkpt>
      <trkpt lat="43.5364" lon="1.27386">
        <ele>174.8</ele>
        <time>2024-07-30T06:42:02Z</time>
      </trkpt>
      <trkpt lat="43.53638" lon="1.27393">
        <ele>174.8</ele>
        <time>2024-07-30T06:42:03Z</time>
      </trkpt>
      <trkpt lat="43.53638" lon="1.27393">
        <ele>174.8</ele>
        <time>2024-07-30T06:42:04Z</time>
      </trkpt>
      <trkpt lat="43.53633" lon="1.27408">
        <ele>174.8</ele>
        <time>2024-07-30T06:42:05Z</time>
      </trkpt>
      <trkpt lat="43.53631" lon="1.27415">
        <ele>174.8</ele>
        <time>2024-07-30T06:42:06Z</time>
      </trkpt>
      <trkpt lat="43.53629" lon="1.27422">
        <ele>174.8</ele>
        <time>2024-07-30T06:42:07Z</time>
      </trkpt>
      <trkpt lat="43.53626" lon="1.27429">
        <ele>174.8</ele>
        <time>2024-07-30T06:42:08Z</time>
      </trkpt>
      <trkpt lat="43.53624" lon="1.27437">
        <ele>174.8</ele>
        <time>2024-07-30T06:42:09Z</time>
      </trkpt>
      <trkpt lat="43.53622" lon="1.27444">
        <ele>174.6</ele>
        <time>2024-07-30T06:42:10Z</time>
      </trkpt>
      <trkpt lat="43.5362" lon="1.27452">
        <ele>174.6</ele>
        <time>2024-07-30T06:42:11Z</time>
      </trkpt>
      <trkpt lat="43.5362" lon="1.27452">
        <ele>174.6</ele>
        <time>2024-07-30T06:42:12Z</time>
      </trkpt>
      <trkpt lat="43.53615" lon="1.27467">
        <ele>174.6</ele>
        <time>2024-07-30T06:42:13Z</time>
      </trkpt>
      <trkpt lat="43.53613" lon="1.27474">
        <ele>174.6</ele>
        <time>2024-07-30T06:42:14Z</time>
      </trkpt>
      <trkpt lat="43.5361" lon="1.27481">
        <ele>174.6</ele>
        <time>2024-07-30T06:42:15Z</time>
      </trkpt>
      <trkpt lat="43.53608" lon="1.27488">
        <ele>174.6</ele>
        <time>2024-07-30T06:42:16Z</time>
      </trkpt>
      <trkpt lat="43.53606" lon="1.27495">
        <ele>174.6</ele>
        <time>2024-07-30T06:42:17Z</time>
      </trkpt>
      <trkpt lat="43.53604" lon="1.27501">
        <ele>174.6</ele>
        <time>2024-07-30T06:42:18Z</time>
      </trkpt>
      <trkpt lat="43.53602" lon="1.27508">
        <ele>174.6</ele>
        <time>2024-07-30T06:42:19Z</time>
      </trkpt>
      <trkpt lat="43.536" lon="1.27515">
        <ele>174.6</ele>
        <time>2024-07-30T06:42:20Z</time>
      </trkpt>
      <trkpt lat="43.53598" lon="1.27522">
        <ele>174.6</ele>
        <time>2024-07-30T06:42:21Z</time>
      </trkpt>
      <trkpt lat="43.53596" lon="1.27528">
        <ele>174.6</ele>
        <time>2024-07-30T06:42:22Z</time>
      </trkpt>
      <trkpt lat="43.53594" lon="1.27535">
        <ele>174.6</ele>
        <time>2024-07-30T06:42:23Z</time>
      </trkpt>
      <trkpt lat="43.53592" lon="1.27542">
        <ele>174.4</ele>
        <time>2024-07-30T06:42:24Z</time>
      </trkpt>
      <trkpt lat="43.5359" lon="1.27549">
        <ele>174.4</ele>
        <time>2024-07-30T06:42:25Z</time>
      </trkpt>
      <trkpt lat="43.53588" lon="1.27556">
        <ele>174.4</ele>
        <time>2024-07-30T06:42:26Z</time>
      </trkpt>
      <trkpt lat="43.53586" lon="1.27562">
        <ele>174.4</ele>
        <time>2024-07-30T06:42:27Z</time>
      </trkpt>
      <trkpt lat="43.53584" lon="1.27569">
        <ele>174.6</ele>
        <time>2024-07-30T06:42:28Z</time>
      </trkpt>
      <trkpt lat="43.53582" lon="1.27576">
        <ele>174.6</ele>
        <time>2024-07-30T06:42:29Z</time>
      </trkpt>
      <trkpt lat="43.53579" lon="1.27582">
        <ele>174.8</ele>
        <time>2024-07-30T06:42:30Z</time>
      </trkpt>
      <trkpt lat="43.53577" lon="1.27589">
        <ele>174.8</ele>
        <time>2024-07-30T06:42:31Z</time>
      </trkpt>
      <trkpt lat="43.53576" lon="1.27596">
        <ele>174.8</ele>
        <time>2024-07-30T06:42:32Z</time>
      </trkpt>
      <trkpt lat="43.53574" lon="1.27603">
        <ele>174.8</ele>
        <time>2024-07-30T06:42:33Z</time>
      </trkpt>
      <trkpt lat="43.53572" lon="1.2761">
        <ele>174.8</ele>
        <time>2024-07-30T06:42:34Z</time>
      </trkpt>
      <trkpt lat="43.5357" lon="1.27617">
        <ele>175</ele>
        <time>2024-07-30T06:42:35Z</time>
      </trkpt>
      <trkpt lat="43.53568" lon="1.27624">
        <ele>175</ele>
        <time>2024-07-30T06:42:36Z</time>
      </trkpt>
      <trkpt lat="43.53566" lon="1.2763">
        <ele>175</ele>
        <time>2024-07-30T06:42:37Z</time>
      </trkpt>
      <trkpt lat="43.53564" lon="1.27637">
        <ele>175</ele>
        <time>2024-07-30T06:42:38Z</time>
      </trkpt>
      <trkpt lat="43.53562" lon="1.27644">
        <ele>175</ele>
        <time>2024-07-30T06:42:39Z</time>
      </trkpt>
      <trkpt lat="43.5356" lon="1.2765">
        <ele>175</ele>
        <time>2024-07-30T06:42:40Z</time>
      </trkpt>
      <trkpt lat="43.53559" lon="1.27656">
        <ele>175</ele>
        <time>2024-07-30T06:42:41Z</time>
      </trkpt>
      <trkpt lat="43.53557" lon="1.27662">
        <ele>175</ele>
        <time>2024-07-30T06:42:42Z</time>
      </trkpt>
      <trkpt lat="43.53555" lon="1.27668">
        <ele>175</ele>
        <time>2024-07-30T06:42:43Z</time>
      </trkpt>
      <trkpt lat="43.53553" lon="1.27675">
        <ele>175</ele>
        <time>2024-07-30T06:42:44Z</time>
      </trkpt>
      <trkpt lat="43.53551" lon="1.27681">
        <ele>175</ele>
        <time>2024-07-30T06:42:45Z</time>
      </trkpt>
      <trkpt lat="43.53549" lon="1.27688">
        <ele>174.8</ele>
        <time>2024-07-30T06:42:46Z</time>
      </trkpt>
      <trkpt lat="43.53547" lon="1.27694">
        <ele>174.8</ele>
        <time>2024-07-30T06:42:47Z</time>
      </trkpt>
      <trkpt lat="43.53545" lon="1.277">
        <ele>174.8</ele>
        <time>2024-07-30T06:42:48Z</time>
      </trkpt>
      <trkpt lat="43.53543" lon="1.27706">
        <ele>174.8</ele>
        <time>2024-07-30T06:42:49Z</time>
      </trkpt>
      <trkpt lat="43.53541" lon="1.27712">
        <ele>174.8</ele>
        <time>2024-07-30T06:42:50Z</time>
      </trkpt>
      <trkpt lat="43.53539" lon="1.27717">
        <ele>174.8</ele>
        <time>2024-07-30T06:42:51Z</time>
      </trkpt>
      <trkpt lat="43.53537" lon="1.27722">
        <ele>174.8</ele>
        <time>2024-07-30T06:42:52Z</time>
      </trkpt>
      <trkpt lat="43.53535" lon="1.27726">
        <ele>174.8</ele>
        <time>2024-07-30T06:42:53Z</time>
      </trkpt>
      <trkpt lat="43.53534" lon="1.27729">
        <ele>174.8</ele>
        <time>2024-07-30T06:42:54Z</time>
      </trkpt>
      <trkpt lat="43.53532" lon="1.27732">
        <ele>174.8</ele>
        <time>2024-07-30T06:42:55Z</time>
      </trkpt>
      <trkpt lat="43.5353" lon="1.27734">
        <ele>174.8</ele>
        <time>2024-07-30T06:42:56Z</time>
      </trkpt>
      <trkpt lat="43.53527" lon="1.27735">
        <ele>174.8</ele>
        <time>2024-07-30T06:42:57Z</time>
      </trkpt>
      <trkpt lat="43.53525" lon="1.27737">
        <ele>174.8</ele>
        <time>2024-07-30T06:42:58Z</time>
      </trkpt>
      <trkpt lat="43.53522" lon="1.27738">
        <ele>174.8</ele>
        <time>2024-07-30T06:42:59Z</time>
      </trkpt>
      <trkpt lat="43.53519" lon="1.27737">
        <ele>174.8</ele>
        <time>2024-07-30T06:43:00Z</time>
      </trkpt>
      <trkpt lat="43.53516" lon="1.27736">
        <ele>174.8</ele>
        <time>2024-07-30T06:43:01Z</time>
      </trkpt>
      <trkpt lat="43.53513" lon="1.27733">
        <ele>175</ele>
        <time>2024-07-30T06:43:02Z</time>
      </trkpt>
      <trkpt lat="43.5351" lon="1.27729">
        <ele>175</ele>
        <time>2024-07-30T06:43:03Z</time>
      </trkpt>
      <trkpt lat="43.53506" lon="1.27725">
        <ele>175</ele>
        <time>2024-07-30T06:43:04Z</time>
      </trkpt>
      <trkpt lat="43.53503" lon="1.27721">
        <ele>175.2</ele>
        <time>2024-07-30T06:43:05Z</time>
      </trkpt>
      <trkpt lat="43.53498" lon="1.27717">
        <ele>175.2</ele>
        <time>2024-07-30T06:43:06Z</time>
      </trkpt>
      <trkpt lat="43.53494" lon="1.27712">
        <ele>175.2</ele>
        <time>2024-07-30T06:43:07Z</time>
      </trkpt>
      <trkpt lat="43.53489" lon="1.27708">
        <ele>175.2</ele>
        <time>2024-07-30T06:43:08Z</time>
      </trkpt>
      <trkpt lat="43.53485" lon="1.27703">
        <ele>175.2</ele>
        <time>2024-07-30T06:43:09Z</time>
      </trkpt>
      <trkpt lat="43.5348" lon="1.27699">
        <ele>175.2</ele>
        <time>2024-07-30T06:43:10Z</time>
      </trkpt>
      <trkpt lat="43.53474" lon="1.27694">
        <ele>175.2</ele>
        <time>2024-07-30T06:43:11Z</time>
      </trkpt>
      <trkpt lat="43.53469" lon="1.2769">
        <ele>175.2</ele>
        <time>2024-07-30T06:43:12Z</time>
      </trkpt>
      <trkpt lat="43.53464" lon="1.27686">
        <ele>175.2</ele>
        <time>2024-07-30T06:43:13Z</time>
      </trkpt>
      <trkpt lat="43.53458" lon="1.27682">
        <ele>175.2</ele>
        <time>2024-07-30T06:43:14Z</time>
      </trkpt>
      <trkpt lat="43.53452" lon="1.27678">
        <ele>175.2</ele>
        <time>2024-07-30T06:43:15Z</time>
      </trkpt>
      <trkpt lat="43.53447" lon="1.27674">
        <ele>175.2</ele>
        <time>2024-07-30T06:43:16Z</time>
      </trkpt>
      <trkpt lat="43.53441" lon="1.2767">
        <ele>175.2</ele>
        <time>2024-07-30T06:43:17Z</time>
      </trkpt>
      <trkpt lat="43.53435" lon="1.27666">
        <ele>175.2</ele>
        <time>2024-07-30T06:43:18Z</time>
      </trkpt>
      <trkpt lat="43.53429" lon="1.27663">
        <ele>175.2</ele>
        <time>2024-07-30T06:43:19Z</time>
      </trkpt>
      <trkpt lat="43.53424" lon="1.27659">
        <ele>175.2</ele>
        <time>2024-07-30T06:43:20Z</time>
      </trkpt>
      <trkpt lat="43.53418" lon="1.27655">
        <ele>175.2</ele>
        <time>2024-07-30T06:43:21Z</time>
      </trkpt>
      <trkpt lat="43.53412" lon="1.27651">
        <ele>175.4</ele>
        <time>2024-07-30T06:43:22Z</time>
      </trkpt>
      <trkpt lat="43.53406" lon="1.27647">
        <ele>175.4</ele>
        <time>2024-07-30T06:43:23Z</time>
      </trkpt>
      <trkpt lat="43.534" lon="1.27644">
        <ele>175.4</ele>
        <time>2024-07-30T06:43:24Z</time>
      </trkpt>
      <trkpt lat="43.53394" lon="1.2764">
        <ele>175.4</ele>
        <time>2024-07-30T06:43:25Z</time>
      </trkpt>
      <trkpt lat="43.53388" lon="1.27636">
        <ele>175.4</ele>
        <time>2024-07-30T06:43:26Z</time>
      </trkpt>
      <trkpt lat="43.53382" lon="1.27632">
        <ele>175.4</ele>
        <time>2024-07-30T06:43:27Z</time>
      </trkpt>
      <trkpt lat="43.53376" lon="1.27627">
        <ele>175.4</ele>
        <time>2024-07-30T06:43:28Z</time>
      </trkpt>
      <trkpt lat="43.53371" lon="1.27623">
        <ele>175.4</ele>
        <time>2024-07-30T06:43:29Z</time>
      </trkpt>
      <trkpt lat="43.53365" lon="1.27619">
        <ele>175.4</ele>
        <time>2024-07-30T06:43:30Z</time>
      </trkpt>
      <trkpt lat="43.53359" lon="1.27614">
        <ele>175.4</ele>
        <time>2024-07-30T06:43:31Z</time>
      </trkpt>
      <trkpt lat="43.53354" lon="1.2761">
        <ele>175.4</ele>
        <time>2024-07-30T06:43:32Z</time>
      </trkpt>
      <trkpt lat="43.53348" lon="1.27605">
        <ele>175.4</ele>
        <time>2024-07-30T06:43:33Z</time>
      </trkpt>
      <trkpt lat="43.53343" lon="1.276">
        <ele>175.4</ele>
        <time>2024-07-30T06:43:34Z</time>
      </trkpt>
      <trkpt lat="43.53337" lon="1.27595">
        <ele>175.6</ele>
        <time>2024-07-30T06:43:35Z</time>
      </trkpt>
      <trkpt lat="43.53332" lon="1.2759">
        <ele>175.6</ele>
        <time>2024-07-30T06:43:36Z</time>
      </trkpt>
      <trkpt lat="43.53327" lon="1.27585">
        <ele>175.6</ele>
        <time>2024-07-30T06:43:37Z</time>
      </trkpt>
      <trkpt lat="43.53322" lon="1.2758">
        <ele>175.6</ele>
        <time>2024-07-30T06:43:38Z</time>
      </trkpt>
      <trkpt lat="43.53317" lon="1.27575">
        <ele>175.6</ele>
        <time>2024-07-30T06:43:39Z</time>
      </trkpt>
      <trkpt lat="43.53312" lon="1.2757">
        <ele>175.8</ele>
        <time>2024-07-30T06:43:40Z</time>
      </trkpt>
      <trkpt lat="43.53307" lon="1.27565">
        <ele>175.8</ele>
        <time>2024-07-30T06:43:41Z</time>
      </trkpt>
      <trkpt lat="43.53302" lon="1.2756">
        <ele>175.8</ele>
        <time>2024-07-30T06:43:42Z</time>
      </trkpt>
      <trkpt lat="43.53297" lon="1.27555">
        <ele>175.8</ele>
        <time>2024-07-30T06:43:43Z</time>
      </trkpt>
      <trkpt lat="43.53293" lon="1.2755">
        <ele>175.8</ele>
        <time>2024-07-30T06:43:44Z</time>
      </trkpt>
      <trkpt lat="43.53289" lon="1.27545">
        <ele>175.8</ele>
        <time>2024-07-30T06:43:45Z</time>
      </trkpt>
      <trkpt lat="43.53284" lon="1.2754">
        <ele>175.8</ele>
        <time>2024-07-30T06:43:46Z</time>
      </trkpt>
      <trkpt lat="43.5328" lon="1.27534">
        <ele>176</ele>
        <time>2024-07-30T06:43:47Z</time>
      </trkpt>
      <trkpt lat="43.53276" lon="1.27529">
        <ele>176</ele>
        <time>2024-07-30T06:43:48Z</time>
      </trkpt>
      <trkpt lat="43.53272" lon="1.27523">
        <ele>176</ele>
        <time>2024-07-30T06:43:49Z</time>
      </trkpt>
      <trkpt lat="43.53268" lon="1.27518">
        <ele>176</ele>
        <time>2024-07-30T06:43:50Z</time>
      </trkpt>
      <trkpt lat="43.53264" lon="1.27512">
        <ele>176</ele>
        <time>2024-07-30T06:43:51Z</time>
      </trkpt>
      <trkpt lat="43.5326" lon="1.27507">
        <ele>176</ele>
        <time>2024-07-30T06:43:52Z</time>
      </trkpt>
      <trkpt lat="43.53256" lon="1.27501">
        <ele>176</ele>
        <time>2024-07-30T06:43:53Z</time>
      </trkpt>
      <trkpt lat="43.53252" lon="1.27495">
        <ele>176</ele>
        <time>2024-07-30T06:43:54Z</time>
      </trkpt>
      <trkpt lat="43.53248" lon="1.27489">
        <ele>176</ele>
        <time>2024-07-30T06:43:55Z</time>
      </trkpt>
      <trkpt lat="43.53243" lon="1.27483">
        <ele>176</ele>
        <time>2024-07-30T06:43:56Z</time>
      </trkpt>
      <trkpt lat="43.53239" lon="1.27477">
        <ele>176</ele>
        <time>2024-07-30T06:43:57Z</time>
      </trkpt>
      <trkpt lat="43.53235" lon="1.27471">
        <ele>176</ele>
        <time>2024-07-30T06:43:58Z</time>
      </trkpt>
      <trkpt lat="43.53231" lon="1.27465">
        <ele>176</ele>
        <time>2024-07-30T06:43:59Z</time>
      </trkpt>
      <trkpt lat="43.53226" lon="1.27459">
        <ele>176</ele>
        <time>2024-07-30T06:44:00Z</time>
      </trkpt>
      <trkpt lat="43.53222" lon="1.27453">
        <ele>176</ele>
        <time>2024-07-30T06:44:01Z</time>
      </trkpt>
      <trkpt lat="43.53218" lon="1.27448">
        <ele>176</ele>
        <time>2024-07-30T06:44:02Z</time>
      </trkpt>
      <trkpt lat="43.53214" lon="1.27442">
        <ele>176</ele>
        <time>2024-07-30T06:44:03Z</time>
      </trkpt>
      <trkpt lat="43.5321" lon="1.27436">
        <ele>176</ele>
        <time>2024-07-30T06:44:04Z</time>
      </trkpt>
      <trkpt lat="43.53206" lon="1.2743">
        <ele>176</ele>
        <time>2024-07-30T06:44:05Z</time>
      </trkpt>
      <trkpt lat="43.53202" lon="1.27424">
        <ele>176</ele>
        <time>2024-07-30T06:44:06Z</time>
      </trkpt>
      <trkpt lat="43.53197" lon="1.27418">
        <ele>176</ele>
        <time>2024-07-30T06:44:07Z</time>
      </trkpt>
      <trkpt lat="43.53193" lon="1.27412">
        <ele>176</ele>
        <time>2024-07-30T06:44:08Z</time>
      </trkpt>
      <trkpt lat="43.53189" lon="1.27406">
        <ele>176.2</ele>
        <time>2024-07-30T06:44:09Z</time>
      </trkpt>
      <trkpt lat="43.53185" lon="1.274">
        <ele>176.2</ele>
        <time>2024-07-30T06:44:10Z</time>
      </trkpt>
      <trkpt lat="43.5318" lon="1.27394">
        <ele>176.2</ele>
        <time>2024-07-30T06:44:11Z</time>
      </trkpt>
      <trkpt lat="43.53176" lon="1.27388">
        <ele>176.2</ele>
        <time>2024-07-30T06:44:12Z</time>
      </trkpt>
      <trkpt lat="43.53172" lon="1.27382">
        <ele>176.2</ele>
        <time>2024-07-30T06:44:13Z</time>
      </trkpt>
      <trkpt lat="43.53168" lon="1.27376">
        <ele>176.2</ele>
        <time>2024-07-30T06:44:14Z</time>
      </trkpt>
      <trkpt lat="43.53164" lon="1.2737">
        <ele>176.2</ele>
        <time>2024-07-30T06:44:15Z</time>
      </trkpt>
      <trkpt lat="43.5316" lon="1.27364">
        <ele>176.4</ele>
        <time>2024-07-30T06:44:16Z</time>
      </trkpt>
      <trkpt lat="43.53155" lon="1.27358">
        <ele>176.4</ele>
        <time>2024-07-30T06:44:17Z</time>
      </trkpt>
      <trkpt lat="43.53151" lon="1.27351">
        <ele>176.4</ele>
        <time>2024-07-30T06:44:18Z</time>
      </trkpt>
      <trkpt lat="43.53147" lon="1.27345">
        <ele>176.4</ele>
        <time>2024-07-30T06:44:19Z</time>
      </trkpt>
      <trkpt lat="43.53143" lon="1.27339">
        <ele>176.4</ele>
        <time>2024-07-30T06:44:20Z</time>
      </trkpt>
      <trkpt lat="43.53139" lon="1.27333">
        <ele>176.2</ele>
        <time>2024-07-30T06:44:21Z</time>
      </trkpt>
      <trkpt lat="43.53135" lon="1.27327">
        <ele>176.2</ele>
        <time>2024-07-30T06:44:22Z</time>
      </trkpt>
      <trkpt lat="43.53131" lon="1.27321">
        <ele>176.2</ele>
        <time>2024-07-30T06:44:23Z</time>
      </trkpt>
      <trkpt lat="43.53127" lon="1.27315">
        <ele>176.2</ele>
        <time>2024-07-30T06:44:24Z</time>
      </trkpt>
      <trkpt lat="43.53123" lon="1.27308">
        <ele>176.2</ele>
        <time>2024-07-30T06:44:25Z</time>
      </trkpt>
      <trkpt lat="43.53119" lon="1.27302">
        <ele>176.2</ele>
        <time>2024-07-30T06:44:26Z</time>
      </trkpt>
      <trkpt lat="43.53115" lon="1.27295">
        <ele>176.2</ele>
        <time>2024-07-30T06:44:27Z</time>
      </trkpt>
      <trkpt lat="43.53111" lon="1.27289">
        <ele>176.2</ele>
        <time>2024-07-30T06:44:28Z</time>
      </trkpt>
      <trkpt lat="43.53107" lon="1.27283">
        <ele>176.2</ele>
        <time>2024-07-30T06:44:29Z</time>
      </trkpt>
      <trkpt lat="43.53103" lon="1.27276">
        <ele>176.2</ele>
        <time>2024-07-30T06:44:30Z</time>
      </trkpt>
      <trkpt lat="43.53099" lon="1.2727">
        <ele>176.2</ele>
        <time>2024-07-30T06:44:31Z</time>
      </trkpt>
      <trkpt lat="43.53095" lon="1.27265">
        <ele>176.2</ele>
        <time>2024-07-30T06:44:32Z</time>
      </trkpt>
      <trkpt lat="43.53091" lon="1.27259">
        <ele>176.2</ele>
        <time>2024-07-30T06:44:33Z</time>
      </trkpt>
      <trkpt lat="43.53087" lon="1.27254">
        <ele>176.2</ele>
        <time>2024-07-30T06:44:34Z</time>
      </trkpt>
      <trkpt lat="43.53083" lon="1.27248">
        <ele>176.2</ele>
        <time>2024-07-30T06:44:35Z</time>
      </trkpt>
      <trkpt lat="43.5308" lon="1.27242">
        <ele>176.4</ele>
        <time>2024-07-30T06:44:36Z</time>
      </trkpt>
      <trkpt lat="43.53076" lon="1.27237">
        <ele>176.4</ele>
        <time>2024-07-30T06:44:37Z</time>
      </trkpt>
      <trkpt lat="43.53071" lon="1.27231">
        <ele>176.4</ele>
        <time>2024-07-30T06:44:38Z</time>
      </trkpt>
      <trkpt lat="43.53067" lon="1.27226">
        <ele>176.2</ele>
        <time>2024-07-30T06:44:39Z</time>
      </trkpt>
      <trkpt lat="43.53063" lon="1.27221">
        <ele>176.4</ele>
        <time>2024-07-30T06:44:40Z</time>
      </trkpt>
      <trkpt lat="43.53059" lon="1.27216">
        <ele>176.4</ele>
        <time>2024-07-30T06:44:41Z</time>
      </trkpt>
      <trkpt lat="43.53055" lon="1.27211">
        <ele>176.4</ele>
        <time>2024-07-30T06:44:42Z</time>
      </trkpt>
      <trkpt lat="43.53051" lon="1.27206">
        <ele>176.2</ele>
        <time>2024-07-30T06:44:43Z</time>
      </trkpt>
      <trkpt lat="43.53046" lon="1.272">
        <ele>176.4</ele>
        <time>2024-07-30T06:44:44Z</time>
      </trkpt>
      <trkpt lat="43.53042" lon="1.27195">
        <ele>176.4</ele>
        <time>2024-07-30T06:44:45Z</time>
      </trkpt>
      <trkpt lat="43.53037" lon="1.2719">
        <ele>176.4</ele>
        <time>2024-07-30T06:44:46Z</time>
      </trkpt>
      <trkpt lat="43.53037" lon="1.2719">
        <ele>176.4</ele>
        <time>2024-07-30T06:44:47Z</time>
      </trkpt>
      <trkpt lat="43.53027" lon="1.2718">
        <ele>176.2</ele>
        <time>2024-07-30T06:44:48Z</time>
      </trkpt>
      <trkpt lat="43.53022" lon="1.27174">
        <ele>176.2</ele>
        <time>2024-07-30T06:44:49Z</time>
      </trkpt>
      <trkpt lat="43.53017" lon="1.27169">
        <ele>176.2</ele>
        <time>2024-07-30T06:44:50Z</time>
      </trkpt>
      <trkpt lat="43.53012" lon="1.27164">
        <ele>176.2</ele>
        <time>2024-07-30T06:44:51Z</time>
      </trkpt>
      <trkpt lat="43.53007" lon="1.27159">
        <ele>176.2</ele>
        <time>2024-07-30T06:44:52Z</time>
      </trkpt>
      <trkpt lat="43.53002" lon="1.27154">
        <ele>176.2</ele>
        <time>2024-07-30T06:44:53Z</time>
      </trkpt>
      <trkpt lat="43.52998" lon="1.2715">
        <ele>176</ele>
        <time>2024-07-30T06:44:54Z</time>
      </trkpt>
      <trkpt lat="43.52993" lon="1.27144">
        <ele>176</ele>
        <time>2024-07-30T06:44:55Z</time>
      </trkpt>
      <trkpt lat="43.52988" lon="1.27139">
        <ele>176.2</ele>
        <time>2024-07-30T06:44:56Z</time>
      </trkpt>
      <trkpt lat="43.52983" lon="1.27134">
        <ele>175.8</ele>
        <time>2024-07-30T06:44:57Z</time>
      </trkpt>
      <trkpt lat="43.52979" lon="1.27129">
        <ele>175.8</ele>
        <time>2024-07-30T06:44:58Z</time>
      </trkpt>
      <trkpt lat="43.52974" lon="1.27123">
        <ele>175.8</ele>
        <time>2024-07-30T06:44:59Z</time>
      </trkpt>
      <trkpt lat="43.5297" lon="1.27118">
        <ele>176</ele>
        <time>2024-07-30T06:45:00Z</time>
      </trkpt>
      <trkpt lat="43.52965" lon="1.27113">
        <ele>176</ele>
        <time>2024-07-30T06:45:01Z</time>
      </trkpt>
      <trkpt lat="43.5296" lon="1.27107">
        <ele>176</ele>
        <time>2024-07-30T06:45:02Z</time>
      </trkpt>
      <trkpt lat="43.52956" lon="1.27102">
        <ele>176</ele>
        <time>2024-07-30T06:45:03Z</time>
      </trkpt>
      <trkpt lat="43.52951" lon="1.27096">
        <ele>176</ele>
        <time>2024-07-30T06:45:04Z</time>
      </trkpt>
      <trkpt lat="43.52946" lon="1.2709">
        <ele>176</ele>
        <time>2024-07-30T06:45:05Z</time>
      </trkpt>
      <trkpt lat="43.52942" lon="1.27085">
        <ele>176</ele>
        <time>2024-07-30T06:45:06Z</time>
      </trkpt>
      <trkpt lat="43.52937" lon="1.27079">
        <ele>176</ele>
        <time>2024-07-30T06:45:07Z</time>
      </trkpt>
      <trkpt lat="43.52933" lon="1.27073">
        <ele>176</ele>
        <time>2024-07-30T06:45:08Z</time>
      </trkpt>
      <trkpt lat="43.52929" lon="1.27067">
        <ele>176</ele>
        <time>2024-07-30T06:45:09Z</time>
      </trkpt>
      <trkpt lat="43.52924" lon="1.27062">
        <ele>176</ele>
        <time>2024-07-30T06:45:10Z</time>
      </trkpt>
      <trkpt lat="43.5292" lon="1.27056">
        <ele>176</ele>
        <time>2024-07-30T06:45:11Z</time>
      </trkpt>
      <trkpt lat="43.52916" lon="1.2705">
        <ele>176</ele>
        <time>2024-07-30T06:45:12Z</time>
      </trkpt>
      <trkpt lat="43.52911" lon="1.27044">
        <ele>176</ele>
        <time>2024-07-30T06:45:13Z</time>
      </trkpt>
      <trkpt lat="43.52907" lon="1.27038">
        <ele>176</ele>
        <time>2024-07-30T06:45:14Z</time>
      </trkpt>
      <trkpt lat="43.52903" lon="1.27032">
        <ele>176</ele>
        <time>2024-07-30T06:45:15Z</time>
      </trkpt>
      <trkpt lat="43.52899" lon="1.27026">
        <ele>176.2</ele>
        <time>2024-07-30T06:45:16Z</time>
      </trkpt>
      <trkpt lat="43.52895" lon="1.2702">
        <ele>176.2</ele>
        <time>2024-07-30T06:45:17Z</time>
      </trkpt>
      <trkpt lat="43.52891" lon="1.27014">
        <ele>176.4</ele>
        <time>2024-07-30T06:45:18Z</time>
      </trkpt>
      <trkpt lat="43.52887" lon="1.27008">
        <ele>176.6</ele>
        <time>2024-07-30T06:45:19Z</time>
      </trkpt>
      <trkpt lat="43.52883" lon="1.27002">
        <ele>176.4</ele>
        <time>2024-07-30T06:45:20Z</time>
      </trkpt>
      <trkpt lat="43.52879" lon="1.26996">
        <ele>176.4</ele>
        <time>2024-07-30T06:45:21Z</time>
      </trkpt>
      <trkpt lat="43.52875" lon="1.2699">
        <ele>176.4</ele>
        <time>2024-07-30T06:45:22Z</time>
      </trkpt>
      <trkpt lat="43.52871" lon="1.26984">
        <ele>176.2</ele>
        <time>2024-07-30T06:45:23Z</time>
      </trkpt>
      <trkpt lat="43.52867" lon="1.26978">
        <ele>176.2</ele>
        <time>2024-07-30T06:45:24Z</time>
      </trkpt>
      <trkpt lat="43.52863" lon="1.26973">
        <ele>176.2</ele>
        <time>2024-07-30T06:45:25Z</time>
      </trkpt>
      <trkpt lat="43.52859" lon="1.26967">
        <ele>176.2</ele>
        <time>2024-07-30T06:45:26Z</time>
      </trkpt>
      <trkpt lat="43.52856" lon="1.26961">
        <ele>176.2</ele>
        <time>2024-07-30T06:45:27Z</time>
      </trkpt>
      <trkpt lat="43.52852" lon="1.26955">
        <ele>176.2</ele>
        <time>2024-07-30T06:45:28Z</time>
      </trkpt>
      <trkpt lat="43.52848" lon="1.26949">
        <ele>176.2</ele>
        <time>2024-07-30T06:45:29Z</time>
      </trkpt>
      <trkpt lat="43.52844" lon="1.26943">
        <ele>176.2</ele>
        <time>2024-07-30T06:45:30Z</time>
      </trkpt>
      <trkpt lat="43.52839" lon="1.26937">
        <ele>176.2</ele>
        <time>2024-07-30T06:45:31Z</time>
      </trkpt>
      <trkpt lat="43.52835" lon="1.26931">
        <ele>176</ele>
        <time>2024-07-30T06:45:32Z</time>
      </trkpt>
      <trkpt lat="43.52831" lon="1.26924">
        <ele>176</ele>
        <time>2024-07-30T06:45:33Z</time>
      </trkpt>
      <trkpt lat="43.52831" lon="1.26924">
        <ele>176</ele>
        <time>2024-07-30T06:45:34Z</time>
      </trkpt>
      <trkpt lat="43.52823" lon="1.26912">
        <ele>176</ele>
        <time>2024-07-30T06:45:35Z</time>
      </trkpt>
      <trkpt lat="43.52819" lon="1.26905">
        <ele>176</ele>
        <time>2024-07-30T06:45:36Z</time>
      </trkpt>
      <trkpt lat="43.52814" lon="1.26899">
        <ele>176</ele>
        <time>2024-07-30T06:45:37Z</time>
      </trkpt>
      <trkpt lat="43.5281" lon="1.26892">
        <ele>176</ele>
        <time>2024-07-30T06:45:38Z</time>
      </trkpt>
      <trkpt lat="43.52806" lon="1.26886">
        <ele>176</ele>
        <time>2024-07-30T06:45:39Z</time>
      </trkpt>
      <trkpt lat="43.52802" lon="1.2688">
        <ele>176</ele>
        <time>2024-07-30T06:45:40Z</time>
      </trkpt>
      <trkpt lat="43.52798" lon="1.26874">
        <ele>176</ele>
        <time>2024-07-30T06:45:41Z</time>
      </trkpt>
      <trkpt lat="43.52794" lon="1.26868">
        <ele>176</ele>
        <time>2024-07-30T06:45:42Z</time>
      </trkpt>
      <trkpt lat="43.5279" lon="1.26862">
        <ele>176</ele>
        <time>2024-07-30T06:45:43Z</time>
      </trkpt>
      <trkpt lat="43.52786" lon="1.26856">
        <ele>176</ele>
        <time>2024-07-30T06:45:44Z</time>
      </trkpt>
      <trkpt lat="43.52782" lon="1.2685">
        <ele>176</ele>
        <time>2024-07-30T06:45:45Z</time>
      </trkpt>
      <trkpt lat="43.52777" lon="1.26844">
        <ele>176</ele>
        <time>2024-07-30T06:45:46Z</time>
      </trkpt>
      <trkpt lat="43.52773" lon="1.26838">
        <ele>176</ele>
        <time>2024-07-30T06:45:47Z</time>
      </trkpt>
      <trkpt lat="43.52768" lon="1.26832">
        <ele>176</ele>
        <time>2024-07-30T06:45:48Z</time>
      </trkpt>
      <trkpt lat="43.52763" lon="1.26826">
        <ele>176</ele>
        <time>2024-07-30T06:45:49Z</time>
      </trkpt>
      <trkpt lat="43.52759" lon="1.26821">
        <ele>176</ele>
        <time>2024-07-30T06:45:50Z</time>
      </trkpt>
      <trkpt lat="43.52753" lon="1.26816">
        <ele>176</ele>
        <time>2024-07-30T06:45:51Z</time>
      </trkpt>
      <trkpt lat="43.52748" lon="1.26811">
        <ele>176</ele>
        <time>2024-07-30T06:45:52Z</time>
      </trkpt>
      <trkpt lat="43.52743" lon="1.26806">
        <ele>176</ele>
        <time>2024-07-30T06:45:53Z</time>
      </trkpt>
      <trkpt lat="43.52737" lon="1.26802">
        <ele>176</ele>
        <time>2024-07-30T06:45:54Z</time>
      </trkpt>
      <trkpt lat="43.52732" lon="1.26799">
        <ele>176</ele>
        <time>2024-07-30T06:45:55Z</time>
      </trkpt>
      <trkpt lat="43.52726" lon="1.26795">
        <ele>176</ele>
        <time>2024-07-30T06:45:56Z</time>
      </trkpt>
      <trkpt lat="43.5272" lon="1.26792">
        <ele>176</ele>
        <time>2024-07-30T06:45:57Z</time>
      </trkpt>
      <trkpt lat="43.52715" lon="1.26788">
        <ele>176</ele>
        <time>2024-07-30T06:45:58Z</time>
      </trkpt>
      <trkpt lat="43.52709" lon="1.26785">
        <ele>176</ele>
        <time>2024-07-30T06:45:59Z</time>
      </trkpt>
      <trkpt lat="43.52704" lon="1.26782">
        <ele>176</ele>
        <time>2024-07-30T06:46:00Z</time>
      </trkpt>
      <trkpt lat="43.52698" lon="1.26779">
        <ele>176</ele>
        <time>2024-07-30T06:46:01Z</time>
      </trkpt>
      <trkpt lat="43.52692" lon="1.26776">
        <ele>176</ele>
        <time>2024-07-30T06:46:02Z</time>
      </trkpt>
      <trkpt lat="43.52687" lon="1.26773">
        <ele>175.8</ele>
        <time>2024-07-30T06:46:03Z</time>
      </trkpt>
      <trkpt lat="43.52681" lon="1.2677">
        <ele>175.8</ele>
        <time>2024-07-30T06:46:04Z</time>
      </trkpt>
      <trkpt lat="43.52676" lon="1.26766">
        <ele>175.8</ele>
        <time>2024-07-30T06:46:05Z</time>
      </trkpt>
      <trkpt lat="43.52671" lon="1.26763">
        <ele>175.8</ele>
        <time>2024-07-30T06:46:06Z</time>
      </trkpt>
      <trkpt lat="43.52665" lon="1.2676">
        <ele>175.8</ele>
        <time>2024-07-30T06:46:07Z</time>
      </trkpt>
      <trkpt lat="43.5266" lon="1.26757">
        <ele>175.8</ele>
        <time>2024-07-30T06:46:08Z</time>
      </trkpt>
      <trkpt lat="43.52654" lon="1.26753">
        <ele>175.8</ele>
        <time>2024-07-30T06:46:09Z</time>
      </trkpt>
      <trkpt lat="43.52649" lon="1.2675">
        <ele>175.8</ele>
        <time>2024-07-30T06:46:10Z</time>
      </trkpt>
      <trkpt lat="43.52643" lon="1.26747">
        <ele>175.8</ele>
        <time>2024-07-30T06:46:11Z</time>
      </trkpt>
      <trkpt lat="43.52637" lon="1.26743">
        <ele>175.8</ele>
        <time>2024-07-30T06:46:12Z</time>
      </trkpt>
      <trkpt lat="43.52632" lon="1.2674">
        <ele>175.8</ele>
        <time>2024-07-30T06:46:13Z</time>
      </trkpt>
      <trkpt lat="43.52626" lon="1.26737">
        <ele>175.8</ele>
        <time>2024-07-30T06:46:14Z</time>
      </trkpt>
      <trkpt lat="43.52621" lon="1.26734">
        <ele>175.8</ele>
        <time>2024-07-30T06:46:15Z</time>
      </trkpt>
      <trkpt lat="43.52615" lon="1.2673">
        <ele>175.8</ele>
        <time>2024-07-30T06:46:16Z</time>
      </trkpt>
      <trkpt lat="43.5261" lon="1.26727">
        <ele>175.8</ele>
        <time>2024-07-30T06:46:17Z</time>
      </trkpt>
      <trkpt lat="43.52606" lon="1.26724">
        <ele>175.8</ele>
        <time>2024-07-30T06:46:18Z</time>
      </trkpt>
      <trkpt lat="43.52601" lon="1.26721">
        <ele>175.8</ele>
        <time>2024-07-30T06:46:19Z</time>
      </trkpt>
      <trkpt lat="43.52596" lon="1.26719">
        <ele>175.6</ele>
        <time>2024-07-30T06:46:20Z</time>
      </trkpt>
      <trkpt lat="43.52591" lon="1.26716">
        <ele>175.6</ele>
        <time>2024-07-30T06:46:21Z</time>
      </trkpt>
      <trkpt lat="43.52587" lon="1.26713">
        <ele>175.6</ele>
        <time>2024-07-30T06:46:22Z</time>
      </trkpt>
      <trkpt lat="43.52583" lon="1.26711">
        <ele>175.6</ele>
        <time>2024-07-30T06:46:23Z</time>
      </trkpt>
      <trkpt lat="43.52579" lon="1.26708">
        <ele>175.6</ele>
        <time>2024-07-30T06:46:24Z</time>
      </trkpt>
      <trkpt lat="43.52576" lon="1.26706">
        <ele>175.6</ele>
        <time>2024-07-30T06:46:25Z</time>
      </trkpt>
      <trkpt lat="43.52573" lon="1.26704">
        <ele>175.6</ele>
        <time>2024-07-30T06:46:26Z</time>
      </trkpt>
      <trkpt lat="43.52571" lon="1.26702">
        <ele>175.6</ele>
        <time>2024-07-30T06:46:27Z</time>
      </trkpt>
      <trkpt lat="43.52569" lon="1.26701">
        <ele>175.6</ele>
        <time>2024-07-30T06:46:28Z</time>
      </trkpt>
      <trkpt lat="43.52568" lon="1.267">
        <ele>175.6</ele>
        <time>2024-07-30T06:46:29Z</time>
      </trkpt>
      <trkpt lat="43.52567" lon="1.267">
        <ele>175.6</ele>
        <time>2024-07-30T06:46:30Z</time>
      </trkpt>
      <trkpt lat="43.52566" lon="1.26699">
        <ele>175.6</ele>
        <time>2024-07-30T06:46:31Z</time>
      </trkpt>
      <trkpt lat="43.52565" lon="1.26699">
        <ele>175.6</ele>
        <time>2024-07-30T06:46:32Z</time>
      </trkpt>
      <trkpt lat="43.52564" lon="1.26698">
        <ele>175.6</ele>
        <time>2024-07-30T06:46:33Z</time>
      </trkpt>
      <trkpt lat="43.52563" lon="1.26697">
        <ele>175.6</ele>
        <time>2024-07-30T06:46:34Z</time>
      </trkpt>
      <trkpt lat="43.52562" lon="1.26696">
        <ele>175.6</ele>
        <time>2024-07-30T06:46:35Z</time>
      </trkpt>
      <trkpt lat="43.52562" lon="1.26696">
        <ele>175.6</ele>
        <time>2024-07-30T06:46:36Z</time>
      </trkpt>
      <trkpt lat="43.52562" lon="1.26696">
        <ele>175.6</ele>
        <time>2024-07-30T06:46:37Z</time>
      </trkpt>
      <trkpt lat="43.52562" lon="1.26696">
        <ele>175.6</ele>
        <time>2024-07-30T06:46:38Z</time>
      </trkpt>
      <trkpt lat="43.52562" lon="1.26696">
        <ele>175.4</ele>
        <time>2024-07-30T06:46:39Z</time>
      </trkpt>
      <trkpt lat="43.5256" lon="1.26694">
        <ele>175</ele>
        <time>2024-07-30T06:46:58Z</time>
      </trkpt>
      <trkpt lat="43.52558" lon="1.26692">
        <ele>175</ele>
        <time>2024-07-30T06:46:59Z</time>
      </trkpt>
      <trkpt lat="43.52556" lon="1.2669">
        <ele>175</ele>
        <time>2024-07-30T06:47:00Z</time>
      </trkpt>
      <trkpt lat="43.52553" lon="1.26688">
        <ele>175</ele>
        <time>2024-07-30T06:47:01Z</time>
      </trkpt>
      <trkpt lat="43.5255" lon="1.26686">
        <ele>175</ele>
        <time>2024-07-30T06:47:02Z</time>
      </trkpt>
      <trkpt lat="43.52547" lon="1.26683">
        <ele>175</ele>
        <time>2024-07-30T06:47:03Z</time>
      </trkpt>
      <trkpt lat="43.52544" lon="1.26681">
        <ele>175</ele>
        <time>2024-07-30T06:47:04Z</time>
      </trkpt>
      <trkpt lat="43.52541" lon="1.26679">
        <ele>175</ele>
        <time>2024-07-30T06:47:05Z</time>
      </trkpt>
      <trkpt lat="43.52538" lon="1.26677">
        <ele>175</ele>
        <time>2024-07-30T06:47:06Z</time>
      </trkpt>
      <trkpt lat="43.52533" lon="1.26676">
        <ele>175</ele>
        <time>2024-07-30T06:47:07Z</time>
      </trkpt>
      <trkpt lat="43.52529" lon="1.26675">
        <ele>175</ele>
        <time>2024-07-30T06:47:08Z</time>
      </trkpt>
      <trkpt lat="43.52524" lon="1.26673">
        <ele>175</ele>
        <time>2024-07-30T06:47:09Z</time>
      </trkpt>
      <trkpt lat="43.52519" lon="1.26672">
        <ele>175</ele>
        <time>2024-07-30T06:47:10Z</time>
      </trkpt>
      <trkpt lat="43.52514" lon="1.2667">
        <ele>175</ele>
        <time>2024-07-30T06:47:11Z</time>
      </trkpt>
      <trkpt lat="43.52509" lon="1.26667">
        <ele>175</ele>
        <time>2024-07-30T06:47:12Z</time>
      </trkpt>
      <trkpt lat="43.52504" lon="1.26665">
        <ele>175</ele>
        <time>2024-07-30T06:47:13Z</time>
      </trkpt>
      <trkpt lat="43.52499" lon="1.26662">
        <ele>175</ele>
        <time>2024-07-30T06:47:14Z</time>
      </trkpt>
      <trkpt lat="43.52494" lon="1.26659">
        <ele>175</ele>
        <time>2024-07-30T06:47:15Z</time>
      </trkpt>
      <trkpt lat="43.52488" lon="1.26655">
        <ele>175</ele>
        <time>2024-07-30T06:47:16Z</time>
      </trkpt>
      <trkpt lat="43.52483" lon="1.26652">
        <ele>175</ele>
        <time>2024-07-30T06:47:17Z</time>
      </trkpt>
      <trkpt lat="43.52478" lon="1.26649">
        <ele>175</ele>
        <time>2024-07-30T06:47:18Z</time>
      </trkpt>
      <trkpt lat="43.52472" lon="1.26646">
        <ele>175</ele>
        <time>2024-07-30T06:47:19Z</time>
      </trkpt>
      <trkpt lat="43.52467" lon="1.26643">
        <ele>175</ele>
        <time>2024-07-30T06:47:20Z</time>
      </trkpt>
      <trkpt lat="43.52462" lon="1.2664">
        <ele>175</ele>
        <time>2024-07-30T06:47:21Z</time>
      </trkpt>
      <trkpt lat="43.52456" lon="1.26636">
        <ele>175</ele>
        <time>2024-07-30T06:47:22Z</time>
      </trkpt>
      <trkpt lat="43.52451" lon="1.26633">
        <ele>175</ele>
        <time>2024-07-30T06:47:23Z</time>
      </trkpt>
      <trkpt lat="43.52445" lon="1.2663">
        <ele>175</ele>
        <time>2024-07-30T06:47:24Z</time>
      </trkpt>
      <trkpt lat="43.5244" lon="1.26626">
        <ele>175</ele>
        <time>2024-07-30T06:47:25Z</time>
      </trkpt>
      <trkpt lat="43.52434" lon="1.26623">
        <ele>175</ele>
        <time>2024-07-30T06:47:26Z</time>
      </trkpt>
      <trkpt lat="43.52429" lon="1.2662">
        <ele>175</ele>
        <time>2024-07-30T06:47:27Z</time>
      </trkpt>
      <trkpt lat="43.52423" lon="1.26616">
        <ele>175</ele>
        <time>2024-07-30T06:47:28Z</time>
      </trkpt>
      <trkpt lat="43.52418" lon="1.26613">
        <ele>175</ele>
        <time>2024-07-30T06:47:29Z</time>
      </trkpt>
      <trkpt lat="43.52412" lon="1.2661">
        <ele>175</ele>
        <time>2024-07-30T06:47:30Z</time>
      </trkpt>
      <trkpt lat="43.52406" lon="1.26606">
        <ele>175.2</ele>
        <time>2024-07-30T06:47:31Z</time>
      </trkpt>
      <trkpt lat="43.52401" lon="1.26602">
        <ele>175.2</ele>
        <time>2024-07-30T06:47:32Z</time>
      </trkpt>
      <trkpt lat="43.52395" lon="1.26599">
        <ele>175.2</ele>
        <time>2024-07-30T06:47:33Z</time>
      </trkpt>
      <trkpt lat="43.5239" lon="1.26596">
        <ele>175.2</ele>
        <time>2024-07-30T06:47:34Z</time>
      </trkpt>
      <trkpt lat="43.52384" lon="1.26592">
        <ele>175.2</ele>
        <time>2024-07-30T06:47:35Z</time>
      </trkpt>
      <trkpt lat="43.52378" lon="1.26588">
        <ele>175.2</ele>
        <time>2024-07-30T06:47:36Z</time>
      </trkpt>
      <trkpt lat="43.52372" lon="1.26585">
        <ele>175.4</ele>
        <time>2024-07-30T06:47:37Z</time>
      </trkpt>
      <trkpt lat="43.52366" lon="1.26581">
        <ele>175.4</ele>
        <time>2024-07-30T06:47:38Z</time>
      </trkpt>
      <trkpt lat="43.52361" lon="1.26578">
        <ele>175.4</ele>
        <time>2024-07-30T06:47:39Z</time>
      </trkpt>
      <trkpt lat="43.52356" lon="1.26575">
        <ele>175.4</ele>
        <time>2024-07-30T06:47:40Z</time>
      </trkpt>
      <trkpt lat="43.52351" lon="1.26572">
        <ele>175.4</ele>
        <time>2024-07-30T06:47:41Z</time>
      </trkpt>
      <trkpt lat="43.52345" lon="1.26569">
        <ele>175.4</ele>
        <time>2024-07-30T06:47:42Z</time>
      </trkpt>
      <trkpt lat="43.52338" lon="1.26565">
        <ele>175.4</ele>
        <time>2024-07-30T06:47:43Z</time>
      </trkpt>
      <trkpt lat="43.52334" lon="1.26562">
        <ele>175.4</ele>
        <time>2024-07-30T06:47:44Z</time>
      </trkpt>
      <trkpt lat="43.52328" lon="1.26558">
        <ele>175.2</ele>
        <time>2024-07-30T06:47:45Z</time>
      </trkpt>
      <trkpt lat="43.52322" lon="1.26555">
        <ele>175.4</ele>
        <time>2024-07-30T06:47:46Z</time>
      </trkpt>
      <trkpt lat="43.52316" lon="1.26551">
        <ele>175.4</ele>
        <time>2024-07-30T06:47:47Z</time>
      </trkpt>
      <trkpt lat="43.52309" lon="1.26547">
        <ele>175.2</ele>
        <time>2024-07-30T06:47:48Z</time>
      </trkpt>
      <trkpt lat="43.52304" lon="1.26544">
        <ele>175.4</ele>
        <time>2024-07-30T06:47:49Z</time>
      </trkpt>
      <trkpt lat="43.52298" lon="1.26541">
        <ele>175.2</ele>
        <time>2024-07-30T06:47:50Z</time>
      </trkpt>
      <trkpt lat="43.5229" lon="1.26537">
        <ele>175.4</ele>
        <time>2024-07-30T06:47:51Z</time>
      </trkpt>
      <trkpt lat="43.52284" lon="1.26534">
        <ele>175.4</ele>
        <time>2024-07-30T06:47:52Z</time>
      </trkpt>
      <trkpt lat="43.52279" lon="1.2653">
        <ele>175.4</ele>
        <time>2024-07-30T06:47:53Z</time>
      </trkpt>
      <trkpt lat="43.52274" lon="1.26528">
        <ele>175</ele>
        <time>2024-07-30T06:47:54Z</time>
      </trkpt>
      <trkpt lat="43.52268" lon="1.26524">
        <ele>175.2</ele>
        <time>2024-07-30T06:47:55Z</time>
      </trkpt>
      <trkpt lat="43.52261" lon="1.2652">
        <ele>175.2</ele>
        <time>2024-07-30T06:47:56Z</time>
      </trkpt>
      <trkpt lat="43.52254" lon="1.26517">
        <ele>175.2</ele>
        <time>2024-07-30T06:47:57Z</time>
      </trkpt>
      <trkpt lat="43.52248" lon="1.26513">
        <ele>175.2</ele>
        <time>2024-07-30T06:47:58Z</time>
      </trkpt>
      <trkpt lat="43.52243" lon="1.2651">
        <ele>175.2</ele>
        <time>2024-07-30T06:47:59Z</time>
      </trkpt>
      <trkpt lat="43.52237" lon="1.26506">
        <ele>175.2</ele>
        <time>2024-07-30T06:48:00Z</time>
      </trkpt>
      <trkpt lat="43.52231" lon="1.26503">
        <ele>175.2</ele>
        <time>2024-07-30T06:48:01Z</time>
      </trkpt>
      <trkpt lat="43.52224" lon="1.26499">
        <ele>175.2</ele>
        <time>2024-07-30T06:48:02Z</time>
      </trkpt>
      <trkpt lat="43.52219" lon="1.26497">
        <ele>175.2</ele>
        <time>2024-07-30T06:48:03Z</time>
      </trkpt>
      <trkpt lat="43.52212" lon="1.26494">
        <ele>175.2</ele>
        <time>2024-07-30T06:48:04Z</time>
      </trkpt>
      <trkpt lat="43.52206" lon="1.26491">
        <ele>175.2</ele>
        <time>2024-07-30T06:48:05Z</time>
      </trkpt>
      <trkpt lat="43.52199" lon="1.26487">
        <ele>175.2</ele>
        <time>2024-07-30T06:48:06Z</time>
      </trkpt>
      <trkpt lat="43.52192" lon="1.26484">
        <ele>175.2</ele>
        <time>2024-07-30T06:48:07Z</time>
      </trkpt>
      <trkpt lat="43.52187" lon="1.26481">
        <ele>175.2</ele>
        <time>2024-07-30T06:48:08Z</time>
      </trkpt>
      <trkpt lat="43.5218" lon="1.26478">
        <ele>175.2</ele>
        <time>2024-07-30T06:48:09Z</time>
      </trkpt>
      <trkpt lat="43.52173" lon="1.26475">
        <ele>175.2</ele>
        <time>2024-07-30T06:48:10Z</time>
      </trkpt>
      <trkpt lat="43.52167" lon="1.26472">
        <ele>175.2</ele>
        <time>2024-07-30T06:48:11Z</time>
      </trkpt>
      <trkpt lat="43.52162" lon="1.2647">
        <ele>175</ele>
        <time>2024-07-30T06:48:12Z</time>
      </trkpt>
      <trkpt lat="43.52156" lon="1.26467">
        <ele>175</ele>
        <time>2024-07-30T06:48:13Z</time>
      </trkpt>
      <trkpt lat="43.52149" lon="1.26464">
        <ele>175</ele>
        <time>2024-07-30T06:48:14Z</time>
      </trkpt>
      <trkpt lat="43.52142" lon="1.2646">
        <ele>175.2</ele>
        <time>2024-07-30T06:48:15Z</time>
      </trkpt>
      <trkpt lat="43.52136" lon="1.26457">
        <ele>175.2</ele>
        <time>2024-07-30T06:48:16Z</time>
      </trkpt>
      <trkpt lat="43.52131" lon="1.26454">
        <ele>175.2</ele>
        <time>2024-07-30T06:48:17Z</time>
      </trkpt>
      <trkpt lat="43.52125" lon="1.26451">
        <ele>175.2</ele>
        <time>2024-07-30T06:48:18Z</time>
      </trkpt>
      <trkpt lat="43.52119" lon="1.26448">
        <ele>175.2</ele>
        <time>2024-07-30T06:48:19Z</time>
      </trkpt>
      <trkpt lat="43.52113" lon="1.26444">
        <ele>175.4</ele>
        <time>2024-07-30T06:48:20Z</time>
      </trkpt>
      <trkpt lat="43.52106" lon="1.2644">
        <ele>175.4</ele>
        <time>2024-07-30T06:48:21Z</time>
      </trkpt>
      <trkpt lat="43.52102" lon="1.26437">
        <ele>175.4</ele>
        <time>2024-07-30T06:48:22Z</time>
      </trkpt>
      <trkpt lat="43.52096" lon="1.26433">
        <ele>175.4</ele>
        <time>2024-07-30T06:48:23Z</time>
      </trkpt>
      <trkpt lat="43.52089" lon="1.26429">
        <ele>175.4</ele>
        <time>2024-07-30T06:48:24Z</time>
      </trkpt>
      <trkpt lat="43.52084" lon="1.26425">
        <ele>175.4</ele>
        <time>2024-07-30T06:48:25Z</time>
      </trkpt>
      <trkpt lat="43.52078" lon="1.26421">
        <ele>175.4</ele>
        <time>2024-07-30T06:48:26Z</time>
      </trkpt>
      <trkpt lat="43.52073" lon="1.26418">
        <ele>175.6</ele>
        <time>2024-07-30T06:48:27Z</time>
      </trkpt>
      <trkpt lat="43.52068" lon="1.26414">
        <ele>175.6</ele>
        <time>2024-07-30T06:48:28Z</time>
      </trkpt>
      <trkpt lat="43.52061" lon="1.2641">
        <ele>175.6</ele>
        <time>2024-07-30T06:48:29Z</time>
      </trkpt>
      <trkpt lat="43.52055" lon="1.26406">
        <ele>175.6</ele>
        <time>2024-07-30T06:48:30Z</time>
      </trkpt>
      <trkpt lat="43.52049" lon="1.26402">
        <ele>175.6</ele>
        <time>2024-07-30T06:48:31Z</time>
      </trkpt>
      <trkpt lat="43.52045" lon="1.26398">
        <ele>175.6</ele>
        <time>2024-07-30T06:48:32Z</time>
      </trkpt>
      <trkpt lat="43.52039" lon="1.26394">
        <ele>175.6</ele>
        <time>2024-07-30T06:48:33Z</time>
      </trkpt>
      <trkpt lat="43.52033" lon="1.2639">
        <ele>175.6</ele>
        <time>2024-07-30T06:48:34Z</time>
      </trkpt>
      <trkpt lat="43.52027" lon="1.26386">
        <ele>175.6</ele>
        <time>2024-07-30T06:48:35Z</time>
      </trkpt>
      <trkpt lat="43.5202" lon="1.26381">
        <ele>175.6</ele>
        <time>2024-07-30T06:48:36Z</time>
      </trkpt>
      <trkpt lat="43.52015" lon="1.26378">
        <ele>175.6</ele>
        <time>2024-07-30T06:48:37Z</time>
      </trkpt>
      <trkpt lat="43.52009" lon="1.26374">
        <ele>175.6</ele>
        <time>2024-07-30T06:48:38Z</time>
      </trkpt>
      <trkpt lat="43.52003" lon="1.26371">
        <ele>175.6</ele>
        <time>2024-07-30T06:48:39Z</time>
      </trkpt>
      <trkpt lat="43.51996" lon="1.26367">
        <ele>175.8</ele>
        <time>2024-07-30T06:48:40Z</time>
      </trkpt>
      <trkpt lat="43.5199" lon="1.26363">
        <ele>175.8</ele>
        <time>2024-07-30T06:48:41Z</time>
      </trkpt>
      <trkpt lat="43.51985" lon="1.2636">
        <ele>175.8</ele>
        <time>2024-07-30T06:48:42Z</time>
      </trkpt>
      <trkpt lat="43.51979" lon="1.26357">
        <ele>175.8</ele>
        <time>2024-07-30T06:48:43Z</time>
      </trkpt>
      <trkpt lat="43.51973" lon="1.26353">
        <ele>175.8</ele>
        <time>2024-07-30T06:48:44Z</time>
      </trkpt>
      <trkpt lat="43.51966" lon="1.2635">
        <ele>175.8</ele>
        <time>2024-07-30T06:48:45Z</time>
      </trkpt>
      <trkpt lat="43.5196" lon="1.26348">
        <ele>175.8</ele>
        <time>2024-07-30T06:48:46Z</time>
      </trkpt>
      <trkpt lat="43.51954" lon="1.26345">
        <ele>175.8</ele>
        <time>2024-07-30T06:48:47Z</time>
      </trkpt>
      <trkpt lat="43.51947" lon="1.26342">
        <ele>175.8</ele>
        <time>2024-07-30T06:48:48Z</time>
      </trkpt>
      <trkpt lat="43.51941" lon="1.2634">
        <ele>175.8</ele>
        <time>2024-07-30T06:48:49Z</time>
      </trkpt>
      <trkpt lat="43.51935" lon="1.26337">
        <ele>175.8</ele>
        <time>2024-07-30T06:48:50Z</time>
      </trkpt>
      <trkpt lat="43.5193" lon="1.26335">
        <ele>175.8</ele>
        <time>2024-07-30T06:48:51Z</time>
      </trkpt>
      <trkpt lat="43.51925" lon="1.26333">
        <ele>175.8</ele>
        <time>2024-07-30T06:48:52Z</time>
      </trkpt>
      <trkpt lat="43.51918" lon="1.2633">
        <ele>175.8</ele>
        <time>2024-07-30T06:48:53Z</time>
      </trkpt>
      <trkpt lat="43.51913" lon="1.26328">
        <ele>175.8</ele>
        <time>2024-07-30T06:48:54Z</time>
      </trkpt>
      <trkpt lat="43.51907" lon="1.26325">
        <ele>175.8</ele>
        <time>2024-07-30T06:48:55Z</time>
      </trkpt>
      <trkpt lat="43.51901" lon="1.26322">
        <ele>175.8</ele>
        <time>2024-07-30T06:48:56Z</time>
      </trkpt>
      <trkpt lat="43.51895" lon="1.26319">
        <ele>176</ele>
        <time>2024-07-30T06:48:57Z</time>
      </trkpt>
      <trkpt lat="43.51889" lon="1.26317">
        <ele>176</ele>
        <time>2024-07-30T06:48:58Z</time>
      </trkpt>
      <trkpt lat="43.51883" lon="1.26315">
        <ele>176</ele>
        <time>2024-07-30T06:48:59Z</time>
      </trkpt>
      <trkpt lat="43.51877" lon="1.26312">
        <ele>176</ele>
        <time>2024-07-30T06:49:00Z</time>
      </trkpt>
      <trkpt lat="43.5187" lon="1.26309">
        <ele>176</ele>
        <time>2024-07-30T06:49:01Z</time>
      </trkpt>
      <trkpt lat="43.51864" lon="1.26307">
        <ele>176</ele>
        <time>2024-07-30T06:49:02Z</time>
      </trkpt>
      <trkpt lat="43.51858" lon="1.26304">
        <ele>176.2</ele>
        <time>2024-07-30T06:49:03Z</time>
      </trkpt>
      <trkpt lat="43.51852" lon="1.26302">
        <ele>176.2</ele>
        <time>2024-07-30T06:49:04Z</time>
      </trkpt>
      <trkpt lat="43.51846" lon="1.26299">
        <ele>176.2</ele>
        <time>2024-07-30T06:49:05Z</time>
      </trkpt>
      <trkpt lat="43.5184" lon="1.26296">
        <ele>176.2</ele>
        <time>2024-07-30T06:49:06Z</time>
      </trkpt>
      <trkpt lat="43.51834" lon="1.26294">
        <ele>176.2</ele>
        <time>2024-07-30T06:49:07Z</time>
      </trkpt>
      <trkpt lat="43.51828" lon="1.26291">
        <ele>176.4</ele>
        <time>2024-07-30T06:49:08Z</time>
      </trkpt>
      <trkpt lat="43.51821" lon="1.26286">
        <ele>176.4</ele>
        <time>2024-07-30T06:49:09Z</time>
      </trkpt>
      <trkpt lat="43.51816" lon="1.26282">
        <ele>176.4</ele>
        <time>2024-07-30T06:49:10Z</time>
      </trkpt>
      <trkpt lat="43.5181" lon="1.26278">
        <ele>176.4</ele>
        <time>2024-07-30T06:49:11Z</time>
      </trkpt>
      <trkpt lat="43.51805" lon="1.26273">
        <ele>176.4</ele>
        <time>2024-07-30T06:49:12Z</time>
      </trkpt>
      <trkpt lat="43.518" lon="1.26268">
        <ele>176.4</ele>
        <time>2024-07-30T06:49:13Z</time>
      </trkpt>
      <trkpt lat="43.51794" lon="1.26262">
        <ele>176.4</ele>
        <time>2024-07-30T06:49:14Z</time>
      </trkpt>
      <trkpt lat="43.51788" lon="1.26256">
        <ele>176.4</ele>
        <time>2024-07-30T06:49:15Z</time>
      </trkpt>
      <trkpt lat="43.51784" lon="1.26251">
        <ele>176.4</ele>
        <time>2024-07-30T06:49:16Z</time>
      </trkpt>
      <trkpt lat="43.51779" lon="1.26246">
        <ele>176.4</ele>
        <time>2024-07-30T06:49:17Z</time>
      </trkpt>
      <trkpt lat="43.51773" lon="1.26239">
        <ele>176.4</ele>
        <time>2024-07-30T06:49:18Z</time>
      </trkpt>
      <trkpt lat="43.51769" lon="1.26235">
        <ele>176.4</ele>
        <time>2024-07-30T06:49:19Z</time>
      </trkpt>
      <trkpt lat="43.51763" lon="1.26228">
        <ele>176.4</ele>
        <time>2024-07-30T06:49:20Z</time>
      </trkpt>
      <trkpt lat="43.51759" lon="1.26223">
        <ele>176.4</ele>
        <time>2024-07-30T06:49:21Z</time>
      </trkpt>
      <trkpt lat="43.51754" lon="1.26218">
        <ele>176.4</ele>
        <time>2024-07-30T06:49:22Z</time>
      </trkpt>
      <trkpt lat="43.51749" lon="1.26212">
        <ele>176.4</ele>
        <time>2024-07-30T06:49:23Z</time>
      </trkpt>
      <trkpt lat="43.51743" lon="1.26206">
        <ele>176.4</ele>
        <time>2024-07-30T06:49:24Z</time>
      </trkpt>
      <trkpt lat="43.51739" lon="1.26201">
        <ele>176.4</ele>
        <time>2024-07-30T06:49:25Z</time>
      </trkpt>
      <trkpt lat="43.51735" lon="1.26196">
        <ele>176.4</ele>
        <time>2024-07-30T06:49:26Z</time>
      </trkpt>
      <trkpt lat="43.5173" lon="1.2619">
        <ele>176.6</ele>
        <time>2024-07-30T06:49:27Z</time>
      </trkpt>
      <trkpt lat="43.51726" lon="1.26185">
        <ele>176.6</ele>
        <time>2024-07-30T06:49:28Z</time>
      </trkpt>
      <trkpt lat="43.51721" lon="1.2618">
        <ele>176.6</ele>
        <time>2024-07-30T06:49:29Z</time>
      </trkpt>
      <trkpt lat="43.51715" lon="1.26173">
        <ele>176.6</ele>
        <time>2024-07-30T06:49:30Z</time>
      </trkpt>
      <trkpt lat="43.51712" lon="1.26169">
        <ele>176.8</ele>
        <time>2024-07-30T06:49:31Z</time>
      </trkpt>
      <trkpt lat="43.51707" lon="1.26164">
        <ele>176.8</ele>
        <time>2024-07-30T06:49:32Z</time>
      </trkpt>
      <trkpt lat="43.51702" lon="1.26159">
        <ele>176.8</ele>
        <time>2024-07-30T06:49:33Z</time>
      </trkpt>
      <trkpt lat="43.51697" lon="1.26152">
        <ele>176.8</ele>
        <time>2024-07-30T06:49:34Z</time>
      </trkpt>
      <trkpt lat="43.51693" lon="1.26148">
        <ele>176.8</ele>
        <time>2024-07-30T06:49:35Z</time>
      </trkpt>
      <trkpt lat="43.51688" lon="1.26142">
        <ele>176.8</ele>
        <time>2024-07-30T06:49:36Z</time>
      </trkpt>
      <trkpt lat="43.51683" lon="1.26137">
        <ele>176.8</ele>
        <time>2024-07-30T06:49:37Z</time>
      </trkpt>
      <trkpt lat="43.51678" lon="1.26131">
        <ele>177</ele>
        <time>2024-07-30T06:49:38Z</time>
      </trkpt>
      <trkpt lat="43.51674" lon="1.26125">
        <ele>177</ele>
        <time>2024-07-30T06:49:39Z</time>
      </trkpt>
      <trkpt lat="43.51669" lon="1.26119">
        <ele>177.2</ele>
        <time>2024-07-30T06:49:40Z</time>
      </trkpt>
      <trkpt lat="43.51664" lon="1.26113">
        <ele>177.2</ele>
        <time>2024-07-30T06:49:41Z</time>
      </trkpt>
      <trkpt lat="43.51659" lon="1.26107">
        <ele>177.2</ele>
        <time>2024-07-30T06:49:42Z</time>
      </trkpt>
      <trkpt lat="43.51654" lon="1.26102">
        <ele>177.2</ele>
        <time>2024-07-30T06:49:43Z</time>
      </trkpt>
      <trkpt lat="43.51648" lon="1.26095">
        <ele>177.4</ele>
        <time>2024-07-30T06:49:44Z</time>
      </trkpt>
      <trkpt lat="43.51644" lon="1.2609">
        <ele>177.4</ele>
        <time>2024-07-30T06:49:45Z</time>
      </trkpt>
      <trkpt lat="43.51639" lon="1.26084">
        <ele>177.4</ele>
        <time>2024-07-30T06:49:46Z</time>
      </trkpt>
      <trkpt lat="43.51633" lon="1.26077">
        <ele>177.4</ele>
        <time>2024-07-30T06:49:47Z</time>
      </trkpt>
      <trkpt lat="43.51628" lon="1.26071">
        <ele>177.4</ele>
        <time>2024-07-30T06:49:48Z</time>
      </trkpt>
      <trkpt lat="43.51624" lon="1.26066">
        <ele>177.4</ele>
        <time>2024-07-30T06:49:49Z</time>
      </trkpt>
      <trkpt lat="43.51619" lon="1.2606">
        <ele>177.4</ele>
        <time>2024-07-30T06:49:50Z</time>
      </trkpt>
      <trkpt lat="43.51614" lon="1.26055">
        <ele>177.4</ele>
        <time>2024-07-30T06:49:51Z</time>
      </trkpt>
      <trkpt lat="43.51609" lon="1.26049">
        <ele>177.4</ele>
        <time>2024-07-30T06:49:52Z</time>
      </trkpt>
      <trkpt lat="43.51603" lon="1.26041">
        <ele>177.4</ele>
        <time>2024-07-30T06:49:53Z</time>
      </trkpt>
      <trkpt lat="43.51598" lon="1.26035">
        <ele>177.4</ele>
        <time>2024-07-30T06:49:54Z</time>
      </trkpt>
      <trkpt lat="43.51594" lon="1.2603">
        <ele>177.4</ele>
        <time>2024-07-30T06:49:55Z</time>
      </trkpt>
      <trkpt lat="43.51589" lon="1.26024">
        <ele>177.4</ele>
        <time>2024-07-30T06:49:56Z</time>
      </trkpt>
      <trkpt lat="43.51584" lon="1.26018">
        <ele>177.4</ele>
        <time>2024-07-30T06:49:57Z</time>
      </trkpt>
      <trkpt lat="43.51578" lon="1.26012">
        <ele>177.4</ele>
        <time>2024-07-30T06:49:58Z</time>
      </trkpt>
      <trkpt lat="43.51573" lon="1.26005">
        <ele>177.4</ele>
        <time>2024-07-30T06:49:59Z</time>
      </trkpt>
      <trkpt lat="43.51568" lon="1.25998">
        <ele>177.2</ele>
        <time>2024-07-30T06:50:00Z</time>
      </trkpt>
      <trkpt lat="43.51564" lon="1.25992">
        <ele>177.2</ele>
        <time>2024-07-30T06:50:01Z</time>
      </trkpt>
      <trkpt lat="43.51559" lon="1.25985">
        <ele>177.2</ele>
        <time>2024-07-30T06:50:02Z</time>
      </trkpt>
      <trkpt lat="43.51554" lon="1.25977">
        <ele>177.4</ele>
        <time>2024-07-30T06:50:03Z</time>
      </trkpt>
      <trkpt lat="43.5155" lon="1.25971">
        <ele>177.4</ele>
        <time>2024-07-30T06:50:04Z</time>
      </trkpt>
      <trkpt lat="43.51546" lon="1.25963">
        <ele>177.4</ele>
        <time>2024-07-30T06:50:05Z</time>
      </trkpt>
      <trkpt lat="43.51542" lon="1.25955">
        <ele>177.4</ele>
        <time>2024-07-30T06:50:06Z</time>
      </trkpt>
      <trkpt lat="43.51538" lon="1.25948">
        <ele>177.4</ele>
        <time>2024-07-30T06:50:07Z</time>
      </trkpt>
      <trkpt lat="43.51534" lon="1.25941">
        <ele>177.4</ele>
        <time>2024-07-30T06:50:08Z</time>
      </trkpt>
      <trkpt lat="43.51531" lon="1.25935">
        <ele>177.4</ele>
        <time>2024-07-30T06:50:09Z</time>
      </trkpt>
      <trkpt lat="43.51527" lon="1.25928">
        <ele>177.4</ele>
        <time>2024-07-30T06:50:10Z</time>
      </trkpt>
      <trkpt lat="43.51523" lon="1.25921">
        <ele>177.4</ele>
        <time>2024-07-30T06:50:11Z</time>
      </trkpt>
      <trkpt lat="43.51518" lon="1.25913">
        <ele>177.4</ele>
        <time>2024-07-30T06:50:12Z</time>
      </trkpt>
      <trkpt lat="43.51515" lon="1.25907">
        <ele>177.4</ele>
        <time>2024-07-30T06:50:13Z</time>
      </trkpt>
      <trkpt lat="43.51511" lon="1.259">
        <ele>177.4</ele>
        <time>2024-07-30T06:50:14Z</time>
      </trkpt>
      <trkpt lat="43.51506" lon="1.25891">
        <ele>177.4</ele>
        <time>2024-07-30T06:50:15Z</time>
      </trkpt>
      <trkpt lat="43.51502" lon="1.25884">
        <ele>177.4</ele>
        <time>2024-07-30T06:50:16Z</time>
      </trkpt>
      <trkpt lat="43.51499" lon="1.25878">
        <ele>177.6</ele>
        <time>2024-07-30T06:50:17Z</time>
      </trkpt>
      <trkpt lat="43.51495" lon="1.25871">
        <ele>177.6</ele>
        <time>2024-07-30T06:50:18Z</time>
      </trkpt>
      <trkpt lat="43.51491" lon="1.25863">
        <ele>177.6</ele>
        <time>2024-07-30T06:50:19Z</time>
      </trkpt>
      <trkpt lat="43.51487" lon="1.25856">
        <ele>177.6</ele>
        <time>2024-07-30T06:50:20Z</time>
      </trkpt>
      <trkpt lat="43.51482" lon="1.25848">
        <ele>177.6</ele>
        <time>2024-07-30T06:50:21Z</time>
      </trkpt>
      <trkpt lat="43.51478" lon="1.25841">
        <ele>177.6</ele>
        <time>2024-07-30T06:50:22Z</time>
      </trkpt>
      <trkpt lat="43.51474" lon="1.25833">
        <ele>177.6</ele>
        <time>2024-07-30T06:50:23Z</time>
      </trkpt>
      <trkpt lat="43.5147" lon="1.25826">
        <ele>177.6</ele>
        <time>2024-07-30T06:50:24Z</time>
      </trkpt>
      <trkpt lat="43.51466" lon="1.25818">
        <ele>177.6</ele>
        <time>2024-07-30T06:50:25Z</time>
      </trkpt>
      <trkpt lat="43.51462" lon="1.25811">
        <ele>177.6</ele>
        <time>2024-07-30T06:50:26Z</time>
      </trkpt>
      <trkpt lat="43.51457" lon="1.25802">
        <ele>177.6</ele>
        <time>2024-07-30T06:50:27Z</time>
      </trkpt>
      <trkpt lat="43.51454" lon="1.25796">
        <ele>177.6</ele>
        <time>2024-07-30T06:50:28Z</time>
      </trkpt>
      <trkpt lat="43.51449" lon="1.25789">
        <ele>177.6</ele>
        <time>2024-07-30T06:50:29Z</time>
      </trkpt>
      <trkpt lat="43.51446" lon="1.25781">
        <ele>177.6</ele>
        <time>2024-07-30T06:50:30Z</time>
      </trkpt>
      <trkpt lat="43.51441" lon="1.25774">
        <ele>177.6</ele>
        <time>2024-07-30T06:50:31Z</time>
      </trkpt>
      <trkpt lat="43.51437" lon="1.25765">
        <ele>177.6</ele>
        <time>2024-07-30T06:50:32Z</time>
      </trkpt>
      <trkpt lat="43.51433" lon="1.25759">
        <ele>177.6</ele>
        <time>2024-07-30T06:50:33Z</time>
      </trkpt>
      <trkpt lat="43.51429" lon="1.25752">
        <ele>177.6</ele>
        <time>2024-07-30T06:50:34Z</time>
      </trkpt>
      <trkpt lat="43.51425" lon="1.25744">
        <ele>177.6</ele>
        <time>2024-07-30T06:50:35Z</time>
      </trkpt>
      <trkpt lat="43.51421" lon="1.25736">
        <ele>177.8</ele>
        <time>2024-07-30T06:50:36Z</time>
      </trkpt>
      <trkpt lat="43.51418" lon="1.2573">
        <ele>177.8</ele>
        <time>2024-07-30T06:50:37Z</time>
      </trkpt>
      <trkpt lat="43.51413" lon="1.25723">
        <ele>177.8</ele>
        <time>2024-07-30T06:50:38Z</time>
      </trkpt>
      <trkpt lat="43.51409" lon="1.25715">
        <ele>177.8</ele>
        <time>2024-07-30T06:50:39Z</time>
      </trkpt>
      <trkpt lat="43.51405" lon="1.25708">
        <ele>177.8</ele>
        <time>2024-07-30T06:50:40Z</time>
      </trkpt>
      <trkpt lat="43.51401" lon="1.25701">
        <ele>177.8</ele>
        <time>2024-07-30T06:50:41Z</time>
      </trkpt>
      <trkpt lat="43.51397" lon="1.25694">
        <ele>177.8</ele>
        <time>2024-07-30T06:50:42Z</time>
      </trkpt>
      <trkpt lat="43.51393" lon="1.25687">
        <ele>178</ele>
        <time>2024-07-30T06:50:43Z</time>
      </trkpt>
      <trkpt lat="43.51389" lon="1.2568">
        <ele>178</ele>
        <time>2024-07-30T06:50:44Z</time>
      </trkpt>
      <trkpt lat="43.51384" lon="1.25672">
        <ele>178</ele>
        <time>2024-07-30T06:50:45Z</time>
      </trkpt>
      <trkpt lat="43.5138" lon="1.25665">
        <ele>178</ele>
        <time>2024-07-30T06:50:46Z</time>
      </trkpt>
      <trkpt lat="43.51377" lon="1.2566">
        <ele>178</ele>
        <time>2024-07-30T06:50:47Z</time>
      </trkpt>
      <trkpt lat="43.51373" lon="1.25653">
        <ele>178</ele>
        <time>2024-07-30T06:50:48Z</time>
      </trkpt>
      <trkpt lat="43.51368" lon="1.25646">
        <ele>178</ele>
        <time>2024-07-30T06:50:49Z</time>
      </trkpt>
      <trkpt lat="43.51364" lon="1.2564">
        <ele>178</ele>
        <time>2024-07-30T06:50:50Z</time>
      </trkpt>
      <trkpt lat="43.5136" lon="1.25634">
        <ele>178</ele>
        <time>2024-07-30T06:50:51Z</time>
      </trkpt>
      <trkpt lat="43.51355" lon="1.25627">
        <ele>178</ele>
        <time>2024-07-30T06:50:52Z</time>
      </trkpt>
      <trkpt lat="43.5135" lon="1.25621">
        <ele>178</ele>
        <time>2024-07-30T06:50:53Z</time>
      </trkpt>
      <trkpt lat="43.51345" lon="1.25614">
        <ele>178</ele>
        <time>2024-07-30T06:50:54Z</time>
      </trkpt>
      <trkpt lat="43.51341" lon="1.25608">
        <ele>178</ele>
        <time>2024-07-30T06:50:55Z</time>
      </trkpt>
      <trkpt lat="43.51336" lon="1.25602">
        <ele>178</ele>
        <time>2024-07-30T06:50:56Z</time>
      </trkpt>
      <trkpt lat="43.51332" lon="1.25595">
        <ele>178.2</ele>
        <time>2024-07-30T06:50:57Z</time>
      </trkpt>
      <trkpt lat="43.51327" lon="1.25589">
        <ele>178.2</ele>
        <time>2024-07-30T06:50:58Z</time>
      </trkpt>
      <trkpt lat="43.51322" lon="1.25583">
        <ele>178.2</ele>
        <time>2024-07-30T06:50:59Z</time>
      </trkpt>
      <trkpt lat="43.51318" lon="1.25577">
        <ele>178.2</ele>
        <time>2024-07-30T06:51:00Z</time>
      </trkpt>
      <trkpt lat="43.51313" lon="1.2557">
        <ele>178.2</ele>
        <time>2024-07-30T06:51:01Z</time>
      </trkpt>
      <trkpt lat="43.51309" lon="1.25564">
        <ele>178.2</ele>
        <time>2024-07-30T06:51:02Z</time>
      </trkpt>
      <trkpt lat="43.51304" lon="1.25559">
        <ele>178.2</ele>
        <time>2024-07-30T06:51:03Z</time>
      </trkpt>
      <trkpt lat="43.513" lon="1.25553">
        <ele>178.2</ele>
        <time>2024-07-30T06:51:04Z</time>
      </trkpt>
      <trkpt lat="43.51295" lon="1.25547">
        <ele>178.2</ele>
        <time>2024-07-30T06:51:05Z</time>
      </trkpt>
      <trkpt lat="43.5129" lon="1.25542">
        <ele>178.2</ele>
        <time>2024-07-30T06:51:06Z</time>
      </trkpt>
      <trkpt lat="43.51285" lon="1.25537">
        <ele>178.4</ele>
        <time>2024-07-30T06:51:07Z</time>
      </trkpt>
      <trkpt lat="43.5128" lon="1.25532">
        <ele>178.4</ele>
        <time>2024-07-30T06:51:08Z</time>
      </trkpt>
      <trkpt lat="43.51275" lon="1.25528">
        <ele>178.4</ele>
        <time>2024-07-30T06:51:09Z</time>
      </trkpt>
      <trkpt lat="43.51269" lon="1.25524">
        <ele>178.4</ele>
        <time>2024-07-30T06:51:10Z</time>
      </trkpt>
      <trkpt lat="43.51263" lon="1.2552">
        <ele>178.4</ele>
        <time>2024-07-30T06:51:11Z</time>
      </trkpt>
      <trkpt lat="43.51257" lon="1.25517">
        <ele>178.6</ele>
        <time>2024-07-30T06:51:12Z</time>
      </trkpt>
      <trkpt lat="43.51251" lon="1.25514">
        <ele>178.6</ele>
        <time>2024-07-30T06:51:13Z</time>
      </trkpt>
      <trkpt lat="43.51245" lon="1.25511">
        <ele>178.6</ele>
        <time>2024-07-30T06:51:14Z</time>
      </trkpt>
      <trkpt lat="43.51239" lon="1.25508">
        <ele>178.6</ele>
        <time>2024-07-30T06:51:15Z</time>
      </trkpt>
      <trkpt lat="43.51233" lon="1.25505">
        <ele>178.6</ele>
        <time>2024-07-30T06:51:16Z</time>
      </trkpt>
      <trkpt lat="43.51227" lon="1.25502">
        <ele>178.6</ele>
        <time>2024-07-30T06:51:17Z</time>
      </trkpt>
      <trkpt lat="43.51221" lon="1.25498">
        <ele>178.8</ele>
        <time>2024-07-30T06:51:18Z</time>
      </trkpt>
      <trkpt lat="43.51215" lon="1.25495">
        <ele>178.8</ele>
        <time>2024-07-30T06:51:19Z</time>
      </trkpt>
      <trkpt lat="43.51209" lon="1.25492">
        <ele>178.8</ele>
        <time>2024-07-30T06:51:20Z</time>
      </trkpt>
      <trkpt lat="43.51203" lon="1.25489">
        <ele>178.8</ele>
        <time>2024-07-30T06:51:21Z</time>
      </trkpt>
      <trkpt lat="43.51197" lon="1.25486">
        <ele>178.8</ele>
        <time>2024-07-30T06:51:22Z</time>
      </trkpt>
      <trkpt lat="43.51191" lon="1.25483">
        <ele>178.8</ele>
        <time>2024-07-30T06:51:23Z</time>
      </trkpt>
      <trkpt lat="43.51185" lon="1.2548">
        <ele>178.8</ele>
        <time>2024-07-30T06:51:24Z</time>
      </trkpt>
      <trkpt lat="43.51179" lon="1.25477">
        <ele>178.8</ele>
        <time>2024-07-30T06:51:25Z</time>
      </trkpt>
      <trkpt lat="43.51173" lon="1.25474">
        <ele>179</ele>
        <time>2024-07-30T06:51:26Z</time>
      </trkpt>
      <trkpt lat="43.51167" lon="1.25471">
        <ele>179</ele>
        <time>2024-07-30T06:51:27Z</time>
      </trkpt>
      <trkpt lat="43.51162" lon="1.25468">
        <ele>179</ele>
        <time>2024-07-30T06:51:28Z</time>
      </trkpt>
      <trkpt lat="43.51156" lon="1.25465">
        <ele>179</ele>
        <time>2024-07-30T06:51:29Z</time>
      </trkpt>
      <trkpt lat="43.5115" lon="1.25462">
        <ele>179</ele>
        <time>2024-07-30T06:51:30Z</time>
      </trkpt>
      <trkpt lat="43.51143" lon="1.25458">
        <ele>179</ele>
        <time>2024-07-30T06:51:31Z</time>
      </trkpt>
      <trkpt lat="43.51137" lon="1.25455">
        <ele>179</ele>
        <time>2024-07-30T06:51:32Z</time>
      </trkpt>
      <trkpt lat="43.51131" lon="1.25452">
        <ele>179</ele>
        <time>2024-07-30T06:51:33Z</time>
      </trkpt>
      <trkpt lat="43.51125" lon="1.25448">
        <ele>179</ele>
        <time>2024-07-30T06:51:34Z</time>
      </trkpt>
      <trkpt lat="43.51118" lon="1.25445">
        <ele>179</ele>
        <time>2024-07-30T06:51:35Z</time>
      </trkpt>
      <trkpt lat="43.51112" lon="1.25441">
        <ele>179</ele>
        <time>2024-07-30T06:51:36Z</time>
      </trkpt>
      <trkpt lat="43.51106" lon="1.25438">
        <ele>179</ele>
        <time>2024-07-30T06:51:37Z</time>
      </trkpt>
      <trkpt lat="43.511" lon="1.25435">
        <ele>179</ele>
        <time>2024-07-30T06:51:38Z</time>
      </trkpt>
      <trkpt lat="43.51094" lon="1.25432">
        <ele>179</ele>
        <time>2024-07-30T06:51:39Z</time>
      </trkpt>
      <trkpt lat="43.51089" lon="1.25429">
        <ele>179</ele>
        <time>2024-07-30T06:51:40Z</time>
      </trkpt>
      <trkpt lat="43.51083" lon="1.25425">
        <ele>179</ele>
        <time>2024-07-30T06:51:41Z</time>
      </trkpt>
      <trkpt lat="43.51077" lon="1.25422">
        <ele>179</ele>
        <time>2024-07-30T06:51:42Z</time>
      </trkpt>
      <trkpt lat="43.51071" lon="1.25419">
        <ele>179</ele>
        <time>2024-07-30T06:51:43Z</time>
      </trkpt>
      <trkpt lat="43.51066" lon="1.25415">
        <ele>179.2</ele>
        <time>2024-07-30T06:51:44Z</time>
      </trkpt>
      <trkpt lat="43.5106" lon="1.25412">
        <ele>179.2</ele>
        <time>2024-07-30T06:51:45Z</time>
      </trkpt>
      <trkpt lat="43.51054" lon="1.25409">
        <ele>179.2</ele>
        <time>2024-07-30T06:51:46Z</time>
      </trkpt>
      <trkpt lat="43.51049" lon="1.25405">
        <ele>179.2</ele>
        <time>2024-07-30T06:51:47Z</time>
      </trkpt>
      <trkpt lat="43.51043" lon="1.25402">
        <ele>179.4</ele>
        <time>2024-07-30T06:51:48Z</time>
      </trkpt>
      <trkpt lat="43.51037" lon="1.25399">
        <ele>179.4</ele>
        <time>2024-07-30T06:51:49Z</time>
      </trkpt>
      <trkpt lat="43.51031" lon="1.25395">
        <ele>179.4</ele>
        <time>2024-07-30T06:51:50Z</time>
      </trkpt>
      <trkpt lat="43.51026" lon="1.2539">
        <ele>179.6</ele>
        <time>2024-07-30T06:51:51Z</time>
      </trkpt>
      <trkpt lat="43.51021" lon="1.25384">
        <ele>179.6</ele>
        <time>2024-07-30T06:51:52Z</time>
      </trkpt>
      <trkpt lat="43.51016" lon="1.25378">
        <ele>179.6</ele>
        <time>2024-07-30T06:51:53Z</time>
      </trkpt>
      <trkpt lat="43.51013" lon="1.2537">
        <ele>179.6</ele>
        <time>2024-07-30T06:51:54Z</time>
      </trkpt>
      <trkpt lat="43.5101" lon="1.25362">
        <ele>179.6</ele>
        <time>2024-07-30T06:51:55Z</time>
      </trkpt>
      <trkpt lat="43.51007" lon="1.25353">
        <ele>179.6</ele>
        <time>2024-07-30T06:51:56Z</time>
      </trkpt>
      <trkpt lat="43.51005" lon="1.25345">
        <ele>179.8</ele>
        <time>2024-07-30T06:51:57Z</time>
      </trkpt>
      <trkpt lat="43.51003" lon="1.25336">
        <ele>179.8</ele>
        <time>2024-07-30T06:51:58Z</time>
      </trkpt>
      <trkpt lat="43.51001" lon="1.25327">
        <ele>180</ele>
        <time>2024-07-30T06:51:59Z</time>
      </trkpt>
      <trkpt lat="43.50999" lon="1.25319">
        <ele>180</ele>
        <time>2024-07-30T06:52:00Z</time>
      </trkpt>
      <trkpt lat="43.50997" lon="1.2531">
        <ele>180</ele>
        <time>2024-07-30T06:52:01Z</time>
      </trkpt>
      <trkpt lat="43.50995" lon="1.25301">
        <ele>180</ele>
        <time>2024-07-30T06:52:02Z</time>
      </trkpt>
      <trkpt lat="43.50992" lon="1.25292">
        <ele>180</ele>
        <time>2024-07-30T06:52:03Z</time>
      </trkpt>
      <trkpt lat="43.5099" lon="1.25283">
        <ele>180</ele>
        <time>2024-07-30T06:52:04Z</time>
      </trkpt>
      <trkpt lat="43.50988" lon="1.25274">
        <ele>180</ele>
        <time>2024-07-30T06:52:05Z</time>
      </trkpt>
      <trkpt lat="43.50986" lon="1.25265">
        <ele>180</ele>
        <time>2024-07-30T06:52:06Z</time>
      </trkpt>
      <trkpt lat="43.50984" lon="1.25256">
        <ele>180</ele>
        <time>2024-07-30T06:52:07Z</time>
      </trkpt>
      <trkpt lat="43.50982" lon="1.25248">
        <ele>180</ele>
        <time>2024-07-30T06:52:08Z</time>
      </trkpt>
      <trkpt lat="43.5098" lon="1.25239">
        <ele>180</ele>
        <time>2024-07-30T06:52:09Z</time>
      </trkpt>
      <trkpt lat="43.50978" lon="1.2523">
        <ele>180</ele>
        <time>2024-07-30T06:52:10Z</time>
      </trkpt>
      <trkpt lat="43.50976" lon="1.25221">
        <ele>180</ele>
        <time>2024-07-30T06:52:11Z</time>
      </trkpt>
      <trkpt lat="43.50974" lon="1.25213">
        <ele>180</ele>
        <time>2024-07-30T06:52:12Z</time>
      </trkpt>
      <trkpt lat="43.50972" lon="1.25204">
        <ele>180</ele>
        <time>2024-07-30T06:52:13Z</time>
      </trkpt>
      <trkpt lat="43.5097" lon="1.25195">
        <ele>180.2</ele>
        <time>2024-07-30T06:52:14Z</time>
      </trkpt>
      <trkpt lat="43.50968" lon="1.25185">
        <ele>180.2</ele>
        <time>2024-07-30T06:52:15Z</time>
      </trkpt>
      <trkpt lat="43.50966" lon="1.25176">
        <ele>180.2</ele>
        <time>2024-07-30T06:52:16Z</time>
      </trkpt>
      <trkpt lat="43.50964" lon="1.25167">
        <ele>180.2</ele>
        <time>2024-07-30T06:52:17Z</time>
      </trkpt>
      <trkpt lat="43.50961" lon="1.25158">
        <ele>180.2</ele>
        <time>2024-07-30T06:52:18Z</time>
      </trkpt>
      <trkpt lat="43.50959" lon="1.25149">
        <ele>180.2</ele>
        <time>2024-07-30T06:52:19Z</time>
      </trkpt>
      <trkpt lat="43.50957" lon="1.2514">
        <ele>180.2</ele>
        <time>2024-07-30T06:52:20Z</time>
      </trkpt>
      <trkpt lat="43.50955" lon="1.25131">
        <ele>180.4</ele>
        <time>2024-07-30T06:52:21Z</time>
      </trkpt>
      <trkpt lat="43.50953" lon="1.25122">
        <ele>180.4</ele>
        <time>2024-07-30T06:52:22Z</time>
      </trkpt>
      <trkpt lat="43.50951" lon="1.25113">
        <ele>180.4</ele>
        <time>2024-07-30T06:52:23Z</time>
      </trkpt>
      <trkpt lat="43.50949" lon="1.25103">
        <ele>180.6</ele>
        <time>2024-07-30T06:52:24Z</time>
      </trkpt>
      <trkpt lat="43.50947" lon="1.25094">
        <ele>180.6</ele>
        <time>2024-07-30T06:52:25Z</time>
      </trkpt>
      <trkpt lat="43.50944" lon="1.25085">
        <ele>180.6</ele>
        <time>2024-07-30T06:52:26Z</time>
      </trkpt>
      <trkpt lat="43.50942" lon="1.25077">
        <ele>180.6</ele>
        <time>2024-07-30T06:52:27Z</time>
      </trkpt>
      <trkpt lat="43.5094" lon="1.25068">
        <ele>180.8</ele>
        <time>2024-07-30T06:52:28Z</time>
      </trkpt>
      <trkpt lat="43.50938" lon="1.25059">
        <ele>180.8</ele>
        <time>2024-07-30T06:52:29Z</time>
      </trkpt>
      <trkpt lat="43.50936" lon="1.2505">
        <ele>180.8</ele>
        <time>2024-07-30T06:52:30Z</time>
      </trkpt>
      <trkpt lat="43.50934" lon="1.25041">
        <ele>180.8</ele>
        <time>2024-07-30T06:52:31Z</time>
      </trkpt>
      <trkpt lat="43.50932" lon="1.25032">
        <ele>180.8</ele>
        <time>2024-07-30T06:52:32Z</time>
      </trkpt>
      <trkpt lat="43.50929" lon="1.25023">
        <ele>180.8</ele>
        <time>2024-07-30T06:52:33Z</time>
      </trkpt>
      <trkpt lat="43.50926" lon="1.25016">
        <ele>180.8</ele>
        <time>2024-07-30T06:52:34Z</time>
      </trkpt>
      <trkpt lat="43.50921" lon="1.25009">
        <ele>180.8</ele>
        <time>2024-07-30T06:52:35Z</time>
      </trkpt>
      <trkpt lat="43.50916" lon="1.25005">
        <ele>180.8</ele>
        <time>2024-07-30T06:52:36Z</time>
      </trkpt>
      <trkpt lat="43.5091" lon="1.25001">
        <ele>180.8</ele>
        <time>2024-07-30T06:52:37Z</time>
      </trkpt>
      <trkpt lat="43.50903" lon="1.24998">
        <ele>180.8</ele>
        <time>2024-07-30T06:52:38Z</time>
      </trkpt>
      <trkpt lat="43.50897" lon="1.24996">
        <ele>180.8</ele>
        <time>2024-07-30T06:52:39Z</time>
      </trkpt>
      <trkpt lat="43.5089" lon="1.24994">
        <ele>180.8</ele>
        <time>2024-07-30T06:52:40Z</time>
      </trkpt>
      <trkpt lat="43.50883" lon="1.24992">
        <ele>180.8</ele>
        <time>2024-07-30T06:52:41Z</time>
      </trkpt>
      <trkpt lat="43.50877" lon="1.2499">
        <ele>180.8</ele>
        <time>2024-07-30T06:52:42Z</time>
      </trkpt>
      <trkpt lat="43.5087" lon="1.24987">
        <ele>181</ele>
        <time>2024-07-30T06:52:43Z</time>
      </trkpt>
      <trkpt lat="43.50863" lon="1.24985">
        <ele>181</ele>
        <time>2024-07-30T06:52:44Z</time>
      </trkpt>
      <trkpt lat="43.50857" lon="1.24983">
        <ele>181</ele>
        <time>2024-07-30T06:52:45Z</time>
      </trkpt>
      <trkpt lat="43.5085" lon="1.24981">
        <ele>181</ele>
        <time>2024-07-30T06:52:46Z</time>
      </trkpt>
      <trkpt lat="43.50843" lon="1.24979">
        <ele>181</ele>
        <time>2024-07-30T06:52:47Z</time>
      </trkpt>
      <trkpt lat="43.50837" lon="1.24976">
        <ele>181</ele>
        <time>2024-07-30T06:52:48Z</time>
      </trkpt>
      <trkpt lat="43.5083" lon="1.24974">
        <ele>181</ele>
        <time>2024-07-30T06:52:49Z</time>
      </trkpt>
      <trkpt lat="43.50824" lon="1.24972">
        <ele>181.2</ele>
        <time>2024-07-30T06:52:50Z</time>
      </trkpt>
      <trkpt lat="43.50817" lon="1.24969">
        <ele>181.2</ele>
        <time>2024-07-30T06:52:51Z</time>
      </trkpt>
      <trkpt lat="43.50811" lon="1.24967">
        <ele>181.2</ele>
        <time>2024-07-30T06:52:52Z</time>
      </trkpt>
      <trkpt lat="43.50805" lon="1.24964">
        <ele>181.2</ele>
        <time>2024-07-30T06:52:53Z</time>
      </trkpt>
      <trkpt lat="43.50799" lon="1.24962">
        <ele>181.2</ele>
        <time>2024-07-30T06:52:54Z</time>
      </trkpt>
      <trkpt lat="43.50792" lon="1.2496">
        <ele>181.2</ele>
        <time>2024-07-30T06:52:55Z</time>
      </trkpt>
      <trkpt lat="43.50786" lon="1.24958">
        <ele>181.4</ele>
        <time>2024-07-30T06:52:56Z</time>
      </trkpt>
      <trkpt lat="43.5078" lon="1.24956">
        <ele>181.4</ele>
        <time>2024-07-30T06:52:57Z</time>
      </trkpt>
      <trkpt lat="43.50774" lon="1.24953">
        <ele>181.4</ele>
        <time>2024-07-30T06:52:58Z</time>
      </trkpt>
      <trkpt lat="43.50767" lon="1.24951">
        <ele>181.4</ele>
        <time>2024-07-30T06:52:59Z</time>
      </trkpt>
      <trkpt lat="43.50761" lon="1.24949">
        <ele>181.4</ele>
        <time>2024-07-30T06:53:00Z</time>
      </trkpt>
      <trkpt lat="43.50755" lon="1.24946">
        <ele>181.4</ele>
        <time>2024-07-30T06:53:01Z</time>
      </trkpt>
      <trkpt lat="43.50749" lon="1.24944">
        <ele>181.4</ele>
        <time>2024-07-30T06:53:02Z</time>
      </trkpt>
      <trkpt lat="43.50742" lon="1.24941">
        <ele>181.4</ele>
        <time>2024-07-30T06:53:03Z</time>
      </trkpt>
      <trkpt lat="43.50736" lon="1.24939">
        <ele>181.4</ele>
        <time>2024-07-30T06:53:04Z</time>
      </trkpt>
      <trkpt lat="43.50729" lon="1.24936">
        <ele>181.6</ele>
        <time>2024-07-30T06:53:05Z</time>
      </trkpt>
      <trkpt lat="43.50723" lon="1.24934">
        <ele>181.6</ele>
        <time>2024-07-30T06:53:06Z</time>
      </trkpt>
      <trkpt lat="43.50717" lon="1.24931">
        <ele>181.6</ele>
        <time>2024-07-30T06:53:07Z</time>
      </trkpt>
      <trkpt lat="43.50711" lon="1.24929">
        <ele>181.6</ele>
        <time>2024-07-30T06:53:08Z</time>
      </trkpt>
      <trkpt lat="43.50704" lon="1.24926">
        <ele>181.6</ele>
        <time>2024-07-30T06:53:09Z</time>
      </trkpt>
      <trkpt lat="43.50698" lon="1.24924">
        <ele>181.6</ele>
        <time>2024-07-30T06:53:10Z</time>
      </trkpt>
      <trkpt lat="43.50692" lon="1.24921">
        <ele>181.6</ele>
        <time>2024-07-30T06:53:11Z</time>
      </trkpt>
      <trkpt lat="43.50685" lon="1.24919">
        <ele>181.6</ele>
        <time>2024-07-30T06:53:12Z</time>
      </trkpt>
      <trkpt lat="43.50679" lon="1.24917">
        <ele>181.6</ele>
        <time>2024-07-30T06:53:13Z</time>
      </trkpt>
      <trkpt lat="43.50673" lon="1.24914">
        <ele>181.8</ele>
        <time>2024-07-30T06:53:14Z</time>
      </trkpt>
      <trkpt lat="43.50666" lon="1.24911">
        <ele>181.8</ele>
        <time>2024-07-30T06:53:15Z</time>
      </trkpt>
      <trkpt lat="43.5066" lon="1.24909">
        <ele>181.8</ele>
        <time>2024-07-30T06:53:16Z</time>
      </trkpt>
      <trkpt lat="43.50654" lon="1.24907">
        <ele>181.8</ele>
        <time>2024-07-30T06:53:17Z</time>
      </trkpt>
      <trkpt lat="43.50648" lon="1.24904">
        <ele>182</ele>
        <time>2024-07-30T06:53:18Z</time>
      </trkpt>
      <trkpt lat="43.50641" lon="1.24902">
        <ele>182</ele>
        <time>2024-07-30T06:53:19Z</time>
      </trkpt>
      <trkpt lat="43.50635" lon="1.24899">
        <ele>182</ele>
        <time>2024-07-30T06:53:20Z</time>
      </trkpt>
      <trkpt lat="43.50629" lon="1.24896">
        <ele>182</ele>
        <time>2024-07-30T06:53:21Z</time>
      </trkpt>
      <trkpt lat="43.50622" lon="1.24894">
        <ele>182</ele>
        <time>2024-07-30T06:53:22Z</time>
      </trkpt>
      <trkpt lat="43.50616" lon="1.24891">
        <ele>182</ele>
        <time>2024-07-30T06:53:23Z</time>
      </trkpt>
      <trkpt lat="43.5061" lon="1.24889">
        <ele>182</ele>
        <time>2024-07-30T06:53:24Z</time>
      </trkpt>
      <trkpt lat="43.50604" lon="1.24887">
        <ele>182.2</ele>
        <time>2024-07-30T06:53:25Z</time>
      </trkpt>
      <trkpt lat="43.50598" lon="1.24884">
        <ele>182.2</ele>
        <time>2024-07-30T06:53:26Z</time>
      </trkpt>
      <trkpt lat="43.50592" lon="1.24882">
        <ele>182.2</ele>
        <time>2024-07-30T06:53:27Z</time>
      </trkpt>
      <trkpt lat="43.50586" lon="1.2488">
        <ele>182.2</ele>
        <time>2024-07-30T06:53:28Z</time>
      </trkpt>
      <trkpt lat="43.5058" lon="1.24877">
        <ele>182.4</ele>
        <time>2024-07-30T06:53:29Z</time>
      </trkpt>
      <trkpt lat="43.50574" lon="1.24875">
        <ele>182.6</ele>
        <time>2024-07-30T06:53:30Z</time>
      </trkpt>
      <trkpt lat="43.50568" lon="1.24873">
        <ele>182.4</ele>
        <time>2024-07-30T06:53:31Z</time>
      </trkpt>
      <trkpt lat="43.50562" lon="1.2487">
        <ele>182.6</ele>
        <time>2024-07-30T06:53:32Z</time>
      </trkpt>
      <trkpt lat="43.50555" lon="1.24868">
        <ele>182.6</ele>
        <time>2024-07-30T06:53:33Z</time>
      </trkpt>
      <trkpt lat="43.5055" lon="1.24866">
        <ele>182.6</ele>
        <time>2024-07-30T06:53:34Z</time>
      </trkpt>
      <trkpt lat="43.50544" lon="1.24863">
        <ele>182.6</ele>
        <time>2024-07-30T06:53:35Z</time>
      </trkpt>
      <trkpt lat="43.50538" lon="1.24861">
        <ele>182.6</ele>
        <time>2024-07-30T06:53:36Z</time>
      </trkpt>
      <trkpt lat="43.50532" lon="1.24859">
        <ele>182.6</ele>
        <time>2024-07-30T06:53:37Z</time>
      </trkpt>
      <trkpt lat="43.50526" lon="1.24857">
        <ele>182.6</ele>
        <time>2024-07-30T06:53:38Z</time>
      </trkpt>
      <trkpt lat="43.50521" lon="1.24854">
        <ele>182.6</ele>
        <time>2024-07-30T06:53:39Z</time>
      </trkpt>
      <trkpt lat="43.50515" lon="1.24852">
        <ele>182.6</ele>
        <time>2024-07-30T06:53:40Z</time>
      </trkpt>
      <trkpt lat="43.50509" lon="1.2485">
        <ele>182.8</ele>
        <time>2024-07-30T06:53:41Z</time>
      </trkpt>
      <trkpt lat="43.50503" lon="1.24848">
        <ele>182.8</ele>
        <time>2024-07-30T06:53:42Z</time>
      </trkpt>
      <trkpt lat="43.50498" lon="1.24846">
        <ele>182.8</ele>
        <time>2024-07-30T06:53:43Z</time>
      </trkpt>
      <trkpt lat="43.50493" lon="1.24844">
        <ele>182.8</ele>
        <time>2024-07-30T06:53:44Z</time>
      </trkpt>
      <trkpt lat="43.50488" lon="1.24841">
        <ele>182.8</ele>
        <time>2024-07-30T06:53:45Z</time>
      </trkpt>
      <trkpt lat="43.50483" lon="1.2484">
        <ele>182.8</ele>
        <time>2024-07-30T06:53:46Z</time>
      </trkpt>
      <trkpt lat="43.50478" lon="1.24838">
        <ele>182.8</ele>
        <time>2024-07-30T06:53:47Z</time>
      </trkpt>
      <trkpt lat="43.50473" lon="1.24836">
        <ele>182.8</ele>
        <time>2024-07-30T06:53:48Z</time>
      </trkpt>
      <trkpt lat="43.50468" lon="1.24834">
        <ele>182.8</ele>
        <time>2024-07-30T06:53:49Z</time>
      </trkpt>
      <trkpt lat="43.50464" lon="1.24833">
        <ele>182.8</ele>
        <time>2024-07-30T06:53:50Z</time>
      </trkpt>
      <trkpt lat="43.5046" lon="1.24831">
        <ele>182.8</ele>
        <time>2024-07-30T06:53:51Z</time>
      </trkpt>
      <trkpt lat="43.50457" lon="1.24829">
        <ele>182.8</ele>
        <time>2024-07-30T06:53:52Z</time>
      </trkpt>
      <trkpt lat="43.50454" lon="1.24828">
        <ele>182.8</ele>
        <time>2024-07-30T06:53:53Z</time>
      </trkpt>
      <trkpt lat="43.50451" lon="1.24826">
        <ele>182.8</ele>
        <time>2024-07-30T06:53:54Z</time>
      </trkpt>
      <trkpt lat="43.50448" lon="1.24825">
        <ele>182.8</ele>
        <time>2024-07-30T06:53:55Z</time>
      </trkpt>
      <trkpt lat="43.50446" lon="1.24825">
        <ele>182.8</ele>
        <time>2024-07-30T06:53:56Z</time>
      </trkpt>
      <trkpt lat="43.50444" lon="1.24824">
        <ele>182.8</ele>
        <time>2024-07-30T06:53:57Z</time>
      </trkpt>
      <trkpt lat="43.50443" lon="1.24823">
        <ele>182.8</ele>
        <time>2024-07-30T06:53:58Z</time>
      </trkpt>
      <trkpt lat="43.50442" lon="1.24823">
        <ele>182.8</ele>
        <time>2024-07-30T06:53:59Z</time>
      </trkpt>
      <trkpt lat="43.50441" lon="1.24822">
        <ele>183</ele>
        <time>2024-07-30T06:54:00Z</time>
      </trkpt>
      <trkpt lat="43.50441" lon="1.24822">
        <ele>183</ele>
        <time>2024-07-30T06:54:01Z</time>
      </trkpt>
      <trkpt lat="43.5044" lon="1.24822">
        <ele>183</ele>
        <time>2024-07-30T06:54:02Z</time>
      </trkpt>
      <trkpt lat="43.5044" lon="1.24821">
        <ele>183</ele>
        <time>2024-07-30T06:54:03Z</time>
      </trkpt>
      <trkpt lat="43.50439" lon="1.24821">
        <ele>183</ele>
        <time>2024-07-30T06:54:04Z</time>
      </trkpt>
      <trkpt lat="43.50439" lon="1.24821">
        <ele>183</ele>
        <time>2024-07-30T06:54:05Z</time>
      </trkpt>
      <trkpt lat="43.50439" lon="1.24821">
        <ele>183</ele>
        <time>2024-07-30T06:54:06Z</time>
      </trkpt>
      <trkpt lat="43.50436" lon="1.2482">
        <ele>183.2</ele>
        <time>2024-07-30T06:54:15Z</time>
      </trkpt>
      <trkpt lat="43.50434" lon="1.24819">
        <ele>183.2</ele>
        <time>2024-07-30T06:54:16Z</time>
      </trkpt>
      <trkpt lat="43.50432" lon="1.24818">
        <ele>183.2</ele>
        <time>2024-07-30T06:54:17Z</time>
      </trkpt>
      <trkpt lat="43.5043" lon="1.24817">
        <ele>183.2</ele>
        <time>2024-07-30T06:54:18Z</time>
      </trkpt>
      <trkpt lat="43.50428" lon="1.24817">
        <ele>183.2</ele>
        <time>2024-07-30T06:54:19Z</time>
      </trkpt>
      <trkpt lat="43.50426" lon="1.24817">
        <ele>183.2</ele>
        <time>2024-07-30T06:54:20Z</time>
      </trkpt>
      <trkpt lat="43.50424" lon="1.24817">
        <ele>183.4</ele>
        <time>2024-07-30T06:54:21Z</time>
      </trkpt>
      <trkpt lat="43.50421" lon="1.24817">
        <ele>183.4</ele>
        <time>2024-07-30T06:54:22Z</time>
      </trkpt>
      <trkpt lat="43.50417" lon="1.24816">
        <ele>183.4</ele>
        <time>2024-07-30T06:54:23Z</time>
      </trkpt>
      <trkpt lat="43.50414" lon="1.24816">
        <ele>183.4</ele>
        <time>2024-07-30T06:54:24Z</time>
      </trkpt>
      <trkpt lat="43.50409" lon="1.24816">
        <ele>183.4</ele>
        <time>2024-07-30T06:54:25Z</time>
      </trkpt>
      <trkpt lat="43.50405" lon="1.24817">
        <ele>183.4</ele>
        <time>2024-07-30T06:54:26Z</time>
      </trkpt>
      <trkpt lat="43.504" lon="1.24816">
        <ele>183.4</ele>
        <time>2024-07-30T06:54:27Z</time>
      </trkpt>
      <trkpt lat="43.50395" lon="1.24815">
        <ele>183.4</ele>
        <time>2024-07-30T06:54:28Z</time>
      </trkpt>
      <trkpt lat="43.5039" lon="1.24814">
        <ele>183.4</ele>
        <time>2024-07-30T06:54:29Z</time>
      </trkpt>
      <trkpt lat="43.50385" lon="1.24813">
        <ele>183.4</ele>
        <time>2024-07-30T06:54:30Z</time>
      </trkpt>
      <trkpt lat="43.50379" lon="1.24812">
        <ele>183.4</ele>
        <time>2024-07-30T06:54:31Z</time>
      </trkpt>
      <trkpt lat="43.50374" lon="1.24811">
        <ele>183.4</ele>
        <time>2024-07-30T06:54:32Z</time>
      </trkpt>
      <trkpt lat="43.50369" lon="1.2481">
        <ele>183.4</ele>
        <time>2024-07-30T06:54:33Z</time>
      </trkpt>
      <trkpt lat="43.50363" lon="1.24808">
        <ele>183.4</ele>
        <time>2024-07-30T06:54:34Z</time>
      </trkpt>
      <trkpt lat="43.50357" lon="1.24807">
        <ele>183.4</ele>
        <time>2024-07-30T06:54:35Z</time>
      </trkpt>
      <trkpt lat="43.50351" lon="1.24805">
        <ele>183.4</ele>
        <time>2024-07-30T06:54:36Z</time>
      </trkpt>
      <trkpt lat="43.50347" lon="1.24804">
        <ele>183.4</ele>
        <time>2024-07-30T06:54:37Z</time>
      </trkpt>
      <trkpt lat="43.50341" lon="1.24802">
        <ele>183.4</ele>
        <time>2024-07-30T06:54:38Z</time>
      </trkpt>
      <trkpt lat="43.50334" lon="1.248">
        <ele>183.4</ele>
        <time>2024-07-30T06:54:39Z</time>
      </trkpt>
      <trkpt lat="43.50328" lon="1.24798">
        <ele>183.4</ele>
        <time>2024-07-30T06:54:40Z</time>
      </trkpt>
      <trkpt lat="43.50322" lon="1.24796">
        <ele>183.4</ele>
        <time>2024-07-30T06:54:41Z</time>
      </trkpt>
      <trkpt lat="43.50318" lon="1.24795">
        <ele>183.4</ele>
        <time>2024-07-30T06:54:42Z</time>
      </trkpt>
      <trkpt lat="43.50312" lon="1.24793">
        <ele>183.4</ele>
        <time>2024-07-30T06:54:43Z</time>
      </trkpt>
      <trkpt lat="43.50305" lon="1.24791">
        <ele>183.6</ele>
        <time>2024-07-30T06:54:44Z</time>
      </trkpt>
      <trkpt lat="43.50299" lon="1.24789">
        <ele>183.6</ele>
        <time>2024-07-30T06:54:45Z</time>
      </trkpt>
      <trkpt lat="43.50293" lon="1.24787">
        <ele>183.6</ele>
        <time>2024-07-30T06:54:46Z</time>
      </trkpt>
      <trkpt lat="43.50289" lon="1.24785">
        <ele>183.8</ele>
        <time>2024-07-30T06:54:47Z</time>
      </trkpt>
      <trkpt lat="43.50282" lon="1.24783">
        <ele>184</ele>
        <time>2024-07-30T06:54:48Z</time>
      </trkpt>
      <trkpt lat="43.50276" lon="1.24781">
        <ele>184</ele>
        <time>2024-07-30T06:54:49Z</time>
      </trkpt>
      <trkpt lat="43.5027" lon="1.2478">
        <ele>183.8</ele>
        <time>2024-07-30T06:54:50Z</time>
      </trkpt>
      <trkpt lat="43.50265" lon="1.24778">
        <ele>183.8</ele>
        <time>2024-07-30T06:54:51Z</time>
      </trkpt>
      <trkpt lat="43.50259" lon="1.24776">
        <ele>183.8</ele>
        <time>2024-07-30T06:54:52Z</time>
      </trkpt>
      <trkpt lat="43.50252" lon="1.24774">
        <ele>183.6</ele>
        <time>2024-07-30T06:54:53Z</time>
      </trkpt>
      <trkpt lat="43.50245" lon="1.24772">
        <ele>183.6</ele>
        <time>2024-07-30T06:54:54Z</time>
      </trkpt>
      <trkpt lat="43.50239" lon="1.2477">
        <ele>183.8</ele>
        <time>2024-07-30T06:54:55Z</time>
      </trkpt>
      <trkpt lat="43.50234" lon="1.24769">
        <ele>183.8</ele>
        <time>2024-07-30T06:54:56Z</time>
      </trkpt>
      <trkpt lat="43.50228" lon="1.24767">
        <ele>183.6</ele>
        <time>2024-07-30T06:54:57Z</time>
      </trkpt>
      <trkpt lat="43.5022" lon="1.24764">
        <ele>183.6</ele>
        <time>2024-07-30T06:54:58Z</time>
      </trkpt>
      <trkpt lat="43.50214" lon="1.24762">
        <ele>183.6</ele>
        <time>2024-07-30T06:54:59Z</time>
      </trkpt>
      <trkpt lat="43.50209" lon="1.24761">
        <ele>183.6</ele>
        <time>2024-07-30T06:55:00Z</time>
      </trkpt>
      <trkpt lat="43.50202" lon="1.24759">
        <ele>183.8</ele>
        <time>2024-07-30T06:55:01Z</time>
      </trkpt>
      <trkpt lat="43.50196" lon="1.24757">
        <ele>183.8</ele>
        <time>2024-07-30T06:55:02Z</time>
      </trkpt>
      <trkpt lat="43.50189" lon="1.24756">
        <ele>183.8</ele>
        <time>2024-07-30T06:55:03Z</time>
      </trkpt>
      <trkpt lat="43.50183" lon="1.24753">
        <ele>184</ele>
        <time>2024-07-30T06:55:04Z</time>
      </trkpt>
      <trkpt lat="43.50177" lon="1.24751">
        <ele>184</ele>
        <time>2024-07-30T06:55:05Z</time>
      </trkpt>
      <trkpt lat="43.5017" lon="1.24749">
        <ele>184</ele>
        <time>2024-07-30T06:55:06Z</time>
      </trkpt>
      <trkpt lat="43.50163" lon="1.24747">
        <ele>184</ele>
        <time>2024-07-30T06:55:07Z</time>
      </trkpt>
      <trkpt lat="43.50157" lon="1.24745">
        <ele>184</ele>
        <time>2024-07-30T06:55:08Z</time>
      </trkpt>
      <trkpt lat="43.5015" lon="1.24743">
        <ele>184.2</ele>
        <time>2024-07-30T06:55:09Z</time>
      </trkpt>
      <trkpt lat="43.50146" lon="1.24741">
        <ele>184.2</ele>
        <time>2024-07-30T06:55:10Z</time>
      </trkpt>
      <trkpt lat="43.50139" lon="1.24739">
        <ele>184.2</ele>
        <time>2024-07-30T06:55:11Z</time>
      </trkpt>
      <trkpt lat="43.50133" lon="1.24737">
        <ele>184.2</ele>
        <time>2024-07-30T06:55:12Z</time>
      </trkpt>
      <trkpt lat="43.50127" lon="1.24735">
        <ele>184.4</ele>
        <time>2024-07-30T06:55:13Z</time>
      </trkpt>
      <trkpt lat="43.5012" lon="1.24733">
        <ele>184.4</ele>
        <time>2024-07-30T06:55:14Z</time>
      </trkpt>
      <trkpt lat="43.50114" lon="1.24731">
        <ele>184.4</ele>
        <time>2024-07-30T06:55:15Z</time>
      </trkpt>
      <trkpt lat="43.50108" lon="1.24729">
        <ele>184.4</ele>
        <time>2024-07-30T06:55:16Z</time>
      </trkpt>
      <trkpt lat="43.50102" lon="1.24727">
        <ele>184.4</ele>
        <time>2024-07-30T06:55:17Z</time>
      </trkpt>
      <trkpt lat="43.50095" lon="1.24725">
        <ele>184.4</ele>
        <time>2024-07-30T06:55:18Z</time>
      </trkpt>
      <trkpt lat="43.50089" lon="1.24723">
        <ele>184.4</ele>
        <time>2024-07-30T06:55:19Z</time>
      </trkpt>
      <trkpt lat="43.50082" lon="1.24722">
        <ele>184.4</ele>
        <time>2024-07-30T06:55:20Z</time>
      </trkpt>
      <trkpt lat="43.50076" lon="1.2472">
        <ele>184.4</ele>
        <time>2024-07-30T06:55:21Z</time>
      </trkpt>
      <trkpt lat="43.5007" lon="1.24717">
        <ele>184.6</ele>
        <time>2024-07-30T06:55:22Z</time>
      </trkpt>
      <trkpt lat="43.50064" lon="1.24715">
        <ele>184.6</ele>
        <time>2024-07-30T06:55:23Z</time>
      </trkpt>
      <trkpt lat="43.50058" lon="1.24713">
        <ele>184.6</ele>
        <time>2024-07-30T06:55:24Z</time>
      </trkpt>
      <trkpt lat="43.50051" lon="1.24711">
        <ele>184.6</ele>
        <time>2024-07-30T06:55:25Z</time>
      </trkpt>
      <trkpt lat="43.50045" lon="1.24709">
        <ele>184.6</ele>
        <time>2024-07-30T06:55:26Z</time>
      </trkpt>
      <trkpt lat="43.50039" lon="1.24707">
        <ele>184.6</ele>
        <time>2024-07-30T06:55:27Z</time>
      </trkpt>
      <trkpt lat="43.50032" lon="1.24705">
        <ele>184.6</ele>
        <time>2024-07-30T06:55:28Z</time>
      </trkpt>
      <trkpt lat="43.50026" lon="1.24703">
        <ele>184.6</ele>
        <time>2024-07-30T06:55:29Z</time>
      </trkpt>
      <trkpt lat="43.5002" lon="1.24701">
        <ele>184.6</ele>
        <time>2024-07-30T06:55:30Z</time>
      </trkpt>
      <trkpt lat="43.50013" lon="1.247">
        <ele>184.6</ele>
        <time>2024-07-30T06:55:31Z</time>
      </trkpt>
      <trkpt lat="43.50007" lon="1.24698">
        <ele>184.6</ele>
        <time>2024-07-30T06:55:32Z</time>
      </trkpt>
      <trkpt lat="43.50001" lon="1.24696">
        <ele>184.6</ele>
        <time>2024-07-30T06:55:33Z</time>
      </trkpt>
      <trkpt lat="43.49994" lon="1.24694">
        <ele>184.6</ele>
        <time>2024-07-30T06:55:34Z</time>
      </trkpt>
      <trkpt lat="43.49988" lon="1.24692">
        <ele>184.6</ele>
        <time>2024-07-30T06:55:35Z</time>
      </trkpt>
      <trkpt lat="43.49981" lon="1.2469">
        <ele>184.6</ele>
        <time>2024-07-30T06:55:36Z</time>
      </trkpt>
      <trkpt lat="43.49975" lon="1.24688">
        <ele>184.6</ele>
        <time>2024-07-30T06:55:37Z</time>
      </trkpt>
      <trkpt lat="43.49969" lon="1.24687">
        <ele>184.6</ele>
        <time>2024-07-30T06:55:38Z</time>
      </trkpt>
      <trkpt lat="43.49963" lon="1.24685">
        <ele>184.6</ele>
        <time>2024-07-30T06:55:39Z</time>
      </trkpt>
      <trkpt lat="43.49956" lon="1.24683">
        <ele>184.6</ele>
        <time>2024-07-30T06:55:40Z</time>
      </trkpt>
      <trkpt lat="43.4995" lon="1.24681">
        <ele>184.8</ele>
        <time>2024-07-30T06:55:41Z</time>
      </trkpt>
      <trkpt lat="43.49945" lon="1.24679">
        <ele>184.8</ele>
        <time>2024-07-30T06:55:42Z</time>
      </trkpt>
      <trkpt lat="43.49939" lon="1.24677">
        <ele>184.8</ele>
        <time>2024-07-30T06:55:43Z</time>
      </trkpt>
      <trkpt lat="43.49933" lon="1.24675">
        <ele>185</ele>
        <time>2024-07-30T06:55:44Z</time>
      </trkpt>
      <trkpt lat="43.49927" lon="1.24673">
        <ele>185</ele>
        <time>2024-07-30T06:55:45Z</time>
      </trkpt>
      <trkpt lat="43.49921" lon="1.2467">
        <ele>185</ele>
        <time>2024-07-30T06:55:46Z</time>
      </trkpt>
      <trkpt lat="43.49915" lon="1.24668">
        <ele>185</ele>
        <time>2024-07-30T06:55:47Z</time>
      </trkpt>
      <trkpt lat="43.49909" lon="1.24665">
        <ele>185</ele>
        <time>2024-07-30T06:55:48Z</time>
      </trkpt>
      <trkpt lat="43.49903" lon="1.24662">
        <ele>185.2</ele>
        <time>2024-07-30T06:55:49Z</time>
      </trkpt>
      <trkpt lat="43.49897" lon="1.24659">
        <ele>185.2</ele>
        <time>2024-07-30T06:55:50Z</time>
      </trkpt>
      <trkpt lat="43.49891" lon="1.24656">
        <ele>185.2</ele>
        <time>2024-07-30T06:55:51Z</time>
      </trkpt>
      <trkpt lat="43.49885" lon="1.24652">
        <ele>185.2</ele>
        <time>2024-07-30T06:55:52Z</time>
      </trkpt>
      <trkpt lat="43.49879" lon="1.24649">
        <ele>185.2</ele>
        <time>2024-07-30T06:55:53Z</time>
      </trkpt>
      <trkpt lat="43.49873" lon="1.24645">
        <ele>185.2</ele>
        <time>2024-07-30T06:55:54Z</time>
      </trkpt>
      <trkpt lat="43.49866" lon="1.24641">
        <ele>185.2</ele>
        <time>2024-07-30T06:55:55Z</time>
      </trkpt>
      <trkpt lat="43.4986" lon="1.24637">
        <ele>185.2</ele>
        <time>2024-07-30T06:55:56Z</time>
      </trkpt>
      <trkpt lat="43.49854" lon="1.24633">
        <ele>185.2</ele>
        <time>2024-07-30T06:55:57Z</time>
      </trkpt>
      <trkpt lat="43.49848" lon="1.24628">
        <ele>185.2</ele>
        <time>2024-07-30T06:55:58Z</time>
      </trkpt>
      <trkpt lat="43.49842" lon="1.24624">
        <ele>185.2</ele>
        <time>2024-07-30T06:55:59Z</time>
      </trkpt>
      <trkpt lat="43.49836" lon="1.2462">
        <ele>185.2</ele>
        <time>2024-07-30T06:56:00Z</time>
      </trkpt>
      <trkpt lat="43.4983" lon="1.24616">
        <ele>185.2</ele>
        <time>2024-07-30T06:56:01Z</time>
      </trkpt>
      <trkpt lat="43.49824" lon="1.24612">
        <ele>185</ele>
        <time>2024-07-30T06:56:02Z</time>
      </trkpt>
      <trkpt lat="43.49818" lon="1.24607">
        <ele>185</ele>
        <time>2024-07-30T06:56:03Z</time>
      </trkpt>
      <trkpt lat="43.49812" lon="1.24602">
        <ele>185</ele>
        <time>2024-07-30T06:56:04Z</time>
      </trkpt>
      <trkpt lat="43.49806" lon="1.24598">
        <ele>185</ele>
        <time>2024-07-30T06:56:05Z</time>
      </trkpt>
      <trkpt lat="43.498" lon="1.24593">
        <ele>185</ele>
        <time>2024-07-30T06:56:06Z</time>
      </trkpt>
      <trkpt lat="43.49793" lon="1.24588">
        <ele>185.2</ele>
        <time>2024-07-30T06:56:07Z</time>
      </trkpt>
      <trkpt lat="43.49788" lon="1.24584">
        <ele>185.2</ele>
        <time>2024-07-30T06:56:08Z</time>
      </trkpt>
      <trkpt lat="43.49782" lon="1.24579">
        <ele>185.2</ele>
        <time>2024-07-30T06:56:09Z</time>
      </trkpt>
      <trkpt lat="43.49776" lon="1.24575">
        <ele>185.2</ele>
        <time>2024-07-30T06:56:10Z</time>
      </trkpt>
      <trkpt lat="43.4977" lon="1.2457">
        <ele>185.2</ele>
        <time>2024-07-30T06:56:11Z</time>
      </trkpt>
      <trkpt lat="43.49764" lon="1.24566">
        <ele>185.2</ele>
        <time>2024-07-30T06:56:12Z</time>
      </trkpt>
      <trkpt lat="43.49758" lon="1.24562">
        <ele>185.2</ele>
        <time>2024-07-30T06:56:13Z</time>
      </trkpt>
      <trkpt lat="43.49751" lon="1.24559">
        <ele>185.2</ele>
        <time>2024-07-30T06:56:14Z</time>
      </trkpt>
      <trkpt lat="43.49744" lon="1.24556">
        <ele>185.2</ele>
        <time>2024-07-30T06:56:15Z</time>
      </trkpt>
      <trkpt lat="43.49738" lon="1.24553">
        <ele>185.2</ele>
        <time>2024-07-30T06:56:16Z</time>
      </trkpt>
      <trkpt lat="43.49731" lon="1.24551">
        <ele>185.2</ele>
        <time>2024-07-30T06:56:17Z</time>
      </trkpt>
      <trkpt lat="43.49724" lon="1.24549">
        <ele>185.2</ele>
        <time>2024-07-30T06:56:18Z</time>
      </trkpt>
      <trkpt lat="43.49717" lon="1.24547">
        <ele>185.2</ele>
        <time>2024-07-30T06:56:19Z</time>
      </trkpt>
      <trkpt lat="43.49711" lon="1.24545">
        <ele>185.2</ele>
        <time>2024-07-30T06:56:20Z</time>
      </trkpt>
      <trkpt lat="43.49704" lon="1.24543">
        <ele>185.2</ele>
        <time>2024-07-30T06:56:21Z</time>
      </trkpt>
      <trkpt lat="43.49697" lon="1.24541">
        <ele>185.4</ele>
        <time>2024-07-30T06:56:22Z</time>
      </trkpt>
      <trkpt lat="43.4969" lon="1.24539">
        <ele>185.4</ele>
        <time>2024-07-30T06:56:23Z</time>
      </trkpt>
      <trkpt lat="43.49683" lon="1.24537">
        <ele>185.6</ele>
        <time>2024-07-30T06:56:24Z</time>
      </trkpt>
      <trkpt lat="43.49677" lon="1.24536">
        <ele>185.6</ele>
        <time>2024-07-30T06:56:25Z</time>
      </trkpt>
      <trkpt lat="43.4967" lon="1.24534">
        <ele>185.6</ele>
        <time>2024-07-30T06:56:26Z</time>
      </trkpt>
      <trkpt lat="43.49664" lon="1.24533">
        <ele>185.6</ele>
        <time>2024-07-30T06:56:27Z</time>
      </trkpt>
      <trkpt lat="43.49657" lon="1.24531">
        <ele>185.6</ele>
        <time>2024-07-30T06:56:28Z</time>
      </trkpt>
      <trkpt lat="43.4965" lon="1.2453">
        <ele>185.6</ele>
        <time>2024-07-30T06:56:29Z</time>
      </trkpt>
      <trkpt lat="43.49643" lon="1.24529">
        <ele>185.6</ele>
        <time>2024-07-30T06:56:30Z</time>
      </trkpt>
      <trkpt lat="43.49636" lon="1.24527">
        <ele>185.6</ele>
        <time>2024-07-30T06:56:31Z</time>
      </trkpt>
      <trkpt lat="43.4963" lon="1.24526">
        <ele>185.6</ele>
        <time>2024-07-30T06:56:32Z</time>
      </trkpt>
      <trkpt lat="43.49623" lon="1.24525">
        <ele>185.6</ele>
        <time>2024-07-30T06:56:33Z</time>
      </trkpt>
      <trkpt lat="43.49616" lon="1.24523">
        <ele>185.6</ele>
        <time>2024-07-30T06:56:34Z</time>
      </trkpt>
      <trkpt lat="43.49609" lon="1.24522">
        <ele>185.8</ele>
        <time>2024-07-30T06:56:35Z</time>
      </trkpt>
      <trkpt lat="43.49603" lon="1.24521">
        <ele>185.8</ele>
        <time>2024-07-30T06:56:36Z</time>
      </trkpt>
      <trkpt lat="43.49596" lon="1.2452">
        <ele>185.8</ele>
        <time>2024-07-30T06:56:37Z</time>
      </trkpt>
      <trkpt lat="43.49589" lon="1.24519">
        <ele>186</ele>
        <time>2024-07-30T06:56:38Z</time>
      </trkpt>
      <trkpt lat="43.49582" lon="1.24518">
        <ele>186</ele>
        <time>2024-07-30T06:56:39Z</time>
      </trkpt>
      <trkpt lat="43.49575" lon="1.24517">
        <ele>186</ele>
        <time>2024-07-30T06:56:40Z</time>
      </trkpt>
      <trkpt lat="43.49568" lon="1.24515">
        <ele>186.2</ele>
        <time>2024-07-30T06:56:41Z</time>
      </trkpt>
      <trkpt lat="43.4956" lon="1.24515">
        <ele>186.2</ele>
        <time>2024-07-30T06:56:42Z</time>
      </trkpt>
      <trkpt lat="43.49553" lon="1.24515">
        <ele>186.2</ele>
        <time>2024-07-30T06:56:43Z</time>
      </trkpt>
      <trkpt lat="43.49546" lon="1.24515">
        <ele>186.2</ele>
        <time>2024-07-30T06:56:44Z</time>
      </trkpt>
      <trkpt lat="43.4954" lon="1.24515">
        <ele>186.2</ele>
        <time>2024-07-30T06:56:45Z</time>
      </trkpt>
      <trkpt lat="43.49533" lon="1.24515">
        <ele>186.2</ele>
        <time>2024-07-30T06:56:46Z</time>
      </trkpt>
      <trkpt lat="43.49526" lon="1.24516">
        <ele>186.2</ele>
        <time>2024-07-30T06:56:47Z</time>
      </trkpt>
      <trkpt lat="43.49519" lon="1.24517">
        <ele>186.2</ele>
        <time>2024-07-30T06:56:48Z</time>
      </trkpt>
      <trkpt lat="43.49512" lon="1.24518">
        <ele>186.2</ele>
        <time>2024-07-30T06:56:49Z</time>
      </trkpt>
      <trkpt lat="43.49505" lon="1.24519">
        <ele>186.2</ele>
        <time>2024-07-30T06:56:50Z</time>
      </trkpt>
      <trkpt lat="43.49498" lon="1.2452">
        <ele>186.2</ele>
        <time>2024-07-30T06:56:51Z</time>
      </trkpt>
      <trkpt lat="43.49491" lon="1.24521">
        <ele>186.2</ele>
        <time>2024-07-30T06:56:52Z</time>
      </trkpt>
      <trkpt lat="43.49485" lon="1.24521">
        <ele>186.2</ele>
        <time>2024-07-30T06:56:53Z</time>
      </trkpt>
      <trkpt lat="43.49478" lon="1.24522">
        <ele>186.2</ele>
        <time>2024-07-30T06:56:54Z</time>
      </trkpt>
      <trkpt lat="43.49471" lon="1.24523">
        <ele>186.2</ele>
        <time>2024-07-30T06:56:55Z</time>
      </trkpt>
      <trkpt lat="43.49465" lon="1.24524">
        <ele>186.2</ele>
        <time>2024-07-30T06:56:56Z</time>
      </trkpt>
      <trkpt lat="43.49458" lon="1.24525">
        <ele>186.2</ele>
        <time>2024-07-30T06:56:57Z</time>
      </trkpt>
      <trkpt lat="43.49451" lon="1.24526">
        <ele>186.2</ele>
        <time>2024-07-30T06:56:58Z</time>
      </trkpt>
      <trkpt lat="43.49444" lon="1.24527">
        <ele>186.2</ele>
        <time>2024-07-30T06:56:59Z</time>
      </trkpt>
      <trkpt lat="43.49438" lon="1.24528">
        <ele>186.4</ele>
        <time>2024-07-30T06:57:00Z</time>
      </trkpt>
      <trkpt lat="43.49431" lon="1.24529">
        <ele>186.4</ele>
        <time>2024-07-30T06:57:01Z</time>
      </trkpt>
      <trkpt lat="43.49425" lon="1.2453">
        <ele>186.4</ele>
        <time>2024-07-30T06:57:02Z</time>
      </trkpt>
      <trkpt lat="43.49418" lon="1.24531">
        <ele>186.6</ele>
        <time>2024-07-30T06:57:03Z</time>
      </trkpt>
      <trkpt lat="43.49412" lon="1.24532">
        <ele>186.6</ele>
        <time>2024-07-30T06:57:04Z</time>
      </trkpt>
      <trkpt lat="43.49405" lon="1.24533">
        <ele>186.8</ele>
        <time>2024-07-30T06:57:05Z</time>
      </trkpt>
      <trkpt lat="43.49399" lon="1.24535">
        <ele>186.8</ele>
        <time>2024-07-30T06:57:06Z</time>
      </trkpt>
      <trkpt lat="43.49392" lon="1.24536">
        <ele>186.8</ele>
        <time>2024-07-30T06:57:07Z</time>
      </trkpt>
      <trkpt lat="43.49386" lon="1.24537">
        <ele>186.8</ele>
        <time>2024-07-30T06:57:08Z</time>
      </trkpt>
      <trkpt lat="43.49379" lon="1.24538">
        <ele>186.8</ele>
        <time>2024-07-30T06:57:09Z</time>
      </trkpt>
      <trkpt lat="43.49372" lon="1.24539">
        <ele>186.8</ele>
        <time>2024-07-30T06:57:10Z</time>
      </trkpt>
      <trkpt lat="43.49366" lon="1.24541">
        <ele>186.8</ele>
        <time>2024-07-30T06:57:11Z</time>
      </trkpt>
      <trkpt lat="43.4936" lon="1.24543">
        <ele>186.8</ele>
        <time>2024-07-30T06:57:12Z</time>
      </trkpt>
      <trkpt lat="43.49353" lon="1.24544">
        <ele>186.8</ele>
        <time>2024-07-30T06:57:13Z</time>
      </trkpt>
      <trkpt lat="43.49347" lon="1.24546">
        <ele>186.8</ele>
        <time>2024-07-30T06:57:14Z</time>
      </trkpt>
      <trkpt lat="43.49341" lon="1.24548">
        <ele>187</ele>
        <time>2024-07-30T06:57:15Z</time>
      </trkpt>
      <trkpt lat="43.49335" lon="1.2455">
        <ele>187</ele>
        <time>2024-07-30T06:57:16Z</time>
      </trkpt>
      <trkpt lat="43.49328" lon="1.24551">
        <ele>187</ele>
        <time>2024-07-30T06:57:17Z</time>
      </trkpt>
      <trkpt lat="43.49322" lon="1.24553">
        <ele>187</ele>
        <time>2024-07-30T06:57:18Z</time>
      </trkpt>
      <trkpt lat="43.49316" lon="1.24555">
        <ele>187</ele>
        <time>2024-07-30T06:57:19Z</time>
      </trkpt>
      <trkpt lat="43.49309" lon="1.24557">
        <ele>187</ele>
        <time>2024-07-30T06:57:20Z</time>
      </trkpt>
      <trkpt lat="43.49303" lon="1.24559">
        <ele>187</ele>
        <time>2024-07-30T06:57:21Z</time>
      </trkpt>
      <trkpt lat="43.49297" lon="1.24561">
        <ele>187</ele>
        <time>2024-07-30T06:57:22Z</time>
      </trkpt>
      <trkpt lat="43.4929" lon="1.24563">
        <ele>187</ele>
        <time>2024-07-30T06:57:23Z</time>
      </trkpt>
      <trkpt lat="43.49284" lon="1.24565">
        <ele>187.2</ele>
        <time>2024-07-30T06:57:24Z</time>
      </trkpt>
      <trkpt lat="43.49278" lon="1.24568">
        <ele>187.2</ele>
        <time>2024-07-30T06:57:25Z</time>
      </trkpt>
      <trkpt lat="43.49271" lon="1.2457">
        <ele>187.2</ele>
        <time>2024-07-30T06:57:26Z</time>
      </trkpt>
      <trkpt lat="43.49265" lon="1.24573">
        <ele>187.2</ele>
        <time>2024-07-30T06:57:27Z</time>
      </trkpt>
      <trkpt lat="43.49258" lon="1.24576">
        <ele>187.2</ele>
        <time>2024-07-30T06:57:28Z</time>
      </trkpt>
      <trkpt lat="43.49252" lon="1.24578">
        <ele>187.2</ele>
        <time>2024-07-30T06:57:29Z</time>
      </trkpt>
      <trkpt lat="43.49246" lon="1.2458">
        <ele>187.2</ele>
        <time>2024-07-30T06:57:30Z</time>
      </trkpt>
      <trkpt lat="43.4924" lon="1.24583">
        <ele>187.2</ele>
        <time>2024-07-30T06:57:31Z</time>
      </trkpt>
      <trkpt lat="43.49234" lon="1.24586">
        <ele>187.2</ele>
        <time>2024-07-30T06:57:32Z</time>
      </trkpt>
      <trkpt lat="43.49228" lon="1.24588">
        <ele>187.4</ele>
        <time>2024-07-30T06:57:33Z</time>
      </trkpt>
      <trkpt lat="43.49221" lon="1.24591">
        <ele>187.4</ele>
        <time>2024-07-30T06:57:34Z</time>
      </trkpt>
      <trkpt lat="43.49215" lon="1.24594">
        <ele>187.4</ele>
        <time>2024-07-30T06:57:35Z</time>
      </trkpt>
      <trkpt lat="43.49208" lon="1.24596">
        <ele>187.4</ele>
        <time>2024-07-30T06:57:36Z</time>
      </trkpt>
      <trkpt lat="43.49202" lon="1.24599">
        <ele>187.4</ele>
        <time>2024-07-30T06:57:37Z</time>
      </trkpt>
      <trkpt lat="43.49195" lon="1.24602">
        <ele>187.4</ele>
        <time>2024-07-30T06:57:38Z</time>
      </trkpt>
      <trkpt lat="43.49189" lon="1.24605">
        <ele>187.4</ele>
        <time>2024-07-30T06:57:39Z</time>
      </trkpt>
      <trkpt lat="43.49182" lon="1.24609">
        <ele>187.6</ele>
        <time>2024-07-30T06:57:40Z</time>
      </trkpt>
      <trkpt lat="43.49176" lon="1.24612">
        <ele>187.6</ele>
        <time>2024-07-30T06:57:41Z</time>
      </trkpt>
      <trkpt lat="43.4917" lon="1.24616">
        <ele>187.6</ele>
        <time>2024-07-30T06:57:42Z</time>
      </trkpt>
      <trkpt lat="43.49164" lon="1.2462">
        <ele>187.6</ele>
        <time>2024-07-30T06:57:43Z</time>
      </trkpt>
      <trkpt lat="43.49157" lon="1.24623">
        <ele>187.4</ele>
        <time>2024-07-30T06:57:44Z</time>
      </trkpt>
      <trkpt lat="43.49151" lon="1.24628">
        <ele>187.4</ele>
        <time>2024-07-30T06:57:45Z</time>
      </trkpt>
      <trkpt lat="43.49145" lon="1.24632">
        <ele>187.6</ele>
        <time>2024-07-30T06:57:46Z</time>
      </trkpt>
      <trkpt lat="43.49138" lon="1.24636">
        <ele>187.6</ele>
        <time>2024-07-30T06:57:47Z</time>
      </trkpt>
      <trkpt lat="43.49132" lon="1.2464">
        <ele>187.6</ele>
        <time>2024-07-30T06:57:48Z</time>
      </trkpt>
      <trkpt lat="43.49126" lon="1.24645">
        <ele>187.6</ele>
        <time>2024-07-30T06:57:49Z</time>
      </trkpt>
      <trkpt lat="43.4912" lon="1.24649">
        <ele>187.6</ele>
        <time>2024-07-30T06:57:50Z</time>
      </trkpt>
      <trkpt lat="43.49114" lon="1.24653">
        <ele>187.6</ele>
        <time>2024-07-30T06:57:51Z</time>
      </trkpt>
      <trkpt lat="43.49108" lon="1.24657">
        <ele>187.6</ele>
        <time>2024-07-30T06:57:52Z</time>
      </trkpt>
      <trkpt lat="43.49101" lon="1.24661">
        <ele>187.6</ele>
        <time>2024-07-30T06:57:53Z</time>
      </trkpt>
      <trkpt lat="43.49095" lon="1.24665">
        <ele>187.6</ele>
        <time>2024-07-30T06:57:54Z</time>
      </trkpt>
      <trkpt lat="43.49089" lon="1.24669">
        <ele>187.6</ele>
        <time>2024-07-30T06:57:55Z</time>
      </trkpt>
      <trkpt lat="43.49083" lon="1.24672">
        <ele>187.6</ele>
        <time>2024-07-30T06:57:56Z</time>
      </trkpt>
      <trkpt lat="43.49077" lon="1.24676">
        <ele>187.6</ele>
        <time>2024-07-30T06:57:57Z</time>
      </trkpt>
      <trkpt lat="43.4907" lon="1.24679">
        <ele>187.6</ele>
        <time>2024-07-30T06:57:58Z</time>
      </trkpt>
      <trkpt lat="43.49064" lon="1.24682">
        <ele>187.6</ele>
        <time>2024-07-30T06:57:59Z</time>
      </trkpt>
      <trkpt lat="43.49058" lon="1.24684">
        <ele>187.6</ele>
        <time>2024-07-30T06:58:00Z</time>
      </trkpt>
      <trkpt lat="43.49051" lon="1.24686">
        <ele>187.6</ele>
        <time>2024-07-30T06:58:01Z</time>
      </trkpt>
      <trkpt lat="43.49045" lon="1.24687">
        <ele>187.4</ele>
        <time>2024-07-30T06:58:02Z</time>
      </trkpt>
      <trkpt lat="43.49038" lon="1.24687">
        <ele>187.4</ele>
        <time>2024-07-30T06:58:03Z</time>
      </trkpt>
      <trkpt lat="43.49031" lon="1.24687">
        <ele>187.4</ele>
        <time>2024-07-30T06:58:04Z</time>
      </trkpt>
      <trkpt lat="43.49025" lon="1.24687">
        <ele>187.4</ele>
        <time>2024-07-30T06:58:05Z</time>
      </trkpt>
      <trkpt lat="43.49018" lon="1.24687">
        <ele>187.4</ele>
        <time>2024-07-30T06:58:06Z</time>
      </trkpt>
      <trkpt lat="43.49011" lon="1.24686">
        <ele>187.4</ele>
        <time>2024-07-30T06:58:07Z</time>
      </trkpt>
      <trkpt lat="43.49004" lon="1.24685">
        <ele>187.4</ele>
        <time>2024-07-30T06:58:08Z</time>
      </trkpt>
      <trkpt lat="43.48998" lon="1.24684">
        <ele>187.4</ele>
        <time>2024-07-30T06:58:09Z</time>
      </trkpt>
      <trkpt lat="43.48991" lon="1.24683">
        <ele>187.4</ele>
        <time>2024-07-30T06:58:10Z</time>
      </trkpt>
      <trkpt lat="43.48984" lon="1.24682">
        <ele>187.4</ele>
        <time>2024-07-30T06:58:11Z</time>
      </trkpt>
      <trkpt lat="43.48978" lon="1.24681">
        <ele>187.4</ele>
        <time>2024-07-30T06:58:12Z</time>
      </trkpt>
      <trkpt lat="43.48972" lon="1.2468">
        <ele>187.2</ele>
        <time>2024-07-30T06:58:13Z</time>
      </trkpt>
      <trkpt lat="43.48965" lon="1.24679">
        <ele>187.2</ele>
        <time>2024-07-30T06:58:14Z</time>
      </trkpt>
      <trkpt lat="43.48958" lon="1.24678">
        <ele>187.4</ele>
        <time>2024-07-30T06:58:15Z</time>
      </trkpt>
      <trkpt lat="43.48952" lon="1.24677">
        <ele>187.4</ele>
        <time>2024-07-30T06:58:16Z</time>
      </trkpt>
      <trkpt lat="43.48945" lon="1.24675">
        <ele>187.4</ele>
        <time>2024-07-30T06:58:17Z</time>
      </trkpt>
      <trkpt lat="43.48939" lon="1.24674">
        <ele>187.4</ele>
        <time>2024-07-30T06:58:18Z</time>
      </trkpt>
      <trkpt lat="43.48932" lon="1.24673">
        <ele>187.4</ele>
        <time>2024-07-30T06:58:19Z</time>
      </trkpt>
      <trkpt lat="43.48925" lon="1.24672">
        <ele>187.4</ele>
        <time>2024-07-30T06:58:20Z</time>
      </trkpt>
      <trkpt lat="43.48919" lon="1.2467">
        <ele>187.4</ele>
        <time>2024-07-30T06:58:21Z</time>
      </trkpt>
      <trkpt lat="43.48912" lon="1.24669">
        <ele>187.6</ele>
        <time>2024-07-30T06:58:22Z</time>
      </trkpt>
      <trkpt lat="43.48906" lon="1.24667">
        <ele>187.6</ele>
        <time>2024-07-30T06:58:23Z</time>
      </trkpt>
      <trkpt lat="43.48899" lon="1.24664">
        <ele>187.6</ele>
        <time>2024-07-30T06:58:24Z</time>
      </trkpt>
      <trkpt lat="43.48892" lon="1.24662">
        <ele>187.6</ele>
        <time>2024-07-30T06:58:25Z</time>
      </trkpt>
      <trkpt lat="43.48886" lon="1.2466">
        <ele>187.6</ele>
        <time>2024-07-30T06:58:26Z</time>
      </trkpt>
      <trkpt lat="43.48879" lon="1.24657">
        <ele>187.6</ele>
        <time>2024-07-30T06:58:27Z</time>
      </trkpt>
      <trkpt lat="43.48872" lon="1.24654">
        <ele>187.6</ele>
        <time>2024-07-30T06:58:28Z</time>
      </trkpt>
      <trkpt lat="43.48866" lon="1.24651">
        <ele>187.6</ele>
        <time>2024-07-30T06:58:29Z</time>
      </trkpt>
      <trkpt lat="43.48859" lon="1.24648">
        <ele>187.8</ele>
        <time>2024-07-30T06:58:30Z</time>
      </trkpt>
      <trkpt lat="43.48852" lon="1.24645">
        <ele>187.8</ele>
        <time>2024-07-30T06:58:31Z</time>
      </trkpt>
      <trkpt lat="43.48846" lon="1.24642">
        <ele>187.8</ele>
        <time>2024-07-30T06:58:32Z</time>
      </trkpt>
      <trkpt lat="43.48839" lon="1.24639">
        <ele>187.8</ele>
        <time>2024-07-30T06:58:33Z</time>
      </trkpt>
      <trkpt lat="43.48832" lon="1.24636">
        <ele>187.8</ele>
        <time>2024-07-30T06:58:34Z</time>
      </trkpt>
      <trkpt lat="43.48826" lon="1.24633">
        <ele>187.8</ele>
        <time>2024-07-30T06:58:35Z</time>
      </trkpt>
      <trkpt lat="43.48819" lon="1.2463">
        <ele>187.8</ele>
        <time>2024-07-30T06:58:36Z</time>
      </trkpt>
      <trkpt lat="43.48813" lon="1.24627">
        <ele>187.8</ele>
        <time>2024-07-30T06:58:37Z</time>
      </trkpt>
      <trkpt lat="43.48806" lon="1.24624">
        <ele>187.8</ele>
        <time>2024-07-30T06:58:38Z</time>
      </trkpt>
      <trkpt lat="43.488" lon="1.24621">
        <ele>187.8</ele>
        <time>2024-07-30T06:58:39Z</time>
      </trkpt>
      <trkpt lat="43.48793" lon="1.24618">
        <ele>187.8</ele>
        <time>2024-07-30T06:58:40Z</time>
      </trkpt>
      <trkpt lat="43.48787" lon="1.24614">
        <ele>187.8</ele>
        <time>2024-07-30T06:58:41Z</time>
      </trkpt>
      <trkpt lat="43.4878" lon="1.24611">
        <ele>187.8</ele>
        <time>2024-07-30T06:58:42Z</time>
      </trkpt>
      <trkpt lat="43.48774" lon="1.24607">
        <ele>187.8</ele>
        <time>2024-07-30T06:58:43Z</time>
      </trkpt>
      <trkpt lat="43.48767" lon="1.24604">
        <ele>187.8</ele>
        <time>2024-07-30T06:58:44Z</time>
      </trkpt>
      <trkpt lat="43.4876" lon="1.246">
        <ele>187.8</ele>
        <time>2024-07-30T06:58:45Z</time>
      </trkpt>
      <trkpt lat="43.48754" lon="1.24597">
        <ele>187.8</ele>
        <time>2024-07-30T06:58:46Z</time>
      </trkpt>
      <trkpt lat="43.48747" lon="1.24593">
        <ele>188</ele>
        <time>2024-07-30T06:58:47Z</time>
      </trkpt>
      <trkpt lat="43.48741" lon="1.2459">
        <ele>188</ele>
        <time>2024-07-30T06:58:48Z</time>
      </trkpt>
      <trkpt lat="43.48735" lon="1.24586">
        <ele>188</ele>
        <time>2024-07-30T06:58:49Z</time>
      </trkpt>
      <trkpt lat="43.48728" lon="1.24582">
        <ele>188</ele>
        <time>2024-07-30T06:58:50Z</time>
      </trkpt>
      <trkpt lat="43.48722" lon="1.24578">
        <ele>188</ele>
        <time>2024-07-30T06:58:51Z</time>
      </trkpt>
      <trkpt lat="43.48716" lon="1.24574">
        <ele>188.2</ele>
        <time>2024-07-30T06:58:52Z</time>
      </trkpt>
      <trkpt lat="43.4871" lon="1.24569">
        <ele>188.2</ele>
        <time>2024-07-30T06:58:53Z</time>
      </trkpt>
      <trkpt lat="43.48704" lon="1.24564">
        <ele>188.2</ele>
        <time>2024-07-30T06:58:54Z</time>
      </trkpt>
      <trkpt lat="43.48698" lon="1.24559">
        <ele>188.2</ele>
        <time>2024-07-30T06:58:55Z</time>
      </trkpt>
      <trkpt lat="43.48692" lon="1.24554">
        <ele>188.2</ele>
        <time>2024-07-30T06:58:56Z</time>
      </trkpt>
      <trkpt lat="43.48687" lon="1.24549">
        <ele>188.2</ele>
        <time>2024-07-30T06:58:57Z</time>
      </trkpt>
      <trkpt lat="43.48681" lon="1.24543">
        <ele>188.2</ele>
        <time>2024-07-30T06:58:58Z</time>
      </trkpt>
      <trkpt lat="43.48675" lon="1.24538">
        <ele>188.2</ele>
        <time>2024-07-30T06:58:59Z</time>
      </trkpt>
      <trkpt lat="43.4867" lon="1.24532">
        <ele>188.2</ele>
        <time>2024-07-30T06:59:00Z</time>
      </trkpt>
      <trkpt lat="43.48664" lon="1.24526">
        <ele>188.2</ele>
        <time>2024-07-30T06:59:01Z</time>
      </trkpt>
      <trkpt lat="43.48658" lon="1.24521">
        <ele>188.2</ele>
        <time>2024-07-30T06:59:02Z</time>
      </trkpt>
      <trkpt lat="43.48653" lon="1.24515">
        <ele>188.2</ele>
        <time>2024-07-30T06:59:03Z</time>
      </trkpt>
      <trkpt lat="43.48647" lon="1.24509">
        <ele>188.2</ele>
        <time>2024-07-30T06:59:04Z</time>
      </trkpt>
      <trkpt lat="43.48642" lon="1.24504">
        <ele>188.4</ele>
        <time>2024-07-30T06:59:05Z</time>
      </trkpt>
      <trkpt lat="43.48636" lon="1.24498">
        <ele>188.4</ele>
        <time>2024-07-30T06:59:06Z</time>
      </trkpt>
      <trkpt lat="43.4863" lon="1.24493">
        <ele>188.4</ele>
        <time>2024-07-30T06:59:07Z</time>
      </trkpt>
      <trkpt lat="43.48625" lon="1.24487">
        <ele>188.2</ele>
        <time>2024-07-30T06:59:08Z</time>
      </trkpt>
      <trkpt lat="43.48619" lon="1.24482">
        <ele>188.2</ele>
        <time>2024-07-30T06:59:09Z</time>
      </trkpt>
      <trkpt lat="43.48613" lon="1.24476">
        <ele>188.2</ele>
        <time>2024-07-30T06:59:10Z</time>
      </trkpt>
      <trkpt lat="43.48608" lon="1.24471">
        <ele>188.2</ele>
        <time>2024-07-30T06:59:11Z</time>
      </trkpt>
      <trkpt lat="43.48602" lon="1.24465">
        <ele>188.2</ele>
        <time>2024-07-30T06:59:12Z</time>
      </trkpt>
      <trkpt lat="43.48596" lon="1.2446">
        <ele>188.2</ele>
        <time>2024-07-30T06:59:13Z</time>
      </trkpt>
      <trkpt lat="43.48591" lon="1.24455">
        <ele>188.2</ele>
        <time>2024-07-30T06:59:14Z</time>
      </trkpt>
      <trkpt lat="43.48585" lon="1.2445">
        <ele>188.4</ele>
        <time>2024-07-30T06:59:15Z</time>
      </trkpt>
      <trkpt lat="43.48579" lon="1.24445">
        <ele>188.4</ele>
        <time>2024-07-30T06:59:16Z</time>
      </trkpt>
      <trkpt lat="43.48573" lon="1.2444">
        <ele>188.2</ele>
        <time>2024-07-30T06:59:17Z</time>
      </trkpt>
      <trkpt lat="43.48567" lon="1.24435">
        <ele>188.2</ele>
        <time>2024-07-30T06:59:18Z</time>
      </trkpt>
      <trkpt lat="43.48561" lon="1.2443">
        <ele>188.4</ele>
        <time>2024-07-30T06:59:19Z</time>
      </trkpt>
      <trkpt lat="43.48555" lon="1.24426">
        <ele>188.4</ele>
        <time>2024-07-30T06:59:20Z</time>
      </trkpt>
      <trkpt lat="43.48549" lon="1.24421">
        <ele>188.4</ele>
        <time>2024-07-30T06:59:21Z</time>
      </trkpt>
      <trkpt lat="43.48543" lon="1.24416">
        <ele>188.4</ele>
        <time>2024-07-30T06:59:22Z</time>
      </trkpt>
      <trkpt lat="43.48537" lon="1.24412">
        <ele>188.4</ele>
        <time>2024-07-30T06:59:23Z</time>
      </trkpt>
      <trkpt lat="43.48531" lon="1.24407">
        <ele>188.6</ele>
        <time>2024-07-30T06:59:24Z</time>
      </trkpt>
      <trkpt lat="43.48525" lon="1.24402">
        <ele>188.6</ele>
        <time>2024-07-30T06:59:25Z</time>
      </trkpt>
      <trkpt lat="43.48519" lon="1.24398">
        <ele>188.6</ele>
        <time>2024-07-30T06:59:26Z</time>
      </trkpt>
      <trkpt lat="43.48513" lon="1.24394">
        <ele>188.6</ele>
        <time>2024-07-30T06:59:27Z</time>
      </trkpt>
      <trkpt lat="43.48508" lon="1.24389">
        <ele>188.6</ele>
        <time>2024-07-30T06:59:28Z</time>
      </trkpt>
      <trkpt lat="43.48502" lon="1.24385">
        <ele>188.6</ele>
        <time>2024-07-30T06:59:29Z</time>
      </trkpt>
      <trkpt lat="43.48496" lon="1.2438">
        <ele>188.6</ele>
        <time>2024-07-30T06:59:30Z</time>
      </trkpt>
      <trkpt lat="43.4849" lon="1.24376">
        <ele>188.6</ele>
        <time>2024-07-30T06:59:31Z</time>
      </trkpt>
      <trkpt lat="43.48484" lon="1.24371">
        <ele>188.4</ele>
        <time>2024-07-30T06:59:32Z</time>
      </trkpt>
      <trkpt lat="43.48478" lon="1.24367">
        <ele>188.4</ele>
        <time>2024-07-30T06:59:33Z</time>
      </trkpt>
      <trkpt lat="43.48472" lon="1.24362">
        <ele>188.4</ele>
        <time>2024-07-30T06:59:34Z</time>
      </trkpt>
      <trkpt lat="43.48467" lon="1.24358">
        <ele>188.6</ele>
        <time>2024-07-30T06:59:35Z</time>
      </trkpt>
      <trkpt lat="43.48461" lon="1.24353">
        <ele>188.6</ele>
        <time>2024-07-30T06:59:36Z</time>
      </trkpt>
      <trkpt lat="43.48455" lon="1.24348">
        <ele>188.6</ele>
        <time>2024-07-30T06:59:37Z</time>
      </trkpt>
      <trkpt lat="43.48449" lon="1.24344">
        <ele>188.6</ele>
        <time>2024-07-30T06:59:38Z</time>
      </trkpt>
      <trkpt lat="43.48444" lon="1.2434">
        <ele>188.8</ele>
        <time>2024-07-30T06:59:39Z</time>
      </trkpt>
      <trkpt lat="43.48439" lon="1.24336">
        <ele>188.8</ele>
        <time>2024-07-30T06:59:40Z</time>
      </trkpt>
      <trkpt lat="43.48434" lon="1.24333">
        <ele>188.8</ele>
        <time>2024-07-30T06:59:41Z</time>
      </trkpt>
      <trkpt lat="43.48429" lon="1.2433">
        <ele>188.8</ele>
        <time>2024-07-30T06:59:42Z</time>
      </trkpt>
      <trkpt lat="43.48424" lon="1.24327">
        <ele>188.8</ele>
        <time>2024-07-30T06:59:43Z</time>
      </trkpt>
      <trkpt lat="43.4842" lon="1.24325">
        <ele>188.8</ele>
        <time>2024-07-30T06:59:44Z</time>
      </trkpt>
      <trkpt lat="43.48415" lon="1.24323">
        <ele>188.8</ele>
        <time>2024-07-30T06:59:45Z</time>
      </trkpt>
      <trkpt lat="43.48411" lon="1.2432">
        <ele>188.8</ele>
        <time>2024-07-30T06:59:46Z</time>
      </trkpt>
      <trkpt lat="43.48407" lon="1.24316">
        <ele>188.8</ele>
        <time>2024-07-30T06:59:47Z</time>
      </trkpt>
      <trkpt lat="43.48402" lon="1.24312">
        <ele>188.8</ele>
        <time>2024-07-30T06:59:48Z</time>
      </trkpt>
      <trkpt lat="43.48396" lon="1.2431">
        <ele>188.8</ele>
        <time>2024-07-30T06:59:49Z</time>
      </trkpt>
      <trkpt lat="43.48391" lon="1.24309">
        <ele>188.8</ele>
        <time>2024-07-30T06:59:50Z</time>
      </trkpt>
      <trkpt lat="43.48385" lon="1.24309">
        <ele>188.8</ele>
        <time>2024-07-30T06:59:51Z</time>
      </trkpt>
      <trkpt lat="43.48379" lon="1.24306">
        <ele>188.8</ele>
        <time>2024-07-30T06:59:52Z</time>
      </trkpt>
      <trkpt lat="43.48373" lon="1.24302">
        <ele>188.8</ele>
        <time>2024-07-30T06:59:53Z</time>
      </trkpt>
      <trkpt lat="43.48368" lon="1.24298">
        <ele>188.8</ele>
        <time>2024-07-30T06:59:54Z</time>
      </trkpt>
      <trkpt lat="43.48363" lon="1.24293">
        <ele>188.8</ele>
        <time>2024-07-30T06:59:55Z</time>
      </trkpt>
      <trkpt lat="43.48357" lon="1.24288">
        <ele>188.8</ele>
        <time>2024-07-30T06:59:56Z</time>
      </trkpt>
      <trkpt lat="43.48352" lon="1.24283">
        <ele>188.8</ele>
        <time>2024-07-30T06:59:57Z</time>
      </trkpt>
      <trkpt lat="43.48346" lon="1.24278">
        <ele>188.8</ele>
        <time>2024-07-30T06:59:58Z</time>
      </trkpt>
      <trkpt lat="43.4834" lon="1.24273">
        <ele>189</ele>
        <time>2024-07-30T06:59:59Z</time>
      </trkpt>
      <trkpt lat="43.48334" lon="1.24268">
        <ele>189</ele>
        <time>2024-07-30T07:00:00Z</time>
      </trkpt>
      <trkpt lat="43.48328" lon="1.24262">
        <ele>189.2</ele>
        <time>2024-07-30T07:00:01Z</time>
      </trkpt>
      <trkpt lat="43.48322" lon="1.24257">
        <ele>189.2</ele>
        <time>2024-07-30T07:00:02Z</time>
      </trkpt>
      <trkpt lat="43.48317" lon="1.24252">
        <ele>189.2</ele>
        <time>2024-07-30T07:00:03Z</time>
      </trkpt>
      <trkpt lat="43.48311" lon="1.24247">
        <ele>189.2</ele>
        <time>2024-07-30T07:00:04Z</time>
      </trkpt>
      <trkpt lat="43.48305" lon="1.24242">
        <ele>189.4</ele>
        <time>2024-07-30T07:00:05Z</time>
      </trkpt>
      <trkpt lat="43.483" lon="1.24237">
        <ele>189.4</ele>
        <time>2024-07-30T07:00:06Z</time>
      </trkpt>
      <trkpt lat="43.48294" lon="1.24233">
        <ele>189.4</ele>
        <time>2024-07-30T07:00:07Z</time>
      </trkpt>
      <trkpt lat="43.48289" lon="1.24228">
        <ele>189.4</ele>
        <time>2024-07-30T07:00:08Z</time>
      </trkpt>
      <trkpt lat="43.48284" lon="1.24223">
        <ele>189.4</ele>
        <time>2024-07-30T07:00:09Z</time>
      </trkpt>
      <trkpt lat="43.48279" lon="1.24219">
        <ele>189.4</ele>
        <time>2024-07-30T07:00:10Z</time>
      </trkpt>
      <trkpt lat="43.48273" lon="1.24214">
        <ele>189.4</ele>
        <time>2024-07-30T07:00:11Z</time>
      </trkpt>
      <trkpt lat="43.48268" lon="1.2421">
        <ele>189.4</ele>
        <time>2024-07-30T07:00:12Z</time>
      </trkpt>
      <trkpt lat="43.48262" lon="1.24205">
        <ele>189.2</ele>
        <time>2024-07-30T07:00:13Z</time>
      </trkpt>
      <trkpt lat="43.48257" lon="1.242">
        <ele>189.2</ele>
        <time>2024-07-30T07:00:14Z</time>
      </trkpt>
      <trkpt lat="43.48251" lon="1.24195">
        <ele>189.2</ele>
        <time>2024-07-30T07:00:15Z</time>
      </trkpt>
      <trkpt lat="43.48246" lon="1.2419">
        <ele>189.2</ele>
        <time>2024-07-30T07:00:16Z</time>
      </trkpt>
      <trkpt lat="43.4824" lon="1.24185">
        <ele>189.2</ele>
        <time>2024-07-30T07:00:17Z</time>
      </trkpt>
      <trkpt lat="43.48235" lon="1.2418">
        <ele>189.2</ele>
        <time>2024-07-30T07:00:18Z</time>
      </trkpt>
      <trkpt lat="43.4823" lon="1.24176">
        <ele>189.2</ele>
        <time>2024-07-30T07:00:19Z</time>
      </trkpt>
      <trkpt lat="43.48225" lon="1.24171">
        <ele>189.2</ele>
        <time>2024-07-30T07:00:20Z</time>
      </trkpt>
      <trkpt lat="43.48219" lon="1.24167">
        <ele>189.2</ele>
        <time>2024-07-30T07:00:21Z</time>
      </trkpt>
      <trkpt lat="43.48214" lon="1.24164">
        <ele>189.4</ele>
        <time>2024-07-30T07:00:22Z</time>
      </trkpt>
      <trkpt lat="43.48208" lon="1.2416">
        <ele>189.4</ele>
        <time>2024-07-30T07:00:23Z</time>
      </trkpt>
      <trkpt lat="43.48203" lon="1.24157">
        <ele>189.6</ele>
        <time>2024-07-30T07:00:24Z</time>
      </trkpt>
      <trkpt lat="43.48197" lon="1.24154">
        <ele>189.6</ele>
        <time>2024-07-30T07:00:25Z</time>
      </trkpt>
      <trkpt lat="43.48192" lon="1.24149">
        <ele>189.8</ele>
        <time>2024-07-30T07:00:26Z</time>
      </trkpt>
      <trkpt lat="43.48186" lon="1.24144">
        <ele>189.8</ele>
        <time>2024-07-30T07:00:27Z</time>
      </trkpt>
      <trkpt lat="43.48182" lon="1.24138">
        <ele>189.8</ele>
        <time>2024-07-30T07:00:28Z</time>
      </trkpt>
      <trkpt lat="43.48177" lon="1.24131">
        <ele>189.8</ele>
        <time>2024-07-30T07:00:29Z</time>
      </trkpt>
      <trkpt lat="43.48173" lon="1.24124">
        <ele>189.8</ele>
        <time>2024-07-30T07:00:30Z</time>
      </trkpt>
      <trkpt lat="43.48168" lon="1.24117">
        <ele>190</ele>
        <time>2024-07-30T07:00:31Z</time>
      </trkpt>
      <trkpt lat="43.48163" lon="1.24111">
        <ele>190</ele>
        <time>2024-07-30T07:00:32Z</time>
      </trkpt>
      <trkpt lat="43.48157" lon="1.24106">
        <ele>190</ele>
        <time>2024-07-30T07:00:33Z</time>
      </trkpt>
      <trkpt lat="43.48152" lon="1.241">
        <ele>190</ele>
        <time>2024-07-30T07:00:34Z</time>
      </trkpt>
      <trkpt lat="43.48146" lon="1.24095">
        <ele>190</ele>
        <time>2024-07-30T07:00:35Z</time>
      </trkpt>
      <trkpt lat="43.4814" lon="1.2409">
        <ele>190</ele>
        <time>2024-07-30T07:00:36Z</time>
      </trkpt>
      <trkpt lat="43.48133" lon="1.24085">
        <ele>190</ele>
        <time>2024-07-30T07:00:37Z</time>
      </trkpt>
      <trkpt lat="43.48127" lon="1.24081">
        <ele>190</ele>
        <time>2024-07-30T07:00:38Z</time>
      </trkpt>
      <trkpt lat="43.48121" lon="1.24076">
        <ele>190</ele>
        <time>2024-07-30T07:00:39Z</time>
      </trkpt>
      <trkpt lat="43.48114" lon="1.24072">
        <ele>190</ele>
        <time>2024-07-30T07:00:40Z</time>
      </trkpt>
      <trkpt lat="43.48108" lon="1.24069">
        <ele>190</ele>
        <time>2024-07-30T07:00:41Z</time>
      </trkpt>
      <trkpt lat="43.48101" lon="1.24065">
        <ele>190</ele>
        <time>2024-07-30T07:00:42Z</time>
      </trkpt>
      <trkpt lat="43.48095" lon="1.24062">
        <ele>190</ele>
        <time>2024-07-30T07:00:43Z</time>
      </trkpt>
      <trkpt lat="43.48088" lon="1.24058">
        <ele>190</ele>
        <time>2024-07-30T07:00:44Z</time>
      </trkpt>
      <trkpt lat="43.48082" lon="1.24055">
        <ele>190</ele>
        <time>2024-07-30T07:00:45Z</time>
      </trkpt>
      <trkpt lat="43.48075" lon="1.24052">
        <ele>190</ele>
        <time>2024-07-30T07:00:46Z</time>
      </trkpt>
      <trkpt lat="43.48069" lon="1.24048">
        <ele>190</ele>
        <time>2024-07-30T07:00:47Z</time>
      </trkpt>
      <trkpt lat="43.48063" lon="1.24045">
        <ele>190</ele>
        <time>2024-07-30T07:00:48Z</time>
      </trkpt>
      <trkpt lat="43.48056" lon="1.24042">
        <ele>190</ele>
        <time>2024-07-30T07:00:49Z</time>
      </trkpt>
      <trkpt lat="43.48049" lon="1.24038">
        <ele>189.8</ele>
        <time>2024-07-30T07:00:50Z</time>
      </trkpt>
      <trkpt lat="43.48043" lon="1.24035">
        <ele>189.8</ele>
        <time>2024-07-30T07:00:51Z</time>
      </trkpt>
      <trkpt lat="43.48036" lon="1.24032">
        <ele>190</ele>
        <time>2024-07-30T07:00:52Z</time>
      </trkpt>
      <trkpt lat="43.48029" lon="1.24028">
        <ele>190</ele>
        <time>2024-07-30T07:00:53Z</time>
      </trkpt>
      <trkpt lat="43.48023" lon="1.24024">
        <ele>190</ele>
        <time>2024-07-30T07:00:54Z</time>
      </trkpt>
      <trkpt lat="43.48016" lon="1.2402">
        <ele>190.2</ele>
        <time>2024-07-30T07:00:55Z</time>
      </trkpt>
      <trkpt lat="43.48009" lon="1.24017">
        <ele>190.2</ele>
        <time>2024-07-30T07:00:56Z</time>
      </trkpt>
      <trkpt lat="43.48002" lon="1.24013">
        <ele>190.2</ele>
        <time>2024-07-30T07:00:57Z</time>
      </trkpt>
      <trkpt lat="43.47995" lon="1.2401">
        <ele>190.2</ele>
        <time>2024-07-30T07:00:58Z</time>
      </trkpt>
      <trkpt lat="43.47989" lon="1.24006">
        <ele>190.2</ele>
        <time>2024-07-30T07:00:59Z</time>
      </trkpt>
      <trkpt lat="43.47982" lon="1.24002">
        <ele>190.4</ele>
        <time>2024-07-30T07:01:00Z</time>
      </trkpt>
      <trkpt lat="43.47975" lon="1.23998">
        <ele>190.4</ele>
        <time>2024-07-30T07:01:01Z</time>
      </trkpt>
      <trkpt lat="43.47968" lon="1.23995">
        <ele>190.4</ele>
        <time>2024-07-30T07:01:02Z</time>
      </trkpt>
      <trkpt lat="43.47962" lon="1.23991">
        <ele>190.4</ele>
        <time>2024-07-30T07:01:03Z</time>
      </trkpt>
      <trkpt lat="43.47955" lon="1.23987">
        <ele>190.4</ele>
        <time>2024-07-30T07:01:04Z</time>
      </trkpt>
      <trkpt lat="43.47947" lon="1.23982">
        <ele>190.4</ele>
        <time>2024-07-30T07:01:05Z</time>
      </trkpt>
      <trkpt lat="43.4794" lon="1.23978">
        <ele>190.4</ele>
        <time>2024-07-30T07:01:06Z</time>
      </trkpt>
      <trkpt lat="43.47933" lon="1.23975">
        <ele>190.4</ele>
        <time>2024-07-30T07:01:07Z</time>
      </trkpt>
      <trkpt lat="43.47927" lon="1.23971">
        <ele>190.4</ele>
        <time>2024-07-30T07:01:08Z</time>
      </trkpt>
      <trkpt lat="43.47921" lon="1.23968">
        <ele>190.6</ele>
        <time>2024-07-30T07:01:09Z</time>
      </trkpt>
      <trkpt lat="43.47914" lon="1.23964">
        <ele>190.6</ele>
        <time>2024-07-30T07:01:10Z</time>
      </trkpt>
      <trkpt lat="43.47906" lon="1.23959">
        <ele>190.6</ele>
        <time>2024-07-30T07:01:11Z</time>
      </trkpt>
      <trkpt lat="43.47899" lon="1.23955">
        <ele>190.6</ele>
        <time>2024-07-30T07:01:12Z</time>
      </trkpt>
      <trkpt lat="43.47894" lon="1.23952">
        <ele>190.6</ele>
        <time>2024-07-30T07:01:13Z</time>
      </trkpt>
      <trkpt lat="43.47887" lon="1.23949">
        <ele>190.6</ele>
        <time>2024-07-30T07:01:14Z</time>
      </trkpt>
      <trkpt lat="43.47878" lon="1.23945">
        <ele>190.6</ele>
        <time>2024-07-30T07:01:15Z</time>
      </trkpt>
      <trkpt lat="43.47871" lon="1.23942">
        <ele>190.6</ele>
        <time>2024-07-30T07:01:16Z</time>
      </trkpt>
      <trkpt lat="43.47864" lon="1.23938">
        <ele>190.6</ele>
        <time>2024-07-30T07:01:17Z</time>
      </trkpt>
      <trkpt lat="43.47857" lon="1.23935">
        <ele>190.6</ele>
        <time>2024-07-30T07:01:18Z</time>
      </trkpt>
      <trkpt lat="43.47849" lon="1.23932">
        <ele>190.6</ele>
        <time>2024-07-30T07:01:19Z</time>
      </trkpt>
      <trkpt lat="43.47842" lon="1.23929">
        <ele>190.6</ele>
        <time>2024-07-30T07:01:20Z</time>
      </trkpt>
      <trkpt lat="43.47835" lon="1.23925">
        <ele>190.6</ele>
        <time>2024-07-30T07:01:21Z</time>
      </trkpt>
      <trkpt lat="43.47828" lon="1.23921">
        <ele>190.6</ele>
        <time>2024-07-30T07:01:22Z</time>
      </trkpt>
      <trkpt lat="43.47823" lon="1.23918">
        <ele>190.6</ele>
        <time>2024-07-30T07:01:23Z</time>
      </trkpt>
      <trkpt lat="43.47815" lon="1.23913">
        <ele>190.6</ele>
        <time>2024-07-30T07:01:24Z</time>
      </trkpt>
      <trkpt lat="43.47808" lon="1.23908">
        <ele>190.6</ele>
        <time>2024-07-30T07:01:25Z</time>
      </trkpt>
      <trkpt lat="43.47802" lon="1.23904">
        <ele>190.6</ele>
        <time>2024-07-30T07:01:26Z</time>
      </trkpt>
      <trkpt lat="43.47795" lon="1.23899">
        <ele>190.6</ele>
        <time>2024-07-30T07:01:27Z</time>
      </trkpt>
      <trkpt lat="43.47789" lon="1.23894">
        <ele>190.6</ele>
        <time>2024-07-30T07:01:28Z</time>
      </trkpt>
      <trkpt lat="43.47783" lon="1.23889">
        <ele>190.6</ele>
        <time>2024-07-30T07:01:29Z</time>
      </trkpt>
      <trkpt lat="43.47777" lon="1.23884">
        <ele>190.6</ele>
        <time>2024-07-30T07:01:30Z</time>
      </trkpt>
      <trkpt lat="43.47772" lon="1.2388">
        <ele>190.6</ele>
        <time>2024-07-30T07:01:31Z</time>
      </trkpt>
      <trkpt lat="43.47766" lon="1.23875">
        <ele>190.6</ele>
        <time>2024-07-30T07:01:32Z</time>
      </trkpt>
      <trkpt lat="43.47758" lon="1.23869">
        <ele>190.6</ele>
        <time>2024-07-30T07:01:33Z</time>
      </trkpt>
      <trkpt lat="43.47752" lon="1.23865">
        <ele>190.6</ele>
        <time>2024-07-30T07:01:34Z</time>
      </trkpt>
      <trkpt lat="43.47746" lon="1.2386">
        <ele>190.6</ele>
        <time>2024-07-30T07:01:35Z</time>
      </trkpt>
      <trkpt lat="43.47741" lon="1.23856">
        <ele>190.6</ele>
        <time>2024-07-30T07:01:36Z</time>
      </trkpt>
      <trkpt lat="43.47734" lon="1.2385">
        <ele>190.6</ele>
        <time>2024-07-30T07:01:37Z</time>
      </trkpt>
      <trkpt lat="43.47728" lon="1.23845">
        <ele>190.6</ele>
        <time>2024-07-30T07:01:38Z</time>
      </trkpt>
      <trkpt lat="43.47722" lon="1.2384">
        <ele>190.6</ele>
        <time>2024-07-30T07:01:39Z</time>
      </trkpt>
      <trkpt lat="43.47716" lon="1.23836">
        <ele>190.6</ele>
        <time>2024-07-30T07:01:40Z</time>
      </trkpt>
      <trkpt lat="43.47711" lon="1.23832">
        <ele>190.6</ele>
        <time>2024-07-30T07:01:41Z</time>
      </trkpt>
      <trkpt lat="43.47705" lon="1.23827">
        <ele>190.8</ele>
        <time>2024-07-30T07:01:42Z</time>
      </trkpt>
      <trkpt lat="43.47699" lon="1.23823">
        <ele>190.8</ele>
        <time>2024-07-30T07:01:43Z</time>
      </trkpt>
      <trkpt lat="43.47692" lon="1.23817">
        <ele>190.8</ele>
        <time>2024-07-30T07:01:44Z</time>
      </trkpt>
      <trkpt lat="43.47687" lon="1.23813">
        <ele>190.8</ele>
        <time>2024-07-30T07:01:45Z</time>
      </trkpt>
      <trkpt lat="43.47681" lon="1.23808">
        <ele>190.6</ele>
        <time>2024-07-30T07:01:46Z</time>
      </trkpt>
      <trkpt lat="43.47674" lon="1.23803">
        <ele>190.6</ele>
        <time>2024-07-30T07:01:47Z</time>
      </trkpt>
      <trkpt lat="43.47668" lon="1.23798">
        <ele>190.6</ele>
        <time>2024-07-30T07:01:48Z</time>
      </trkpt>
      <trkpt lat="43.47663" lon="1.23794">
        <ele>190.6</ele>
        <time>2024-07-30T07:01:49Z</time>
      </trkpt>
      <trkpt lat="43.47656" lon="1.23789">
        <ele>190.6</ele>
        <time>2024-07-30T07:01:50Z</time>
      </trkpt>
      <trkpt lat="43.4765" lon="1.23785">
        <ele>190.6</ele>
        <time>2024-07-30T07:01:51Z</time>
      </trkpt>
      <trkpt lat="43.47644" lon="1.2378">
        <ele>190.6</ele>
        <time>2024-07-30T07:01:52Z</time>
      </trkpt>
      <trkpt lat="43.47636" lon="1.23775">
        <ele>190.6</ele>
        <time>2024-07-30T07:01:53Z</time>
      </trkpt>
      <trkpt lat="43.47631" lon="1.23773">
        <ele>190.6</ele>
        <time>2024-07-30T07:01:54Z</time>
      </trkpt>
      <trkpt lat="43.47624" lon="1.23769">
        <ele>190.6</ele>
        <time>2024-07-30T07:01:55Z</time>
      </trkpt>
      <trkpt lat="43.47617" lon="1.23766">
        <ele>190.6</ele>
        <time>2024-07-30T07:01:56Z</time>
      </trkpt>
      <trkpt lat="43.4761" lon="1.23764">
        <ele>190.6</ele>
        <time>2024-07-30T07:01:57Z</time>
      </trkpt>
      <trkpt lat="43.47602" lon="1.23761">
        <ele>190.8</ele>
        <time>2024-07-30T07:01:58Z</time>
      </trkpt>
      <trkpt lat="43.47596" lon="1.23759">
        <ele>190.8</ele>
        <time>2024-07-30T07:01:59Z</time>
      </trkpt>
      <trkpt lat="43.47589" lon="1.23757">
        <ele>190.8</ele>
        <time>2024-07-30T07:02:00Z</time>
      </trkpt>
      <trkpt lat="43.47582" lon="1.23755">
        <ele>191</ele>
        <time>2024-07-30T07:02:01Z</time>
      </trkpt>
      <trkpt lat="43.47575" lon="1.23754">
        <ele>191</ele>
        <time>2024-07-30T07:02:02Z</time>
      </trkpt>
      <trkpt lat="43.47567" lon="1.23751">
        <ele>191</ele>
        <time>2024-07-30T07:02:03Z</time>
      </trkpt>
      <trkpt lat="43.47561" lon="1.2375">
        <ele>191</ele>
        <time>2024-07-30T07:02:04Z</time>
      </trkpt>
      <trkpt lat="43.47555" lon="1.23748">
        <ele>191</ele>
        <time>2024-07-30T07:02:05Z</time>
      </trkpt>
      <trkpt lat="43.47548" lon="1.23746">
        <ele>191</ele>
        <time>2024-07-30T07:02:06Z</time>
      </trkpt>
      <trkpt lat="43.4754" lon="1.23744">
        <ele>191.2</ele>
        <time>2024-07-30T07:02:07Z</time>
      </trkpt>
      <trkpt lat="43.47534" lon="1.23742">
        <ele>191.2</ele>
        <time>2024-07-30T07:02:08Z</time>
      </trkpt>
      <trkpt lat="43.47527" lon="1.23741">
        <ele>191.2</ele>
        <time>2024-07-30T07:02:09Z</time>
      </trkpt>
      <trkpt lat="43.47521" lon="1.23739">
        <ele>191.2</ele>
        <time>2024-07-30T07:02:10Z</time>
      </trkpt>
      <trkpt lat="43.47514" lon="1.23737">
        <ele>191.2</ele>
        <time>2024-07-30T07:02:11Z</time>
      </trkpt>
      <trkpt lat="43.47506" lon="1.23735">
        <ele>191.2</ele>
        <time>2024-07-30T07:02:12Z</time>
      </trkpt>
      <trkpt lat="43.47501" lon="1.23734">
        <ele>191.2</ele>
        <time>2024-07-30T07:02:13Z</time>
      </trkpt>
      <trkpt lat="43.47494" lon="1.23732">
        <ele>191.4</ele>
        <time>2024-07-30T07:02:14Z</time>
      </trkpt>
      <trkpt lat="43.47487" lon="1.2373">
        <ele>191.6</ele>
        <time>2024-07-30T07:02:15Z</time>
      </trkpt>
      <trkpt lat="43.47481" lon="1.23728">
        <ele>191.6</ele>
        <time>2024-07-30T07:02:16Z</time>
      </trkpt>
      <trkpt lat="43.47475" lon="1.23726">
        <ele>191.6</ele>
        <time>2024-07-30T07:02:17Z</time>
      </trkpt>
      <trkpt lat="43.47468" lon="1.23724">
        <ele>191.6</ele>
        <time>2024-07-30T07:02:18Z</time>
      </trkpt>
      <trkpt lat="43.47461" lon="1.23722">
        <ele>191.6</ele>
        <time>2024-07-30T07:02:19Z</time>
      </trkpt>
      <trkpt lat="43.47454" lon="1.2372">
        <ele>191.6</ele>
        <time>2024-07-30T07:02:20Z</time>
      </trkpt>
      <trkpt lat="43.47448" lon="1.23719">
        <ele>191.6</ele>
        <time>2024-07-30T07:02:21Z</time>
      </trkpt>
      <trkpt lat="43.47442" lon="1.23717">
        <ele>191.6</ele>
        <time>2024-07-30T07:02:22Z</time>
      </trkpt>
      <trkpt lat="43.47435" lon="1.23715">
        <ele>191.6</ele>
        <time>2024-07-30T07:02:23Z</time>
      </trkpt>
      <trkpt lat="43.47428" lon="1.23713">
        <ele>191.4</ele>
        <time>2024-07-30T07:02:24Z</time>
      </trkpt>
      <trkpt lat="43.47422" lon="1.23712">
        <ele>191.4</ele>
        <time>2024-07-30T07:02:25Z</time>
      </trkpt>
      <trkpt lat="43.47413" lon="1.23709">
        <ele>191.4</ele>
        <time>2024-07-30T07:02:26Z</time>
      </trkpt>
      <trkpt lat="43.47408" lon="1.23708">
        <ele>191.4</ele>
        <time>2024-07-30T07:02:27Z</time>
      </trkpt>
      <trkpt lat="43.47401" lon="1.23706">
        <ele>191.4</ele>
        <time>2024-07-30T07:02:28Z</time>
      </trkpt>
      <trkpt lat="43.47393" lon="1.23704">
        <ele>191.4</ele>
        <time>2024-07-30T07:02:29Z</time>
      </trkpt>
      <trkpt lat="43.47388" lon="1.23702">
        <ele>191.4</ele>
        <time>2024-07-30T07:02:30Z</time>
      </trkpt>
      <trkpt lat="43.4738" lon="1.237">
        <ele>191.4</ele>
        <time>2024-07-30T07:02:31Z</time>
      </trkpt>
      <trkpt lat="43.47374" lon="1.23698">
        <ele>191.4</ele>
        <time>2024-07-30T07:02:32Z</time>
      </trkpt>
      <trkpt lat="43.47368" lon="1.23697">
        <ele>191.4</ele>
        <time>2024-07-30T07:02:33Z</time>
      </trkpt>
      <trkpt lat="43.47361" lon="1.23695">
        <ele>191.6</ele>
        <time>2024-07-30T07:02:34Z</time>
      </trkpt>
      <trkpt lat="43.47353" lon="1.23692">
        <ele>191.6</ele>
        <time>2024-07-30T07:02:35Z</time>
      </trkpt>
      <trkpt lat="43.47346" lon="1.2369">
        <ele>191.6</ele>
        <time>2024-07-30T07:02:36Z</time>
      </trkpt>
      <trkpt lat="43.47341" lon="1.23688">
        <ele>191.6</ele>
        <time>2024-07-30T07:02:37Z</time>
      </trkpt>
      <trkpt lat="43.47334" lon="1.23686">
        <ele>191.8</ele>
        <time>2024-07-30T07:02:38Z</time>
      </trkpt>
      <trkpt lat="43.47327" lon="1.23683">
        <ele>191.8</ele>
        <time>2024-07-30T07:02:39Z</time>
      </trkpt>
      <trkpt lat="43.4732" lon="1.2368">
        <ele>191.8</ele>
        <time>2024-07-30T07:02:40Z</time>
      </trkpt>
      <trkpt lat="43.47314" lon="1.23678">
        <ele>191.8</ele>
        <time>2024-07-30T07:02:41Z</time>
      </trkpt>
      <trkpt lat="43.47308" lon="1.23675">
        <ele>192</ele>
        <time>2024-07-30T07:02:42Z</time>
      </trkpt>
      <trkpt lat="43.473" lon="1.23672">
        <ele>192</ele>
        <time>2024-07-30T07:02:43Z</time>
      </trkpt>
      <trkpt lat="43.47295" lon="1.2367">
        <ele>192</ele>
        <time>2024-07-30T07:02:44Z</time>
      </trkpt>
      <trkpt lat="43.47287" lon="1.23666">
        <ele>192</ele>
        <time>2024-07-30T07:02:45Z</time>
      </trkpt>
      <trkpt lat="43.47282" lon="1.23664">
        <ele>192</ele>
        <time>2024-07-30T07:02:46Z</time>
      </trkpt>
      <trkpt lat="43.47276" lon="1.23662">
        <ele>192.2</ele>
        <time>2024-07-30T07:02:47Z</time>
      </trkpt>
      <trkpt lat="43.47269" lon="1.23659">
        <ele>192.2</ele>
        <time>2024-07-30T07:02:48Z</time>
      </trkpt>
      <trkpt lat="43.47263" lon="1.23656">
        <ele>192.2</ele>
        <time>2024-07-30T07:02:49Z</time>
      </trkpt>
      <trkpt lat="43.47257" lon="1.23653">
        <ele>192.2</ele>
        <time>2024-07-30T07:02:50Z</time>
      </trkpt>
      <trkpt lat="43.4725" lon="1.23651">
        <ele>192.2</ele>
        <time>2024-07-30T07:02:51Z</time>
      </trkpt>
      <trkpt lat="43.47244" lon="1.23648">
        <ele>192.2</ele>
        <time>2024-07-30T07:02:52Z</time>
      </trkpt>
      <trkpt lat="43.47237" lon="1.23645">
        <ele>192.2</ele>
        <time>2024-07-30T07:02:53Z</time>
      </trkpt>
      <trkpt lat="43.4723" lon="1.23642">
        <ele>192.2</ele>
        <time>2024-07-30T07:02:54Z</time>
      </trkpt>
      <trkpt lat="43.47225" lon="1.2364">
        <ele>192.2</ele>
        <time>2024-07-30T07:02:55Z</time>
      </trkpt>
      <trkpt lat="43.47218" lon="1.23637">
        <ele>192.2</ele>
        <time>2024-07-30T07:02:56Z</time>
      </trkpt>
      <trkpt lat="43.47212" lon="1.23634">
        <ele>192.4</ele>
        <time>2024-07-30T07:02:57Z</time>
      </trkpt>
      <trkpt lat="43.47205" lon="1.23631">
        <ele>192.4</ele>
        <time>2024-07-30T07:02:58Z</time>
      </trkpt>
      <trkpt lat="43.47199" lon="1.23628">
        <ele>192.4</ele>
        <time>2024-07-30T07:02:59Z</time>
      </trkpt>
      <trkpt lat="43.47192" lon="1.23625">
        <ele>192.2</ele>
        <time>2024-07-30T07:03:00Z</time>
      </trkpt>
      <trkpt lat="43.47186" lon="1.23622">
        <ele>192.2</ele>
        <time>2024-07-30T07:03:01Z</time>
      </trkpt>
      <trkpt lat="43.47178" lon="1.23617">
        <ele>192.2</ele>
        <time>2024-07-30T07:03:02Z</time>
      </trkpt>
      <trkpt lat="43.47172" lon="1.23614">
        <ele>192.2</ele>
        <time>2024-07-30T07:03:03Z</time>
      </trkpt>
      <trkpt lat="43.47167" lon="1.23611">
        <ele>192.4</ele>
        <time>2024-07-30T07:03:04Z</time>
      </trkpt>
      <trkpt lat="43.47161" lon="1.23607">
        <ele>192.2</ele>
        <time>2024-07-30T07:03:05Z</time>
      </trkpt>
      <trkpt lat="43.47155" lon="1.23602">
        <ele>192.2</ele>
        <time>2024-07-30T07:03:06Z</time>
      </trkpt>
      <trkpt lat="43.47149" lon="1.23598">
        <ele>192</ele>
        <time>2024-07-30T07:03:07Z</time>
      </trkpt>
      <trkpt lat="43.47142" lon="1.23593">
        <ele>192.2</ele>
        <time>2024-07-30T07:03:08Z</time>
      </trkpt>
      <trkpt lat="43.47137" lon="1.2359">
        <ele>192</ele>
        <time>2024-07-30T07:03:09Z</time>
      </trkpt>
      <trkpt lat="43.47131" lon="1.23585">
        <ele>192</ele>
        <time>2024-07-30T07:03:10Z</time>
      </trkpt>
      <trkpt lat="43.47123" lon="1.23581">
        <ele>192</ele>
        <time>2024-07-30T07:03:11Z</time>
      </trkpt>
      <trkpt lat="43.47117" lon="1.23577">
        <ele>192</ele>
        <time>2024-07-30T07:03:12Z</time>
      </trkpt>
      <trkpt lat="43.47111" lon="1.23575">
        <ele>192</ele>
        <time>2024-07-30T07:03:13Z</time>
      </trkpt>
      <trkpt lat="43.47105" lon="1.23571">
        <ele>192</ele>
        <time>2024-07-30T07:03:14Z</time>
      </trkpt>
      <trkpt lat="43.47098" lon="1.23569">
        <ele>192</ele>
        <time>2024-07-30T07:03:15Z</time>
      </trkpt>
      <trkpt lat="43.47091" lon="1.23566">
        <ele>192</ele>
        <time>2024-07-30T07:03:16Z</time>
      </trkpt>
      <trkpt lat="43.47083" lon="1.23563">
        <ele>192</ele>
        <time>2024-07-30T07:03:17Z</time>
      </trkpt>
      <trkpt lat="43.47078" lon="1.23561">
        <ele>192</ele>
        <time>2024-07-30T07:03:18Z</time>
      </trkpt>
      <trkpt lat="43.47071" lon="1.23558">
        <ele>192</ele>
        <time>2024-07-30T07:03:19Z</time>
      </trkpt>
      <trkpt lat="43.47065" lon="1.23556">
        <ele>192</ele>
        <time>2024-07-30T07:03:20Z</time>
      </trkpt>
      <trkpt lat="43.47059" lon="1.23553">
        <ele>192</ele>
        <time>2024-07-30T07:03:21Z</time>
      </trkpt>
      <trkpt lat="43.47053" lon="1.23551">
        <ele>192</ele>
        <time>2024-07-30T07:03:22Z</time>
      </trkpt>
      <trkpt lat="43.47046" lon="1.23548">
        <ele>192</ele>
        <time>2024-07-30T07:03:23Z</time>
      </trkpt>
      <trkpt lat="43.4704" lon="1.23546">
        <ele>192</ele>
        <time>2024-07-30T07:03:24Z</time>
      </trkpt>
      <trkpt lat="43.47032" lon="1.23543">
        <ele>192</ele>
        <time>2024-07-30T07:03:25Z</time>
      </trkpt>
      <trkpt lat="43.47028" lon="1.23541">
        <ele>192</ele>
        <time>2024-07-30T07:03:26Z</time>
      </trkpt>
      <trkpt lat="43.47022" lon="1.23538">
        <ele>192</ele>
        <time>2024-07-30T07:03:27Z</time>
      </trkpt>
      <trkpt lat="43.47015" lon="1.23536">
        <ele>192</ele>
        <time>2024-07-30T07:03:28Z</time>
      </trkpt>
      <trkpt lat="43.47009" lon="1.23533">
        <ele>192</ele>
        <time>2024-07-30T07:03:29Z</time>
      </trkpt>
      <trkpt lat="43.47003" lon="1.23531">
        <ele>191.8</ele>
        <time>2024-07-30T07:03:30Z</time>
      </trkpt>
      <trkpt lat="43.46995" lon="1.23528">
        <ele>191.8</ele>
        <time>2024-07-30T07:03:31Z</time>
      </trkpt>
      <trkpt lat="43.4699" lon="1.23526">
        <ele>192</ele>
        <time>2024-07-30T07:03:32Z</time>
      </trkpt>
      <trkpt lat="43.46984" lon="1.23523">
        <ele>192</ele>
        <time>2024-07-30T07:03:33Z</time>
      </trkpt>
      <trkpt lat="43.46978" lon="1.2352">
        <ele>192</ele>
        <time>2024-07-30T07:03:34Z</time>
      </trkpt>
      <trkpt lat="43.46971" lon="1.23518">
        <ele>192</ele>
        <time>2024-07-30T07:03:35Z</time>
      </trkpt>
      <trkpt lat="43.46964" lon="1.23515">
        <ele>192</ele>
        <time>2024-07-30T07:03:36Z</time>
      </trkpt>
      <trkpt lat="43.46959" lon="1.23512">
        <ele>192</ele>
        <time>2024-07-30T07:03:37Z</time>
      </trkpt>
      <trkpt lat="43.46953" lon="1.2351">
        <ele>192</ele>
        <time>2024-07-30T07:03:38Z</time>
      </trkpt>
      <trkpt lat="43.46945" lon="1.23507">
        <ele>192</ele>
        <time>2024-07-30T07:03:39Z</time>
      </trkpt>
      <trkpt lat="43.46939" lon="1.23505">
        <ele>192</ele>
        <time>2024-07-30T07:03:40Z</time>
      </trkpt>
      <trkpt lat="43.46935" lon="1.23503">
        <ele>192</ele>
        <time>2024-07-30T07:03:41Z</time>
      </trkpt>
      <trkpt lat="43.46929" lon="1.235">
        <ele>192</ele>
        <time>2024-07-30T07:03:42Z</time>
      </trkpt>
      <trkpt lat="43.46923" lon="1.23498">
        <ele>192</ele>
        <time>2024-07-30T07:03:43Z</time>
      </trkpt>
      <trkpt lat="43.46917" lon="1.23495">
        <ele>192</ele>
        <time>2024-07-30T07:03:44Z</time>
      </trkpt>
      <trkpt lat="43.46911" lon="1.23493">
        <ele>192</ele>
        <time>2024-07-30T07:03:45Z</time>
      </trkpt>
      <trkpt lat="43.46905" lon="1.2349">
        <ele>192</ele>
        <time>2024-07-30T07:03:46Z</time>
      </trkpt>
      <trkpt lat="43.46899" lon="1.23488">
        <ele>192</ele>
        <time>2024-07-30T07:03:47Z</time>
      </trkpt>
      <trkpt lat="43.46893" lon="1.23485">
        <ele>192</ele>
        <time>2024-07-30T07:03:48Z</time>
      </trkpt>
      <trkpt lat="43.46887" lon="1.23483">
        <ele>192.2</ele>
        <time>2024-07-30T07:03:49Z</time>
      </trkpt>
      <trkpt lat="43.46881" lon="1.2348">
        <ele>192.2</ele>
        <time>2024-07-30T07:03:50Z</time>
      </trkpt>
      <trkpt lat="43.46874" lon="1.23477">
        <ele>192.4</ele>
        <time>2024-07-30T07:03:51Z</time>
      </trkpt>
      <trkpt lat="43.4687" lon="1.23476">
        <ele>192.4</ele>
        <time>2024-07-30T07:03:52Z</time>
      </trkpt>
      <trkpt lat="43.46865" lon="1.23474">
        <ele>192.4</ele>
        <time>2024-07-30T07:03:53Z</time>
      </trkpt>
      <trkpt lat="43.46859" lon="1.23471">
        <ele>192.6</ele>
        <time>2024-07-30T07:03:54Z</time>
      </trkpt>
      <trkpt lat="43.46854" lon="1.23469">
        <ele>192.6</ele>
        <time>2024-07-30T07:03:55Z</time>
      </trkpt>
      <trkpt lat="43.46851" lon="1.23468">
        <ele>192.6</ele>
        <time>2024-07-30T07:03:56Z</time>
      </trkpt>
      <trkpt lat="43.46847" lon="1.23466">
        <ele>192.6</ele>
        <time>2024-07-30T07:03:57Z</time>
      </trkpt>
      <trkpt lat="43.46844" lon="1.23465">
        <ele>192.6</ele>
        <time>2024-07-30T07:03:58Z</time>
      </trkpt>
      <trkpt lat="43.46841" lon="1.23464">
        <ele>192.6</ele>
        <time>2024-07-30T07:03:59Z</time>
      </trkpt>
      <trkpt lat="43.46838" lon="1.23462">
        <ele>192.6</ele>
        <time>2024-07-30T07:04:00Z</time>
      </trkpt>
      <trkpt lat="43.46836" lon="1.23462">
        <ele>192.6</ele>
        <time>2024-07-30T07:04:01Z</time>
      </trkpt>
      <trkpt lat="43.46834" lon="1.23461">
        <ele>192.6</ele>
        <time>2024-07-30T07:04:02Z</time>
      </trkpt>
      <trkpt lat="43.46832" lon="1.2346">
        <ele>192.6</ele>
        <time>2024-07-30T07:04:03Z</time>
      </trkpt>
      <trkpt lat="43.46831" lon="1.2346">
        <ele>192.6</ele>
        <time>2024-07-30T07:04:04Z</time>
      </trkpt>
      <trkpt lat="43.4683" lon="1.23459">
        <ele>192.6</ele>
        <time>2024-07-30T07:04:05Z</time>
      </trkpt>
      <trkpt lat="43.46829" lon="1.23459">
        <ele>192.6</ele>
        <time>2024-07-30T07:04:06Z</time>
      </trkpt>
      <trkpt lat="43.46827" lon="1.23458">
        <ele>192.6</ele>
        <time>2024-07-30T07:04:07Z</time>
      </trkpt>
      <trkpt lat="43.46826" lon="1.23458">
        <ele>192.4</ele>
        <time>2024-07-30T07:04:08Z</time>
      </trkpt>
      <trkpt lat="43.46824" lon="1.23457">
        <ele>192.4</ele>
        <time>2024-07-30T07:04:09Z</time>
      </trkpt>
      <trkpt lat="43.46823" lon="1.23456">
        <ele>192.4</ele>
        <time>2024-07-30T07:04:10Z</time>
      </trkpt>
      <trkpt lat="43.46822" lon="1.23455">
        <ele>192.4</ele>
        <time>2024-07-30T07:04:11Z</time>
      </trkpt>
      <trkpt lat="43.46821" lon="1.23455">
        <ele>192.4</ele>
        <time>2024-07-30T07:04:12Z</time>
      </trkpt>
      <trkpt lat="43.4682" lon="1.23455">
        <ele>192.4</ele>
        <time>2024-07-30T07:04:13Z</time>
      </trkpt>
      <trkpt lat="43.4682" lon="1.23455">
        <ele>192.4</ele>
        <time>2024-07-30T07:04:14Z</time>
      </trkpt>
      <trkpt lat="43.4682" lon="1.23455">
        <ele>192.4</ele>
        <time>2024-07-30T07:04:15Z</time>
      </trkpt>
      <trkpt lat="43.46818" lon="1.23454">
        <ele>192.2</ele>
        <time>2024-07-30T07:04:42Z</time>
      </trkpt>
      <trkpt lat="43.46816" lon="1.23453">
        <ele>192.2</ele>
        <time>2024-07-30T07:04:43Z</time>
      </trkpt>
      <trkpt lat="43.46814" lon="1.23452">
        <ele>192.2</ele>
        <time>2024-07-30T07:04:44Z</time>
      </trkpt>
      <trkpt lat="43.46812" lon="1.23453">
        <ele>192.2</ele>
        <time>2024-07-30T07:04:45Z</time>
      </trkpt>
      <trkpt lat="43.4681" lon="1.23454">
        <ele>192.2</ele>
        <time>2024-07-30T07:04:46Z</time>
      </trkpt>
      <trkpt lat="43.46808" lon="1.23456">
        <ele>192.2</ele>
        <time>2024-07-30T07:04:47Z</time>
      </trkpt>
      <trkpt lat="43.46807" lon="1.23461">
        <ele>192.2</ele>
        <time>2024-07-30T07:04:48Z</time>
      </trkpt>
      <trkpt lat="43.46806" lon="1.23465">
        <ele>192.2</ele>
        <time>2024-07-30T07:04:49Z</time>
      </trkpt>
      <trkpt lat="43.46805" lon="1.23468">
        <ele>192.2</ele>
        <time>2024-07-30T07:04:50Z</time>
      </trkpt>
      <trkpt lat="43.46805" lon="1.23473">
        <ele>192.2</ele>
        <time>2024-07-30T07:04:51Z</time>
      </trkpt>
      <trkpt lat="43.46805" lon="1.23478">
        <ele>192.4</ele>
        <time>2024-07-30T07:04:52Z</time>
      </trkpt>
      <trkpt lat="43.46804" lon="1.23483">
        <ele>192.4</ele>
        <time>2024-07-30T07:04:53Z</time>
      </trkpt>
      <trkpt lat="43.46804" lon="1.23487">
        <ele>192.4</ele>
        <time>2024-07-30T07:04:54Z</time>
      </trkpt>
      <trkpt lat="43.46804" lon="1.23493">
        <ele>192.4</ele>
        <time>2024-07-30T07:04:55Z</time>
      </trkpt>
      <trkpt lat="43.46803" lon="1.235">
        <ele>192.4</ele>
        <time>2024-07-30T07:04:56Z</time>
      </trkpt>
      <trkpt lat="43.46803" lon="1.23506">
        <ele>192.4</ele>
        <time>2024-07-30T07:04:57Z</time>
      </trkpt>
      <trkpt lat="43.46803" lon="1.23512">
        <ele>192.4</ele>
        <time>2024-07-30T07:04:58Z</time>
      </trkpt>
      <trkpt lat="43.46803" lon="1.23517">
        <ele>192.4</ele>
        <time>2024-07-30T07:04:59Z</time>
      </trkpt>
      <trkpt lat="43.46802" lon="1.23524">
        <ele>192.4</ele>
        <time>2024-07-30T07:05:00Z</time>
      </trkpt>
      <trkpt lat="43.46802" lon="1.2353">
        <ele>192.4</ele>
        <time>2024-07-30T07:05:01Z</time>
      </trkpt>
      <trkpt lat="43.46802" lon="1.23538">
        <ele>192.4</ele>
        <time>2024-07-30T07:05:02Z</time>
      </trkpt>
      <trkpt lat="43.46801" lon="1.23543">
        <ele>192.4</ele>
        <time>2024-07-30T07:05:03Z</time>
      </trkpt>
      <trkpt lat="43.46801" lon="1.2355">
        <ele>192.6</ele>
        <time>2024-07-30T07:05:04Z</time>
      </trkpt>
      <trkpt lat="43.468" lon="1.23556">
        <ele>192.6</ele>
        <time>2024-07-30T07:05:05Z</time>
      </trkpt>
      <trkpt lat="43.46799" lon="1.23561">
        <ele>192.6</ele>
        <time>2024-07-30T07:05:06Z</time>
      </trkpt>
      <trkpt lat="43.46796" lon="1.23565">
        <ele>192.6</ele>
        <time>2024-07-30T07:05:07Z</time>
      </trkpt>
      <trkpt lat="43.46792" lon="1.23566">
        <ele>192.6</ele>
        <time>2024-07-30T07:05:08Z</time>
      </trkpt>
      <trkpt lat="43.46787" lon="1.23564">
        <ele>192.6</ele>
        <time>2024-07-30T07:05:09Z</time>
      </trkpt>
      <trkpt lat="43.4678" lon="1.23561">
        <ele>192.6</ele>
        <time>2024-07-30T07:05:10Z</time>
      </trkpt>
      <trkpt lat="43.46774" lon="1.23559">
        <ele>192.6</ele>
        <time>2024-07-30T07:05:11Z</time>
      </trkpt>
      <trkpt lat="43.46768" lon="1.23556">
        <ele>192.6</ele>
        <time>2024-07-30T07:05:12Z</time>
      </trkpt>
      <trkpt lat="43.46763" lon="1.23554">
        <ele>192.6</ele>
        <time>2024-07-30T07:05:13Z</time>
      </trkpt>
      <trkpt lat="43.46756" lon="1.23551">
        <ele>192.6</ele>
        <time>2024-07-30T07:05:14Z</time>
      </trkpt>
      <trkpt lat="43.4675" lon="1.23549">
        <ele>192.6</ele>
        <time>2024-07-30T07:05:15Z</time>
      </trkpt>
      <trkpt lat="43.46744" lon="1.23546">
        <ele>192.6</ele>
        <time>2024-07-30T07:05:16Z</time>
      </trkpt>
      <trkpt lat="43.46738" lon="1.23544">
        <ele>192.6</ele>
        <time>2024-07-30T07:05:17Z</time>
      </trkpt>
      <trkpt lat="43.46732" lon="1.23542">
        <ele>192.6</ele>
        <time>2024-07-30T07:05:18Z</time>
      </trkpt>
      <trkpt lat="43.46725" lon="1.23539">
        <ele>192.6</ele>
        <time>2024-07-30T07:05:19Z</time>
      </trkpt>
      <trkpt lat="43.46718" lon="1.23536">
        <ele>192.6</ele>
        <time>2024-07-30T07:05:20Z</time>
      </trkpt>
      <trkpt lat="43.46713" lon="1.23534">
        <ele>192.8</ele>
        <time>2024-07-30T07:05:21Z</time>
      </trkpt>
      <trkpt lat="43.46706" lon="1.23532">
        <ele>192.8</ele>
        <time>2024-07-30T07:05:22Z</time>
      </trkpt>
      <trkpt lat="43.467" lon="1.23529">
        <ele>192.8</ele>
        <time>2024-07-30T07:05:23Z</time>
      </trkpt>
      <trkpt lat="43.46692" lon="1.23526">
        <ele>193</ele>
        <time>2024-07-30T07:05:24Z</time>
      </trkpt>
      <trkpt lat="43.46685" lon="1.23524">
        <ele>193</ele>
        <time>2024-07-30T07:05:25Z</time>
      </trkpt>
      <trkpt lat="43.46679" lon="1.23521">
        <ele>193</ele>
        <time>2024-07-30T07:05:26Z</time>
      </trkpt>
      <trkpt lat="43.46674" lon="1.23519">
        <ele>193</ele>
        <time>2024-07-30T07:05:27Z</time>
      </trkpt>
      <trkpt lat="43.46665" lon="1.23516">
        <ele>193</ele>
        <time>2024-07-30T07:05:28Z</time>
      </trkpt>
      <trkpt lat="43.46658" lon="1.23514">
        <ele>193</ele>
        <time>2024-07-30T07:05:29Z</time>
      </trkpt>
      <trkpt lat="43.46652" lon="1.23511">
        <ele>193</ele>
        <time>2024-07-30T07:05:30Z</time>
      </trkpt>
      <trkpt lat="43.46646" lon="1.23509">
        <ele>193</ele>
        <time>2024-07-30T07:05:31Z</time>
      </trkpt>
      <trkpt lat="43.46639" lon="1.23506">
        <ele>193</ele>
        <time>2024-07-30T07:05:32Z</time>
      </trkpt>
      <trkpt lat="43.46631" lon="1.23503">
        <ele>193</ele>
        <time>2024-07-30T07:05:33Z</time>
      </trkpt>
      <trkpt lat="43.46624" lon="1.23501">
        <ele>193</ele>
        <time>2024-07-30T07:05:34Z</time>
      </trkpt>
      <trkpt lat="43.46618" lon="1.23498">
        <ele>192.8</ele>
        <time>2024-07-30T07:05:35Z</time>
      </trkpt>
      <trkpt lat="43.46611" lon="1.23496">
        <ele>192.8</ele>
        <time>2024-07-30T07:05:36Z</time>
      </trkpt>
      <trkpt lat="43.46606" lon="1.23494">
        <ele>192.6</ele>
        <time>2024-07-30T07:05:37Z</time>
      </trkpt>
      <trkpt lat="43.46601" lon="1.23492">
        <ele>192.6</ele>
        <time>2024-07-30T07:05:38Z</time>
      </trkpt>
      <trkpt lat="43.46595" lon="1.2349">
        <ele>192.4</ele>
        <time>2024-07-30T07:05:39Z</time>
      </trkpt>
      <trkpt lat="43.46591" lon="1.23488">
        <ele>192.4</ele>
        <time>2024-07-30T07:05:40Z</time>
      </trkpt>
      <trkpt lat="43.46588" lon="1.23487">
        <ele>192.4</ele>
        <time>2024-07-30T07:05:41Z</time>
      </trkpt>
      <trkpt lat="43.46583" lon="1.23485">
        <ele>192.2</ele>
        <time>2024-07-30T07:05:42Z</time>
      </trkpt>
      <trkpt lat="43.46578" lon="1.23483">
        <ele>192.2</ele>
        <time>2024-07-30T07:05:43Z</time>
      </trkpt>
      <trkpt lat="43.46573" lon="1.23481">
        <ele>192</ele>
        <time>2024-07-30T07:05:44Z</time>
      </trkpt>
      <trkpt lat="43.46569" lon="1.23479">
        <ele>192</ele>
        <time>2024-07-30T07:05:45Z</time>
      </trkpt>
      <trkpt lat="43.46565" lon="1.23477">
        <ele>192</ele>
        <time>2024-07-30T07:05:46Z</time>
      </trkpt>
      <trkpt lat="43.46558" lon="1.23475">
        <ele>192</ele>
        <time>2024-07-30T07:05:47Z</time>
      </trkpt>
      <trkpt lat="43.46553" lon="1.23472">
        <ele>191.8</ele>
        <time>2024-07-30T07:05:48Z</time>
      </trkpt>
      <trkpt lat="43.46548" lon="1.23471">
        <ele>191.8</ele>
        <time>2024-07-30T07:05:49Z</time>
      </trkpt>
      <trkpt lat="43.46542" lon="1.23468">
        <ele>191.8</ele>
        <time>2024-07-30T07:05:50Z</time>
      </trkpt>
      <trkpt lat="43.46536" lon="1.23466">
        <ele>192</ele>
        <time>2024-07-30T07:05:51Z</time>
      </trkpt>
      <trkpt lat="43.4653" lon="1.23463">
        <ele>192</ele>
        <time>2024-07-30T07:05:52Z</time>
      </trkpt>
      <trkpt lat="43.46524" lon="1.23461">
        <ele>192</ele>
        <time>2024-07-30T07:05:53Z</time>
      </trkpt>
      <trkpt lat="43.46518" lon="1.23459">
        <ele>192</ele>
        <time>2024-07-30T07:05:54Z</time>
      </trkpt>
      <trkpt lat="43.46513" lon="1.23458">
        <ele>192</ele>
        <time>2024-07-30T07:05:55Z</time>
      </trkpt>
      <trkpt lat="43.46506" lon="1.23455">
        <ele>192</ele>
        <time>2024-07-30T07:05:56Z</time>
      </trkpt>
      <trkpt lat="43.46499" lon="1.23452">
        <ele>192</ele>
        <time>2024-07-30T07:05:57Z</time>
      </trkpt>
      <trkpt lat="43.46492" lon="1.23449">
        <ele>192</ele>
        <time>2024-07-30T07:05:58Z</time>
      </trkpt>
      <trkpt lat="43.46487" lon="1.23447">
        <ele>192</ele>
        <time>2024-07-30T07:05:59Z</time>
      </trkpt>
      <trkpt lat="43.4648" lon="1.23445">
        <ele>192.2</ele>
        <time>2024-07-30T07:06:00Z</time>
      </trkpt>
      <trkpt lat="43.46472" lon="1.23442">
        <ele>192.2</ele>
        <time>2024-07-30T07:06:01Z</time>
      </trkpt>
      <trkpt lat="43.46466" lon="1.2344">
        <ele>192</ele>
        <time>2024-07-30T07:06:02Z</time>
      </trkpt>
      <trkpt lat="43.4646" lon="1.23436">
        <ele>191.8</ele>
        <time>2024-07-30T07:06:03Z</time>
      </trkpt>
      <trkpt lat="43.46454" lon="1.23433">
        <ele>191.8</ele>
        <time>2024-07-30T07:06:04Z</time>
      </trkpt>
      <trkpt lat="43.46448" lon="1.23428">
        <ele>191.8</ele>
        <time>2024-07-30T07:06:05Z</time>
      </trkpt>
      <trkpt lat="43.46442" lon="1.23424">
        <ele>191.8</ele>
        <time>2024-07-30T07:06:06Z</time>
      </trkpt>
      <trkpt lat="43.46435" lon="1.2342">
        <ele>191.6</ele>
        <time>2024-07-30T07:06:07Z</time>
      </trkpt>
      <trkpt lat="43.46429" lon="1.23415">
        <ele>191.4</ele>
        <time>2024-07-30T07:06:08Z</time>
      </trkpt>
      <trkpt lat="43.46422" lon="1.23411">
        <ele>191.4</ele>
        <time>2024-07-30T07:06:09Z</time>
      </trkpt>
      <trkpt lat="43.46414" lon="1.23406">
        <ele>191.4</ele>
        <time>2024-07-30T07:06:10Z</time>
      </trkpt>
      <trkpt lat="43.46408" lon="1.23403">
        <ele>191.4</ele>
        <time>2024-07-30T07:06:11Z</time>
      </trkpt>
      <trkpt lat="43.46401" lon="1.23399">
        <ele>191.4</ele>
        <time>2024-07-30T07:06:12Z</time>
      </trkpt>
      <trkpt lat="43.46395" lon="1.23396">
        <ele>191.4</ele>
        <time>2024-07-30T07:06:13Z</time>
      </trkpt>
      <trkpt lat="43.46389" lon="1.23393">
        <ele>191.4</ele>
        <time>2024-07-30T07:06:14Z</time>
      </trkpt>
      <trkpt lat="43.46382" lon="1.2339">
        <ele>191.4</ele>
        <time>2024-07-30T07:06:15Z</time>
      </trkpt>
      <trkpt lat="43.46374" lon="1.23387">
        <ele>191.4</ele>
        <time>2024-07-30T07:06:16Z</time>
      </trkpt>
      <trkpt lat="43.46368" lon="1.23386">
        <ele>191.4</ele>
        <time>2024-07-30T07:06:17Z</time>
      </trkpt>
      <trkpt lat="43.46362" lon="1.23385">
        <ele>191.4</ele>
        <time>2024-07-30T07:06:18Z</time>
      </trkpt>
      <trkpt lat="43.46356" lon="1.23385">
        <ele>191.4</ele>
        <time>2024-07-30T07:06:19Z</time>
      </trkpt>
      <trkpt lat="43.46348" lon="1.23386">
        <ele>191.4</ele>
        <time>2024-07-30T07:06:20Z</time>
      </trkpt>
      <trkpt lat="43.46341" lon="1.23386">
        <ele>191.4</ele>
        <time>2024-07-30T07:06:21Z</time>
      </trkpt>
      <trkpt lat="43.46336" lon="1.23387">
        <ele>191.4</ele>
        <time>2024-07-30T07:06:22Z</time>
      </trkpt>
      <trkpt lat="43.46329" lon="1.23387">
        <ele>191.4</ele>
        <time>2024-07-30T07:06:23Z</time>
      </trkpt>
      <trkpt lat="43.46322" lon="1.23388">
        <ele>191.4</ele>
        <time>2024-07-30T07:06:24Z</time>
      </trkpt>
      <trkpt lat="43.46316" lon="1.23388">
        <ele>191.4</ele>
        <time>2024-07-30T07:06:25Z</time>
      </trkpt>
      <trkpt lat="43.4631" lon="1.23389">
        <ele>191.4</ele>
        <time>2024-07-30T07:06:26Z</time>
      </trkpt>
      <trkpt lat="43.46305" lon="1.2339">
        <ele>191.6</ele>
        <time>2024-07-30T07:06:27Z</time>
      </trkpt>
      <trkpt lat="43.46299" lon="1.23392">
        <ele>191.6</ele>
        <time>2024-07-30T07:06:28Z</time>
      </trkpt>
      <trkpt lat="43.46293" lon="1.23398">
        <ele>191.6</ele>
        <time>2024-07-30T07:06:29Z</time>
      </trkpt>
      <trkpt lat="43.4629" lon="1.23404">
        <ele>191.6</ele>
        <time>2024-07-30T07:06:30Z</time>
      </trkpt>
      <trkpt lat="43.46289" lon="1.23412">
        <ele>191.8</ele>
        <time>2024-07-30T07:06:31Z</time>
      </trkpt>
      <trkpt lat="43.46289" lon="1.23419">
        <ele>191.8</ele>
        <time>2024-07-30T07:06:32Z</time>
      </trkpt>
      <trkpt lat="43.46289" lon="1.23428">
        <ele>192</ele>
        <time>2024-07-30T07:06:33Z</time>
      </trkpt>
      <trkpt lat="43.4629" lon="1.23437">
        <ele>192</ele>
        <time>2024-07-30T07:06:34Z</time>
      </trkpt>
      <trkpt lat="43.4629" lon="1.23448">
        <ele>192</ele>
        <time>2024-07-30T07:06:35Z</time>
      </trkpt>
      <trkpt lat="43.4629" lon="1.23455">
        <ele>192</ele>
        <time>2024-07-30T07:06:36Z</time>
      </trkpt>
      <trkpt lat="43.4629" lon="1.23464">
        <ele>192</ele>
        <time>2024-07-30T07:06:37Z</time>
      </trkpt>
      <trkpt lat="43.4629" lon="1.23475">
        <ele>192</ele>
        <time>2024-07-30T07:06:38Z</time>
      </trkpt>
      <trkpt lat="43.46291" lon="1.23484">
        <ele>192</ele>
        <time>2024-07-30T07:06:39Z</time>
      </trkpt>
      <trkpt lat="43.46291" lon="1.23493">
        <ele>192</ele>
        <time>2024-07-30T07:06:40Z</time>
      </trkpt>
      <trkpt lat="43.46291" lon="1.235">
        <ele>192</ele>
        <time>2024-07-30T07:06:41Z</time>
      </trkpt>
      <trkpt lat="43.46292" lon="1.2351">
        <ele>192</ele>
        <time>2024-07-30T07:06:42Z</time>
      </trkpt>
      <trkpt lat="43.46292" lon="1.23521">
        <ele>191.8</ele>
        <time>2024-07-30T07:06:43Z</time>
      </trkpt>
      <trkpt lat="43.46292" lon="1.2353">
        <ele>191.8</ele>
        <time>2024-07-30T07:06:44Z</time>
      </trkpt>
      <trkpt lat="43.46292" lon="1.2354">
        <ele>191.8</ele>
        <time>2024-07-30T07:06:45Z</time>
      </trkpt>
      <trkpt lat="43.46293" lon="1.23549">
        <ele>191.8</ele>
        <time>2024-07-30T07:06:46Z</time>
      </trkpt>
      <trkpt lat="43.46293" lon="1.23559">
        <ele>191.8</ele>
        <time>2024-07-30T07:06:47Z</time>
      </trkpt>
      <trkpt lat="43.46293" lon="1.23569">
        <ele>191.8</ele>
        <time>2024-07-30T07:06:48Z</time>
      </trkpt>
      <trkpt lat="43.46292" lon="1.23578">
        <ele>191.8</ele>
        <time>2024-07-30T07:06:49Z</time>
      </trkpt>
      <trkpt lat="43.46291" lon="1.23588">
        <ele>191.8</ele>
        <time>2024-07-30T07:06:50Z</time>
      </trkpt>
      <trkpt lat="43.46291" lon="1.23595">
        <ele>191.8</ele>
        <time>2024-07-30T07:06:51Z</time>
      </trkpt>
      <trkpt lat="43.46289" lon="1.23605">
        <ele>191.8</ele>
        <time>2024-07-30T07:06:52Z</time>
      </trkpt>
      <trkpt lat="43.46289" lon="1.23615">
        <ele>191.8</ele>
        <time>2024-07-30T07:06:53Z</time>
      </trkpt>
      <trkpt lat="43.46288" lon="1.23625">
        <ele>191.8</ele>
        <time>2024-07-30T07:06:54Z</time>
      </trkpt>
      <trkpt lat="43.46287" lon="1.23634">
        <ele>191.8</ele>
        <time>2024-07-30T07:06:55Z</time>
      </trkpt>
      <trkpt lat="43.46286" lon="1.23644">
        <ele>191.8</ele>
        <time>2024-07-30T07:06:56Z</time>
      </trkpt>
      <trkpt lat="43.46285" lon="1.23653">
        <ele>191.8</ele>
        <time>2024-07-30T07:06:57Z</time>
      </trkpt>
      <trkpt lat="43.46283" lon="1.23662">
        <ele>191.8</ele>
        <time>2024-07-30T07:06:58Z</time>
      </trkpt>
      <trkpt lat="43.46282" lon="1.23672">
        <ele>192</ele>
        <time>2024-07-30T07:06:59Z</time>
      </trkpt>
      <trkpt lat="43.46281" lon="1.23679">
        <ele>192</ele>
        <time>2024-07-30T07:07:00Z</time>
      </trkpt>
      <trkpt lat="43.4628" lon="1.2369">
        <ele>192</ele>
        <time>2024-07-30T07:07:01Z</time>
      </trkpt>
      <trkpt lat="43.46279" lon="1.237">
        <ele>192</ele>
        <time>2024-07-30T07:07:02Z</time>
      </trkpt>
      <trkpt lat="43.46278" lon="1.23709">
        <ele>192</ele>
        <time>2024-07-30T07:07:03Z</time>
      </trkpt>
      <trkpt lat="43.46277" lon="1.23719">
        <ele>192</ele>
        <time>2024-07-30T07:07:04Z</time>
      </trkpt>
      <trkpt lat="43.46276" lon="1.23729">
        <ele>192</ele>
        <time>2024-07-30T07:07:05Z</time>
      </trkpt>
      <trkpt lat="43.46275" lon="1.23739">
        <ele>192</ele>
        <time>2024-07-30T07:07:06Z</time>
      </trkpt>
      <trkpt lat="43.46274" lon="1.23748">
        <ele>192</ele>
        <time>2024-07-30T07:07:07Z</time>
      </trkpt>
      <trkpt lat="43.46272" lon="1.23758">
        <ele>192</ele>
        <time>2024-07-30T07:07:08Z</time>
      </trkpt>
      <trkpt lat="43.46271" lon="1.23766">
        <ele>192</ele>
        <time>2024-07-30T07:07:09Z</time>
      </trkpt>
      <trkpt lat="43.4627" lon="1.23777">
        <ele>192</ele>
        <time>2024-07-30T07:07:10Z</time>
      </trkpt>
      <trkpt lat="43.46269" lon="1.23787">
        <ele>192</ele>
        <time>2024-07-30T07:07:11Z</time>
      </trkpt>
      <trkpt lat="43.46267" lon="1.23796">
        <ele>192</ele>
        <time>2024-07-30T07:07:12Z</time>
      </trkpt>
      <trkpt lat="43.46266" lon="1.23803">
        <ele>191.8</ele>
        <time>2024-07-30T07:07:13Z</time>
      </trkpt>
      <trkpt lat="43.46265" lon="1.23813">
        <ele>191.8</ele>
        <time>2024-07-30T07:07:14Z</time>
      </trkpt>
      <trkpt lat="43.46264" lon="1.23824">
        <ele>191.8</ele>
        <time>2024-07-30T07:07:15Z</time>
      </trkpt>
      <trkpt lat="43.46263" lon="1.23833">
        <ele>191.8</ele>
        <time>2024-07-30T07:07:16Z</time>
      </trkpt>
      <trkpt lat="43.46262" lon="1.23843">
        <ele>191.8</ele>
        <time>2024-07-30T07:07:17Z</time>
      </trkpt>
      <trkpt lat="43.46262" lon="1.23853">
        <ele>191.6</ele>
        <time>2024-07-30T07:07:18Z</time>
      </trkpt>
      <trkpt lat="43.46261" lon="1.23861">
        <ele>191.6</ele>
        <time>2024-07-30T07:07:19Z</time>
      </trkpt>
      <trkpt lat="43.46261" lon="1.23873">
        <ele>191.6</ele>
        <time>2024-07-30T07:07:20Z</time>
      </trkpt>
      <trkpt lat="43.46261" lon="1.23883">
        <ele>191.8</ele>
        <time>2024-07-30T07:07:21Z</time>
      </trkpt>
      <trkpt lat="43.46261" lon="1.23892">
        <ele>191.8</ele>
        <time>2024-07-30T07:07:22Z</time>
      </trkpt>
      <trkpt lat="43.4626" lon="1.239">
        <ele>191.8</ele>
        <time>2024-07-30T07:07:23Z</time>
      </trkpt>
      <trkpt lat="43.4626" lon="1.23911">
        <ele>191.8</ele>
        <time>2024-07-30T07:07:24Z</time>
      </trkpt>
      <trkpt lat="43.4626" lon="1.2392">
        <ele>191.8</ele>
        <time>2024-07-30T07:07:25Z</time>
      </trkpt>
      <trkpt lat="43.4626" lon="1.23929">
        <ele>191.8</ele>
        <time>2024-07-30T07:07:26Z</time>
      </trkpt>
      <trkpt lat="43.4626" lon="1.23938">
        <ele>191.8</ele>
        <time>2024-07-30T07:07:27Z</time>
      </trkpt>
      <trkpt lat="43.46259" lon="1.23947">
        <ele>191.8</ele>
        <time>2024-07-30T07:07:28Z</time>
      </trkpt>
      <trkpt lat="43.46259" lon="1.23957">
        <ele>191.8</ele>
        <time>2024-07-30T07:07:29Z</time>
      </trkpt>
      <trkpt lat="43.46259" lon="1.23966">
        <ele>191.8</ele>
        <time>2024-07-30T07:07:30Z</time>
      </trkpt>
      <trkpt lat="43.46259" lon="1.23976">
        <ele>191.8</ele>
        <time>2024-07-30T07:07:31Z</time>
      </trkpt>
      <trkpt lat="43.46259" lon="1.23983">
        <ele>191.8</ele>
        <time>2024-07-30T07:07:32Z</time>
      </trkpt>
      <trkpt lat="43.46259" lon="1.23994">
        <ele>191.8</ele>
        <time>2024-07-30T07:07:33Z</time>
      </trkpt>
      <trkpt lat="43.46259" lon="1.24004">
        <ele>191.6</ele>
        <time>2024-07-30T07:07:34Z</time>
      </trkpt>
      <trkpt lat="43.46258" lon="1.24013">
        <ele>191.6</ele>
        <time>2024-07-30T07:07:35Z</time>
      </trkpt>
      <trkpt lat="43.46258" lon="1.24022">
        <ele>191.6</ele>
        <time>2024-07-30T07:07:36Z</time>
      </trkpt>
      <trkpt lat="43.46258" lon="1.2403">
        <ele>191.6</ele>
        <time>2024-07-30T07:07:37Z</time>
      </trkpt>
      <trkpt lat="43.46258" lon="1.24041">
        <ele>191.6</ele>
        <time>2024-07-30T07:07:38Z</time>
      </trkpt>
      <trkpt lat="43.46258" lon="1.24051">
        <ele>191.6</ele>
        <time>2024-07-30T07:07:39Z</time>
      </trkpt>
      <trkpt lat="43.46258" lon="1.24061">
        <ele>191.6</ele>
        <time>2024-07-30T07:07:40Z</time>
      </trkpt>
      <trkpt lat="43.46258" lon="1.2407">
        <ele>191.6</ele>
        <time>2024-07-30T07:07:41Z</time>
      </trkpt>
      <trkpt lat="43.46258" lon="1.24079">
        <ele>191.4</ele>
        <time>2024-07-30T07:07:42Z</time>
      </trkpt>
      <trkpt lat="43.46258" lon="1.24088">
        <ele>191.4</ele>
        <time>2024-07-30T07:07:43Z</time>
      </trkpt>
      <trkpt lat="43.46257" lon="1.24097">
        <ele>191.4</ele>
        <time>2024-07-30T07:07:44Z</time>
      </trkpt>
      <trkpt lat="43.46257" lon="1.24106">
        <ele>191.4</ele>
        <time>2024-07-30T07:07:45Z</time>
      </trkpt>
      <trkpt lat="43.46257" lon="1.24116">
        <ele>191.4</ele>
        <time>2024-07-30T07:07:46Z</time>
      </trkpt>
      <trkpt lat="43.46256" lon="1.24125">
        <ele>191.4</ele>
        <time>2024-07-30T07:07:47Z</time>
      </trkpt>
      <trkpt lat="43.46256" lon="1.24135">
        <ele>191.4</ele>
        <time>2024-07-30T07:07:48Z</time>
      </trkpt>
      <trkpt lat="43.46256" lon="1.24145">
        <ele>191.4</ele>
        <time>2024-07-30T07:07:49Z</time>
      </trkpt>
      <trkpt lat="43.46256" lon="1.24154">
        <ele>191.6</ele>
        <time>2024-07-30T07:07:50Z</time>
      </trkpt>
      <trkpt lat="43.46256" lon="1.24163">
        <ele>191.6</ele>
        <time>2024-07-30T07:07:51Z</time>
      </trkpt>
      <trkpt lat="43.46255" lon="1.24173">
        <ele>191.6</ele>
        <time>2024-07-30T07:07:52Z</time>
      </trkpt>
      <trkpt lat="43.46255" lon="1.24182">
        <ele>191.6</ele>
        <time>2024-07-30T07:07:53Z</time>
      </trkpt>
      <trkpt lat="43.46255" lon="1.24192">
        <ele>191.8</ele>
        <time>2024-07-30T07:07:54Z</time>
      </trkpt>
      <trkpt lat="43.46255" lon="1.24201">
        <ele>191.6</ele>
        <time>2024-07-30T07:07:55Z</time>
      </trkpt>
      <trkpt lat="43.46254" lon="1.2421">
        <ele>191.6</ele>
        <time>2024-07-30T07:07:56Z</time>
      </trkpt>
      <trkpt lat="43.46254" lon="1.24219">
        <ele>191.6</ele>
        <time>2024-07-30T07:07:57Z</time>
      </trkpt>
      <trkpt lat="43.46254" lon="1.24229">
        <ele>191.6</ele>
        <time>2024-07-30T07:07:58Z</time>
      </trkpt>
      <trkpt lat="43.46253" lon="1.24238">
        <ele>191.6</ele>
        <time>2024-07-30T07:07:59Z</time>
      </trkpt>
      <trkpt lat="43.46253" lon="1.24247">
        <ele>191.6</ele>
        <time>2024-07-30T07:08:00Z</time>
      </trkpt>
      <trkpt lat="43.46253" lon="1.24257">
        <ele>191.4</ele>
        <time>2024-07-30T07:08:01Z</time>
      </trkpt>
      <trkpt lat="43.46253" lon="1.24266">
        <ele>191.4</ele>
        <time>2024-07-30T07:08:02Z</time>
      </trkpt>
      <trkpt lat="43.46253" lon="1.24275">
        <ele>191.4</ele>
        <time>2024-07-30T07:08:03Z</time>
      </trkpt>
      <trkpt lat="43.46253" lon="1.24283">
        <ele>191.2</ele>
        <time>2024-07-30T07:08:04Z</time>
      </trkpt>
      <trkpt lat="43.46252" lon="1.24294">
        <ele>191.2</ele>
        <time>2024-07-30T07:08:05Z</time>
      </trkpt>
      <trkpt lat="43.46252" lon="1.24302">
        <ele>191.2</ele>
        <time>2024-07-30T07:08:06Z</time>
      </trkpt>
      <trkpt lat="43.46252" lon="1.24312">
        <ele>191.2</ele>
        <time>2024-07-30T07:08:07Z</time>
      </trkpt>
      <trkpt lat="43.46252" lon="1.24321">
        <ele>191</ele>
        <time>2024-07-30T07:08:08Z</time>
      </trkpt>
      <trkpt lat="43.46252" lon="1.2433">
        <ele>191</ele>
        <time>2024-07-30T07:08:09Z</time>
      </trkpt>
      <trkpt lat="43.46252" lon="1.24339">
        <ele>191</ele>
        <time>2024-07-30T07:08:10Z</time>
      </trkpt>
      <trkpt lat="43.46252" lon="1.24348">
        <ele>191</ele>
        <time>2024-07-30T07:08:11Z</time>
      </trkpt>
      <trkpt lat="43.46251" lon="1.24357">
        <ele>191</ele>
        <time>2024-07-30T07:08:12Z</time>
      </trkpt>
      <trkpt lat="43.46251" lon="1.24364">
        <ele>191</ele>
        <time>2024-07-30T07:08:13Z</time>
      </trkpt>
      <trkpt lat="43.46251" lon="1.24374">
        <ele>191</ele>
        <time>2024-07-30T07:08:14Z</time>
      </trkpt>
      <trkpt lat="43.4625" lon="1.24382">
        <ele>191.2</ele>
        <time>2024-07-30T07:08:15Z</time>
      </trkpt>
      <trkpt lat="43.4625" lon="1.24391">
        <ele>191.2</ele>
        <time>2024-07-30T07:08:16Z</time>
      </trkpt>
      <trkpt lat="43.4625" lon="1.24398">
        <ele>191.2</ele>
        <time>2024-07-30T07:08:17Z</time>
      </trkpt>
      <trkpt lat="43.46249" lon="1.24406">
        <ele>191.2</ele>
        <time>2024-07-30T07:08:18Z</time>
      </trkpt>
      <trkpt lat="43.46248" lon="1.24416">
        <ele>191.2</ele>
        <time>2024-07-30T07:08:19Z</time>
      </trkpt>
      <trkpt lat="43.46248" lon="1.24425">
        <ele>191.2</ele>
        <time>2024-07-30T07:08:20Z</time>
      </trkpt>
      <trkpt lat="43.46248" lon="1.24434">
        <ele>191.2</ele>
        <time>2024-07-30T07:08:21Z</time>
      </trkpt>
      <trkpt lat="43.46248" lon="1.2444">
        <ele>191.2</ele>
        <time>2024-07-30T07:08:22Z</time>
      </trkpt>
      <trkpt lat="43.46248" lon="1.2445">
        <ele>191.2</ele>
        <time>2024-07-30T07:08:23Z</time>
      </trkpt>
      <trkpt lat="43.46248" lon="1.24459">
        <ele>191</ele>
        <time>2024-07-30T07:08:24Z</time>
      </trkpt>
      <trkpt lat="43.46248" lon="1.24467">
        <ele>191</ele>
        <time>2024-07-30T07:08:25Z</time>
      </trkpt>
      <trkpt lat="43.46248" lon="1.24475">
        <ele>191</ele>
        <time>2024-07-30T07:08:26Z</time>
      </trkpt>
      <trkpt lat="43.46248" lon="1.24484">
        <ele>190.8</ele>
        <time>2024-07-30T07:08:27Z</time>
      </trkpt>
      <trkpt lat="43.46247" lon="1.24492">
        <ele>190.8</ele>
        <time>2024-07-30T07:08:28Z</time>
      </trkpt>
      <trkpt lat="43.46247" lon="1.245">
        <ele>190.8</ele>
        <time>2024-07-30T07:08:29Z</time>
      </trkpt>
      <trkpt lat="43.46247" lon="1.24509">
        <ele>190.8</ele>
        <time>2024-07-30T07:08:30Z</time>
      </trkpt>
      <trkpt lat="43.46247" lon="1.24517">
        <ele>190.8</ele>
        <time>2024-07-30T07:08:31Z</time>
      </trkpt>
      <trkpt lat="43.46246" lon="1.24526">
        <ele>190.8</ele>
        <time>2024-07-30T07:08:32Z</time>
      </trkpt>
      <trkpt lat="43.46246" lon="1.24534">
        <ele>190.8</ele>
        <time>2024-07-30T07:08:33Z</time>
      </trkpt>
      <trkpt lat="43.46246" lon="1.24543">
        <ele>190.8</ele>
        <time>2024-07-30T07:08:34Z</time>
      </trkpt>
      <trkpt lat="43.46245" lon="1.24552">
        <ele>190.8</ele>
        <time>2024-07-30T07:08:35Z</time>
      </trkpt>
      <trkpt lat="43.46245" lon="1.24558">
        <ele>190.8</ele>
        <time>2024-07-30T07:08:36Z</time>
      </trkpt>
      <trkpt lat="43.46245" lon="1.24569">
        <ele>190.8</ele>
        <time>2024-07-30T07:08:37Z</time>
      </trkpt>
      <trkpt lat="43.46245" lon="1.24577">
        <ele>190.8</ele>
        <time>2024-07-30T07:08:38Z</time>
      </trkpt>
      <trkpt lat="43.46244" lon="1.24585">
        <ele>190.8</ele>
        <time>2024-07-30T07:08:39Z</time>
      </trkpt>
      <trkpt lat="43.46244" lon="1.24591">
        <ele>190.8</ele>
        <time>2024-07-30T07:08:40Z</time>
      </trkpt>
      <trkpt lat="43.46243" lon="1.246">
        <ele>190.8</ele>
        <time>2024-07-30T07:08:41Z</time>
      </trkpt>
      <trkpt lat="43.46243" lon="1.24608">
        <ele>190.8</ele>
        <time>2024-07-30T07:08:42Z</time>
      </trkpt>
      <trkpt lat="43.46243" lon="1.24615">
        <ele>190.8</ele>
        <time>2024-07-30T07:08:43Z</time>
      </trkpt>
      <trkpt lat="43.46243" lon="1.24622">
        <ele>190.8</ele>
        <time>2024-07-30T07:08:44Z</time>
      </trkpt>
      <trkpt lat="43.46242" lon="1.24628">
        <ele>190.8</ele>
        <time>2024-07-30T07:08:45Z</time>
      </trkpt>
      <trkpt lat="43.46242" lon="1.24637">
        <ele>190.8</ele>
        <time>2024-07-30T07:08:46Z</time>
      </trkpt>
      <trkpt lat="43.46242" lon="1.24644">
        <ele>190.8</ele>
        <time>2024-07-30T07:08:47Z</time>
      </trkpt>
      <trkpt lat="43.46241" lon="1.2465">
        <ele>190.8</ele>
        <time>2024-07-30T07:08:48Z</time>
      </trkpt>
      <trkpt lat="43.46241" lon="1.24655">
        <ele>190.8</ele>
        <time>2024-07-30T07:08:49Z</time>
      </trkpt>
      <trkpt lat="43.46241" lon="1.24661">
        <ele>190.8</ele>
        <time>2024-07-30T07:08:50Z</time>
      </trkpt>
      <trkpt lat="43.46241" lon="1.24665">
        <ele>190.8</ele>
        <time>2024-07-30T07:08:51Z</time>
      </trkpt>
      <trkpt lat="43.46241" lon="1.24669">
        <ele>190.8</ele>
        <time>2024-07-30T07:08:52Z</time>
      </trkpt>
      <trkpt lat="43.4624" lon="1.24673">
        <ele>190.8</ele>
        <time>2024-07-30T07:08:53Z</time>
      </trkpt>
      <trkpt lat="43.4624" lon="1.24676">
        <ele>190.8</ele>
        <time>2024-07-30T07:08:54Z</time>
      </trkpt>
      <trkpt lat="43.46239" lon="1.2468">
        <ele>190.8</ele>
        <time>2024-07-30T07:08:55Z</time>
      </trkpt>
      <trkpt lat="43.46238" lon="1.24684">
        <ele>190.8</ele>
        <time>2024-07-30T07:08:56Z</time>
      </trkpt>
      <trkpt lat="43.46236" lon="1.24687">
        <ele>190.8</ele>
        <time>2024-07-30T07:08:57Z</time>
      </trkpt>
      <trkpt lat="43.46233" lon="1.24689">
        <ele>190.4</ele>
        <time>2024-07-30T07:08:58Z</time>
      </trkpt>
      <trkpt lat="43.4623" lon="1.24689">
        <ele>190.4</ele>
        <time>2024-07-30T07:08:59Z</time>
      </trkpt>
      <trkpt lat="43.46225" lon="1.24687">
        <ele>190.4</ele>
        <time>2024-07-30T07:09:00Z</time>
      </trkpt>
      <trkpt lat="43.46221" lon="1.24684">
        <ele>190.4</ele>
        <time>2024-07-30T07:09:01Z</time>
      </trkpt>
      <trkpt lat="43.46217" lon="1.24679">
        <ele>190.8</ele>
        <time>2024-07-30T07:09:02Z</time>
      </trkpt>
      <trkpt lat="43.46212" lon="1.24675">
        <ele>190.8</ele>
        <time>2024-07-30T07:09:03Z</time>
      </trkpt>
      <trkpt lat="43.46208" lon="1.24671">
        <ele>190.8</ele>
        <time>2024-07-30T07:09:04Z</time>
      </trkpt>
      <trkpt lat="43.46202" lon="1.24666">
        <ele>190.8</ele>
        <time>2024-07-30T07:09:05Z</time>
      </trkpt>
      <trkpt lat="43.46197" lon="1.24661">
        <ele>190.8</ele>
        <time>2024-07-30T07:09:06Z</time>
      </trkpt>
      <trkpt lat="43.46192" lon="1.24657">
        <ele>190.8</ele>
        <time>2024-07-30T07:09:07Z</time>
      </trkpt>
      <trkpt lat="43.46188" lon="1.24653">
        <ele>190.4</ele>
        <time>2024-07-30T07:09:08Z</time>
      </trkpt>
      <trkpt lat="43.46182" lon="1.24648">
        <ele>190.4</ele>
        <time>2024-07-30T07:09:09Z</time>
      </trkpt>
      <trkpt lat="43.46176" lon="1.24643">
        <ele>190.8</ele>
        <time>2024-07-30T07:09:10Z</time>
      </trkpt>
      <trkpt lat="43.46171" lon="1.24638">
        <ele>190.8</ele>
        <time>2024-07-30T07:09:11Z</time>
      </trkpt>
      <trkpt lat="43.46165" lon="1.24633">
        <ele>190.8</ele>
        <time>2024-07-30T07:09:12Z</time>
      </trkpt>
      <trkpt lat="43.4616" lon="1.24628">
        <ele>190.8</ele>
        <time>2024-07-30T07:09:13Z</time>
      </trkpt>
      <trkpt lat="43.46154" lon="1.24623">
        <ele>190.8</ele>
        <time>2024-07-30T07:09:14Z</time>
      </trkpt>
      <trkpt lat="43.46147" lon="1.24618">
        <ele>190.8</ele>
        <time>2024-07-30T07:09:15Z</time>
      </trkpt>
      <trkpt lat="43.46142" lon="1.24613">
        <ele>190.8</ele>
        <time>2024-07-30T07:09:16Z</time>
      </trkpt>
      <trkpt lat="43.46138" lon="1.24609">
        <ele>190.6</ele>
        <time>2024-07-30T07:09:17Z</time>
      </trkpt>
      <trkpt lat="43.46131" lon="1.24603">
        <ele>190.6</ele>
        <time>2024-07-30T07:09:18Z</time>
      </trkpt>
      <trkpt lat="43.4612" lon="1.24593">
        <ele>190.4</ele>
        <time>2024-07-30T07:09:19Z</time>
      </trkpt>
      <trkpt lat="43.4612" lon="1.24593">
        <ele>190.4</ele>
        <time>2024-07-30T07:09:20Z</time>
      </trkpt>
      <trkpt lat="43.46116" lon="1.2459">
        <ele>190.4</ele>
        <time>2024-07-30T07:09:21Z</time>
      </trkpt>
      <trkpt lat="43.46111" lon="1.24586">
        <ele>190.4</ele>
        <time>2024-07-30T07:09:22Z</time>
      </trkpt>
      <trkpt lat="43.46105" lon="1.24581">
        <ele>190.4</ele>
        <time>2024-07-30T07:09:23Z</time>
      </trkpt>
      <trkpt lat="43.461" lon="1.24576">
        <ele>190.4</ele>
        <time>2024-07-30T07:09:24Z</time>
      </trkpt>
      <trkpt lat="43.46094" lon="1.24571">
        <ele>190.4</ele>
        <time>2024-07-30T07:09:25Z</time>
      </trkpt>
      <trkpt lat="43.4609" lon="1.24568">
        <ele>190.4</ele>
        <time>2024-07-30T07:09:26Z</time>
      </trkpt>
      <trkpt lat="43.46085" lon="1.24563">
        <ele>190.4</ele>
        <time>2024-07-30T07:09:27Z</time>
      </trkpt>
      <trkpt lat="43.46078" lon="1.24558">
        <ele>190.4</ele>
        <time>2024-07-30T07:09:28Z</time>
      </trkpt>
      <trkpt lat="43.46073" lon="1.24553">
        <ele>190.4</ele>
        <time>2024-07-30T07:09:29Z</time>
      </trkpt>
      <trkpt lat="43.46068" lon="1.24548">
        <ele>190.4</ele>
        <time>2024-07-30T07:09:30Z</time>
      </trkpt>
      <trkpt lat="43.46063" lon="1.24544">
        <ele>190.8</ele>
        <time>2024-07-30T07:09:31Z</time>
      </trkpt>
      <trkpt lat="43.46057" lon="1.24539">
        <ele>190.8</ele>
        <time>2024-07-30T07:09:32Z</time>
      </trkpt>
      <trkpt lat="43.46052" lon="1.24534">
        <ele>190.8</ele>
        <time>2024-07-30T07:09:33Z</time>
      </trkpt>
      <trkpt lat="43.46047" lon="1.24531">
        <ele>190.8</ele>
        <time>2024-07-30T07:09:34Z</time>
      </trkpt>
      <trkpt lat="43.46041" lon="1.24527">
        <ele>191</ele>
        <time>2024-07-30T07:09:35Z</time>
      </trkpt>
      <trkpt lat="43.46037" lon="1.24524">
        <ele>191</ele>
        <time>2024-07-30T07:09:36Z</time>
      </trkpt>
      <trkpt lat="43.46031" lon="1.2452">
        <ele>191</ele>
        <time>2024-07-30T07:09:37Z</time>
      </trkpt>
      <trkpt lat="43.46026" lon="1.24517">
        <ele>191</ele>
        <time>2024-07-30T07:09:38Z</time>
      </trkpt>
      <trkpt lat="43.46021" lon="1.24514">
        <ele>191</ele>
        <time>2024-07-30T07:09:39Z</time>
      </trkpt>
      <trkpt lat="43.46017" lon="1.24511">
        <ele>191</ele>
        <time>2024-07-30T07:09:40Z</time>
      </trkpt>
      <trkpt lat="43.46012" lon="1.24508">
        <ele>191</ele>
        <time>2024-07-30T07:09:41Z</time>
      </trkpt>
      <trkpt lat="43.46006" lon="1.24504">
        <ele>191</ele>
        <time>2024-07-30T07:09:42Z</time>
      </trkpt>
      <trkpt lat="43.46" lon="1.24501">
        <ele>191</ele>
        <time>2024-07-30T07:09:43Z</time>
      </trkpt>
      <trkpt lat="43.45994" lon="1.24497">
        <ele>191.2</ele>
        <time>2024-07-30T07:09:44Z</time>
      </trkpt>
      <trkpt lat="43.45988" lon="1.24494">
        <ele>191.2</ele>
        <time>2024-07-30T07:09:45Z</time>
      </trkpt>
      <trkpt lat="43.45982" lon="1.24492">
        <ele>191.2</ele>
        <time>2024-07-30T07:09:46Z</time>
      </trkpt>
      <trkpt lat="43.45976" lon="1.24489">
        <ele>191</ele>
        <time>2024-07-30T07:09:47Z</time>
      </trkpt>
      <trkpt lat="43.4597" lon="1.24486">
        <ele>191</ele>
        <time>2024-07-30T07:09:48Z</time>
      </trkpt>
      <trkpt lat="43.45964" lon="1.24483">
        <ele>191</ele>
        <time>2024-07-30T07:09:49Z</time>
      </trkpt>
      <trkpt lat="43.45959" lon="1.24481">
        <ele>191</ele>
        <time>2024-07-30T07:09:50Z</time>
      </trkpt>
      <trkpt lat="43.45952" lon="1.24478">
        <ele>191</ele>
        <time>2024-07-30T07:09:51Z</time>
      </trkpt>
      <trkpt lat="43.45946" lon="1.24475">
        <ele>191</ele>
        <time>2024-07-30T07:09:52Z</time>
      </trkpt>
      <trkpt lat="43.4594" lon="1.24473">
        <ele>191.2</ele>
        <time>2024-07-30T07:09:53Z</time>
      </trkpt>
      <trkpt lat="43.45934" lon="1.2447">
        <ele>191.4</ele>
        <time>2024-07-30T07:09:54Z</time>
      </trkpt>
      <trkpt lat="43.45928" lon="1.24467">
        <ele>191.4</ele>
        <time>2024-07-30T07:09:55Z</time>
      </trkpt>
      <trkpt lat="43.45923" lon="1.24463">
        <ele>191.2</ele>
        <time>2024-07-30T07:09:56Z</time>
      </trkpt>
      <trkpt lat="43.45917" lon="1.24458">
        <ele>191.2</ele>
        <time>2024-07-30T07:09:57Z</time>
      </trkpt>
      <trkpt lat="43.45912" lon="1.24454">
        <ele>191.2</ele>
        <time>2024-07-30T07:09:58Z</time>
      </trkpt>
      <trkpt lat="43.45908" lon="1.24452">
        <ele>191.4</ele>
        <time>2024-07-30T07:09:59Z</time>
      </trkpt>
      <trkpt lat="43.45901" lon="1.24448">
        <ele>191.4</ele>
        <time>2024-07-30T07:10:00Z</time>
      </trkpt>
      <trkpt lat="43.45895" lon="1.24445">
        <ele>191.4</ele>
        <time>2024-07-30T07:10:01Z</time>
      </trkpt>
      <trkpt lat="43.45888" lon="1.24441">
        <ele>191.4</ele>
        <time>2024-07-30T07:10:02Z</time>
      </trkpt>
      <trkpt lat="43.45883" lon="1.24438">
        <ele>191.4</ele>
        <time>2024-07-30T07:10:03Z</time>
      </trkpt>
      <trkpt lat="43.45876" lon="1.24434">
        <ele>191.4</ele>
        <time>2024-07-30T07:10:04Z</time>
      </trkpt>
      <trkpt lat="43.45871" lon="1.2443">
        <ele>191.4</ele>
        <time>2024-07-30T07:10:05Z</time>
      </trkpt>
      <trkpt lat="43.45865" lon="1.24426">
        <ele>191.4</ele>
        <time>2024-07-30T07:10:06Z</time>
      </trkpt>
      <trkpt lat="43.4586" lon="1.24423">
        <ele>191.4</ele>
        <time>2024-07-30T07:10:07Z</time>
      </trkpt>
      <trkpt lat="43.45855" lon="1.24419">
        <ele>191.4</ele>
        <time>2024-07-30T07:10:08Z</time>
      </trkpt>
      <trkpt lat="43.45848" lon="1.24414">
        <ele>191.4</ele>
        <time>2024-07-30T07:10:09Z</time>
      </trkpt>
      <trkpt lat="43.45842" lon="1.2441">
        <ele>191.4</ele>
        <time>2024-07-30T07:10:10Z</time>
      </trkpt>
      <trkpt lat="43.45836" lon="1.24406">
        <ele>191.4</ele>
        <time>2024-07-30T07:10:11Z</time>
      </trkpt>
      <trkpt lat="43.45831" lon="1.24402">
        <ele>191.4</ele>
        <time>2024-07-30T07:10:12Z</time>
      </trkpt>
      <trkpt lat="43.45823" lon="1.24397">
        <ele>191.4</ele>
        <time>2024-07-30T07:10:13Z</time>
      </trkpt>
      <trkpt lat="43.45817" lon="1.24393">
        <ele>191.6</ele>
        <time>2024-07-30T07:10:14Z</time>
      </trkpt>
      <trkpt lat="43.45811" lon="1.24389">
        <ele>191.6</ele>
        <time>2024-07-30T07:10:15Z</time>
      </trkpt>
      <trkpt lat="43.45805" lon="1.24384">
        <ele>191.6</ele>
        <time>2024-07-30T07:10:16Z</time>
      </trkpt>
      <trkpt lat="43.45798" lon="1.2438">
        <ele>191.8</ele>
        <time>2024-07-30T07:10:17Z</time>
      </trkpt>
      <trkpt lat="43.45793" lon="1.24377">
        <ele>191.8</ele>
        <time>2024-07-30T07:10:18Z</time>
      </trkpt>
      <trkpt lat="43.45786" lon="1.24371">
        <ele>191.8</ele>
        <time>2024-07-30T07:10:19Z</time>
      </trkpt>
      <trkpt lat="43.4578" lon="1.24367">
        <ele>191.8</ele>
        <time>2024-07-30T07:10:20Z</time>
      </trkpt>
      <trkpt lat="43.45773" lon="1.24362">
        <ele>191.8</ele>
        <time>2024-07-30T07:10:21Z</time>
      </trkpt>
      <trkpt lat="43.45767" lon="1.24358">
        <ele>191.8</ele>
        <time>2024-07-30T07:10:22Z</time>
      </trkpt>
      <trkpt lat="43.45761" lon="1.24353">
        <ele>191.8</ele>
        <time>2024-07-30T07:10:23Z</time>
      </trkpt>
      <trkpt lat="43.45755" lon="1.24348">
        <ele>191.8</ele>
        <time>2024-07-30T07:10:24Z</time>
      </trkpt>
      <trkpt lat="43.45748" lon="1.24343">
        <ele>191.8</ele>
        <time>2024-07-30T07:10:25Z</time>
      </trkpt>
      <trkpt lat="43.45742" lon="1.24339">
        <ele>191.8</ele>
        <time>2024-07-30T07:10:26Z</time>
      </trkpt>
      <trkpt lat="43.45735" lon="1.24335">
        <ele>191.8</ele>
        <time>2024-07-30T07:10:27Z</time>
      </trkpt>
      <trkpt lat="43.45729" lon="1.24331">
        <ele>191.8</ele>
        <time>2024-07-30T07:10:28Z</time>
      </trkpt>
      <trkpt lat="43.45724" lon="1.24328">
        <ele>191.8</ele>
        <time>2024-07-30T07:10:29Z</time>
      </trkpt>
      <trkpt lat="43.45718" lon="1.24323">
        <ele>191.8</ele>
        <time>2024-07-30T07:10:30Z</time>
      </trkpt>
      <trkpt lat="43.45712" lon="1.24319">
        <ele>191.8</ele>
        <time>2024-07-30T07:10:31Z</time>
      </trkpt>
      <trkpt lat="43.45705" lon="1.24315">
        <ele>192</ele>
        <time>2024-07-30T07:10:32Z</time>
      </trkpt>
      <trkpt lat="43.45699" lon="1.2431">
        <ele>192</ele>
        <time>2024-07-30T07:10:33Z</time>
      </trkpt>
      <trkpt lat="43.45693" lon="1.24306">
        <ele>192</ele>
        <time>2024-07-30T07:10:34Z</time>
      </trkpt>
      <trkpt lat="43.45686" lon="1.24301">
        <ele>192</ele>
        <time>2024-07-30T07:10:35Z</time>
      </trkpt>
      <trkpt lat="43.4568" lon="1.24297">
        <ele>192</ele>
        <time>2024-07-30T07:10:36Z</time>
      </trkpt>
      <trkpt lat="43.45674" lon="1.24293">
        <ele>192</ele>
        <time>2024-07-30T07:10:37Z</time>
      </trkpt>
      <trkpt lat="43.45667" lon="1.24289">
        <ele>192</ele>
        <time>2024-07-30T07:10:38Z</time>
      </trkpt>
      <trkpt lat="43.45661" lon="1.24284">
        <ele>192</ele>
        <time>2024-07-30T07:10:39Z</time>
      </trkpt>
      <trkpt lat="43.45654" lon="1.2428">
        <ele>192</ele>
        <time>2024-07-30T07:10:40Z</time>
      </trkpt>
      <trkpt lat="43.45648" lon="1.24275">
        <ele>192.2</ele>
        <time>2024-07-30T07:10:41Z</time>
      </trkpt>
      <trkpt lat="43.45634" lon="1.24266">
        <ele>192.2</ele>
        <time>2024-07-30T07:10:42Z</time>
      </trkpt>
      <trkpt lat="43.45634" lon="1.24266">
        <ele>192.2</ele>
        <time>2024-07-30T07:10:43Z</time>
      </trkpt>
      <trkpt lat="43.45629" lon="1.24262">
        <ele>192.2</ele>
        <time>2024-07-30T07:10:44Z</time>
      </trkpt>
      <trkpt lat="43.45623" lon="1.24258">
        <ele>192.2</ele>
        <time>2024-07-30T07:10:45Z</time>
      </trkpt>
      <trkpt lat="43.45617" lon="1.24254">
        <ele>192.2</ele>
        <time>2024-07-30T07:10:46Z</time>
      </trkpt>
      <trkpt lat="43.4561" lon="1.24249">
        <ele>192.2</ele>
        <time>2024-07-30T07:10:47Z</time>
      </trkpt>
      <trkpt lat="43.45604" lon="1.24245">
        <ele>192.2</ele>
        <time>2024-07-30T07:10:48Z</time>
      </trkpt>
      <trkpt lat="43.45598" lon="1.2424">
        <ele>192.2</ele>
        <time>2024-07-30T07:10:49Z</time>
      </trkpt>
      <trkpt lat="43.45592" lon="1.24236">
        <ele>192.2</ele>
        <time>2024-07-30T07:10:50Z</time>
      </trkpt>
      <trkpt lat="43.45586" lon="1.24231">
        <ele>192.2</ele>
        <time>2024-07-30T07:10:51Z</time>
      </trkpt>
      <trkpt lat="43.45581" lon="1.24225">
        <ele>192.2</ele>
        <time>2024-07-30T07:10:52Z</time>
      </trkpt>
      <trkpt lat="43.45575" lon="1.2422">
        <ele>192.2</ele>
        <time>2024-07-30T07:10:53Z</time>
      </trkpt>
      <trkpt lat="43.45569" lon="1.24214">
        <ele>192.2</ele>
        <time>2024-07-30T07:10:54Z</time>
      </trkpt>
      <trkpt lat="43.45564" lon="1.24208">
        <ele>192.2</ele>
        <time>2024-07-30T07:10:55Z</time>
      </trkpt>
      <trkpt lat="43.45559" lon="1.24201">
        <ele>192.2</ele>
        <time>2024-07-30T07:10:56Z</time>
      </trkpt>
      <trkpt lat="43.45554" lon="1.24195">
        <ele>192.2</ele>
        <time>2024-07-30T07:10:57Z</time>
      </trkpt>
      <trkpt lat="43.4555" lon="1.24188">
        <ele>192.2</ele>
        <time>2024-07-30T07:10:58Z</time>
      </trkpt>
      <trkpt lat="43.45546" lon="1.2418">
        <ele>192.2</ele>
        <time>2024-07-30T07:10:59Z</time>
      </trkpt>
      <trkpt lat="43.45542" lon="1.24173">
        <ele>192.2</ele>
        <time>2024-07-30T07:11:00Z</time>
      </trkpt>
      <trkpt lat="43.45538" lon="1.24166">
        <ele>192.2</ele>
        <time>2024-07-30T07:11:01Z</time>
      </trkpt>
      <trkpt lat="43.45534" lon="1.24159">
        <ele>192.2</ele>
        <time>2024-07-30T07:11:02Z</time>
      </trkpt>
      <trkpt lat="43.4553" lon="1.24152">
        <ele>192.2</ele>
        <time>2024-07-30T07:11:03Z</time>
      </trkpt>
      <trkpt lat="43.45526" lon="1.24144">
        <ele>192.2</ele>
        <time>2024-07-30T07:11:04Z</time>
      </trkpt>
      <trkpt lat="43.45522" lon="1.24137">
        <ele>192.2</ele>
        <time>2024-07-30T07:11:05Z</time>
      </trkpt>
      <trkpt lat="43.45515" lon="1.24124">
        <ele>192.2</ele>
        <time>2024-07-30T07:11:06Z</time>
      </trkpt>
      <trkpt lat="43.45515" lon="1.24124">
        <ele>192.2</ele>
        <time>2024-07-30T07:11:07Z</time>
      </trkpt>
      <trkpt lat="43.45507" lon="1.2411">
        <ele>192.4</ele>
        <time>2024-07-30T07:11:08Z</time>
      </trkpt>
      <trkpt lat="43.45504" lon="1.24103">
        <ele>192.4</ele>
        <time>2024-07-30T07:11:09Z</time>
      </trkpt>
      <trkpt lat="43.455" lon="1.24096">
        <ele>192.4</ele>
        <time>2024-07-30T07:11:10Z</time>
      </trkpt>
      <trkpt lat="43.45496" lon="1.24089">
        <ele>192.4</ele>
        <time>2024-07-30T07:11:11Z</time>
      </trkpt>
      <trkpt lat="43.45492" lon="1.24083">
        <ele>192.6</ele>
        <time>2024-07-30T07:11:12Z</time>
      </trkpt>
      <trkpt lat="43.45489" lon="1.24076">
        <ele>192.6</ele>
        <time>2024-07-30T07:11:13Z</time>
      </trkpt>
      <trkpt lat="43.45489" lon="1.24076">
        <ele>192.6</ele>
        <time>2024-07-30T07:11:14Z</time>
      </trkpt>
      <trkpt lat="43.45485" lon="1.24069">
        <ele>192.6</ele>
        <time>2024-07-30T07:11:15Z</time>
      </trkpt>
      <trkpt lat="43.45477" lon="1.24054">
        <ele>192.6</ele>
        <time>2024-07-30T07:11:16Z</time>
      </trkpt>
      <trkpt lat="43.45477" lon="1.24054">
        <ele>192.6</ele>
        <time>2024-07-30T07:11:17Z</time>
      </trkpt>
      <trkpt lat="43.45473" lon="1.24047">
        <ele>192.6</ele>
        <time>2024-07-30T07:11:18Z</time>
      </trkpt>
      <trkpt lat="43.45465" lon="1.24033">
        <ele>192.6</ele>
        <time>2024-07-30T07:11:19Z</time>
      </trkpt>
      <trkpt lat="43.45461" lon="1.24026">
        <ele>192.6</ele>
        <time>2024-07-30T07:11:20Z</time>
      </trkpt>
      <trkpt lat="43.45461" lon="1.24026">
        <ele>192.6</ele>
        <time>2024-07-30T07:11:21Z</time>
      </trkpt>
      <trkpt lat="43.45453" lon="1.24011">
        <ele>192.6</ele>
        <time>2024-07-30T07:11:22Z</time>
      </trkpt>
      <trkpt lat="43.45449" lon="1.24004">
        <ele>192.4</ele>
        <time>2024-07-30T07:11:23Z</time>
      </trkpt>
      <trkpt lat="43.45446" lon="1.23997">
        <ele>192.4</ele>
        <time>2024-07-30T07:11:24Z</time>
      </trkpt>
      <trkpt lat="43.45442" lon="1.2399">
        <ele>192.4</ele>
        <time>2024-07-30T07:11:25Z</time>
      </trkpt>
      <trkpt lat="43.45438" lon="1.23983">
        <ele>192.4</ele>
        <time>2024-07-30T07:11:26Z</time>
      </trkpt>
      <trkpt lat="43.45434" lon="1.23977">
        <ele>192.4</ele>
        <time>2024-07-30T07:11:27Z</time>
      </trkpt>
      <trkpt lat="43.45431" lon="1.2397">
        <ele>192.4</ele>
        <time>2024-07-30T07:11:28Z</time>
      </trkpt>
      <trkpt lat="43.45427" lon="1.23963">
        <ele>192.4</ele>
        <time>2024-07-30T07:11:29Z</time>
      </trkpt>
      <trkpt lat="43.45423" lon="1.23956">
        <ele>192.4</ele>
        <time>2024-07-30T07:11:30Z</time>
      </trkpt>
      <trkpt lat="43.45419" lon="1.23949">
        <ele>192.4</ele>
        <time>2024-07-30T07:11:31Z</time>
      </trkpt>
      <trkpt lat="43.45419" lon="1.23949">
        <ele>192.4</ele>
        <time>2024-07-30T07:11:32Z</time>
      </trkpt>
      <trkpt lat="43.45412" lon="1.23935">
        <ele>192.4</ele>
        <time>2024-07-30T07:11:33Z</time>
      </trkpt>
      <trkpt lat="43.45408" lon="1.23928">
        <ele>192.4</ele>
        <time>2024-07-30T07:11:34Z</time>
      </trkpt>
      <trkpt lat="43.45404" lon="1.23921">
        <ele>192.6</ele>
        <time>2024-07-30T07:11:35Z</time>
      </trkpt>
      <trkpt lat="43.454" lon="1.23914">
        <ele>192.6</ele>
        <time>2024-07-30T07:11:36Z</time>
      </trkpt>
      <trkpt lat="43.45397" lon="1.23907">
        <ele>192.6</ele>
        <time>2024-07-30T07:11:37Z</time>
      </trkpt>
      <trkpt lat="43.45393" lon="1.239">
        <ele>192.6</ele>
        <time>2024-07-30T07:11:38Z</time>
      </trkpt>
      <trkpt lat="43.45389" lon="1.23893">
        <ele>192.6</ele>
        <time>2024-07-30T07:11:39Z</time>
      </trkpt>
      <trkpt lat="43.45389" lon="1.23893">
        <ele>192.8</ele>
        <time>2024-07-30T07:11:40Z</time>
      </trkpt>
      <trkpt lat="43.45382" lon="1.23879">
        <ele>192.8</ele>
        <time>2024-07-30T07:11:41Z</time>
      </trkpt>
      <trkpt lat="43.45378" lon="1.23872">
        <ele>192.8</ele>
        <time>2024-07-30T07:11:42Z</time>
      </trkpt>
      <trkpt lat="43.45378" lon="1.23872">
        <ele>193</ele>
        <time>2024-07-30T07:11:43Z</time>
      </trkpt>
      <trkpt lat="43.4537" lon="1.23859">
        <ele>193</ele>
        <time>2024-07-30T07:11:44Z</time>
      </trkpt>
      <trkpt lat="43.45366" lon="1.23852">
        <ele>193</ele>
        <time>2024-07-30T07:11:45Z</time>
      </trkpt>
      <trkpt lat="43.45362" lon="1.23845">
        <ele>193</ele>
        <time>2024-07-30T07:11:46Z</time>
      </trkpt>
      <trkpt lat="43.45362" lon="1.23845">
        <ele>193</ele>
        <time>2024-07-30T07:11:47Z</time>
      </trkpt>
      <trkpt lat="43.45359" lon="1.23838">
        <ele>193.2</ele>
        <time>2024-07-30T07:11:48Z</time>
      </trkpt>
      <trkpt lat="43.45355" lon="1.23831">
        <ele>193.2</ele>
        <time>2024-07-30T07:11:49Z</time>
      </trkpt>
      <trkpt lat="43.45347" lon="1.23818">
        <ele>193.2</ele>
        <time>2024-07-30T07:11:50Z</time>
      </trkpt>
      <trkpt lat="43.45343" lon="1.23811">
        <ele>193.2</ele>
        <time>2024-07-30T07:11:51Z</time>
      </trkpt>
      <trkpt lat="43.4534" lon="1.23804">
        <ele>193.4</ele>
        <time>2024-07-30T07:11:52Z</time>
      </trkpt>
      <trkpt lat="43.45336" lon="1.23797">
        <ele>193.4</ele>
        <time>2024-07-30T07:11:53Z</time>
      </trkpt>
      <trkpt lat="43.45332" lon="1.2379">
        <ele>193.4</ele>
        <time>2024-07-30T07:11:54Z</time>
      </trkpt>
      <trkpt lat="43.45328" lon="1.23782">
        <ele>193.4</ele>
        <time>2024-07-30T07:11:55Z</time>
      </trkpt>
      <trkpt lat="43.45325" lon="1.23776">
        <ele>193.6</ele>
        <time>2024-07-30T07:11:56Z</time>
      </trkpt>
      <trkpt lat="43.45321" lon="1.23769">
        <ele>193.6</ele>
        <time>2024-07-30T07:11:57Z</time>
      </trkpt>
      <trkpt lat="43.45317" lon="1.23762">
        <ele>193.6</ele>
        <time>2024-07-30T07:11:58Z</time>
      </trkpt>
      <trkpt lat="43.45314" lon="1.23755">
        <ele>193.6</ele>
        <time>2024-07-30T07:11:59Z</time>
      </trkpt>
      <trkpt lat="43.4531" lon="1.23747">
        <ele>193.6</ele>
        <time>2024-07-30T07:12:00Z</time>
      </trkpt>
      <trkpt lat="43.45306" lon="1.2374">
        <ele>193.6</ele>
        <time>2024-07-30T07:12:01Z</time>
      </trkpt>
      <trkpt lat="43.45306" lon="1.2374">
        <ele>193.6</ele>
        <time>2024-07-30T07:12:02Z</time>
      </trkpt>
      <trkpt lat="43.45298" lon="1.23725">
        <ele>193.6</ele>
        <time>2024-07-30T07:12:03Z</time>
      </trkpt>
      <trkpt lat="43.45293" lon="1.23716">
        <ele>193.6</ele>
        <time>2024-07-30T07:12:04Z</time>
      </trkpt>
      <trkpt lat="43.45293" lon="1.23716">
        <ele>193.6</ele>
        <time>2024-07-30T07:12:05Z</time>
      </trkpt>
      <trkpt lat="43.45286" lon="1.23703">
        <ele>193.6</ele>
        <time>2024-07-30T07:12:06Z</time>
      </trkpt>
      <trkpt lat="43.45281" lon="1.23694">
        <ele>193.6</ele>
        <time>2024-07-30T07:12:07Z</time>
      </trkpt>
      <trkpt lat="43.45277" lon="1.23687">
        <ele>193.6</ele>
        <time>2024-07-30T07:12:08Z</time>
      </trkpt>
      <trkpt lat="43.45273" lon="1.2368">
        <ele>193.6</ele>
        <time>2024-07-30T07:12:09Z</time>
      </trkpt>
      <trkpt lat="43.4527" lon="1.23674">
        <ele>193.4</ele>
        <time>2024-07-30T07:12:10Z</time>
      </trkpt>
      <trkpt lat="43.45266" lon="1.23668">
        <ele>193.4</ele>
        <time>2024-07-30T07:12:11Z</time>
      </trkpt>
      <trkpt lat="43.45262" lon="1.2366">
        <ele>193.4</ele>
        <time>2024-07-30T07:12:12Z</time>
      </trkpt>
      <trkpt lat="43.45258" lon="1.23653">
        <ele>193.2</ele>
        <time>2024-07-30T07:12:13Z</time>
      </trkpt>
      <trkpt lat="43.45255" lon="1.23646">
        <ele>193.2</ele>
        <time>2024-07-30T07:12:14Z</time>
      </trkpt>
      <trkpt lat="43.45252" lon="1.23641">
        <ele>193.2</ele>
        <time>2024-07-30T07:12:15Z</time>
      </trkpt>
      <trkpt lat="43.45248" lon="1.23634">
        <ele>193.2</ele>
        <time>2024-07-30T07:12:16Z</time>
      </trkpt>
      <trkpt lat="43.45243" lon="1.23625">
        <ele>193.2</ele>
        <time>2024-07-30T07:12:17Z</time>
      </trkpt>
      <trkpt lat="43.45239" lon="1.23618">
        <ele>193.2</ele>
        <time>2024-07-30T07:12:18Z</time>
      </trkpt>
      <trkpt lat="43.45235" lon="1.2361">
        <ele>193.2</ele>
        <time>2024-07-30T07:12:19Z</time>
      </trkpt>
      <trkpt lat="43.45231" lon="1.23603">
        <ele>193</ele>
        <time>2024-07-30T07:12:20Z</time>
      </trkpt>
      <trkpt lat="43.45227" lon="1.23596">
        <ele>193</ele>
        <time>2024-07-30T07:12:21Z</time>
      </trkpt>
      <trkpt lat="43.45223" lon="1.23589">
        <ele>193</ele>
        <time>2024-07-30T07:12:22Z</time>
      </trkpt>
      <trkpt lat="43.45219" lon="1.23582">
        <ele>193</ele>
        <time>2024-07-30T07:12:23Z</time>
      </trkpt>
      <trkpt lat="43.45216" lon="1.23575">
        <ele>193</ele>
        <time>2024-07-30T07:12:24Z</time>
      </trkpt>
      <trkpt lat="43.45212" lon="1.23568">
        <ele>193</ele>
        <time>2024-07-30T07:12:25Z</time>
      </trkpt>
      <trkpt lat="43.45208" lon="1.23561">
        <ele>193</ele>
        <time>2024-07-30T07:12:26Z</time>
      </trkpt>
      <trkpt lat="43.45204" lon="1.23553">
        <ele>193</ele>
        <time>2024-07-30T07:12:27Z</time>
      </trkpt>
      <trkpt lat="43.452" lon="1.23546">
        <ele>193</ele>
        <time>2024-07-30T07:12:28Z</time>
      </trkpt>
      <trkpt lat="43.45196" lon="1.23539">
        <ele>193</ele>
        <time>2024-07-30T07:12:29Z</time>
      </trkpt>
      <trkpt lat="43.45193" lon="1.23533">
        <ele>193.2</ele>
        <time>2024-07-30T07:12:30Z</time>
      </trkpt>
      <trkpt lat="43.45188" lon="1.23524">
        <ele>193.2</ele>
        <time>2024-07-30T07:12:31Z</time>
      </trkpt>
      <trkpt lat="43.45184" lon="1.23516">
        <ele>193.2</ele>
        <time>2024-07-30T07:12:32Z</time>
      </trkpt>
      <trkpt lat="43.4518" lon="1.23509">
        <ele>193.2</ele>
        <time>2024-07-30T07:12:33Z</time>
      </trkpt>
      <trkpt lat="43.45176" lon="1.23501">
        <ele>193.4</ele>
        <time>2024-07-30T07:12:34Z</time>
      </trkpt>
      <trkpt lat="43.45176" lon="1.23501">
        <ele>193.4</ele>
        <time>2024-07-30T07:12:35Z</time>
      </trkpt>
      <trkpt lat="43.45168" lon="1.23485">
        <ele>193.4</ele>
        <time>2024-07-30T07:12:36Z</time>
      </trkpt>
      <trkpt lat="43.45164" lon="1.23477">
        <ele>193.4</ele>
        <time>2024-07-30T07:12:37Z</time>
      </trkpt>
      <trkpt lat="43.45164" lon="1.23477">
        <ele>193.4</ele>
        <time>2024-07-30T07:12:38Z</time>
      </trkpt>
      <trkpt lat="43.45158" lon="1.23463">
        <ele>193.4</ele>
        <time>2024-07-30T07:12:39Z</time>
      </trkpt>
      <trkpt lat="43.45154" lon="1.23453">
        <ele>193.4</ele>
        <time>2024-07-30T07:12:40Z</time>
      </trkpt>
      <trkpt lat="43.45154" lon="1.23453">
        <ele>193.4</ele>
        <time>2024-07-30T07:12:41Z</time>
      </trkpt>
      <trkpt lat="43.4515" lon="1.23437">
        <ele>193.4</ele>
        <time>2024-07-30T07:12:42Z</time>
      </trkpt>
      <trkpt lat="43.45149" lon="1.23429">
        <ele>193.4</ele>
        <time>2024-07-30T07:12:43Z</time>
      </trkpt>
      <trkpt lat="43.45149" lon="1.23429">
        <ele>193.4</ele>
        <time>2024-07-30T07:12:44Z</time>
      </trkpt>
      <trkpt lat="43.45147" lon="1.2341">
        <ele>193.4</ele>
        <time>2024-07-30T07:12:45Z</time>
      </trkpt>
      <trkpt lat="43.45147" lon="1.2341">
        <ele>193.6</ele>
        <time>2024-07-30T07:12:46Z</time>
      </trkpt>
      <trkpt lat="43.45148" lon="1.23392">
        <ele>193.6</ele>
        <time>2024-07-30T07:12:47Z</time>
      </trkpt>
      <trkpt lat="43.45148" lon="1.23385">
        <ele>193.6</ele>
        <time>2024-07-30T07:12:48Z</time>
      </trkpt>
      <trkpt lat="43.45149" lon="1.23377">
        <ele>193.6</ele>
        <time>2024-07-30T07:12:49Z</time>
      </trkpt>
      <trkpt lat="43.4515" lon="1.23369">
        <ele>193.6</ele>
        <time>2024-07-30T07:12:50Z</time>
      </trkpt>
      <trkpt lat="43.4515" lon="1.23362">
        <ele>193.6</ele>
        <time>2024-07-30T07:12:51Z</time>
      </trkpt>
      <trkpt lat="43.45151" lon="1.23354">
        <ele>193.8</ele>
        <time>2024-07-30T07:12:52Z</time>
      </trkpt>
      <trkpt lat="43.45152" lon="1.23347">
        <ele>193.8</ele>
        <time>2024-07-30T07:12:53Z</time>
      </trkpt>
      <trkpt lat="43.45152" lon="1.23341">
        <ele>193.8</ele>
        <time>2024-07-30T07:12:54Z</time>
      </trkpt>
      <trkpt lat="43.45153" lon="1.23334">
        <ele>194</ele>
        <time>2024-07-30T07:12:55Z</time>
      </trkpt>
      <trkpt lat="43.45153" lon="1.23328">
        <ele>194.2</ele>
        <time>2024-07-30T07:12:56Z</time>
      </trkpt>
      <trkpt lat="43.45154" lon="1.23322">
        <ele>194.2</ele>
        <time>2024-07-30T07:12:57Z</time>
      </trkpt>
      <trkpt lat="43.45155" lon="1.23315">
        <ele>194.4</ele>
        <time>2024-07-30T07:12:58Z</time>
      </trkpt>
      <trkpt lat="43.45155" lon="1.23309">
        <ele>194.4</ele>
        <time>2024-07-30T07:12:59Z</time>
      </trkpt>
      <trkpt lat="43.45156" lon="1.23303">
        <ele>194.4</ele>
        <time>2024-07-30T07:13:00Z</time>
      </trkpt>
      <trkpt lat="43.45156" lon="1.23296">
        <ele>194.8</ele>
        <time>2024-07-30T07:13:01Z</time>
      </trkpt>
      <trkpt lat="43.45157" lon="1.23292">
        <ele>195</ele>
        <time>2024-07-30T07:13:02Z</time>
      </trkpt>
      <trkpt lat="43.45157" lon="1.23285">
        <ele>195.4</ele>
        <time>2024-07-30T07:13:03Z</time>
      </trkpt>
      <trkpt lat="43.45158" lon="1.23279">
        <ele>195.6</ele>
        <time>2024-07-30T07:13:04Z</time>
      </trkpt>
      <trkpt lat="43.45159" lon="1.23273">
        <ele>195.8</ele>
        <time>2024-07-30T07:13:05Z</time>
      </trkpt>
      <trkpt lat="43.45159" lon="1.23268">
        <ele>196.2</ele>
        <time>2024-07-30T07:13:06Z</time>
      </trkpt>
      <trkpt lat="43.45159" lon="1.23268">
        <ele>196.2</ele>
        <time>2024-07-30T07:13:07Z</time>
      </trkpt>
      <trkpt lat="43.4516" lon="1.23256">
        <ele>196.4</ele>
        <time>2024-07-30T07:13:08Z</time>
      </trkpt>
      <trkpt lat="43.4516" lon="1.2325">
        <ele>196.6</ele>
        <time>2024-07-30T07:13:09Z</time>
      </trkpt>
      <trkpt lat="43.4516" lon="1.23245">
        <ele>196.8</ele>
        <time>2024-07-30T07:13:10Z</time>
      </trkpt>
      <trkpt lat="43.45161" lon="1.23241">
        <ele>197</ele>
        <time>2024-07-30T07:13:11Z</time>
      </trkpt>
      <trkpt lat="43.45161" lon="1.23235">
        <ele>197.2</ele>
        <time>2024-07-30T07:13:12Z</time>
      </trkpt>
      <trkpt lat="43.45162" lon="1.23229">
        <ele>197.6</ele>
        <time>2024-07-30T07:13:13Z</time>
      </trkpt>
      <trkpt lat="43.45162" lon="1.23224">
        <ele>197.8</ele>
        <time>2024-07-30T07:13:14Z</time>
      </trkpt>
      <trkpt lat="43.45163" lon="1.2322">
        <ele>198.2</ele>
        <time>2024-07-30T07:13:15Z</time>
      </trkpt>
      <trkpt lat="43.45163" lon="1.23213">
        <ele>198.2</ele>
        <time>2024-07-30T07:13:16Z</time>
      </trkpt>
      <trkpt lat="43.45164" lon="1.23208">
        <ele>198.6</ele>
        <time>2024-07-30T07:13:17Z</time>
      </trkpt>
      <trkpt lat="43.45164" lon="1.23203">
        <ele>198.8</ele>
        <time>2024-07-30T07:13:18Z</time>
      </trkpt>
      <trkpt lat="43.45164" lon="1.23198">
        <ele>199.2</ele>
        <time>2024-07-30T07:13:19Z</time>
      </trkpt>
      <trkpt lat="43.45164" lon="1.23193">
        <ele>199.6</ele>
        <time>2024-07-30T07:13:20Z</time>
      </trkpt>
      <trkpt lat="43.45165" lon="1.23188">
        <ele>199.8</ele>
        <time>2024-07-30T07:13:21Z</time>
      </trkpt>
      <trkpt lat="43.45165" lon="1.23182">
        <ele>200.2</ele>
        <time>2024-07-30T07:13:22Z</time>
      </trkpt>
      <trkpt lat="43.45165" lon="1.23177">
        <ele>200.4</ele>
        <time>2024-07-30T07:13:23Z</time>
      </trkpt>
      <trkpt lat="43.45165" lon="1.23173">
        <ele>200.6</ele>
        <time>2024-07-30T07:13:24Z</time>
      </trkpt>
      <trkpt lat="43.45165" lon="1.23167">
        <ele>200.8</ele>
        <time>2024-07-30T07:13:25Z</time>
      </trkpt>
      <trkpt lat="43.45166" lon="1.23163">
        <ele>201.4</ele>
        <time>2024-07-30T07:13:26Z</time>
      </trkpt>
      <trkpt lat="43.45166" lon="1.23159">
        <ele>202</ele>
        <time>2024-07-30T07:13:27Z</time>
      </trkpt>
      <trkpt lat="43.45165" lon="1.23155">
        <ele>202.2</ele>
        <time>2024-07-30T07:13:28Z</time>
      </trkpt>
      <trkpt lat="43.45165" lon="1.23152">
        <ele>202.4</ele>
        <time>2024-07-30T07:13:29Z</time>
      </trkpt>
      <trkpt lat="43.45165" lon="1.23146">
        <ele>202.6</ele>
        <time>2024-07-30T07:13:30Z</time>
      </trkpt>
      <trkpt lat="43.45164" lon="1.23141">
        <ele>203</ele>
        <time>2024-07-30T07:13:31Z</time>
      </trkpt>
      <trkpt lat="43.45164" lon="1.23137">
        <ele>203.4</ele>
        <time>2024-07-30T07:13:32Z</time>
      </trkpt>
      <trkpt lat="43.45163" lon="1.23133">
        <ele>203.6</ele>
        <time>2024-07-30T07:13:33Z</time>
      </trkpt>
      <trkpt lat="43.45162" lon="1.23129">
        <ele>204</ele>
        <time>2024-07-30T07:13:34Z</time>
      </trkpt>
      <trkpt lat="43.45161" lon="1.23124">
        <ele>204.2</ele>
        <time>2024-07-30T07:13:35Z</time>
      </trkpt>
      <trkpt lat="43.4516" lon="1.2312">
        <ele>204.4</ele>
        <time>2024-07-30T07:13:36Z</time>
      </trkpt>
      <trkpt lat="43.45159" lon="1.23115">
        <ele>204.6</ele>
        <time>2024-07-30T07:13:37Z</time>
      </trkpt>
      <trkpt lat="43.45158" lon="1.23111">
        <ele>204.8</ele>
        <time>2024-07-30T07:13:38Z</time>
      </trkpt>
      <trkpt lat="43.45157" lon="1.23107">
        <ele>205.2</ele>
        <time>2024-07-30T07:13:39Z</time>
      </trkpt>
      <trkpt lat="43.45156" lon="1.23104">
        <ele>205.4</ele>
        <time>2024-07-30T07:13:40Z</time>
      </trkpt>
      <trkpt lat="43.45155" lon="1.23101">
        <ele>205.6</ele>
        <time>2024-07-30T07:13:41Z</time>
      </trkpt>
      <trkpt lat="43.45154" lon="1.23097">
        <ele>205.8</ele>
        <time>2024-07-30T07:13:42Z</time>
      </trkpt>
      <trkpt lat="43.45152" lon="1.23093">
        <ele>206</ele>
        <time>2024-07-30T07:13:43Z</time>
      </trkpt>
      <trkpt lat="43.4515" lon="1.23087">
        <ele>206.2</ele>
        <time>2024-07-30T07:13:44Z</time>
      </trkpt>
      <trkpt lat="43.45149" lon="1.23083">
        <ele>206.4</ele>
        <time>2024-07-30T07:13:45Z</time>
      </trkpt>
      <trkpt lat="43.45148" lon="1.23079">
        <ele>206.8</ele>
        <time>2024-07-30T07:13:46Z</time>
      </trkpt>
      <trkpt lat="43.45146" lon="1.23074">
        <ele>206.8</ele>
        <time>2024-07-30T07:13:47Z</time>
      </trkpt>
      <trkpt lat="43.45144" lon="1.2307">
        <ele>207.4</ele>
        <time>2024-07-30T07:13:48Z</time>
      </trkpt>
      <trkpt lat="43.45141" lon="1.23066">
        <ele>207.6</ele>
        <time>2024-07-30T07:13:49Z</time>
      </trkpt>
      <trkpt lat="43.45139" lon="1.23062">
        <ele>207.8</ele>
        <time>2024-07-30T07:13:50Z</time>
      </trkpt>
      <trkpt lat="43.45137" lon="1.23059">
        <ele>208</ele>
        <time>2024-07-30T07:13:51Z</time>
      </trkpt>
      <trkpt lat="43.45135" lon="1.23056">
        <ele>208.4</ele>
        <time>2024-07-30T07:13:52Z</time>
      </trkpt>
      <trkpt lat="43.45133" lon="1.23051">
        <ele>208.6</ele>
        <time>2024-07-30T07:13:53Z</time>
      </trkpt>
      <trkpt lat="43.4513" lon="1.23047">
        <ele>208.8</ele>
        <time>2024-07-30T07:13:54Z</time>
      </trkpt>
      <trkpt lat="43.45127" lon="1.23043">
        <ele>209</ele>
        <time>2024-07-30T07:13:55Z</time>
      </trkpt>
      <trkpt lat="43.45125" lon="1.2304">
        <ele>209.2</ele>
        <time>2024-07-30T07:13:56Z</time>
      </trkpt>
      <trkpt lat="43.45122" lon="1.23035">
        <ele>209.6</ele>
        <time>2024-07-30T07:13:57Z</time>
      </trkpt>
      <trkpt lat="43.4512" lon="1.23031">
        <ele>210.2</ele>
        <time>2024-07-30T07:13:58Z</time>
      </trkpt>
      <trkpt lat="43.45117" lon="1.23027">
        <ele>210.2</ele>
        <time>2024-07-30T07:13:59Z</time>
      </trkpt>
      <trkpt lat="43.45114" lon="1.23025">
        <ele>210.6</ele>
        <time>2024-07-30T07:14:00Z</time>
      </trkpt>
      <trkpt lat="43.45111" lon="1.23021">
        <ele>210.6</ele>
        <time>2024-07-30T07:14:01Z</time>
      </trkpt>
      <trkpt lat="43.45107" lon="1.23018">
        <ele>211</ele>
        <time>2024-07-30T07:14:02Z</time>
      </trkpt>
      <trkpt lat="43.45103" lon="1.23014">
        <ele>211</ele>
        <time>2024-07-30T07:14:03Z</time>
      </trkpt>
      <trkpt lat="43.451" lon="1.23012">
        <ele>211.2</ele>
        <time>2024-07-30T07:14:04Z</time>
      </trkpt>
      <trkpt lat="43.45096" lon="1.23009">
        <ele>211.2</ele>
        <time>2024-07-30T07:14:05Z</time>
      </trkpt>
      <trkpt lat="43.45094" lon="1.23007">
        <ele>211.4</ele>
        <time>2024-07-30T07:14:06Z</time>
      </trkpt>
      <trkpt lat="43.45089" lon="1.23004">
        <ele>211.4</ele>
        <time>2024-07-30T07:14:07Z</time>
      </trkpt>
      <trkpt lat="43.45084" lon="1.23001">
        <ele>211.4</ele>
        <time>2024-07-30T07:14:08Z</time>
      </trkpt>
      <trkpt lat="43.4508" lon="1.22998">
        <ele>211.6</ele>
        <time>2024-07-30T07:14:09Z</time>
      </trkpt>
      <trkpt lat="43.45075" lon="1.22996">
        <ele>211.6</ele>
        <time>2024-07-30T07:14:10Z</time>
      </trkpt>
      <trkpt lat="43.45069" lon="1.22992">
        <ele>211.6</ele>
        <time>2024-07-30T07:14:11Z</time>
      </trkpt>
      <trkpt lat="43.45064" lon="1.22989">
        <ele>211.6</ele>
        <time>2024-07-30T07:14:12Z</time>
      </trkpt>
      <trkpt lat="43.45058" lon="1.22986">
        <ele>211.6</ele>
        <time>2024-07-30T07:14:13Z</time>
      </trkpt>
      <trkpt lat="43.45053" lon="1.22983">
        <ele>211.8</ele>
        <time>2024-07-30T07:14:14Z</time>
      </trkpt>
      <trkpt lat="43.45048" lon="1.2298">
        <ele>211.6</ele>
        <time>2024-07-30T07:14:15Z</time>
      </trkpt>
      <trkpt lat="43.45043" lon="1.22977">
        <ele>211.6</ele>
        <time>2024-07-30T07:14:16Z</time>
      </trkpt>
      <trkpt lat="43.45037" lon="1.22974">
        <ele>211.6</ele>
        <time>2024-07-30T07:14:17Z</time>
      </trkpt>
      <trkpt lat="43.45032" lon="1.22972">
        <ele>211.6</ele>
        <time>2024-07-30T07:14:18Z</time>
      </trkpt>
      <trkpt lat="43.45027" lon="1.22969">
        <ele>211.4</ele>
        <time>2024-07-30T07:14:19Z</time>
      </trkpt>
      <trkpt lat="43.4502" lon="1.22965">
        <ele>211.4</ele>
        <time>2024-07-30T07:14:20Z</time>
      </trkpt>
      <trkpt lat="43.45015" lon="1.22962">
        <ele>211.4</ele>
        <time>2024-07-30T07:14:21Z</time>
      </trkpt>
      <trkpt lat="43.4501" lon="1.22959">
        <ele>211.4</ele>
        <time>2024-07-30T07:14:22Z</time>
      </trkpt>
      <trkpt lat="43.45007" lon="1.22957">
        <ele>211.4</ele>
        <time>2024-07-30T07:14:23Z</time>
      </trkpt>
      <trkpt lat="43.45002" lon="1.22955">
        <ele>211.4</ele>
        <time>2024-07-30T07:14:24Z</time>
      </trkpt>
      <trkpt lat="43.44995" lon="1.2295">
        <ele>211.4</ele>
        <time>2024-07-30T07:14:25Z</time>
      </trkpt>
      <trkpt lat="43.44989" lon="1.22948">
        <ele>211.4</ele>
        <time>2024-07-30T07:14:26Z</time>
      </trkpt>
      <trkpt lat="43.44989" lon="1.22948">
        <ele>211.4</ele>
        <time>2024-07-30T07:14:27Z</time>
      </trkpt>
      <trkpt lat="43.44979" lon="1.22942">
        <ele>211.6</ele>
        <time>2024-07-30T07:14:28Z</time>
      </trkpt>
      <trkpt lat="43.44972" lon="1.22939">
        <ele>211.6</ele>
        <time>2024-07-30T07:14:29Z</time>
      </trkpt>
      <trkpt lat="43.44967" lon="1.22936">
        <ele>211.6</ele>
        <time>2024-07-30T07:14:30Z</time>
      </trkpt>
      <trkpt lat="43.44962" lon="1.22933">
        <ele>211.6</ele>
        <time>2024-07-30T07:14:31Z</time>
      </trkpt>
      <trkpt lat="43.44957" lon="1.22929">
        <ele>211.8</ele>
        <time>2024-07-30T07:14:32Z</time>
      </trkpt>
      <trkpt lat="43.44951" lon="1.22926">
        <ele>211.8</ele>
        <time>2024-07-30T07:14:33Z</time>
      </trkpt>
      <trkpt lat="43.44947" lon="1.22924">
        <ele>211.8</ele>
        <time>2024-07-30T07:14:34Z</time>
      </trkpt>
      <trkpt lat="43.44947" lon="1.22924">
        <ele>211.8</ele>
        <time>2024-07-30T07:14:35Z</time>
      </trkpt>
      <trkpt lat="43.44936" lon="1.22919">
        <ele>212</ele>
        <time>2024-07-30T07:14:36Z</time>
      </trkpt>
      <trkpt lat="43.44931" lon="1.22915">
        <ele>212</ele>
        <time>2024-07-30T07:14:37Z</time>
      </trkpt>
      <trkpt lat="43.44926" lon="1.22913">
        <ele>212.2</ele>
        <time>2024-07-30T07:14:38Z</time>
      </trkpt>
      <trkpt lat="43.44922" lon="1.22911">
        <ele>212.2</ele>
        <time>2024-07-30T07:14:39Z</time>
      </trkpt>
      <trkpt lat="43.44917" lon="1.22908">
        <ele>212.4</ele>
        <time>2024-07-30T07:14:40Z</time>
      </trkpt>
      <trkpt lat="43.44912" lon="1.22906">
        <ele>212.6</ele>
        <time>2024-07-30T07:14:41Z</time>
      </trkpt>
      <trkpt lat="43.44907" lon="1.22904">
        <ele>212.6</ele>
        <time>2024-07-30T07:14:42Z</time>
      </trkpt>
      <trkpt lat="43.44907" lon="1.22904">
        <ele>212.8</ele>
        <time>2024-07-30T07:14:43Z</time>
      </trkpt>
      <trkpt lat="43.44897" lon="1.22901">
        <ele>212.8</ele>
        <time>2024-07-30T07:14:44Z</time>
      </trkpt>
      <trkpt lat="43.44891" lon="1.229">
        <ele>213</ele>
        <time>2024-07-30T07:14:45Z</time>
      </trkpt>
      <trkpt lat="43.44886" lon="1.22898">
        <ele>213</ele>
        <time>2024-07-30T07:14:46Z</time>
      </trkpt>
      <trkpt lat="43.44881" lon="1.22897">
        <ele>213.4</ele>
        <time>2024-07-30T07:14:47Z</time>
      </trkpt>
      <trkpt lat="43.44876" lon="1.22895">
        <ele>213.6</ele>
        <time>2024-07-30T07:14:48Z</time>
      </trkpt>
      <trkpt lat="43.44872" lon="1.22894">
        <ele>214</ele>
        <time>2024-07-30T07:14:49Z</time>
      </trkpt>
      <trkpt lat="43.44867" lon="1.22893">
        <ele>214.2</ele>
        <time>2024-07-30T07:14:50Z</time>
      </trkpt>
      <trkpt lat="43.44862" lon="1.22892">
        <ele>214.4</ele>
        <time>2024-07-30T07:14:51Z</time>
      </trkpt>
      <trkpt lat="43.44857" lon="1.22891">
        <ele>214.8</ele>
        <time>2024-07-30T07:14:52Z</time>
      </trkpt>
      <trkpt lat="43.44852" lon="1.2289">
        <ele>214.8</ele>
        <time>2024-07-30T07:14:53Z</time>
      </trkpt>
      <trkpt lat="43.44845" lon="1.22889">
        <ele>215.2</ele>
        <time>2024-07-30T07:14:54Z</time>
      </trkpt>
      <trkpt lat="43.44841" lon="1.22888">
        <ele>215.2</ele>
        <time>2024-07-30T07:14:55Z</time>
      </trkpt>
      <trkpt lat="43.44836" lon="1.22887">
        <ele>215.4</ele>
        <time>2024-07-30T07:14:56Z</time>
      </trkpt>
      <trkpt lat="43.44831" lon="1.22886">
        <ele>215.6</ele>
        <time>2024-07-30T07:14:57Z</time>
      </trkpt>
      <trkpt lat="43.44825" lon="1.22885">
        <ele>215.6</ele>
        <time>2024-07-30T07:14:58Z</time>
      </trkpt>
      <trkpt lat="43.4482" lon="1.22883">
        <ele>215.8</ele>
        <time>2024-07-30T07:14:59Z</time>
      </trkpt>
      <trkpt lat="43.44814" lon="1.22882">
        <ele>215.8</ele>
        <time>2024-07-30T07:15:00Z</time>
      </trkpt>
      <trkpt lat="43.44808" lon="1.22881">
        <ele>216</ele>
        <time>2024-07-30T07:15:01Z</time>
      </trkpt>
      <trkpt lat="43.44808" lon="1.22881">
        <ele>216</ele>
        <time>2024-07-30T07:15:02Z</time>
      </trkpt>
      <trkpt lat="43.44797" lon="1.22879">
        <ele>216.2</ele>
        <time>2024-07-30T07:15:03Z</time>
      </trkpt>
      <trkpt lat="43.4479" lon="1.22878">
        <ele>216.2</ele>
        <time>2024-07-30T07:15:04Z</time>
      </trkpt>
      <trkpt lat="43.44786" lon="1.22877">
        <ele>216.2</ele>
        <time>2024-07-30T07:15:05Z</time>
      </trkpt>
      <trkpt lat="43.4478" lon="1.22876">
        <ele>216.2</ele>
        <time>2024-07-30T07:15:06Z</time>
      </trkpt>
      <trkpt lat="43.44773" lon="1.22875">
        <ele>216.2</ele>
        <time>2024-07-30T07:15:07Z</time>
      </trkpt>
      <trkpt lat="43.44767" lon="1.22874">
        <ele>216.4</ele>
        <time>2024-07-30T07:15:08Z</time>
      </trkpt>
      <trkpt lat="43.44761" lon="1.22873">
        <ele>216.4</ele>
        <time>2024-07-30T07:15:09Z</time>
      </trkpt>
      <trkpt lat="43.44756" lon="1.22872">
        <ele>216.4</ele>
        <time>2024-07-30T07:15:10Z</time>
      </trkpt>
      <trkpt lat="43.44748" lon="1.22872">
        <ele>216.4</ele>
        <time>2024-07-30T07:15:11Z</time>
      </trkpt>
      <trkpt lat="43.44742" lon="1.22871">
        <ele>216.4</ele>
        <time>2024-07-30T07:15:12Z</time>
      </trkpt>
      <trkpt lat="43.44735" lon="1.22871">
        <ele>216.4</ele>
        <time>2024-07-30T07:15:13Z</time>
      </trkpt>
      <trkpt lat="43.44728" lon="1.2287">
        <ele>216.4</ele>
        <time>2024-07-30T07:15:14Z</time>
      </trkpt>
      <trkpt lat="43.44722" lon="1.22869">
        <ele>216.2</ele>
        <time>2024-07-30T07:15:15Z</time>
      </trkpt>
      <trkpt lat="43.44715" lon="1.22868">
        <ele>216.2</ele>
        <time>2024-07-30T07:15:16Z</time>
      </trkpt>
      <trkpt lat="43.44706" lon="1.22866">
        <ele>216.2</ele>
        <time>2024-07-30T07:15:17Z</time>
      </trkpt>
      <trkpt lat="43.44699" lon="1.22864">
        <ele>216.2</ele>
        <time>2024-07-30T07:15:18Z</time>
      </trkpt>
      <trkpt lat="43.44691" lon="1.22862">
        <ele>216.2</ele>
        <time>2024-07-30T07:15:19Z</time>
      </trkpt>
      <trkpt lat="43.44685" lon="1.22861">
        <ele>216.2</ele>
        <time>2024-07-30T07:15:20Z</time>
      </trkpt>
      <trkpt lat="43.44677" lon="1.22859">
        <ele>216.2</ele>
        <time>2024-07-30T07:15:21Z</time>
      </trkpt>
      <trkpt lat="43.44669" lon="1.22857">
        <ele>216.2</ele>
        <time>2024-07-30T07:15:22Z</time>
      </trkpt>
      <trkpt lat="43.44662" lon="1.22855">
        <ele>216.2</ele>
        <time>2024-07-30T07:15:23Z</time>
      </trkpt>
      <trkpt lat="43.44657" lon="1.22853">
        <ele>216.2</ele>
        <time>2024-07-30T07:15:24Z</time>
      </trkpt>
      <trkpt lat="43.44657" lon="1.22853">
        <ele>216.2</ele>
        <time>2024-07-30T07:15:25Z</time>
      </trkpt>
      <trkpt lat="43.44642" lon="1.22849">
        <ele>216.2</ele>
        <time>2024-07-30T07:15:26Z</time>
      </trkpt>
      <trkpt lat="43.44634" lon="1.22846">
        <ele>216.2</ele>
        <time>2024-07-30T07:15:27Z</time>
      </trkpt>
      <trkpt lat="43.44634" lon="1.22846">
        <ele>216.2</ele>
        <time>2024-07-30T07:15:28Z</time>
      </trkpt>
      <trkpt lat="43.44621" lon="1.22841">
        <ele>216.2</ele>
        <time>2024-07-30T07:15:29Z</time>
      </trkpt>
      <trkpt lat="43.44613" lon="1.22837">
        <ele>216.2</ele>
        <time>2024-07-30T07:15:30Z</time>
      </trkpt>
      <trkpt lat="43.44613" lon="1.22837">
        <ele>216.4</ele>
        <time>2024-07-30T07:15:31Z</time>
      </trkpt>
      <trkpt lat="43.446" lon="1.22831">
        <ele>216.4</ele>
        <time>2024-07-30T07:15:32Z</time>
      </trkpt>
      <trkpt lat="43.44594" lon="1.22828">
        <ele>216.4</ele>
        <time>2024-07-30T07:15:33Z</time>
      </trkpt>
      <trkpt lat="43.44594" lon="1.22828">
        <ele>216.6</ele>
        <time>2024-07-30T07:15:34Z</time>
      </trkpt>
      <trkpt lat="43.44579" lon="1.22819">
        <ele>216.6</ele>
        <time>2024-07-30T07:15:35Z</time>
      </trkpt>
      <trkpt lat="43.44573" lon="1.22815">
        <ele>216.6</ele>
        <time>2024-07-30T07:15:36Z</time>
      </trkpt>
      <trkpt lat="43.44566" lon="1.22812">
        <ele>216.6</ele>
        <time>2024-07-30T07:15:37Z</time>
      </trkpt>
      <trkpt lat="43.44561" lon="1.22809">
        <ele>216.6</ele>
        <time>2024-07-30T07:15:38Z</time>
      </trkpt>
      <trkpt lat="43.44554" lon="1.22805">
        <ele>216.8</ele>
        <time>2024-07-30T07:15:39Z</time>
      </trkpt>
      <trkpt lat="43.44548" lon="1.22802">
        <ele>216.8</ele>
        <time>2024-07-30T07:15:40Z</time>
      </trkpt>
      <trkpt lat="43.44544" lon="1.22799">
        <ele>216.8</ele>
        <time>2024-07-30T07:15:41Z</time>
      </trkpt>
      <trkpt lat="43.44538" lon="1.22795">
        <ele>216.8</ele>
        <time>2024-07-30T07:15:42Z</time>
      </trkpt>
      <trkpt lat="43.44532" lon="1.22792">
        <ele>216.8</ele>
        <time>2024-07-30T07:15:43Z</time>
      </trkpt>
      <trkpt lat="43.44526" lon="1.22788">
        <ele>217</ele>
        <time>2024-07-30T07:15:44Z</time>
      </trkpt>
      <trkpt lat="43.44526" lon="1.22788">
        <ele>217</ele>
        <time>2024-07-30T07:15:45Z</time>
      </trkpt>
      <trkpt lat="43.44515" lon="1.22783">
        <ele>217</ele>
        <time>2024-07-30T07:15:46Z</time>
      </trkpt>
      <trkpt lat="43.44509" lon="1.2278">
        <ele>217</ele>
        <time>2024-07-30T07:15:47Z</time>
      </trkpt>
      <trkpt lat="43.44509" lon="1.2278">
        <ele>217</ele>
        <time>2024-07-30T07:15:48Z</time>
      </trkpt>
      <trkpt lat="43.44497" lon="1.22775">
        <ele>217</ele>
        <time>2024-07-30T07:15:49Z</time>
      </trkpt>
      <trkpt lat="43.4449" lon="1.22772">
        <ele>217</ele>
        <time>2024-07-30T07:15:50Z</time>
      </trkpt>
      <trkpt lat="43.44486" lon="1.22771">
        <ele>217</ele>
        <time>2024-07-30T07:15:51Z</time>
      </trkpt>
      <trkpt lat="43.4448" lon="1.22769">
        <ele>217</ele>
        <time>2024-07-30T07:15:52Z</time>
      </trkpt>
      <trkpt lat="43.44473" lon="1.22766">
        <ele>217</ele>
        <time>2024-07-30T07:15:53Z</time>
      </trkpt>
      <trkpt lat="43.44468" lon="1.22764">
        <ele>217</ele>
        <time>2024-07-30T07:15:54Z</time>
      </trkpt>
      <trkpt lat="43.44462" lon="1.22763">
        <ele>217</ele>
        <time>2024-07-30T07:15:55Z</time>
      </trkpt>
      <trkpt lat="43.44456" lon="1.22761">
        <ele>217</ele>
        <time>2024-07-30T07:15:56Z</time>
      </trkpt>
      <trkpt lat="43.44456" lon="1.22761">
        <ele>217</ele>
        <time>2024-07-30T07:15:57Z</time>
      </trkpt>
      <trkpt lat="43.44443" lon="1.22758">
        <ele>217</ele>
        <time>2024-07-30T07:15:58Z</time>
      </trkpt>
      <trkpt lat="43.44437" lon="1.22757">
        <ele>217</ele>
        <time>2024-07-30T07:15:59Z</time>
      </trkpt>
      <trkpt lat="43.44432" lon="1.22756">
        <ele>217</ele>
        <time>2024-07-30T07:16:00Z</time>
      </trkpt>
      <trkpt lat="43.44425" lon="1.22755">
        <ele>217</ele>
        <time>2024-07-30T07:16:01Z</time>
      </trkpt>
      <trkpt lat="43.44418" lon="1.22754">
        <ele>217</ele>
        <time>2024-07-30T07:16:02Z</time>
      </trkpt>
      <trkpt lat="43.44413" lon="1.22753">
        <ele>217</ele>
        <time>2024-07-30T07:16:03Z</time>
      </trkpt>
      <trkpt lat="43.44407" lon="1.22752">
        <ele>217</ele>
        <time>2024-07-30T07:16:04Z</time>
      </trkpt>
      <trkpt lat="43.444" lon="1.22751">
        <ele>217</ele>
        <time>2024-07-30T07:16:05Z</time>
      </trkpt>
      <trkpt lat="43.44394" lon="1.2275">
        <ele>217</ele>
        <time>2024-07-30T07:16:06Z</time>
      </trkpt>
      <trkpt lat="43.44388" lon="1.22749">
        <ele>217</ele>
        <time>2024-07-30T07:16:07Z</time>
      </trkpt>
      <trkpt lat="43.44382" lon="1.22749">
        <ele>217</ele>
        <time>2024-07-30T07:16:08Z</time>
      </trkpt>
      <trkpt lat="43.44375" lon="1.22748">
        <ele>217</ele>
        <time>2024-07-30T07:16:09Z</time>
      </trkpt>
      <trkpt lat="43.44371" lon="1.22747">
        <ele>217</ele>
        <time>2024-07-30T07:16:10Z</time>
      </trkpt>
      <trkpt lat="43.44371" lon="1.22747">
        <ele>217</ele>
        <time>2024-07-30T07:16:11Z</time>
      </trkpt>
      <trkpt lat="43.4436" lon="1.22745">
        <ele>217.2</ele>
        <time>2024-07-30T07:16:12Z</time>
      </trkpt>
      <trkpt lat="43.44353" lon="1.22745">
        <ele>217.2</ele>
        <time>2024-07-30T07:16:13Z</time>
      </trkpt>
      <trkpt lat="43.44348" lon="1.22744">
        <ele>217.2</ele>
        <time>2024-07-30T07:16:14Z</time>
      </trkpt>
      <trkpt lat="43.44343" lon="1.22744">
        <ele>217</ele>
        <time>2024-07-30T07:16:15Z</time>
      </trkpt>
      <trkpt lat="43.44336" lon="1.22743">
        <ele>217.2</ele>
        <time>2024-07-30T07:16:16Z</time>
      </trkpt>
      <trkpt lat="43.44331" lon="1.22742">
        <ele>217</ele>
        <time>2024-07-30T07:16:17Z</time>
      </trkpt>
      <trkpt lat="43.44326" lon="1.22742">
        <ele>217</ele>
        <time>2024-07-30T07:16:18Z</time>
      </trkpt>
      <trkpt lat="43.4432" lon="1.22741">
        <ele>217.2</ele>
        <time>2024-07-30T07:16:19Z</time>
      </trkpt>
      <trkpt lat="43.44315" lon="1.22741">
        <ele>217.4</ele>
        <time>2024-07-30T07:16:20Z</time>
      </trkpt>
      <trkpt lat="43.44308" lon="1.2274">
        <ele>217.2</ele>
        <time>2024-07-30T07:16:21Z</time>
      </trkpt>
      <trkpt lat="43.44303" lon="1.22739">
        <ele>217.2</ele>
        <time>2024-07-30T07:16:22Z</time>
      </trkpt>
      <trkpt lat="43.44297" lon="1.22739">
        <ele>217.2</ele>
        <time>2024-07-30T07:16:23Z</time>
      </trkpt>
      <trkpt lat="43.44291" lon="1.22738">
        <ele>217.2</ele>
        <time>2024-07-30T07:16:24Z</time>
      </trkpt>
      <trkpt lat="43.44291" lon="1.22738">
        <ele>217.2</ele>
        <time>2024-07-30T07:16:25Z</time>
      </trkpt>
      <trkpt lat="43.44279" lon="1.22737">
        <ele>217.4</ele>
        <time>2024-07-30T07:16:26Z</time>
      </trkpt>
      <trkpt lat="43.44274" lon="1.22736">
        <ele>217.4</ele>
        <time>2024-07-30T07:16:27Z</time>
      </trkpt>
      <trkpt lat="43.44268" lon="1.22736">
        <ele>217.6</ele>
        <time>2024-07-30T07:16:28Z</time>
      </trkpt>
      <trkpt lat="43.44262" lon="1.22735">
        <ele>217.6</ele>
        <time>2024-07-30T07:16:29Z</time>
      </trkpt>
      <trkpt lat="43.44256" lon="1.22735">
        <ele>217.6</ele>
        <time>2024-07-30T07:16:30Z</time>
      </trkpt>
      <trkpt lat="43.44249" lon="1.22734">
        <ele>217.8</ele>
        <time>2024-07-30T07:16:31Z</time>
      </trkpt>
      <trkpt lat="43.44243" lon="1.22734">
        <ele>217.8</ele>
        <time>2024-07-30T07:16:32Z</time>
      </trkpt>
      <trkpt lat="43.44238" lon="1.22733">
        <ele>217.8</ele>
        <time>2024-07-30T07:16:33Z</time>
      </trkpt>
      <trkpt lat="43.44232" lon="1.22732">
        <ele>217.8</ele>
        <time>2024-07-30T07:16:34Z</time>
      </trkpt>
      <trkpt lat="43.44226" lon="1.22732">
        <ele>217.8</ele>
        <time>2024-07-30T07:16:35Z</time>
      </trkpt>
      <trkpt lat="43.4422" lon="1.22731">
        <ele>217.8</ele>
        <time>2024-07-30T07:16:36Z</time>
      </trkpt>
      <trkpt lat="43.44212" lon="1.22731">
        <ele>218</ele>
        <time>2024-07-30T07:16:37Z</time>
      </trkpt>
      <trkpt lat="43.44206" lon="1.2273">
        <ele>218</ele>
        <time>2024-07-30T07:16:38Z</time>
      </trkpt>
      <trkpt lat="43.44201" lon="1.22729">
        <ele>218</ele>
        <time>2024-07-30T07:16:39Z</time>
      </trkpt>
      <trkpt lat="43.44201" lon="1.22729">
        <ele>218.2</ele>
        <time>2024-07-30T07:16:40Z</time>
      </trkpt>
      <trkpt lat="43.44189" lon="1.22728">
        <ele>218.2</ele>
        <time>2024-07-30T07:16:41Z</time>
      </trkpt>
      <trkpt lat="43.44182" lon="1.22727">
        <ele>218.2</ele>
        <time>2024-07-30T07:16:42Z</time>
      </trkpt>
      <trkpt lat="43.44182" lon="1.22727">
        <ele>218.2</ele>
        <time>2024-07-30T07:16:43Z</time>
      </trkpt>
      <trkpt lat="43.44171" lon="1.22727">
        <ele>218.2</ele>
        <time>2024-07-30T07:16:44Z</time>
      </trkpt>
      <trkpt lat="43.44164" lon="1.22726">
        <ele>218.2</ele>
        <time>2024-07-30T07:16:45Z</time>
      </trkpt>
      <trkpt lat="43.44158" lon="1.22725">
        <ele>218.2</ele>
        <time>2024-07-30T07:16:46Z</time>
      </trkpt>
      <trkpt lat="43.44152" lon="1.22724">
        <ele>218.2</ele>
        <time>2024-07-30T07:16:47Z</time>
      </trkpt>
      <trkpt lat="43.44146" lon="1.22724">
        <ele>218.2</ele>
        <time>2024-07-30T07:16:48Z</time>
      </trkpt>
      <trkpt lat="43.44139" lon="1.22723">
        <ele>218.2</ele>
        <time>2024-07-30T07:16:49Z</time>
      </trkpt>
      <trkpt lat="43.44133" lon="1.22722">
        <ele>218.2</ele>
        <time>2024-07-30T07:16:50Z</time>
      </trkpt>
      <trkpt lat="43.44127" lon="1.22721">
        <ele>218.2</ele>
        <time>2024-07-30T07:16:51Z</time>
      </trkpt>
      <trkpt lat="43.44119" lon="1.22719">
        <ele>218.2</ele>
        <time>2024-07-30T07:16:52Z</time>
      </trkpt>
      <trkpt lat="43.44114" lon="1.22718">
        <ele>218.2</ele>
        <time>2024-07-30T07:16:53Z</time>
      </trkpt>
      <trkpt lat="43.44114" lon="1.22718">
        <ele>218.2</ele>
        <time>2024-07-30T07:16:54Z</time>
      </trkpt>
      <trkpt lat="43.44102" lon="1.22714">
        <ele>218.2</ele>
        <time>2024-07-30T07:16:55Z</time>
      </trkpt>
      <trkpt lat="43.44094" lon="1.22711">
        <ele>218.2</ele>
        <time>2024-07-30T07:16:56Z</time>
      </trkpt>
      <trkpt lat="43.44094" lon="1.22711">
        <ele>218.2</ele>
        <time>2024-07-30T07:16:57Z</time>
      </trkpt>
      <trkpt lat="43.44083" lon="1.22706">
        <ele>218.2</ele>
        <time>2024-07-30T07:16:58Z</time>
      </trkpt>
      <trkpt lat="43.44076" lon="1.22702">
        <ele>218.2</ele>
        <time>2024-07-30T07:16:59Z</time>
      </trkpt>
      <trkpt lat="43.44076" lon="1.22702">
        <ele>218.2</ele>
        <time>2024-07-30T07:17:00Z</time>
      </trkpt>
      <trkpt lat="43.44065" lon="1.22697">
        <ele>218.4</ele>
        <time>2024-07-30T07:17:01Z</time>
      </trkpt>
      <trkpt lat="43.44059" lon="1.22693">
        <ele>218.4</ele>
        <time>2024-07-30T07:17:02Z</time>
      </trkpt>
      <trkpt lat="43.44059" lon="1.22693">
        <ele>218.4</ele>
        <time>2024-07-30T07:17:03Z</time>
      </trkpt>
      <trkpt lat="43.44048" lon="1.22686">
        <ele>218.4</ele>
        <time>2024-07-30T07:17:04Z</time>
      </trkpt>
      <trkpt lat="43.44041" lon="1.22682">
        <ele>218.4</ele>
        <time>2024-07-30T07:17:05Z</time>
      </trkpt>
      <trkpt lat="43.44041" lon="1.22682">
        <ele>218.4</ele>
        <time>2024-07-30T07:17:06Z</time>
      </trkpt>
      <trkpt lat="43.4403" lon="1.22677">
        <ele>218.4</ele>
        <time>2024-07-30T07:17:07Z</time>
      </trkpt>
      <trkpt lat="43.44025" lon="1.22673">
        <ele>218.4</ele>
        <time>2024-07-30T07:17:08Z</time>
      </trkpt>
      <trkpt lat="43.44018" lon="1.2267">
        <ele>218.4</ele>
        <time>2024-07-30T07:17:09Z</time>
      </trkpt>
      <trkpt lat="43.44011" lon="1.22665">
        <ele>218.4</ele>
        <time>2024-07-30T07:17:10Z</time>
      </trkpt>
      <trkpt lat="43.44006" lon="1.22662">
        <ele>218.4</ele>
        <time>2024-07-30T07:17:11Z</time>
      </trkpt>
      <trkpt lat="43.44" lon="1.22659">
        <ele>218.4</ele>
        <time>2024-07-30T07:17:12Z</time>
      </trkpt>
      <trkpt lat="43.43993" lon="1.22655">
        <ele>218.4</ele>
        <time>2024-07-30T07:17:13Z</time>
      </trkpt>
      <trkpt lat="43.43988" lon="1.22652">
        <ele>218.4</ele>
        <time>2024-07-30T07:17:14Z</time>
      </trkpt>
      <trkpt lat="43.43982" lon="1.22649">
        <ele>218.4</ele>
        <time>2024-07-30T07:17:15Z</time>
      </trkpt>
      <trkpt lat="43.43975" lon="1.22645">
        <ele>218.4</ele>
        <time>2024-07-30T07:17:16Z</time>
      </trkpt>
      <trkpt lat="43.43969" lon="1.22642">
        <ele>218.4</ele>
        <time>2024-07-30T07:17:17Z</time>
      </trkpt>
      <trkpt lat="43.43963" lon="1.22638">
        <ele>218.4</ele>
        <time>2024-07-30T07:17:18Z</time>
      </trkpt>
      <trkpt lat="43.43957" lon="1.22634">
        <ele>218.4</ele>
        <time>2024-07-30T07:17:19Z</time>
      </trkpt>
      <trkpt lat="43.4395" lon="1.22631">
        <ele>218.4</ele>
        <time>2024-07-30T07:17:20Z</time>
      </trkpt>
      <trkpt lat="43.43944" lon="1.22628">
        <ele>218.4</ele>
        <time>2024-07-30T07:17:21Z</time>
      </trkpt>
      <trkpt lat="43.43938" lon="1.22624">
        <ele>218.4</ele>
        <time>2024-07-30T07:17:22Z</time>
      </trkpt>
      <trkpt lat="43.43932" lon="1.22621">
        <ele>218.4</ele>
        <time>2024-07-30T07:17:23Z</time>
      </trkpt>
      <trkpt lat="43.43925" lon="1.22617">
        <ele>218.4</ele>
        <time>2024-07-30T07:17:24Z</time>
      </trkpt>
      <trkpt lat="43.4392" lon="1.22614">
        <ele>218.4</ele>
        <time>2024-07-30T07:17:25Z</time>
      </trkpt>
      <trkpt lat="43.43914" lon="1.2261">
        <ele>218.4</ele>
        <time>2024-07-30T07:17:26Z</time>
      </trkpt>
      <trkpt lat="43.43907" lon="1.22607">
        <ele>218.4</ele>
        <time>2024-07-30T07:17:27Z</time>
      </trkpt>
      <trkpt lat="43.43902" lon="1.22604">
        <ele>218.4</ele>
        <time>2024-07-30T07:17:28Z</time>
      </trkpt>
      <trkpt lat="43.43896" lon="1.226">
        <ele>218.4</ele>
        <time>2024-07-30T07:17:29Z</time>
      </trkpt>
      <trkpt lat="43.4389" lon="1.22597">
        <ele>218.4</ele>
        <time>2024-07-30T07:17:30Z</time>
      </trkpt>
      <trkpt lat="43.43884" lon="1.22593">
        <ele>218.4</ele>
        <time>2024-07-30T07:17:31Z</time>
      </trkpt>
      <trkpt lat="43.43878" lon="1.2259">
        <ele>218.4</ele>
        <time>2024-07-30T07:17:32Z</time>
      </trkpt>
      <trkpt lat="43.43872" lon="1.22586">
        <ele>218.4</ele>
        <time>2024-07-30T07:17:33Z</time>
      </trkpt>
      <trkpt lat="43.43866" lon="1.22583">
        <ele>218.4</ele>
        <time>2024-07-30T07:17:34Z</time>
      </trkpt>
      <trkpt lat="43.4386" lon="1.2258">
        <ele>218.4</ele>
        <time>2024-07-30T07:17:35Z</time>
      </trkpt>
      <trkpt lat="43.43853" lon="1.22577">
        <ele>218.4</ele>
        <time>2024-07-30T07:17:36Z</time>
      </trkpt>
      <trkpt lat="43.43847" lon="1.22573">
        <ele>218.4</ele>
        <time>2024-07-30T07:17:37Z</time>
      </trkpt>
      <trkpt lat="43.43841" lon="1.22569">
        <ele>218.4</ele>
        <time>2024-07-30T07:17:38Z</time>
      </trkpt>
      <trkpt lat="43.43835" lon="1.22566">
        <ele>218.4</ele>
        <time>2024-07-30T07:17:39Z</time>
      </trkpt>
      <trkpt lat="43.43829" lon="1.22562">
        <ele>218.4</ele>
        <time>2024-07-30T07:17:40Z</time>
      </trkpt>
      <trkpt lat="43.43822" lon="1.22559">
        <ele>218.4</ele>
        <time>2024-07-30T07:17:41Z</time>
      </trkpt>
      <trkpt lat="43.43816" lon="1.22555">
        <ele>218.4</ele>
        <time>2024-07-30T07:17:42Z</time>
      </trkpt>
      <trkpt lat="43.4381" lon="1.22552">
        <ele>218.4</ele>
        <time>2024-07-30T07:17:43Z</time>
      </trkpt>
      <trkpt lat="43.43804" lon="1.22549">
        <ele>218.4</ele>
        <time>2024-07-30T07:17:44Z</time>
      </trkpt>
      <trkpt lat="43.43797" lon="1.22545">
        <ele>218.4</ele>
        <time>2024-07-30T07:17:45Z</time>
      </trkpt>
      <trkpt lat="43.43791" lon="1.22542">
        <ele>218.4</ele>
        <time>2024-07-30T07:17:46Z</time>
      </trkpt>
      <trkpt lat="43.43785" lon="1.22539">
        <ele>218.4</ele>
        <time>2024-07-30T07:17:47Z</time>
      </trkpt>
      <trkpt lat="43.43779" lon="1.22536">
        <ele>218.4</ele>
        <time>2024-07-30T07:17:48Z</time>
      </trkpt>
      <trkpt lat="43.43773" lon="1.22532">
        <ele>218.4</ele>
        <time>2024-07-30T07:17:49Z</time>
      </trkpt>
      <trkpt lat="43.43767" lon="1.22529">
        <ele>218.2</ele>
        <time>2024-07-30T07:17:50Z</time>
      </trkpt>
      <trkpt lat="43.43761" lon="1.22526">
        <ele>218.4</ele>
        <time>2024-07-30T07:17:51Z</time>
      </trkpt>
      <trkpt lat="43.43755" lon="1.22523">
        <ele>218.4</ele>
        <time>2024-07-30T07:17:52Z</time>
      </trkpt>
      <trkpt lat="43.43748" lon="1.2252">
        <ele>218.4</ele>
        <time>2024-07-30T07:17:53Z</time>
      </trkpt>
      <trkpt lat="43.43742" lon="1.22517">
        <ele>218.4</ele>
        <time>2024-07-30T07:17:54Z</time>
      </trkpt>
      <trkpt lat="43.43736" lon="1.22514">
        <ele>218.4</ele>
        <time>2024-07-30T07:17:55Z</time>
      </trkpt>
      <trkpt lat="43.4373" lon="1.22511">
        <ele>218.4</ele>
        <time>2024-07-30T07:17:56Z</time>
      </trkpt>
      <trkpt lat="43.43724" lon="1.22508">
        <ele>218.4</ele>
        <time>2024-07-30T07:17:57Z</time>
      </trkpt>
      <trkpt lat="43.43717" lon="1.22505">
        <ele>218.4</ele>
        <time>2024-07-30T07:17:58Z</time>
      </trkpt>
      <trkpt lat="43.43712" lon="1.22503">
        <ele>218.4</ele>
        <time>2024-07-30T07:17:59Z</time>
      </trkpt>
      <trkpt lat="43.43706" lon="1.22501">
        <ele>218.4</ele>
        <time>2024-07-30T07:18:00Z</time>
      </trkpt>
      <trkpt lat="43.437" lon="1.22499">
        <ele>218.4</ele>
        <time>2024-07-30T07:18:01Z</time>
      </trkpt>
      <trkpt lat="43.43693" lon="1.22497">
        <ele>218.6</ele>
        <time>2024-07-30T07:18:02Z</time>
      </trkpt>
      <trkpt lat="43.43687" lon="1.22496">
        <ele>218.6</ele>
        <time>2024-07-30T07:18:03Z</time>
      </trkpt>
      <trkpt lat="43.43681" lon="1.22494">
        <ele>218.6</ele>
        <time>2024-07-30T07:18:04Z</time>
      </trkpt>
      <trkpt lat="43.43675" lon="1.22492">
        <ele>218.8</ele>
        <time>2024-07-30T07:18:05Z</time>
      </trkpt>
      <trkpt lat="43.43669" lon="1.22491">
        <ele>218.8</ele>
        <time>2024-07-30T07:18:06Z</time>
      </trkpt>
      <trkpt lat="43.43661" lon="1.22489">
        <ele>218.8</ele>
        <time>2024-07-30T07:18:07Z</time>
      </trkpt>
      <trkpt lat="43.43656" lon="1.22488">
        <ele>219</ele>
        <time>2024-07-30T07:18:08Z</time>
      </trkpt>
      <trkpt lat="43.4365" lon="1.22487">
        <ele>219</ele>
        <time>2024-07-30T07:18:09Z</time>
      </trkpt>
      <trkpt lat="43.43643" lon="1.22486">
        <ele>219</ele>
        <time>2024-07-30T07:18:10Z</time>
      </trkpt>
      <trkpt lat="43.43637" lon="1.22485">
        <ele>219</ele>
        <time>2024-07-30T07:18:11Z</time>
      </trkpt>
      <trkpt lat="43.43631" lon="1.22483">
        <ele>219</ele>
        <time>2024-07-30T07:18:12Z</time>
      </trkpt>
      <trkpt lat="43.43624" lon="1.22482">
        <ele>219</ele>
        <time>2024-07-30T07:18:13Z</time>
      </trkpt>
      <trkpt lat="43.43618" lon="1.2248">
        <ele>219</ele>
        <time>2024-07-30T07:18:14Z</time>
      </trkpt>
      <trkpt lat="43.4361" lon="1.22479">
        <ele>219</ele>
        <time>2024-07-30T07:18:15Z</time>
      </trkpt>
      <trkpt lat="43.43603" lon="1.22477">
        <ele>219</ele>
        <time>2024-07-30T07:18:16Z</time>
      </trkpt>
      <trkpt lat="43.43597" lon="1.22476">
        <ele>219</ele>
        <time>2024-07-30T07:18:17Z</time>
      </trkpt>
      <trkpt lat="43.4359" lon="1.22475">
        <ele>218.8</ele>
        <time>2024-07-30T07:18:18Z</time>
      </trkpt>
      <trkpt lat="43.43581" lon="1.22473">
        <ele>218.8</ele>
        <time>2024-07-30T07:18:19Z</time>
      </trkpt>
      <trkpt lat="43.43575" lon="1.22472">
        <ele>218.8</ele>
        <time>2024-07-30T07:18:20Z</time>
      </trkpt>
      <trkpt lat="43.43568" lon="1.2247">
        <ele>218.8</ele>
        <time>2024-07-30T07:18:21Z</time>
      </trkpt>
      <trkpt lat="43.4356" lon="1.22469">
        <ele>218.8</ele>
        <time>2024-07-30T07:18:22Z</time>
      </trkpt>
      <trkpt lat="43.43553" lon="1.22467">
        <ele>218.8</ele>
        <time>2024-07-30T07:18:23Z</time>
      </trkpt>
      <trkpt lat="43.43545" lon="1.22465">
        <ele>218.8</ele>
        <time>2024-07-30T07:18:24Z</time>
      </trkpt>
      <trkpt lat="43.43537" lon="1.22464">
        <ele>218.6</ele>
        <time>2024-07-30T07:18:25Z</time>
      </trkpt>
      <trkpt lat="43.43527" lon="1.22462">
        <ele>218.4</ele>
        <time>2024-07-30T07:18:26Z</time>
      </trkpt>
      <trkpt lat="43.43521" lon="1.2246">
        <ele>218.2</ele>
        <time>2024-07-30T07:18:27Z</time>
      </trkpt>
      <trkpt lat="43.43514" lon="1.22459">
        <ele>218.2</ele>
        <time>2024-07-30T07:18:28Z</time>
      </trkpt>
      <trkpt lat="43.43505" lon="1.22457">
        <ele>218</ele>
        <time>2024-07-30T07:18:29Z</time>
      </trkpt>
      <trkpt lat="43.43499" lon="1.22456">
        <ele>218</ele>
        <time>2024-07-30T07:18:30Z</time>
      </trkpt>
      <trkpt lat="43.43492" lon="1.22454">
        <ele>217.6</ele>
        <time>2024-07-30T07:18:31Z</time>
      </trkpt>
      <trkpt lat="43.43484" lon="1.22452">
        <ele>217.6</ele>
        <time>2024-07-30T07:18:32Z</time>
      </trkpt>
      <trkpt lat="43.43476" lon="1.2245">
        <ele>217.4</ele>
        <time>2024-07-30T07:18:33Z</time>
      </trkpt>
      <trkpt lat="43.43469" lon="1.22448">
        <ele>217.4</ele>
        <time>2024-07-30T07:18:34Z</time>
      </trkpt>
      <trkpt lat="43.4346" lon="1.22446">
        <ele>217.2</ele>
        <time>2024-07-30T07:18:35Z</time>
      </trkpt>
      <trkpt lat="43.43454" lon="1.22445">
        <ele>217.2</ele>
        <time>2024-07-30T07:18:36Z</time>
      </trkpt>
      <trkpt lat="43.43446" lon="1.22443">
        <ele>217.2</ele>
        <time>2024-07-30T07:18:37Z</time>
      </trkpt>
      <trkpt lat="43.43439" lon="1.22441">
        <ele>217.2</ele>
        <time>2024-07-30T07:18:38Z</time>
      </trkpt>
      <trkpt lat="43.43432" lon="1.2244">
        <ele>217.2</ele>
        <time>2024-07-30T07:18:39Z</time>
      </trkpt>
      <trkpt lat="43.43424" lon="1.22438">
        <ele>217.4</ele>
        <time>2024-07-30T07:18:40Z</time>
      </trkpt>
      <trkpt lat="43.43417" lon="1.22436">
        <ele>217.6</ele>
        <time>2024-07-30T07:18:41Z</time>
      </trkpt>
      <trkpt lat="43.4341" lon="1.22435">
        <ele>217.6</ele>
        <time>2024-07-30T07:18:42Z</time>
      </trkpt>
      <trkpt lat="43.43403" lon="1.22433">
        <ele>217.6</ele>
        <time>2024-07-30T07:18:43Z</time>
      </trkpt>
      <trkpt lat="43.43395" lon="1.22431">
        <ele>217.6</ele>
        <time>2024-07-30T07:18:44Z</time>
      </trkpt>
      <trkpt lat="43.43389" lon="1.2243">
        <ele>217.6</ele>
        <time>2024-07-30T07:18:45Z</time>
      </trkpt>
      <trkpt lat="43.43384" lon="1.22429">
        <ele>217.6</ele>
        <time>2024-07-30T07:18:46Z</time>
      </trkpt>
      <trkpt lat="43.43377" lon="1.22428">
        <ele>217.6</ele>
        <time>2024-07-30T07:18:47Z</time>
      </trkpt>
      <trkpt lat="43.43369" lon="1.22427">
        <ele>217.8</ele>
        <time>2024-07-30T07:18:48Z</time>
      </trkpt>
      <trkpt lat="43.43364" lon="1.22426">
        <ele>217.8</ele>
        <time>2024-07-30T07:18:49Z</time>
      </trkpt>
      <trkpt lat="43.43357" lon="1.22425">
        <ele>217.8</ele>
        <time>2024-07-30T07:18:50Z</time>
      </trkpt>
      <trkpt lat="43.4335" lon="1.22424">
        <ele>217.8</ele>
        <time>2024-07-30T07:18:51Z</time>
      </trkpt>
      <trkpt lat="43.43343" lon="1.22423">
        <ele>217.8</ele>
        <time>2024-07-30T07:18:52Z</time>
      </trkpt>
      <trkpt lat="43.43335" lon="1.22422">
        <ele>218</ele>
        <time>2024-07-30T07:18:53Z</time>
      </trkpt>
      <trkpt lat="43.4333" lon="1.22421">
        <ele>218.2</ele>
        <time>2024-07-30T07:18:54Z</time>
      </trkpt>
      <trkpt lat="43.43321" lon="1.2242">
        <ele>218.4</ele>
        <time>2024-07-30T07:18:55Z</time>
      </trkpt>
      <trkpt lat="43.43316" lon="1.22418">
        <ele>218.6</ele>
        <time>2024-07-30T07:18:56Z</time>
      </trkpt>
      <trkpt lat="43.43309" lon="1.22417">
        <ele>218.6</ele>
        <time>2024-07-30T07:18:57Z</time>
      </trkpt>
      <trkpt lat="43.43302" lon="1.22416">
        <ele>218.8</ele>
        <time>2024-07-30T07:18:58Z</time>
      </trkpt>
      <trkpt lat="43.43294" lon="1.22414">
        <ele>218.8</ele>
        <time>2024-07-30T07:18:59Z</time>
      </trkpt>
      <trkpt lat="43.43289" lon="1.22413">
        <ele>218.8</ele>
        <time>2024-07-30T07:19:00Z</time>
      </trkpt>
      <trkpt lat="43.43282" lon="1.22411">
        <ele>219</ele>
        <time>2024-07-30T07:19:01Z</time>
      </trkpt>
      <trkpt lat="43.43274" lon="1.22409">
        <ele>219</ele>
        <time>2024-07-30T07:19:02Z</time>
      </trkpt>
      <trkpt lat="43.43267" lon="1.22408">
        <ele>219</ele>
        <time>2024-07-30T07:19:03Z</time>
      </trkpt>
      <trkpt lat="43.43262" lon="1.22406">
        <ele>219</ele>
        <time>2024-07-30T07:19:04Z</time>
      </trkpt>
      <trkpt lat="43.43256" lon="1.22404">
        <ele>219.2</ele>
        <time>2024-07-30T07:19:05Z</time>
      </trkpt>
      <trkpt lat="43.43249" lon="1.22402">
        <ele>219.2</ele>
        <time>2024-07-30T07:19:06Z</time>
      </trkpt>
      <trkpt lat="43.43243" lon="1.224">
        <ele>219.2</ele>
        <time>2024-07-30T07:19:07Z</time>
      </trkpt>
      <trkpt lat="43.43235" lon="1.22398">
        <ele>219.2</ele>
        <time>2024-07-30T07:19:08Z</time>
      </trkpt>
      <trkpt lat="43.4323" lon="1.22395">
        <ele>219.2</ele>
        <time>2024-07-30T07:19:09Z</time>
      </trkpt>
      <trkpt lat="43.43224" lon="1.22393">
        <ele>219.2</ele>
        <time>2024-07-30T07:19:10Z</time>
      </trkpt>
      <trkpt lat="43.43217" lon="1.2239">
        <ele>219.4</ele>
        <time>2024-07-30T07:19:11Z</time>
      </trkpt>
      <trkpt lat="43.43211" lon="1.22388">
        <ele>219.4</ele>
        <time>2024-07-30T07:19:12Z</time>
      </trkpt>
      <trkpt lat="43.43206" lon="1.22385">
        <ele>219.4</ele>
        <time>2024-07-30T07:19:13Z</time>
      </trkpt>
      <trkpt lat="43.43201" lon="1.22382">
        <ele>219.4</ele>
        <time>2024-07-30T07:19:14Z</time>
      </trkpt>
      <trkpt lat="43.43195" lon="1.2238">
        <ele>219.4</ele>
        <time>2024-07-30T07:19:15Z</time>
      </trkpt>
      <trkpt lat="43.43189" lon="1.22378">
        <ele>219.4</ele>
        <time>2024-07-30T07:19:16Z</time>
      </trkpt>
      <trkpt lat="43.43182" lon="1.22375">
        <ele>219.4</ele>
        <time>2024-07-30T07:19:17Z</time>
      </trkpt>
      <trkpt lat="43.43176" lon="1.22373">
        <ele>219.6</ele>
        <time>2024-07-30T07:19:18Z</time>
      </trkpt>
      <trkpt lat="43.43171" lon="1.2237">
        <ele>219.6</ele>
        <time>2024-07-30T07:19:19Z</time>
      </trkpt>
      <trkpt lat="43.43164" lon="1.22368">
        <ele>219.6</ele>
        <time>2024-07-30T07:19:20Z</time>
      </trkpt>
      <trkpt lat="43.43157" lon="1.22365">
        <ele>219.6</ele>
        <time>2024-07-30T07:19:21Z</time>
      </trkpt>
      <trkpt lat="43.43151" lon="1.22362">
        <ele>219.6</ele>
        <time>2024-07-30T07:19:22Z</time>
      </trkpt>
      <trkpt lat="43.43147" lon="1.2236">
        <ele>219.8</ele>
        <time>2024-07-30T07:19:23Z</time>
      </trkpt>
      <trkpt lat="43.43141" lon="1.22358">
        <ele>219.6</ele>
        <time>2024-07-30T07:19:24Z</time>
      </trkpt>
      <trkpt lat="43.43135" lon="1.22355">
        <ele>219.6</ele>
        <time>2024-07-30T07:19:25Z</time>
      </trkpt>
      <trkpt lat="43.43129" lon="1.22353">
        <ele>219.6</ele>
        <time>2024-07-30T07:19:26Z</time>
      </trkpt>
      <trkpt lat="43.43123" lon="1.2235">
        <ele>219.6</ele>
        <time>2024-07-30T07:19:27Z</time>
      </trkpt>
      <trkpt lat="43.43116" lon="1.22347">
        <ele>219.6</ele>
        <time>2024-07-30T07:19:28Z</time>
      </trkpt>
      <trkpt lat="43.43112" lon="1.22346">
        <ele>219.6</ele>
        <time>2024-07-30T07:19:29Z</time>
      </trkpt>
      <trkpt lat="43.43106" lon="1.22343">
        <ele>219.6</ele>
        <time>2024-07-30T07:19:30Z</time>
      </trkpt>
      <trkpt lat="43.43101" lon="1.22341">
        <ele>219.8</ele>
        <time>2024-07-30T07:19:31Z</time>
      </trkpt>
      <trkpt lat="43.43094" lon="1.22338">
        <ele>219.6</ele>
        <time>2024-07-30T07:19:32Z</time>
      </trkpt>
      <trkpt lat="43.4309" lon="1.22337">
        <ele>219.6</ele>
        <time>2024-07-30T07:19:33Z</time>
      </trkpt>
      <trkpt lat="43.43084" lon="1.22335">
        <ele>219.6</ele>
        <time>2024-07-30T07:19:34Z</time>
      </trkpt>
      <trkpt lat="43.43078" lon="1.22333">
        <ele>219.8</ele>
        <time>2024-07-30T07:19:35Z</time>
      </trkpt>
      <trkpt lat="43.43074" lon="1.22331">
        <ele>220</ele>
        <time>2024-07-30T07:19:36Z</time>
      </trkpt>
      <trkpt lat="43.43069" lon="1.22329">
        <ele>220</ele>
        <time>2024-07-30T07:19:37Z</time>
      </trkpt>
      <trkpt lat="43.43063" lon="1.22326">
        <ele>220.2</ele>
        <time>2024-07-30T07:19:38Z</time>
      </trkpt>
      <trkpt lat="43.43058" lon="1.22324">
        <ele>220.4</ele>
        <time>2024-07-30T07:19:39Z</time>
      </trkpt>
      <trkpt lat="43.43051" lon="1.22321">
        <ele>220.4</ele>
        <time>2024-07-30T07:19:40Z</time>
      </trkpt>
      <trkpt lat="43.43046" lon="1.22319">
        <ele>220.6</ele>
        <time>2024-07-30T07:19:41Z</time>
      </trkpt>
      <trkpt lat="43.43041" lon="1.22317">
        <ele>220.6</ele>
        <time>2024-07-30T07:19:42Z</time>
      </trkpt>
      <trkpt lat="43.43036" lon="1.22314">
        <ele>220.8</ele>
        <time>2024-07-30T07:19:43Z</time>
      </trkpt>
      <trkpt lat="43.4303" lon="1.22311">
        <ele>220.8</ele>
        <time>2024-07-30T07:19:44Z</time>
      </trkpt>
      <trkpt lat="43.43024" lon="1.22308">
        <ele>221</ele>
        <time>2024-07-30T07:19:45Z</time>
      </trkpt>
      <trkpt lat="43.4302" lon="1.22306">
        <ele>221</ele>
        <time>2024-07-30T07:19:46Z</time>
      </trkpt>
      <trkpt lat="43.43015" lon="1.22302">
        <ele>221</ele>
        <time>2024-07-30T07:19:47Z</time>
      </trkpt>
      <trkpt lat="43.4301" lon="1.22297">
        <ele>221</ele>
        <time>2024-07-30T07:19:48Z</time>
      </trkpt>
      <trkpt lat="43.43004" lon="1.2229">
        <ele>221</ele>
        <time>2024-07-30T07:19:49Z</time>
      </trkpt>
      <trkpt lat="43.42999" lon="1.22285">
        <ele>221</ele>
        <time>2024-07-30T07:19:50Z</time>
      </trkpt>
      <trkpt lat="43.42996" lon="1.2228">
        <ele>221</ele>
        <time>2024-07-30T07:19:51Z</time>
      </trkpt>
      <trkpt lat="43.42992" lon="1.22274">
        <ele>221</ele>
        <time>2024-07-30T07:19:52Z</time>
      </trkpt>
      <trkpt lat="43.42988" lon="1.22268">
        <ele>221</ele>
        <time>2024-07-30T07:19:53Z</time>
      </trkpt>
      <trkpt lat="43.42985" lon="1.22261">
        <ele>221.2</ele>
        <time>2024-07-30T07:19:54Z</time>
      </trkpt>
      <trkpt lat="43.42981" lon="1.22253">
        <ele>221.2</ele>
        <time>2024-07-30T07:19:55Z</time>
      </trkpt>
      <trkpt lat="43.42977" lon="1.22247">
        <ele>221.4</ele>
        <time>2024-07-30T07:19:56Z</time>
      </trkpt>
      <trkpt lat="43.42973" lon="1.2224">
        <ele>221.4</ele>
        <time>2024-07-30T07:19:57Z</time>
      </trkpt>
      <trkpt lat="43.42968" lon="1.22232">
        <ele>221.6</ele>
        <time>2024-07-30T07:19:58Z</time>
      </trkpt>
      <trkpt lat="43.42964" lon="1.22225">
        <ele>221.8</ele>
        <time>2024-07-30T07:19:59Z</time>
      </trkpt>
      <trkpt lat="43.42962" lon="1.22218">
        <ele>221.8</ele>
        <time>2024-07-30T07:20:00Z</time>
      </trkpt>
      <trkpt lat="43.42959" lon="1.2221">
        <ele>221.8</ele>
        <time>2024-07-30T07:20:01Z</time>
      </trkpt>
      <trkpt lat="43.42957" lon="1.22202">
        <ele>221.8</ele>
        <time>2024-07-30T07:20:02Z</time>
      </trkpt>
      <trkpt lat="43.42956" lon="1.2219">
        <ele>221.8</ele>
        <time>2024-07-30T07:20:03Z</time>
      </trkpt>
      <trkpt lat="43.42957" lon="1.22181">
        <ele>221.8</ele>
        <time>2024-07-30T07:20:04Z</time>
      </trkpt>
      <trkpt lat="43.42958" lon="1.22174">
        <ele>221.8</ele>
        <time>2024-07-30T07:20:05Z</time>
      </trkpt>
      <trkpt lat="43.42961" lon="1.22166">
        <ele>221.8</ele>
        <time>2024-07-30T07:20:06Z</time>
      </trkpt>
      <trkpt lat="43.42964" lon="1.22156">
        <ele>221.8</ele>
        <time>2024-07-30T07:20:07Z</time>
      </trkpt>
      <trkpt lat="43.42967" lon="1.22148">
        <ele>221.8</ele>
        <time>2024-07-30T07:20:08Z</time>
      </trkpt>
      <trkpt lat="43.42969" lon="1.22142">
        <ele>221.8</ele>
        <time>2024-07-30T07:20:09Z</time>
      </trkpt>
      <trkpt lat="43.42972" lon="1.22135">
        <ele>221.8</ele>
        <time>2024-07-30T07:20:10Z</time>
      </trkpt>
      <trkpt lat="43.42974" lon="1.22128">
        <ele>221.8</ele>
        <time>2024-07-30T07:20:11Z</time>
      </trkpt>
      <trkpt lat="43.42976" lon="1.2212">
        <ele>221.8</ele>
        <time>2024-07-30T07:20:12Z</time>
      </trkpt>
      <trkpt lat="43.42979" lon="1.22111">
        <ele>221.8</ele>
        <time>2024-07-30T07:20:13Z</time>
      </trkpt>
      <trkpt lat="43.42981" lon="1.22105">
        <ele>221.8</ele>
        <time>2024-07-30T07:20:14Z</time>
      </trkpt>
      <trkpt lat="43.42982" lon="1.22097">
        <ele>221.8</ele>
        <time>2024-07-30T07:20:15Z</time>
      </trkpt>
      <trkpt lat="43.42984" lon="1.22089">
        <ele>221.8</ele>
        <time>2024-07-30T07:20:16Z</time>
      </trkpt>
      <trkpt lat="43.42986" lon="1.22081">
        <ele>222</ele>
        <time>2024-07-30T07:20:17Z</time>
      </trkpt>
      <trkpt lat="43.42987" lon="1.22073">
        <ele>222</ele>
        <time>2024-07-30T07:20:18Z</time>
      </trkpt>
      <trkpt lat="43.42989" lon="1.22065">
        <ele>222</ele>
        <time>2024-07-30T07:20:19Z</time>
      </trkpt>
      <trkpt lat="43.42991" lon="1.22057">
        <ele>222</ele>
        <time>2024-07-30T07:20:20Z</time>
      </trkpt>
      <trkpt lat="43.42993" lon="1.22046">
        <ele>222.2</ele>
        <time>2024-07-30T07:20:21Z</time>
      </trkpt>
      <trkpt lat="43.42994" lon="1.22036">
        <ele>222.2</ele>
        <time>2024-07-30T07:20:22Z</time>
      </trkpt>
      <trkpt lat="43.42995" lon="1.22029">
        <ele>222.2</ele>
        <time>2024-07-30T07:20:23Z</time>
      </trkpt>
      <trkpt lat="43.42993" lon="1.2202">
        <ele>222.2</ele>
        <time>2024-07-30T07:20:24Z</time>
      </trkpt>
      <trkpt lat="43.42991" lon="1.22011">
        <ele>222.4</ele>
        <time>2024-07-30T07:20:25Z</time>
      </trkpt>
      <trkpt lat="43.42987" lon="1.22001">
        <ele>222.4</ele>
        <time>2024-07-30T07:20:26Z</time>
      </trkpt>
      <trkpt lat="43.42984" lon="1.21994">
        <ele>222.4</ele>
        <time>2024-07-30T07:20:27Z</time>
      </trkpt>
      <trkpt lat="43.42981" lon="1.21987">
        <ele>222.4</ele>
        <time>2024-07-30T07:20:28Z</time>
      </trkpt>
      <trkpt lat="43.42978" lon="1.21981">
        <ele>222.4</ele>
        <time>2024-07-30T07:20:29Z</time>
      </trkpt>
      <trkpt lat="43.42974" lon="1.21973">
        <ele>222.4</ele>
        <time>2024-07-30T07:20:30Z</time>
      </trkpt>
      <trkpt lat="43.42971" lon="1.21967">
        <ele>222.4</ele>
        <time>2024-07-30T07:20:31Z</time>
      </trkpt>
      <trkpt lat="43.42969" lon="1.21962">
        <ele>222.4</ele>
        <time>2024-07-30T07:20:32Z</time>
      </trkpt>
      <trkpt lat="43.42967" lon="1.21955">
        <ele>222.4</ele>
        <time>2024-07-30T07:20:33Z</time>
      </trkpt>
      <trkpt lat="43.42964" lon="1.21949">
        <ele>222.6</ele>
        <time>2024-07-30T07:20:34Z</time>
      </trkpt>
      <trkpt lat="43.42961" lon="1.21943">
        <ele>222.6</ele>
        <time>2024-07-30T07:20:35Z</time>
      </trkpt>
      <trkpt lat="43.42959" lon="1.21936">
        <ele>222.6</ele>
        <time>2024-07-30T07:20:36Z</time>
      </trkpt>
      <trkpt lat="43.42957" lon="1.21931">
        <ele>222.6</ele>
        <time>2024-07-30T07:20:37Z</time>
      </trkpt>
      <trkpt lat="43.42953" lon="1.21924">
        <ele>222.6</ele>
        <time>2024-07-30T07:20:38Z</time>
      </trkpt>
      <trkpt lat="43.42949" lon="1.21916">
        <ele>222.6</ele>
        <time>2024-07-30T07:20:39Z</time>
      </trkpt>
      <trkpt lat="43.42945" lon="1.21908">
        <ele>222.8</ele>
        <time>2024-07-30T07:20:40Z</time>
      </trkpt>
      <trkpt lat="43.42942" lon="1.219">
        <ele>222.8</ele>
        <time>2024-07-30T07:20:41Z</time>
      </trkpt>
      <trkpt lat="43.42939" lon="1.21893">
        <ele>222.8</ele>
        <time>2024-07-30T07:20:42Z</time>
      </trkpt>
      <trkpt lat="43.42935" lon="1.21886">
        <ele>222.8</ele>
        <time>2024-07-30T07:20:43Z</time>
      </trkpt>
      <trkpt lat="43.42932" lon="1.21878">
        <ele>222.8</ele>
        <time>2024-07-30T07:20:44Z</time>
      </trkpt>
      <trkpt lat="43.42929" lon="1.2187">
        <ele>222.8</ele>
        <time>2024-07-30T07:20:45Z</time>
      </trkpt>
      <trkpt lat="43.42926" lon="1.21862">
        <ele>222.8</ele>
        <time>2024-07-30T07:20:46Z</time>
      </trkpt>
      <trkpt lat="43.42921" lon="1.21853">
        <ele>222.8</ele>
        <time>2024-07-30T07:20:47Z</time>
      </trkpt>
      <trkpt lat="43.42918" lon="1.21846">
        <ele>222.8</ele>
        <time>2024-07-30T07:20:48Z</time>
      </trkpt>
      <trkpt lat="43.42915" lon="1.21838">
        <ele>222.8</ele>
        <time>2024-07-30T07:20:49Z</time>
      </trkpt>
      <trkpt lat="43.42912" lon="1.21832">
        <ele>222.8</ele>
        <time>2024-07-30T07:20:50Z</time>
      </trkpt>
      <trkpt lat="43.42908" lon="1.21823">
        <ele>222.8</ele>
        <time>2024-07-30T07:20:51Z</time>
      </trkpt>
      <trkpt lat="43.42905" lon="1.21817">
        <ele>222.8</ele>
        <time>2024-07-30T07:20:52Z</time>
      </trkpt>
      <trkpt lat="43.42902" lon="1.2181">
        <ele>222.8</ele>
        <time>2024-07-30T07:20:53Z</time>
      </trkpt>
      <trkpt lat="43.42898" lon="1.21803">
        <ele>222.8</ele>
        <time>2024-07-30T07:20:54Z</time>
      </trkpt>
      <trkpt lat="43.42895" lon="1.21798">
        <ele>222.8</ele>
        <time>2024-07-30T07:20:55Z</time>
      </trkpt>
      <trkpt lat="43.42891" lon="1.21793">
        <ele>223</ele>
        <time>2024-07-30T07:20:56Z</time>
      </trkpt>
      <trkpt lat="43.42887" lon="1.21788">
        <ele>223</ele>
        <time>2024-07-30T07:20:57Z</time>
      </trkpt>
      <trkpt lat="43.42882" lon="1.21782">
        <ele>223</ele>
        <time>2024-07-30T07:20:58Z</time>
      </trkpt>
      <trkpt lat="43.42877" lon="1.21777">
        <ele>223</ele>
        <time>2024-07-30T07:20:59Z</time>
      </trkpt>
      <trkpt lat="43.42873" lon="1.21773">
        <ele>223</ele>
        <time>2024-07-30T07:21:00Z</time>
      </trkpt>
      <trkpt lat="43.42868" lon="1.21769">
        <ele>223.2</ele>
        <time>2024-07-30T07:21:01Z</time>
      </trkpt>
      <trkpt lat="43.42863" lon="1.21764">
        <ele>223.2</ele>
        <time>2024-07-30T07:21:02Z</time>
      </trkpt>
      <trkpt lat="43.42858" lon="1.21759">
        <ele>223.2</ele>
        <time>2024-07-30T07:21:03Z</time>
      </trkpt>
      <trkpt lat="43.42852" lon="1.21754">
        <ele>223.2</ele>
        <time>2024-07-30T07:21:04Z</time>
      </trkpt>
      <trkpt lat="43.42846" lon="1.21749">
        <ele>223.4</ele>
        <time>2024-07-30T07:21:05Z</time>
      </trkpt>
      <trkpt lat="43.42842" lon="1.21745">
        <ele>223.4</ele>
        <time>2024-07-30T07:21:06Z</time>
      </trkpt>
      <trkpt lat="43.42836" lon="1.2174">
        <ele>223.4</ele>
        <time>2024-07-30T07:21:07Z</time>
      </trkpt>
      <trkpt lat="43.42829" lon="1.21734">
        <ele>223.4</ele>
        <time>2024-07-30T07:21:08Z</time>
      </trkpt>
      <trkpt lat="43.42825" lon="1.2173">
        <ele>223.4</ele>
        <time>2024-07-30T07:21:09Z</time>
      </trkpt>
      <trkpt lat="43.42818" lon="1.21725">
        <ele>223.4</ele>
        <time>2024-07-30T07:21:10Z</time>
      </trkpt>
      <trkpt lat="43.42814" lon="1.21721">
        <ele>223.4</ele>
        <time>2024-07-30T07:21:11Z</time>
      </trkpt>
      <trkpt lat="43.42814" lon="1.21721">
        <ele>223.6</ele>
        <time>2024-07-30T07:21:12Z</time>
      </trkpt>
      <trkpt lat="43.42803" lon="1.21711">
        <ele>223.6</ele>
        <time>2024-07-30T07:21:13Z</time>
      </trkpt>
      <trkpt lat="43.42796" lon="1.21705">
        <ele>223.6</ele>
        <time>2024-07-30T07:21:14Z</time>
      </trkpt>
      <trkpt lat="43.42792" lon="1.21701">
        <ele>223.6</ele>
        <time>2024-07-30T07:21:15Z</time>
      </trkpt>
      <trkpt lat="43.42787" lon="1.21696">
        <ele>223.6</ele>
        <time>2024-07-30T07:21:16Z</time>
      </trkpt>
      <trkpt lat="43.4278" lon="1.2169">
        <ele>223.6</ele>
        <time>2024-07-30T07:21:17Z</time>
      </trkpt>
      <trkpt lat="43.42776" lon="1.21686">
        <ele>223.6</ele>
        <time>2024-07-30T07:21:18Z</time>
      </trkpt>
      <trkpt lat="43.42769" lon="1.2168">
        <ele>223.4</ele>
        <time>2024-07-30T07:21:19Z</time>
      </trkpt>
      <trkpt lat="43.42764" lon="1.21676">
        <ele>223.4</ele>
        <time>2024-07-30T07:21:20Z</time>
      </trkpt>
      <trkpt lat="43.42759" lon="1.21671">
        <ele>223.4</ele>
        <time>2024-07-30T07:21:21Z</time>
      </trkpt>
      <trkpt lat="43.42753" lon="1.21666">
        <ele>223.4</ele>
        <time>2024-07-30T07:21:22Z</time>
      </trkpt>
      <trkpt lat="43.42747" lon="1.21661">
        <ele>223.4</ele>
        <time>2024-07-30T07:21:23Z</time>
      </trkpt>
      <trkpt lat="43.42742" lon="1.21656">
        <ele>223.4</ele>
        <time>2024-07-30T07:21:24Z</time>
      </trkpt>
      <trkpt lat="43.42736" lon="1.21651">
        <ele>223.2</ele>
        <time>2024-07-30T07:21:25Z</time>
      </trkpt>
      <trkpt lat="43.42731" lon="1.21646">
        <ele>223.2</ele>
        <time>2024-07-30T07:21:26Z</time>
      </trkpt>
      <trkpt lat="43.42725" lon="1.21641">
        <ele>223.2</ele>
        <time>2024-07-30T07:21:27Z</time>
      </trkpt>
      <trkpt lat="43.4272" lon="1.21636">
        <ele>223</ele>
        <time>2024-07-30T07:21:28Z</time>
      </trkpt>
      <trkpt lat="43.42713" lon="1.2163">
        <ele>223</ele>
        <time>2024-07-30T07:21:29Z</time>
      </trkpt>
      <trkpt lat="43.42708" lon="1.21626">
        <ele>223</ele>
        <time>2024-07-30T07:21:30Z</time>
      </trkpt>
      <trkpt lat="43.42703" lon="1.2162">
        <ele>223</ele>
        <time>2024-07-30T07:21:31Z</time>
      </trkpt>
      <trkpt lat="43.42696" lon="1.21614">
        <ele>223</ele>
        <time>2024-07-30T07:21:32Z</time>
      </trkpt>
      <trkpt lat="43.4269" lon="1.21609">
        <ele>223</ele>
        <time>2024-07-30T07:21:33Z</time>
      </trkpt>
      <trkpt lat="43.42685" lon="1.21605">
        <ele>223</ele>
        <time>2024-07-30T07:21:34Z</time>
      </trkpt>
      <trkpt lat="43.42679" lon="1.216">
        <ele>223</ele>
        <time>2024-07-30T07:21:35Z</time>
      </trkpt>
      <trkpt lat="43.42672" lon="1.21594">
        <ele>223</ele>
        <time>2024-07-30T07:21:36Z</time>
      </trkpt>
      <trkpt lat="43.42666" lon="1.21588">
        <ele>223</ele>
        <time>2024-07-30T07:21:37Z</time>
      </trkpt>
      <trkpt lat="43.42662" lon="1.21584">
        <ele>222.8</ele>
        <time>2024-07-30T07:21:38Z</time>
      </trkpt>
      <trkpt lat="43.42656" lon="1.21578">
        <ele>222.8</ele>
        <time>2024-07-30T07:21:39Z</time>
      </trkpt>
      <trkpt lat="43.4265" lon="1.21573">
        <ele>222.8</ele>
        <time>2024-07-30T07:21:40Z</time>
      </trkpt>
      <trkpt lat="43.42644" lon="1.21567">
        <ele>222.8</ele>
        <time>2024-07-30T07:21:41Z</time>
      </trkpt>
      <trkpt lat="43.42639" lon="1.21561">
        <ele>222.8</ele>
        <time>2024-07-30T07:21:42Z</time>
      </trkpt>
      <trkpt lat="43.42631" lon="1.21556">
        <ele>222.6</ele>
        <time>2024-07-30T07:21:43Z</time>
      </trkpt>
      <trkpt lat="43.42626" lon="1.21552">
        <ele>222.4</ele>
        <time>2024-07-30T07:21:44Z</time>
      </trkpt>
      <trkpt lat="43.42621" lon="1.21548">
        <ele>222.4</ele>
        <time>2024-07-30T07:21:45Z</time>
      </trkpt>
      <trkpt lat="43.42615" lon="1.21542">
        <ele>222.4</ele>
        <time>2024-07-30T07:21:46Z</time>
      </trkpt>
      <trkpt lat="43.42608" lon="1.21536">
        <ele>222.4</ele>
        <time>2024-07-30T07:21:47Z</time>
      </trkpt>
      <trkpt lat="43.42604" lon="1.21532">
        <ele>222.4</ele>
        <time>2024-07-30T07:21:48Z</time>
      </trkpt>
      <trkpt lat="43.42598" lon="1.21527">
        <ele>222.4</ele>
        <time>2024-07-30T07:21:49Z</time>
      </trkpt>
      <trkpt lat="43.42592" lon="1.2152">
        <ele>222.4</ele>
        <time>2024-07-30T07:21:50Z</time>
      </trkpt>
      <trkpt lat="43.42586" lon="1.21515">
        <ele>222.4</ele>
        <time>2024-07-30T07:21:51Z</time>
      </trkpt>
      <trkpt lat="43.42582" lon="1.21511">
        <ele>222.4</ele>
        <time>2024-07-30T07:21:52Z</time>
      </trkpt>
      <trkpt lat="43.42577" lon="1.21506">
        <ele>222.4</ele>
        <time>2024-07-30T07:21:53Z</time>
      </trkpt>
      <trkpt lat="43.42573" lon="1.21501">
        <ele>222.4</ele>
        <time>2024-07-30T07:21:54Z</time>
      </trkpt>
      <trkpt lat="43.42566" lon="1.21495">
        <ele>222.6</ele>
        <time>2024-07-30T07:21:55Z</time>
      </trkpt>
      <trkpt lat="43.42561" lon="1.2149">
        <ele>222.8</ele>
        <time>2024-07-30T07:21:56Z</time>
      </trkpt>
      <trkpt lat="43.42558" lon="1.21486">
        <ele>222.8</ele>
        <time>2024-07-30T07:21:57Z</time>
      </trkpt>
      <trkpt lat="43.42552" lon="1.21481">
        <ele>223</ele>
        <time>2024-07-30T07:21:58Z</time>
      </trkpt>
      <trkpt lat="43.42546" lon="1.21475">
        <ele>223</ele>
        <time>2024-07-30T07:21:59Z</time>
      </trkpt>
      <trkpt lat="43.42541" lon="1.21469">
        <ele>223</ele>
        <time>2024-07-30T07:22:00Z</time>
      </trkpt>
      <trkpt lat="43.42536" lon="1.21465">
        <ele>223</ele>
        <time>2024-07-30T07:22:01Z</time>
      </trkpt>
      <trkpt lat="43.4253" lon="1.2146">
        <ele>223.2</ele>
        <time>2024-07-30T07:22:02Z</time>
      </trkpt>
      <trkpt lat="43.42524" lon="1.21455">
        <ele>223.2</ele>
        <time>2024-07-30T07:22:03Z</time>
      </trkpt>
      <trkpt lat="43.42519" lon="1.21449">
        <ele>223.2</ele>
        <time>2024-07-30T07:22:04Z</time>
      </trkpt>
      <trkpt lat="43.42514" lon="1.21444">
        <ele>223.2</ele>
        <time>2024-07-30T07:22:05Z</time>
      </trkpt>
      <trkpt lat="43.42508" lon="1.21439">
        <ele>223.2</ele>
        <time>2024-07-30T07:22:06Z</time>
      </trkpt>
      <trkpt lat="43.42503" lon="1.21434">
        <ele>223.4</ele>
        <time>2024-07-30T07:22:07Z</time>
      </trkpt>
      <trkpt lat="43.42498" lon="1.21429">
        <ele>223.4</ele>
        <time>2024-07-30T07:22:08Z</time>
      </trkpt>
      <trkpt lat="43.42493" lon="1.21425">
        <ele>223.8</ele>
        <time>2024-07-30T07:22:09Z</time>
      </trkpt>
      <trkpt lat="43.42488" lon="1.2142">
        <ele>224</ele>
        <time>2024-07-30T07:22:10Z</time>
      </trkpt>
      <trkpt lat="43.42482" lon="1.21414">
        <ele>224</ele>
        <time>2024-07-30T07:22:11Z</time>
      </trkpt>
      <trkpt lat="43.42478" lon="1.2141">
        <ele>224.2</ele>
        <time>2024-07-30T07:22:12Z</time>
      </trkpt>
      <trkpt lat="43.42472" lon="1.21404">
        <ele>224.4</ele>
        <time>2024-07-30T07:22:13Z</time>
      </trkpt>
      <trkpt lat="43.42466" lon="1.214">
        <ele>224.4</ele>
        <time>2024-07-30T07:22:14Z</time>
      </trkpt>
      <trkpt lat="43.4246" lon="1.21393">
        <ele>224.6</ele>
        <time>2024-07-30T07:22:15Z</time>
      </trkpt>
      <trkpt lat="43.42454" lon="1.21388">
        <ele>224.6</ele>
        <time>2024-07-30T07:22:16Z</time>
      </trkpt>
      <trkpt lat="43.4245" lon="1.21384">
        <ele>224.8</ele>
        <time>2024-07-30T07:22:17Z</time>
      </trkpt>
      <trkpt lat="43.42445" lon="1.21378">
        <ele>224.8</ele>
        <time>2024-07-30T07:22:18Z</time>
      </trkpt>
      <trkpt lat="43.42439" lon="1.21373">
        <ele>224.8</ele>
        <time>2024-07-30T07:22:19Z</time>
      </trkpt>
      <trkpt lat="43.42432" lon="1.21368">
        <ele>224.8</ele>
        <time>2024-07-30T07:22:20Z</time>
      </trkpt>
      <trkpt lat="43.42428" lon="1.21363">
        <ele>225</ele>
        <time>2024-07-30T07:22:21Z</time>
      </trkpt>
      <trkpt lat="43.42423" lon="1.21358">
        <ele>225</ele>
        <time>2024-07-30T07:22:22Z</time>
      </trkpt>
      <trkpt lat="43.42416" lon="1.21352">
        <ele>225.2</ele>
        <time>2024-07-30T07:22:23Z</time>
      </trkpt>
      <trkpt lat="43.42412" lon="1.21348">
        <ele>225.2</ele>
        <time>2024-07-30T07:22:24Z</time>
      </trkpt>
      <trkpt lat="43.42407" lon="1.21343">
        <ele>225.2</ele>
        <time>2024-07-30T07:22:25Z</time>
      </trkpt>
      <trkpt lat="43.42402" lon="1.21338">
        <ele>225.4</ele>
        <time>2024-07-30T07:22:26Z</time>
      </trkpt>
      <trkpt lat="43.42397" lon="1.21333">
        <ele>225.4</ele>
        <time>2024-07-30T07:22:27Z</time>
      </trkpt>
      <trkpt lat="43.42392" lon="1.21328">
        <ele>225.4</ele>
        <time>2024-07-30T07:22:28Z</time>
      </trkpt>
      <trkpt lat="43.42386" lon="1.21322">
        <ele>225.6</ele>
        <time>2024-07-30T07:22:29Z</time>
      </trkpt>
      <trkpt lat="43.42381" lon="1.21318">
        <ele>225.6</ele>
        <time>2024-07-30T07:22:30Z</time>
      </trkpt>
      <trkpt lat="43.42376" lon="1.21313">
        <ele>225.8</ele>
        <time>2024-07-30T07:22:31Z</time>
      </trkpt>
      <trkpt lat="43.42371" lon="1.21309">
        <ele>225.8</ele>
        <time>2024-07-30T07:22:32Z</time>
      </trkpt>
      <trkpt lat="43.42366" lon="1.21304">
        <ele>226</ele>
        <time>2024-07-30T07:22:33Z</time>
      </trkpt>
      <trkpt lat="43.4236" lon="1.21298">
        <ele>226</ele>
        <time>2024-07-30T07:22:34Z</time>
      </trkpt>
      <trkpt lat="43.42356" lon="1.21295">
        <ele>226</ele>
        <time>2024-07-30T07:22:35Z</time>
      </trkpt>
      <trkpt lat="43.4235" lon="1.2129">
        <ele>226.2</ele>
        <time>2024-07-30T07:22:36Z</time>
      </trkpt>
      <trkpt lat="43.42344" lon="1.21285">
        <ele>226.2</ele>
        <time>2024-07-30T07:22:37Z</time>
      </trkpt>
      <trkpt lat="43.42338" lon="1.2128">
        <ele>226.2</ele>
        <time>2024-07-30T07:22:38Z</time>
      </trkpt>
      <trkpt lat="43.42333" lon="1.21277">
        <ele>226.2</ele>
        <time>2024-07-30T07:22:39Z</time>
      </trkpt>
      <trkpt lat="43.42328" lon="1.21272">
        <ele>226.4</ele>
        <time>2024-07-30T07:22:40Z</time>
      </trkpt>
      <trkpt lat="43.42322" lon="1.21268">
        <ele>226.4</ele>
        <time>2024-07-30T07:22:41Z</time>
      </trkpt>
      <trkpt lat="43.42316" lon="1.21263">
        <ele>226.4</ele>
        <time>2024-07-30T07:22:42Z</time>
      </trkpt>
      <trkpt lat="43.42309" lon="1.21258">
        <ele>226.4</ele>
        <time>2024-07-30T07:22:43Z</time>
      </trkpt>
      <trkpt lat="43.42305" lon="1.21254">
        <ele>226.4</ele>
        <time>2024-07-30T07:22:44Z</time>
      </trkpt>
      <trkpt lat="43.42299" lon="1.2125">
        <ele>226.4</ele>
        <time>2024-07-30T07:22:45Z</time>
      </trkpt>
      <trkpt lat="43.42293" lon="1.21246">
        <ele>226.4</ele>
        <time>2024-07-30T07:22:46Z</time>
      </trkpt>
      <trkpt lat="43.42287" lon="1.21242">
        <ele>226.4</ele>
        <time>2024-07-30T07:22:47Z</time>
      </trkpt>
      <trkpt lat="43.42281" lon="1.21237">
        <ele>226.4</ele>
        <time>2024-07-30T07:22:48Z</time>
      </trkpt>
      <trkpt lat="43.42276" lon="1.21233">
        <ele>226.4</ele>
        <time>2024-07-30T07:22:49Z</time>
      </trkpt>
      <trkpt lat="43.4227" lon="1.21229">
        <ele>226.4</ele>
        <time>2024-07-30T07:22:50Z</time>
      </trkpt>
      <trkpt lat="43.42264" lon="1.21225">
        <ele>226.4</ele>
        <time>2024-07-30T07:22:51Z</time>
      </trkpt>
      <trkpt lat="43.42259" lon="1.2122">
        <ele>226.6</ele>
        <time>2024-07-30T07:22:52Z</time>
      </trkpt>
      <trkpt lat="43.42253" lon="1.21216">
        <ele>226.6</ele>
        <time>2024-07-30T07:22:53Z</time>
      </trkpt>
      <trkpt lat="43.42248" lon="1.21212">
        <ele>226.8</ele>
        <time>2024-07-30T07:22:54Z</time>
      </trkpt>
      <trkpt lat="43.42242" lon="1.21208">
        <ele>226.8</ele>
        <time>2024-07-30T07:22:55Z</time>
      </trkpt>
      <trkpt lat="43.42236" lon="1.21203">
        <ele>226.8</ele>
        <time>2024-07-30T07:22:56Z</time>
      </trkpt>
      <trkpt lat="43.42231" lon="1.21199">
        <ele>226.8</ele>
        <time>2024-07-30T07:22:57Z</time>
      </trkpt>
      <trkpt lat="43.42224" lon="1.21194">
        <ele>226.8</ele>
        <time>2024-07-30T07:22:58Z</time>
      </trkpt>
      <trkpt lat="43.4222" lon="1.21191">
        <ele>226.8</ele>
        <time>2024-07-30T07:22:59Z</time>
      </trkpt>
      <trkpt lat="43.42214" lon="1.21187">
        <ele>227</ele>
        <time>2024-07-30T07:23:00Z</time>
      </trkpt>
      <trkpt lat="43.42209" lon="1.21183">
        <ele>227</ele>
        <time>2024-07-30T07:23:01Z</time>
      </trkpt>
      <trkpt lat="43.42202" lon="1.21178">
        <ele>227</ele>
        <time>2024-07-30T07:23:02Z</time>
      </trkpt>
      <trkpt lat="43.42196" lon="1.21173">
        <ele>227</ele>
        <time>2024-07-30T07:23:03Z</time>
      </trkpt>
      <trkpt lat="43.42192" lon="1.2117">
        <ele>227.2</ele>
        <time>2024-07-30T07:23:04Z</time>
      </trkpt>
      <trkpt lat="43.42186" lon="1.21166">
        <ele>227.2</ele>
        <time>2024-07-30T07:23:05Z</time>
      </trkpt>
      <trkpt lat="43.4218" lon="1.21162">
        <ele>227.2</ele>
        <time>2024-07-30T07:23:06Z</time>
      </trkpt>
      <trkpt lat="43.42173" lon="1.21156">
        <ele>227.2</ele>
        <time>2024-07-30T07:23:07Z</time>
      </trkpt>
      <trkpt lat="43.42169" lon="1.21153">
        <ele>227.2</ele>
        <time>2024-07-30T07:23:08Z</time>
      </trkpt>
      <trkpt lat="43.42163" lon="1.21148">
        <ele>227.4</ele>
        <time>2024-07-30T07:23:09Z</time>
      </trkpt>
      <trkpt lat="43.42156" lon="1.21143">
        <ele>227.4</ele>
        <time>2024-07-30T07:23:10Z</time>
      </trkpt>
      <trkpt lat="43.42151" lon="1.21139">
        <ele>227.4</ele>
        <time>2024-07-30T07:23:11Z</time>
      </trkpt>
      <trkpt lat="43.42144" lon="1.21134">
        <ele>227.6</ele>
        <time>2024-07-30T07:23:12Z</time>
      </trkpt>
      <trkpt lat="43.4214" lon="1.2113">
        <ele>227.6</ele>
        <time>2024-07-30T07:23:13Z</time>
      </trkpt>
      <trkpt lat="43.42134" lon="1.21125">
        <ele>227.6</ele>
        <time>2024-07-30T07:23:14Z</time>
      </trkpt>
      <trkpt lat="43.42128" lon="1.21118">
        <ele>227.6</ele>
        <time>2024-07-30T07:23:15Z</time>
      </trkpt>
      <trkpt lat="43.42122" lon="1.21113">
        <ele>227.6</ele>
        <time>2024-07-30T07:23:16Z</time>
      </trkpt>
      <trkpt lat="43.42118" lon="1.21108">
        <ele>227.6</ele>
        <time>2024-07-30T07:23:17Z</time>
      </trkpt>
      <trkpt lat="43.42113" lon="1.21102">
        <ele>227.6</ele>
        <time>2024-07-30T07:23:18Z</time>
      </trkpt>
      <trkpt lat="43.42108" lon="1.21096">
        <ele>227.6</ele>
        <time>2024-07-30T07:23:19Z</time>
      </trkpt>
      <trkpt lat="43.42102" lon="1.2109">
        <ele>227.6</ele>
        <time>2024-07-30T07:23:20Z</time>
      </trkpt>
      <trkpt lat="43.42096" lon="1.21083">
        <ele>227.8</ele>
        <time>2024-07-30T07:23:21Z</time>
      </trkpt>
      <trkpt lat="43.42092" lon="1.21078">
        <ele>227.8</ele>
        <time>2024-07-30T07:23:22Z</time>
      </trkpt>
      <trkpt lat="43.42087" lon="1.21072">
        <ele>227.8</ele>
        <time>2024-07-30T07:23:23Z</time>
      </trkpt>
      <trkpt lat="43.42082" lon="1.21065">
        <ele>227.8</ele>
        <time>2024-07-30T07:23:24Z</time>
      </trkpt>
      <trkpt lat="43.42077" lon="1.21059">
        <ele>227.8</ele>
        <time>2024-07-30T07:23:25Z</time>
      </trkpt>
      <trkpt lat="43.42072" lon="1.21052">
        <ele>227.8</ele>
        <time>2024-07-30T07:23:26Z</time>
      </trkpt>
      <trkpt lat="43.42067" lon="1.21045">
        <ele>227.8</ele>
        <time>2024-07-30T07:23:27Z</time>
      </trkpt>
      <trkpt lat="43.42062" lon="1.21038">
        <ele>228</ele>
        <time>2024-07-30T07:23:28Z</time>
      </trkpt>
      <trkpt lat="43.42057" lon="1.21032">
        <ele>228</ele>
        <time>2024-07-30T07:23:29Z</time>
      </trkpt>
      <trkpt lat="43.42052" lon="1.21025">
        <ele>228</ele>
        <time>2024-07-30T07:23:30Z</time>
      </trkpt>
      <trkpt lat="43.42047" lon="1.21018">
        <ele>228</ele>
        <time>2024-07-30T07:23:31Z</time>
      </trkpt>
      <trkpt lat="43.42042" lon="1.21011">
        <ele>228</ele>
        <time>2024-07-30T07:23:32Z</time>
      </trkpt>
      <trkpt lat="43.42037" lon="1.21004">
        <ele>228.2</ele>
        <time>2024-07-30T07:23:33Z</time>
      </trkpt>
      <trkpt lat="43.42031" lon="1.20997">
        <ele>228.2</ele>
        <time>2024-07-30T07:23:34Z</time>
      </trkpt>
      <trkpt lat="43.42026" lon="1.20991">
        <ele>228.2</ele>
        <time>2024-07-30T07:23:35Z</time>
      </trkpt>
      <trkpt lat="43.42021" lon="1.20984">
        <ele>228.2</ele>
        <time>2024-07-30T07:23:36Z</time>
      </trkpt>
      <trkpt lat="43.42016" lon="1.20977">
        <ele>228.2</ele>
        <time>2024-07-30T07:23:37Z</time>
      </trkpt>
      <trkpt lat="43.42011" lon="1.2097">
        <ele>228.4</ele>
        <time>2024-07-30T07:23:38Z</time>
      </trkpt>
      <trkpt lat="43.42005" lon="1.20963">
        <ele>228.2</ele>
        <time>2024-07-30T07:23:39Z</time>
      </trkpt>
      <trkpt lat="43.42" lon="1.20956">
        <ele>228.2</ele>
        <time>2024-07-30T07:23:40Z</time>
      </trkpt>
      <trkpt lat="43.41995" lon="1.20949">
        <ele>228.2</ele>
        <time>2024-07-30T07:23:41Z</time>
      </trkpt>
      <trkpt lat="43.41989" lon="1.20942">
        <ele>228.2</ele>
        <time>2024-07-30T07:23:42Z</time>
      </trkpt>
      <trkpt lat="43.41984" lon="1.20935">
        <ele>228.2</ele>
        <time>2024-07-30T07:23:43Z</time>
      </trkpt>
      <trkpt lat="43.41977" lon="1.20926">
        <ele>228.2</ele>
        <time>2024-07-30T07:23:44Z</time>
      </trkpt>
      <trkpt lat="43.41973" lon="1.2092">
        <ele>228.2</ele>
        <time>2024-07-30T07:23:45Z</time>
      </trkpt>
      <trkpt lat="43.41968" lon="1.20913">
        <ele>228.4</ele>
        <time>2024-07-30T07:23:46Z</time>
      </trkpt>
      <trkpt lat="43.41962" lon="1.20907">
        <ele>228.2</ele>
        <time>2024-07-30T07:23:47Z</time>
      </trkpt>
      <trkpt lat="43.41957" lon="1.209">
        <ele>228.2</ele>
        <time>2024-07-30T07:23:48Z</time>
      </trkpt>
      <trkpt lat="43.41952" lon="1.20893">
        <ele>228.2</ele>
        <time>2024-07-30T07:23:49Z</time>
      </trkpt>
      <trkpt lat="43.41947" lon="1.20886">
        <ele>228.2</ele>
        <time>2024-07-30T07:23:50Z</time>
      </trkpt>
      <trkpt lat="43.41941" lon="1.2088">
        <ele>228.2</ele>
        <time>2024-07-30T07:23:51Z</time>
      </trkpt>
      <trkpt lat="43.41936" lon="1.20873">
        <ele>228.2</ele>
        <time>2024-07-30T07:23:52Z</time>
      </trkpt>
      <trkpt lat="43.4193" lon="1.20866">
        <ele>228.2</ele>
        <time>2024-07-30T07:23:53Z</time>
      </trkpt>
      <trkpt lat="43.41925" lon="1.20859">
        <ele>228.2</ele>
        <time>2024-07-30T07:23:54Z</time>
      </trkpt>
      <trkpt lat="43.41919" lon="1.20852">
        <ele>228.2</ele>
        <time>2024-07-30T07:23:55Z</time>
      </trkpt>
      <trkpt lat="43.41914" lon="1.20845">
        <ele>228.2</ele>
        <time>2024-07-30T07:23:56Z</time>
      </trkpt>
      <trkpt lat="43.41909" lon="1.20838">
        <ele>228.2</ele>
        <time>2024-07-30T07:23:57Z</time>
      </trkpt>
      <trkpt lat="43.41903" lon="1.20832">
        <ele>228.4</ele>
        <time>2024-07-30T07:23:58Z</time>
      </trkpt>
      <trkpt lat="43.41897" lon="1.20825">
        <ele>228.4</ele>
        <time>2024-07-30T07:23:59Z</time>
      </trkpt>
      <trkpt lat="43.41892" lon="1.20818">
        <ele>228.4</ele>
        <time>2024-07-30T07:24:00Z</time>
      </trkpt>
      <trkpt lat="43.41886" lon="1.20812">
        <ele>228.4</ele>
        <time>2024-07-30T07:24:01Z</time>
      </trkpt>
      <trkpt lat="43.4188" lon="1.20805">
        <ele>228.4</ele>
        <time>2024-07-30T07:24:02Z</time>
      </trkpt>
      <trkpt lat="43.41874" lon="1.208">
        <ele>228.4</ele>
        <time>2024-07-30T07:24:03Z</time>
      </trkpt>
      <trkpt lat="43.41868" lon="1.20794">
        <ele>228.2</ele>
        <time>2024-07-30T07:24:04Z</time>
      </trkpt>
      <trkpt lat="43.41862" lon="1.20788">
        <ele>228.2</ele>
        <time>2024-07-30T07:24:05Z</time>
      </trkpt>
      <trkpt lat="43.41855" lon="1.20782">
        <ele>228.2</ele>
        <time>2024-07-30T07:24:06Z</time>
      </trkpt>
      <trkpt lat="43.41849" lon="1.20777">
        <ele>228.2</ele>
        <time>2024-07-30T07:24:07Z</time>
      </trkpt>
      <trkpt lat="43.41843" lon="1.20772">
        <ele>228.2</ele>
        <time>2024-07-30T07:24:08Z</time>
      </trkpt>
      <trkpt lat="43.41837" lon="1.20767">
        <ele>228.2</ele>
        <time>2024-07-30T07:24:09Z</time>
      </trkpt>
      <trkpt lat="43.4183" lon="1.20762">
        <ele>228.2</ele>
        <time>2024-07-30T07:24:10Z</time>
      </trkpt>
      <trkpt lat="43.41823" lon="1.20757">
        <ele>228.2</ele>
        <time>2024-07-30T07:24:11Z</time>
      </trkpt>
      <trkpt lat="43.41817" lon="1.20753">
        <ele>228</ele>
        <time>2024-07-30T07:24:12Z</time>
      </trkpt>
      <trkpt lat="43.4181" lon="1.20749">
        <ele>228</ele>
        <time>2024-07-30T07:24:13Z</time>
      </trkpt>
      <trkpt lat="43.41804" lon="1.20745">
        <ele>228</ele>
        <time>2024-07-30T07:24:14Z</time>
      </trkpt>
      <trkpt lat="43.41797" lon="1.20741">
        <ele>228</ele>
        <time>2024-07-30T07:24:15Z</time>
      </trkpt>
      <trkpt lat="43.4179" lon="1.20738">
        <ele>228</ele>
        <time>2024-07-30T07:24:16Z</time>
      </trkpt>
      <trkpt lat="43.41783" lon="1.20733">
        <ele>228.2</ele>
        <time>2024-07-30T07:24:17Z</time>
      </trkpt>
      <trkpt lat="43.41777" lon="1.2073">
        <ele>228.2</ele>
        <time>2024-07-30T07:24:18Z</time>
      </trkpt>
      <trkpt lat="43.41771" lon="1.20726">
        <ele>228.4</ele>
        <time>2024-07-30T07:24:19Z</time>
      </trkpt>
      <trkpt lat="43.41764" lon="1.20723">
        <ele>228.4</ele>
        <time>2024-07-30T07:24:20Z</time>
      </trkpt>
      <trkpt lat="43.41758" lon="1.20719">
        <ele>228.4</ele>
        <time>2024-07-30T07:24:21Z</time>
      </trkpt>
      <trkpt lat="43.41751" lon="1.20716">
        <ele>228.4</ele>
        <time>2024-07-30T07:24:22Z</time>
      </trkpt>
      <trkpt lat="43.41745" lon="1.20712">
        <ele>228.4</ele>
        <time>2024-07-30T07:24:23Z</time>
      </trkpt>
      <trkpt lat="43.41738" lon="1.20709">
        <ele>228.6</ele>
        <time>2024-07-30T07:24:24Z</time>
      </trkpt>
      <trkpt lat="43.41731" lon="1.20705">
        <ele>228.6</ele>
        <time>2024-07-30T07:24:25Z</time>
      </trkpt>
      <trkpt lat="43.41725" lon="1.20701">
        <ele>228.8</ele>
        <time>2024-07-30T07:24:26Z</time>
      </trkpt>
      <trkpt lat="43.41718" lon="1.20698">
        <ele>228.8</ele>
        <time>2024-07-30T07:24:27Z</time>
      </trkpt>
      <trkpt lat="43.41712" lon="1.20695">
        <ele>228.8</ele>
        <time>2024-07-30T07:24:28Z</time>
      </trkpt>
      <trkpt lat="43.41705" lon="1.20691">
        <ele>228.8</ele>
        <time>2024-07-30T07:24:29Z</time>
      </trkpt>
      <trkpt lat="43.41699" lon="1.20687">
        <ele>229</ele>
        <time>2024-07-30T07:24:30Z</time>
      </trkpt>
      <trkpt lat="43.41691" lon="1.20683">
        <ele>229</ele>
        <time>2024-07-30T07:24:31Z</time>
      </trkpt>
      <trkpt lat="43.41686" lon="1.2068">
        <ele>229.2</ele>
        <time>2024-07-30T07:24:32Z</time>
      </trkpt>
      <trkpt lat="43.41679" lon="1.20677">
        <ele>229.2</ele>
        <time>2024-07-30T07:24:33Z</time>
      </trkpt>
      <trkpt lat="43.41673" lon="1.20673">
        <ele>229.2</ele>
        <time>2024-07-30T07:24:34Z</time>
      </trkpt>
      <trkpt lat="43.41666" lon="1.20669">
        <ele>229.4</ele>
        <time>2024-07-30T07:24:35Z</time>
      </trkpt>
      <trkpt lat="43.41659" lon="1.20666">
        <ele>229.4</ele>
        <time>2024-07-30T07:24:36Z</time>
      </trkpt>
      <trkpt lat="43.41653" lon="1.20662">
        <ele>229.4</ele>
        <time>2024-07-30T07:24:37Z</time>
      </trkpt>
      <trkpt lat="43.41646" lon="1.20659">
        <ele>229.4</ele>
        <time>2024-07-30T07:24:38Z</time>
      </trkpt>
      <trkpt lat="43.4164" lon="1.20655">
        <ele>229.4</ele>
        <time>2024-07-30T07:24:39Z</time>
      </trkpt>
      <trkpt lat="43.41633" lon="1.20652">
        <ele>229.4</ele>
        <time>2024-07-30T07:24:40Z</time>
      </trkpt>
      <trkpt lat="43.41627" lon="1.20648">
        <ele>229.4</ele>
        <time>2024-07-30T07:24:41Z</time>
      </trkpt>
      <trkpt lat="43.4162" lon="1.20645">
        <ele>229.4</ele>
        <time>2024-07-30T07:24:42Z</time>
      </trkpt>
      <trkpt lat="43.41614" lon="1.20641">
        <ele>229.6</ele>
        <time>2024-07-30T07:24:43Z</time>
      </trkpt>
      <trkpt lat="43.41607" lon="1.20638">
        <ele>229.6</ele>
        <time>2024-07-30T07:24:44Z</time>
      </trkpt>
      <trkpt lat="43.41601" lon="1.20634">
        <ele>229.6</ele>
        <time>2024-07-30T07:24:45Z</time>
      </trkpt>
      <trkpt lat="43.41595" lon="1.20631">
        <ele>229.6</ele>
        <time>2024-07-30T07:24:46Z</time>
      </trkpt>
      <trkpt lat="43.41588" lon="1.20627">
        <ele>229.6</ele>
        <time>2024-07-30T07:24:47Z</time>
      </trkpt>
      <trkpt lat="43.41582" lon="1.20624">
        <ele>229.6</ele>
        <time>2024-07-30T07:24:48Z</time>
      </trkpt>
      <trkpt lat="43.41576" lon="1.2062">
        <ele>229.6</ele>
        <time>2024-07-30T07:24:49Z</time>
      </trkpt>
      <trkpt lat="43.41569" lon="1.20617">
        <ele>229.6</ele>
        <time>2024-07-30T07:24:50Z</time>
      </trkpt>
      <trkpt lat="43.41563" lon="1.20613">
        <ele>229.6</ele>
        <time>2024-07-30T07:24:51Z</time>
      </trkpt>
      <trkpt lat="43.41556" lon="1.20609">
        <ele>229.6</ele>
        <time>2024-07-30T07:24:52Z</time>
      </trkpt>
      <trkpt lat="43.4155" lon="1.20606">
        <ele>229.6</ele>
        <time>2024-07-30T07:24:53Z</time>
      </trkpt>
      <trkpt lat="43.41543" lon="1.20602">
        <ele>229.6</ele>
        <time>2024-07-30T07:24:54Z</time>
      </trkpt>
      <trkpt lat="43.41537" lon="1.20599">
        <ele>229.6</ele>
        <time>2024-07-30T07:24:55Z</time>
      </trkpt>
      <trkpt lat="43.41531" lon="1.20596">
        <ele>229.6</ele>
        <time>2024-07-30T07:24:56Z</time>
      </trkpt>
      <trkpt lat="43.41525" lon="1.20592">
        <ele>229.6</ele>
        <time>2024-07-30T07:24:57Z</time>
      </trkpt>
      <trkpt lat="43.41518" lon="1.20589">
        <ele>229.6</ele>
        <time>2024-07-30T07:24:58Z</time>
      </trkpt>
      <trkpt lat="43.41512" lon="1.20585">
        <ele>229.6</ele>
        <time>2024-07-30T07:24:59Z</time>
      </trkpt>
      <trkpt lat="43.41505" lon="1.20582">
        <ele>229.6</ele>
        <time>2024-07-30T07:25:00Z</time>
      </trkpt>
      <trkpt lat="43.41499" lon="1.20579">
        <ele>229.6</ele>
        <time>2024-07-30T07:25:01Z</time>
      </trkpt>
      <trkpt lat="43.41493" lon="1.20575">
        <ele>229.6</ele>
        <time>2024-07-30T07:25:02Z</time>
      </trkpt>
      <trkpt lat="43.41486" lon="1.20572">
        <ele>229.6</ele>
        <time>2024-07-30T07:25:03Z</time>
      </trkpt>
      <trkpt lat="43.41478" lon="1.20568">
        <ele>229.6</ele>
        <time>2024-07-30T07:25:04Z</time>
      </trkpt>
      <trkpt lat="43.41473" lon="1.20565">
        <ele>229.6</ele>
        <time>2024-07-30T07:25:05Z</time>
      </trkpt>
      <trkpt lat="43.41466" lon="1.20561">
        <ele>229.6</ele>
        <time>2024-07-30T07:25:06Z</time>
      </trkpt>
      <trkpt lat="43.4146" lon="1.20558">
        <ele>229.6</ele>
        <time>2024-07-30T07:25:07Z</time>
      </trkpt>
      <trkpt lat="43.41453" lon="1.20555">
        <ele>229.4</ele>
        <time>2024-07-30T07:25:08Z</time>
      </trkpt>
      <trkpt lat="43.41447" lon="1.20551">
        <ele>229.6</ele>
        <time>2024-07-30T07:25:09Z</time>
      </trkpt>
      <trkpt lat="43.41441" lon="1.20548">
        <ele>229.6</ele>
        <time>2024-07-30T07:25:10Z</time>
      </trkpt>
      <trkpt lat="43.41434" lon="1.20545">
        <ele>229.6</ele>
        <time>2024-07-30T07:25:11Z</time>
      </trkpt>
      <trkpt lat="43.41428" lon="1.20541">
        <ele>229.6</ele>
        <time>2024-07-30T07:25:12Z</time>
      </trkpt>
      <trkpt lat="43.41422" lon="1.20538">
        <ele>229.6</ele>
        <time>2024-07-30T07:25:13Z</time>
      </trkpt>
      <trkpt lat="43.41416" lon="1.20534">
        <ele>229.8</ele>
        <time>2024-07-30T07:25:14Z</time>
      </trkpt>
      <trkpt lat="43.4141" lon="1.20531">
        <ele>229.8</ele>
        <time>2024-07-30T07:25:15Z</time>
      </trkpt>
      <trkpt lat="43.41403" lon="1.20527">
        <ele>229.8</ele>
        <time>2024-07-30T07:25:16Z</time>
      </trkpt>
      <trkpt lat="43.41397" lon="1.20524">
        <ele>229.8</ele>
        <time>2024-07-30T07:25:17Z</time>
      </trkpt>
      <trkpt lat="43.41391" lon="1.2052">
        <ele>229.8</ele>
        <time>2024-07-30T07:25:18Z</time>
      </trkpt>
      <trkpt lat="43.41384" lon="1.20517">
        <ele>229.8</ele>
        <time>2024-07-30T07:25:19Z</time>
      </trkpt>
      <trkpt lat="43.41378" lon="1.20514">
        <ele>229.8</ele>
        <time>2024-07-30T07:25:20Z</time>
      </trkpt>
      <trkpt lat="43.41372" lon="1.2051">
        <ele>229.8</ele>
        <time>2024-07-30T07:25:21Z</time>
      </trkpt>
      <trkpt lat="43.41365" lon="1.20507">
        <ele>229.8</ele>
        <time>2024-07-30T07:25:22Z</time>
      </trkpt>
      <trkpt lat="43.41359" lon="1.20503">
        <ele>229.8</ele>
        <time>2024-07-30T07:25:23Z</time>
      </trkpt>
      <trkpt lat="43.41353" lon="1.20499">
        <ele>229.8</ele>
        <time>2024-07-30T07:25:24Z</time>
      </trkpt>
      <trkpt lat="43.41347" lon="1.20496">
        <ele>229.8</ele>
        <time>2024-07-30T07:25:25Z</time>
      </trkpt>
      <trkpt lat="43.4134" lon="1.20492">
        <ele>230</ele>
        <time>2024-07-30T07:25:26Z</time>
      </trkpt>
      <trkpt lat="43.41334" lon="1.20488">
        <ele>230</ele>
        <time>2024-07-30T07:25:27Z</time>
      </trkpt>
      <trkpt lat="43.41328" lon="1.20485">
        <ele>230</ele>
        <time>2024-07-30T07:25:28Z</time>
      </trkpt>
      <trkpt lat="43.41322" lon="1.20481">
        <ele>230</ele>
        <time>2024-07-30T07:25:29Z</time>
      </trkpt>
      <trkpt lat="43.41316" lon="1.20477">
        <ele>230</ele>
        <time>2024-07-30T07:25:30Z</time>
      </trkpt>
      <trkpt lat="43.4131" lon="1.20472">
        <ele>230.2</ele>
        <time>2024-07-30T07:25:31Z</time>
      </trkpt>
      <trkpt lat="43.41305" lon="1.20468">
        <ele>230.2</ele>
        <time>2024-07-30T07:25:32Z</time>
      </trkpt>
      <trkpt lat="43.41299" lon="1.20463">
        <ele>230.2</ele>
        <time>2024-07-30T07:25:33Z</time>
      </trkpt>
      <trkpt lat="43.41293" lon="1.20458">
        <ele>230.2</ele>
        <time>2024-07-30T07:25:34Z</time>
      </trkpt>
      <trkpt lat="43.41287" lon="1.20454">
        <ele>230.2</ele>
        <time>2024-07-30T07:25:35Z</time>
      </trkpt>
      <trkpt lat="43.41281" lon="1.20449">
        <ele>230.2</ele>
        <time>2024-07-30T07:25:36Z</time>
      </trkpt>
      <trkpt lat="43.41276" lon="1.20443">
        <ele>230.2</ele>
        <time>2024-07-30T07:25:37Z</time>
      </trkpt>
      <trkpt lat="43.4127" lon="1.20438">
        <ele>230.2</ele>
        <time>2024-07-30T07:25:38Z</time>
      </trkpt>
      <trkpt lat="43.41265" lon="1.20432">
        <ele>230.2</ele>
        <time>2024-07-30T07:25:39Z</time>
      </trkpt>
      <trkpt lat="43.41259" lon="1.20427">
        <ele>230</ele>
        <time>2024-07-30T07:25:40Z</time>
      </trkpt>
      <trkpt lat="43.41253" lon="1.20421">
        <ele>230</ele>
        <time>2024-07-30T07:25:41Z</time>
      </trkpt>
      <trkpt lat="43.41247" lon="1.20415">
        <ele>230.2</ele>
        <time>2024-07-30T07:25:42Z</time>
      </trkpt>
      <trkpt lat="43.41242" lon="1.2041">
        <ele>230.2</ele>
        <time>2024-07-30T07:25:43Z</time>
      </trkpt>
      <trkpt lat="43.41237" lon="1.20404">
        <ele>230.2</ele>
        <time>2024-07-30T07:25:44Z</time>
      </trkpt>
      <trkpt lat="43.41231" lon="1.20398">
        <ele>230</ele>
        <time>2024-07-30T07:25:45Z</time>
      </trkpt>
      <trkpt lat="43.41226" lon="1.20392">
        <ele>230</ele>
        <time>2024-07-30T07:25:46Z</time>
      </trkpt>
      <trkpt lat="43.4122" lon="1.20386">
        <ele>230</ele>
        <time>2024-07-30T07:25:47Z</time>
      </trkpt>
      <trkpt lat="43.41215" lon="1.2038">
        <ele>230</ele>
        <time>2024-07-30T07:25:48Z</time>
      </trkpt>
      <trkpt lat="43.4121" lon="1.20374">
        <ele>230.2</ele>
        <time>2024-07-30T07:25:49Z</time>
      </trkpt>
      <trkpt lat="43.41205" lon="1.20368">
        <ele>230.4</ele>
        <time>2024-07-30T07:25:50Z</time>
      </trkpt>
      <trkpt lat="43.412" lon="1.20362">
        <ele>230.2</ele>
        <time>2024-07-30T07:25:51Z</time>
      </trkpt>
      <trkpt lat="43.41195" lon="1.20356">
        <ele>230.2</ele>
        <time>2024-07-30T07:25:52Z</time>
      </trkpt>
      <trkpt lat="43.4119" lon="1.2035">
        <ele>230.2</ele>
        <time>2024-07-30T07:25:53Z</time>
      </trkpt>
      <trkpt lat="43.41185" lon="1.20344">
        <ele>230.4</ele>
        <time>2024-07-30T07:25:54Z</time>
      </trkpt>
      <trkpt lat="43.41179" lon="1.20338">
        <ele>230.4</ele>
        <time>2024-07-30T07:25:55Z</time>
      </trkpt>
      <trkpt lat="43.41174" lon="1.20331">
        <ele>230.4</ele>
        <time>2024-07-30T07:25:56Z</time>
      </trkpt>
      <trkpt lat="43.41169" lon="1.20325">
        <ele>230.4</ele>
        <time>2024-07-30T07:25:57Z</time>
      </trkpt>
      <trkpt lat="43.41164" lon="1.20318">
        <ele>230.4</ele>
        <time>2024-07-30T07:25:58Z</time>
      </trkpt>
      <trkpt lat="43.41158" lon="1.20312">
        <ele>230.4</ele>
        <time>2024-07-30T07:25:59Z</time>
      </trkpt>
      <trkpt lat="43.41153" lon="1.20306">
        <ele>230.4</ele>
        <time>2024-07-30T07:26:00Z</time>
      </trkpt>
      <trkpt lat="43.41148" lon="1.20299">
        <ele>230.4</ele>
        <time>2024-07-30T07:26:01Z</time>
      </trkpt>
      <trkpt lat="43.41143" lon="1.20293">
        <ele>230.4</ele>
        <time>2024-07-30T07:26:02Z</time>
      </trkpt>
      <trkpt lat="43.41138" lon="1.20286">
        <ele>230.4</ele>
        <time>2024-07-30T07:26:03Z</time>
      </trkpt>
      <trkpt lat="43.41133" lon="1.2028">
        <ele>230.4</ele>
        <time>2024-07-30T07:26:04Z</time>
      </trkpt>
      <trkpt lat="43.41128" lon="1.20273">
        <ele>230.4</ele>
        <time>2024-07-30T07:26:05Z</time>
      </trkpt>
      <trkpt lat="43.41123" lon="1.20266">
        <ele>230.4</ele>
        <time>2024-07-30T07:26:06Z</time>
      </trkpt>
      <trkpt lat="43.41119" lon="1.20259">
        <ele>230.4</ele>
        <time>2024-07-30T07:26:07Z</time>
      </trkpt>
      <trkpt lat="43.41115" lon="1.20252">
        <ele>230.4</ele>
        <time>2024-07-30T07:26:08Z</time>
      </trkpt>
      <trkpt lat="43.4111" lon="1.20244">
        <ele>230.4</ele>
        <time>2024-07-30T07:26:09Z</time>
      </trkpt>
      <trkpt lat="43.41106" lon="1.20236">
        <ele>230.4</ele>
        <time>2024-07-30T07:26:10Z</time>
      </trkpt>
      <trkpt lat="43.41102" lon="1.20229">
        <ele>230.4</ele>
        <time>2024-07-30T07:26:11Z</time>
      </trkpt>
      <trkpt lat="43.41099" lon="1.20221">
        <ele>230.4</ele>
        <time>2024-07-30T07:26:12Z</time>
      </trkpt>
      <trkpt lat="43.41095" lon="1.20213">
        <ele>230.4</ele>
        <time>2024-07-30T07:26:13Z</time>
      </trkpt>
      <trkpt lat="43.41091" lon="1.20205">
        <ele>230.4</ele>
        <time>2024-07-30T07:26:14Z</time>
      </trkpt>
      <trkpt lat="43.41087" lon="1.20198">
        <ele>230.4</ele>
        <time>2024-07-30T07:26:15Z</time>
      </trkpt>
      <trkpt lat="43.41083" lon="1.2019">
        <ele>230.4</ele>
        <time>2024-07-30T07:26:16Z</time>
      </trkpt>
      <trkpt lat="43.4108" lon="1.20182">
        <ele>230.6</ele>
        <time>2024-07-30T07:26:17Z</time>
      </trkpt>
      <trkpt lat="43.41076" lon="1.20174">
        <ele>230.8</ele>
        <time>2024-07-30T07:26:18Z</time>
      </trkpt>
      <trkpt lat="43.41073" lon="1.20166">
        <ele>230.8</ele>
        <time>2024-07-30T07:26:19Z</time>
      </trkpt>
      <trkpt lat="43.41069" lon="1.20159">
        <ele>230.8</ele>
        <time>2024-07-30T07:26:20Z</time>
      </trkpt>
      <trkpt lat="43.41065" lon="1.20151">
        <ele>231</ele>
        <time>2024-07-30T07:26:21Z</time>
      </trkpt>
      <trkpt lat="43.41062" lon="1.20144">
        <ele>231</ele>
        <time>2024-07-30T07:26:22Z</time>
      </trkpt>
      <trkpt lat="43.41058" lon="1.20137">
        <ele>231.2</ele>
        <time>2024-07-30T07:26:23Z</time>
      </trkpt>
      <trkpt lat="43.41055" lon="1.20129">
        <ele>231.2</ele>
        <time>2024-07-30T07:26:24Z</time>
      </trkpt>
      <trkpt lat="43.41051" lon="1.20122">
        <ele>231.4</ele>
        <time>2024-07-30T07:26:25Z</time>
      </trkpt>
      <trkpt lat="43.41048" lon="1.20114">
        <ele>231.4</ele>
        <time>2024-07-30T07:26:26Z</time>
      </trkpt>
      <trkpt lat="43.41044" lon="1.20107">
        <ele>231.6</ele>
        <time>2024-07-30T07:26:27Z</time>
      </trkpt>
      <trkpt lat="43.4104" lon="1.20099">
        <ele>231.6</ele>
        <time>2024-07-30T07:26:28Z</time>
      </trkpt>
      <trkpt lat="43.41037" lon="1.20092">
        <ele>231.6</ele>
        <time>2024-07-30T07:26:29Z</time>
      </trkpt>
      <trkpt lat="43.41033" lon="1.20085">
        <ele>231.8</ele>
        <time>2024-07-30T07:26:30Z</time>
      </trkpt>
      <trkpt lat="43.41029" lon="1.20077">
        <ele>231.8</ele>
        <time>2024-07-30T07:26:31Z</time>
      </trkpt>
      <trkpt lat="43.41025" lon="1.2007">
        <ele>231.8</ele>
        <time>2024-07-30T07:26:32Z</time>
      </trkpt>
      <trkpt lat="43.41022" lon="1.20062">
        <ele>231.8</ele>
        <time>2024-07-30T07:26:33Z</time>
      </trkpt>
      <trkpt lat="43.41018" lon="1.20055">
        <ele>231.8</ele>
        <time>2024-07-30T07:26:34Z</time>
      </trkpt>
      <trkpt lat="43.41014" lon="1.20047">
        <ele>231.8</ele>
        <time>2024-07-30T07:26:35Z</time>
      </trkpt>
      <trkpt lat="43.4101" lon="1.2004">
        <ele>231.8</ele>
        <time>2024-07-30T07:26:36Z</time>
      </trkpt>
      <trkpt lat="43.41006" lon="1.20032">
        <ele>232</ele>
        <time>2024-07-30T07:26:37Z</time>
      </trkpt>
      <trkpt lat="43.41002" lon="1.20024">
        <ele>232</ele>
        <time>2024-07-30T07:26:38Z</time>
      </trkpt>
      <trkpt lat="43.40998" lon="1.20017">
        <ele>232</ele>
        <time>2024-07-30T07:26:39Z</time>
      </trkpt>
      <trkpt lat="43.40994" lon="1.20009">
        <ele>232</ele>
        <time>2024-07-30T07:26:40Z</time>
      </trkpt>
      <trkpt lat="43.40989" lon="1.20002">
        <ele>232</ele>
        <time>2024-07-30T07:26:41Z</time>
      </trkpt>
      <trkpt lat="43.40984" lon="1.19995">
        <ele>232</ele>
        <time>2024-07-30T07:26:42Z</time>
      </trkpt>
      <trkpt lat="43.40979" lon="1.19988">
        <ele>232.4</ele>
        <time>2024-07-30T07:26:43Z</time>
      </trkpt>
      <trkpt lat="43.40974" lon="1.19981">
        <ele>232.2</ele>
        <time>2024-07-30T07:26:44Z</time>
      </trkpt>
      <trkpt lat="43.4097" lon="1.19974">
        <ele>232.2</ele>
        <time>2024-07-30T07:26:45Z</time>
      </trkpt>
      <trkpt lat="43.40965" lon="1.19967">
        <ele>232.2</ele>
        <time>2024-07-30T07:26:46Z</time>
      </trkpt>
      <trkpt lat="43.4096" lon="1.1996">
        <ele>232.2</ele>
        <time>2024-07-30T07:26:47Z</time>
      </trkpt>
      <trkpt lat="43.40954" lon="1.19953">
        <ele>232.2</ele>
        <time>2024-07-30T07:26:48Z</time>
      </trkpt>
      <trkpt lat="43.40949" lon="1.19947">
        <ele>232.2</ele>
        <time>2024-07-30T07:26:49Z</time>
      </trkpt>
      <trkpt lat="43.40943" lon="1.19939">
        <ele>232.2</ele>
        <time>2024-07-30T07:26:50Z</time>
      </trkpt>
      <trkpt lat="43.4094" lon="1.19933">
        <ele>232.2</ele>
        <time>2024-07-30T07:26:51Z</time>
      </trkpt>
      <trkpt lat="43.40935" lon="1.19927">
        <ele>232.2</ele>
        <time>2024-07-30T07:26:52Z</time>
      </trkpt>
      <trkpt lat="43.4093" lon="1.1992">
        <ele>232.4</ele>
        <time>2024-07-30T07:26:53Z</time>
      </trkpt>
      <trkpt lat="43.40925" lon="1.19913">
        <ele>232.4</ele>
        <time>2024-07-30T07:26:54Z</time>
      </trkpt>
      <trkpt lat="43.40921" lon="1.19907">
        <ele>232.4</ele>
        <time>2024-07-30T07:26:55Z</time>
      </trkpt>
      <trkpt lat="43.40916" lon="1.19901">
        <ele>232.4</ele>
        <time>2024-07-30T07:26:56Z</time>
      </trkpt>
      <trkpt lat="43.40911" lon="1.19895">
        <ele>232.4</ele>
        <time>2024-07-30T07:26:57Z</time>
      </trkpt>
      <trkpt lat="43.40906" lon="1.19889">
        <ele>232.4</ele>
        <time>2024-07-30T07:26:58Z</time>
      </trkpt>
      <trkpt lat="43.40902" lon="1.19884">
        <ele>232.4</ele>
        <time>2024-07-30T07:26:59Z</time>
      </trkpt>
      <trkpt lat="43.40897" lon="1.19878">
        <ele>232.8</ele>
        <time>2024-07-30T07:27:00Z</time>
      </trkpt>
      <trkpt lat="43.40893" lon="1.19872">
        <ele>232.6</ele>
        <time>2024-07-30T07:27:01Z</time>
      </trkpt>
      <trkpt lat="43.40889" lon="1.19866">
        <ele>232.8</ele>
        <time>2024-07-30T07:27:02Z</time>
      </trkpt>
      <trkpt lat="43.40884" lon="1.19861">
        <ele>232.8</ele>
        <time>2024-07-30T07:27:03Z</time>
      </trkpt>
      <trkpt lat="43.4088" lon="1.19855">
        <ele>233</ele>
        <time>2024-07-30T07:27:04Z</time>
      </trkpt>
      <trkpt lat="43.40876" lon="1.19849">
        <ele>233.2</ele>
        <time>2024-07-30T07:27:05Z</time>
      </trkpt>
      <trkpt lat="43.40871" lon="1.19843">
        <ele>233.2</ele>
        <time>2024-07-30T07:27:06Z</time>
      </trkpt>
      <trkpt lat="43.40866" lon="1.19837">
        <ele>233.2</ele>
        <time>2024-07-30T07:27:07Z</time>
      </trkpt>
      <trkpt lat="43.40861" lon="1.19832">
        <ele>233.4</ele>
        <time>2024-07-30T07:27:08Z</time>
      </trkpt>
      <trkpt lat="43.40857" lon="1.19826">
        <ele>233.4</ele>
        <time>2024-07-30T07:27:09Z</time>
      </trkpt>
      <trkpt lat="43.40852" lon="1.1982">
        <ele>233.6</ele>
        <time>2024-07-30T07:27:10Z</time>
      </trkpt>
      <trkpt lat="43.40846" lon="1.19815">
        <ele>233.6</ele>
        <time>2024-07-30T07:27:11Z</time>
      </trkpt>
      <trkpt lat="43.40841" lon="1.19811">
        <ele>233.8</ele>
        <time>2024-07-30T07:27:12Z</time>
      </trkpt>
      <trkpt lat="43.40836" lon="1.19805">
        <ele>234</ele>
        <time>2024-07-30T07:27:13Z</time>
      </trkpt>
      <trkpt lat="43.4083" lon="1.198">
        <ele>234</ele>
        <time>2024-07-30T07:27:14Z</time>
      </trkpt>
      <trkpt lat="43.40825" lon="1.19794">
        <ele>234.2</ele>
        <time>2024-07-30T07:27:15Z</time>
      </trkpt>
      <trkpt lat="43.4082" lon="1.19788">
        <ele>234.2</ele>
        <time>2024-07-30T07:27:16Z</time>
      </trkpt>
      <trkpt lat="43.40814" lon="1.19783">
        <ele>234.4</ele>
        <time>2024-07-30T07:27:17Z</time>
      </trkpt>
      <trkpt lat="43.40809" lon="1.19777">
        <ele>234.6</ele>
        <time>2024-07-30T07:27:18Z</time>
      </trkpt>
      <trkpt lat="43.40803" lon="1.19771">
        <ele>234.6</ele>
        <time>2024-07-30T07:27:19Z</time>
      </trkpt>
      <trkpt lat="43.40798" lon="1.19766">
        <ele>234.6</ele>
        <time>2024-07-30T07:27:20Z</time>
      </trkpt>
      <trkpt lat="43.40793" lon="1.19761">
        <ele>234.8</ele>
        <time>2024-07-30T07:27:21Z</time>
      </trkpt>
      <trkpt lat="43.40788" lon="1.19755">
        <ele>235</ele>
        <time>2024-07-30T07:27:22Z</time>
      </trkpt>
      <trkpt lat="43.40782" lon="1.19749">
        <ele>235</ele>
        <time>2024-07-30T07:27:23Z</time>
      </trkpt>
      <trkpt lat="43.40777" lon="1.19744">
        <ele>235.2</ele>
        <time>2024-07-30T07:27:24Z</time>
      </trkpt>
      <trkpt lat="43.40771" lon="1.19738">
        <ele>235.2</ele>
        <time>2024-07-30T07:27:25Z</time>
      </trkpt>
      <trkpt lat="43.40766" lon="1.19732">
        <ele>235.2</ele>
        <time>2024-07-30T07:27:26Z</time>
      </trkpt>
      <trkpt lat="43.4076" lon="1.19727">
        <ele>235.2</ele>
        <time>2024-07-30T07:27:27Z</time>
      </trkpt>
      <trkpt lat="43.40755" lon="1.19721">
        <ele>235.4</ele>
        <time>2024-07-30T07:27:28Z</time>
      </trkpt>
      <trkpt lat="43.4075" lon="1.19716">
        <ele>235.4</ele>
        <time>2024-07-30T07:27:29Z</time>
      </trkpt>
      <trkpt lat="43.40744" lon="1.1971">
        <ele>235.4</ele>
        <time>2024-07-30T07:27:30Z</time>
      </trkpt>
      <trkpt lat="43.40739" lon="1.19705">
        <ele>235.6</ele>
        <time>2024-07-30T07:27:31Z</time>
      </trkpt>
      <trkpt lat="43.40734" lon="1.19699">
        <ele>235.6</ele>
        <time>2024-07-30T07:27:32Z</time>
      </trkpt>
      <trkpt lat="43.40729" lon="1.19694">
        <ele>235.8</ele>
        <time>2024-07-30T07:27:33Z</time>
      </trkpt>
      <trkpt lat="43.40724" lon="1.19689">
        <ele>235.8</ele>
        <time>2024-07-30T07:27:34Z</time>
      </trkpt>
      <trkpt lat="43.40719" lon="1.19684">
        <ele>235.8</ele>
        <time>2024-07-30T07:27:35Z</time>
      </trkpt>
      <trkpt lat="43.40714" lon="1.19678">
        <ele>236</ele>
        <time>2024-07-30T07:27:36Z</time>
      </trkpt>
      <trkpt lat="43.40708" lon="1.19673">
        <ele>236</ele>
        <time>2024-07-30T07:27:37Z</time>
      </trkpt>
      <trkpt lat="43.40703" lon="1.19667">
        <ele>236</ele>
        <time>2024-07-30T07:27:38Z</time>
      </trkpt>
      <trkpt lat="43.40698" lon="1.19662">
        <ele>236</ele>
        <time>2024-07-30T07:27:39Z</time>
      </trkpt>
      <trkpt lat="43.40693" lon="1.19657">
        <ele>236.2</ele>
        <time>2024-07-30T07:27:40Z</time>
      </trkpt>
      <trkpt lat="43.40688" lon="1.19652">
        <ele>236.2</ele>
        <time>2024-07-30T07:27:41Z</time>
      </trkpt>
      <trkpt lat="43.40682" lon="1.19646">
        <ele>236.2</ele>
        <time>2024-07-30T07:27:42Z</time>
      </trkpt>
      <trkpt lat="43.40677" lon="1.19641">
        <ele>236.4</ele>
        <time>2024-07-30T07:27:43Z</time>
      </trkpt>
      <trkpt lat="43.40672" lon="1.19635">
        <ele>236.4</ele>
        <time>2024-07-30T07:27:44Z</time>
      </trkpt>
      <trkpt lat="43.40667" lon="1.1963">
        <ele>236.4</ele>
        <time>2024-07-30T07:27:45Z</time>
      </trkpt>
      <trkpt lat="43.40661" lon="1.19625">
        <ele>236.4</ele>
        <time>2024-07-30T07:27:46Z</time>
      </trkpt>
      <trkpt lat="43.40656" lon="1.19619">
        <ele>236.4</ele>
        <time>2024-07-30T07:27:47Z</time>
      </trkpt>
      <trkpt lat="43.40651" lon="1.19614">
        <ele>236.6</ele>
        <time>2024-07-30T07:27:48Z</time>
      </trkpt>
      <trkpt lat="43.40646" lon="1.19609">
        <ele>236.6</ele>
        <time>2024-07-30T07:27:49Z</time>
      </trkpt>
      <trkpt lat="43.40641" lon="1.19603">
        <ele>236.6</ele>
        <time>2024-07-30T07:27:50Z</time>
      </trkpt>
      <trkpt lat="43.40635" lon="1.19598">
        <ele>236.6</ele>
        <time>2024-07-30T07:27:51Z</time>
      </trkpt>
      <trkpt lat="43.4063" lon="1.19593">
        <ele>236.6</ele>
        <time>2024-07-30T07:27:52Z</time>
      </trkpt>
      <trkpt lat="43.40625" lon="1.19588">
        <ele>236.6</ele>
        <time>2024-07-30T07:27:53Z</time>
      </trkpt>
      <trkpt lat="43.4062" lon="1.19582">
        <ele>236.6</ele>
        <time>2024-07-30T07:27:54Z</time>
      </trkpt>
      <trkpt lat="43.40614" lon="1.19577">
        <ele>236.6</ele>
        <time>2024-07-30T07:27:55Z</time>
      </trkpt>
      <trkpt lat="43.40609" lon="1.19572">
        <ele>236.6</ele>
        <time>2024-07-30T07:27:56Z</time>
      </trkpt>
      <trkpt lat="43.40604" lon="1.19566">
        <ele>236.6</ele>
        <time>2024-07-30T07:27:57Z</time>
      </trkpt>
      <trkpt lat="43.40599" lon="1.19561">
        <ele>236.6</ele>
        <time>2024-07-30T07:27:58Z</time>
      </trkpt>
      <trkpt lat="43.40599" lon="1.19561">
        <ele>236.6</ele>
        <time>2024-07-30T07:27:59Z</time>
      </trkpt>
      <trkpt lat="43.40589" lon="1.19551">
        <ele>236.6</ele>
        <time>2024-07-30T07:28:00Z</time>
      </trkpt>
      <trkpt lat="43.40584" lon="1.19546">
        <ele>236.8</ele>
        <time>2024-07-30T07:28:01Z</time>
      </trkpt>
      <trkpt lat="43.40579" lon="1.19541">
        <ele>236.8</ele>
        <time>2024-07-30T07:28:02Z</time>
      </trkpt>
      <trkpt lat="43.40574" lon="1.19536">
        <ele>236.8</ele>
        <time>2024-07-30T07:28:03Z</time>
      </trkpt>
      <trkpt lat="43.40569" lon="1.1953">
        <ele>236.8</ele>
        <time>2024-07-30T07:28:04Z</time>
      </trkpt>
      <trkpt lat="43.40563" lon="1.19524">
        <ele>236.8</ele>
        <time>2024-07-30T07:28:05Z</time>
      </trkpt>
      <trkpt lat="43.40558" lon="1.19518">
        <ele>236.8</ele>
        <time>2024-07-30T07:28:06Z</time>
      </trkpt>
      <trkpt lat="43.40552" lon="1.19512">
        <ele>237</ele>
        <time>2024-07-30T07:28:07Z</time>
      </trkpt>
      <trkpt lat="43.40547" lon="1.19507">
        <ele>237</ele>
        <time>2024-07-30T07:28:08Z</time>
      </trkpt>
      <trkpt lat="43.40542" lon="1.19501">
        <ele>237</ele>
        <time>2024-07-30T07:28:09Z</time>
      </trkpt>
      <trkpt lat="43.40536" lon="1.19496">
        <ele>237</ele>
        <time>2024-07-30T07:28:10Z</time>
      </trkpt>
      <trkpt lat="43.40531" lon="1.1949">
        <ele>237</ele>
        <time>2024-07-30T07:28:11Z</time>
      </trkpt>
      <trkpt lat="43.40525" lon="1.19485">
        <ele>237</ele>
        <time>2024-07-30T07:28:12Z</time>
      </trkpt>
      <trkpt lat="43.4052" lon="1.19479">
        <ele>237</ele>
        <time>2024-07-30T07:28:13Z</time>
      </trkpt>
      <trkpt lat="43.40515" lon="1.19474">
        <ele>237</ele>
        <time>2024-07-30T07:28:14Z</time>
      </trkpt>
      <trkpt lat="43.40509" lon="1.19469">
        <ele>237</ele>
        <time>2024-07-30T07:28:15Z</time>
      </trkpt>
      <trkpt lat="43.40504" lon="1.19463">
        <ele>237</ele>
        <time>2024-07-30T07:28:16Z</time>
      </trkpt>
      <trkpt lat="43.40499" lon="1.19458">
        <ele>237</ele>
        <time>2024-07-30T07:28:17Z</time>
      </trkpt>
      <trkpt lat="43.40493" lon="1.19452">
        <ele>237.2</ele>
        <time>2024-07-30T07:28:18Z</time>
      </trkpt>
      <trkpt lat="43.40488" lon="1.19447">
        <ele>237.2</ele>
        <time>2024-07-30T07:28:19Z</time>
      </trkpt>
      <trkpt lat="43.40482" lon="1.19441">
        <ele>237.2</ele>
        <time>2024-07-30T07:28:20Z</time>
      </trkpt>
      <trkpt lat="43.40477" lon="1.19435">
        <ele>237.4</ele>
        <time>2024-07-30T07:28:21Z</time>
      </trkpt>
      <trkpt lat="43.40471" lon="1.1943">
        <ele>237.6</ele>
        <time>2024-07-30T07:28:22Z</time>
      </trkpt>
      <trkpt lat="43.40466" lon="1.19424">
        <ele>237.6</ele>
        <time>2024-07-30T07:28:23Z</time>
      </trkpt>
      <trkpt lat="43.40461" lon="1.19419">
        <ele>237.6</ele>
        <time>2024-07-30T07:28:24Z</time>
      </trkpt>
      <trkpt lat="43.40456" lon="1.19414">
        <ele>237.6</ele>
        <time>2024-07-30T07:28:25Z</time>
      </trkpt>
      <trkpt lat="43.4045" lon="1.19408">
        <ele>237.6</ele>
        <time>2024-07-30T07:28:26Z</time>
      </trkpt>
      <trkpt lat="43.40445" lon="1.19403">
        <ele>237.6</ele>
        <time>2024-07-30T07:28:27Z</time>
      </trkpt>
      <trkpt lat="43.4044" lon="1.19398">
        <ele>237.6</ele>
        <time>2024-07-30T07:28:28Z</time>
      </trkpt>
      <trkpt lat="43.40435" lon="1.19392">
        <ele>237.6</ele>
        <time>2024-07-30T07:28:29Z</time>
      </trkpt>
      <trkpt lat="43.4043" lon="1.19387">
        <ele>237.6</ele>
        <time>2024-07-30T07:28:30Z</time>
      </trkpt>
      <trkpt lat="43.40424" lon="1.19382">
        <ele>237.6</ele>
        <time>2024-07-30T07:28:31Z</time>
      </trkpt>
      <trkpt lat="43.40419" lon="1.19377">
        <ele>237.8</ele>
        <time>2024-07-30T07:28:32Z</time>
      </trkpt>
      <trkpt lat="43.40414" lon="1.19372">
        <ele>237.8</ele>
        <time>2024-07-30T07:28:33Z</time>
      </trkpt>
      <trkpt lat="43.40408" lon="1.19367">
        <ele>237.8</ele>
        <time>2024-07-30T07:28:34Z</time>
      </trkpt>
      <trkpt lat="43.40402" lon="1.19362">
        <ele>237.8</ele>
        <time>2024-07-30T07:28:35Z</time>
      </trkpt>
      <trkpt lat="43.40397" lon="1.19357">
        <ele>237.8</ele>
        <time>2024-07-30T07:28:36Z</time>
      </trkpt>
      <trkpt lat="43.40391" lon="1.19353">
        <ele>238</ele>
        <time>2024-07-30T07:28:37Z</time>
      </trkpt>
      <trkpt lat="43.40385" lon="1.19349">
        <ele>238</ele>
        <time>2024-07-30T07:28:38Z</time>
      </trkpt>
      <trkpt lat="43.40379" lon="1.19345">
        <ele>238</ele>
        <time>2024-07-30T07:28:39Z</time>
      </trkpt>
      <trkpt lat="43.40373" lon="1.1934">
        <ele>238</ele>
        <time>2024-07-30T07:28:40Z</time>
      </trkpt>
      <trkpt lat="43.40367" lon="1.19337">
        <ele>238</ele>
        <time>2024-07-30T07:28:41Z</time>
      </trkpt>
      <trkpt lat="43.40361" lon="1.19333">
        <ele>238.2</ele>
        <time>2024-07-30T07:28:42Z</time>
      </trkpt>
      <trkpt lat="43.40355" lon="1.19329">
        <ele>238.2</ele>
        <time>2024-07-30T07:28:43Z</time>
      </trkpt>
      <trkpt lat="43.40349" lon="1.19326">
        <ele>238.2</ele>
        <time>2024-07-30T07:28:44Z</time>
      </trkpt>
      <trkpt lat="43.40342" lon="1.19322">
        <ele>238.2</ele>
        <time>2024-07-30T07:28:45Z</time>
      </trkpt>
      <trkpt lat="43.40336" lon="1.19319">
        <ele>238.2</ele>
        <time>2024-07-30T07:28:46Z</time>
      </trkpt>
      <trkpt lat="43.40329" lon="1.19316">
        <ele>238.2</ele>
        <time>2024-07-30T07:28:47Z</time>
      </trkpt>
      <trkpt lat="43.40323" lon="1.19313">
        <ele>238.2</ele>
        <time>2024-07-30T07:28:48Z</time>
      </trkpt>
      <trkpt lat="43.40316" lon="1.1931">
        <ele>238.2</ele>
        <time>2024-07-30T07:28:49Z</time>
      </trkpt>
      <trkpt lat="43.4031" lon="1.19307">
        <ele>238.2</ele>
        <time>2024-07-30T07:28:50Z</time>
      </trkpt>
      <trkpt lat="43.40303" lon="1.19304">
        <ele>238.4</ele>
        <time>2024-07-30T07:28:51Z</time>
      </trkpt>
      <trkpt lat="43.40297" lon="1.19301">
        <ele>238.4</ele>
        <time>2024-07-30T07:28:52Z</time>
      </trkpt>
      <trkpt lat="43.4029" lon="1.19298">
        <ele>238.4</ele>
        <time>2024-07-30T07:28:53Z</time>
      </trkpt>
      <trkpt lat="43.40284" lon="1.19295">
        <ele>238.4</ele>
        <time>2024-07-30T07:28:54Z</time>
      </trkpt>
      <trkpt lat="43.40277" lon="1.19292">
        <ele>238.4</ele>
        <time>2024-07-30T07:28:55Z</time>
      </trkpt>
      <trkpt lat="43.40271" lon="1.19289">
        <ele>238.4</ele>
        <time>2024-07-30T07:28:56Z</time>
      </trkpt>
      <trkpt lat="43.40264" lon="1.19286">
        <ele>238.4</ele>
        <time>2024-07-30T07:28:57Z</time>
      </trkpt>
      <trkpt lat="43.40258" lon="1.19283">
        <ele>238.4</ele>
        <time>2024-07-30T07:28:58Z</time>
      </trkpt>
      <trkpt lat="43.40251" lon="1.1928">
        <ele>238.4</ele>
        <time>2024-07-30T07:28:59Z</time>
      </trkpt>
      <trkpt lat="43.40245" lon="1.19277">
        <ele>238.4</ele>
        <time>2024-07-30T07:29:00Z</time>
      </trkpt>
      <trkpt lat="43.40239" lon="1.19275">
        <ele>238.4</ele>
        <time>2024-07-30T07:29:01Z</time>
      </trkpt>
      <trkpt lat="43.40232" lon="1.19272">
        <ele>238.4</ele>
        <time>2024-07-30T07:29:02Z</time>
      </trkpt>
      <trkpt lat="43.40226" lon="1.19269">
        <ele>238.4</ele>
        <time>2024-07-30T07:29:03Z</time>
      </trkpt>
      <trkpt lat="43.4022" lon="1.19266">
        <ele>238.4</ele>
        <time>2024-07-30T07:29:04Z</time>
      </trkpt>
      <trkpt lat="43.40214" lon="1.19263">
        <ele>238.4</ele>
        <time>2024-07-30T07:29:05Z</time>
      </trkpt>
      <trkpt lat="43.40207" lon="1.1926">
        <ele>238.4</ele>
        <time>2024-07-30T07:29:06Z</time>
      </trkpt>
      <trkpt lat="43.40201" lon="1.19257">
        <ele>238.4</ele>
        <time>2024-07-30T07:29:07Z</time>
      </trkpt>
      <trkpt lat="43.40195" lon="1.19254">
        <ele>238.6</ele>
        <time>2024-07-30T07:29:08Z</time>
      </trkpt>
      <trkpt lat="43.40188" lon="1.19251">
        <ele>238.6</ele>
        <time>2024-07-30T07:29:09Z</time>
      </trkpt>
      <trkpt lat="43.40182" lon="1.19248">
        <ele>238.6</ele>
        <time>2024-07-30T07:29:10Z</time>
      </trkpt>
      <trkpt lat="43.40175" lon="1.19245">
        <ele>238.6</ele>
        <time>2024-07-30T07:29:11Z</time>
      </trkpt>
      <trkpt lat="43.40169" lon="1.19242">
        <ele>238.6</ele>
        <time>2024-07-30T07:29:12Z</time>
      </trkpt>
      <trkpt lat="43.40163" lon="1.19239">
        <ele>238.6</ele>
        <time>2024-07-30T07:29:13Z</time>
      </trkpt>
      <trkpt lat="43.40157" lon="1.19236">
        <ele>238.6</ele>
        <time>2024-07-30T07:29:14Z</time>
      </trkpt>
      <trkpt lat="43.4015" lon="1.19233">
        <ele>238.6</ele>
        <time>2024-07-30T07:29:15Z</time>
      </trkpt>
      <trkpt lat="43.40144" lon="1.1923">
        <ele>238.6</ele>
        <time>2024-07-30T07:29:16Z</time>
      </trkpt>
      <trkpt lat="43.40137" lon="1.19227">
        <ele>238.6</ele>
        <time>2024-07-30T07:29:17Z</time>
      </trkpt>
      <trkpt lat="43.40131" lon="1.19224">
        <ele>238.8</ele>
        <time>2024-07-30T07:29:18Z</time>
      </trkpt>
      <trkpt lat="43.40124" lon="1.19221">
        <ele>238.8</ele>
        <time>2024-07-30T07:29:19Z</time>
      </trkpt>
      <trkpt lat="43.40117" lon="1.19218">
        <ele>238.8</ele>
        <time>2024-07-30T07:29:20Z</time>
      </trkpt>
      <trkpt lat="43.40111" lon="1.19215">
        <ele>238.8</ele>
        <time>2024-07-30T07:29:21Z</time>
      </trkpt>
      <trkpt lat="43.40111" lon="1.19215">
        <ele>238.8</ele>
        <time>2024-07-30T07:29:22Z</time>
      </trkpt>
      <trkpt lat="43.40098" lon="1.19209">
        <ele>238.8</ele>
        <time>2024-07-30T07:29:23Z</time>
      </trkpt>
      <trkpt lat="43.40091" lon="1.19206">
        <ele>238.8</ele>
        <time>2024-07-30T07:29:24Z</time>
      </trkpt>
      <trkpt lat="43.40085" lon="1.19203">
        <ele>239</ele>
        <time>2024-07-30T07:29:25Z</time>
      </trkpt>
      <trkpt lat="43.40078" lon="1.192">
        <ele>239</ele>
        <time>2024-07-30T07:29:26Z</time>
      </trkpt>
      <trkpt lat="43.40072" lon="1.19197">
        <ele>239</ele>
        <time>2024-07-30T07:29:27Z</time>
      </trkpt>
      <trkpt lat="43.40065" lon="1.19194">
        <ele>239</ele>
        <time>2024-07-30T07:29:28Z</time>
      </trkpt>
      <trkpt lat="43.40059" lon="1.19191">
        <ele>239</ele>
        <time>2024-07-30T07:29:29Z</time>
      </trkpt>
      <trkpt lat="43.40053" lon="1.19188">
        <ele>239</ele>
        <time>2024-07-30T07:29:30Z</time>
      </trkpt>
      <trkpt lat="43.40046" lon="1.19185">
        <ele>239</ele>
        <time>2024-07-30T07:29:31Z</time>
      </trkpt>
      <trkpt lat="43.4004" lon="1.19181">
        <ele>239</ele>
        <time>2024-07-30T07:29:32Z</time>
      </trkpt>
      <trkpt lat="43.40033" lon="1.19178">
        <ele>239</ele>
        <time>2024-07-30T07:29:33Z</time>
      </trkpt>
      <trkpt lat="43.40027" lon="1.19175">
        <ele>239</ele>
        <time>2024-07-30T07:29:34Z</time>
      </trkpt>
      <trkpt lat="43.4002" lon="1.19172">
        <ele>239</ele>
        <time>2024-07-30T07:29:35Z</time>
      </trkpt>
      <trkpt lat="43.40014" lon="1.1917">
        <ele>239</ele>
        <time>2024-07-30T07:29:36Z</time>
      </trkpt>
      <trkpt lat="43.40007" lon="1.19167">
        <ele>239.2</ele>
        <time>2024-07-30T07:29:37Z</time>
      </trkpt>
      <trkpt lat="43.4" lon="1.19164">
        <ele>239.2</ele>
        <time>2024-07-30T07:29:38Z</time>
      </trkpt>
      <trkpt lat="43.39994" lon="1.19161">
        <ele>239.2</ele>
        <time>2024-07-30T07:29:39Z</time>
      </trkpt>
      <trkpt lat="43.39987" lon="1.19157">
        <ele>239.2</ele>
        <time>2024-07-30T07:29:40Z</time>
      </trkpt>
      <trkpt lat="43.39981" lon="1.19155">
        <ele>239.2</ele>
        <time>2024-07-30T07:29:41Z</time>
      </trkpt>
      <trkpt lat="43.39974" lon="1.19152">
        <ele>239.2</ele>
        <time>2024-07-30T07:29:42Z</time>
      </trkpt>
      <trkpt lat="43.39974" lon="1.19152">
        <ele>239.2</ele>
        <time>2024-07-30T07:29:43Z</time>
      </trkpt>
      <trkpt lat="43.39961" lon="1.19146">
        <ele>239.2</ele>
        <time>2024-07-30T07:29:44Z</time>
      </trkpt>
      <trkpt lat="43.39954" lon="1.19143">
        <ele>239.2</ele>
        <time>2024-07-30T07:29:45Z</time>
      </trkpt>
      <trkpt lat="43.39948" lon="1.1914">
        <ele>239.2</ele>
        <time>2024-07-30T07:29:46Z</time>
      </trkpt>
      <trkpt lat="43.39941" lon="1.19137">
        <ele>239.2</ele>
        <time>2024-07-30T07:29:47Z</time>
      </trkpt>
      <trkpt lat="43.39935" lon="1.19134">
        <ele>239.2</ele>
        <time>2024-07-30T07:29:48Z</time>
      </trkpt>
      <trkpt lat="43.39928" lon="1.19131">
        <ele>239.2</ele>
        <time>2024-07-30T07:29:49Z</time>
      </trkpt>
      <trkpt lat="43.39921" lon="1.19128">
        <ele>239.4</ele>
        <time>2024-07-30T07:29:50Z</time>
      </trkpt>
      <trkpt lat="43.39915" lon="1.19124">
        <ele>239.4</ele>
        <time>2024-07-30T07:29:51Z</time>
      </trkpt>
      <trkpt lat="43.39908" lon="1.19122">
        <ele>239.4</ele>
        <time>2024-07-30T07:29:52Z</time>
      </trkpt>
      <trkpt lat="43.39901" lon="1.19118">
        <ele>239.4</ele>
        <time>2024-07-30T07:29:53Z</time>
      </trkpt>
      <trkpt lat="43.39894" lon="1.19115">
        <ele>239.4</ele>
        <time>2024-07-30T07:29:54Z</time>
      </trkpt>
      <trkpt lat="43.39888" lon="1.19112">
        <ele>239.4</ele>
        <time>2024-07-30T07:29:55Z</time>
      </trkpt>
      <trkpt lat="43.39881" lon="1.19109">
        <ele>239.4</ele>
        <time>2024-07-30T07:29:56Z</time>
      </trkpt>
      <trkpt lat="43.39874" lon="1.19106">
        <ele>239.4</ele>
        <time>2024-07-30T07:29:57Z</time>
      </trkpt>
      <trkpt lat="43.39867" lon="1.19103">
        <ele>239.4</ele>
        <time>2024-07-30T07:29:58Z</time>
      </trkpt>
      <trkpt lat="43.39861" lon="1.191">
        <ele>239.4</ele>
        <time>2024-07-30T07:29:59Z</time>
      </trkpt>
      <trkpt lat="43.39854" lon="1.19097">
        <ele>239.4</ele>
        <time>2024-07-30T07:30:00Z</time>
      </trkpt>
      <trkpt lat="43.39847" lon="1.19094">
        <ele>239.4</ele>
        <time>2024-07-30T07:30:01Z</time>
      </trkpt>
      <trkpt lat="43.3984" lon="1.19091">
        <ele>239.4</ele>
        <time>2024-07-30T07:30:02Z</time>
      </trkpt>
      <trkpt lat="43.39833" lon="1.19088">
        <ele>239.4</ele>
        <time>2024-07-30T07:30:03Z</time>
      </trkpt>
      <trkpt lat="43.39827" lon="1.19085">
        <ele>239.4</ele>
        <time>2024-07-30T07:30:04Z</time>
      </trkpt>
      <trkpt lat="43.3982" lon="1.19081">
        <ele>239.4</ele>
        <time>2024-07-30T07:30:05Z</time>
      </trkpt>
      <trkpt lat="43.39813" lon="1.19078">
        <ele>239.4</ele>
        <time>2024-07-30T07:30:06Z</time>
      </trkpt>
      <trkpt lat="43.39806" lon="1.19075">
        <ele>239.4</ele>
        <time>2024-07-30T07:30:07Z</time>
      </trkpt>
      <trkpt lat="43.398" lon="1.19072">
        <ele>239.4</ele>
        <time>2024-07-30T07:30:08Z</time>
      </trkpt>
      <trkpt lat="43.39793" lon="1.19069">
        <ele>239.4</ele>
        <time>2024-07-30T07:30:09Z</time>
      </trkpt>
      <trkpt lat="43.39786" lon="1.19066">
        <ele>239.4</ele>
        <time>2024-07-30T07:30:10Z</time>
      </trkpt>
      <trkpt lat="43.3978" lon="1.19063">
        <ele>239.4</ele>
        <time>2024-07-30T07:30:11Z</time>
      </trkpt>
      <trkpt lat="43.39773" lon="1.19059">
        <ele>239.4</ele>
        <time>2024-07-30T07:30:12Z</time>
      </trkpt>
      <trkpt lat="43.39767" lon="1.19056">
        <ele>239.4</ele>
        <time>2024-07-30T07:30:13Z</time>
      </trkpt>
      <trkpt lat="43.3976" lon="1.19053">
        <ele>239.6</ele>
        <time>2024-07-30T07:30:14Z</time>
      </trkpt>
      <trkpt lat="43.39754" lon="1.19049">
        <ele>239.6</ele>
        <time>2024-07-30T07:30:15Z</time>
      </trkpt>
      <trkpt lat="43.39747" lon="1.19046">
        <ele>239.6</ele>
        <time>2024-07-30T07:30:16Z</time>
      </trkpt>
      <trkpt lat="43.39741" lon="1.19043">
        <ele>239.6</ele>
        <time>2024-07-30T07:30:17Z</time>
      </trkpt>
      <trkpt lat="43.39734" lon="1.19039">
        <ele>239.6</ele>
        <time>2024-07-30T07:30:18Z</time>
      </trkpt>
      <trkpt lat="43.39728" lon="1.19036">
        <ele>239.8</ele>
        <time>2024-07-30T07:30:19Z</time>
      </trkpt>
      <trkpt lat="43.39721" lon="1.19032">
        <ele>239.8</ele>
        <time>2024-07-30T07:30:20Z</time>
      </trkpt>
      <trkpt lat="43.39715" lon="1.19029">
        <ele>239.8</ele>
        <time>2024-07-30T07:30:21Z</time>
      </trkpt>
      <trkpt lat="43.39708" lon="1.19026">
        <ele>239.8</ele>
        <time>2024-07-30T07:30:22Z</time>
      </trkpt>
      <trkpt lat="43.39702" lon="1.19022">
        <ele>239.8</ele>
        <time>2024-07-30T07:30:23Z</time>
      </trkpt>
      <trkpt lat="43.39695" lon="1.19019">
        <ele>239.8</ele>
        <time>2024-07-30T07:30:24Z</time>
      </trkpt>
      <trkpt lat="43.39688" lon="1.19015">
        <ele>239.8</ele>
        <time>2024-07-30T07:30:25Z</time>
      </trkpt>
      <trkpt lat="43.39682" lon="1.19012">
        <ele>239.8</ele>
        <time>2024-07-30T07:30:26Z</time>
      </trkpt>
      <trkpt lat="43.39675" lon="1.19008">
        <ele>239.8</ele>
        <time>2024-07-30T07:30:27Z</time>
      </trkpt>
      <trkpt lat="43.39669" lon="1.19005">
        <ele>239.8</ele>
        <time>2024-07-30T07:30:28Z</time>
      </trkpt>
      <trkpt lat="43.39662" lon="1.19002">
        <ele>239.8</ele>
        <time>2024-07-30T07:30:29Z</time>
      </trkpt>
      <trkpt lat="43.39655" lon="1.18999">
        <ele>239.8</ele>
        <time>2024-07-30T07:30:30Z</time>
      </trkpt>
      <trkpt lat="43.39648" lon="1.18996">
        <ele>239.8</ele>
        <time>2024-07-30T07:30:31Z</time>
      </trkpt>
      <trkpt lat="43.39641" lon="1.18993">
        <ele>239.8</ele>
        <time>2024-07-30T07:30:32Z</time>
      </trkpt>
      <trkpt lat="43.39634" lon="1.18991">
        <ele>239.8</ele>
        <time>2024-07-30T07:30:33Z</time>
      </trkpt>
      <trkpt lat="43.39627" lon="1.18989">
        <ele>239.8</ele>
        <time>2024-07-30T07:30:34Z</time>
      </trkpt>
      <trkpt lat="43.39619" lon="1.18987">
        <ele>239.8</ele>
        <time>2024-07-30T07:30:35Z</time>
      </trkpt>
      <trkpt lat="43.39612" lon="1.18986">
        <ele>239.8</ele>
        <time>2024-07-30T07:30:36Z</time>
      </trkpt>
      <trkpt lat="43.39606" lon="1.18985">
        <ele>239.8</ele>
        <time>2024-07-30T07:30:37Z</time>
      </trkpt>
      <trkpt lat="43.396" lon="1.18985">
        <ele>239.8</ele>
        <time>2024-07-30T07:30:38Z</time>
      </trkpt>
      <trkpt lat="43.39591" lon="1.18984">
        <ele>239.8</ele>
        <time>2024-07-30T07:30:39Z</time>
      </trkpt>
      <trkpt lat="43.39585" lon="1.18984">
        <ele>239.8</ele>
        <time>2024-07-30T07:30:40Z</time>
      </trkpt>
      <trkpt lat="43.39579" lon="1.18984">
        <ele>240</ele>
        <time>2024-07-30T07:30:41Z</time>
      </trkpt>
      <trkpt lat="43.39572" lon="1.18984">
        <ele>240</ele>
        <time>2024-07-30T07:30:42Z</time>
      </trkpt>
      <trkpt lat="43.39564" lon="1.18984">
        <ele>240</ele>
        <time>2024-07-30T07:30:43Z</time>
      </trkpt>
      <trkpt lat="43.39557" lon="1.18984">
        <ele>240</ele>
        <time>2024-07-30T07:30:44Z</time>
      </trkpt>
      <trkpt lat="43.3955" lon="1.18984">
        <ele>240</ele>
        <time>2024-07-30T07:30:45Z</time>
      </trkpt>
      <trkpt lat="43.39545" lon="1.18984">
        <ele>240</ele>
        <time>2024-07-30T07:30:46Z</time>
      </trkpt>
      <trkpt lat="43.39538" lon="1.18983">
        <ele>240</ele>
        <time>2024-07-30T07:30:47Z</time>
      </trkpt>
      <trkpt lat="43.39532" lon="1.18983">
        <ele>240</ele>
        <time>2024-07-30T07:30:48Z</time>
      </trkpt>
      <trkpt lat="43.39525" lon="1.18982">
        <ele>240</ele>
        <time>2024-07-30T07:30:49Z</time>
      </trkpt>
      <trkpt lat="43.39519" lon="1.18982">
        <ele>240</ele>
        <time>2024-07-30T07:30:50Z</time>
      </trkpt>
      <trkpt lat="43.39512" lon="1.18982">
        <ele>240</ele>
        <time>2024-07-30T07:30:51Z</time>
      </trkpt>
      <trkpt lat="43.39505" lon="1.18982">
        <ele>240</ele>
        <time>2024-07-30T07:30:52Z</time>
      </trkpt>
      <trkpt lat="43.39497" lon="1.18981">
        <ele>240.2</ele>
        <time>2024-07-30T07:30:53Z</time>
      </trkpt>
      <trkpt lat="43.39491" lon="1.18981">
        <ele>240.2</ele>
        <time>2024-07-30T07:30:54Z</time>
      </trkpt>
      <trkpt lat="43.39485" lon="1.18981">
        <ele>240.2</ele>
        <time>2024-07-30T07:30:55Z</time>
      </trkpt>
      <trkpt lat="43.39479" lon="1.18981">
        <ele>240.2</ele>
        <time>2024-07-30T07:30:56Z</time>
      </trkpt>
      <trkpt lat="43.39472" lon="1.18981">
        <ele>240.2</ele>
        <time>2024-07-30T07:30:57Z</time>
      </trkpt>
      <trkpt lat="43.39464" lon="1.1898">
        <ele>240.2</ele>
        <time>2024-07-30T07:30:58Z</time>
      </trkpt>
      <trkpt lat="43.39457" lon="1.18979">
        <ele>240.2</ele>
        <time>2024-07-30T07:30:59Z</time>
      </trkpt>
      <trkpt lat="43.39452" lon="1.18979">
        <ele>240.2</ele>
        <time>2024-07-30T07:31:00Z</time>
      </trkpt>
      <trkpt lat="43.39445" lon="1.18978">
        <ele>240.2</ele>
        <time>2024-07-30T07:31:01Z</time>
      </trkpt>
      <trkpt lat="43.39438" lon="1.18977">
        <ele>240.2</ele>
        <time>2024-07-30T07:31:02Z</time>
      </trkpt>
      <trkpt lat="43.39431" lon="1.18975">
        <ele>240.2</ele>
        <time>2024-07-30T07:31:03Z</time>
      </trkpt>
      <trkpt lat="43.39425" lon="1.18974">
        <ele>240.2</ele>
        <time>2024-07-30T07:31:04Z</time>
      </trkpt>
      <trkpt lat="43.39418" lon="1.18973">
        <ele>240.2</ele>
        <time>2024-07-30T07:31:05Z</time>
      </trkpt>
      <trkpt lat="43.3941" lon="1.18971">
        <ele>240.2</ele>
        <time>2024-07-30T07:31:06Z</time>
      </trkpt>
      <trkpt lat="43.39405" lon="1.1897">
        <ele>240.2</ele>
        <time>2024-07-30T07:31:07Z</time>
      </trkpt>
      <trkpt lat="43.39397" lon="1.18967">
        <ele>240.2</ele>
        <time>2024-07-30T07:31:08Z</time>
      </trkpt>
      <trkpt lat="43.39392" lon="1.18965">
        <ele>240.2</ele>
        <time>2024-07-30T07:31:09Z</time>
      </trkpt>
      <trkpt lat="43.39385" lon="1.18962">
        <ele>240.2</ele>
        <time>2024-07-30T07:31:10Z</time>
      </trkpt>
      <trkpt lat="43.39379" lon="1.18959">
        <ele>240.4</ele>
        <time>2024-07-30T07:31:11Z</time>
      </trkpt>
      <trkpt lat="43.39372" lon="1.18956">
        <ele>240.4</ele>
        <time>2024-07-30T07:31:12Z</time>
      </trkpt>
      <trkpt lat="43.39366" lon="1.18954">
        <ele>240.4</ele>
        <time>2024-07-30T07:31:13Z</time>
      </trkpt>
      <trkpt lat="43.39359" lon="1.18951">
        <ele>240.4</ele>
        <time>2024-07-30T07:31:14Z</time>
      </trkpt>
      <trkpt lat="43.39353" lon="1.18948">
        <ele>240.4</ele>
        <time>2024-07-30T07:31:15Z</time>
      </trkpt>
      <trkpt lat="43.39347" lon="1.18944">
        <ele>240.4</ele>
        <time>2024-07-30T07:31:16Z</time>
      </trkpt>
      <trkpt lat="43.39339" lon="1.18941">
        <ele>240.4</ele>
        <time>2024-07-30T07:31:17Z</time>
      </trkpt>
      <trkpt lat="43.39333" lon="1.18938">
        <ele>240.4</ele>
        <time>2024-07-30T07:31:18Z</time>
      </trkpt>
      <trkpt lat="43.39328" lon="1.18935">
        <ele>240.4</ele>
        <time>2024-07-30T07:31:19Z</time>
      </trkpt>
      <trkpt lat="43.39321" lon="1.18932">
        <ele>240.4</ele>
        <time>2024-07-30T07:31:20Z</time>
      </trkpt>
      <trkpt lat="43.39315" lon="1.18929">
        <ele>240.4</ele>
        <time>2024-07-30T07:31:21Z</time>
      </trkpt>
      <trkpt lat="43.39307" lon="1.18926">
        <ele>240.4</ele>
        <time>2024-07-30T07:31:22Z</time>
      </trkpt>
      <trkpt lat="43.39301" lon="1.18923">
        <ele>240.4</ele>
        <time>2024-07-30T07:31:23Z</time>
      </trkpt>
      <trkpt lat="43.39295" lon="1.1892">
        <ele>240.4</ele>
        <time>2024-07-30T07:31:24Z</time>
      </trkpt>
      <trkpt lat="43.39287" lon="1.18916">
        <ele>240.4</ele>
        <time>2024-07-30T07:31:25Z</time>
      </trkpt>
      <trkpt lat="43.3928" lon="1.18913">
        <ele>240.4</ele>
        <time>2024-07-30T07:31:26Z</time>
      </trkpt>
      <trkpt lat="43.39275" lon="1.1891">
        <ele>240.4</ele>
        <time>2024-07-30T07:31:27Z</time>
      </trkpt>
      <trkpt lat="43.39269" lon="1.18907">
        <ele>240.4</ele>
        <time>2024-07-30T07:31:28Z</time>
      </trkpt>
      <trkpt lat="43.39263" lon="1.18904">
        <ele>240.4</ele>
        <time>2024-07-30T07:31:29Z</time>
      </trkpt>
      <trkpt lat="43.39255" lon="1.189">
        <ele>240.4</ele>
        <time>2024-07-30T07:31:30Z</time>
      </trkpt>
      <trkpt lat="43.39249" lon="1.18897">
        <ele>240.4</ele>
        <time>2024-07-30T07:31:31Z</time>
      </trkpt>
      <trkpt lat="43.39244" lon="1.18894">
        <ele>240.4</ele>
        <time>2024-07-30T07:31:32Z</time>
      </trkpt>
      <trkpt lat="43.39237" lon="1.18891">
        <ele>240.4</ele>
        <time>2024-07-30T07:31:33Z</time>
      </trkpt>
      <trkpt lat="43.39231" lon="1.18888">
        <ele>240.6</ele>
        <time>2024-07-30T07:31:34Z</time>
      </trkpt>
      <trkpt lat="43.39223" lon="1.18884">
        <ele>240.6</ele>
        <time>2024-07-30T07:31:35Z</time>
      </trkpt>
      <trkpt lat="43.39217" lon="1.18881">
        <ele>240.6</ele>
        <time>2024-07-30T07:31:36Z</time>
      </trkpt>
      <trkpt lat="43.39211" lon="1.18879">
        <ele>240.6</ele>
        <time>2024-07-30T07:31:37Z</time>
      </trkpt>
      <trkpt lat="43.39205" lon="1.18876">
        <ele>240.6</ele>
        <time>2024-07-30T07:31:38Z</time>
      </trkpt>
      <trkpt lat="43.39198" lon="1.18872">
        <ele>240.6</ele>
        <time>2024-07-30T07:31:39Z</time>
      </trkpt>
      <trkpt lat="43.39191" lon="1.18869">
        <ele>240.6</ele>
        <time>2024-07-30T07:31:40Z</time>
      </trkpt>
      <trkpt lat="43.39185" lon="1.18866">
        <ele>240.6</ele>
        <time>2024-07-30T07:31:41Z</time>
      </trkpt>
      <trkpt lat="43.3918" lon="1.18864">
        <ele>240.8</ele>
        <time>2024-07-30T07:31:42Z</time>
      </trkpt>
      <trkpt lat="43.39173" lon="1.18861">
        <ele>240.8</ele>
        <time>2024-07-30T07:31:43Z</time>
      </trkpt>
      <trkpt lat="43.39167" lon="1.18857">
        <ele>240.8</ele>
        <time>2024-07-30T07:31:44Z</time>
      </trkpt>
      <trkpt lat="43.3916" lon="1.18854">
        <ele>240.8</ele>
        <time>2024-07-30T07:31:45Z</time>
      </trkpt>
      <trkpt lat="43.39154" lon="1.18851">
        <ele>240.8</ele>
        <time>2024-07-30T07:31:46Z</time>
      </trkpt>
      <trkpt lat="43.39147" lon="1.18848">
        <ele>240.8</ele>
        <time>2024-07-30T07:31:47Z</time>
      </trkpt>
      <trkpt lat="43.3914" lon="1.18845">
        <ele>240.8</ele>
        <time>2024-07-30T07:31:48Z</time>
      </trkpt>
      <trkpt lat="43.39134" lon="1.18842">
        <ele>240.8</ele>
        <time>2024-07-30T07:31:49Z</time>
      </trkpt>
      <trkpt lat="43.39126" lon="1.18838">
        <ele>240.8</ele>
        <time>2024-07-30T07:31:50Z</time>
      </trkpt>
      <trkpt lat="43.39121" lon="1.18835">
        <ele>240.8</ele>
        <time>2024-07-30T07:31:51Z</time>
      </trkpt>
      <trkpt lat="43.39114" lon="1.18832">
        <ele>240.8</ele>
        <time>2024-07-30T07:31:52Z</time>
      </trkpt>
      <trkpt lat="43.39108" lon="1.18829">
        <ele>240.8</ele>
        <time>2024-07-30T07:31:53Z</time>
      </trkpt>
      <trkpt lat="43.39101" lon="1.18826">
        <ele>240.6</ele>
        <time>2024-07-30T07:31:54Z</time>
      </trkpt>
      <trkpt lat="43.39095" lon="1.18822">
        <ele>240.6</ele>
        <time>2024-07-30T07:31:55Z</time>
      </trkpt>
      <trkpt lat="43.39088" lon="1.18819">
        <ele>240.6</ele>
        <time>2024-07-30T07:31:56Z</time>
      </trkpt>
      <trkpt lat="43.39082" lon="1.18815">
        <ele>240.6</ele>
        <time>2024-07-30T07:31:57Z</time>
      </trkpt>
      <trkpt lat="43.39075" lon="1.18812">
        <ele>240.6</ele>
        <time>2024-07-30T07:31:58Z</time>
      </trkpt>
      <trkpt lat="43.39068" lon="1.18809">
        <ele>240.4</ele>
        <time>2024-07-30T07:31:59Z</time>
      </trkpt>
      <trkpt lat="43.39062" lon="1.18806">
        <ele>240.4</ele>
        <time>2024-07-30T07:32:00Z</time>
      </trkpt>
      <trkpt lat="43.39055" lon="1.18803">
        <ele>240.4</ele>
        <time>2024-07-30T07:32:01Z</time>
      </trkpt>
      <trkpt lat="43.39048" lon="1.18799">
        <ele>240.4</ele>
        <time>2024-07-30T07:32:02Z</time>
      </trkpt>
      <trkpt lat="43.39042" lon="1.18796">
        <ele>240.2</ele>
        <time>2024-07-30T07:32:03Z</time>
      </trkpt>
      <trkpt lat="43.39035" lon="1.18792">
        <ele>240.2</ele>
        <time>2024-07-30T07:32:04Z</time>
      </trkpt>
      <trkpt lat="43.39026" lon="1.18788">
        <ele>240.2</ele>
        <time>2024-07-30T07:32:05Z</time>
      </trkpt>
      <trkpt lat="43.39021" lon="1.18784">
        <ele>240.2</ele>
        <time>2024-07-30T07:32:06Z</time>
      </trkpt>
      <trkpt lat="43.39014" lon="1.18781">
        <ele>240.2</ele>
        <time>2024-07-30T07:32:07Z</time>
      </trkpt>
      <trkpt lat="43.39007" lon="1.18777">
        <ele>240.2</ele>
        <time>2024-07-30T07:32:08Z</time>
      </trkpt>
      <trkpt lat="43.39001" lon="1.18773">
        <ele>240.2</ele>
        <time>2024-07-30T07:32:09Z</time>
      </trkpt>
      <trkpt lat="43.38993" lon="1.18768">
        <ele>240.2</ele>
        <time>2024-07-30T07:32:10Z</time>
      </trkpt>
      <trkpt lat="43.38988" lon="1.18765">
        <ele>240.2</ele>
        <time>2024-07-30T07:32:11Z</time>
      </trkpt>
      <trkpt lat="43.38982" lon="1.18762">
        <ele>240.2</ele>
        <time>2024-07-30T07:32:12Z</time>
      </trkpt>
      <trkpt lat="43.38976" lon="1.18758">
        <ele>240.2</ele>
        <time>2024-07-30T07:32:13Z</time>
      </trkpt>
      <trkpt lat="43.38969" lon="1.18754">
        <ele>240.2</ele>
        <time>2024-07-30T07:32:14Z</time>
      </trkpt>
      <trkpt lat="43.38963" lon="1.1875">
        <ele>240.2</ele>
        <time>2024-07-30T07:32:15Z</time>
      </trkpt>
      <trkpt lat="43.38956" lon="1.18746">
        <ele>240.2</ele>
        <time>2024-07-30T07:32:16Z</time>
      </trkpt>
      <trkpt lat="43.3895" lon="1.18743">
        <ele>240.2</ele>
        <time>2024-07-30T07:32:17Z</time>
      </trkpt>
      <trkpt lat="43.38943" lon="1.18739">
        <ele>240.2</ele>
        <time>2024-07-30T07:32:18Z</time>
      </trkpt>
      <trkpt lat="43.38936" lon="1.18736">
        <ele>240.2</ele>
        <time>2024-07-30T07:32:19Z</time>
      </trkpt>
      <trkpt lat="43.38931" lon="1.18733">
        <ele>240.2</ele>
        <time>2024-07-30T07:32:20Z</time>
      </trkpt>
      <trkpt lat="43.38925" lon="1.1873">
        <ele>240.2</ele>
        <time>2024-07-30T07:32:21Z</time>
      </trkpt>
      <trkpt lat="43.38918" lon="1.18727">
        <ele>240.4</ele>
        <time>2024-07-30T07:32:22Z</time>
      </trkpt>
      <trkpt lat="43.38912" lon="1.18724">
        <ele>240.4</ele>
        <time>2024-07-30T07:32:23Z</time>
      </trkpt>
      <trkpt lat="43.38904" lon="1.18721">
        <ele>240.4</ele>
        <time>2024-07-30T07:32:24Z</time>
      </trkpt>
      <trkpt lat="43.38899" lon="1.18719">
        <ele>240.6</ele>
        <time>2024-07-30T07:32:25Z</time>
      </trkpt>
      <trkpt lat="43.38892" lon="1.18716">
        <ele>240.6</ele>
        <time>2024-07-30T07:32:26Z</time>
      </trkpt>
      <trkpt lat="43.38885" lon="1.18714">
        <ele>240.8</ele>
        <time>2024-07-30T07:32:27Z</time>
      </trkpt>
      <trkpt lat="43.38879" lon="1.18712">
        <ele>240.8</ele>
        <time>2024-07-30T07:32:28Z</time>
      </trkpt>
      <trkpt lat="43.38873" lon="1.1871">
        <ele>240.8</ele>
        <time>2024-07-30T07:32:29Z</time>
      </trkpt>
      <trkpt lat="43.38866" lon="1.18708">
        <ele>241</ele>
        <time>2024-07-30T07:32:30Z</time>
      </trkpt>
      <trkpt lat="43.38859" lon="1.18707">
        <ele>241</ele>
        <time>2024-07-30T07:32:31Z</time>
      </trkpt>
      <trkpt lat="43.38852" lon="1.18705">
        <ele>241</ele>
        <time>2024-07-30T07:32:32Z</time>
      </trkpt>
      <trkpt lat="43.38844" lon="1.18703">
        <ele>241</ele>
        <time>2024-07-30T07:32:33Z</time>
      </trkpt>
      <trkpt lat="43.38839" lon="1.18702">
        <ele>241</ele>
        <time>2024-07-30T07:32:34Z</time>
      </trkpt>
      <trkpt lat="43.38831" lon="1.18701">
        <ele>241</ele>
        <time>2024-07-30T07:32:35Z</time>
      </trkpt>
      <trkpt lat="43.38824" lon="1.187">
        <ele>241</ele>
        <time>2024-07-30T07:32:36Z</time>
      </trkpt>
      <trkpt lat="43.38817" lon="1.18698">
        <ele>241</ele>
        <time>2024-07-30T07:32:37Z</time>
      </trkpt>
      <trkpt lat="43.38809" lon="1.18697">
        <ele>241</ele>
        <time>2024-07-30T07:32:38Z</time>
      </trkpt>
      <trkpt lat="43.38803" lon="1.18696">
        <ele>241</ele>
        <time>2024-07-30T07:32:39Z</time>
      </trkpt>
      <trkpt lat="43.38796" lon="1.18694">
        <ele>241</ele>
        <time>2024-07-30T07:32:40Z</time>
      </trkpt>
      <trkpt lat="43.38787" lon="1.18693">
        <ele>241.2</ele>
        <time>2024-07-30T07:32:41Z</time>
      </trkpt>
      <trkpt lat="43.38782" lon="1.18692">
        <ele>241</ele>
        <time>2024-07-30T07:32:42Z</time>
      </trkpt>
      <trkpt lat="43.38775" lon="1.1869">
        <ele>241</ele>
        <time>2024-07-30T07:32:43Z</time>
      </trkpt>
      <trkpt lat="43.38767" lon="1.18689">
        <ele>241</ele>
        <time>2024-07-30T07:32:44Z</time>
      </trkpt>
      <trkpt lat="43.3876" lon="1.18688">
        <ele>241</ele>
        <time>2024-07-30T07:32:45Z</time>
      </trkpt>
      <trkpt lat="43.38752" lon="1.18685">
        <ele>241</ele>
        <time>2024-07-30T07:32:46Z</time>
      </trkpt>
      <trkpt lat="43.38744" lon="1.18684">
        <ele>241.2</ele>
        <time>2024-07-30T07:32:47Z</time>
      </trkpt>
      <trkpt lat="43.38738" lon="1.18682">
        <ele>241.2</ele>
        <time>2024-07-30T07:32:48Z</time>
      </trkpt>
      <trkpt lat="43.38731" lon="1.18681">
        <ele>241.2</ele>
        <time>2024-07-30T07:32:49Z</time>
      </trkpt>
      <trkpt lat="43.38724" lon="1.18679">
        <ele>241</ele>
        <time>2024-07-30T07:32:50Z</time>
      </trkpt>
      <trkpt lat="43.38717" lon="1.18677">
        <ele>241.2</ele>
        <time>2024-07-30T07:32:51Z</time>
      </trkpt>
      <trkpt lat="43.38709" lon="1.18674">
        <ele>241.2</ele>
        <time>2024-07-30T07:32:52Z</time>
      </trkpt>
      <trkpt lat="43.38703" lon="1.18673">
        <ele>241.2</ele>
        <time>2024-07-30T07:32:53Z</time>
      </trkpt>
      <trkpt lat="43.38697" lon="1.18671">
        <ele>241</ele>
        <time>2024-07-30T07:32:54Z</time>
      </trkpt>
      <trkpt lat="43.38688" lon="1.18668">
        <ele>241</ele>
        <time>2024-07-30T07:32:55Z</time>
      </trkpt>
      <trkpt lat="43.38683" lon="1.18667">
        <ele>241</ele>
        <time>2024-07-30T07:32:56Z</time>
      </trkpt>
      <trkpt lat="43.38676" lon="1.18665">
        <ele>241</ele>
        <time>2024-07-30T07:32:57Z</time>
      </trkpt>
      <trkpt lat="43.38669" lon="1.18663">
        <ele>241</ele>
        <time>2024-07-30T07:32:58Z</time>
      </trkpt>
      <trkpt lat="43.38662" lon="1.1866">
        <ele>241</ele>
        <time>2024-07-30T07:32:59Z</time>
      </trkpt>
      <trkpt lat="43.38654" lon="1.18657">
        <ele>241</ele>
        <time>2024-07-30T07:33:00Z</time>
      </trkpt>
      <trkpt lat="43.38648" lon="1.18655">
        <ele>241</ele>
        <time>2024-07-30T07:33:01Z</time>
      </trkpt>
      <trkpt lat="43.38642" lon="1.18652">
        <ele>241</ele>
        <time>2024-07-30T07:33:02Z</time>
      </trkpt>
      <trkpt lat="43.38635" lon="1.18649">
        <ele>241</ele>
        <time>2024-07-30T07:33:03Z</time>
      </trkpt>
      <trkpt lat="43.38628" lon="1.18645">
        <ele>241</ele>
        <time>2024-07-30T07:33:04Z</time>
      </trkpt>
      <trkpt lat="43.38622" lon="1.18641">
        <ele>241</ele>
        <time>2024-07-30T07:33:05Z</time>
      </trkpt>
      <trkpt lat="43.38614" lon="1.18636">
        <ele>241</ele>
        <time>2024-07-30T07:33:06Z</time>
      </trkpt>
      <trkpt lat="43.38609" lon="1.18632">
        <ele>241</ele>
        <time>2024-07-30T07:33:07Z</time>
      </trkpt>
      <trkpt lat="43.38603" lon="1.18627">
        <ele>240.8</ele>
        <time>2024-07-30T07:33:08Z</time>
      </trkpt>
      <trkpt lat="43.38595" lon="1.18621">
        <ele>240.8</ele>
        <time>2024-07-30T07:33:09Z</time>
      </trkpt>
      <trkpt lat="43.38591" lon="1.18617">
        <ele>240.8</ele>
        <time>2024-07-30T07:33:10Z</time>
      </trkpt>
      <trkpt lat="43.38585" lon="1.18612">
        <ele>240.6</ele>
        <time>2024-07-30T07:33:11Z</time>
      </trkpt>
      <trkpt lat="43.38579" lon="1.18607">
        <ele>240.6</ele>
        <time>2024-07-30T07:33:12Z</time>
      </trkpt>
      <trkpt lat="43.38573" lon="1.18602">
        <ele>240.6</ele>
        <time>2024-07-30T07:33:13Z</time>
      </trkpt>
      <trkpt lat="43.38567" lon="1.18596">
        <ele>240.6</ele>
        <time>2024-07-30T07:33:14Z</time>
      </trkpt>
      <trkpt lat="43.3856" lon="1.18589">
        <ele>240.6</ele>
        <time>2024-07-30T07:33:15Z</time>
      </trkpt>
      <trkpt lat="43.38555" lon="1.18584">
        <ele>240.6</ele>
        <time>2024-07-30T07:33:16Z</time>
      </trkpt>
      <trkpt lat="43.38549" lon="1.18578">
        <ele>240.6</ele>
        <time>2024-07-30T07:33:17Z</time>
      </trkpt>
      <trkpt lat="43.38544" lon="1.18572">
        <ele>240.6</ele>
        <time>2024-07-30T07:33:18Z</time>
      </trkpt>
      <trkpt lat="43.38538" lon="1.18566">
        <ele>240.6</ele>
        <time>2024-07-30T07:33:19Z</time>
      </trkpt>
      <trkpt lat="43.38531" lon="1.18559">
        <ele>240.6</ele>
        <time>2024-07-30T07:33:20Z</time>
      </trkpt>
      <trkpt lat="43.38526" lon="1.18554">
        <ele>240.6</ele>
        <time>2024-07-30T07:33:21Z</time>
      </trkpt>
      <trkpt lat="43.38521" lon="1.18547">
        <ele>240.6</ele>
        <time>2024-07-30T07:33:22Z</time>
      </trkpt>
      <trkpt lat="43.38514" lon="1.1854">
        <ele>240.6</ele>
        <time>2024-07-30T07:33:23Z</time>
      </trkpt>
      <trkpt lat="43.3851" lon="1.18534">
        <ele>240.6</ele>
        <time>2024-07-30T07:33:24Z</time>
      </trkpt>
      <trkpt lat="43.38504" lon="1.18528">
        <ele>240.6</ele>
        <time>2024-07-30T07:33:25Z</time>
      </trkpt>
      <trkpt lat="43.38499" lon="1.18521">
        <ele>240.6</ele>
        <time>2024-07-30T07:33:26Z</time>
      </trkpt>
      <trkpt lat="43.38493" lon="1.18515">
        <ele>240.6</ele>
        <time>2024-07-30T07:33:27Z</time>
      </trkpt>
      <trkpt lat="43.38486" lon="1.18507">
        <ele>240.6</ele>
        <time>2024-07-30T07:33:28Z</time>
      </trkpt>
      <trkpt lat="43.38481" lon="1.185">
        <ele>240.6</ele>
        <time>2024-07-30T07:33:29Z</time>
      </trkpt>
      <trkpt lat="43.38476" lon="1.18495">
        <ele>240.6</ele>
        <time>2024-07-30T07:33:30Z</time>
      </trkpt>
      <trkpt lat="43.38471" lon="1.18489">
        <ele>240.6</ele>
        <time>2024-07-30T07:33:31Z</time>
      </trkpt>
      <trkpt lat="43.38466" lon="1.18482">
        <ele>240.4</ele>
        <time>2024-07-30T07:33:32Z</time>
      </trkpt>
      <trkpt lat="43.3846" lon="1.18476">
        <ele>240.2</ele>
        <time>2024-07-30T07:33:33Z</time>
      </trkpt>
      <trkpt lat="43.38454" lon="1.18469">
        <ele>240.2</ele>
        <time>2024-07-30T07:33:34Z</time>
      </trkpt>
      <trkpt lat="43.3845" lon="1.18464">
        <ele>240.2</ele>
        <time>2024-07-30T07:33:35Z</time>
      </trkpt>
      <trkpt lat="43.38445" lon="1.18459">
        <ele>240.2</ele>
        <time>2024-07-30T07:33:36Z</time>
      </trkpt>
      <trkpt lat="43.3844" lon="1.18453">
        <ele>240.2</ele>
        <time>2024-07-30T07:33:37Z</time>
      </trkpt>
      <trkpt lat="43.38435" lon="1.18447">
        <ele>240.2</ele>
        <time>2024-07-30T07:33:38Z</time>
      </trkpt>
      <trkpt lat="43.3843" lon="1.18442">
        <ele>240.2</ele>
        <time>2024-07-30T07:33:39Z</time>
      </trkpt>
      <trkpt lat="43.38426" lon="1.18436">
        <ele>240.2</ele>
        <time>2024-07-30T07:33:40Z</time>
      </trkpt>
      <trkpt lat="43.38421" lon="1.18431">
        <ele>240.2</ele>
        <time>2024-07-30T07:33:41Z</time>
      </trkpt>
      <trkpt lat="43.38416" lon="1.18425">
        <ele>240.2</ele>
        <time>2024-07-30T07:33:42Z</time>
      </trkpt>
      <trkpt lat="43.38411" lon="1.1842">
        <ele>240.4</ele>
        <time>2024-07-30T07:33:43Z</time>
      </trkpt>
      <trkpt lat="43.38406" lon="1.18413">
        <ele>240.4</ele>
        <time>2024-07-30T07:33:44Z</time>
      </trkpt>
      <trkpt lat="43.38402" lon="1.18409">
        <ele>240.6</ele>
        <time>2024-07-30T07:33:45Z</time>
      </trkpt>
      <trkpt lat="43.38398" lon="1.18403">
        <ele>240.6</ele>
        <time>2024-07-30T07:33:46Z</time>
      </trkpt>
      <trkpt lat="43.38393" lon="1.18398">
        <ele>240.6</ele>
        <time>2024-07-30T07:33:47Z</time>
      </trkpt>
      <trkpt lat="43.38388" lon="1.18392">
        <ele>240.6</ele>
        <time>2024-07-30T07:33:48Z</time>
      </trkpt>
      <trkpt lat="43.38385" lon="1.18388">
        <ele>240.6</ele>
        <time>2024-07-30T07:33:49Z</time>
      </trkpt>
      <trkpt lat="43.38381" lon="1.18383">
        <ele>240.6</ele>
        <time>2024-07-30T07:33:50Z</time>
      </trkpt>
      <trkpt lat="43.38376" lon="1.18377">
        <ele>240.6</ele>
        <time>2024-07-30T07:33:51Z</time>
      </trkpt>
      <trkpt lat="43.38373" lon="1.18373">
        <ele>240.6</ele>
        <time>2024-07-30T07:33:52Z</time>
      </trkpt>
      <trkpt lat="43.38369" lon="1.18368">
        <ele>240.6</ele>
        <time>2024-07-30T07:33:53Z</time>
      </trkpt>
      <trkpt lat="43.38365" lon="1.18363">
        <ele>240.6</ele>
        <time>2024-07-30T07:33:54Z</time>
      </trkpt>
      <trkpt lat="43.38361" lon="1.18358">
        <ele>240.6</ele>
        <time>2024-07-30T07:33:55Z</time>
      </trkpt>
      <trkpt lat="43.38357" lon="1.18353">
        <ele>240.6</ele>
        <time>2024-07-30T07:33:56Z</time>
      </trkpt>
      <trkpt lat="43.38351" lon="1.18347">
        <ele>240.8</ele>
        <time>2024-07-30T07:33:57Z</time>
      </trkpt>
      <trkpt lat="43.38348" lon="1.18342">
        <ele>240.8</ele>
        <time>2024-07-30T07:33:58Z</time>
      </trkpt>
      <trkpt lat="43.38344" lon="1.18337">
        <ele>241</ele>
        <time>2024-07-30T07:33:59Z</time>
      </trkpt>
      <trkpt lat="43.3834" lon="1.18332">
        <ele>241</ele>
        <time>2024-07-30T07:34:00Z</time>
      </trkpt>
      <trkpt lat="43.38335" lon="1.18327">
        <ele>241</ele>
        <time>2024-07-30T07:34:01Z</time>
      </trkpt>
      <trkpt lat="43.3833" lon="1.18322">
        <ele>241</ele>
        <time>2024-07-30T07:34:02Z</time>
      </trkpt>
      <trkpt lat="43.38326" lon="1.18317">
        <ele>241.2</ele>
        <time>2024-07-30T07:34:03Z</time>
      </trkpt>
      <trkpt lat="43.38321" lon="1.18312">
        <ele>241.2</ele>
        <time>2024-07-30T07:34:04Z</time>
      </trkpt>
      <trkpt lat="43.38316" lon="1.18305">
        <ele>241.2</ele>
        <time>2024-07-30T07:34:05Z</time>
      </trkpt>
      <trkpt lat="43.38312" lon="1.18301">
        <ele>241.2</ele>
        <time>2024-07-30T07:34:06Z</time>
      </trkpt>
      <trkpt lat="43.38307" lon="1.18295">
        <ele>241.2</ele>
        <time>2024-07-30T07:34:07Z</time>
      </trkpt>
      <trkpt lat="43.38303" lon="1.18289">
        <ele>241.2</ele>
        <time>2024-07-30T07:34:08Z</time>
      </trkpt>
      <trkpt lat="43.38298" lon="1.18283">
        <ele>241.2</ele>
        <time>2024-07-30T07:34:09Z</time>
      </trkpt>
      <trkpt lat="43.38294" lon="1.18277">
        <ele>241.2</ele>
        <time>2024-07-30T07:34:10Z</time>
      </trkpt>
      <trkpt lat="43.38289" lon="1.18272">
        <ele>241.2</ele>
        <time>2024-07-30T07:34:11Z</time>
      </trkpt>
      <trkpt lat="43.38284" lon="1.18264">
        <ele>241.2</ele>
        <time>2024-07-30T07:34:12Z</time>
      </trkpt>
      <trkpt lat="43.3828" lon="1.1826">
        <ele>241.2</ele>
        <time>2024-07-30T07:34:13Z</time>
      </trkpt>
      <trkpt lat="43.38276" lon="1.18254">
        <ele>241.2</ele>
        <time>2024-07-30T07:34:14Z</time>
      </trkpt>
      <trkpt lat="43.38272" lon="1.18247">
        <ele>241.2</ele>
        <time>2024-07-30T07:34:15Z</time>
      </trkpt>
      <trkpt lat="43.38266" lon="1.18239">
        <ele>241.2</ele>
        <time>2024-07-30T07:34:16Z</time>
      </trkpt>
      <trkpt lat="43.38263" lon="1.18233">
        <ele>241.2</ele>
        <time>2024-07-30T07:34:17Z</time>
      </trkpt>
      <trkpt lat="43.38259" lon="1.18226">
        <ele>241.2</ele>
        <time>2024-07-30T07:34:18Z</time>
      </trkpt>
      <trkpt lat="43.38254" lon="1.18217">
        <ele>241.2</ele>
        <time>2024-07-30T07:34:19Z</time>
      </trkpt>
      <trkpt lat="43.38252" lon="1.18211">
        <ele>241.2</ele>
        <time>2024-07-30T07:34:20Z</time>
      </trkpt>
      <trkpt lat="43.38249" lon="1.18204">
        <ele>241.2</ele>
        <time>2024-07-30T07:34:21Z</time>
      </trkpt>
      <trkpt lat="43.38245" lon="1.18197">
        <ele>241.2</ele>
        <time>2024-07-30T07:34:22Z</time>
      </trkpt>
      <trkpt lat="43.38242" lon="1.18189">
        <ele>241.2</ele>
        <time>2024-07-30T07:34:23Z</time>
      </trkpt>
      <trkpt lat="43.38239" lon="1.18181">
        <ele>241.2</ele>
        <time>2024-07-30T07:34:24Z</time>
      </trkpt>
      <trkpt lat="43.38236" lon="1.18174">
        <ele>241.2</ele>
        <time>2024-07-30T07:34:25Z</time>
      </trkpt>
      <trkpt lat="43.38233" lon="1.18167">
        <ele>241.2</ele>
        <time>2024-07-30T07:34:26Z</time>
      </trkpt>
      <trkpt lat="43.3823" lon="1.18161">
        <ele>241.2</ele>
        <time>2024-07-30T07:34:27Z</time>
      </trkpt>
      <trkpt lat="43.38228" lon="1.18153">
        <ele>241.2</ele>
        <time>2024-07-30T07:34:28Z</time>
      </trkpt>
      <trkpt lat="43.38225" lon="1.18146">
        <ele>241.2</ele>
        <time>2024-07-30T07:34:29Z</time>
      </trkpt>
      <trkpt lat="43.38221" lon="1.18137">
        <ele>241.2</ele>
        <time>2024-07-30T07:34:30Z</time>
      </trkpt>
      <trkpt lat="43.38219" lon="1.18131">
        <ele>241.2</ele>
        <time>2024-07-30T07:34:31Z</time>
      </trkpt>
      <trkpt lat="43.38216" lon="1.18123">
        <ele>241.2</ele>
        <time>2024-07-30T07:34:32Z</time>
      </trkpt>
      <trkpt lat="43.38213" lon="1.18114">
        <ele>241.2</ele>
        <time>2024-07-30T07:34:33Z</time>
      </trkpt>
      <trkpt lat="43.3821" lon="1.18108">
        <ele>241.2</ele>
        <time>2024-07-30T07:34:34Z</time>
      </trkpt>
      <trkpt lat="43.38207" lon="1.18098">
        <ele>241.2</ele>
        <time>2024-07-30T07:34:35Z</time>
      </trkpt>
      <trkpt lat="43.38204" lon="1.18092">
        <ele>241.2</ele>
        <time>2024-07-30T07:34:36Z</time>
      </trkpt>
      <trkpt lat="43.382" lon="1.18085">
        <ele>241</ele>
        <time>2024-07-30T07:34:37Z</time>
      </trkpt>
      <trkpt lat="43.38196" lon="1.18078">
        <ele>241</ele>
        <time>2024-07-30T07:34:38Z</time>
      </trkpt>
      <trkpt lat="43.38192" lon="1.18071">
        <ele>241</ele>
        <time>2024-07-30T07:34:39Z</time>
      </trkpt>
      <trkpt lat="43.38186" lon="1.18064">
        <ele>241</ele>
        <time>2024-07-30T07:34:40Z</time>
      </trkpt>
      <trkpt lat="43.38182" lon="1.18059">
        <ele>240.8</ele>
        <time>2024-07-30T07:34:41Z</time>
      </trkpt>
      <trkpt lat="43.38177" lon="1.18054">
        <ele>240.8</ele>
        <time>2024-07-30T07:34:42Z</time>
      </trkpt>
      <trkpt lat="43.38171" lon="1.1805">
        <ele>240.8</ele>
        <time>2024-07-30T07:34:43Z</time>
      </trkpt>
      <trkpt lat="43.38165" lon="1.18046">
        <ele>240.6</ele>
        <time>2024-07-30T07:34:44Z</time>
      </trkpt>
      <trkpt lat="43.38159" lon="1.18041">
        <ele>240.6</ele>
        <time>2024-07-30T07:34:45Z</time>
      </trkpt>
      <trkpt lat="43.38153" lon="1.18037">
        <ele>240.6</ele>
        <time>2024-07-30T07:34:46Z</time>
      </trkpt>
      <trkpt lat="43.38148" lon="1.18033">
        <ele>240.6</ele>
        <time>2024-07-30T07:34:47Z</time>
      </trkpt>
      <trkpt lat="43.38142" lon="1.18029">
        <ele>240.6</ele>
        <time>2024-07-30T07:34:48Z</time>
      </trkpt>
      <trkpt lat="43.38136" lon="1.18025">
        <ele>240.6</ele>
        <time>2024-07-30T07:34:49Z</time>
      </trkpt>
      <trkpt lat="43.3813" lon="1.1802">
        <ele>240.6</ele>
        <time>2024-07-30T07:34:50Z</time>
      </trkpt>
      <trkpt lat="43.38125" lon="1.18017">
        <ele>240.6</ele>
        <time>2024-07-30T07:34:51Z</time>
      </trkpt>
      <trkpt lat="43.3812" lon="1.18013">
        <ele>240.6</ele>
        <time>2024-07-30T07:34:52Z</time>
      </trkpt>
      <trkpt lat="43.38114" lon="1.18009">
        <ele>240.6</ele>
        <time>2024-07-30T07:34:53Z</time>
      </trkpt>
      <trkpt lat="43.38108" lon="1.18004">
        <ele>240.6</ele>
        <time>2024-07-30T07:34:54Z</time>
      </trkpt>
      <trkpt lat="43.38103" lon="1.18">
        <ele>240.6</ele>
        <time>2024-07-30T07:34:55Z</time>
      </trkpt>
      <trkpt lat="43.38098" lon="1.17996">
        <ele>240.6</ele>
        <time>2024-07-30T07:34:56Z</time>
      </trkpt>
      <trkpt lat="43.38091" lon="1.1799">
        <ele>240.8</ele>
        <time>2024-07-30T07:34:57Z</time>
      </trkpt>
      <trkpt lat="43.38085" lon="1.17985">
        <ele>240.8</ele>
        <time>2024-07-30T07:34:58Z</time>
      </trkpt>
      <trkpt lat="43.38081" lon="1.17982">
        <ele>240.8</ele>
        <time>2024-07-30T07:34:59Z</time>
      </trkpt>
      <trkpt lat="43.38076" lon="1.17977">
        <ele>240.8</ele>
        <time>2024-07-30T07:35:00Z</time>
      </trkpt>
      <trkpt lat="43.3807" lon="1.17972">
        <ele>241</ele>
        <time>2024-07-30T07:35:01Z</time>
      </trkpt>
      <trkpt lat="43.38064" lon="1.17965">
        <ele>241</ele>
        <time>2024-07-30T07:35:02Z</time>
      </trkpt>
      <trkpt lat="43.3806" lon="1.17961">
        <ele>241</ele>
        <time>2024-07-30T07:35:03Z</time>
      </trkpt>
      <trkpt lat="43.38055" lon="1.17955">
        <ele>241</ele>
        <time>2024-07-30T07:35:04Z</time>
      </trkpt>
      <trkpt lat="43.3805" lon="1.17949">
        <ele>241</ele>
        <time>2024-07-30T07:35:05Z</time>
      </trkpt>
      <trkpt lat="43.38046" lon="1.17944">
        <ele>241</ele>
        <time>2024-07-30T07:35:06Z</time>
      </trkpt>
      <trkpt lat="43.38041" lon="1.17938">
        <ele>241</ele>
        <time>2024-07-30T07:35:07Z</time>
      </trkpt>
      <trkpt lat="43.38035" lon="1.17931">
        <ele>241</ele>
        <time>2024-07-30T07:35:08Z</time>
      </trkpt>
      <trkpt lat="43.38031" lon="1.17927">
        <ele>241.2</ele>
        <time>2024-07-30T07:35:09Z</time>
      </trkpt>
      <trkpt lat="43.38027" lon="1.17921">
        <ele>241.2</ele>
        <time>2024-07-30T07:35:10Z</time>
      </trkpt>
      <trkpt lat="43.38021" lon="1.17914">
        <ele>241.2</ele>
        <time>2024-07-30T07:35:11Z</time>
      </trkpt>
      <trkpt lat="43.38017" lon="1.1791">
        <ele>241.4</ele>
        <time>2024-07-30T07:35:12Z</time>
      </trkpt>
      <trkpt lat="43.38013" lon="1.17904">
        <ele>241.4</ele>
        <time>2024-07-30T07:35:13Z</time>
      </trkpt>
      <trkpt lat="43.38008" lon="1.17899">
        <ele>241.4</ele>
        <time>2024-07-30T07:35:14Z</time>
      </trkpt>
      <trkpt lat="43.38003" lon="1.17893">
        <ele>241.4</ele>
        <time>2024-07-30T07:35:15Z</time>
      </trkpt>
      <trkpt lat="43.37998" lon="1.17887">
        <ele>241.4</ele>
        <time>2024-07-30T07:35:16Z</time>
      </trkpt>
      <trkpt lat="43.37994" lon="1.17882">
        <ele>241.4</ele>
        <time>2024-07-30T07:35:17Z</time>
      </trkpt>
      <trkpt lat="43.37989" lon="1.17875">
        <ele>241.4</ele>
        <time>2024-07-30T07:35:18Z</time>
      </trkpt>
      <trkpt lat="43.37985" lon="1.17871">
        <ele>241.6</ele>
        <time>2024-07-30T07:35:19Z</time>
      </trkpt>
      <trkpt lat="43.37981" lon="1.17865">
        <ele>241.6</ele>
        <time>2024-07-30T07:35:20Z</time>
      </trkpt>
      <trkpt lat="43.37977" lon="1.17859">
        <ele>241.6</ele>
        <time>2024-07-30T07:35:21Z</time>
      </trkpt>
      <trkpt lat="43.37973" lon="1.17854">
        <ele>241.6</ele>
        <time>2024-07-30T07:35:22Z</time>
      </trkpt>
      <trkpt lat="43.37969" lon="1.17849">
        <ele>241.6</ele>
        <time>2024-07-30T07:35:23Z</time>
      </trkpt>
      <trkpt lat="43.37965" lon="1.17843">
        <ele>241.6</ele>
        <time>2024-07-30T07:35:24Z</time>
      </trkpt>
      <trkpt lat="43.37961" lon="1.17838">
        <ele>241.6</ele>
        <time>2024-07-30T07:35:25Z</time>
      </trkpt>
      <trkpt lat="43.37957" lon="1.17833">
        <ele>241.8</ele>
        <time>2024-07-30T07:35:26Z</time>
      </trkpt>
      <trkpt lat="43.37954" lon="1.17828">
        <ele>241.8</ele>
        <time>2024-07-30T07:35:27Z</time>
      </trkpt>
      <trkpt lat="43.3795" lon="1.17824">
        <ele>241.8</ele>
        <time>2024-07-30T07:35:28Z</time>
      </trkpt>
      <trkpt lat="43.37946" lon="1.17819">
        <ele>241.8</ele>
        <time>2024-07-30T07:35:29Z</time>
      </trkpt>
      <trkpt lat="43.37942" lon="1.17815">
        <ele>241.8</ele>
        <time>2024-07-30T07:35:30Z</time>
      </trkpt>
      <trkpt lat="43.37939" lon="1.17811">
        <ele>241.8</ele>
        <time>2024-07-30T07:35:31Z</time>
      </trkpt>
      <trkpt lat="43.37936" lon="1.17808">
        <ele>241.8</ele>
        <time>2024-07-30T07:35:32Z</time>
      </trkpt>
      <trkpt lat="43.37933" lon="1.17805">
        <ele>241.8</ele>
        <time>2024-07-30T07:35:33Z</time>
      </trkpt>
      <trkpt lat="43.3793" lon="1.17802">
        <ele>241.8</ele>
        <time>2024-07-30T07:35:34Z</time>
      </trkpt>
      <trkpt lat="43.37928" lon="1.17799">
        <ele>241.8</ele>
        <time>2024-07-30T07:35:35Z</time>
      </trkpt>
      <trkpt lat="43.37925" lon="1.17797">
        <ele>241.8</ele>
        <time>2024-07-30T07:35:36Z</time>
      </trkpt>
      <trkpt lat="43.37923" lon="1.17795">
        <ele>241.8</ele>
        <time>2024-07-30T07:35:37Z</time>
      </trkpt>
      <trkpt lat="43.37922" lon="1.17794">
        <ele>241.8</ele>
        <time>2024-07-30T07:35:38Z</time>
      </trkpt>
      <trkpt lat="43.37921" lon="1.17793">
        <ele>241.8</ele>
        <time>2024-07-30T07:35:39Z</time>
      </trkpt>
      <trkpt lat="43.3792" lon="1.17792">
        <ele>241.8</ele>
        <time>2024-07-30T07:35:40Z</time>
      </trkpt>
      <trkpt lat="43.37919" lon="1.17791">
        <ele>241.8</ele>
        <time>2024-07-30T07:35:41Z</time>
      </trkpt>
      <trkpt lat="43.37918" lon="1.1779">
        <ele>241.8</ele>
        <time>2024-07-30T07:35:42Z</time>
      </trkpt>
      <trkpt lat="43.37917" lon="1.17788">
        <ele>242</ele>
        <time>2024-07-30T07:35:43Z</time>
      </trkpt>
      <trkpt lat="43.37915" lon="1.17786">
        <ele>242</ele>
        <time>2024-07-30T07:35:44Z</time>
      </trkpt>
      <trkpt lat="43.37913" lon="1.17783">
        <ele>242</ele>
        <time>2024-07-30T07:35:45Z</time>
      </trkpt>
      <trkpt lat="43.37911" lon="1.1778">
        <ele>242</ele>
        <time>2024-07-30T07:35:46Z</time>
      </trkpt>
      <trkpt lat="43.37908" lon="1.17777">
        <ele>242</ele>
        <time>2024-07-30T07:35:47Z</time>
      </trkpt>
      <trkpt lat="43.37905" lon="1.17774">
        <ele>242</ele>
        <time>2024-07-30T07:35:48Z</time>
      </trkpt>
      <trkpt lat="43.37902" lon="1.17771">
        <ele>242</ele>
        <time>2024-07-30T07:35:49Z</time>
      </trkpt>
      <trkpt lat="43.37899" lon="1.17767">
        <ele>242</ele>
        <time>2024-07-30T07:35:50Z</time>
      </trkpt>
      <trkpt lat="43.37894" lon="1.17762">
        <ele>242</ele>
        <time>2024-07-30T07:35:51Z</time>
      </trkpt>
      <trkpt lat="43.37891" lon="1.17758">
        <ele>241.8</ele>
        <time>2024-07-30T07:35:52Z</time>
      </trkpt>
      <trkpt lat="43.37887" lon="1.17753">
        <ele>241.8</ele>
        <time>2024-07-30T07:35:53Z</time>
      </trkpt>
      <trkpt lat="43.37882" lon="1.17746">
        <ele>241.6</ele>
        <time>2024-07-30T07:35:54Z</time>
      </trkpt>
      <trkpt lat="43.37879" lon="1.17742">
        <ele>241.6</ele>
        <time>2024-07-30T07:35:55Z</time>
      </trkpt>
      <trkpt lat="43.37874" lon="1.17736">
        <ele>241.6</ele>
        <time>2024-07-30T07:35:56Z</time>
      </trkpt>
      <trkpt lat="43.37871" lon="1.17733">
        <ele>241.6</ele>
        <time>2024-07-30T07:35:57Z</time>
      </trkpt>
      <trkpt lat="43.37867" lon="1.17728">
        <ele>241.6</ele>
        <time>2024-07-30T07:35:58Z</time>
      </trkpt>
      <trkpt lat="43.37863" lon="1.17722">
        <ele>241.6</ele>
        <time>2024-07-30T07:35:59Z</time>
      </trkpt>
      <trkpt lat="43.37859" lon="1.17717">
        <ele>241.6</ele>
        <time>2024-07-30T07:36:00Z</time>
      </trkpt>
      <trkpt lat="43.37855" lon="1.17711">
        <ele>241.6</ele>
        <time>2024-07-30T07:36:01Z</time>
      </trkpt>
      <trkpt lat="43.3785" lon="1.17705">
        <ele>241.6</ele>
        <time>2024-07-30T07:36:02Z</time>
      </trkpt>
      <trkpt lat="43.37846" lon="1.17699">
        <ele>241.6</ele>
        <time>2024-07-30T07:36:03Z</time>
      </trkpt>
      <trkpt lat="43.37842" lon="1.17693">
        <ele>241.6</ele>
        <time>2024-07-30T07:36:04Z</time>
      </trkpt>
      <trkpt lat="43.37836" lon="1.17686">
        <ele>241.6</ele>
        <time>2024-07-30T07:36:05Z</time>
      </trkpt>
      <trkpt lat="43.37832" lon="1.17681">
        <ele>241.6</ele>
        <time>2024-07-30T07:36:06Z</time>
      </trkpt>
      <trkpt lat="43.37828" lon="1.17675">
        <ele>241.6</ele>
        <time>2024-07-30T07:36:07Z</time>
      </trkpt>
      <trkpt lat="43.37823" lon="1.17669">
        <ele>241.6</ele>
        <time>2024-07-30T07:36:08Z</time>
      </trkpt>
      <trkpt lat="43.37819" lon="1.17662">
        <ele>241.6</ele>
        <time>2024-07-30T07:36:09Z</time>
      </trkpt>
      <trkpt lat="43.37815" lon="1.17655">
        <ele>241.6</ele>
        <time>2024-07-30T07:36:10Z</time>
      </trkpt>
      <trkpt lat="43.37811" lon="1.17648">
        <ele>241.6</ele>
        <time>2024-07-30T07:36:11Z</time>
      </trkpt>
      <trkpt lat="43.37808" lon="1.1764">
        <ele>241.6</ele>
        <time>2024-07-30T07:36:12Z</time>
      </trkpt>
      <trkpt lat="43.37804" lon="1.17633">
        <ele>241.6</ele>
        <time>2024-07-30T07:36:13Z</time>
      </trkpt>
      <trkpt lat="43.37801" lon="1.17626">
        <ele>241.6</ele>
        <time>2024-07-30T07:36:14Z</time>
      </trkpt>
      <trkpt lat="43.37797" lon="1.17619">
        <ele>241.6</ele>
        <time>2024-07-30T07:36:15Z</time>
      </trkpt>
      <trkpt lat="43.37792" lon="1.17612">
        <ele>241.4</ele>
        <time>2024-07-30T07:36:16Z</time>
      </trkpt>
      <trkpt lat="43.37788" lon="1.17605">
        <ele>241.4</ele>
        <time>2024-07-30T07:36:17Z</time>
      </trkpt>
      <trkpt lat="43.37784" lon="1.17598">
        <ele>241.4</ele>
        <time>2024-07-30T07:36:18Z</time>
      </trkpt>
      <trkpt lat="43.37778" lon="1.17591">
        <ele>241.4</ele>
        <time>2024-07-30T07:36:19Z</time>
      </trkpt>
      <trkpt lat="43.37774" lon="1.17586">
        <ele>241.4</ele>
        <time>2024-07-30T07:36:20Z</time>
      </trkpt>
      <trkpt lat="43.3777" lon="1.1758">
        <ele>241.4</ele>
        <time>2024-07-30T07:36:21Z</time>
      </trkpt>
      <trkpt lat="43.37765" lon="1.17574">
        <ele>241.4</ele>
        <time>2024-07-30T07:36:22Z</time>
      </trkpt>
      <trkpt lat="43.3776" lon="1.17569">
        <ele>241.4</ele>
        <time>2024-07-30T07:36:23Z</time>
      </trkpt>
      <trkpt lat="43.37755" lon="1.17563">
        <ele>241.4</ele>
        <time>2024-07-30T07:36:24Z</time>
      </trkpt>
      <trkpt lat="43.37749" lon="1.17556">
        <ele>241.4</ele>
        <time>2024-07-30T07:36:25Z</time>
      </trkpt>
      <trkpt lat="43.37745" lon="1.17552">
        <ele>241.4</ele>
        <time>2024-07-30T07:36:26Z</time>
      </trkpt>
      <trkpt lat="43.3774" lon="1.17546">
        <ele>241.4</ele>
        <time>2024-07-30T07:36:27Z</time>
      </trkpt>
      <trkpt lat="43.37735" lon="1.17541">
        <ele>241.4</ele>
        <time>2024-07-30T07:36:28Z</time>
      </trkpt>
      <trkpt lat="43.3773" lon="1.17535">
        <ele>241.4</ele>
        <time>2024-07-30T07:36:29Z</time>
      </trkpt>
      <trkpt lat="43.37725" lon="1.1753">
        <ele>241.4</ele>
        <time>2024-07-30T07:36:30Z</time>
      </trkpt>
      <trkpt lat="43.3772" lon="1.17525">
        <ele>241.2</ele>
        <time>2024-07-30T07:36:31Z</time>
      </trkpt>
      <trkpt lat="43.37715" lon="1.17519">
        <ele>241.2</ele>
        <time>2024-07-30T07:36:32Z</time>
      </trkpt>
      <trkpt lat="43.3771" lon="1.17513">
        <ele>241.2</ele>
        <time>2024-07-30T07:36:33Z</time>
      </trkpt>
      <trkpt lat="43.37705" lon="1.17508">
        <ele>241.2</ele>
        <time>2024-07-30T07:36:34Z</time>
      </trkpt>
      <trkpt lat="43.37701" lon="1.17503">
        <ele>241</ele>
        <time>2024-07-30T07:36:35Z</time>
      </trkpt>
      <trkpt lat="43.37695" lon="1.17498">
        <ele>241</ele>
        <time>2024-07-30T07:36:36Z</time>
      </trkpt>
      <trkpt lat="43.3769" lon="1.17493">
        <ele>241</ele>
        <time>2024-07-30T07:36:37Z</time>
      </trkpt>
      <trkpt lat="43.37685" lon="1.17488">
        <ele>241</ele>
        <time>2024-07-30T07:36:38Z</time>
      </trkpt>
      <trkpt lat="43.37679" lon="1.17483">
        <ele>241</ele>
        <time>2024-07-30T07:36:39Z</time>
      </trkpt>
      <trkpt lat="43.37674" lon="1.17479">
        <ele>241.2</ele>
        <time>2024-07-30T07:36:40Z</time>
      </trkpt>
      <trkpt lat="43.37669" lon="1.17474">
        <ele>241</ele>
        <time>2024-07-30T07:36:41Z</time>
      </trkpt>
      <trkpt lat="43.37663" lon="1.17469">
        <ele>241</ele>
        <time>2024-07-30T07:36:42Z</time>
      </trkpt>
      <trkpt lat="43.37656" lon="1.17464">
        <ele>241</ele>
        <time>2024-07-30T07:36:43Z</time>
      </trkpt>
      <trkpt lat="43.37651" lon="1.17459">
        <ele>241</ele>
        <time>2024-07-30T07:36:44Z</time>
      </trkpt>
      <trkpt lat="43.37646" lon="1.17455">
        <ele>241.2</ele>
        <time>2024-07-30T07:36:45Z</time>
      </trkpt>
      <trkpt lat="43.37641" lon="1.1745">
        <ele>241.2</ele>
        <time>2024-07-30T07:36:46Z</time>
      </trkpt>
      <trkpt lat="43.37636" lon="1.17445">
        <ele>241.2</ele>
        <time>2024-07-30T07:36:47Z</time>
      </trkpt>
      <trkpt lat="43.37631" lon="1.17441">
        <ele>241.2</ele>
        <time>2024-07-30T07:36:48Z</time>
      </trkpt>
      <trkpt lat="43.37626" lon="1.17436">
        <ele>241.4</ele>
        <time>2024-07-30T07:36:49Z</time>
      </trkpt>
      <trkpt lat="43.37621" lon="1.17431">
        <ele>241.4</ele>
        <time>2024-07-30T07:36:50Z</time>
      </trkpt>
      <trkpt lat="43.37616" lon="1.17426">
        <ele>241.4</ele>
        <time>2024-07-30T07:36:51Z</time>
      </trkpt>
      <trkpt lat="43.3761" lon="1.17421">
        <ele>241.4</ele>
        <time>2024-07-30T07:36:52Z</time>
      </trkpt>
      <trkpt lat="43.37604" lon="1.17415">
        <ele>241.4</ele>
        <time>2024-07-30T07:36:53Z</time>
      </trkpt>
      <trkpt lat="43.376" lon="1.17411">
        <ele>241.4</ele>
        <time>2024-07-30T07:36:54Z</time>
      </trkpt>
      <trkpt lat="43.37595" lon="1.17406">
        <ele>241.6</ele>
        <time>2024-07-30T07:36:55Z</time>
      </trkpt>
      <trkpt lat="43.37589" lon="1.17399">
        <ele>241.6</ele>
        <time>2024-07-30T07:36:56Z</time>
      </trkpt>
      <trkpt lat="43.37584" lon="1.17394">
        <ele>241.8</ele>
        <time>2024-07-30T07:36:57Z</time>
      </trkpt>
      <trkpt lat="43.3758" lon="1.1739">
        <ele>242</ele>
        <time>2024-07-30T07:36:58Z</time>
      </trkpt>
      <trkpt lat="43.37575" lon="1.17384">
        <ele>242</ele>
        <time>2024-07-30T07:36:59Z</time>
      </trkpt>
      <trkpt lat="43.37569" lon="1.17379">
        <ele>242</ele>
        <time>2024-07-30T07:37:00Z</time>
      </trkpt>
      <trkpt lat="43.37564" lon="1.17374">
        <ele>242</ele>
        <time>2024-07-30T07:37:01Z</time>
      </trkpt>
      <trkpt lat="43.37557" lon="1.17368">
        <ele>242</ele>
        <time>2024-07-30T07:37:02Z</time>
      </trkpt>
      <trkpt lat="43.37552" lon="1.17362">
        <ele>242</ele>
        <time>2024-07-30T07:37:03Z</time>
      </trkpt>
      <trkpt lat="43.37548" lon="1.17357">
        <ele>242</ele>
        <time>2024-07-30T07:37:04Z</time>
      </trkpt>
      <trkpt lat="43.37542" lon="1.17352">
        <ele>242</ele>
        <time>2024-07-30T07:37:05Z</time>
      </trkpt>
      <trkpt lat="43.37536" lon="1.17346">
        <ele>242</ele>
        <time>2024-07-30T07:37:06Z</time>
      </trkpt>
      <trkpt lat="43.3753" lon="1.1734">
        <ele>242</ele>
        <time>2024-07-30T07:37:07Z</time>
      </trkpt>
      <trkpt lat="43.37526" lon="1.17336">
        <ele>242</ele>
        <time>2024-07-30T07:37:08Z</time>
      </trkpt>
      <trkpt lat="43.37521" lon="1.1733">
        <ele>242</ele>
        <time>2024-07-30T07:37:09Z</time>
      </trkpt>
      <trkpt lat="43.37515" lon="1.17325">
        <ele>242</ele>
        <time>2024-07-30T07:37:10Z</time>
      </trkpt>
      <trkpt lat="43.3751" lon="1.17319">
        <ele>242</ele>
        <time>2024-07-30T07:37:11Z</time>
      </trkpt>
      <trkpt lat="43.37505" lon="1.17312">
        <ele>242</ele>
        <time>2024-07-30T07:37:12Z</time>
      </trkpt>
      <trkpt lat="43.37501" lon="1.17307">
        <ele>242</ele>
        <time>2024-07-30T07:37:13Z</time>
      </trkpt>
      <trkpt lat="43.37497" lon="1.17299">
        <ele>242</ele>
        <time>2024-07-30T07:37:14Z</time>
      </trkpt>
      <trkpt lat="43.37494" lon="1.17292">
        <ele>242</ele>
        <time>2024-07-30T07:37:15Z</time>
      </trkpt>
      <trkpt lat="43.37489" lon="1.17286">
        <ele>242</ele>
        <time>2024-07-30T07:37:16Z</time>
      </trkpt>
      <trkpt lat="43.37483" lon="1.17284">
        <ele>242.2</ele>
        <time>2024-07-30T07:37:17Z</time>
      </trkpt>
      <trkpt lat="43.37478" lon="1.17283">
        <ele>242.2</ele>
        <time>2024-07-30T07:37:18Z</time>
      </trkpt>
      <trkpt lat="43.37472" lon="1.1728">
        <ele>242.2</ele>
        <time>2024-07-30T07:37:19Z</time>
      </trkpt>
      <trkpt lat="43.37464" lon="1.17275">
        <ele>242.2</ele>
        <time>2024-07-30T07:37:20Z</time>
      </trkpt>
      <trkpt lat="43.37458" lon="1.17271">
        <ele>242.2</ele>
        <time>2024-07-30T07:37:21Z</time>
      </trkpt>
      <trkpt lat="43.37453" lon="1.17268">
        <ele>242.4</ele>
        <time>2024-07-30T07:37:22Z</time>
      </trkpt>
      <trkpt lat="43.37447" lon="1.17263">
        <ele>242.4</ele>
        <time>2024-07-30T07:37:23Z</time>
      </trkpt>
      <trkpt lat="43.3744" lon="1.17258">
        <ele>242.4</ele>
        <time>2024-07-30T07:37:24Z</time>
      </trkpt>
      <trkpt lat="43.37435" lon="1.17254">
        <ele>242.4</ele>
        <time>2024-07-30T07:37:25Z</time>
      </trkpt>
      <trkpt lat="43.37428" lon="1.17248">
        <ele>242.4</ele>
        <time>2024-07-30T07:37:26Z</time>
      </trkpt>
      <trkpt lat="43.37423" lon="1.17244">
        <ele>242.4</ele>
        <time>2024-07-30T07:37:27Z</time>
      </trkpt>
      <trkpt lat="43.37417" lon="1.1724">
        <ele>242.4</ele>
        <time>2024-07-30T07:37:28Z</time>
      </trkpt>
      <trkpt lat="43.37411" lon="1.17235">
        <ele>242.4</ele>
        <time>2024-07-30T07:37:29Z</time>
      </trkpt>
      <trkpt lat="43.37404" lon="1.1723">
        <ele>242.4</ele>
        <time>2024-07-30T07:37:30Z</time>
      </trkpt>
      <trkpt lat="43.37398" lon="1.17226">
        <ele>242.4</ele>
        <time>2024-07-30T07:37:31Z</time>
      </trkpt>
      <trkpt lat="43.37393" lon="1.17221">
        <ele>242.4</ele>
        <time>2024-07-30T07:37:32Z</time>
      </trkpt>
      <trkpt lat="43.37387" lon="1.17217">
        <ele>242.4</ele>
        <time>2024-07-30T07:37:33Z</time>
      </trkpt>
      <trkpt lat="43.3738" lon="1.17213">
        <ele>242.2</ele>
        <time>2024-07-30T07:37:34Z</time>
      </trkpt>
      <trkpt lat="43.37374" lon="1.17208">
        <ele>242.2</ele>
        <time>2024-07-30T07:37:35Z</time>
      </trkpt>
      <trkpt lat="43.37368" lon="1.17204">
        <ele>242.2</ele>
        <time>2024-07-30T07:37:36Z</time>
      </trkpt>
      <trkpt lat="43.37362" lon="1.17199">
        <ele>242.2</ele>
        <time>2024-07-30T07:37:37Z</time>
      </trkpt>
      <trkpt lat="43.37355" lon="1.17194">
        <ele>242.2</ele>
        <time>2024-07-30T07:37:38Z</time>
      </trkpt>
      <trkpt lat="43.3735" lon="1.1719">
        <ele>242.2</ele>
        <time>2024-07-30T07:37:39Z</time>
      </trkpt>
      <trkpt lat="43.37343" lon="1.17185">
        <ele>242.4</ele>
        <time>2024-07-30T07:37:40Z</time>
      </trkpt>
      <trkpt lat="43.37339" lon="1.17181">
        <ele>242.4</ele>
        <time>2024-07-30T07:37:41Z</time>
      </trkpt>
      <trkpt lat="43.37333" lon="1.17177">
        <ele>242.4</ele>
        <time>2024-07-30T07:37:42Z</time>
      </trkpt>
      <trkpt lat="43.37328" lon="1.17173">
        <ele>242.4</ele>
        <time>2024-07-30T07:37:43Z</time>
      </trkpt>
      <trkpt lat="43.37322" lon="1.17167">
        <ele>242.4</ele>
        <time>2024-07-30T07:37:44Z</time>
      </trkpt>
      <trkpt lat="43.37316" lon="1.17163">
        <ele>242.4</ele>
        <time>2024-07-30T07:37:45Z</time>
      </trkpt>
      <trkpt lat="43.3731" lon="1.17159">
        <ele>242.4</ele>
        <time>2024-07-30T07:37:46Z</time>
      </trkpt>
      <trkpt lat="43.37304" lon="1.17154">
        <ele>242.4</ele>
        <time>2024-07-30T07:37:47Z</time>
      </trkpt>
      <trkpt lat="43.37297" lon="1.17149">
        <ele>242.4</ele>
        <time>2024-07-30T07:37:48Z</time>
      </trkpt>
      <trkpt lat="43.37292" lon="1.17144">
        <ele>242.6</ele>
        <time>2024-07-30T07:37:49Z</time>
      </trkpt>
      <trkpt lat="43.37287" lon="1.1714">
        <ele>242.6</ele>
        <time>2024-07-30T07:37:50Z</time>
      </trkpt>
      <trkpt lat="43.37281" lon="1.17135">
        <ele>242.6</ele>
        <time>2024-07-30T07:37:51Z</time>
      </trkpt>
      <trkpt lat="43.37275" lon="1.1713">
        <ele>242.6</ele>
        <time>2024-07-30T07:37:52Z</time>
      </trkpt>
      <trkpt lat="43.37269" lon="1.17125">
        <ele>242.6</ele>
        <time>2024-07-30T07:37:53Z</time>
      </trkpt>
      <trkpt lat="43.37263" lon="1.1712">
        <ele>242.8</ele>
        <time>2024-07-30T07:37:54Z</time>
      </trkpt>
      <trkpt lat="43.37257" lon="1.17115">
        <ele>242.8</ele>
        <time>2024-07-30T07:37:55Z</time>
      </trkpt>
      <trkpt lat="43.37251" lon="1.17109">
        <ele>242.8</ele>
        <time>2024-07-30T07:37:56Z</time>
      </trkpt>
      <trkpt lat="43.37246" lon="1.17104">
        <ele>242.8</ele>
        <time>2024-07-30T07:37:57Z</time>
      </trkpt>
      <trkpt lat="43.37239" lon="1.17098">
        <ele>242.8</ele>
        <time>2024-07-30T07:37:58Z</time>
      </trkpt>
      <trkpt lat="43.37233" lon="1.17093">
        <ele>242.8</ele>
        <time>2024-07-30T07:37:59Z</time>
      </trkpt>
      <trkpt lat="43.37228" lon="1.17089">
        <ele>243</ele>
        <time>2024-07-30T07:38:00Z</time>
      </trkpt>
      <trkpt lat="43.37222" lon="1.17084">
        <ele>242.8</ele>
        <time>2024-07-30T07:38:01Z</time>
      </trkpt>
      <trkpt lat="43.37217" lon="1.17079">
        <ele>242.8</ele>
        <time>2024-07-30T07:38:02Z</time>
      </trkpt>
      <trkpt lat="43.3721" lon="1.17072">
        <ele>242.6</ele>
        <time>2024-07-30T07:38:03Z</time>
      </trkpt>
      <trkpt lat="43.37205" lon="1.17068">
        <ele>242.6</ele>
        <time>2024-07-30T07:38:04Z</time>
      </trkpt>
      <trkpt lat="43.372" lon="1.17063">
        <ele>242.6</ele>
        <time>2024-07-30T07:38:05Z</time>
      </trkpt>
      <trkpt lat="43.37193" lon="1.17056">
        <ele>242.6</ele>
        <time>2024-07-30T07:38:06Z</time>
      </trkpt>
      <trkpt lat="43.37188" lon="1.1705">
        <ele>242.6</ele>
        <time>2024-07-30T07:38:07Z</time>
      </trkpt>
      <trkpt lat="43.37184" lon="1.17046">
        <ele>242.6</ele>
        <time>2024-07-30T07:38:08Z</time>
      </trkpt>
      <trkpt lat="43.37179" lon="1.17039">
        <ele>242.6</ele>
        <time>2024-07-30T07:38:09Z</time>
      </trkpt>
      <trkpt lat="43.37174" lon="1.17033">
        <ele>242.6</ele>
        <time>2024-07-30T07:38:10Z</time>
      </trkpt>
      <trkpt lat="43.37168" lon="1.17026">
        <ele>242.6</ele>
        <time>2024-07-30T07:38:11Z</time>
      </trkpt>
      <trkpt lat="43.37163" lon="1.17021">
        <ele>242.8</ele>
        <time>2024-07-30T07:38:12Z</time>
      </trkpt>
      <trkpt lat="43.37158" lon="1.17016">
        <ele>242.8</ele>
        <time>2024-07-30T07:38:13Z</time>
      </trkpt>
      <trkpt lat="43.37153" lon="1.17011">
        <ele>242.8</ele>
        <time>2024-07-30T07:38:14Z</time>
      </trkpt>
      <trkpt lat="43.37147" lon="1.17006">
        <ele>243</ele>
        <time>2024-07-30T07:38:15Z</time>
      </trkpt>
      <trkpt lat="43.3714" lon="1.16999">
        <ele>243</ele>
        <time>2024-07-30T07:38:16Z</time>
      </trkpt>
      <trkpt lat="43.37135" lon="1.16993">
        <ele>243.2</ele>
        <time>2024-07-30T07:38:17Z</time>
      </trkpt>
      <trkpt lat="43.37131" lon="1.16989">
        <ele>243.2</ele>
        <time>2024-07-30T07:38:18Z</time>
      </trkpt>
      <trkpt lat="43.37126" lon="1.16983">
        <ele>243.2</ele>
        <time>2024-07-30T07:38:19Z</time>
      </trkpt>
      <trkpt lat="43.3712" lon="1.16976">
        <ele>243.2</ele>
        <time>2024-07-30T07:38:20Z</time>
      </trkpt>
      <trkpt lat="43.37116" lon="1.16972">
        <ele>243.2</ele>
        <time>2024-07-30T07:38:21Z</time>
      </trkpt>
      <trkpt lat="43.37109" lon="1.16964">
        <ele>243.2</ele>
        <time>2024-07-30T07:38:22Z</time>
      </trkpt>
      <trkpt lat="43.37105" lon="1.1696">
        <ele>243.2</ele>
        <time>2024-07-30T07:38:23Z</time>
      </trkpt>
      <trkpt lat="43.371" lon="1.16954">
        <ele>243.2</ele>
        <time>2024-07-30T07:38:24Z</time>
      </trkpt>
      <trkpt lat="43.37094" lon="1.16948">
        <ele>243.2</ele>
        <time>2024-07-30T07:38:25Z</time>
      </trkpt>
      <trkpt lat="43.37088" lon="1.1694">
        <ele>243.4</ele>
        <time>2024-07-30T07:38:26Z</time>
      </trkpt>
      <trkpt lat="43.37084" lon="1.16935">
        <ele>243.4</ele>
        <time>2024-07-30T07:38:27Z</time>
      </trkpt>
      <trkpt lat="43.37079" lon="1.16929">
        <ele>243.4</ele>
        <time>2024-07-30T07:38:28Z</time>
      </trkpt>
      <trkpt lat="43.37073" lon="1.16923">
        <ele>243.4</ele>
        <time>2024-07-30T07:38:29Z</time>
      </trkpt>
      <trkpt lat="43.37067" lon="1.16917">
        <ele>243.4</ele>
        <time>2024-07-30T07:38:30Z</time>
      </trkpt>
      <trkpt lat="43.3706" lon="1.1691">
        <ele>243.4</ele>
        <time>2024-07-30T07:38:31Z</time>
      </trkpt>
      <trkpt lat="43.37056" lon="1.16905">
        <ele>243.4</ele>
        <time>2024-07-30T07:38:32Z</time>
      </trkpt>
      <trkpt lat="43.37051" lon="1.16899">
        <ele>243.6</ele>
        <time>2024-07-30T07:38:33Z</time>
      </trkpt>
      <trkpt lat="43.37046" lon="1.16893">
        <ele>243.6</ele>
        <time>2024-07-30T07:38:34Z</time>
      </trkpt>
      <trkpt lat="43.37041" lon="1.16887">
        <ele>243.6</ele>
        <time>2024-07-30T07:38:35Z</time>
      </trkpt>
      <trkpt lat="43.37036" lon="1.16881">
        <ele>243.6</ele>
        <time>2024-07-30T07:38:36Z</time>
      </trkpt>
      <trkpt lat="43.37031" lon="1.16875">
        <ele>243.6</ele>
        <time>2024-07-30T07:38:37Z</time>
      </trkpt>
      <trkpt lat="43.37027" lon="1.16869">
        <ele>243.4</ele>
        <time>2024-07-30T07:38:38Z</time>
      </trkpt>
      <trkpt lat="43.37021" lon="1.16862">
        <ele>243.4</ele>
        <time>2024-07-30T07:38:39Z</time>
      </trkpt>
      <trkpt lat="43.37016" lon="1.16856">
        <ele>243.4</ele>
        <time>2024-07-30T07:38:40Z</time>
      </trkpt>
      <trkpt lat="43.37013" lon="1.16851">
        <ele>243.4</ele>
        <time>2024-07-30T07:38:41Z</time>
      </trkpt>
      <trkpt lat="43.37008" lon="1.16845">
        <ele>243.4</ele>
        <time>2024-07-30T07:38:42Z</time>
      </trkpt>
      <trkpt lat="43.37003" lon="1.16839">
        <ele>243.4</ele>
        <time>2024-07-30T07:38:43Z</time>
      </trkpt>
      <trkpt lat="43.36999" lon="1.16833">
        <ele>243.4</ele>
        <time>2024-07-30T07:38:44Z</time>
      </trkpt>
      <trkpt lat="43.36993" lon="1.16826">
        <ele>243.2</ele>
        <time>2024-07-30T07:38:45Z</time>
      </trkpt>
      <trkpt lat="43.3699" lon="1.16821">
        <ele>243.2</ele>
        <time>2024-07-30T07:38:46Z</time>
      </trkpt>
      <trkpt lat="43.36985" lon="1.16815">
        <ele>243.2</ele>
        <time>2024-07-30T07:38:47Z</time>
      </trkpt>
      <trkpt lat="43.3698" lon="1.16807">
        <ele>243.2</ele>
        <time>2024-07-30T07:38:48Z</time>
      </trkpt>
      <trkpt lat="43.36976" lon="1.16799">
        <ele>243.2</ele>
        <time>2024-07-30T07:38:49Z</time>
      </trkpt>
      <trkpt lat="43.36973" lon="1.16794">
        <ele>243.2</ele>
        <time>2024-07-30T07:38:50Z</time>
      </trkpt>
      <trkpt lat="43.36969" lon="1.16787">
        <ele>243.2</ele>
        <time>2024-07-30T07:38:51Z</time>
      </trkpt>
      <trkpt lat="43.36964" lon="1.1678">
        <ele>243.2</ele>
        <time>2024-07-30T07:38:52Z</time>
      </trkpt>
      <trkpt lat="43.3696" lon="1.16773">
        <ele>243.2</ele>
        <time>2024-07-30T07:38:53Z</time>
      </trkpt>
      <trkpt lat="43.36955" lon="1.16765">
        <ele>243.4</ele>
        <time>2024-07-30T07:38:54Z</time>
      </trkpt>
      <trkpt lat="43.36951" lon="1.1676">
        <ele>243.4</ele>
        <time>2024-07-30T07:38:55Z</time>
      </trkpt>
      <trkpt lat="43.36947" lon="1.16753">
        <ele>243.4</ele>
        <time>2024-07-30T07:38:56Z</time>
      </trkpt>
      <trkpt lat="43.36942" lon="1.16746">
        <ele>243.6</ele>
        <time>2024-07-30T07:38:57Z</time>
      </trkpt>
      <trkpt lat="43.36937" lon="1.1674">
        <ele>243.6</ele>
        <time>2024-07-30T07:38:58Z</time>
      </trkpt>
      <trkpt lat="43.36931" lon="1.16733">
        <ele>243.8</ele>
        <time>2024-07-30T07:38:59Z</time>
      </trkpt>
      <trkpt lat="43.36927" lon="1.16728">
        <ele>244</ele>
        <time>2024-07-30T07:39:00Z</time>
      </trkpt>
      <trkpt lat="43.36922" lon="1.16722">
        <ele>244</ele>
        <time>2024-07-30T07:39:01Z</time>
      </trkpt>
      <trkpt lat="43.36917" lon="1.16716">
        <ele>244</ele>
        <time>2024-07-30T07:39:02Z</time>
      </trkpt>
      <trkpt lat="43.36911" lon="1.16711">
        <ele>244.2</ele>
        <time>2024-07-30T07:39:03Z</time>
      </trkpt>
      <trkpt lat="43.36906" lon="1.16706">
        <ele>244.2</ele>
        <time>2024-07-30T07:39:04Z</time>
      </trkpt>
      <trkpt lat="43.369" lon="1.16701">
        <ele>244.2</ele>
        <time>2024-07-30T07:39:05Z</time>
      </trkpt>
      <trkpt lat="43.36895" lon="1.16696">
        <ele>244.2</ele>
        <time>2024-07-30T07:39:06Z</time>
      </trkpt>
      <trkpt lat="43.36889" lon="1.16692">
        <ele>244.2</ele>
        <time>2024-07-30T07:39:07Z</time>
      </trkpt>
      <trkpt lat="43.36882" lon="1.16686">
        <ele>244.4</ele>
        <time>2024-07-30T07:39:08Z</time>
      </trkpt>
      <trkpt lat="43.36877" lon="1.16681">
        <ele>244.4</ele>
        <time>2024-07-30T07:39:09Z</time>
      </trkpt>
      <trkpt lat="43.36872" lon="1.16677">
        <ele>244.6</ele>
        <time>2024-07-30T07:39:10Z</time>
      </trkpt>
      <trkpt lat="43.36866" lon="1.16673">
        <ele>244.6</ele>
        <time>2024-07-30T07:39:11Z</time>
      </trkpt>
      <trkpt lat="43.36859" lon="1.16668">
        <ele>244.8</ele>
        <time>2024-07-30T07:39:12Z</time>
      </trkpt>
      <trkpt lat="43.36853" lon="1.16664">
        <ele>244.8</ele>
        <time>2024-07-30T07:39:13Z</time>
      </trkpt>
      <trkpt lat="43.36848" lon="1.16661">
        <ele>245</ele>
        <time>2024-07-30T07:39:14Z</time>
      </trkpt>
      <trkpt lat="43.36842" lon="1.16657">
        <ele>245</ele>
        <time>2024-07-30T07:39:15Z</time>
      </trkpt>
      <trkpt lat="43.36836" lon="1.16653">
        <ele>245.2</ele>
        <time>2024-07-30T07:39:16Z</time>
      </trkpt>
      <trkpt lat="43.36829" lon="1.16649">
        <ele>245.4</ele>
        <time>2024-07-30T07:39:17Z</time>
      </trkpt>
      <trkpt lat="43.36825" lon="1.16647">
        <ele>245.4</ele>
        <time>2024-07-30T07:39:18Z</time>
      </trkpt>
      <trkpt lat="43.36817" lon="1.16643">
        <ele>245.6</ele>
        <time>2024-07-30T07:39:19Z</time>
      </trkpt>
      <trkpt lat="43.36812" lon="1.16641">
        <ele>245.6</ele>
        <time>2024-07-30T07:39:20Z</time>
      </trkpt>
      <trkpt lat="43.36806" lon="1.16638">
        <ele>245.6</ele>
        <time>2024-07-30T07:39:21Z</time>
      </trkpt>
      <trkpt lat="43.36799" lon="1.16633">
        <ele>245.6</ele>
        <time>2024-07-30T07:39:22Z</time>
      </trkpt>
      <trkpt lat="43.36792" lon="1.1663">
        <ele>245.6</ele>
        <time>2024-07-30T07:39:23Z</time>
      </trkpt>
      <trkpt lat="43.36787" lon="1.16627">
        <ele>245.6</ele>
        <time>2024-07-30T07:39:24Z</time>
      </trkpt>
      <trkpt lat="43.36781" lon="1.16624">
        <ele>245.8</ele>
        <time>2024-07-30T07:39:25Z</time>
      </trkpt>
      <trkpt lat="43.36773" lon="1.16619">
        <ele>245.8</ele>
        <time>2024-07-30T07:39:26Z</time>
      </trkpt>
      <trkpt lat="43.36768" lon="1.16616">
        <ele>245.8</ele>
        <time>2024-07-30T07:39:27Z</time>
      </trkpt>
      <trkpt lat="43.36761" lon="1.16612">
        <ele>245.8</ele>
        <time>2024-07-30T07:39:28Z</time>
      </trkpt>
      <trkpt lat="43.36756" lon="1.16609">
        <ele>245.8</ele>
        <time>2024-07-30T07:39:29Z</time>
      </trkpt>
      <trkpt lat="43.36749" lon="1.16605">
        <ele>245.8</ele>
        <time>2024-07-30T07:39:30Z</time>
      </trkpt>
      <trkpt lat="43.36743" lon="1.16601">
        <ele>245.8</ele>
        <time>2024-07-30T07:39:31Z</time>
      </trkpt>
      <trkpt lat="43.36736" lon="1.16596">
        <ele>245.8</ele>
        <time>2024-07-30T07:39:32Z</time>
      </trkpt>
      <trkpt lat="43.36732" lon="1.16592">
        <ele>246</ele>
        <time>2024-07-30T07:39:33Z</time>
      </trkpt>
      <trkpt lat="43.36725" lon="1.16588">
        <ele>246</ele>
        <time>2024-07-30T07:39:34Z</time>
      </trkpt>
      <trkpt lat="43.36719" lon="1.16583">
        <ele>246</ele>
        <time>2024-07-30T07:39:35Z</time>
      </trkpt>
      <trkpt lat="43.36713" lon="1.16579">
        <ele>246</ele>
        <time>2024-07-30T07:39:36Z</time>
      </trkpt>
      <trkpt lat="43.36707" lon="1.16574">
        <ele>246</ele>
        <time>2024-07-30T07:39:37Z</time>
      </trkpt>
      <trkpt lat="43.36701" lon="1.16569">
        <ele>246</ele>
        <time>2024-07-30T07:39:38Z</time>
      </trkpt>
      <trkpt lat="43.36696" lon="1.16564">
        <ele>246</ele>
        <time>2024-07-30T07:39:39Z</time>
      </trkpt>
      <trkpt lat="43.3669" lon="1.1656">
        <ele>246</ele>
        <time>2024-07-30T07:39:40Z</time>
      </trkpt>
      <trkpt lat="43.36683" lon="1.16554">
        <ele>246.2</ele>
        <time>2024-07-30T07:39:41Z</time>
      </trkpt>
      <trkpt lat="43.36677" lon="1.1655">
        <ele>246.2</ele>
        <time>2024-07-30T07:39:42Z</time>
      </trkpt>
      <trkpt lat="43.36672" lon="1.16546">
        <ele>246.2</ele>
        <time>2024-07-30T07:39:43Z</time>
      </trkpt>
      <trkpt lat="43.36666" lon="1.16541">
        <ele>246.2</ele>
        <time>2024-07-30T07:39:44Z</time>
      </trkpt>
      <trkpt lat="43.3666" lon="1.16536">
        <ele>246.4</ele>
        <time>2024-07-30T07:39:45Z</time>
      </trkpt>
      <trkpt lat="43.36652" lon="1.16531">
        <ele>246.4</ele>
        <time>2024-07-30T07:39:46Z</time>
      </trkpt>
      <trkpt lat="43.36646" lon="1.16526">
        <ele>246.4</ele>
        <time>2024-07-30T07:39:47Z</time>
      </trkpt>
      <trkpt lat="43.36641" lon="1.16522">
        <ele>246.4</ele>
        <time>2024-07-30T07:39:48Z</time>
      </trkpt>
      <trkpt lat="43.36635" lon="1.16517">
        <ele>246.6</ele>
        <time>2024-07-30T07:39:49Z</time>
      </trkpt>
      <trkpt lat="43.36629" lon="1.16513">
        <ele>246.6</ele>
        <time>2024-07-30T07:39:50Z</time>
      </trkpt>
      <trkpt lat="43.36621" lon="1.16507">
        <ele>246.6</ele>
        <time>2024-07-30T07:39:51Z</time>
      </trkpt>
      <trkpt lat="43.36616" lon="1.16503">
        <ele>246.6</ele>
        <time>2024-07-30T07:39:52Z</time>
      </trkpt>
      <trkpt lat="43.3661" lon="1.16499">
        <ele>246.8</ele>
        <time>2024-07-30T07:39:53Z</time>
      </trkpt>
      <trkpt lat="43.36602" lon="1.16493">
        <ele>246.8</ele>
        <time>2024-07-30T07:39:54Z</time>
      </trkpt>
      <trkpt lat="43.36596" lon="1.16488">
        <ele>246.8</ele>
        <time>2024-07-30T07:39:55Z</time>
      </trkpt>
      <trkpt lat="43.36591" lon="1.16484">
        <ele>246.8</ele>
        <time>2024-07-30T07:39:56Z</time>
      </trkpt>
      <trkpt lat="43.36585" lon="1.16479">
        <ele>247</ele>
        <time>2024-07-30T07:39:57Z</time>
      </trkpt>
      <trkpt lat="43.36579" lon="1.16475">
        <ele>247</ele>
        <time>2024-07-30T07:39:58Z</time>
      </trkpt>
      <trkpt lat="43.36573" lon="1.1647">
        <ele>247</ele>
        <time>2024-07-30T07:39:59Z</time>
      </trkpt>
      <trkpt lat="43.36567" lon="1.16465">
        <ele>247</ele>
        <time>2024-07-30T07:40:00Z</time>
      </trkpt>
      <trkpt lat="43.36561" lon="1.1646">
        <ele>247</ele>
        <time>2024-07-30T07:40:01Z</time>
      </trkpt>
      <trkpt lat="43.36555" lon="1.16455">
        <ele>247</ele>
        <time>2024-07-30T07:40:02Z</time>
      </trkpt>
      <trkpt lat="43.36549" lon="1.1645">
        <ele>247.2</ele>
        <time>2024-07-30T07:40:03Z</time>
      </trkpt>
      <trkpt lat="43.36542" lon="1.16444">
        <ele>247.2</ele>
        <time>2024-07-30T07:40:04Z</time>
      </trkpt>
      <trkpt lat="43.36537" lon="1.1644">
        <ele>247.2</ele>
        <time>2024-07-30T07:40:05Z</time>
      </trkpt>
      <trkpt lat="43.36532" lon="1.16435">
        <ele>247.2</ele>
        <time>2024-07-30T07:40:06Z</time>
      </trkpt>
      <trkpt lat="43.36526" lon="1.1643">
        <ele>247.4</ele>
        <time>2024-07-30T07:40:07Z</time>
      </trkpt>
      <trkpt lat="43.36519" lon="1.16423">
        <ele>247.4</ele>
        <time>2024-07-30T07:40:08Z</time>
      </trkpt>
      <trkpt lat="43.36514" lon="1.16417">
        <ele>247.4</ele>
        <time>2024-07-30T07:40:09Z</time>
      </trkpt>
      <trkpt lat="43.36508" lon="1.16411">
        <ele>247.4</ele>
        <time>2024-07-30T07:40:10Z</time>
      </trkpt>
      <trkpt lat="43.36504" lon="1.16406">
        <ele>247.6</ele>
        <time>2024-07-30T07:40:11Z</time>
      </trkpt>
      <trkpt lat="43.36499" lon="1.16399">
        <ele>247.6</ele>
        <time>2024-07-30T07:40:12Z</time>
      </trkpt>
      <trkpt lat="43.36494" lon="1.16392">
        <ele>247.6</ele>
        <time>2024-07-30T07:40:13Z</time>
      </trkpt>
      <trkpt lat="43.36488" lon="1.16384">
        <ele>247.6</ele>
        <time>2024-07-30T07:40:14Z</time>
      </trkpt>
      <trkpt lat="43.36484" lon="1.16379">
        <ele>247.6</ele>
        <time>2024-07-30T07:40:15Z</time>
      </trkpt>
      <trkpt lat="43.36479" lon="1.16372">
        <ele>247.6</ele>
        <time>2024-07-30T07:40:16Z</time>
      </trkpt>
      <trkpt lat="43.36473" lon="1.16365">
        <ele>247.6</ele>
        <time>2024-07-30T07:40:17Z</time>
      </trkpt>
      <trkpt lat="43.36468" lon="1.16359">
        <ele>247.8</ele>
        <time>2024-07-30T07:40:18Z</time>
      </trkpt>
      <trkpt lat="43.36462" lon="1.16352">
        <ele>247.8</ele>
        <time>2024-07-30T07:40:19Z</time>
      </trkpt>
      <trkpt lat="43.36458" lon="1.16347">
        <ele>248</ele>
        <time>2024-07-30T07:40:20Z</time>
      </trkpt>
      <trkpt lat="43.36453" lon="1.1634">
        <ele>248</ele>
        <time>2024-07-30T07:40:21Z</time>
      </trkpt>
      <trkpt lat="43.36448" lon="1.16335">
        <ele>248</ele>
        <time>2024-07-30T07:40:22Z</time>
      </trkpt>
      <trkpt lat="43.36442" lon="1.16329">
        <ele>248</ele>
        <time>2024-07-30T07:40:23Z</time>
      </trkpt>
      <trkpt lat="43.36436" lon="1.16322">
        <ele>248</ele>
        <time>2024-07-30T07:40:24Z</time>
      </trkpt>
      <trkpt lat="43.36431" lon="1.16317">
        <ele>248.2</ele>
        <time>2024-07-30T07:40:25Z</time>
      </trkpt>
      <trkpt lat="43.36426" lon="1.16312">
        <ele>248.2</ele>
        <time>2024-07-30T07:40:26Z</time>
      </trkpt>
      <trkpt lat="43.36419" lon="1.16305">
        <ele>248.2</ele>
        <time>2024-07-30T07:40:27Z</time>
      </trkpt>
      <trkpt lat="43.36415" lon="1.16301">
        <ele>248.2</ele>
        <time>2024-07-30T07:40:28Z</time>
      </trkpt>
      <trkpt lat="43.36409" lon="1.16295">
        <ele>248.2</ele>
        <time>2024-07-30T07:40:29Z</time>
      </trkpt>
      <trkpt lat="43.36403" lon="1.1629">
        <ele>248.2</ele>
        <time>2024-07-30T07:40:30Z</time>
      </trkpt>
      <trkpt lat="43.36397" lon="1.16285">
        <ele>248.2</ele>
        <time>2024-07-30T07:40:31Z</time>
      </trkpt>
      <trkpt lat="43.36389" lon="1.16279">
        <ele>248.2</ele>
        <time>2024-07-30T07:40:32Z</time>
      </trkpt>
      <trkpt lat="43.36383" lon="1.16275">
        <ele>248.2</ele>
        <time>2024-07-30T07:40:33Z</time>
      </trkpt>
      <trkpt lat="43.36378" lon="1.16271">
        <ele>248.2</ele>
        <time>2024-07-30T07:40:34Z</time>
      </trkpt>
      <trkpt lat="43.36371" lon="1.16267">
        <ele>248.2</ele>
        <time>2024-07-30T07:40:35Z</time>
      </trkpt>
      <trkpt lat="43.36364" lon="1.16262">
        <ele>248.2</ele>
        <time>2024-07-30T07:40:36Z</time>
      </trkpt>
      <trkpt lat="43.36357" lon="1.16258">
        <ele>248.2</ele>
        <time>2024-07-30T07:40:37Z</time>
      </trkpt>
      <trkpt lat="43.36351" lon="1.16253">
        <ele>248</ele>
        <time>2024-07-30T07:40:38Z</time>
      </trkpt>
      <trkpt lat="43.36346" lon="1.1625">
        <ele>248</ele>
        <time>2024-07-30T07:40:39Z</time>
      </trkpt>
      <trkpt lat="43.36339" lon="1.16246">
        <ele>248</ele>
        <time>2024-07-30T07:40:40Z</time>
      </trkpt>
      <trkpt lat="43.36333" lon="1.16242">
        <ele>247.8</ele>
        <time>2024-07-30T07:40:41Z</time>
      </trkpt>
      <trkpt lat="43.36326" lon="1.16237">
        <ele>248.2</ele>
        <time>2024-07-30T07:40:42Z</time>
      </trkpt>
      <trkpt lat="43.36319" lon="1.16233">
        <ele>248</ele>
        <time>2024-07-30T07:40:43Z</time>
      </trkpt>
      <trkpt lat="43.36314" lon="1.16229">
        <ele>248</ele>
        <time>2024-07-30T07:40:44Z</time>
      </trkpt>
      <trkpt lat="43.36308" lon="1.16225">
        <ele>248</ele>
        <time>2024-07-30T07:40:45Z</time>
      </trkpt>
      <trkpt lat="43.36302" lon="1.16221">
        <ele>248</ele>
        <time>2024-07-30T07:40:46Z</time>
      </trkpt>
      <trkpt lat="43.36294" lon="1.16216">
        <ele>248</ele>
        <time>2024-07-30T07:40:47Z</time>
      </trkpt>
      <trkpt lat="43.36289" lon="1.16213">
        <ele>248</ele>
        <time>2024-07-30T07:40:48Z</time>
      </trkpt>
      <trkpt lat="43.36283" lon="1.16209">
        <ele>248</ele>
        <time>2024-07-30T07:40:49Z</time>
      </trkpt>
      <trkpt lat="43.36275" lon="1.16204">
        <ele>248</ele>
        <time>2024-07-30T07:40:50Z</time>
      </trkpt>
      <trkpt lat="43.36268" lon="1.162">
        <ele>248</ele>
        <time>2024-07-30T07:40:51Z</time>
      </trkpt>
      <trkpt lat="43.36262" lon="1.16196">
        <ele>248.2</ele>
        <time>2024-07-30T07:40:52Z</time>
      </trkpt>
      <trkpt lat="43.36256" lon="1.16194">
        <ele>248.2</ele>
        <time>2024-07-30T07:40:53Z</time>
      </trkpt>
      <trkpt lat="43.36249" lon="1.16191">
        <ele>248.2</ele>
        <time>2024-07-30T07:40:54Z</time>
      </trkpt>
      <trkpt lat="43.36241" lon="1.16187">
        <ele>248.2</ele>
        <time>2024-07-30T07:40:55Z</time>
      </trkpt>
      <trkpt lat="43.36234" lon="1.16184">
        <ele>248.2</ele>
        <time>2024-07-30T07:40:56Z</time>
      </trkpt>
      <trkpt lat="43.36229" lon="1.16182">
        <ele>248.2</ele>
        <time>2024-07-30T07:40:57Z</time>
      </trkpt>
      <trkpt lat="43.36222" lon="1.16179">
        <ele>248.4</ele>
        <time>2024-07-30T07:40:58Z</time>
      </trkpt>
      <trkpt lat="43.36214" lon="1.16175">
        <ele>248.4</ele>
        <time>2024-07-30T07:40:59Z</time>
      </trkpt>
      <trkpt lat="43.36207" lon="1.16172">
        <ele>248.4</ele>
        <time>2024-07-30T07:41:00Z</time>
      </trkpt>
      <trkpt lat="43.362" lon="1.16169">
        <ele>248.4</ele>
        <time>2024-07-30T07:41:01Z</time>
      </trkpt>
      <trkpt lat="43.36194" lon="1.16166">
        <ele>248.4</ele>
        <time>2024-07-30T07:41:02Z</time>
      </trkpt>
      <trkpt lat="43.36187" lon="1.16163">
        <ele>248.4</ele>
        <time>2024-07-30T07:41:03Z</time>
      </trkpt>
      <trkpt lat="43.36181" lon="1.16159">
        <ele>248.4</ele>
        <time>2024-07-30T07:41:04Z</time>
      </trkpt>
      <trkpt lat="43.36172" lon="1.16155">
        <ele>248.4</ele>
        <time>2024-07-30T07:41:05Z</time>
      </trkpt>
      <trkpt lat="43.36166" lon="1.1615">
        <ele>248.4</ele>
        <time>2024-07-30T07:41:06Z</time>
      </trkpt>
      <trkpt lat="43.36161" lon="1.16147">
        <ele>248.6</ele>
        <time>2024-07-30T07:41:07Z</time>
      </trkpt>
      <trkpt lat="43.36154" lon="1.16143">
        <ele>248.6</ele>
        <time>2024-07-30T07:41:08Z</time>
      </trkpt>
      <trkpt lat="43.36148" lon="1.16138">
        <ele>248.6</ele>
        <time>2024-07-30T07:41:09Z</time>
      </trkpt>
      <trkpt lat="43.3614" lon="1.16133">
        <ele>248.6</ele>
        <time>2024-07-30T07:41:10Z</time>
      </trkpt>
      <trkpt lat="43.36133" lon="1.16129">
        <ele>248.6</ele>
        <time>2024-07-30T07:41:11Z</time>
      </trkpt>
      <trkpt lat="43.36128" lon="1.16125">
        <ele>248.6</ele>
        <time>2024-07-30T07:41:12Z</time>
      </trkpt>
      <trkpt lat="43.36121" lon="1.1612">
        <ele>248.6</ele>
        <time>2024-07-30T07:41:13Z</time>
      </trkpt>
      <trkpt lat="43.36114" lon="1.16115">
        <ele>248.6</ele>
        <time>2024-07-30T07:41:14Z</time>
      </trkpt>
      <trkpt lat="43.36108" lon="1.1611">
        <ele>248.8</ele>
        <time>2024-07-30T07:41:15Z</time>
      </trkpt>
      <trkpt lat="43.36103" lon="1.16105">
        <ele>248.8</ele>
        <time>2024-07-30T07:41:16Z</time>
      </trkpt>
      <trkpt lat="43.36097" lon="1.161">
        <ele>248.8</ele>
        <time>2024-07-30T07:41:17Z</time>
      </trkpt>
      <trkpt lat="43.3609" lon="1.16095">
        <ele>248.8</ele>
        <time>2024-07-30T07:41:18Z</time>
      </trkpt>
      <trkpt lat="43.36084" lon="1.1609">
        <ele>248.8</ele>
        <time>2024-07-30T07:41:19Z</time>
      </trkpt>
      <trkpt lat="43.36077" lon="1.16086">
        <ele>248.8</ele>
        <time>2024-07-30T07:41:20Z</time>
      </trkpt>
      <trkpt lat="43.36072" lon="1.16083">
        <ele>248.8</ele>
        <time>2024-07-30T07:41:21Z</time>
      </trkpt>
      <trkpt lat="43.36065" lon="1.16079">
        <ele>248.8</ele>
        <time>2024-07-30T07:41:22Z</time>
      </trkpt>
      <trkpt lat="43.36057" lon="1.16075">
        <ele>248.8</ele>
        <time>2024-07-30T07:41:23Z</time>
      </trkpt>
      <trkpt lat="43.3605" lon="1.16073">
        <ele>248.8</ele>
        <time>2024-07-30T07:41:24Z</time>
      </trkpt>
      <trkpt lat="43.36045" lon="1.16071">
        <ele>248.8</ele>
        <time>2024-07-30T07:41:25Z</time>
      </trkpt>
      <trkpt lat="43.36038" lon="1.16069">
        <ele>248.8</ele>
        <time>2024-07-30T07:41:26Z</time>
      </trkpt>
      <trkpt lat="43.36031" lon="1.16067">
        <ele>248.8</ele>
        <time>2024-07-30T07:41:27Z</time>
      </trkpt>
      <trkpt lat="43.36025" lon="1.16064">
        <ele>248.8</ele>
        <time>2024-07-30T07:41:28Z</time>
      </trkpt>
      <trkpt lat="43.36016" lon="1.16062">
        <ele>248.8</ele>
        <time>2024-07-30T07:41:29Z</time>
      </trkpt>
      <trkpt lat="43.36011" lon="1.1606">
        <ele>248.8</ele>
        <time>2024-07-30T07:41:30Z</time>
      </trkpt>
      <trkpt lat="43.36004" lon="1.16057">
        <ele>248.8</ele>
        <time>2024-07-30T07:41:31Z</time>
      </trkpt>
      <trkpt lat="43.35996" lon="1.16055">
        <ele>248.8</ele>
        <time>2024-07-30T07:41:32Z</time>
      </trkpt>
      <trkpt lat="43.35989" lon="1.16052">
        <ele>248.8</ele>
        <time>2024-07-30T07:41:33Z</time>
      </trkpt>
      <trkpt lat="43.35982" lon="1.16049">
        <ele>248.8</ele>
        <time>2024-07-30T07:41:34Z</time>
      </trkpt>
      <trkpt lat="43.35976" lon="1.16046">
        <ele>248.8</ele>
        <time>2024-07-30T07:41:35Z</time>
      </trkpt>
      <trkpt lat="43.35969" lon="1.16042">
        <ele>248.6</ele>
        <time>2024-07-30T07:41:36Z</time>
      </trkpt>
      <trkpt lat="43.35962" lon="1.16037">
        <ele>248.6</ele>
        <time>2024-07-30T07:41:37Z</time>
      </trkpt>
      <trkpt lat="43.35955" lon="1.1603">
        <ele>248.6</ele>
        <time>2024-07-30T07:41:38Z</time>
      </trkpt>
      <trkpt lat="43.3595" lon="1.16025">
        <ele>248.6</ele>
        <time>2024-07-30T07:41:39Z</time>
      </trkpt>
      <trkpt lat="43.35944" lon="1.16018">
        <ele>248.6</ele>
        <time>2024-07-30T07:41:40Z</time>
      </trkpt>
      <trkpt lat="43.35937" lon="1.1601">
        <ele>248.6</ele>
        <time>2024-07-30T07:41:41Z</time>
      </trkpt>
      <trkpt lat="43.35933" lon="1.16002">
        <ele>248.6</ele>
        <time>2024-07-30T07:41:42Z</time>
      </trkpt>
      <trkpt lat="43.35928" lon="1.15995">
        <ele>248.6</ele>
        <time>2024-07-30T07:41:43Z</time>
      </trkpt>
      <trkpt lat="43.35924" lon="1.15989">
        <ele>248.4</ele>
        <time>2024-07-30T07:41:44Z</time>
      </trkpt>
      <trkpt lat="43.35919" lon="1.15981">
        <ele>248.4</ele>
        <time>2024-07-30T07:41:45Z</time>
      </trkpt>
      <trkpt lat="43.35914" lon="1.15974">
        <ele>248.4</ele>
        <time>2024-07-30T07:41:46Z</time>
      </trkpt>
      <trkpt lat="43.3591" lon="1.15966">
        <ele>248.4</ele>
        <time>2024-07-30T07:41:47Z</time>
      </trkpt>
      <trkpt lat="43.35906" lon="1.15959">
        <ele>248.4</ele>
        <time>2024-07-30T07:41:48Z</time>
      </trkpt>
      <trkpt lat="43.35901" lon="1.15951">
        <ele>248.4</ele>
        <time>2024-07-30T07:41:49Z</time>
      </trkpt>
      <trkpt lat="43.35896" lon="1.15944">
        <ele>248.4</ele>
        <time>2024-07-30T07:41:50Z</time>
      </trkpt>
      <trkpt lat="43.35891" lon="1.15936">
        <ele>248.4</ele>
        <time>2024-07-30T07:41:51Z</time>
      </trkpt>
      <trkpt lat="43.35885" lon="1.15927">
        <ele>248.2</ele>
        <time>2024-07-30T07:41:52Z</time>
      </trkpt>
      <trkpt lat="43.35882" lon="1.15921">
        <ele>248.4</ele>
        <time>2024-07-30T07:41:53Z</time>
      </trkpt>
      <trkpt lat="43.35877" lon="1.15913">
        <ele>248.2</ele>
        <time>2024-07-30T07:41:54Z</time>
      </trkpt>
      <trkpt lat="43.35871" lon="1.15905">
        <ele>248.2</ele>
        <time>2024-07-30T07:41:55Z</time>
      </trkpt>
      <trkpt lat="43.35867" lon="1.15897">
        <ele>248.2</ele>
        <time>2024-07-30T07:41:56Z</time>
      </trkpt>
      <trkpt lat="43.35862" lon="1.1589">
        <ele>248.2</ele>
        <time>2024-07-30T07:41:57Z</time>
      </trkpt>
      <trkpt lat="43.35858" lon="1.15884">
        <ele>248.2</ele>
        <time>2024-07-30T07:41:58Z</time>
      </trkpt>
      <trkpt lat="43.35852" lon="1.15876">
        <ele>248.2</ele>
        <time>2024-07-30T07:41:59Z</time>
      </trkpt>
      <trkpt lat="43.35847" lon="1.15869">
        <ele>248.2</ele>
        <time>2024-07-30T07:42:00Z</time>
      </trkpt>
      <trkpt lat="43.35842" lon="1.1586">
        <ele>248.2</ele>
        <time>2024-07-30T07:42:01Z</time>
      </trkpt>
      <trkpt lat="43.35837" lon="1.15853">
        <ele>248.2</ele>
        <time>2024-07-30T07:42:02Z</time>
      </trkpt>
      <trkpt lat="43.35833" lon="1.15847">
        <ele>248.2</ele>
        <time>2024-07-30T07:42:03Z</time>
      </trkpt>
      <trkpt lat="43.35828" lon="1.1584">
        <ele>248.2</ele>
        <time>2024-07-30T07:42:04Z</time>
      </trkpt>
      <trkpt lat="43.35823" lon="1.15831">
        <ele>248.2</ele>
        <time>2024-07-30T07:42:05Z</time>
      </trkpt>
      <trkpt lat="43.35818" lon="1.15823">
        <ele>248.2</ele>
        <time>2024-07-30T07:42:06Z</time>
      </trkpt>
      <trkpt lat="43.35814" lon="1.15817">
        <ele>248</ele>
        <time>2024-07-30T07:42:07Z</time>
      </trkpt>
      <trkpt lat="43.3581" lon="1.1581">
        <ele>248</ele>
        <time>2024-07-30T07:42:08Z</time>
      </trkpt>
      <trkpt lat="43.35805" lon="1.15802">
        <ele>248</ele>
        <time>2024-07-30T07:42:09Z</time>
      </trkpt>
      <trkpt lat="43.35801" lon="1.15797">
        <ele>248</ele>
        <time>2024-07-30T07:42:10Z</time>
      </trkpt>
      <trkpt lat="43.35795" lon="1.15789">
        <ele>248</ele>
        <time>2024-07-30T07:42:11Z</time>
      </trkpt>
      <trkpt lat="43.35792" lon="1.15784">
        <ele>248</ele>
        <time>2024-07-30T07:42:12Z</time>
      </trkpt>
      <trkpt lat="43.35788" lon="1.15777">
        <ele>248</ele>
        <time>2024-07-30T07:42:13Z</time>
      </trkpt>
      <trkpt lat="43.35783" lon="1.15769">
        <ele>248.2</ele>
        <time>2024-07-30T07:42:14Z</time>
      </trkpt>
      <trkpt lat="43.35778" lon="1.15763">
        <ele>248.2</ele>
        <time>2024-07-30T07:42:15Z</time>
      </trkpt>
      <trkpt lat="43.35775" lon="1.15758">
        <ele>248.4</ele>
        <time>2024-07-30T07:42:16Z</time>
      </trkpt>
      <trkpt lat="43.35772" lon="1.15751">
        <ele>248.4</ele>
        <time>2024-07-30T07:42:17Z</time>
      </trkpt>
      <trkpt lat="43.35769" lon="1.15746">
        <ele>248.6</ele>
        <time>2024-07-30T07:42:18Z</time>
      </trkpt>
      <trkpt lat="43.35766" lon="1.1574">
        <ele>248.8</ele>
        <time>2024-07-30T07:42:19Z</time>
      </trkpt>
      <trkpt lat="43.35761" lon="1.15733">
        <ele>248.8</ele>
        <time>2024-07-30T07:42:20Z</time>
      </trkpt>
      <trkpt lat="43.35757" lon="1.15728">
        <ele>249.2</ele>
        <time>2024-07-30T07:42:21Z</time>
      </trkpt>
      <trkpt lat="43.35752" lon="1.15721">
        <ele>249.2</ele>
        <time>2024-07-30T07:42:22Z</time>
      </trkpt>
      <trkpt lat="43.35747" lon="1.15714">
        <ele>249.4</ele>
        <time>2024-07-30T07:42:23Z</time>
      </trkpt>
      <trkpt lat="43.35742" lon="1.15707">
        <ele>249.4</ele>
        <time>2024-07-30T07:42:24Z</time>
      </trkpt>
      <trkpt lat="43.35738" lon="1.15699">
        <ele>249.6</ele>
        <time>2024-07-30T07:42:25Z</time>
      </trkpt>
      <trkpt lat="43.35733" lon="1.15692">
        <ele>249.6</ele>
        <time>2024-07-30T07:42:26Z</time>
      </trkpt>
      <trkpt lat="43.35728" lon="1.15685">
        <ele>249.8</ele>
        <time>2024-07-30T07:42:27Z</time>
      </trkpt>
      <trkpt lat="43.35723" lon="1.15678">
        <ele>249.8</ele>
        <time>2024-07-30T07:42:28Z</time>
      </trkpt>
      <trkpt lat="43.35718" lon="1.15672">
        <ele>249.8</ele>
        <time>2024-07-30T07:42:29Z</time>
      </trkpt>
      <trkpt lat="43.35712" lon="1.15665">
        <ele>250</ele>
        <time>2024-07-30T07:42:30Z</time>
      </trkpt>
      <trkpt lat="43.35708" lon="1.1566">
        <ele>250</ele>
        <time>2024-07-30T07:42:31Z</time>
      </trkpt>
      <trkpt lat="43.35702" lon="1.15654">
        <ele>250</ele>
        <time>2024-07-30T07:42:32Z</time>
      </trkpt>
      <trkpt lat="43.35696" lon="1.15647">
        <ele>250</ele>
        <time>2024-07-30T07:42:33Z</time>
      </trkpt>
      <trkpt lat="43.35688" lon="1.1564">
        <ele>250</ele>
        <time>2024-07-30T07:42:34Z</time>
      </trkpt>
      <trkpt lat="43.35681" lon="1.15635">
        <ele>250</ele>
        <time>2024-07-30T07:42:35Z</time>
      </trkpt>
      <trkpt lat="43.35674" lon="1.15629">
        <ele>249.8</ele>
        <time>2024-07-30T07:42:36Z</time>
      </trkpt>
      <trkpt lat="43.35666" lon="1.15623">
        <ele>249.8</ele>
        <time>2024-07-30T07:42:37Z</time>
      </trkpt>
      <trkpt lat="43.3566" lon="1.15618">
        <ele>249.8</ele>
        <time>2024-07-30T07:42:38Z</time>
      </trkpt>
      <trkpt lat="43.35654" lon="1.15612">
        <ele>250</ele>
        <time>2024-07-30T07:42:39Z</time>
      </trkpt>
      <trkpt lat="43.35649" lon="1.15608">
        <ele>250</ele>
        <time>2024-07-30T07:42:40Z</time>
      </trkpt>
      <trkpt lat="43.35643" lon="1.15602">
        <ele>250</ele>
        <time>2024-07-30T07:42:41Z</time>
      </trkpt>
      <trkpt lat="43.35635" lon="1.15596">
        <ele>249.8</ele>
        <time>2024-07-30T07:42:42Z</time>
      </trkpt>
      <trkpt lat="43.35628" lon="1.15591">
        <ele>249.8</ele>
        <time>2024-07-30T07:42:43Z</time>
      </trkpt>
      <trkpt lat="43.35623" lon="1.15587">
        <ele>249.8</ele>
        <time>2024-07-30T07:42:44Z</time>
      </trkpt>
      <trkpt lat="43.35617" lon="1.15581">
        <ele>249.8</ele>
        <time>2024-07-30T07:42:45Z</time>
      </trkpt>
      <trkpt lat="43.35609" lon="1.15575">
        <ele>250</ele>
        <time>2024-07-30T07:42:46Z</time>
      </trkpt>
      <trkpt lat="43.35603" lon="1.1557">
        <ele>250</ele>
        <time>2024-07-30T07:42:47Z</time>
      </trkpt>
      <trkpt lat="43.35597" lon="1.15565">
        <ele>250</ele>
        <time>2024-07-30T07:42:48Z</time>
      </trkpt>
      <trkpt lat="43.35593" lon="1.15561">
        <ele>250</ele>
        <time>2024-07-30T07:42:49Z</time>
      </trkpt>
      <trkpt lat="43.35586" lon="1.15556">
        <ele>250.2</ele>
        <time>2024-07-30T07:42:50Z</time>
      </trkpt>
      <trkpt lat="43.3558" lon="1.15551">
        <ele>250.2</ele>
        <time>2024-07-30T07:42:51Z</time>
      </trkpt>
      <trkpt lat="43.35573" lon="1.15545">
        <ele>250.2</ele>
        <time>2024-07-30T07:42:52Z</time>
      </trkpt>
      <trkpt lat="43.35566" lon="1.1554">
        <ele>250.2</ele>
        <time>2024-07-30T07:42:53Z</time>
      </trkpt>
      <trkpt lat="43.35561" lon="1.15536">
        <ele>250.2</ele>
        <time>2024-07-30T07:42:54Z</time>
      </trkpt>
      <trkpt lat="43.35555" lon="1.15531">
        <ele>250.2</ele>
        <time>2024-07-30T07:42:55Z</time>
      </trkpt>
      <trkpt lat="43.35549" lon="1.15526">
        <ele>250.2</ele>
        <time>2024-07-30T07:42:56Z</time>
      </trkpt>
      <trkpt lat="43.35541" lon="1.1552">
        <ele>250.2</ele>
        <time>2024-07-30T07:42:57Z</time>
      </trkpt>
      <trkpt lat="43.35535" lon="1.15517">
        <ele>250.2</ele>
        <time>2024-07-30T07:42:58Z</time>
      </trkpt>
      <trkpt lat="43.35529" lon="1.15512">
        <ele>250</ele>
        <time>2024-07-30T07:42:59Z</time>
      </trkpt>
      <trkpt lat="43.35521" lon="1.15507">
        <ele>250</ele>
        <time>2024-07-30T07:43:00Z</time>
      </trkpt>
      <trkpt lat="43.35514" lon="1.15502">
        <ele>249.8</ele>
        <time>2024-07-30T07:43:01Z</time>
      </trkpt>
      <trkpt lat="43.35508" lon="1.15497">
        <ele>249.8</ele>
        <time>2024-07-30T07:43:02Z</time>
      </trkpt>
      <trkpt lat="43.35502" lon="1.15493">
        <ele>249.8</ele>
        <time>2024-07-30T07:43:03Z</time>
      </trkpt>
      <trkpt lat="43.35496" lon="1.15489">
        <ele>249.8</ele>
        <time>2024-07-30T07:43:04Z</time>
      </trkpt>
      <trkpt lat="43.35487" lon="1.15483">
        <ele>249.6</ele>
        <time>2024-07-30T07:43:05Z</time>
      </trkpt>
      <trkpt lat="43.3548" lon="1.15478">
        <ele>249.6</ele>
        <time>2024-07-30T07:43:06Z</time>
      </trkpt>
      <trkpt lat="43.35474" lon="1.15473">
        <ele>249.4</ele>
        <time>2024-07-30T07:43:07Z</time>
      </trkpt>
      <trkpt lat="43.35468" lon="1.1547">
        <ele>249.4</ele>
        <time>2024-07-30T07:43:08Z</time>
      </trkpt>
      <trkpt lat="43.35461" lon="1.15465">
        <ele>249.2</ele>
        <time>2024-07-30T07:43:09Z</time>
      </trkpt>
      <trkpt lat="43.35455" lon="1.1546">
        <ele>249.2</ele>
        <time>2024-07-30T07:43:10Z</time>
      </trkpt>
      <trkpt lat="43.35447" lon="1.15454">
        <ele>249.2</ele>
        <time>2024-07-30T07:43:11Z</time>
      </trkpt>
      <trkpt lat="43.35442" lon="1.15451">
        <ele>249.2</ele>
        <time>2024-07-30T07:43:12Z</time>
      </trkpt>
      <trkpt lat="43.35435" lon="1.15446">
        <ele>249.2</ele>
        <time>2024-07-30T07:43:13Z</time>
      </trkpt>
      <trkpt lat="43.35429" lon="1.15442">
        <ele>249.2</ele>
        <time>2024-07-30T07:43:14Z</time>
      </trkpt>
      <trkpt lat="43.35423" lon="1.15438">
        <ele>249.2</ele>
        <time>2024-07-30T07:43:15Z</time>
      </trkpt>
      <trkpt lat="43.35417" lon="1.15433">
        <ele>249.2</ele>
        <time>2024-07-30T07:43:16Z</time>
      </trkpt>
      <trkpt lat="43.35411" lon="1.15429">
        <ele>249.2</ele>
        <time>2024-07-30T07:43:17Z</time>
      </trkpt>
      <trkpt lat="43.35405" lon="1.15425">
        <ele>249.4</ele>
        <time>2024-07-30T07:43:18Z</time>
      </trkpt>
      <trkpt lat="43.354" lon="1.15421">
        <ele>249.4</ele>
        <time>2024-07-30T07:43:19Z</time>
      </trkpt>
      <trkpt lat="43.35394" lon="1.15416">
        <ele>249.6</ele>
        <time>2024-07-30T07:43:20Z</time>
      </trkpt>
      <trkpt lat="43.35387" lon="1.15411">
        <ele>249.6</ele>
        <time>2024-07-30T07:43:21Z</time>
      </trkpt>
      <trkpt lat="43.35382" lon="1.15407">
        <ele>249.6</ele>
        <time>2024-07-30T07:43:22Z</time>
      </trkpt>
      <trkpt lat="43.35376" lon="1.15402">
        <ele>249.6</ele>
        <time>2024-07-30T07:43:23Z</time>
      </trkpt>
      <trkpt lat="43.35369" lon="1.15396">
        <ele>249.8</ele>
        <time>2024-07-30T07:43:24Z</time>
      </trkpt>
      <trkpt lat="43.35363" lon="1.1539">
        <ele>249.8</ele>
        <time>2024-07-30T07:43:25Z</time>
      </trkpt>
      <trkpt lat="43.35358" lon="1.15386">
        <ele>250</ele>
        <time>2024-07-30T07:43:26Z</time>
      </trkpt>
      <trkpt lat="43.35352" lon="1.15381">
        <ele>250</ele>
        <time>2024-07-30T07:43:27Z</time>
      </trkpt>
      <trkpt lat="43.35345" lon="1.15375">
        <ele>250</ele>
        <time>2024-07-30T07:43:28Z</time>
      </trkpt>
      <trkpt lat="43.35338" lon="1.15369">
        <ele>250</ele>
        <time>2024-07-30T07:43:29Z</time>
      </trkpt>
      <trkpt lat="43.35332" lon="1.15363">
        <ele>250</ele>
        <time>2024-07-30T07:43:30Z</time>
      </trkpt>
      <trkpt lat="43.35326" lon="1.15357">
        <ele>250</ele>
        <time>2024-07-30T07:43:31Z</time>
      </trkpt>
      <trkpt lat="43.35321" lon="1.15352">
        <ele>250.2</ele>
        <time>2024-07-30T07:43:32Z</time>
      </trkpt>
      <trkpt lat="43.35315" lon="1.15347">
        <ele>250.2</ele>
        <time>2024-07-30T07:43:33Z</time>
      </trkpt>
      <trkpt lat="43.35309" lon="1.15341">
        <ele>250.2</ele>
        <time>2024-07-30T07:43:34Z</time>
      </trkpt>
      <trkpt lat="43.35302" lon="1.15334">
        <ele>250.2</ele>
        <time>2024-07-30T07:43:35Z</time>
      </trkpt>
      <trkpt lat="43.35296" lon="1.15328">
        <ele>250.2</ele>
        <time>2024-07-30T07:43:36Z</time>
      </trkpt>
      <trkpt lat="43.35292" lon="1.15323">
        <ele>250.4</ele>
        <time>2024-07-30T07:43:37Z</time>
      </trkpt>
      <trkpt lat="43.35286" lon="1.15316">
        <ele>250.4</ele>
        <time>2024-07-30T07:43:38Z</time>
      </trkpt>
      <trkpt lat="43.3528" lon="1.1531">
        <ele>250.4</ele>
        <time>2024-07-30T07:43:39Z</time>
      </trkpt>
      <trkpt lat="43.35273" lon="1.15302">
        <ele>250.4</ele>
        <time>2024-07-30T07:43:40Z</time>
      </trkpt>
      <trkpt lat="43.35269" lon="1.15297">
        <ele>250.6</ele>
        <time>2024-07-30T07:43:41Z</time>
      </trkpt>
      <trkpt lat="43.35264" lon="1.15291">
        <ele>250.6</ele>
        <time>2024-07-30T07:43:42Z</time>
      </trkpt>
      <trkpt lat="43.35258" lon="1.15283">
        <ele>250.4</ele>
        <time>2024-07-30T07:43:43Z</time>
      </trkpt>
      <trkpt lat="43.35253" lon="1.15277">
        <ele>250.4</ele>
        <time>2024-07-30T07:43:44Z</time>
      </trkpt>
      <trkpt lat="43.35248" lon="1.1527">
        <ele>250.4</ele>
        <time>2024-07-30T07:43:45Z</time>
      </trkpt>
      <trkpt lat="43.35244" lon="1.15265">
        <ele>250.4</ele>
        <time>2024-07-30T07:43:46Z</time>
      </trkpt>
      <trkpt lat="43.35239" lon="1.15258">
        <ele>250.4</ele>
        <time>2024-07-30T07:43:47Z</time>
      </trkpt>
      <trkpt lat="43.35234" lon="1.1525">
        <ele>250.6</ele>
        <time>2024-07-30T07:43:48Z</time>
      </trkpt>
      <trkpt lat="43.3523" lon="1.15242">
        <ele>250.8</ele>
        <time>2024-07-30T07:43:49Z</time>
      </trkpt>
      <trkpt lat="43.35227" lon="1.15235">
        <ele>251</ele>
        <time>2024-07-30T07:43:50Z</time>
      </trkpt>
      <trkpt lat="43.35224" lon="1.15227">
        <ele>251</ele>
        <time>2024-07-30T07:43:51Z</time>
      </trkpt>
      <trkpt lat="43.35221" lon="1.15218">
        <ele>251.2</ele>
        <time>2024-07-30T07:43:52Z</time>
      </trkpt>
      <trkpt lat="43.35218" lon="1.15208">
        <ele>251.2</ele>
        <time>2024-07-30T07:43:53Z</time>
      </trkpt>
      <trkpt lat="43.35216" lon="1.15197">
        <ele>251.2</ele>
        <time>2024-07-30T07:43:54Z</time>
      </trkpt>
      <trkpt lat="43.35214" lon="1.15189">
        <ele>251.4</ele>
        <time>2024-07-30T07:43:55Z</time>
      </trkpt>
      <trkpt lat="43.35212" lon="1.15179">
        <ele>251.4</ele>
        <time>2024-07-30T07:43:56Z</time>
      </trkpt>
      <trkpt lat="43.35211" lon="1.15169">
        <ele>251.4</ele>
        <time>2024-07-30T07:43:57Z</time>
      </trkpt>
      <trkpt lat="43.3521" lon="1.15159">
        <ele>251.6</ele>
        <time>2024-07-30T07:43:58Z</time>
      </trkpt>
      <trkpt lat="43.35209" lon="1.15148">
        <ele>251.6</ele>
        <time>2024-07-30T07:43:59Z</time>
      </trkpt>
      <trkpt lat="43.35207" lon="1.15138">
        <ele>251.6</ele>
        <time>2024-07-30T07:44:00Z</time>
      </trkpt>
      <trkpt lat="43.35206" lon="1.15127">
        <ele>251.6</ele>
        <time>2024-07-30T07:44:01Z</time>
      </trkpt>
      <trkpt lat="43.35205" lon="1.15117">
        <ele>251.6</ele>
        <time>2024-07-30T07:44:02Z</time>
      </trkpt>
      <trkpt lat="43.35203" lon="1.15104">
        <ele>251.8</ele>
        <time>2024-07-30T07:44:03Z</time>
      </trkpt>
      <trkpt lat="43.35202" lon="1.15094">
        <ele>251.6</ele>
        <time>2024-07-30T07:44:04Z</time>
      </trkpt>
      <trkpt lat="43.352" lon="1.15083">
        <ele>251.8</ele>
        <time>2024-07-30T07:44:05Z</time>
      </trkpt>
      <trkpt lat="43.35199" lon="1.15074">
        <ele>251.8</ele>
        <time>2024-07-30T07:44:06Z</time>
      </trkpt>
      <trkpt lat="43.35197" lon="1.15064">
        <ele>251.8</ele>
        <time>2024-07-30T07:44:07Z</time>
      </trkpt>
      <trkpt lat="43.35196" lon="1.15051">
        <ele>251.8</ele>
        <time>2024-07-30T07:44:08Z</time>
      </trkpt>
      <trkpt lat="43.35194" lon="1.15041">
        <ele>251.8</ele>
        <time>2024-07-30T07:44:09Z</time>
      </trkpt>
      <trkpt lat="43.35192" lon="1.15033">
        <ele>251.8</ele>
        <time>2024-07-30T07:44:10Z</time>
      </trkpt>
      <trkpt lat="43.35189" lon="1.15022">
        <ele>251.8</ele>
        <time>2024-07-30T07:44:11Z</time>
      </trkpt>
      <trkpt lat="43.35186" lon="1.1501">
        <ele>251.8</ele>
        <time>2024-07-30T07:44:12Z</time>
      </trkpt>
      <trkpt lat="43.35182" lon="1.15001">
        <ele>251.8</ele>
        <time>2024-07-30T07:44:13Z</time>
      </trkpt>
      <trkpt lat="43.35178" lon="1.14991">
        <ele>251.8</ele>
        <time>2024-07-30T07:44:14Z</time>
      </trkpt>
      <trkpt lat="43.35174" lon="1.14983">
        <ele>251.8</ele>
        <time>2024-07-30T07:44:15Z</time>
      </trkpt>
      <trkpt lat="43.35169" lon="1.14974">
        <ele>251.8</ele>
        <time>2024-07-30T07:44:16Z</time>
      </trkpt>
      <trkpt lat="43.35163" lon="1.14964">
        <ele>251.8</ele>
        <time>2024-07-30T07:44:17Z</time>
      </trkpt>
      <trkpt lat="43.35158" lon="1.14956">
        <ele>251.8</ele>
        <time>2024-07-30T07:44:18Z</time>
      </trkpt>
      <trkpt lat="43.35152" lon="1.14948">
        <ele>251.6</ele>
        <time>2024-07-30T07:44:19Z</time>
      </trkpt>
      <trkpt lat="43.35148" lon="1.14942">
        <ele>251.6</ele>
        <time>2024-07-30T07:44:20Z</time>
      </trkpt>
      <trkpt lat="43.35143" lon="1.14934">
        <ele>251.6</ele>
        <time>2024-07-30T07:44:21Z</time>
      </trkpt>
      <trkpt lat="43.35136" lon="1.14924">
        <ele>251.6</ele>
        <time>2024-07-30T07:44:22Z</time>
      </trkpt>
      <trkpt lat="43.3513" lon="1.14916">
        <ele>251.6</ele>
        <time>2024-07-30T07:44:23Z</time>
      </trkpt>
      <trkpt lat="43.35126" lon="1.14909">
        <ele>251.6</ele>
        <time>2024-07-30T07:44:24Z</time>
      </trkpt>
      <trkpt lat="43.3512" lon="1.14901">
        <ele>251.6</ele>
        <time>2024-07-30T07:44:25Z</time>
      </trkpt>
      <trkpt lat="43.35113" lon="1.14891">
        <ele>251.8</ele>
        <time>2024-07-30T07:44:26Z</time>
      </trkpt>
      <trkpt lat="43.35108" lon="1.14883">
        <ele>251.8</ele>
        <time>2024-07-30T07:44:27Z</time>
      </trkpt>
      <trkpt lat="43.35104" lon="1.14875">
        <ele>252</ele>
        <time>2024-07-30T07:44:28Z</time>
      </trkpt>
      <trkpt lat="43.351" lon="1.14869">
        <ele>252</ele>
        <time>2024-07-30T07:44:29Z</time>
      </trkpt>
      <trkpt lat="43.35095" lon="1.14861">
        <ele>252</ele>
        <time>2024-07-30T07:44:30Z</time>
      </trkpt>
      <trkpt lat="43.3509" lon="1.14853">
        <ele>252.2</ele>
        <time>2024-07-30T07:44:31Z</time>
      </trkpt>
      <trkpt lat="43.35085" lon="1.14844">
        <ele>252.2</ele>
        <time>2024-07-30T07:44:32Z</time>
      </trkpt>
      <trkpt lat="43.35081" lon="1.14838">
        <ele>252.4</ele>
        <time>2024-07-30T07:44:33Z</time>
      </trkpt>
      <trkpt lat="43.35075" lon="1.1483">
        <ele>252.4</ele>
        <time>2024-07-30T07:44:34Z</time>
      </trkpt>
      <trkpt lat="43.3507" lon="1.1482">
        <ele>252.6</ele>
        <time>2024-07-30T07:44:35Z</time>
      </trkpt>
      <trkpt lat="43.35066" lon="1.14814">
        <ele>252.6</ele>
        <time>2024-07-30T07:44:36Z</time>
      </trkpt>
      <trkpt lat="43.35059" lon="1.14804">
        <ele>252.8</ele>
        <time>2024-07-30T07:44:37Z</time>
      </trkpt>
      <trkpt lat="43.35055" lon="1.14798">
        <ele>252.8</ele>
        <time>2024-07-30T07:44:38Z</time>
      </trkpt>
      <trkpt lat="43.3505" lon="1.1479">
        <ele>252.8</ele>
        <time>2024-07-30T07:44:39Z</time>
      </trkpt>
      <trkpt lat="43.35045" lon="1.1478">
        <ele>253</ele>
        <time>2024-07-30T07:44:40Z</time>
      </trkpt>
      <trkpt lat="43.3504" lon="1.14772">
        <ele>253</ele>
        <time>2024-07-30T07:44:41Z</time>
      </trkpt>
      <trkpt lat="43.35035" lon="1.14764">
        <ele>253.2</ele>
        <time>2024-07-30T07:44:42Z</time>
      </trkpt>
      <trkpt lat="43.35031" lon="1.14758">
        <ele>253.2</ele>
        <time>2024-07-30T07:44:43Z</time>
      </trkpt>
      <trkpt lat="43.35026" lon="1.14751">
        <ele>253.4</ele>
        <time>2024-07-30T07:44:44Z</time>
      </trkpt>
      <trkpt lat="43.35021" lon="1.14743">
        <ele>253.4</ele>
        <time>2024-07-30T07:44:45Z</time>
      </trkpt>
      <trkpt lat="43.35015" lon="1.14734">
        <ele>253.6</ele>
        <time>2024-07-30T07:44:46Z</time>
      </trkpt>
      <trkpt lat="43.3501" lon="1.14726">
        <ele>253.6</ele>
        <time>2024-07-30T07:44:47Z</time>
      </trkpt>
      <trkpt lat="43.35006" lon="1.1472">
        <ele>253.6</ele>
        <time>2024-07-30T07:44:48Z</time>
      </trkpt>
      <trkpt lat="43.35001" lon="1.14712">
        <ele>253.6</ele>
        <time>2024-07-30T07:44:49Z</time>
      </trkpt>
      <trkpt lat="43.34995" lon="1.14702">
        <ele>253.6</ele>
        <time>2024-07-30T07:44:50Z</time>
      </trkpt>
      <trkpt lat="43.3499" lon="1.14694">
        <ele>253.6</ele>
        <time>2024-07-30T07:44:51Z</time>
      </trkpt>
      <trkpt lat="43.34986" lon="1.14688">
        <ele>253.4</ele>
        <time>2024-07-30T07:44:52Z</time>
      </trkpt>
      <trkpt lat="43.3498" lon="1.14681">
        <ele>253.4</ele>
        <time>2024-07-30T07:44:53Z</time>
      </trkpt>
      <trkpt lat="43.34974" lon="1.14671">
        <ele>253.4</ele>
        <time>2024-07-30T07:44:54Z</time>
      </trkpt>
      <trkpt lat="43.34969" lon="1.14663">
        <ele>253.2</ele>
        <time>2024-07-30T07:44:55Z</time>
      </trkpt>
      <trkpt lat="43.34964" lon="1.14655">
        <ele>253.2</ele>
        <time>2024-07-30T07:44:56Z</time>
      </trkpt>
      <trkpt lat="43.3496" lon="1.14649">
        <ele>253.2</ele>
        <time>2024-07-30T07:44:57Z</time>
      </trkpt>
      <trkpt lat="43.34955" lon="1.14641">
        <ele>253.2</ele>
        <time>2024-07-30T07:44:58Z</time>
      </trkpt>
      <trkpt lat="43.34949" lon="1.14632">
        <ele>253.2</ele>
        <time>2024-07-30T07:44:59Z</time>
      </trkpt>
      <trkpt lat="43.34943" lon="1.14624">
        <ele>253.2</ele>
        <time>2024-07-30T07:45:00Z</time>
      </trkpt>
      <trkpt lat="43.34939" lon="1.14618">
        <ele>253.2</ele>
        <time>2024-07-30T07:45:01Z</time>
      </trkpt>
      <trkpt lat="43.34934" lon="1.1461">
        <ele>253.2</ele>
        <time>2024-07-30T07:45:02Z</time>
      </trkpt>
      <trkpt lat="43.34929" lon="1.14603">
        <ele>253.2</ele>
        <time>2024-07-30T07:45:03Z</time>
      </trkpt>
      <trkpt lat="43.34924" lon="1.14595">
        <ele>253.2</ele>
        <time>2024-07-30T07:45:04Z</time>
      </trkpt>
      <trkpt lat="43.34918" lon="1.14586">
        <ele>253.4</ele>
        <time>2024-07-30T07:45:05Z</time>
      </trkpt>
      <trkpt lat="43.34914" lon="1.14579">
        <ele>253.2</ele>
        <time>2024-07-30T07:45:06Z</time>
      </trkpt>
      <trkpt lat="43.34909" lon="1.14571">
        <ele>253.2</ele>
        <time>2024-07-30T07:45:07Z</time>
      </trkpt>
      <trkpt lat="43.34903" lon="1.14561">
        <ele>253.2</ele>
        <time>2024-07-30T07:45:08Z</time>
      </trkpt>
      <trkpt lat="43.34898" lon="1.14553">
        <ele>253.2</ele>
        <time>2024-07-30T07:45:09Z</time>
      </trkpt>
      <trkpt lat="43.34894" lon="1.14546">
        <ele>253</ele>
        <time>2024-07-30T07:45:10Z</time>
      </trkpt>
      <trkpt lat="43.34889" lon="1.14538">
        <ele>253</ele>
        <time>2024-07-30T07:45:11Z</time>
      </trkpt>
      <trkpt lat="43.34885" lon="1.14529">
        <ele>253</ele>
        <time>2024-07-30T07:45:12Z</time>
      </trkpt>
      <trkpt lat="43.34879" lon="1.14519">
        <ele>253</ele>
        <time>2024-07-30T07:45:13Z</time>
      </trkpt>
      <trkpt lat="43.34875" lon="1.14511">
        <ele>252.8</ele>
        <time>2024-07-30T07:45:14Z</time>
      </trkpt>
      <trkpt lat="43.34871" lon="1.14504">
        <ele>252.8</ele>
        <time>2024-07-30T07:45:15Z</time>
      </trkpt>
      <trkpt lat="43.34866" lon="1.14496">
        <ele>252.8</ele>
        <time>2024-07-30T07:45:16Z</time>
      </trkpt>
      <trkpt lat="43.34862" lon="1.14487">
        <ele>252.8</ele>
        <time>2024-07-30T07:45:17Z</time>
      </trkpt>
      <trkpt lat="43.34857" lon="1.14479">
        <ele>252.8</ele>
        <time>2024-07-30T07:45:18Z</time>
      </trkpt>
      <trkpt lat="43.34852" lon="1.14469">
        <ele>252.8</ele>
        <time>2024-07-30T07:45:19Z</time>
      </trkpt>
      <trkpt lat="43.34848" lon="1.14463">
        <ele>252.8</ele>
        <time>2024-07-30T07:45:20Z</time>
      </trkpt>
      <trkpt lat="43.34844" lon="1.14455">
        <ele>252.8</ele>
        <time>2024-07-30T07:45:21Z</time>
      </trkpt>
      <trkpt lat="43.34838" lon="1.14445">
        <ele>253</ele>
        <time>2024-07-30T07:45:22Z</time>
      </trkpt>
      <trkpt lat="43.34833" lon="1.14437">
        <ele>253.2</ele>
        <time>2024-07-30T07:45:23Z</time>
      </trkpt>
      <trkpt lat="43.34828" lon="1.14429">
        <ele>253.2</ele>
        <time>2024-07-30T07:45:24Z</time>
      </trkpt>
      <trkpt lat="43.34825" lon="1.14422">
        <ele>253.4</ele>
        <time>2024-07-30T07:45:25Z</time>
      </trkpt>
      <trkpt lat="43.3482" lon="1.14414">
        <ele>253.4</ele>
        <time>2024-07-30T07:45:26Z</time>
      </trkpt>
      <trkpt lat="43.34814" lon="1.14405">
        <ele>253.4</ele>
        <time>2024-07-30T07:45:27Z</time>
      </trkpt>
      <trkpt lat="43.34809" lon="1.14396">
        <ele>253.6</ele>
        <time>2024-07-30T07:45:28Z</time>
      </trkpt>
      <trkpt lat="43.34804" lon="1.14388">
        <ele>253.6</ele>
        <time>2024-07-30T07:45:29Z</time>
      </trkpt>
      <trkpt lat="43.348" lon="1.14382">
        <ele>253.6</ele>
        <time>2024-07-30T07:45:30Z</time>
      </trkpt>
      <trkpt lat="43.34794" lon="1.14372">
        <ele>253.6</ele>
        <time>2024-07-30T07:45:31Z</time>
      </trkpt>
      <trkpt lat="43.34789" lon="1.14364">
        <ele>253.8</ele>
        <time>2024-07-30T07:45:32Z</time>
      </trkpt>
      <trkpt lat="43.34784" lon="1.14356">
        <ele>253.8</ele>
        <time>2024-07-30T07:45:33Z</time>
      </trkpt>
      <trkpt lat="43.3478" lon="1.14349">
        <ele>254.2</ele>
        <time>2024-07-30T07:45:34Z</time>
      </trkpt>
      <trkpt lat="43.34776" lon="1.14341">
        <ele>254.2</ele>
        <time>2024-07-30T07:45:35Z</time>
      </trkpt>
      <trkpt lat="43.3477" lon="1.14331">
        <ele>254</ele>
        <time>2024-07-30T07:45:36Z</time>
      </trkpt>
      <trkpt lat="43.34765" lon="1.14322">
        <ele>254</ele>
        <time>2024-07-30T07:45:37Z</time>
      </trkpt>
      <trkpt lat="43.34759" lon="1.14314">
        <ele>254</ele>
        <time>2024-07-30T07:45:38Z</time>
      </trkpt>
      <trkpt lat="43.34755" lon="1.14307">
        <ele>254</ele>
        <time>2024-07-30T07:45:39Z</time>
      </trkpt>
      <trkpt lat="43.3475" lon="1.14299">
        <ele>254</ele>
        <time>2024-07-30T07:45:40Z</time>
      </trkpt>
      <trkpt lat="43.34744" lon="1.14289">
        <ele>254</ele>
        <time>2024-07-30T07:45:41Z</time>
      </trkpt>
      <trkpt lat="43.34739" lon="1.1428">
        <ele>254</ele>
        <time>2024-07-30T07:45:42Z</time>
      </trkpt>
      <trkpt lat="43.34734" lon="1.14272">
        <ele>254</ele>
        <time>2024-07-30T07:45:43Z</time>
      </trkpt>
      <trkpt lat="43.3473" lon="1.14265">
        <ele>254.2</ele>
        <time>2024-07-30T07:45:44Z</time>
      </trkpt>
      <trkpt lat="43.34724" lon="1.14255">
        <ele>254.2</ele>
        <time>2024-07-30T07:45:45Z</time>
      </trkpt>
      <trkpt lat="43.34719" lon="1.14246">
        <ele>254.2</ele>
        <time>2024-07-30T07:45:46Z</time>
      </trkpt>
      <trkpt lat="43.34714" lon="1.14238">
        <ele>254.2</ele>
        <time>2024-07-30T07:45:47Z</time>
      </trkpt>
      <trkpt lat="43.3471" lon="1.14231">
        <ele>254.2</ele>
        <time>2024-07-30T07:45:48Z</time>
      </trkpt>
      <trkpt lat="43.34705" lon="1.14222">
        <ele>254.2</ele>
        <time>2024-07-30T07:45:49Z</time>
      </trkpt>
      <trkpt lat="43.34699" lon="1.14212">
        <ele>254.4</ele>
        <time>2024-07-30T07:45:50Z</time>
      </trkpt>
      <trkpt lat="43.34694" lon="1.14203">
        <ele>254.4</ele>
        <time>2024-07-30T07:45:51Z</time>
      </trkpt>
      <trkpt lat="43.34689" lon="1.14194">
        <ele>254.4</ele>
        <time>2024-07-30T07:45:52Z</time>
      </trkpt>
      <trkpt lat="43.34685" lon="1.14187">
        <ele>254.4</ele>
        <time>2024-07-30T07:45:53Z</time>
      </trkpt>
      <trkpt lat="43.3468" lon="1.14178">
        <ele>254.4</ele>
        <time>2024-07-30T07:45:54Z</time>
      </trkpt>
      <trkpt lat="43.34674" lon="1.14168">
        <ele>254.4</ele>
        <time>2024-07-30T07:45:55Z</time>
      </trkpt>
      <trkpt lat="43.34669" lon="1.1416">
        <ele>254.4</ele>
        <time>2024-07-30T07:45:56Z</time>
      </trkpt>
      <trkpt lat="43.34664" lon="1.14153">
        <ele>254.4</ele>
        <time>2024-07-30T07:45:57Z</time>
      </trkpt>
      <trkpt lat="43.34659" lon="1.14145">
        <ele>254.4</ele>
        <time>2024-07-30T07:45:58Z</time>
      </trkpt>
      <trkpt lat="43.34652" lon="1.14135">
        <ele>254.4</ele>
        <time>2024-07-30T07:45:59Z</time>
      </trkpt>
      <trkpt lat="43.34647" lon="1.14127">
        <ele>254.4</ele>
        <time>2024-07-30T07:46:00Z</time>
      </trkpt>
      <trkpt lat="43.34641" lon="1.14119">
        <ele>254.4</ele>
        <time>2024-07-30T07:46:01Z</time>
      </trkpt>
      <trkpt lat="43.34637" lon="1.14112">
        <ele>254.4</ele>
        <time>2024-07-30T07:46:02Z</time>
      </trkpt>
      <trkpt lat="43.34631" lon="1.14104">
        <ele>254.4</ele>
        <time>2024-07-30T07:46:03Z</time>
      </trkpt>
      <trkpt lat="43.34624" lon="1.14095">
        <ele>254.4</ele>
        <time>2024-07-30T07:46:04Z</time>
      </trkpt>
      <trkpt lat="43.34618" lon="1.14087">
        <ele>254.4</ele>
        <time>2024-07-30T07:46:05Z</time>
      </trkpt>
      <trkpt lat="43.34612" lon="1.14079">
        <ele>254.4</ele>
        <time>2024-07-30T07:46:06Z</time>
      </trkpt>
      <trkpt lat="43.34608" lon="1.14073">
        <ele>254.2</ele>
        <time>2024-07-30T07:46:07Z</time>
      </trkpt>
      <trkpt lat="43.34602" lon="1.14065">
        <ele>254.2</ele>
        <time>2024-07-30T07:46:08Z</time>
      </trkpt>
      <trkpt lat="43.34596" lon="1.14057">
        <ele>254</ele>
        <time>2024-07-30T07:46:09Z</time>
      </trkpt>
      <trkpt lat="43.3459" lon="1.14048">
        <ele>254</ele>
        <time>2024-07-30T07:46:10Z</time>
      </trkpt>
      <trkpt lat="43.34585" lon="1.14041">
        <ele>254</ele>
        <time>2024-07-30T07:46:11Z</time>
      </trkpt>
      <trkpt lat="43.3458" lon="1.14035">
        <ele>254</ele>
        <time>2024-07-30T07:46:12Z</time>
      </trkpt>
      <trkpt lat="43.34574" lon="1.14027">
        <ele>254.2</ele>
        <time>2024-07-30T07:46:13Z</time>
      </trkpt>
      <trkpt lat="43.34569" lon="1.14021">
        <ele>254.2</ele>
        <time>2024-07-30T07:46:14Z</time>
      </trkpt>
      <trkpt lat="43.34565" lon="1.14014">
        <ele>254.2</ele>
        <time>2024-07-30T07:46:15Z</time>
      </trkpt>
      <trkpt lat="43.34561" lon="1.14009">
        <ele>254.2</ele>
        <time>2024-07-30T07:46:16Z</time>
      </trkpt>
      <trkpt lat="43.34556" lon="1.14002">
        <ele>254.4</ele>
        <time>2024-07-30T07:46:17Z</time>
      </trkpt>
      <trkpt lat="43.34551" lon="1.13995">
        <ele>254.4</ele>
        <time>2024-07-30T07:46:18Z</time>
      </trkpt>
      <trkpt lat="43.34546" lon="1.13988">
        <ele>254.4</ele>
        <time>2024-07-30T07:46:19Z</time>
      </trkpt>
      <trkpt lat="43.34542" lon="1.13982">
        <ele>254.4</ele>
        <time>2024-07-30T07:46:20Z</time>
      </trkpt>
      <trkpt lat="43.34538" lon="1.13977">
        <ele>254.4</ele>
        <time>2024-07-30T07:46:21Z</time>
      </trkpt>
      <trkpt lat="43.34534" lon="1.13971">
        <ele>254.4</ele>
        <time>2024-07-30T07:46:22Z</time>
      </trkpt>
      <trkpt lat="43.34529" lon="1.13964">
        <ele>254.6</ele>
        <time>2024-07-30T07:46:23Z</time>
      </trkpt>
      <trkpt lat="43.34524" lon="1.13957">
        <ele>254.6</ele>
        <time>2024-07-30T07:46:24Z</time>
      </trkpt>
      <trkpt lat="43.3452" lon="1.13951">
        <ele>254.6</ele>
        <time>2024-07-30T07:46:25Z</time>
      </trkpt>
      <trkpt lat="43.34516" lon="1.13946">
        <ele>254.6</ele>
        <time>2024-07-30T07:46:26Z</time>
      </trkpt>
      <trkpt lat="43.3451" lon="1.13939">
        <ele>254.6</ele>
        <time>2024-07-30T07:46:27Z</time>
      </trkpt>
      <trkpt lat="43.34506" lon="1.13933">
        <ele>254.8</ele>
        <time>2024-07-30T07:46:28Z</time>
      </trkpt>
      <trkpt lat="43.34501" lon="1.13927">
        <ele>255</ele>
        <time>2024-07-30T07:46:29Z</time>
      </trkpt>
      <trkpt lat="43.34498" lon="1.13922">
        <ele>255</ele>
        <time>2024-07-30T07:46:30Z</time>
      </trkpt>
      <trkpt lat="43.34494" lon="1.13915">
        <ele>255</ele>
        <time>2024-07-30T07:46:31Z</time>
      </trkpt>
      <trkpt lat="43.34488" lon="1.13908">
        <ele>255</ele>
        <time>2024-07-30T07:46:32Z</time>
      </trkpt>
      <trkpt lat="43.34483" lon="1.13902">
        <ele>255</ele>
        <time>2024-07-30T07:46:33Z</time>
      </trkpt>
      <trkpt lat="43.34479" lon="1.13896">
        <ele>255</ele>
        <time>2024-07-30T07:46:34Z</time>
      </trkpt>
      <trkpt lat="43.34475" lon="1.13891">
        <ele>255.2</ele>
        <time>2024-07-30T07:46:35Z</time>
      </trkpt>
      <trkpt lat="43.34471" lon="1.13884">
        <ele>255.2</ele>
        <time>2024-07-30T07:46:36Z</time>
      </trkpt>
      <trkpt lat="43.34465" lon="1.13876">
        <ele>255.2</ele>
        <time>2024-07-30T07:46:37Z</time>
      </trkpt>
      <trkpt lat="43.3446" lon="1.1387">
        <ele>255.2</ele>
        <time>2024-07-30T07:46:38Z</time>
      </trkpt>
      <trkpt lat="43.34456" lon="1.13864">
        <ele>255.2</ele>
        <time>2024-07-30T07:46:39Z</time>
      </trkpt>
      <trkpt lat="43.34452" lon="1.13858">
        <ele>255.2</ele>
        <time>2024-07-30T07:46:40Z</time>
      </trkpt>
      <trkpt lat="43.34446" lon="1.1385">
        <ele>255.2</ele>
        <time>2024-07-30T07:46:41Z</time>
      </trkpt>
      <trkpt lat="43.34442" lon="1.13844">
        <ele>255.2</ele>
        <time>2024-07-30T07:46:42Z</time>
      </trkpt>
      <trkpt lat="43.34438" lon="1.13839">
        <ele>255.4</ele>
        <time>2024-07-30T07:46:43Z</time>
      </trkpt>
      <trkpt lat="43.34434" lon="1.13833">
        <ele>255.4</ele>
        <time>2024-07-30T07:46:44Z</time>
      </trkpt>
      <trkpt lat="43.3443" lon="1.13827">
        <ele>255.6</ele>
        <time>2024-07-30T07:46:45Z</time>
      </trkpt>
      <trkpt lat="43.34424" lon="1.13819">
        <ele>255.6</ele>
        <time>2024-07-30T07:46:46Z</time>
      </trkpt>
      <trkpt lat="43.3442" lon="1.13813">
        <ele>255.6</ele>
        <time>2024-07-30T07:46:47Z</time>
      </trkpt>
      <trkpt lat="43.34415" lon="1.13806">
        <ele>255.6</ele>
        <time>2024-07-30T07:46:48Z</time>
      </trkpt>
      <trkpt lat="43.3441" lon="1.138">
        <ele>255.6</ele>
        <time>2024-07-30T07:46:49Z</time>
      </trkpt>
      <trkpt lat="43.34407" lon="1.13795">
        <ele>255.6</ele>
        <time>2024-07-30T07:46:50Z</time>
      </trkpt>
      <trkpt lat="43.34402" lon="1.13787">
        <ele>255.6</ele>
        <time>2024-07-30T07:46:51Z</time>
      </trkpt>
      <trkpt lat="43.34397" lon="1.1378">
        <ele>255.8</ele>
        <time>2024-07-30T07:46:52Z</time>
      </trkpt>
      <trkpt lat="43.34394" lon="1.13775">
        <ele>255.8</ele>
        <time>2024-07-30T07:46:53Z</time>
      </trkpt>
      <trkpt lat="43.34389" lon="1.13768">
        <ele>255.8</ele>
        <time>2024-07-30T07:46:54Z</time>
      </trkpt>
      <trkpt lat="43.34384" lon="1.13761">
        <ele>255.8</ele>
        <time>2024-07-30T07:46:55Z</time>
      </trkpt>
      <trkpt lat="43.3438" lon="1.13754">
        <ele>255.8</ele>
        <time>2024-07-30T07:46:56Z</time>
      </trkpt>
      <trkpt lat="43.34375" lon="1.13748">
        <ele>255.8</ele>
        <time>2024-07-30T07:46:57Z</time>
      </trkpt>
      <trkpt lat="43.34372" lon="1.13743">
        <ele>255.8</ele>
        <time>2024-07-30T07:46:58Z</time>
      </trkpt>
      <trkpt lat="43.34367" lon="1.13736">
        <ele>255.8</ele>
        <time>2024-07-30T07:46:59Z</time>
      </trkpt>
      <trkpt lat="43.34362" lon="1.13729">
        <ele>256</ele>
        <time>2024-07-30T07:47:00Z</time>
      </trkpt>
      <trkpt lat="43.34357" lon="1.13722">
        <ele>256</ele>
        <time>2024-07-30T07:47:01Z</time>
      </trkpt>
      <trkpt lat="43.34353" lon="1.13716">
        <ele>256</ele>
        <time>2024-07-30T07:47:02Z</time>
      </trkpt>
      <trkpt lat="43.3435" lon="1.1371">
        <ele>256</ele>
        <time>2024-07-30T07:47:03Z</time>
      </trkpt>
      <trkpt lat="43.34344" lon="1.13702">
        <ele>256</ele>
        <time>2024-07-30T07:47:04Z</time>
      </trkpt>
      <trkpt lat="43.3434" lon="1.13696">
        <ele>256</ele>
        <time>2024-07-30T07:47:05Z</time>
      </trkpt>
      <trkpt lat="43.34335" lon="1.13689">
        <ele>256</ele>
        <time>2024-07-30T07:47:06Z</time>
      </trkpt>
      <trkpt lat="43.34332" lon="1.13684">
        <ele>256</ele>
        <time>2024-07-30T07:47:07Z</time>
      </trkpt>
      <trkpt lat="43.34327" lon="1.13677">
        <ele>256</ele>
        <time>2024-07-30T07:47:08Z</time>
      </trkpt>
      <trkpt lat="43.34321" lon="1.13669">
        <ele>256</ele>
        <time>2024-07-30T07:47:09Z</time>
      </trkpt>
      <trkpt lat="43.34316" lon="1.13662">
        <ele>256</ele>
        <time>2024-07-30T07:47:10Z</time>
      </trkpt>
      <trkpt lat="43.34312" lon="1.13656">
        <ele>256</ele>
        <time>2024-07-30T07:47:11Z</time>
      </trkpt>
      <trkpt lat="43.34308" lon="1.1365">
        <ele>256</ele>
        <time>2024-07-30T07:47:12Z</time>
      </trkpt>
      <trkpt lat="43.34303" lon="1.13643">
        <ele>256</ele>
        <time>2024-07-30T07:47:13Z</time>
      </trkpt>
      <trkpt lat="43.34297" lon="1.13635">
        <ele>256</ele>
        <time>2024-07-30T07:47:14Z</time>
      </trkpt>
      <trkpt lat="43.34292" lon="1.13629">
        <ele>256</ele>
        <time>2024-07-30T07:47:15Z</time>
      </trkpt>
      <trkpt lat="43.34288" lon="1.13623">
        <ele>256</ele>
        <time>2024-07-30T07:47:16Z</time>
      </trkpt>
      <trkpt lat="43.34283" lon="1.13617">
        <ele>256</ele>
        <time>2024-07-30T07:47:17Z</time>
      </trkpt>
      <trkpt lat="43.34277" lon="1.13609">
        <ele>256</ele>
        <time>2024-07-30T07:47:18Z</time>
      </trkpt>
      <trkpt lat="43.34271" lon="1.13603">
        <ele>256</ele>
        <time>2024-07-30T07:47:19Z</time>
      </trkpt>
      <trkpt lat="43.34265" lon="1.13597">
        <ele>256</ele>
        <time>2024-07-30T07:47:20Z</time>
      </trkpt>
      <trkpt lat="43.34261" lon="1.13592">
        <ele>256</ele>
        <time>2024-07-30T07:47:21Z</time>
      </trkpt>
      <trkpt lat="43.34255" lon="1.13586">
        <ele>256</ele>
        <time>2024-07-30T07:47:22Z</time>
      </trkpt>
      <trkpt lat="43.34248" lon="1.1358">
        <ele>256</ele>
        <time>2024-07-30T07:47:23Z</time>
      </trkpt>
      <trkpt lat="43.34242" lon="1.13575">
        <ele>256</ele>
        <time>2024-07-30T07:47:24Z</time>
      </trkpt>
      <trkpt lat="43.34237" lon="1.13571">
        <ele>256</ele>
        <time>2024-07-30T07:47:25Z</time>
      </trkpt>
      <trkpt lat="43.3423" lon="1.13566">
        <ele>255.8</ele>
        <time>2024-07-30T07:47:26Z</time>
      </trkpt>
      <trkpt lat="43.34224" lon="1.13561">
        <ele>255.8</ele>
        <time>2024-07-30T07:47:27Z</time>
      </trkpt>
      <trkpt lat="43.34215" lon="1.13556">
        <ele>255.6</ele>
        <time>2024-07-30T07:47:28Z</time>
      </trkpt>
      <trkpt lat="43.34209" lon="1.13552">
        <ele>255.6</ele>
        <time>2024-07-30T07:47:29Z</time>
      </trkpt>
      <trkpt lat="43.34202" lon="1.13548">
        <ele>255.6</ele>
        <time>2024-07-30T07:47:30Z</time>
      </trkpt>
      <trkpt lat="43.34197" lon="1.13545">
        <ele>255.6</ele>
        <time>2024-07-30T07:47:31Z</time>
      </trkpt>
      <trkpt lat="43.34189" lon="1.13541">
        <ele>255.6</ele>
        <time>2024-07-30T07:47:32Z</time>
      </trkpt>
      <trkpt lat="43.34182" lon="1.13538">
        <ele>255.6</ele>
        <time>2024-07-30T07:47:33Z</time>
      </trkpt>
      <trkpt lat="43.34175" lon="1.13535">
        <ele>255.6</ele>
        <time>2024-07-30T07:47:34Z</time>
      </trkpt>
      <trkpt lat="43.34169" lon="1.13532">
        <ele>255.6</ele>
        <time>2024-07-30T07:47:35Z</time>
      </trkpt>
      <trkpt lat="43.34163" lon="1.1353">
        <ele>255.6</ele>
        <time>2024-07-30T07:47:36Z</time>
      </trkpt>
      <trkpt lat="43.34155" lon="1.13526">
        <ele>255.8</ele>
        <time>2024-07-30T07:47:37Z</time>
      </trkpt>
      <trkpt lat="43.34149" lon="1.13524">
        <ele>255.8</ele>
        <time>2024-07-30T07:47:38Z</time>
      </trkpt>
      <trkpt lat="43.34142" lon="1.13521">
        <ele>255.8</ele>
        <time>2024-07-30T07:47:39Z</time>
      </trkpt>
      <trkpt lat="43.34136" lon="1.13519">
        <ele>255.8</ele>
        <time>2024-07-30T07:47:40Z</time>
      </trkpt>
      <trkpt lat="43.34128" lon="1.13516">
        <ele>255.8</ele>
        <time>2024-07-30T07:47:41Z</time>
      </trkpt>
      <trkpt lat="43.34122" lon="1.13513">
        <ele>256</ele>
        <time>2024-07-30T07:47:42Z</time>
      </trkpt>
      <trkpt lat="43.34115" lon="1.1351">
        <ele>256</ele>
        <time>2024-07-30T07:47:43Z</time>
      </trkpt>
      <trkpt lat="43.3411" lon="1.13508">
        <ele>256</ele>
        <time>2024-07-30T07:47:44Z</time>
      </trkpt>
      <trkpt lat="43.34103" lon="1.13506">
        <ele>256</ele>
        <time>2024-07-30T07:47:45Z</time>
      </trkpt>
      <trkpt lat="43.34095" lon="1.13502">
        <ele>256.2</ele>
        <time>2024-07-30T07:47:46Z</time>
      </trkpt>
      <trkpt lat="43.34089" lon="1.135">
        <ele>256.2</ele>
        <time>2024-07-30T07:47:47Z</time>
      </trkpt>
      <trkpt lat="43.34082" lon="1.13497">
        <ele>256.2</ele>
        <time>2024-07-30T07:47:48Z</time>
      </trkpt>
      <trkpt lat="43.34077" lon="1.13495">
        <ele>256.2</ele>
        <time>2024-07-30T07:47:49Z</time>
      </trkpt>
      <trkpt lat="43.3407" lon="1.13492">
        <ele>256.4</ele>
        <time>2024-07-30T07:47:50Z</time>
      </trkpt>
      <trkpt lat="43.34064" lon="1.1349">
        <ele>256.4</ele>
        <time>2024-07-30T07:47:51Z</time>
      </trkpt>
      <trkpt lat="43.34056" lon="1.13487">
        <ele>256.4</ele>
        <time>2024-07-30T07:47:52Z</time>
      </trkpt>
      <trkpt lat="43.34051" lon="1.13485">
        <ele>256.6</ele>
        <time>2024-07-30T07:47:53Z</time>
      </trkpt>
      <trkpt lat="43.34045" lon="1.13482">
        <ele>256.6</ele>
        <time>2024-07-30T07:47:54Z</time>
      </trkpt>
      <trkpt lat="43.34038" lon="1.13479">
        <ele>256.6</ele>
        <time>2024-07-30T07:47:55Z</time>
      </trkpt>
      <trkpt lat="43.34031" lon="1.13476">
        <ele>256.8</ele>
        <time>2024-07-30T07:47:56Z</time>
      </trkpt>
      <trkpt lat="43.34025" lon="1.13473">
        <ele>257</ele>
        <time>2024-07-30T07:47:57Z</time>
      </trkpt>
      <trkpt lat="43.3402" lon="1.13471">
        <ele>257.2</ele>
        <time>2024-07-30T07:47:58Z</time>
      </trkpt>
      <trkpt lat="43.34014" lon="1.13468">
        <ele>257.2</ele>
        <time>2024-07-30T07:47:59Z</time>
      </trkpt>
      <trkpt lat="43.34007" lon="1.13466">
        <ele>257.4</ele>
        <time>2024-07-30T07:48:00Z</time>
      </trkpt>
      <trkpt lat="43.34002" lon="1.13464">
        <ele>257.6</ele>
        <time>2024-07-30T07:48:01Z</time>
      </trkpt>
      <trkpt lat="43.33996" lon="1.13461">
        <ele>257.8</ele>
        <time>2024-07-30T07:48:02Z</time>
      </trkpt>
      <trkpt lat="43.3399" lon="1.13458">
        <ele>258.2</ele>
        <time>2024-07-30T07:48:03Z</time>
      </trkpt>
      <trkpt lat="43.33984" lon="1.13456">
        <ele>258.2</ele>
        <time>2024-07-30T07:48:04Z</time>
      </trkpt>
      <trkpt lat="43.33978" lon="1.13454">
        <ele>258.4</ele>
        <time>2024-07-30T07:48:05Z</time>
      </trkpt>
      <trkpt lat="43.33972" lon="1.13451">
        <ele>258.4</ele>
        <time>2024-07-30T07:48:06Z</time>
      </trkpt>
      <trkpt lat="43.33966" lon="1.13449">
        <ele>258.6</ele>
        <time>2024-07-30T07:48:07Z</time>
      </trkpt>
      <trkpt lat="43.3396" lon="1.13447">
        <ele>259</ele>
        <time>2024-07-30T07:48:08Z</time>
      </trkpt>
      <trkpt lat="43.33953" lon="1.13445">
        <ele>259</ele>
        <time>2024-07-30T07:48:09Z</time>
      </trkpt>
      <trkpt lat="43.33948" lon="1.13444">
        <ele>259.4</ele>
        <time>2024-07-30T07:48:10Z</time>
      </trkpt>
      <trkpt lat="43.33941" lon="1.13442">
        <ele>259.4</ele>
        <time>2024-07-30T07:48:11Z</time>
      </trkpt>
      <trkpt lat="43.33936" lon="1.13441">
        <ele>260</ele>
        <time>2024-07-30T07:48:12Z</time>
      </trkpt>
      <trkpt lat="43.3393" lon="1.1344">
        <ele>260.4</ele>
        <time>2024-07-30T07:48:13Z</time>
      </trkpt>
      <trkpt lat="43.33924" lon="1.13439">
        <ele>260.4</ele>
        <time>2024-07-30T07:48:14Z</time>
      </trkpt>
      <trkpt lat="43.33916" lon="1.13439">
        <ele>260.6</ele>
        <time>2024-07-30T07:48:15Z</time>
      </trkpt>
      <trkpt lat="43.33912" lon="1.13439">
        <ele>260.8</ele>
        <time>2024-07-30T07:48:16Z</time>
      </trkpt>
      <trkpt lat="43.33906" lon="1.13439">
        <ele>261</ele>
        <time>2024-07-30T07:48:17Z</time>
      </trkpt>
      <trkpt lat="43.339" lon="1.1344">
        <ele>261</ele>
        <time>2024-07-30T07:48:18Z</time>
      </trkpt>
      <trkpt lat="43.33894" lon="1.13442">
        <ele>261.2</ele>
        <time>2024-07-30T07:48:19Z</time>
      </trkpt>
      <trkpt lat="43.33888" lon="1.13443">
        <ele>261.4</ele>
        <time>2024-07-30T07:48:20Z</time>
      </trkpt>
      <trkpt lat="43.33881" lon="1.13445">
        <ele>261.6</ele>
        <time>2024-07-30T07:48:21Z</time>
      </trkpt>
      <trkpt lat="43.33875" lon="1.13447">
        <ele>261.8</ele>
        <time>2024-07-30T07:48:22Z</time>
      </trkpt>
      <trkpt lat="43.33869" lon="1.13449">
        <ele>262</ele>
        <time>2024-07-30T07:48:23Z</time>
      </trkpt>
      <trkpt lat="43.33862" lon="1.1345">
        <ele>262.2</ele>
        <time>2024-07-30T07:48:24Z</time>
      </trkpt>
      <trkpt lat="43.33856" lon="1.13451">
        <ele>262.4</ele>
        <time>2024-07-30T07:48:25Z</time>
      </trkpt>
      <trkpt lat="43.33848" lon="1.13452">
        <ele>262.4</ele>
        <time>2024-07-30T07:48:26Z</time>
      </trkpt>
      <trkpt lat="43.33842" lon="1.13452">
        <ele>262.6</ele>
        <time>2024-07-30T07:48:27Z</time>
      </trkpt>
      <trkpt lat="43.33837" lon="1.13451">
        <ele>262.6</ele>
        <time>2024-07-30T07:48:28Z</time>
      </trkpt>
      <trkpt lat="43.33829" lon="1.1345">
        <ele>262.8</ele>
        <time>2024-07-30T07:48:29Z</time>
      </trkpt>
      <trkpt lat="43.33823" lon="1.13448">
        <ele>262.8</ele>
        <time>2024-07-30T07:48:30Z</time>
      </trkpt>
      <trkpt lat="43.33817" lon="1.13446">
        <ele>263</ele>
        <time>2024-07-30T07:48:31Z</time>
      </trkpt>
      <trkpt lat="43.33813" lon="1.13443">
        <ele>263</ele>
        <time>2024-07-30T07:48:32Z</time>
      </trkpt>
      <trkpt lat="43.33808" lon="1.1344">
        <ele>263.4</ele>
        <time>2024-07-30T07:48:33Z</time>
      </trkpt>
      <trkpt lat="43.33802" lon="1.13436">
        <ele>263.6</ele>
        <time>2024-07-30T07:48:34Z</time>
      </trkpt>
      <trkpt lat="43.33796" lon="1.13433">
        <ele>263.8</ele>
        <time>2024-07-30T07:48:35Z</time>
      </trkpt>
      <trkpt lat="43.33791" lon="1.1343">
        <ele>264</ele>
        <time>2024-07-30T07:48:36Z</time>
      </trkpt>
      <trkpt lat="43.33787" lon="1.13426">
        <ele>264.4</ele>
        <time>2024-07-30T07:48:37Z</time>
      </trkpt>
      <trkpt lat="43.33783" lon="1.13424">
        <ele>264.8</ele>
        <time>2024-07-30T07:48:38Z</time>
      </trkpt>
      <trkpt lat="43.33777" lon="1.13419">
        <ele>265</ele>
        <time>2024-07-30T07:48:39Z</time>
      </trkpt>
      <trkpt lat="43.33773" lon="1.13417">
        <ele>265.4</ele>
        <time>2024-07-30T07:48:40Z</time>
      </trkpt>
      <trkpt lat="43.33769" lon="1.13414">
        <ele>265.8</ele>
        <time>2024-07-30T07:48:41Z</time>
      </trkpt>
      <trkpt lat="43.33765" lon="1.13411">
        <ele>266</ele>
        <time>2024-07-30T07:48:42Z</time>
      </trkpt>
      <trkpt lat="43.33761" lon="1.13408">
        <ele>266.4</ele>
        <time>2024-07-30T07:48:43Z</time>
      </trkpt>
      <trkpt lat="43.33757" lon="1.13405">
        <ele>266.6</ele>
        <time>2024-07-30T07:48:44Z</time>
      </trkpt>
      <trkpt lat="43.33753" lon="1.13402">
        <ele>267</ele>
        <time>2024-07-30T07:48:45Z</time>
      </trkpt>
      <trkpt lat="43.33749" lon="1.134">
        <ele>267.2</ele>
        <time>2024-07-30T07:48:46Z</time>
      </trkpt>
      <trkpt lat="43.33744" lon="1.13396">
        <ele>267.4</ele>
        <time>2024-07-30T07:48:47Z</time>
      </trkpt>
      <trkpt lat="43.33739" lon="1.13393">
        <ele>268</ele>
        <time>2024-07-30T07:48:48Z</time>
      </trkpt>
      <trkpt lat="43.33734" lon="1.1339">
        <ele>268.2</ele>
        <time>2024-07-30T07:48:49Z</time>
      </trkpt>
      <trkpt lat="43.33729" lon="1.13386">
        <ele>268.6</ele>
        <time>2024-07-30T07:48:50Z</time>
      </trkpt>
      <trkpt lat="43.33724" lon="1.13383">
        <ele>268.8</ele>
        <time>2024-07-30T07:48:51Z</time>
      </trkpt>
      <trkpt lat="43.33719" lon="1.1338">
        <ele>269</ele>
        <time>2024-07-30T07:48:52Z</time>
      </trkpt>
      <trkpt lat="43.33714" lon="1.13377">
        <ele>269.6</ele>
        <time>2024-07-30T07:48:53Z</time>
      </trkpt>
      <trkpt lat="43.33709" lon="1.13374">
        <ele>269.8</ele>
        <time>2024-07-30T07:48:54Z</time>
      </trkpt>
      <trkpt lat="43.33704" lon="1.13371">
        <ele>270.2</ele>
        <time>2024-07-30T07:48:55Z</time>
      </trkpt>
      <trkpt lat="43.33701" lon="1.13368">
        <ele>270.4</ele>
        <time>2024-07-30T07:48:56Z</time>
      </trkpt>
      <trkpt lat="43.33697" lon="1.13365">
        <ele>270.8</ele>
        <time>2024-07-30T07:48:57Z</time>
      </trkpt>
      <trkpt lat="43.33692" lon="1.13361">
        <ele>271</ele>
        <time>2024-07-30T07:48:58Z</time>
      </trkpt>
      <trkpt lat="43.33688" lon="1.13358">
        <ele>271.4</ele>
        <time>2024-07-30T07:48:59Z</time>
      </trkpt>
      <trkpt lat="43.33684" lon="1.13354">
        <ele>271.6</ele>
        <time>2024-07-30T07:49:00Z</time>
      </trkpt>
      <trkpt lat="43.33679" lon="1.13351">
        <ele>271.6</ele>
        <time>2024-07-30T07:49:01Z</time>
      </trkpt>
      <trkpt lat="43.33674" lon="1.13348">
        <ele>272</ele>
        <time>2024-07-30T07:49:02Z</time>
      </trkpt>
      <trkpt lat="43.33669" lon="1.13345">
        <ele>272.2</ele>
        <time>2024-07-30T07:49:03Z</time>
      </trkpt>
      <trkpt lat="43.33664" lon="1.13341">
        <ele>272.6</ele>
        <time>2024-07-30T07:49:04Z</time>
      </trkpt>
      <trkpt lat="43.33659" lon="1.13337">
        <ele>272.8</ele>
        <time>2024-07-30T07:49:05Z</time>
      </trkpt>
      <trkpt lat="43.33654" lon="1.13334">
        <ele>273</ele>
        <time>2024-07-30T07:49:06Z</time>
      </trkpt>
      <trkpt lat="43.3365" lon="1.1333">
        <ele>273.2</ele>
        <time>2024-07-30T07:49:07Z</time>
      </trkpt>
      <trkpt lat="43.33645" lon="1.13326">
        <ele>273.4</ele>
        <time>2024-07-30T07:49:08Z</time>
      </trkpt>
      <trkpt lat="43.3364" lon="1.13323">
        <ele>273.8</ele>
        <time>2024-07-30T07:49:09Z</time>
      </trkpt>
      <trkpt lat="43.33635" lon="1.13319">
        <ele>274</ele>
        <time>2024-07-30T07:49:10Z</time>
      </trkpt>
      <trkpt lat="43.33629" lon="1.13316">
        <ele>274.4</ele>
        <time>2024-07-30T07:49:11Z</time>
      </trkpt>
      <trkpt lat="43.33623" lon="1.13313">
        <ele>274.6</ele>
        <time>2024-07-30T07:49:12Z</time>
      </trkpt>
      <trkpt lat="43.33617" lon="1.1331">
        <ele>274.6</ele>
        <time>2024-07-30T07:49:13Z</time>
      </trkpt>
      <trkpt lat="43.33612" lon="1.13306">
        <ele>274.8</ele>
        <time>2024-07-30T07:49:14Z</time>
      </trkpt>
      <trkpt lat="43.33606" lon="1.13303">
        <ele>275</ele>
        <time>2024-07-30T07:49:15Z</time>
      </trkpt>
      <trkpt lat="43.336" lon="1.133">
        <ele>275.2</ele>
        <time>2024-07-30T07:49:16Z</time>
      </trkpt>
      <trkpt lat="43.33595" lon="1.13297">
        <ele>275.2</ele>
        <time>2024-07-30T07:49:17Z</time>
      </trkpt>
      <trkpt lat="43.33589" lon="1.13294">
        <ele>275.4</ele>
        <time>2024-07-30T07:49:18Z</time>
      </trkpt>
      <trkpt lat="43.33584" lon="1.13291">
        <ele>275.4</ele>
        <time>2024-07-30T07:49:19Z</time>
      </trkpt>
      <trkpt lat="43.33578" lon="1.13288">
        <ele>275.4</ele>
        <time>2024-07-30T07:49:20Z</time>
      </trkpt>
      <trkpt lat="43.33572" lon="1.13285">
        <ele>275.4</ele>
        <time>2024-07-30T07:49:21Z</time>
      </trkpt>
      <trkpt lat="43.33566" lon="1.13282">
        <ele>275.6</ele>
        <time>2024-07-30T07:49:22Z</time>
      </trkpt>
      <trkpt lat="43.3356" lon="1.13278">
        <ele>275.6</ele>
        <time>2024-07-30T07:49:23Z</time>
      </trkpt>
      <trkpt lat="43.33554" lon="1.13275">
        <ele>275.8</ele>
        <time>2024-07-30T07:49:24Z</time>
      </trkpt>
      <trkpt lat="43.33548" lon="1.13272">
        <ele>275.8</ele>
        <time>2024-07-30T07:49:25Z</time>
      </trkpt>
      <trkpt lat="43.33542" lon="1.13268">
        <ele>275.8</ele>
        <time>2024-07-30T07:49:26Z</time>
      </trkpt>
      <trkpt lat="43.33536" lon="1.13265">
        <ele>276</ele>
        <time>2024-07-30T07:49:27Z</time>
      </trkpt>
      <trkpt lat="43.3353" lon="1.13262">
        <ele>276</ele>
        <time>2024-07-30T07:49:28Z</time>
      </trkpt>
      <trkpt lat="43.33523" lon="1.13259">
        <ele>276</ele>
        <time>2024-07-30T07:49:29Z</time>
      </trkpt>
      <trkpt lat="43.33517" lon="1.13255">
        <ele>276</ele>
        <time>2024-07-30T07:49:30Z</time>
      </trkpt>
      <trkpt lat="43.33511" lon="1.13252">
        <ele>276</ele>
        <time>2024-07-30T07:49:31Z</time>
      </trkpt>
      <trkpt lat="43.33505" lon="1.13248">
        <ele>276.2</ele>
        <time>2024-07-30T07:49:32Z</time>
      </trkpt>
      <trkpt lat="43.33498" lon="1.13244">
        <ele>276.2</ele>
        <time>2024-07-30T07:49:33Z</time>
      </trkpt>
      <trkpt lat="43.33492" lon="1.13241">
        <ele>276.4</ele>
        <time>2024-07-30T07:49:34Z</time>
      </trkpt>
      <trkpt lat="43.33486" lon="1.13237">
        <ele>276.6</ele>
        <time>2024-07-30T07:49:35Z</time>
      </trkpt>
      <trkpt lat="43.3348" lon="1.13234">
        <ele>276.6</ele>
        <time>2024-07-30T07:49:36Z</time>
      </trkpt>
      <trkpt lat="43.33475" lon="1.13231">
        <ele>276.8</ele>
        <time>2024-07-30T07:49:37Z</time>
      </trkpt>
      <trkpt lat="43.33468" lon="1.13227">
        <ele>277</ele>
        <time>2024-07-30T07:49:38Z</time>
      </trkpt>
      <trkpt lat="43.33462" lon="1.13223">
        <ele>277</ele>
        <time>2024-07-30T07:49:39Z</time>
      </trkpt>
      <trkpt lat="43.33456" lon="1.1322">
        <ele>277</ele>
        <time>2024-07-30T07:49:40Z</time>
      </trkpt>
      <trkpt lat="43.33452" lon="1.13218">
        <ele>277.2</ele>
        <time>2024-07-30T07:49:41Z</time>
      </trkpt>
      <trkpt lat="43.33446" lon="1.13214">
        <ele>277.6</ele>
        <time>2024-07-30T07:49:42Z</time>
      </trkpt>
      <trkpt lat="43.33439" lon="1.13211">
        <ele>277.8</ele>
        <time>2024-07-30T07:49:43Z</time>
      </trkpt>
      <trkpt lat="43.33434" lon="1.13208">
        <ele>278</ele>
        <time>2024-07-30T07:49:44Z</time>
      </trkpt>
      <trkpt lat="43.33429" lon="1.13205">
        <ele>278.4</ele>
        <time>2024-07-30T07:49:45Z</time>
      </trkpt>
      <trkpt lat="43.33424" lon="1.13203">
        <ele>278.6</ele>
        <time>2024-07-30T07:49:46Z</time>
      </trkpt>
      <trkpt lat="43.33418" lon="1.13201">
        <ele>279.2</ele>
        <time>2024-07-30T07:49:47Z</time>
      </trkpt>
      <trkpt lat="43.33412" lon="1.13199">
        <ele>279</ele>
        <time>2024-07-30T07:49:48Z</time>
      </trkpt>
      <trkpt lat="43.33407" lon="1.13196">
        <ele>279.6</ele>
        <time>2024-07-30T07:49:49Z</time>
      </trkpt>
      <trkpt lat="43.33402" lon="1.13195">
        <ele>280</ele>
        <time>2024-07-30T07:49:50Z</time>
      </trkpt>
      <trkpt lat="43.33396" lon="1.13192">
        <ele>280.6</ele>
        <time>2024-07-30T07:49:51Z</time>
      </trkpt>
      <trkpt lat="43.33389" lon="1.1319">
        <ele>281</ele>
        <time>2024-07-30T07:49:52Z</time>
      </trkpt>
      <trkpt lat="43.33383" lon="1.13188">
        <ele>281</ele>
        <time>2024-07-30T07:49:53Z</time>
      </trkpt>
      <trkpt lat="43.33377" lon="1.13186">
        <ele>281.6</ele>
        <time>2024-07-30T07:49:54Z</time>
      </trkpt>
      <trkpt lat="43.33371" lon="1.13184">
        <ele>281.6</ele>
        <time>2024-07-30T07:49:55Z</time>
      </trkpt>
      <trkpt lat="43.33366" lon="1.13182">
        <ele>282</ele>
        <time>2024-07-30T07:49:56Z</time>
      </trkpt>
      <trkpt lat="43.33359" lon="1.1318">
        <ele>282.2</ele>
        <time>2024-07-30T07:49:57Z</time>
      </trkpt>
      <trkpt lat="43.33353" lon="1.13178">
        <ele>282.4</ele>
        <time>2024-07-30T07:49:58Z</time>
      </trkpt>
      <trkpt lat="43.33346" lon="1.13176">
        <ele>283</ele>
        <time>2024-07-30T07:49:59Z</time>
      </trkpt>
      <trkpt lat="43.3334" lon="1.13174">
        <ele>283</ele>
        <time>2024-07-30T07:50:00Z</time>
      </trkpt>
      <trkpt lat="43.33334" lon="1.13173">
        <ele>283.4</ele>
        <time>2024-07-30T07:50:01Z</time>
      </trkpt>
      <trkpt lat="43.33327" lon="1.13171">
        <ele>283.4</ele>
        <time>2024-07-30T07:50:02Z</time>
      </trkpt>
      <trkpt lat="43.33321" lon="1.1317">
        <ele>283.6</ele>
        <time>2024-07-30T07:50:03Z</time>
      </trkpt>
      <trkpt lat="43.33314" lon="1.13169">
        <ele>283.8</ele>
        <time>2024-07-30T07:50:04Z</time>
      </trkpt>
      <trkpt lat="43.33308" lon="1.13168">
        <ele>283.8</ele>
        <time>2024-07-30T07:50:05Z</time>
      </trkpt>
      <trkpt lat="43.33302" lon="1.13167">
        <ele>284</ele>
        <time>2024-07-30T07:50:06Z</time>
      </trkpt>
      <trkpt lat="43.33294" lon="1.13166">
        <ele>284</ele>
        <time>2024-07-30T07:50:07Z</time>
      </trkpt>
      <trkpt lat="43.33288" lon="1.13165">
        <ele>284.2</ele>
        <time>2024-07-30T07:50:08Z</time>
      </trkpt>
      <trkpt lat="43.33281" lon="1.13165">
        <ele>284.4</ele>
        <time>2024-07-30T07:50:09Z</time>
      </trkpt>
      <trkpt lat="43.33276" lon="1.13164">
        <ele>284.4</ele>
        <time>2024-07-30T07:50:10Z</time>
      </trkpt>
      <trkpt lat="43.33268" lon="1.13164">
        <ele>284.6</ele>
        <time>2024-07-30T07:50:11Z</time>
      </trkpt>
      <trkpt lat="43.33261" lon="1.13163">
        <ele>284.6</ele>
        <time>2024-07-30T07:50:12Z</time>
      </trkpt>
      <trkpt lat="43.33255" lon="1.13163">
        <ele>284.6</ele>
        <time>2024-07-30T07:50:13Z</time>
      </trkpt>
      <trkpt lat="43.33249" lon="1.13162">
        <ele>284.6</ele>
        <time>2024-07-30T07:50:14Z</time>
      </trkpt>
      <trkpt lat="43.33243" lon="1.13162">
        <ele>284.6</ele>
        <time>2024-07-30T07:50:15Z</time>
      </trkpt>
      <trkpt lat="43.33235" lon="1.13161">
        <ele>284.8</ele>
        <time>2024-07-30T07:50:16Z</time>
      </trkpt>
      <trkpt lat="43.33228" lon="1.13161">
        <ele>284.8</ele>
        <time>2024-07-30T07:50:17Z</time>
      </trkpt>
      <trkpt lat="43.33222" lon="1.1316">
        <ele>285</ele>
        <time>2024-07-30T07:50:18Z</time>
      </trkpt>
      <trkpt lat="43.33217" lon="1.1316">
        <ele>285</ele>
        <time>2024-07-30T07:50:19Z</time>
      </trkpt>
      <trkpt lat="43.3321" lon="1.13159">
        <ele>285.2</ele>
        <time>2024-07-30T07:50:20Z</time>
      </trkpt>
      <trkpt lat="43.33203" lon="1.13158">
        <ele>285.4</ele>
        <time>2024-07-30T07:50:21Z</time>
      </trkpt>
      <trkpt lat="43.33196" lon="1.13158">
        <ele>285.4</ele>
        <time>2024-07-30T07:50:22Z</time>
      </trkpt>
      <trkpt lat="43.33189" lon="1.13157">
        <ele>285.6</ele>
        <time>2024-07-30T07:50:23Z</time>
      </trkpt>
      <trkpt lat="43.33184" lon="1.13157">
        <ele>285.6</ele>
        <time>2024-07-30T07:50:24Z</time>
      </trkpt>
      <trkpt lat="43.33176" lon="1.13156">
        <ele>285.8</ele>
        <time>2024-07-30T07:50:25Z</time>
      </trkpt>
      <trkpt lat="43.33169" lon="1.13155">
        <ele>286</ele>
        <time>2024-07-30T07:50:26Z</time>
      </trkpt>
      <trkpt lat="43.33161" lon="1.13155">
        <ele>286.2</ele>
        <time>2024-07-30T07:50:27Z</time>
      </trkpt>
      <trkpt lat="43.33154" lon="1.13154">
        <ele>286.2</ele>
        <time>2024-07-30T07:50:28Z</time>
      </trkpt>
      <trkpt lat="43.33147" lon="1.13153">
        <ele>286.2</ele>
        <time>2024-07-30T07:50:29Z</time>
      </trkpt>
      <trkpt lat="43.3314" lon="1.13153">
        <ele>286.2</ele>
        <time>2024-07-30T07:50:30Z</time>
      </trkpt>
      <trkpt lat="43.33132" lon="1.13152">
        <ele>286.2</ele>
        <time>2024-07-30T07:50:31Z</time>
      </trkpt>
      <trkpt lat="43.33125" lon="1.13152">
        <ele>286.4</ele>
        <time>2024-07-30T07:50:32Z</time>
      </trkpt>
      <trkpt lat="43.33119" lon="1.13151">
        <ele>286.4</ele>
        <time>2024-07-30T07:50:33Z</time>
      </trkpt>
      <trkpt lat="43.33112" lon="1.1315">
        <ele>286.4</ele>
        <time>2024-07-30T07:50:34Z</time>
      </trkpt>
      <trkpt lat="43.33103" lon="1.13149">
        <ele>286.4</ele>
        <time>2024-07-30T07:50:35Z</time>
      </trkpt>
      <trkpt lat="43.33094" lon="1.13149">
        <ele>286.4</ele>
        <time>2024-07-30T07:50:36Z</time>
      </trkpt>
      <trkpt lat="43.33087" lon="1.13149">
        <ele>286.4</ele>
        <time>2024-07-30T07:50:37Z</time>
      </trkpt>
      <trkpt lat="43.33079" lon="1.13149">
        <ele>286.4</ele>
        <time>2024-07-30T07:50:38Z</time>
      </trkpt>
      <trkpt lat="43.33072" lon="1.1315">
        <ele>286.4</ele>
        <time>2024-07-30T07:50:39Z</time>
      </trkpt>
      <trkpt lat="43.33062" lon="1.13152">
        <ele>286.4</ele>
        <time>2024-07-30T07:50:40Z</time>
      </trkpt>
      <trkpt lat="43.33054" lon="1.13154">
        <ele>286.4</ele>
        <time>2024-07-30T07:50:41Z</time>
      </trkpt>
      <trkpt lat="43.33047" lon="1.13155">
        <ele>286.4</ele>
        <time>2024-07-30T07:50:42Z</time>
      </trkpt>
      <trkpt lat="43.33039" lon="1.13157">
        <ele>286.4</ele>
        <time>2024-07-30T07:50:43Z</time>
      </trkpt>
      <trkpt lat="43.3303" lon="1.13158">
        <ele>286.2</ele>
        <time>2024-07-30T07:50:44Z</time>
      </trkpt>
      <trkpt lat="43.33021" lon="1.1316">
        <ele>286</ele>
        <time>2024-07-30T07:50:45Z</time>
      </trkpt>
      <trkpt lat="43.33012" lon="1.13162">
        <ele>286</ele>
        <time>2024-07-30T07:50:46Z</time>
      </trkpt>
      <trkpt lat="43.33003" lon="1.13164">
        <ele>285.8</ele>
        <time>2024-07-30T07:50:47Z</time>
      </trkpt>
      <trkpt lat="43.32994" lon="1.13166">
        <ele>285.6</ele>
        <time>2024-07-30T07:50:48Z</time>
      </trkpt>
      <trkpt lat="43.32985" lon="1.13168">
        <ele>285.6</ele>
        <time>2024-07-30T07:50:49Z</time>
      </trkpt>
      <trkpt lat="43.32976" lon="1.13169">
        <ele>285.6</ele>
        <time>2024-07-30T07:50:50Z</time>
      </trkpt>
      <trkpt lat="43.32967" lon="1.13171">
        <ele>285.2</ele>
        <time>2024-07-30T07:50:51Z</time>
      </trkpt>
      <trkpt lat="43.32958" lon="1.13172">
        <ele>285.2</ele>
        <time>2024-07-30T07:50:52Z</time>
      </trkpt>
      <trkpt lat="43.32949" lon="1.13172">
        <ele>285</ele>
        <time>2024-07-30T07:50:53Z</time>
      </trkpt>
      <trkpt lat="43.3294" lon="1.13172">
        <ele>284.8</ele>
        <time>2024-07-30T07:50:54Z</time>
      </trkpt>
      <trkpt lat="43.32932" lon="1.1317">
        <ele>284.6</ele>
        <time>2024-07-30T07:50:55Z</time>
      </trkpt>
      <trkpt lat="43.32924" lon="1.13167">
        <ele>284.6</ele>
        <time>2024-07-30T07:50:56Z</time>
      </trkpt>
      <trkpt lat="43.32916" lon="1.13164">
        <ele>284.6</ele>
        <time>2024-07-30T07:50:57Z</time>
      </trkpt>
      <trkpt lat="43.32909" lon="1.13159">
        <ele>284.6</ele>
        <time>2024-07-30T07:50:58Z</time>
      </trkpt>
      <trkpt lat="43.32902" lon="1.13155">
        <ele>284.6</ele>
        <time>2024-07-30T07:50:59Z</time>
      </trkpt>
      <trkpt lat="43.32896" lon="1.1315">
        <ele>284.6</ele>
        <time>2024-07-30T07:51:00Z</time>
      </trkpt>
      <trkpt lat="43.32889" lon="1.13144">
        <ele>284.6</ele>
        <time>2024-07-30T07:51:01Z</time>
      </trkpt>
      <trkpt lat="43.32884" lon="1.13138">
        <ele>284.8</ele>
        <time>2024-07-30T07:51:02Z</time>
      </trkpt>
      <trkpt lat="43.32879" lon="1.13132">
        <ele>285</ele>
        <time>2024-07-30T07:51:03Z</time>
      </trkpt>
      <trkpt lat="43.32874" lon="1.13126">
        <ele>285</ele>
        <time>2024-07-30T07:51:04Z</time>
      </trkpt>
      <trkpt lat="43.32868" lon="1.13119">
        <ele>285.2</ele>
        <time>2024-07-30T07:51:05Z</time>
      </trkpt>
      <trkpt lat="43.32862" lon="1.13112">
        <ele>285.2</ele>
        <time>2024-07-30T07:51:06Z</time>
      </trkpt>
      <trkpt lat="43.32857" lon="1.13105">
        <ele>285.2</ele>
        <time>2024-07-30T07:51:07Z</time>
      </trkpt>
      <trkpt lat="43.32851" lon="1.13099">
        <ele>285.2</ele>
        <time>2024-07-30T07:51:08Z</time>
      </trkpt>
      <trkpt lat="43.32846" lon="1.13092">
        <ele>285.2</ele>
        <time>2024-07-30T07:51:09Z</time>
      </trkpt>
      <trkpt lat="43.3284" lon="1.13085">
        <ele>285.2</ele>
        <time>2024-07-30T07:51:10Z</time>
      </trkpt>
      <trkpt lat="43.32835" lon="1.13078">
        <ele>285.2</ele>
        <time>2024-07-30T07:51:11Z</time>
      </trkpt>
      <trkpt lat="43.3283" lon="1.13072">
        <ele>285.2</ele>
        <time>2024-07-30T07:51:12Z</time>
      </trkpt>
      <trkpt lat="43.32825" lon="1.13065">
        <ele>285.2</ele>
        <time>2024-07-30T07:51:13Z</time>
      </trkpt>
      <trkpt lat="43.32819" lon="1.13059">
        <ele>285</ele>
        <time>2024-07-30T07:51:14Z</time>
      </trkpt>
      <trkpt lat="43.32813" lon="1.13052">
        <ele>284.8</ele>
        <time>2024-07-30T07:51:15Z</time>
      </trkpt>
      <trkpt lat="43.32807" lon="1.13045">
        <ele>284.8</ele>
        <time>2024-07-30T07:51:16Z</time>
      </trkpt>
      <trkpt lat="43.32801" lon="1.13037">
        <ele>284.6</ele>
        <time>2024-07-30T07:51:17Z</time>
      </trkpt>
      <trkpt lat="43.32795" lon="1.13029">
        <ele>284.4</ele>
        <time>2024-07-30T07:51:18Z</time>
      </trkpt>
      <trkpt lat="43.32789" lon="1.13021">
        <ele>284.2</ele>
        <time>2024-07-30T07:51:19Z</time>
      </trkpt>
      <trkpt lat="43.32783" lon="1.13013">
        <ele>284</ele>
        <time>2024-07-30T07:51:20Z</time>
      </trkpt>
      <trkpt lat="43.32776" lon="1.13004">
        <ele>283.6</ele>
        <time>2024-07-30T07:51:21Z</time>
      </trkpt>
      <trkpt lat="43.3277" lon="1.12996">
        <ele>283.2</ele>
        <time>2024-07-30T07:51:22Z</time>
      </trkpt>
      <trkpt lat="43.32763" lon="1.12988">
        <ele>283</ele>
        <time>2024-07-30T07:51:23Z</time>
      </trkpt>
      <trkpt lat="43.32756" lon="1.12979">
        <ele>282.4</ele>
        <time>2024-07-30T07:51:24Z</time>
      </trkpt>
      <trkpt lat="43.32748" lon="1.12969">
        <ele>282</ele>
        <time>2024-07-30T07:51:25Z</time>
      </trkpt>
      <trkpt lat="43.3274" lon="1.12959">
        <ele>281.2</ele>
        <time>2024-07-30T07:51:26Z</time>
      </trkpt>
      <trkpt lat="43.32733" lon="1.12948">
        <ele>280.8</ele>
        <time>2024-07-30T07:51:27Z</time>
      </trkpt>
      <trkpt lat="43.32725" lon="1.12938">
        <ele>280.4</ele>
        <time>2024-07-30T07:51:28Z</time>
      </trkpt>
      <trkpt lat="43.32717" lon="1.12927">
        <ele>279.6</ele>
        <time>2024-07-30T07:51:29Z</time>
      </trkpt>
      <trkpt lat="43.3271" lon="1.12916">
        <ele>279.4</ele>
        <time>2024-07-30T07:51:30Z</time>
      </trkpt>
      <trkpt lat="43.32703" lon="1.12905">
        <ele>278.4</ele>
        <time>2024-07-30T07:51:31Z</time>
      </trkpt>
      <trkpt lat="43.32694" lon="1.12892">
        <ele>277.8</ele>
        <time>2024-07-30T07:51:32Z</time>
      </trkpt>
      <trkpt lat="43.32688" lon="1.12884">
        <ele>276.8</ele>
        <time>2024-07-30T07:51:33Z</time>
      </trkpt>
      <trkpt lat="43.3268" lon="1.12873">
        <ele>276.2</ele>
        <time>2024-07-30T07:51:34Z</time>
      </trkpt>
      <trkpt lat="43.32673" lon="1.12861">
        <ele>275.8</ele>
        <time>2024-07-30T07:51:35Z</time>
      </trkpt>
      <trkpt lat="43.32666" lon="1.12849">
        <ele>275.6</ele>
        <time>2024-07-30T07:51:36Z</time>
      </trkpt>
      <trkpt lat="43.32659" lon="1.12836">
        <ele>275.4</ele>
        <time>2024-07-30T07:51:37Z</time>
      </trkpt>
      <trkpt lat="43.32651" lon="1.12824">
        <ele>275.2</ele>
        <time>2024-07-30T07:51:38Z</time>
      </trkpt>
      <trkpt lat="43.3264" lon="1.12809">
        <ele>275</ele>
        <time>2024-07-30T07:51:39Z</time>
      </trkpt>
      <trkpt lat="43.32632" lon="1.12795">
        <ele>273.8</ele>
        <time>2024-07-30T07:51:40Z</time>
      </trkpt>
      <trkpt lat="43.32625" lon="1.12782">
        <ele>272.8</ele>
        <time>2024-07-30T07:51:41Z</time>
      </trkpt>
      <trkpt lat="43.32619" lon="1.12771">
        <ele>272.2</ele>
        <time>2024-07-30T07:51:42Z</time>
      </trkpt>
      <trkpt lat="43.32609" lon="1.12756">
        <ele>271.2</ele>
        <time>2024-07-30T07:51:43Z</time>
      </trkpt>
      <trkpt lat="43.32602" lon="1.12743">
        <ele>270.8</ele>
        <time>2024-07-30T07:51:44Z</time>
      </trkpt>
      <trkpt lat="43.32594" lon="1.12731">
        <ele>270</ele>
        <time>2024-07-30T07:51:45Z</time>
      </trkpt>
      <trkpt lat="43.32588" lon="1.12723">
        <ele>269.4</ele>
        <time>2024-07-30T07:51:46Z</time>
      </trkpt>
      <trkpt lat="43.32582" lon="1.12713">
        <ele>268.2</ele>
        <time>2024-07-30T07:51:47Z</time>
      </trkpt>
      <trkpt lat="43.32575" lon="1.12703">
        <ele>267.6</ele>
        <time>2024-07-30T07:51:48Z</time>
      </trkpt>
      <trkpt lat="43.32571" lon="1.12695">
        <ele>267</ele>
        <time>2024-07-30T07:51:49Z</time>
      </trkpt>
      <trkpt lat="43.32566" lon="1.12688">
        <ele>265.6</ele>
        <time>2024-07-30T07:51:50Z</time>
      </trkpt>
      <trkpt lat="43.32563" lon="1.12683">
        <ele>265</ele>
        <time>2024-07-30T07:51:51Z</time>
      </trkpt>
      <trkpt lat="43.32559" lon="1.12676">
        <ele>264.2</ele>
        <time>2024-07-30T07:51:52Z</time>
      </trkpt>
      <trkpt lat="43.32556" lon="1.1267">
        <ele>263.8</ele>
        <time>2024-07-30T07:51:53Z</time>
      </trkpt>
      <trkpt lat="43.32554" lon="1.12666">
        <ele>262.8</ele>
        <time>2024-07-30T07:51:54Z</time>
      </trkpt>
      <trkpt lat="43.32553" lon="1.12663">
        <ele>262.4</ele>
        <time>2024-07-30T07:51:55Z</time>
      </trkpt>
      <trkpt lat="43.32552" lon="1.1266">
        <ele>262</ele>
        <time>2024-07-30T07:51:56Z</time>
      </trkpt>
      <trkpt lat="43.32551" lon="1.12657">
        <ele>261.4</ele>
        <time>2024-07-30T07:51:57Z</time>
      </trkpt>
      <trkpt lat="43.32551" lon="1.12655">
        <ele>261</ele>
        <time>2024-07-30T07:51:58Z</time>
      </trkpt>
      <trkpt lat="43.32551" lon="1.12653">
        <ele>260.4</ele>
        <time>2024-07-30T07:51:59Z</time>
      </trkpt>
      <trkpt lat="43.3255" lon="1.12653">
        <ele>260</ele>
        <time>2024-07-30T07:52:00Z</time>
      </trkpt>
      <trkpt lat="43.3255" lon="1.12653">
        <ele>259.8</ele>
        <time>2024-07-30T07:52:01Z</time>
      </trkpt>
      <trkpt lat="43.32545" lon="1.12652">
        <ele>258.8</ele>
        <time>2024-07-30T07:52:09Z</time>
      </trkpt>
      <trkpt lat="43.32542" lon="1.12652">
        <ele>258.8</ele>
        <time>2024-07-30T07:52:10Z</time>
      </trkpt>
      <trkpt lat="43.32538" lon="1.12654">
        <ele>258.6</ele>
        <time>2024-07-30T07:52:11Z</time>
      </trkpt>
      <trkpt lat="43.32534" lon="1.12656">
        <ele>258.6</ele>
        <time>2024-07-30T07:52:12Z</time>
      </trkpt>
      <trkpt lat="43.32529" lon="1.12658">
        <ele>258.6</ele>
        <time>2024-07-30T07:52:13Z</time>
      </trkpt>
      <trkpt lat="43.32523" lon="1.12659">
        <ele>258.4</ele>
        <time>2024-07-30T07:52:14Z</time>
      </trkpt>
      <trkpt lat="43.32518" lon="1.12659">
        <ele>258.2</ele>
        <time>2024-07-30T07:52:15Z</time>
      </trkpt>
      <trkpt lat="43.3251" lon="1.12657">
        <ele>258.2</ele>
        <time>2024-07-30T07:52:16Z</time>
      </trkpt>
      <trkpt lat="43.32502" lon="1.12654">
        <ele>258</ele>
        <time>2024-07-30T07:52:17Z</time>
      </trkpt>
      <trkpt lat="43.32496" lon="1.12649">
        <ele>257.4</ele>
        <time>2024-07-30T07:52:18Z</time>
      </trkpt>
      <trkpt lat="43.3249" lon="1.12643">
        <ele>257.2</ele>
        <time>2024-07-30T07:52:19Z</time>
      </trkpt>
      <trkpt lat="43.32485" lon="1.12634">
        <ele>256.8</ele>
        <time>2024-07-30T07:52:20Z</time>
      </trkpt>
      <trkpt lat="43.32481" lon="1.1262">
        <ele>256.2</ele>
        <time>2024-07-30T07:52:21Z</time>
      </trkpt>
      <trkpt lat="43.32481" lon="1.12608">
        <ele>255.8</ele>
        <time>2024-07-30T07:52:22Z</time>
      </trkpt>
      <trkpt lat="43.32482" lon="1.12596">
        <ele>255.2</ele>
        <time>2024-07-30T07:52:23Z</time>
      </trkpt>
      <trkpt lat="43.32485" lon="1.12584">
        <ele>254.8</ele>
        <time>2024-07-30T07:52:24Z</time>
      </trkpt>
      <trkpt lat="43.32488" lon="1.12572">
        <ele>254.2</ele>
        <time>2024-07-30T07:52:25Z</time>
      </trkpt>
      <trkpt lat="43.32492" lon="1.12561">
        <ele>253.4</ele>
        <time>2024-07-30T07:52:26Z</time>
      </trkpt>
      <trkpt lat="43.32494" lon="1.12549">
        <ele>253.2</ele>
        <time>2024-07-30T07:52:27Z</time>
      </trkpt>
      <trkpt lat="43.32495" lon="1.12537">
        <ele>252.4</ele>
        <time>2024-07-30T07:52:28Z</time>
      </trkpt>
      <trkpt lat="43.32495" lon="1.12525">
        <ele>252</ele>
        <time>2024-07-30T07:52:29Z</time>
      </trkpt>
      <trkpt lat="43.32494" lon="1.12515">
        <ele>251.2</ele>
        <time>2024-07-30T07:52:30Z</time>
      </trkpt>
      <trkpt lat="43.32491" lon="1.125">
        <ele>251</ele>
        <time>2024-07-30T07:52:31Z</time>
      </trkpt>
      <trkpt lat="43.32487" lon="1.12489">
        <ele>250.6</ele>
        <time>2024-07-30T07:52:32Z</time>
      </trkpt>
      <trkpt lat="43.32483" lon="1.1248">
        <ele>250.2</ele>
        <time>2024-07-30T07:52:33Z</time>
      </trkpt>
      <trkpt lat="43.32476" lon="1.12471">
        <ele>250.2</ele>
        <time>2024-07-30T07:52:34Z</time>
      </trkpt>
      <trkpt lat="43.32467" lon="1.12463">
        <ele>249.4</ele>
        <time>2024-07-30T07:52:35Z</time>
      </trkpt>
      <trkpt lat="43.32458" lon="1.12458">
        <ele>249.2</ele>
        <time>2024-07-30T07:52:36Z</time>
      </trkpt>
      <trkpt lat="43.32445" lon="1.12454">
        <ele>248.6</ele>
        <time>2024-07-30T07:52:37Z</time>
      </trkpt>
      <trkpt lat="43.32433" lon="1.12452">
        <ele>248.2</ele>
        <time>2024-07-30T07:52:38Z</time>
      </trkpt>
      <trkpt lat="43.32424" lon="1.1245">
        <ele>247</ele>
        <time>2024-07-30T07:52:39Z</time>
      </trkpt>
      <trkpt lat="43.32411" lon="1.12448">
        <ele>246.2</ele>
        <time>2024-07-30T07:52:40Z</time>
      </trkpt>
      <trkpt lat="43.324" lon="1.12446">
        <ele>245.6</ele>
        <time>2024-07-30T07:52:41Z</time>
      </trkpt>
      <trkpt lat="43.32389" lon="1.12444">
        <ele>244.8</ele>
        <time>2024-07-30T07:52:42Z</time>
      </trkpt>
      <trkpt lat="43.3238" lon="1.12442">
        <ele>244.4</ele>
        <time>2024-07-30T07:52:43Z</time>
      </trkpt>
      <trkpt lat="43.32369" lon="1.1244">
        <ele>243.8</ele>
        <time>2024-07-30T07:52:44Z</time>
      </trkpt>
      <trkpt lat="43.32355" lon="1.12438">
        <ele>243.2</ele>
        <time>2024-07-30T07:52:45Z</time>
      </trkpt>
      <trkpt lat="43.32344" lon="1.12436">
        <ele>242.8</ele>
        <time>2024-07-30T07:52:46Z</time>
      </trkpt>
      <trkpt lat="43.32336" lon="1.12434">
        <ele>242.4</ele>
        <time>2024-07-30T07:52:47Z</time>
      </trkpt>
      <trkpt lat="43.32325" lon="1.12433">
        <ele>242.2</ele>
        <time>2024-07-30T07:52:48Z</time>
      </trkpt>
      <trkpt lat="43.32315" lon="1.12431">
        <ele>241.4</ele>
        <time>2024-07-30T07:52:49Z</time>
      </trkpt>
      <trkpt lat="43.32305" lon="1.12429">
        <ele>241.2</ele>
        <time>2024-07-30T07:52:50Z</time>
      </trkpt>
      <trkpt lat="43.32295" lon="1.12427">
        <ele>241</ele>
        <time>2024-07-30T07:52:51Z</time>
      </trkpt>
      <trkpt lat="43.32285" lon="1.12425">
        <ele>240.8</ele>
        <time>2024-07-30T07:52:52Z</time>
      </trkpt>
      <trkpt lat="43.32276" lon="1.12424">
        <ele>240.8</ele>
        <time>2024-07-30T07:52:53Z</time>
      </trkpt>
      <trkpt lat="43.32267" lon="1.12422">
        <ele>240.6</ele>
        <time>2024-07-30T07:52:54Z</time>
      </trkpt>
      <trkpt lat="43.32258" lon="1.12421">
        <ele>240.4</ele>
        <time>2024-07-30T07:52:55Z</time>
      </trkpt>
      <trkpt lat="43.3225" lon="1.12419">
        <ele>240.4</ele>
        <time>2024-07-30T07:52:56Z</time>
      </trkpt>
      <trkpt lat="43.32242" lon="1.12418">
        <ele>240.2</ele>
        <time>2024-07-30T07:52:57Z</time>
      </trkpt>
      <trkpt lat="43.32235" lon="1.12416">
        <ele>240.2</ele>
        <time>2024-07-30T07:52:58Z</time>
      </trkpt>
      <trkpt lat="43.32228" lon="1.12415">
        <ele>240.2</ele>
        <time>2024-07-30T07:52:59Z</time>
      </trkpt>
      <trkpt lat="43.32222" lon="1.12414">
        <ele>240.2</ele>
        <time>2024-07-30T07:53:00Z</time>
      </trkpt>
      <trkpt lat="43.32216" lon="1.12413">
        <ele>240.2</ele>
        <time>2024-07-30T07:53:01Z</time>
      </trkpt>
      <trkpt lat="43.32212" lon="1.12413">
        <ele>240</ele>
        <time>2024-07-30T07:53:02Z</time>
      </trkpt>
      <trkpt lat="43.32208" lon="1.12415">
        <ele>239.8</ele>
        <time>2024-07-30T07:53:03Z</time>
      </trkpt>
      <trkpt lat="43.32205" lon="1.12417">
        <ele>239.6</ele>
        <time>2024-07-30T07:53:04Z</time>
      </trkpt>
      <trkpt lat="43.32203" lon="1.12421">
        <ele>239.4</ele>
        <time>2024-07-30T07:53:05Z</time>
      </trkpt>
      <trkpt lat="43.32203" lon="1.12425">
        <ele>239.2</ele>
        <time>2024-07-30T07:53:06Z</time>
      </trkpt>
      <trkpt lat="43.32203" lon="1.1243">
        <ele>239.2</ele>
        <time>2024-07-30T07:53:07Z</time>
      </trkpt>
      <trkpt lat="43.32205" lon="1.12435">
        <ele>239</ele>
        <time>2024-07-30T07:53:08Z</time>
      </trkpt>
      <trkpt lat="43.32206" lon="1.1244">
        <ele>239</ele>
        <time>2024-07-30T07:53:09Z</time>
      </trkpt>
      <trkpt lat="43.32208" lon="1.12445">
        <ele>238.8</ele>
        <time>2024-07-30T07:53:10Z</time>
      </trkpt>
      <trkpt lat="43.32209" lon="1.12451">
        <ele>238.8</ele>
        <time>2024-07-30T07:53:11Z</time>
      </trkpt>
      <trkpt lat="43.32211" lon="1.12457">
        <ele>238.8</ele>
        <time>2024-07-30T07:53:12Z</time>
      </trkpt>
      <trkpt lat="43.32213" lon="1.12462">
        <ele>238.6</ele>
        <time>2024-07-30T07:53:13Z</time>
      </trkpt>
      <trkpt lat="43.32214" lon="1.12467">
        <ele>238.6</ele>
        <time>2024-07-30T07:53:14Z</time>
      </trkpt>
      <trkpt lat="43.32216" lon="1.12473">
        <ele>238.2</ele>
        <time>2024-07-30T07:53:15Z</time>
      </trkpt>
      <trkpt lat="43.32217" lon="1.12479">
        <ele>238</ele>
        <time>2024-07-30T07:53:16Z</time>
      </trkpt>
      <trkpt lat="43.32219" lon="1.12487">
        <ele>237.8</ele>
        <time>2024-07-30T07:53:17Z</time>
      </trkpt>
      <trkpt lat="43.3222" lon="1.12494">
        <ele>237.6</ele>
        <time>2024-07-30T07:53:18Z</time>
      </trkpt>
      <trkpt lat="43.32222" lon="1.12502">
        <ele>237.6</ele>
        <time>2024-07-30T07:53:19Z</time>
      </trkpt>
      <trkpt lat="43.32223" lon="1.12509">
        <ele>237.4</ele>
        <time>2024-07-30T07:53:20Z</time>
      </trkpt>
      <trkpt lat="43.32225" lon="1.12516">
        <ele>237.4</ele>
        <time>2024-07-30T07:53:21Z</time>
      </trkpt>
      <trkpt lat="43.32227" lon="1.12524">
        <ele>237.4</ele>
        <time>2024-07-30T07:53:22Z</time>
      </trkpt>
      <trkpt lat="43.32228" lon="1.12532">
        <ele>237.4</ele>
        <time>2024-07-30T07:53:23Z</time>
      </trkpt>
      <trkpt lat="43.32229" lon="1.12541">
        <ele>237.4</ele>
        <time>2024-07-30T07:53:24Z</time>
      </trkpt>
      <trkpt lat="43.3223" lon="1.12549">
        <ele>237.4</ele>
        <time>2024-07-30T07:53:25Z</time>
      </trkpt>
      <trkpt lat="43.32231" lon="1.12558">
        <ele>237.4</ele>
        <time>2024-07-30T07:53:26Z</time>
      </trkpt>
      <trkpt lat="43.32231" lon="1.12567">
        <ele>237.4</ele>
        <time>2024-07-30T07:53:27Z</time>
      </trkpt>
      <trkpt lat="43.32231" lon="1.12576">
        <ele>237.2</ele>
        <time>2024-07-30T07:53:28Z</time>
      </trkpt>
      <trkpt lat="43.32231" lon="1.12588">
        <ele>237.2</ele>
        <time>2024-07-30T07:53:29Z</time>
      </trkpt>
      <trkpt lat="43.32231" lon="1.12597">
        <ele>237</ele>
        <time>2024-07-30T07:53:30Z</time>
      </trkpt>
      <trkpt lat="43.32231" lon="1.12607">
        <ele>237</ele>
        <time>2024-07-30T07:53:31Z</time>
      </trkpt>
      <trkpt lat="43.32231" lon="1.12617">
        <ele>236.8</ele>
        <time>2024-07-30T07:53:32Z</time>
      </trkpt>
      <trkpt lat="43.3223" lon="1.12625">
        <ele>236.8</ele>
        <time>2024-07-30T07:53:33Z</time>
      </trkpt>
      <trkpt lat="43.32229" lon="1.12637">
        <ele>236.8</ele>
        <time>2024-07-30T07:53:34Z</time>
      </trkpt>
      <trkpt lat="43.32228" lon="1.12647">
        <ele>236.8</ele>
        <time>2024-07-30T07:53:35Z</time>
      </trkpt>
      <trkpt lat="43.32227" lon="1.12657">
        <ele>236.8</ele>
        <time>2024-07-30T07:53:36Z</time>
      </trkpt>
      <trkpt lat="43.32226" lon="1.12665">
        <ele>236.6</ele>
        <time>2024-07-30T07:53:37Z</time>
      </trkpt>
      <trkpt lat="43.32223" lon="1.12677">
        <ele>236.6</ele>
        <time>2024-07-30T07:53:38Z</time>
      </trkpt>
      <trkpt lat="43.32221" lon="1.12687">
        <ele>236.6</ele>
        <time>2024-07-30T07:53:39Z</time>
      </trkpt>
      <trkpt lat="43.32219" lon="1.12698">
        <ele>236.4</ele>
        <time>2024-07-30T07:53:40Z</time>
      </trkpt>
      <trkpt lat="43.32218" lon="1.12705">
        <ele>236.4</ele>
        <time>2024-07-30T07:53:41Z</time>
      </trkpt>
      <trkpt lat="43.32216" lon="1.12715">
        <ele>236.2</ele>
        <time>2024-07-30T07:53:42Z</time>
      </trkpt>
      <trkpt lat="43.32214" lon="1.12727">
        <ele>236</ele>
        <time>2024-07-30T07:53:43Z</time>
      </trkpt>
      <trkpt lat="43.32212" lon="1.12737">
        <ele>235.8</ele>
        <time>2024-07-30T07:53:44Z</time>
      </trkpt>
      <trkpt lat="43.32211" lon="1.12745">
        <ele>235.8</ele>
        <time>2024-07-30T07:53:45Z</time>
      </trkpt>
      <trkpt lat="43.3221" lon="1.12755">
        <ele>235.8</ele>
        <time>2024-07-30T07:53:46Z</time>
      </trkpt>
      <trkpt lat="43.32209" lon="1.12765">
        <ele>235.8</ele>
        <time>2024-07-30T07:53:47Z</time>
      </trkpt>
      <trkpt lat="43.32209" lon="1.12777">
        <ele>235.6</ele>
        <time>2024-07-30T07:53:48Z</time>
      </trkpt>
      <trkpt lat="43.32208" lon="1.12787">
        <ele>235.6</ele>
        <time>2024-07-30T07:53:49Z</time>
      </trkpt>
      <trkpt lat="43.32208" lon="1.12797">
        <ele>235.6</ele>
        <time>2024-07-30T07:53:50Z</time>
      </trkpt>
      <trkpt lat="43.32208" lon="1.12806">
        <ele>235.6</ele>
        <time>2024-07-30T07:53:51Z</time>
      </trkpt>
      <trkpt lat="43.32207" lon="1.12816">
        <ele>235.6</ele>
        <time>2024-07-30T07:53:52Z</time>
      </trkpt>
      <trkpt lat="43.32207" lon="1.12827">
        <ele>235.6</ele>
        <time>2024-07-30T07:53:53Z</time>
      </trkpt>
      <trkpt lat="43.32206" lon="1.12837">
        <ele>235.6</ele>
        <time>2024-07-30T07:53:54Z</time>
      </trkpt>
      <trkpt lat="43.32206" lon="1.12846">
        <ele>235.6</ele>
        <time>2024-07-30T07:53:55Z</time>
      </trkpt>
      <trkpt lat="43.32206" lon="1.12853">
        <ele>235.6</ele>
        <time>2024-07-30T07:53:56Z</time>
      </trkpt>
      <trkpt lat="43.32205" lon="1.12862">
        <ele>235.6</ele>
        <time>2024-07-30T07:53:57Z</time>
      </trkpt>
      <trkpt lat="43.32205" lon="1.12871">
        <ele>235.6</ele>
        <time>2024-07-30T07:53:58Z</time>
      </trkpt>
      <trkpt lat="43.32204" lon="1.1288">
        <ele>235.6</ele>
        <time>2024-07-30T07:53:59Z</time>
      </trkpt>
      <trkpt lat="43.32203" lon="1.12889">
        <ele>235.6</ele>
        <time>2024-07-30T07:54:00Z</time>
      </trkpt>
      <trkpt lat="43.32202" lon="1.12897">
        <ele>235.6</ele>
        <time>2024-07-30T07:54:01Z</time>
      </trkpt>
      <trkpt lat="43.32201" lon="1.12906">
        <ele>235.6</ele>
        <time>2024-07-30T07:54:02Z</time>
      </trkpt>
      <trkpt lat="43.322" lon="1.12915">
        <ele>235.6</ele>
        <time>2024-07-30T07:54:03Z</time>
      </trkpt>
      <trkpt lat="43.32199" lon="1.12924">
        <ele>235.6</ele>
        <time>2024-07-30T07:54:04Z</time>
      </trkpt>
      <trkpt lat="43.32198" lon="1.12933">
        <ele>235.8</ele>
        <time>2024-07-30T07:54:05Z</time>
      </trkpt>
      <trkpt lat="43.32196" lon="1.12941">
        <ele>235.8</ele>
        <time>2024-07-30T07:54:06Z</time>
      </trkpt>
      <trkpt lat="43.32195" lon="1.1295">
        <ele>235.8</ele>
        <time>2024-07-30T07:54:07Z</time>
      </trkpt>
      <trkpt lat="43.32193" lon="1.1296">
        <ele>235.8</ele>
        <time>2024-07-30T07:54:08Z</time>
      </trkpt>
      <trkpt lat="43.32192" lon="1.12969">
        <ele>236</ele>
        <time>2024-07-30T07:54:09Z</time>
      </trkpt>
      <trkpt lat="43.3219" lon="1.12978">
        <ele>236</ele>
        <time>2024-07-30T07:54:10Z</time>
      </trkpt>
      <trkpt lat="43.32188" lon="1.12988">
        <ele>236</ele>
        <time>2024-07-30T07:54:11Z</time>
      </trkpt>
      <trkpt lat="43.32186" lon="1.12998">
        <ele>236</ele>
        <time>2024-07-30T07:54:12Z</time>
      </trkpt>
      <trkpt lat="43.32184" lon="1.13008">
        <ele>236</ele>
        <time>2024-07-30T07:54:13Z</time>
      </trkpt>
      <trkpt lat="43.32182" lon="1.13019">
        <ele>236</ele>
        <time>2024-07-30T07:54:14Z</time>
      </trkpt>
      <trkpt lat="43.3218" lon="1.13029">
        <ele>236</ele>
        <time>2024-07-30T07:54:15Z</time>
      </trkpt>
      <trkpt lat="43.32178" lon="1.1304">
        <ele>236</ele>
        <time>2024-07-30T07:54:16Z</time>
      </trkpt>
      <trkpt lat="43.32176" lon="1.1305">
        <ele>235.8</ele>
        <time>2024-07-30T07:54:17Z</time>
      </trkpt>
      <trkpt lat="43.32174" lon="1.1306">
        <ele>235.6</ele>
        <time>2024-07-30T07:54:18Z</time>
      </trkpt>
      <trkpt lat="43.32172" lon="1.13071">
        <ele>235.4</ele>
        <time>2024-07-30T07:54:19Z</time>
      </trkpt>
      <trkpt lat="43.3217" lon="1.13081">
        <ele>235.2</ele>
        <time>2024-07-30T07:54:20Z</time>
      </trkpt>
      <trkpt lat="43.32168" lon="1.13092">
        <ele>235.2</ele>
        <time>2024-07-30T07:54:21Z</time>
      </trkpt>
      <trkpt lat="43.32166" lon="1.13102">
        <ele>235</ele>
        <time>2024-07-30T07:54:22Z</time>
      </trkpt>
      <trkpt lat="43.32165" lon="1.13113">
        <ele>234.8</ele>
        <time>2024-07-30T07:54:23Z</time>
      </trkpt>
      <trkpt lat="43.32163" lon="1.13123">
        <ele>234.6</ele>
        <time>2024-07-30T07:54:24Z</time>
      </trkpt>
      <trkpt lat="43.32161" lon="1.13133">
        <ele>234.6</ele>
        <time>2024-07-30T07:54:25Z</time>
      </trkpt>
      <trkpt lat="43.32159" lon="1.13143">
        <ele>234.4</ele>
        <time>2024-07-30T07:54:26Z</time>
      </trkpt>
      <trkpt lat="43.32158" lon="1.13153">
        <ele>234.4</ele>
        <time>2024-07-30T07:54:27Z</time>
      </trkpt>
      <trkpt lat="43.32156" lon="1.13163">
        <ele>234.2</ele>
        <time>2024-07-30T07:54:28Z</time>
      </trkpt>
      <trkpt lat="43.32155" lon="1.13174">
        <ele>234.2</ele>
        <time>2024-07-30T07:54:29Z</time>
      </trkpt>
      <trkpt lat="43.32153" lon="1.13184">
        <ele>234.2</ele>
        <time>2024-07-30T07:54:30Z</time>
      </trkpt>
      <trkpt lat="43.32151" lon="1.13193">
        <ele>234.2</ele>
        <time>2024-07-30T07:54:31Z</time>
      </trkpt>
      <trkpt lat="43.32149" lon="1.13205">
        <ele>234</ele>
        <time>2024-07-30T07:54:32Z</time>
      </trkpt>
      <trkpt lat="43.32147" lon="1.13213">
        <ele>234</ele>
        <time>2024-07-30T07:54:33Z</time>
      </trkpt>
      <trkpt lat="43.32145" lon="1.13225">
        <ele>234</ele>
        <time>2024-07-30T07:54:34Z</time>
      </trkpt>
      <trkpt lat="43.32143" lon="1.13233">
        <ele>234</ele>
        <time>2024-07-30T07:54:35Z</time>
      </trkpt>
      <trkpt lat="43.32142" lon="1.13242">
        <ele>234</ele>
        <time>2024-07-30T07:54:36Z</time>
      </trkpt>
      <trkpt lat="43.3214" lon="1.13255">
        <ele>234</ele>
        <time>2024-07-30T07:54:37Z</time>
      </trkpt>
      <trkpt lat="43.32139" lon="1.13265">
        <ele>234</ele>
        <time>2024-07-30T07:54:38Z</time>
      </trkpt>
      <trkpt lat="43.32138" lon="1.13273">
        <ele>234</ele>
        <time>2024-07-30T07:54:39Z</time>
      </trkpt>
      <trkpt lat="43.32137" lon="1.13284">
        <ele>234.2</ele>
        <time>2024-07-30T07:54:40Z</time>
      </trkpt>
      <trkpt lat="43.32137" lon="1.13294">
        <ele>234.2</ele>
        <time>2024-07-30T07:54:41Z</time>
      </trkpt>
      <trkpt lat="43.32138" lon="1.13307">
        <ele>234</ele>
        <time>2024-07-30T07:54:42Z</time>
      </trkpt>
      <trkpt lat="43.32138" lon="1.13318">
        <ele>234</ele>
        <time>2024-07-30T07:54:43Z</time>
      </trkpt>
      <trkpt lat="43.32138" lon="1.13329">
        <ele>234</ele>
        <time>2024-07-30T07:54:44Z</time>
      </trkpt>
      <trkpt lat="43.32138" lon="1.13337">
        <ele>234</ele>
        <time>2024-07-30T07:54:45Z</time>
      </trkpt>
      <trkpt lat="43.32138" lon="1.13348">
        <ele>234</ele>
        <time>2024-07-30T07:54:46Z</time>
      </trkpt>
      <trkpt lat="43.32138" lon="1.13361">
        <ele>234</ele>
        <time>2024-07-30T07:54:47Z</time>
      </trkpt>
      <trkpt lat="43.32137" lon="1.13371">
        <ele>234</ele>
        <time>2024-07-30T07:54:48Z</time>
      </trkpt>
      <trkpt lat="43.32136" lon="1.1338">
        <ele>234</ele>
        <time>2024-07-30T07:54:49Z</time>
      </trkpt>
      <trkpt lat="43.32134" lon="1.13391">
        <ele>233.8</ele>
        <time>2024-07-30T07:54:50Z</time>
      </trkpt>
      <trkpt lat="43.32132" lon="1.13401">
        <ele>233.8</ele>
        <time>2024-07-30T07:54:51Z</time>
      </trkpt>
      <trkpt lat="43.3213" lon="1.13413">
        <ele>233.8</ele>
        <time>2024-07-30T07:54:52Z</time>
      </trkpt>
      <trkpt lat="43.32128" lon="1.13422">
        <ele>233.8</ele>
        <time>2024-07-30T07:54:53Z</time>
      </trkpt>
      <trkpt lat="43.32126" lon="1.13432">
        <ele>233.8</ele>
        <time>2024-07-30T07:54:54Z</time>
      </trkpt>
      <trkpt lat="43.32125" lon="1.13443">
        <ele>233.6</ele>
        <time>2024-07-30T07:54:55Z</time>
      </trkpt>
      <trkpt lat="43.32123" lon="1.13453">
        <ele>233.4</ele>
        <time>2024-07-30T07:54:56Z</time>
      </trkpt>
      <trkpt lat="43.32121" lon="1.13466">
        <ele>233.2</ele>
        <time>2024-07-30T07:54:57Z</time>
      </trkpt>
      <trkpt lat="43.3212" lon="1.13477">
        <ele>233</ele>
        <time>2024-07-30T07:54:58Z</time>
      </trkpt>
      <trkpt lat="43.3212" lon="1.13486">
        <ele>232.8</ele>
        <time>2024-07-30T07:54:59Z</time>
      </trkpt>
      <trkpt lat="43.3212" lon="1.13497">
        <ele>232.8</ele>
        <time>2024-07-30T07:55:00Z</time>
      </trkpt>
      <trkpt lat="43.3212" lon="1.13508">
        <ele>232.8</ele>
        <time>2024-07-30T07:55:01Z</time>
      </trkpt>
      <trkpt lat="43.3212" lon="1.13519">
        <ele>232.6</ele>
        <time>2024-07-30T07:55:02Z</time>
      </trkpt>
      <trkpt lat="43.32121" lon="1.1353">
        <ele>232.6</ele>
        <time>2024-07-30T07:55:03Z</time>
      </trkpt>
      <trkpt lat="43.32122" lon="1.13541">
        <ele>232.4</ele>
        <time>2024-07-30T07:55:04Z</time>
      </trkpt>
      <trkpt lat="43.32122" lon="1.13552">
        <ele>232.4</ele>
        <time>2024-07-30T07:55:05Z</time>
      </trkpt>
      <trkpt lat="43.32124" lon="1.13563">
        <ele>232.2</ele>
        <time>2024-07-30T07:55:06Z</time>
      </trkpt>
      <trkpt lat="43.32125" lon="1.13574">
        <ele>232.2</ele>
        <time>2024-07-30T07:55:07Z</time>
      </trkpt>
      <trkpt lat="43.32126" lon="1.13584">
        <ele>232</ele>
        <time>2024-07-30T07:55:08Z</time>
      </trkpt>
      <trkpt lat="43.32128" lon="1.13595">
        <ele>231.8</ele>
        <time>2024-07-30T07:55:09Z</time>
      </trkpt>
      <trkpt lat="43.32129" lon="1.13605">
        <ele>231.6</ele>
        <time>2024-07-30T07:55:10Z</time>
      </trkpt>
      <trkpt lat="43.3213" lon="1.13616">
        <ele>231.4</ele>
        <time>2024-07-30T07:55:11Z</time>
      </trkpt>
      <trkpt lat="43.32131" lon="1.13627">
        <ele>231.4</ele>
        <time>2024-07-30T07:55:12Z</time>
      </trkpt>
      <trkpt lat="43.32131" lon="1.13638">
        <ele>231.4</ele>
        <time>2024-07-30T07:55:13Z</time>
      </trkpt>
      <trkpt lat="43.32132" lon="1.13649">
        <ele>231.4</ele>
        <time>2024-07-30T07:55:14Z</time>
      </trkpt>
      <trkpt lat="43.32131" lon="1.1366">
        <ele>231.2</ele>
        <time>2024-07-30T07:55:15Z</time>
      </trkpt>
      <trkpt lat="43.32131" lon="1.1367">
        <ele>231.2</ele>
        <time>2024-07-30T07:55:16Z</time>
      </trkpt>
      <trkpt lat="43.3213" lon="1.13681">
        <ele>231.2</ele>
        <time>2024-07-30T07:55:17Z</time>
      </trkpt>
      <trkpt lat="43.32128" lon="1.13693">
        <ele>231.2</ele>
        <time>2024-07-30T07:55:18Z</time>
      </trkpt>
      <trkpt lat="43.32127" lon="1.13702">
        <ele>231</ele>
        <time>2024-07-30T07:55:19Z</time>
      </trkpt>
      <trkpt lat="43.32125" lon="1.13712">
        <ele>231</ele>
        <time>2024-07-30T07:55:20Z</time>
      </trkpt>
      <trkpt lat="43.32123" lon="1.13722">
        <ele>231</ele>
        <time>2024-07-30T07:55:21Z</time>
      </trkpt>
      <trkpt lat="43.32121" lon="1.13734">
        <ele>231</ele>
        <time>2024-07-30T07:55:22Z</time>
      </trkpt>
      <trkpt lat="43.32119" lon="1.13744">
        <ele>231</ele>
        <time>2024-07-30T07:55:23Z</time>
      </trkpt>
      <trkpt lat="43.32118" lon="1.13755">
        <ele>231</ele>
        <time>2024-07-30T07:55:24Z</time>
      </trkpt>
      <trkpt lat="43.32116" lon="1.13763">
        <ele>230.8</ele>
        <time>2024-07-30T07:55:25Z</time>
      </trkpt>
      <trkpt lat="43.32114" lon="1.13773">
        <ele>230.8</ele>
        <time>2024-07-30T07:55:26Z</time>
      </trkpt>
      <trkpt lat="43.32113" lon="1.13784">
        <ele>230.8</ele>
        <time>2024-07-30T07:55:27Z</time>
      </trkpt>
      <trkpt lat="43.32111" lon="1.13794">
        <ele>230.6</ele>
        <time>2024-07-30T07:55:28Z</time>
      </trkpt>
      <trkpt lat="43.3211" lon="1.13804">
        <ele>230.6</ele>
        <time>2024-07-30T07:55:29Z</time>
      </trkpt>
      <trkpt lat="43.32108" lon="1.13814">
        <ele>230.6</ele>
        <time>2024-07-30T07:55:30Z</time>
      </trkpt>
      <trkpt lat="43.32107" lon="1.13825">
        <ele>230.6</ele>
        <time>2024-07-30T07:55:31Z</time>
      </trkpt>
      <trkpt lat="43.32105" lon="1.13837">
        <ele>230.6</ele>
        <time>2024-07-30T07:55:32Z</time>
      </trkpt>
      <trkpt lat="43.32104" lon="1.13845">
        <ele>230.4</ele>
        <time>2024-07-30T07:55:33Z</time>
      </trkpt>
      <trkpt lat="43.32103" lon="1.13856">
        <ele>230.4</ele>
        <time>2024-07-30T07:55:34Z</time>
      </trkpt>
      <trkpt lat="43.32102" lon="1.13866">
        <ele>230.4</ele>
        <time>2024-07-30T07:55:35Z</time>
      </trkpt>
      <trkpt lat="43.32102" lon="1.13876">
        <ele>230.4</ele>
        <time>2024-07-30T07:55:36Z</time>
      </trkpt>
      <trkpt lat="43.32103" lon="1.13887">
        <ele>230.4</ele>
        <time>2024-07-30T07:55:37Z</time>
      </trkpt>
      <trkpt lat="43.32103" lon="1.13899">
        <ele>230.2</ele>
        <time>2024-07-30T07:55:38Z</time>
      </trkpt>
      <trkpt lat="43.32104" lon="1.13907">
        <ele>230.2</ele>
        <time>2024-07-30T07:55:39Z</time>
      </trkpt>
      <trkpt lat="43.32104" lon="1.13917">
        <ele>230.2</ele>
        <time>2024-07-30T07:55:40Z</time>
      </trkpt>
      <trkpt lat="43.32104" lon="1.1393">
        <ele>230.2</ele>
        <time>2024-07-30T07:55:41Z</time>
      </trkpt>
      <trkpt lat="43.32104" lon="1.13941">
        <ele>230.2</ele>
        <time>2024-07-30T07:55:42Z</time>
      </trkpt>
      <trkpt lat="43.32104" lon="1.13951">
        <ele>230.4</ele>
        <time>2024-07-30T07:55:43Z</time>
      </trkpt>
      <trkpt lat="43.32105" lon="1.1396">
        <ele>230.4</ele>
        <time>2024-07-30T07:55:44Z</time>
      </trkpt>
      <trkpt lat="43.32105" lon="1.1397">
        <ele>230.2</ele>
        <time>2024-07-30T07:55:45Z</time>
      </trkpt>
      <trkpt lat="43.32106" lon="1.13983">
        <ele>230.2</ele>
        <time>2024-07-30T07:55:46Z</time>
      </trkpt>
      <trkpt lat="43.32107" lon="1.13993">
        <ele>230.2</ele>
        <time>2024-07-30T07:55:47Z</time>
      </trkpt>
      <trkpt lat="43.32109" lon="1.14001">
        <ele>230.2</ele>
        <time>2024-07-30T07:55:48Z</time>
      </trkpt>
      <trkpt lat="43.32111" lon="1.14011">
        <ele>230.2</ele>
        <time>2024-07-30T07:55:49Z</time>
      </trkpt>
      <trkpt lat="43.32113" lon="1.14021">
        <ele>230.2</ele>
        <time>2024-07-30T07:55:50Z</time>
      </trkpt>
      <trkpt lat="43.32115" lon="1.1403">
        <ele>230.2</ele>
        <time>2024-07-30T07:55:51Z</time>
      </trkpt>
      <trkpt lat="43.32118" lon="1.14041">
        <ele>230.2</ele>
        <time>2024-07-30T07:55:52Z</time>
      </trkpt>
      <trkpt lat="43.3212" lon="1.14049">
        <ele>230.2</ele>
        <time>2024-07-30T07:55:53Z</time>
      </trkpt>
      <trkpt lat="43.32123" lon="1.14058">
        <ele>230.2</ele>
        <time>2024-07-30T07:55:54Z</time>
      </trkpt>
      <trkpt lat="43.32126" lon="1.14066">
        <ele>230.2</ele>
        <time>2024-07-30T07:55:55Z</time>
      </trkpt>
      <trkpt lat="43.3213" lon="1.14077">
        <ele>230.2</ele>
        <time>2024-07-30T07:55:56Z</time>
      </trkpt>
      <trkpt lat="43.32133" lon="1.14084">
        <ele>230</ele>
        <time>2024-07-30T07:55:57Z</time>
      </trkpt>
      <trkpt lat="43.32137" lon="1.14094">
        <ele>230</ele>
        <time>2024-07-30T07:55:58Z</time>
      </trkpt>
      <trkpt lat="43.3214" lon="1.14101">
        <ele>230</ele>
        <time>2024-07-30T07:55:59Z</time>
      </trkpt>
      <trkpt lat="43.32143" lon="1.1411">
        <ele>230</ele>
        <time>2024-07-30T07:56:00Z</time>
      </trkpt>
      <trkpt lat="43.32147" lon="1.1412">
        <ele>230</ele>
        <time>2024-07-30T07:56:01Z</time>
      </trkpt>
      <trkpt lat="43.3215" lon="1.14128">
        <ele>230</ele>
        <time>2024-07-30T07:56:02Z</time>
      </trkpt>
      <trkpt lat="43.32153" lon="1.14137">
        <ele>229.8</ele>
        <time>2024-07-30T07:56:03Z</time>
      </trkpt>
      <trkpt lat="43.32156" lon="1.14143">
        <ele>229.8</ele>
        <time>2024-07-30T07:56:04Z</time>
      </trkpt>
      <trkpt lat="43.32159" lon="1.14152">
        <ele>229.6</ele>
        <time>2024-07-30T07:56:05Z</time>
      </trkpt>
      <trkpt lat="43.32163" lon="1.14161">
        <ele>229.6</ele>
        <time>2024-07-30T07:56:06Z</time>
      </trkpt>
      <trkpt lat="43.32166" lon="1.14169">
        <ele>229.4</ele>
        <time>2024-07-30T07:56:07Z</time>
      </trkpt>
      <trkpt lat="43.32169" lon="1.14178">
        <ele>229.4</ele>
        <time>2024-07-30T07:56:08Z</time>
      </trkpt>
      <trkpt lat="43.32172" lon="1.14185">
        <ele>229.4</ele>
        <time>2024-07-30T07:56:09Z</time>
      </trkpt>
      <trkpt lat="43.32175" lon="1.14195">
        <ele>229.4</ele>
        <time>2024-07-30T07:56:10Z</time>
      </trkpt>
      <trkpt lat="43.32178" lon="1.14203">
        <ele>229.4</ele>
        <time>2024-07-30T07:56:11Z</time>
      </trkpt>
      <trkpt lat="43.32181" lon="1.14211">
        <ele>229.8</ele>
        <time>2024-07-30T07:56:12Z</time>
      </trkpt>
      <trkpt lat="43.32184" lon="1.1422">
        <ele>229.4</ele>
        <time>2024-07-30T07:56:13Z</time>
      </trkpt>
      <trkpt lat="43.32188" lon="1.14228">
        <ele>229.4</ele>
        <time>2024-07-30T07:56:14Z</time>
      </trkpt>
      <trkpt lat="43.32191" lon="1.14237">
        <ele>229.6</ele>
        <time>2024-07-30T07:56:15Z</time>
      </trkpt>
      <trkpt lat="43.32193" lon="1.14246">
        <ele>229.8</ele>
        <time>2024-07-30T07:56:16Z</time>
      </trkpt>
      <trkpt lat="43.32195" lon="1.14255">
        <ele>229.6</ele>
        <time>2024-07-30T07:56:17Z</time>
      </trkpt>
      <trkpt lat="43.32197" lon="1.14264">
        <ele>229.6</ele>
        <time>2024-07-30T07:56:18Z</time>
      </trkpt>
      <trkpt lat="43.32198" lon="1.14271">
        <ele>229.4</ele>
        <time>2024-07-30T07:56:19Z</time>
      </trkpt>
      <trkpt lat="43.32199" lon="1.14282">
        <ele>229.4</ele>
        <time>2024-07-30T07:56:20Z</time>
      </trkpt>
      <trkpt lat="43.32199" lon="1.14292">
        <ele>229.4</ele>
        <time>2024-07-30T07:56:21Z</time>
      </trkpt>
      <trkpt lat="43.32199" lon="1.14301">
        <ele>229.6</ele>
        <time>2024-07-30T07:56:22Z</time>
      </trkpt>
      <trkpt lat="43.322" lon="1.1431">
        <ele>229.6</ele>
        <time>2024-07-30T07:56:23Z</time>
      </trkpt>
      <trkpt lat="43.322" lon="1.14317">
        <ele>229.6</ele>
        <time>2024-07-30T07:56:24Z</time>
      </trkpt>
      <trkpt lat="43.322" lon="1.14329">
        <ele>229.6</ele>
        <time>2024-07-30T07:56:25Z</time>
      </trkpt>
      <trkpt lat="43.322" lon="1.14338">
        <ele>229.6</ele>
        <time>2024-07-30T07:56:26Z</time>
      </trkpt>
      <trkpt lat="43.322" lon="1.14347">
        <ele>229.6</ele>
        <time>2024-07-30T07:56:27Z</time>
      </trkpt>
      <trkpt lat="43.322" lon="1.14357">
        <ele>229.6</ele>
        <time>2024-07-30T07:56:28Z</time>
      </trkpt>
      <trkpt lat="43.322" lon="1.14365">
        <ele>229.8</ele>
        <time>2024-07-30T07:56:29Z</time>
      </trkpt>
      <trkpt lat="43.322" lon="1.14376">
        <ele>229.8</ele>
        <time>2024-07-30T07:56:30Z</time>
      </trkpt>
      <trkpt lat="43.32201" lon="1.14386">
        <ele>229.8</ele>
        <time>2024-07-30T07:56:31Z</time>
      </trkpt>
      <trkpt lat="43.32202" lon="1.14394">
        <ele>229.8</ele>
        <time>2024-07-30T07:56:32Z</time>
      </trkpt>
      <trkpt lat="43.32204" lon="1.14403">
        <ele>229.8</ele>
        <time>2024-07-30T07:56:33Z</time>
      </trkpt>
      <trkpt lat="43.32207" lon="1.14414">
        <ele>229.8</ele>
        <time>2024-07-30T07:56:34Z</time>
      </trkpt>
      <trkpt lat="43.3221" lon="1.14423">
        <ele>229.8</ele>
        <time>2024-07-30T07:56:35Z</time>
      </trkpt>
      <trkpt lat="43.32212" lon="1.14432">
        <ele>229.8</ele>
        <time>2024-07-30T07:56:36Z</time>
      </trkpt>
      <trkpt lat="43.32215" lon="1.14441">
        <ele>229.6</ele>
        <time>2024-07-30T07:56:37Z</time>
      </trkpt>
      <trkpt lat="43.32217" lon="1.1445">
        <ele>229.6</ele>
        <time>2024-07-30T07:56:38Z</time>
      </trkpt>
      <trkpt lat="43.3222" lon="1.14459">
        <ele>229.6</ele>
        <time>2024-07-30T07:56:39Z</time>
      </trkpt>
      <trkpt lat="43.32222" lon="1.14468">
        <ele>229.4</ele>
        <time>2024-07-30T07:56:40Z</time>
      </trkpt>
      <trkpt lat="43.32225" lon="1.14477">
        <ele>229.4</ele>
        <time>2024-07-30T07:56:41Z</time>
      </trkpt>
      <trkpt lat="43.32227" lon="1.14486">
        <ele>229.2</ele>
        <time>2024-07-30T07:56:42Z</time>
      </trkpt>
      <trkpt lat="43.3223" lon="1.14496">
        <ele>229.2</ele>
        <time>2024-07-30T07:56:43Z</time>
      </trkpt>
      <trkpt lat="43.32232" lon="1.14505">
        <ele>229.2</ele>
        <time>2024-07-30T07:56:44Z</time>
      </trkpt>
      <trkpt lat="43.32234" lon="1.14514">
        <ele>229.2</ele>
        <time>2024-07-30T07:56:45Z</time>
      </trkpt>
      <trkpt lat="43.32237" lon="1.14523">
        <ele>229.2</ele>
        <time>2024-07-30T07:56:46Z</time>
      </trkpt>
      <trkpt lat="43.32239" lon="1.14532">
        <ele>229.2</ele>
        <time>2024-07-30T07:56:47Z</time>
      </trkpt>
      <trkpt lat="43.32242" lon="1.14541">
        <ele>229</ele>
        <time>2024-07-30T07:56:48Z</time>
      </trkpt>
      <trkpt lat="43.32244" lon="1.1455">
        <ele>229</ele>
        <time>2024-07-30T07:56:49Z</time>
      </trkpt>
      <trkpt lat="43.32246" lon="1.14559">
        <ele>228.8</ele>
        <time>2024-07-30T07:56:50Z</time>
      </trkpt>
      <trkpt lat="43.32249" lon="1.14567">
        <ele>228.8</ele>
        <time>2024-07-30T07:56:51Z</time>
      </trkpt>
      <trkpt lat="43.32251" lon="1.14574">
        <ele>228.8</ele>
        <time>2024-07-30T07:56:52Z</time>
      </trkpt>
      <trkpt lat="43.32254" lon="1.14585">
        <ele>228.6</ele>
        <time>2024-07-30T07:56:53Z</time>
      </trkpt>
      <trkpt lat="43.32256" lon="1.14593">
        <ele>228.6</ele>
        <time>2024-07-30T07:56:54Z</time>
      </trkpt>
      <trkpt lat="43.32258" lon="1.14601">
        <ele>228.6</ele>
        <time>2024-07-30T07:56:55Z</time>
      </trkpt>
      <trkpt lat="43.32259" lon="1.1461">
        <ele>228.6</ele>
        <time>2024-07-30T07:56:56Z</time>
      </trkpt>
      <trkpt lat="43.32261" lon="1.14617">
        <ele>228.6</ele>
        <time>2024-07-30T07:56:57Z</time>
      </trkpt>
      <trkpt lat="43.32263" lon="1.14627">
        <ele>228.6</ele>
        <time>2024-07-30T07:56:58Z</time>
      </trkpt>
      <trkpt lat="43.32264" lon="1.14636">
        <ele>228.6</ele>
        <time>2024-07-30T07:56:59Z</time>
      </trkpt>
      <trkpt lat="43.32266" lon="1.14644">
        <ele>228.6</ele>
        <time>2024-07-30T07:57:00Z</time>
      </trkpt>
      <trkpt lat="43.32267" lon="1.14653">
        <ele>228.6</ele>
        <time>2024-07-30T07:57:01Z</time>
      </trkpt>
      <trkpt lat="43.32268" lon="1.14662">
        <ele>228.8</ele>
        <time>2024-07-30T07:57:02Z</time>
      </trkpt>
      <trkpt lat="43.32268" lon="1.14671">
        <ele>228.8</ele>
        <time>2024-07-30T07:57:03Z</time>
      </trkpt>
      <trkpt lat="43.32269" lon="1.1468">
        <ele>228.6</ele>
        <time>2024-07-30T07:57:04Z</time>
      </trkpt>
      <trkpt lat="43.32269" lon="1.14689">
        <ele>228.6</ele>
        <time>2024-07-30T07:57:05Z</time>
      </trkpt>
      <trkpt lat="43.32269" lon="1.14698">
        <ele>228.6</ele>
        <time>2024-07-30T07:57:06Z</time>
      </trkpt>
      <trkpt lat="43.3227" lon="1.14708">
        <ele>228.6</ele>
        <time>2024-07-30T07:57:07Z</time>
      </trkpt>
      <trkpt lat="43.3227" lon="1.14717">
        <ele>228.6</ele>
        <time>2024-07-30T07:57:08Z</time>
      </trkpt>
      <trkpt lat="43.3227" lon="1.14727">
        <ele>228.4</ele>
        <time>2024-07-30T07:57:09Z</time>
      </trkpt>
      <trkpt lat="43.32271" lon="1.14736">
        <ele>228.4</ele>
        <time>2024-07-30T07:57:10Z</time>
      </trkpt>
      <trkpt lat="43.32271" lon="1.14746">
        <ele>228.4</ele>
        <time>2024-07-30T07:57:11Z</time>
      </trkpt>
      <trkpt lat="43.32271" lon="1.14756">
        <ele>228.4</ele>
        <time>2024-07-30T07:57:12Z</time>
      </trkpt>
      <trkpt lat="43.32272" lon="1.14765">
        <ele>228.4</ele>
        <time>2024-07-30T07:57:13Z</time>
      </trkpt>
      <trkpt lat="43.32272" lon="1.14775">
        <ele>228.4</ele>
        <time>2024-07-30T07:57:14Z</time>
      </trkpt>
      <trkpt lat="43.32272" lon="1.14785">
        <ele>228.4</ele>
        <time>2024-07-30T07:57:15Z</time>
      </trkpt>
      <trkpt lat="43.32273" lon="1.14794">
        <ele>228.4</ele>
        <time>2024-07-30T07:57:16Z</time>
      </trkpt>
      <trkpt lat="43.32273" lon="1.14804">
        <ele>228.4</ele>
        <time>2024-07-30T07:57:17Z</time>
      </trkpt>
      <trkpt lat="43.32274" lon="1.14814">
        <ele>228.2</ele>
        <time>2024-07-30T07:57:18Z</time>
      </trkpt>
      <trkpt lat="43.32274" lon="1.14823">
        <ele>228.2</ele>
        <time>2024-07-30T07:57:19Z</time>
      </trkpt>
      <trkpt lat="43.32275" lon="1.14833">
        <ele>228.2</ele>
        <time>2024-07-30T07:57:20Z</time>
      </trkpt>
      <trkpt lat="43.32277" lon="1.14843">
        <ele>228.2</ele>
        <time>2024-07-30T07:57:21Z</time>
      </trkpt>
      <trkpt lat="43.32279" lon="1.14853">
        <ele>228.2</ele>
        <time>2024-07-30T07:57:22Z</time>
      </trkpt>
      <trkpt lat="43.3228" lon="1.14862">
        <ele>228.2</ele>
        <time>2024-07-30T07:57:23Z</time>
      </trkpt>
      <trkpt lat="43.32282" lon="1.14872">
        <ele>228.2</ele>
        <time>2024-07-30T07:57:24Z</time>
      </trkpt>
      <trkpt lat="43.32285" lon="1.14882">
        <ele>228.2</ele>
        <time>2024-07-30T07:57:25Z</time>
      </trkpt>
      <trkpt lat="43.32286" lon="1.1489">
        <ele>228.2</ele>
        <time>2024-07-30T07:57:26Z</time>
      </trkpt>
      <trkpt lat="43.32289" lon="1.14902">
        <ele>228.2</ele>
        <time>2024-07-30T07:57:27Z</time>
      </trkpt>
      <trkpt lat="43.32291" lon="1.14911">
        <ele>228.2</ele>
        <time>2024-07-30T07:57:28Z</time>
      </trkpt>
      <trkpt lat="43.32294" lon="1.14921">
        <ele>228.2</ele>
        <time>2024-07-30T07:57:29Z</time>
      </trkpt>
      <trkpt lat="43.32296" lon="1.1493">
        <ele>228.2</ele>
        <time>2024-07-30T07:57:30Z</time>
      </trkpt>
      <trkpt lat="43.32298" lon="1.1494">
        <ele>228.2</ele>
        <time>2024-07-30T07:57:31Z</time>
      </trkpt>
      <trkpt lat="43.323" lon="1.1495">
        <ele>228.2</ele>
        <time>2024-07-30T07:57:32Z</time>
      </trkpt>
      <trkpt lat="43.32302" lon="1.14959">
        <ele>228.2</ele>
        <time>2024-07-30T07:57:33Z</time>
      </trkpt>
      <trkpt lat="43.32304" lon="1.14969">
        <ele>228</ele>
        <time>2024-07-30T07:57:34Z</time>
      </trkpt>
      <trkpt lat="43.32307" lon="1.14979">
        <ele>228</ele>
        <time>2024-07-30T07:57:36Z</time>
      </trkpt>
      <trkpt lat="43.32309" lon="1.14988">
        <ele>228</ele>
        <time>2024-07-30T07:57:37Z</time>
      </trkpt>
      <trkpt lat="43.32311" lon="1.14998">
        <ele>228</ele>
        <time>2024-07-30T07:57:38Z</time>
      </trkpt>
      <trkpt lat="43.32314" lon="1.15008">
        <ele>227.8</ele>
        <time>2024-07-30T07:57:39Z</time>
      </trkpt>
      <trkpt lat="43.32316" lon="1.15017">
        <ele>227.8</ele>
        <time>2024-07-30T07:57:40Z</time>
      </trkpt>
      <trkpt lat="43.32318" lon="1.15025">
        <ele>227.8</ele>
        <time>2024-07-30T07:57:41Z</time>
      </trkpt>
      <trkpt lat="43.32321" lon="1.15037">
        <ele>227.6</ele>
        <time>2024-07-30T07:57:42Z</time>
      </trkpt>
      <trkpt lat="43.32323" lon="1.15046">
        <ele>227.6</ele>
        <time>2024-07-30T07:57:43Z</time>
      </trkpt>
      <trkpt lat="43.32325" lon="1.15055">
        <ele>227.6</ele>
        <time>2024-07-30T07:57:44Z</time>
      </trkpt>
      <trkpt lat="43.32327" lon="1.15065">
        <ele>227.6</ele>
        <time>2024-07-30T07:57:45Z</time>
      </trkpt>
      <trkpt lat="43.3233" lon="1.15074">
        <ele>227.4</ele>
        <time>2024-07-30T07:57:46Z</time>
      </trkpt>
      <trkpt lat="43.32333" lon="1.15083">
        <ele>227.4</ele>
        <time>2024-07-30T07:57:47Z</time>
      </trkpt>
      <trkpt lat="43.32336" lon="1.15092">
        <ele>227.4</ele>
        <time>2024-07-30T07:57:48Z</time>
      </trkpt>
      <trkpt lat="43.32339" lon="1.15102">
        <ele>227.4</ele>
        <time>2024-07-30T07:57:49Z</time>
      </trkpt>
      <trkpt lat="43.32342" lon="1.15111">
        <ele>227.4</ele>
        <time>2024-07-30T07:57:50Z</time>
      </trkpt>
      <trkpt lat="43.32345" lon="1.1512">
        <ele>227.4</ele>
        <time>2024-07-30T07:57:51Z</time>
      </trkpt>
      <trkpt lat="43.32348" lon="1.1513">
        <ele>227.4</ele>
        <time>2024-07-30T07:57:52Z</time>
      </trkpt>
      <trkpt lat="43.32352" lon="1.15139">
        <ele>227.2</ele>
        <time>2024-07-30T07:57:53Z</time>
      </trkpt>
      <trkpt lat="43.32354" lon="1.15148">
        <ele>227.2</ele>
        <time>2024-07-30T07:57:54Z</time>
      </trkpt>
      <trkpt lat="43.32357" lon="1.15157">
        <ele>227</ele>
        <time>2024-07-30T07:57:55Z</time>
      </trkpt>
      <trkpt lat="43.3236" lon="1.15167">
        <ele>227</ele>
        <time>2024-07-30T07:57:56Z</time>
      </trkpt>
      <trkpt lat="43.32363" lon="1.15176">
        <ele>226.8</ele>
        <time>2024-07-30T07:57:57Z</time>
      </trkpt>
      <trkpt lat="43.32365" lon="1.15186">
        <ele>226.8</ele>
        <time>2024-07-30T07:57:58Z</time>
      </trkpt>
      <trkpt lat="43.32368" lon="1.15195">
        <ele>226.8</ele>
        <time>2024-07-30T07:57:59Z</time>
      </trkpt>
      <trkpt lat="43.32371" lon="1.15205">
        <ele>226.8</ele>
        <time>2024-07-30T07:58:00Z</time>
      </trkpt>
      <trkpt lat="43.32374" lon="1.15214">
        <ele>226.8</ele>
        <time>2024-07-30T07:58:01Z</time>
      </trkpt>
      <trkpt lat="43.32376" lon="1.15224">
        <ele>226.8</ele>
        <time>2024-07-30T07:58:02Z</time>
      </trkpt>
      <trkpt lat="43.32379" lon="1.15234">
        <ele>226.6</ele>
        <time>2024-07-30T07:58:03Z</time>
      </trkpt>
      <trkpt lat="43.32382" lon="1.15243">
        <ele>226.6</ele>
        <time>2024-07-30T07:58:04Z</time>
      </trkpt>
      <trkpt lat="43.32385" lon="1.15253">
        <ele>226.6</ele>
        <time>2024-07-30T07:58:05Z</time>
      </trkpt>
      <trkpt lat="43.32387" lon="1.15262">
        <ele>226.4</ele>
        <time>2024-07-30T07:58:06Z</time>
      </trkpt>
      <trkpt lat="43.3239" lon="1.15272">
        <ele>226.4</ele>
        <time>2024-07-30T07:58:07Z</time>
      </trkpt>
      <trkpt lat="43.32393" lon="1.15281">
        <ele>226.4</ele>
        <time>2024-07-30T07:58:08Z</time>
      </trkpt>
      <trkpt lat="43.32395" lon="1.15291">
        <ele>226.4</ele>
        <time>2024-07-30T07:58:09Z</time>
      </trkpt>
      <trkpt lat="43.32397" lon="1.153">
        <ele>226.6</ele>
        <time>2024-07-30T07:58:10Z</time>
      </trkpt>
      <trkpt lat="43.324" lon="1.1531">
        <ele>226.6</ele>
        <time>2024-07-30T07:58:11Z</time>
      </trkpt>
      <trkpt lat="43.32402" lon="1.15319">
        <ele>226.6</ele>
        <time>2024-07-30T07:58:12Z</time>
      </trkpt>
      <trkpt lat="43.32404" lon="1.15329">
        <ele>226.6</ele>
        <time>2024-07-30T07:58:13Z</time>
      </trkpt>
      <trkpt lat="43.32406" lon="1.15338">
        <ele>226.6</ele>
        <time>2024-07-30T07:58:14Z</time>
      </trkpt>
      <trkpt lat="43.32409" lon="1.15348">
        <ele>226.6</ele>
        <time>2024-07-30T07:58:15Z</time>
      </trkpt>
      <trkpt lat="43.32411" lon="1.15358">
        <ele>226.6</ele>
        <time>2024-07-30T07:58:16Z</time>
      </trkpt>
      <trkpt lat="43.32414" lon="1.15368">
        <ele>226.8</ele>
        <time>2024-07-30T07:58:17Z</time>
      </trkpt>
      <trkpt lat="43.32416" lon="1.15378">
        <ele>226.8</ele>
        <time>2024-07-30T07:58:18Z</time>
      </trkpt>
      <trkpt lat="43.32419" lon="1.15388">
        <ele>226.8</ele>
        <time>2024-07-30T07:58:19Z</time>
      </trkpt>
      <trkpt lat="43.32421" lon="1.15398">
        <ele>226.8</ele>
        <time>2024-07-30T07:58:20Z</time>
      </trkpt>
      <trkpt lat="43.32423" lon="1.15408">
        <ele>226.8</ele>
        <time>2024-07-30T07:58:21Z</time>
      </trkpt>
      <trkpt lat="43.32426" lon="1.15418">
        <ele>226.8</ele>
        <time>2024-07-30T07:58:22Z</time>
      </trkpt>
      <trkpt lat="43.32429" lon="1.15427">
        <ele>226.6</ele>
        <time>2024-07-30T07:58:23Z</time>
      </trkpt>
      <trkpt lat="43.32432" lon="1.15437">
        <ele>226.6</ele>
        <time>2024-07-30T07:58:24Z</time>
      </trkpt>
      <trkpt lat="43.32435" lon="1.15447">
        <ele>226.6</ele>
        <time>2024-07-30T07:58:25Z</time>
      </trkpt>
      <trkpt lat="43.32438" lon="1.15456">
        <ele>226.6</ele>
        <time>2024-07-30T07:58:26Z</time>
      </trkpt>
      <trkpt lat="43.32442" lon="1.15465">
        <ele>226.6</ele>
        <time>2024-07-30T07:58:27Z</time>
      </trkpt>
      <trkpt lat="43.32444" lon="1.15472">
        <ele>226.6</ele>
        <time>2024-07-30T07:58:28Z</time>
      </trkpt>
      <trkpt lat="43.32448" lon="1.15483">
        <ele>226.4</ele>
        <time>2024-07-30T07:58:29Z</time>
      </trkpt>
      <trkpt lat="43.32452" lon="1.15493">
        <ele>226.4</ele>
        <time>2024-07-30T07:58:30Z</time>
      </trkpt>
      <trkpt lat="43.32455" lon="1.15502">
        <ele>226.2</ele>
        <time>2024-07-30T07:58:31Z</time>
      </trkpt>
      <trkpt lat="43.32459" lon="1.15511">
        <ele>226.2</ele>
        <time>2024-07-30T07:58:32Z</time>
      </trkpt>
      <trkpt lat="43.32462" lon="1.15519">
        <ele>226.2</ele>
        <time>2024-07-30T07:58:33Z</time>
      </trkpt>
      <trkpt lat="43.32465" lon="1.15528">
        <ele>226.2</ele>
        <time>2024-07-30T07:58:34Z</time>
      </trkpt>
      <trkpt lat="43.32469" lon="1.15539">
        <ele>226</ele>
        <time>2024-07-30T07:58:35Z</time>
      </trkpt>
      <trkpt lat="43.32473" lon="1.15549">
        <ele>226</ele>
        <time>2024-07-30T07:58:36Z</time>
      </trkpt>
      <trkpt lat="43.32476" lon="1.15557">
        <ele>226</ele>
        <time>2024-07-30T07:58:37Z</time>
      </trkpt>
      <trkpt lat="43.32479" lon="1.15566">
        <ele>226.2</ele>
        <time>2024-07-30T07:58:38Z</time>
      </trkpt>
      <trkpt lat="43.32483" lon="1.15578">
        <ele>226.2</ele>
        <time>2024-07-30T07:58:39Z</time>
      </trkpt>
      <trkpt lat="43.32487" lon="1.15587">
        <ele>226.2</ele>
        <time>2024-07-30T07:58:40Z</time>
      </trkpt>
      <trkpt lat="43.3249" lon="1.15598">
        <ele>226.2</ele>
        <time>2024-07-30T07:58:41Z</time>
      </trkpt>
      <trkpt lat="43.32493" lon="1.15608">
        <ele>226.2</ele>
        <time>2024-07-30T07:58:42Z</time>
      </trkpt>
      <trkpt lat="43.32495" lon="1.15618">
        <ele>226.2</ele>
        <time>2024-07-30T07:58:43Z</time>
      </trkpt>
      <trkpt lat="43.32498" lon="1.15628">
        <ele>226.4</ele>
        <time>2024-07-30T07:58:44Z</time>
      </trkpt>
      <trkpt lat="43.32499" lon="1.15639">
        <ele>226.4</ele>
        <time>2024-07-30T07:58:45Z</time>
      </trkpt>
      <trkpt lat="43.32501" lon="1.15649">
        <ele>226.4</ele>
        <time>2024-07-30T07:58:46Z</time>
      </trkpt>
      <trkpt lat="43.32502" lon="1.1566">
        <ele>226.4</ele>
        <time>2024-07-30T07:58:47Z</time>
      </trkpt>
      <trkpt lat="43.32503" lon="1.1567">
        <ele>226.4</ele>
        <time>2024-07-30T07:58:48Z</time>
      </trkpt>
      <trkpt lat="43.32505" lon="1.15681">
        <ele>226.4</ele>
        <time>2024-07-30T07:58:49Z</time>
      </trkpt>
      <trkpt lat="43.32506" lon="1.15691">
        <ele>226.4</ele>
        <time>2024-07-30T07:58:50Z</time>
      </trkpt>
      <trkpt lat="43.32507" lon="1.15702">
        <ele>226.4</ele>
        <time>2024-07-30T07:58:51Z</time>
      </trkpt>
      <trkpt lat="43.32508" lon="1.15712">
        <ele>226.4</ele>
        <time>2024-07-30T07:58:52Z</time>
      </trkpt>
      <trkpt lat="43.32509" lon="1.15722">
        <ele>226.4</ele>
        <time>2024-07-30T07:58:53Z</time>
      </trkpt>
      <trkpt lat="43.3251" lon="1.15733">
        <ele>226.4</ele>
        <time>2024-07-30T07:58:54Z</time>
      </trkpt>
      <trkpt lat="43.32511" lon="1.15743">
        <ele>226.4</ele>
        <time>2024-07-30T07:58:55Z</time>
      </trkpt>
      <trkpt lat="43.32512" lon="1.15753">
        <ele>226.4</ele>
        <time>2024-07-30T07:58:56Z</time>
      </trkpt>
      <trkpt lat="43.32513" lon="1.15764">
        <ele>226</ele>
        <time>2024-07-30T07:58:57Z</time>
      </trkpt>
      <trkpt lat="43.32514" lon="1.15774">
        <ele>226</ele>
        <time>2024-07-30T07:58:58Z</time>
      </trkpt>
      <trkpt lat="43.32515" lon="1.15784">
        <ele>225.8</ele>
        <time>2024-07-30T07:58:59Z</time>
      </trkpt>
      <trkpt lat="43.32515" lon="1.15794">
        <ele>225.8</ele>
        <time>2024-07-30T07:59:00Z</time>
      </trkpt>
      <trkpt lat="43.32516" lon="1.15805">
        <ele>225.8</ele>
        <time>2024-07-30T07:59:01Z</time>
      </trkpt>
      <trkpt lat="43.32517" lon="1.15815">
        <ele>225.8</ele>
        <time>2024-07-30T07:59:02Z</time>
      </trkpt>
      <trkpt lat="43.32518" lon="1.15825">
        <ele>225.8</ele>
        <time>2024-07-30T07:59:03Z</time>
      </trkpt>
      <trkpt lat="43.32519" lon="1.15835">
        <ele>225.8</ele>
        <time>2024-07-30T07:59:04Z</time>
      </trkpt>
      <trkpt lat="43.32519" lon="1.15845">
        <ele>225.8</ele>
        <time>2024-07-30T07:59:05Z</time>
      </trkpt>
      <trkpt lat="43.3252" lon="1.15855">
        <ele>225.8</ele>
        <time>2024-07-30T07:59:06Z</time>
      </trkpt>
      <trkpt lat="43.32521" lon="1.15865">
        <ele>225.8</ele>
        <time>2024-07-30T07:59:07Z</time>
      </trkpt>
      <trkpt lat="43.32522" lon="1.15875">
        <ele>225.8</ele>
        <time>2024-07-30T07:59:08Z</time>
      </trkpt>
      <trkpt lat="43.32523" lon="1.15885">
        <ele>225.8</ele>
        <time>2024-07-30T07:59:09Z</time>
      </trkpt>
      <trkpt lat="43.32523" lon="1.15895">
        <ele>226</ele>
        <time>2024-07-30T07:59:10Z</time>
      </trkpt>
      <trkpt lat="43.32524" lon="1.15905">
        <ele>226</ele>
        <time>2024-07-30T07:59:11Z</time>
      </trkpt>
      <trkpt lat="43.32525" lon="1.15916">
        <ele>226</ele>
        <time>2024-07-30T07:59:12Z</time>
      </trkpt>
      <trkpt lat="43.32526" lon="1.15926">
        <ele>226</ele>
        <time>2024-07-30T07:59:13Z</time>
      </trkpt>
      <trkpt lat="43.32527" lon="1.15937">
        <ele>226</ele>
        <time>2024-07-30T07:59:14Z</time>
      </trkpt>
      <trkpt lat="43.32528" lon="1.15947">
        <ele>226</ele>
        <time>2024-07-30T07:59:15Z</time>
      </trkpt>
      <trkpt lat="43.32528" lon="1.15958">
        <ele>226</ele>
        <time>2024-07-30T07:59:16Z</time>
      </trkpt>
      <trkpt lat="43.32529" lon="1.15969">
        <ele>226</ele>
        <time>2024-07-30T07:59:17Z</time>
      </trkpt>
      <trkpt lat="43.3253" lon="1.1598">
        <ele>226</ele>
        <time>2024-07-30T07:59:18Z</time>
      </trkpt>
      <trkpt lat="43.32531" lon="1.15991">
        <ele>225.8</ele>
        <time>2024-07-30T07:59:19Z</time>
      </trkpt>
      <trkpt lat="43.32532" lon="1.16001">
        <ele>225.8</ele>
        <time>2024-07-30T07:59:20Z</time>
      </trkpt>
      <trkpt lat="43.32534" lon="1.16012">
        <ele>225.8</ele>
        <time>2024-07-30T07:59:21Z</time>
      </trkpt>
      <trkpt lat="43.32537" lon="1.16023">
        <ele>225.8</ele>
        <time>2024-07-30T07:59:22Z</time>
      </trkpt>
      <trkpt lat="43.3254" lon="1.16033">
        <ele>225.8</ele>
        <time>2024-07-30T07:59:23Z</time>
      </trkpt>
      <trkpt lat="43.32544" lon="1.16043">
        <ele>225.8</ele>
        <time>2024-07-30T07:59:24Z</time>
      </trkpt>
      <trkpt lat="43.32548" lon="1.16053">
        <ele>225.8</ele>
        <time>2024-07-30T07:59:25Z</time>
      </trkpt>
      <trkpt lat="43.32552" lon="1.16063">
        <ele>225.6</ele>
        <time>2024-07-30T07:59:26Z</time>
      </trkpt>
      <trkpt lat="43.32557" lon="1.16072">
        <ele>225.6</ele>
        <time>2024-07-30T07:59:27Z</time>
      </trkpt>
      <trkpt lat="43.32562" lon="1.16081">
        <ele>225.6</ele>
        <time>2024-07-30T07:59:28Z</time>
      </trkpt>
      <trkpt lat="43.32567" lon="1.16089">
        <ele>225.6</ele>
        <time>2024-07-30T07:59:29Z</time>
      </trkpt>
      <trkpt lat="43.32573" lon="1.16097">
        <ele>225.6</ele>
        <time>2024-07-30T07:59:30Z</time>
      </trkpt>
      <trkpt lat="43.32579" lon="1.16104">
        <ele>225.6</ele>
        <time>2024-07-30T07:59:31Z</time>
      </trkpt>
      <trkpt lat="43.32586" lon="1.16112">
        <ele>225.8</ele>
        <time>2024-07-30T07:59:32Z</time>
      </trkpt>
      <trkpt lat="43.32592" lon="1.16119">
        <ele>225.8</ele>
        <time>2024-07-30T07:59:33Z</time>
      </trkpt>
      <trkpt lat="43.32598" lon="1.16126">
        <ele>225.8</ele>
        <time>2024-07-30T07:59:34Z</time>
      </trkpt>
      <trkpt lat="43.32603" lon="1.16132">
        <ele>225.8</ele>
        <time>2024-07-30T07:59:35Z</time>
      </trkpt>
      <trkpt lat="43.32609" lon="1.16139">
        <ele>225.8</ele>
        <time>2024-07-30T07:59:36Z</time>
      </trkpt>
      <trkpt lat="43.32615" lon="1.16147">
        <ele>225.8</ele>
        <time>2024-07-30T07:59:37Z</time>
      </trkpt>
      <trkpt lat="43.32621" lon="1.16154">
        <ele>225.8</ele>
        <time>2024-07-30T07:59:38Z</time>
      </trkpt>
      <trkpt lat="43.32626" lon="1.16162">
        <ele>225.8</ele>
        <time>2024-07-30T07:59:39Z</time>
      </trkpt>
      <trkpt lat="43.32632" lon="1.16171">
        <ele>225.6</ele>
        <time>2024-07-30T07:59:40Z</time>
      </trkpt>
      <trkpt lat="43.32637" lon="1.16179">
        <ele>225.6</ele>
        <time>2024-07-30T07:59:41Z</time>
      </trkpt>
      <trkpt lat="43.32642" lon="1.16188">
        <ele>225.4</ele>
        <time>2024-07-30T07:59:42Z</time>
      </trkpt>
      <trkpt lat="43.32646" lon="1.16197">
        <ele>225.4</ele>
        <time>2024-07-30T07:59:43Z</time>
      </trkpt>
      <trkpt lat="43.3265" lon="1.16206">
        <ele>225.4</ele>
        <time>2024-07-30T07:59:44Z</time>
      </trkpt>
      <trkpt lat="43.32654" lon="1.16216">
        <ele>225.4</ele>
        <time>2024-07-30T07:59:45Z</time>
      </trkpt>
      <trkpt lat="43.32658" lon="1.16225">
        <ele>225.4</ele>
        <time>2024-07-30T07:59:46Z</time>
      </trkpt>
      <trkpt lat="43.32661" lon="1.16235">
        <ele>225.4</ele>
        <time>2024-07-30T07:59:47Z</time>
      </trkpt>
      <trkpt lat="43.32663" lon="1.16245">
        <ele>225.4</ele>
        <time>2024-07-30T07:59:48Z</time>
      </trkpt>
      <trkpt lat="43.32666" lon="1.16255">
        <ele>225.4</ele>
        <time>2024-07-30T07:59:49Z</time>
      </trkpt>
      <trkpt lat="43.32668" lon="1.16265">
        <ele>225.2</ele>
        <time>2024-07-30T07:59:50Z</time>
      </trkpt>
      <trkpt lat="43.32671" lon="1.16275">
        <ele>225.2</ele>
        <time>2024-07-30T07:59:51Z</time>
      </trkpt>
      <trkpt lat="43.32673" lon="1.16285">
        <ele>225.2</ele>
        <time>2024-07-30T07:59:52Z</time>
      </trkpt>
      <trkpt lat="43.32676" lon="1.16295">
        <ele>225.2</ele>
        <time>2024-07-30T07:59:53Z</time>
      </trkpt>
      <trkpt lat="43.32678" lon="1.16306">
        <ele>225.2</ele>
        <time>2024-07-30T07:59:54Z</time>
      </trkpt>
      <trkpt lat="43.32681" lon="1.16315">
        <ele>225.2</ele>
        <time>2024-07-30T07:59:55Z</time>
      </trkpt>
      <trkpt lat="43.32683" lon="1.16325">
        <ele>225.2</ele>
        <time>2024-07-30T07:59:56Z</time>
      </trkpt>
      <trkpt lat="43.32686" lon="1.16335">
        <ele>225.2</ele>
        <time>2024-07-30T07:59:57Z</time>
      </trkpt>
      <trkpt lat="43.32688" lon="1.16345">
        <ele>225.2</ele>
        <time>2024-07-30T07:59:58Z</time>
      </trkpt>
      <trkpt lat="43.32691" lon="1.16357">
        <ele>225.4</ele>
        <time>2024-07-30T07:59:59Z</time>
      </trkpt>
      <trkpt lat="43.32693" lon="1.16365">
        <ele>225.4</ele>
        <time>2024-07-30T08:00:00Z</time>
      </trkpt>
      <trkpt lat="43.32695" lon="1.16375">
        <ele>225.4</ele>
        <time>2024-07-30T08:00:01Z</time>
      </trkpt>
      <trkpt lat="43.32698" lon="1.16385">
        <ele>225.4</ele>
        <time>2024-07-30T08:00:02Z</time>
      </trkpt>
      <trkpt lat="43.327" lon="1.16394">
        <ele>225.4</ele>
        <time>2024-07-30T08:00:03Z</time>
      </trkpt>
      <trkpt lat="43.32703" lon="1.16404">
        <ele>225.2</ele>
        <time>2024-07-30T08:00:04Z</time>
      </trkpt>
      <trkpt lat="43.32706" lon="1.16416">
        <ele>225.2</ele>
        <time>2024-07-30T08:00:05Z</time>
      </trkpt>
      <trkpt lat="43.32708" lon="1.16426">
        <ele>225.4</ele>
        <time>2024-07-30T08:00:06Z</time>
      </trkpt>
      <trkpt lat="43.3271" lon="1.16435">
        <ele>225.4</ele>
        <time>2024-07-30T08:00:07Z</time>
      </trkpt>
      <trkpt lat="43.32713" lon="1.16445">
        <ele>225.4</ele>
        <time>2024-07-30T08:00:08Z</time>
      </trkpt>
      <trkpt lat="43.32715" lon="1.16455">
        <ele>225.4</ele>
        <time>2024-07-30T08:00:09Z</time>
      </trkpt>
      <trkpt lat="43.32718" lon="1.16464">
        <ele>225.2</ele>
        <time>2024-07-30T08:00:10Z</time>
      </trkpt>
      <trkpt lat="43.3272" lon="1.16474">
        <ele>225.2</ele>
        <time>2024-07-30T08:00:11Z</time>
      </trkpt>
      <trkpt lat="43.32722" lon="1.16483">
        <ele>225.2</ele>
        <time>2024-07-30T08:00:12Z</time>
      </trkpt>
      <trkpt lat="43.32724" lon="1.16493">
        <ele>225.2</ele>
        <time>2024-07-30T08:00:13Z</time>
      </trkpt>
      <trkpt lat="43.32727" lon="1.16502">
        <ele>225.2</ele>
        <time>2024-07-30T08:00:14Z</time>
      </trkpt>
      <trkpt lat="43.32729" lon="1.16512">
        <ele>225.2</ele>
        <time>2024-07-30T08:00:15Z</time>
      </trkpt>
      <trkpt lat="43.32731" lon="1.16521">
        <ele>225.2</ele>
        <time>2024-07-30T08:00:16Z</time>
      </trkpt>
      <trkpt lat="43.32733" lon="1.1653">
        <ele>225</ele>
        <time>2024-07-30T08:00:17Z</time>
      </trkpt>
      <trkpt lat="43.32736" lon="1.16539">
        <ele>225</ele>
        <time>2024-07-30T08:00:18Z</time>
      </trkpt>
      <trkpt lat="43.32738" lon="1.16549">
        <ele>225</ele>
        <time>2024-07-30T08:00:19Z</time>
      </trkpt>
      <trkpt lat="43.3274" lon="1.16558">
        <ele>224.8</ele>
        <time>2024-07-30T08:00:20Z</time>
      </trkpt>
      <trkpt lat="43.32743" lon="1.16568">
        <ele>224.8</ele>
        <time>2024-07-30T08:00:21Z</time>
      </trkpt>
      <trkpt lat="43.32745" lon="1.16578">
        <ele>224.8</ele>
        <time>2024-07-30T08:00:22Z</time>
      </trkpt>
      <trkpt lat="43.32748" lon="1.16588">
        <ele>225</ele>
        <time>2024-07-30T08:00:23Z</time>
      </trkpt>
      <trkpt lat="43.3275" lon="1.16597">
        <ele>224.8</ele>
        <time>2024-07-30T08:00:24Z</time>
      </trkpt>
      <trkpt lat="43.32752" lon="1.16607">
        <ele>224.8</ele>
        <time>2024-07-30T08:00:25Z</time>
      </trkpt>
      <trkpt lat="43.32755" lon="1.16617">
        <ele>224.8</ele>
        <time>2024-07-30T08:00:26Z</time>
      </trkpt>
      <trkpt lat="43.32757" lon="1.16627">
        <ele>224.8</ele>
        <time>2024-07-30T08:00:27Z</time>
      </trkpt>
      <trkpt lat="43.32759" lon="1.16636">
        <ele>225</ele>
        <time>2024-07-30T08:00:28Z</time>
      </trkpt>
      <trkpt lat="43.32762" lon="1.16646">
        <ele>225</ele>
        <time>2024-07-30T08:00:29Z</time>
      </trkpt>
      <trkpt lat="43.32764" lon="1.16656">
        <ele>225</ele>
        <time>2024-07-30T08:00:30Z</time>
      </trkpt>
      <trkpt lat="43.32765" lon="1.16666">
        <ele>225</ele>
        <time>2024-07-30T08:00:31Z</time>
      </trkpt>
      <trkpt lat="43.32766" lon="1.16677">
        <ele>225</ele>
        <time>2024-07-30T08:00:32Z</time>
      </trkpt>
      <trkpt lat="43.32768" lon="1.16687">
        <ele>224.8</ele>
        <time>2024-07-30T08:00:33Z</time>
      </trkpt>
      <trkpt lat="43.32769" lon="1.16697">
        <ele>224.8</ele>
        <time>2024-07-30T08:00:34Z</time>
      </trkpt>
      <trkpt lat="43.32769" lon="1.16708">
        <ele>224.6</ele>
        <time>2024-07-30T08:00:35Z</time>
      </trkpt>
      <trkpt lat="43.3277" lon="1.16718">
        <ele>224.6</ele>
        <time>2024-07-30T08:00:36Z</time>
      </trkpt>
      <trkpt lat="43.3277" lon="1.16728">
        <ele>224.6</ele>
        <time>2024-07-30T08:00:37Z</time>
      </trkpt>
      <trkpt lat="43.32771" lon="1.16739">
        <ele>224.6</ele>
        <time>2024-07-30T08:00:38Z</time>
      </trkpt>
      <trkpt lat="43.32771" lon="1.16749">
        <ele>224.4</ele>
        <time>2024-07-30T08:00:39Z</time>
      </trkpt>
      <trkpt lat="43.32771" lon="1.16759">
        <ele>224.4</ele>
        <time>2024-07-30T08:00:40Z</time>
      </trkpt>
      <trkpt lat="43.32771" lon="1.16769">
        <ele>224.4</ele>
        <time>2024-07-30T08:00:41Z</time>
      </trkpt>
      <trkpt lat="43.32771" lon="1.1678">
        <ele>224.4</ele>
        <time>2024-07-30T08:00:42Z</time>
      </trkpt>
      <trkpt lat="43.32771" lon="1.1679">
        <ele>224.4</ele>
        <time>2024-07-30T08:00:43Z</time>
      </trkpt>
      <trkpt lat="43.32771" lon="1.168">
        <ele>224.4</ele>
        <time>2024-07-30T08:00:44Z</time>
      </trkpt>
      <trkpt lat="43.32771" lon="1.16811">
        <ele>224.4</ele>
        <time>2024-07-30T08:00:45Z</time>
      </trkpt>
      <trkpt lat="43.3277" lon="1.16821">
        <ele>224.4</ele>
        <time>2024-07-30T08:00:46Z</time>
      </trkpt>
      <trkpt lat="43.3277" lon="1.1683">
        <ele>224.4</ele>
        <time>2024-07-30T08:00:47Z</time>
      </trkpt>
      <trkpt lat="43.3277" lon="1.16838">
        <ele>224.4</ele>
        <time>2024-07-30T08:00:48Z</time>
      </trkpt>
      <trkpt lat="43.32769" lon="1.1685">
        <ele>224.4</ele>
        <time>2024-07-30T08:00:49Z</time>
      </trkpt>
      <trkpt lat="43.32769" lon="1.1686">
        <ele>224.4</ele>
        <time>2024-07-30T08:00:50Z</time>
      </trkpt>
      <trkpt lat="43.32769" lon="1.1687">
        <ele>224.4</ele>
        <time>2024-07-30T08:00:51Z</time>
      </trkpt>
      <trkpt lat="43.32768" lon="1.1688">
        <ele>224.4</ele>
        <time>2024-07-30T08:00:52Z</time>
      </trkpt>
      <trkpt lat="43.32768" lon="1.1689">
        <ele>224.4</ele>
        <time>2024-07-30T08:00:53Z</time>
      </trkpt>
      <trkpt lat="43.32767" lon="1.16901">
        <ele>224.4</ele>
        <time>2024-07-30T08:00:54Z</time>
      </trkpt>
      <trkpt lat="43.32766" lon="1.16911">
        <ele>224.4</ele>
        <time>2024-07-30T08:00:55Z</time>
      </trkpt>
      <trkpt lat="43.32766" lon="1.16921">
        <ele>224.6</ele>
        <time>2024-07-30T08:00:56Z</time>
      </trkpt>
      <trkpt lat="43.32765" lon="1.16931">
        <ele>224.6</ele>
        <time>2024-07-30T08:00:57Z</time>
      </trkpt>
      <trkpt lat="43.32764" lon="1.16942">
        <ele>224.6</ele>
        <time>2024-07-30T08:00:58Z</time>
      </trkpt>
      <trkpt lat="43.32764" lon="1.16952">
        <ele>224.6</ele>
        <time>2024-07-30T08:00:59Z</time>
      </trkpt>
      <trkpt lat="43.32763" lon="1.16962">
        <ele>224.6</ele>
        <time>2024-07-30T08:01:00Z</time>
      </trkpt>
      <trkpt lat="43.32762" lon="1.16972">
        <ele>224.6</ele>
        <time>2024-07-30T08:01:01Z</time>
      </trkpt>
      <trkpt lat="43.32762" lon="1.16981">
        <ele>224.6</ele>
        <time>2024-07-30T08:01:02Z</time>
      </trkpt>
      <trkpt lat="43.32761" lon="1.1699">
        <ele>224.6</ele>
        <time>2024-07-30T08:01:03Z</time>
      </trkpt>
      <trkpt lat="43.32762" lon="1.16999">
        <ele>224.6</ele>
        <time>2024-07-30T08:01:04Z</time>
      </trkpt>
      <trkpt lat="43.32763" lon="1.17008">
        <ele>224.6</ele>
        <time>2024-07-30T08:01:05Z</time>
      </trkpt>
      <trkpt lat="43.32763" lon="1.17016">
        <ele>224.6</ele>
        <time>2024-07-30T08:01:06Z</time>
      </trkpt>
      <trkpt lat="43.32762" lon="1.17024">
        <ele>224.6</ele>
        <time>2024-07-30T08:01:07Z</time>
      </trkpt>
      <trkpt lat="43.3276" lon="1.17032">
        <ele>224.6</ele>
        <time>2024-07-30T08:01:08Z</time>
      </trkpt>
      <trkpt lat="43.32756" lon="1.17039">
        <ele>224.6</ele>
        <time>2024-07-30T08:01:09Z</time>
      </trkpt>
      <trkpt lat="43.32752" lon="1.17046">
        <ele>224.6</ele>
        <time>2024-07-30T08:01:10Z</time>
      </trkpt>
      <trkpt lat="43.32748" lon="1.17053">
        <ele>224.6</ele>
        <time>2024-07-30T08:01:11Z</time>
      </trkpt>
      <trkpt lat="43.32744" lon="1.1706">
        <ele>224.8</ele>
        <time>2024-07-30T08:01:12Z</time>
      </trkpt>
      <trkpt lat="43.32741" lon="1.17067">
        <ele>224.8</ele>
        <time>2024-07-30T08:01:13Z</time>
      </trkpt>
      <trkpt lat="43.32737" lon="1.17074">
        <ele>224.8</ele>
        <time>2024-07-30T08:01:14Z</time>
      </trkpt>
      <trkpt lat="43.32734" lon="1.17081">
        <ele>224.8</ele>
        <time>2024-07-30T08:01:15Z</time>
      </trkpt>
      <trkpt lat="43.32732" lon="1.17088">
        <ele>224.8</ele>
        <time>2024-07-30T08:01:16Z</time>
      </trkpt>
      <trkpt lat="43.32729" lon="1.17094">
        <ele>225</ele>
        <time>2024-07-30T08:01:17Z</time>
      </trkpt>
      <trkpt lat="43.32728" lon="1.17101">
        <ele>225</ele>
        <time>2024-07-30T08:01:18Z</time>
      </trkpt>
      <trkpt lat="43.32726" lon="1.17108">
        <ele>225</ele>
        <time>2024-07-30T08:01:19Z</time>
      </trkpt>
      <trkpt lat="43.32725" lon="1.17114">
        <ele>225</ele>
        <time>2024-07-30T08:01:20Z</time>
      </trkpt>
      <trkpt lat="43.32724" lon="1.17119">
        <ele>225</ele>
        <time>2024-07-30T08:01:21Z</time>
      </trkpt>
      <trkpt lat="43.32723" lon="1.17125">
        <ele>225</ele>
        <time>2024-07-30T08:01:22Z</time>
      </trkpt>
      <trkpt lat="43.32723" lon="1.1713">
        <ele>225</ele>
        <time>2024-07-30T08:01:23Z</time>
      </trkpt>
      <trkpt lat="43.32722" lon="1.17134">
        <ele>225.2</ele>
        <time>2024-07-30T08:01:24Z</time>
      </trkpt>
      <trkpt lat="43.32722" lon="1.17139">
        <ele>225.2</ele>
        <time>2024-07-30T08:01:25Z</time>
      </trkpt>
      <trkpt lat="43.32721" lon="1.17142">
        <ele>225.2</ele>
        <time>2024-07-30T08:01:26Z</time>
      </trkpt>
      <trkpt lat="43.32721" lon="1.17146">
        <ele>225.2</ele>
        <time>2024-07-30T08:01:27Z</time>
      </trkpt>
      <trkpt lat="43.32722" lon="1.17148">
        <ele>225.2</ele>
        <time>2024-07-30T08:01:28Z</time>
      </trkpt>
      <trkpt lat="43.32722" lon="1.1715">
        <ele>225.2</ele>
        <time>2024-07-30T08:01:29Z</time>
      </trkpt>
      <trkpt lat="43.32723" lon="1.1715">
        <ele>225.2</ele>
        <time>2024-07-30T08:01:30Z</time>
      </trkpt>
      <trkpt lat="43.32724" lon="1.17149">
        <ele>225.2</ele>
        <time>2024-07-30T08:01:31Z</time>
      </trkpt>
      <trkpt lat="43.32724" lon="1.17149">
        <ele>225.2</ele>
        <time>2024-07-30T08:01:32Z</time>
      </trkpt>
      <trkpt lat="43.32725" lon="1.17147">
        <ele>225.2</ele>
        <time>2024-07-30T08:01:33Z</time>
      </trkpt>
      <trkpt lat="43.32725" lon="1.17146">
        <ele>225.2</ele>
        <time>2024-07-30T08:01:34Z</time>
      </trkpt>
      <trkpt lat="43.32725" lon="1.17145">
        <ele>225.2</ele>
        <time>2024-07-30T08:01:35Z</time>
      </trkpt>
      <trkpt lat="43.32726" lon="1.17145">
        <ele>225.2</ele>
        <time>2024-07-30T08:01:36Z</time>
      </trkpt>
      <trkpt lat="43.32726" lon="1.17145">
        <ele>225.2</ele>
        <time>2024-07-30T08:01:37Z</time>
      </trkpt>
      <trkpt lat="43.32726" lon="1.17145">
        <ele>225.2</ele>
        <time>2024-07-30T08:01:38Z</time>
      </trkpt>
      <trkpt lat="43.32724" lon="1.17143">
        <ele>225</ele>
        <time>2024-07-30T08:02:42Z</time>
      </trkpt>
      <trkpt lat="43.32722" lon="1.17141">
        <ele>225</ele>
        <time>2024-07-30T08:02:43Z</time>
      </trkpt>
      <trkpt lat="43.3272" lon="1.17141">
        <ele>225</ele>
        <time>2024-07-30T08:02:44Z</time>
      </trkpt>
      <trkpt lat="43.32718" lon="1.17141">
        <ele>225</ele>
        <time>2024-07-30T08:02:45Z</time>
      </trkpt>
      <trkpt lat="43.32716" lon="1.17142">
        <ele>225</ele>
        <time>2024-07-30T08:02:46Z</time>
      </trkpt>
      <trkpt lat="43.32714" lon="1.17144">
        <ele>225</ele>
        <time>2024-07-30T08:02:47Z</time>
      </trkpt>
      <trkpt lat="43.32714" lon="1.17145">
        <ele>224.8</ele>
        <time>2024-07-30T08:02:48Z</time>
      </trkpt>
      <trkpt lat="43.32714" lon="1.17146">
        <ele>224.8</ele>
        <time>2024-07-30T08:02:49Z</time>
      </trkpt>
      <trkpt lat="43.32714" lon="1.17145">
        <ele>224.8</ele>
        <time>2024-07-30T08:02:50Z</time>
      </trkpt>
      <trkpt lat="43.32714" lon="1.17145">
        <ele>224.8</ele>
        <time>2024-07-30T08:02:51Z</time>
      </trkpt>
      <trkpt lat="43.32714" lon="1.17149">
        <ele>224</ele>
        <time>2024-07-30T08:06:43Z</time>
      </trkpt>
      <trkpt lat="43.32713" lon="1.17151">
        <ele>224</ele>
        <time>2024-07-30T08:06:44Z</time>
      </trkpt>
      <trkpt lat="43.32713" lon="1.17154">
        <ele>224</ele>
        <time>2024-07-30T08:06:45Z</time>
      </trkpt>
      <trkpt lat="43.32712" lon="1.17157">
        <ele>224</ele>
        <time>2024-07-30T08:06:46Z</time>
      </trkpt>
      <trkpt lat="43.32712" lon="1.1716">
        <ele>224</ele>
        <time>2024-07-30T08:06:47Z</time>
      </trkpt>
      <trkpt lat="43.32711" lon="1.17163">
        <ele>224</ele>
        <time>2024-07-30T08:06:48Z</time>
      </trkpt>
      <trkpt lat="43.3271" lon="1.17166">
        <ele>224</ele>
        <time>2024-07-30T08:06:49Z</time>
      </trkpt>
      <trkpt lat="43.32708" lon="1.17169">
        <ele>224</ele>
        <time>2024-07-30T08:06:50Z</time>
      </trkpt>
      <trkpt lat="43.32706" lon="1.17173">
        <ele>224.2</ele>
        <time>2024-07-30T08:06:51Z</time>
      </trkpt>
      <trkpt lat="43.32704" lon="1.17176">
        <ele>224.2</ele>
        <time>2024-07-30T08:06:52Z</time>
      </trkpt>
      <trkpt lat="43.32703" lon="1.17179">
        <ele>224.4</ele>
        <time>2024-07-30T08:06:53Z</time>
      </trkpt>
      <trkpt lat="43.32701" lon="1.17183">
        <ele>224.4</ele>
        <time>2024-07-30T08:06:54Z</time>
      </trkpt>
      <trkpt lat="43.32699" lon="1.17186">
        <ele>224.4</ele>
        <time>2024-07-30T08:06:55Z</time>
      </trkpt>
      <trkpt lat="43.32697" lon="1.17189">
        <ele>224.6</ele>
        <time>2024-07-30T08:06:56Z</time>
      </trkpt>
      <trkpt lat="43.32694" lon="1.17193">
        <ele>224.6</ele>
        <time>2024-07-30T08:06:57Z</time>
      </trkpt>
      <trkpt lat="43.32693" lon="1.17196">
        <ele>224.6</ele>
        <time>2024-07-30T08:06:58Z</time>
      </trkpt>
      <trkpt lat="43.3269" lon="1.172">
        <ele>224.6</ele>
        <time>2024-07-30T08:06:59Z</time>
      </trkpt>
      <trkpt lat="43.32688" lon="1.17203">
        <ele>224.8</ele>
        <time>2024-07-30T08:07:00Z</time>
      </trkpt>
      <trkpt lat="43.32685" lon="1.17206">
        <ele>224.8</ele>
        <time>2024-07-30T08:07:01Z</time>
      </trkpt>
      <trkpt lat="43.32682" lon="1.1721">
        <ele>225</ele>
        <time>2024-07-30T08:07:02Z</time>
      </trkpt>
      <trkpt lat="43.32679" lon="1.17214">
        <ele>225</ele>
        <time>2024-07-30T08:07:03Z</time>
      </trkpt>
      <trkpt lat="43.32676" lon="1.17218">
        <ele>225.2</ele>
        <time>2024-07-30T08:07:04Z</time>
      </trkpt>
      <trkpt lat="43.32672" lon="1.17223">
        <ele>225.2</ele>
        <time>2024-07-30T08:07:05Z</time>
      </trkpt>
      <trkpt lat="43.32668" lon="1.17227">
        <ele>225.2</ele>
        <time>2024-07-30T08:07:06Z</time>
      </trkpt>
      <trkpt lat="43.32665" lon="1.17231">
        <ele>225.2</ele>
        <time>2024-07-30T08:07:07Z</time>
      </trkpt>
      <trkpt lat="43.3266" lon="1.17236">
        <ele>225.2</ele>
        <time>2024-07-30T08:07:08Z</time>
      </trkpt>
      <trkpt lat="43.32656" lon="1.17242">
        <ele>225.4</ele>
        <time>2024-07-30T08:07:09Z</time>
      </trkpt>
      <trkpt lat="43.32651" lon="1.17248">
        <ele>225.4</ele>
        <time>2024-07-30T08:07:10Z</time>
      </trkpt>
      <trkpt lat="43.32648" lon="1.17255">
        <ele>225.4</ele>
        <time>2024-07-30T08:07:11Z</time>
      </trkpt>
      <trkpt lat="43.32644" lon="1.1726">
        <ele>225.4</ele>
        <time>2024-07-30T08:07:12Z</time>
      </trkpt>
      <trkpt lat="43.3264" lon="1.17269">
        <ele>225.2</ele>
        <time>2024-07-30T08:07:13Z</time>
      </trkpt>
      <trkpt lat="43.32636" lon="1.17275">
        <ele>225.2</ele>
        <time>2024-07-30T08:07:14Z</time>
      </trkpt>
      <trkpt lat="43.32633" lon="1.17282">
        <ele>225</ele>
        <time>2024-07-30T08:07:15Z</time>
      </trkpt>
      <trkpt lat="43.3263" lon="1.17289">
        <ele>225</ele>
        <time>2024-07-30T08:07:16Z</time>
      </trkpt>
      <trkpt lat="43.32628" lon="1.17295">
        <ele>224.8</ele>
        <time>2024-07-30T08:07:17Z</time>
      </trkpt>
      <trkpt lat="43.32624" lon="1.17305">
        <ele>224.8</ele>
        <time>2024-07-30T08:07:18Z</time>
      </trkpt>
      <trkpt lat="43.3262" lon="1.17312">
        <ele>224.8</ele>
        <time>2024-07-30T08:07:19Z</time>
      </trkpt>
      <trkpt lat="43.32617" lon="1.1732">
        <ele>224.6</ele>
        <time>2024-07-30T08:07:20Z</time>
      </trkpt>
      <trkpt lat="43.32613" lon="1.17327">
        <ele>224.6</ele>
        <time>2024-07-30T08:07:21Z</time>
      </trkpt>
      <trkpt lat="43.3261" lon="1.17335">
        <ele>224.6</ele>
        <time>2024-07-30T08:07:22Z</time>
      </trkpt>
      <trkpt lat="43.32607" lon="1.17343">
        <ele>224.4</ele>
        <time>2024-07-30T08:07:23Z</time>
      </trkpt>
      <trkpt lat="43.32604" lon="1.17351">
        <ele>224.2</ele>
        <time>2024-07-30T08:07:24Z</time>
      </trkpt>
      <trkpt lat="43.32601" lon="1.17358">
        <ele>224.2</ele>
        <time>2024-07-30T08:07:25Z</time>
      </trkpt>
      <trkpt lat="43.32597" lon="1.17365">
        <ele>224</ele>
        <time>2024-07-30T08:07:26Z</time>
      </trkpt>
      <trkpt lat="43.32593" lon="1.17372">
        <ele>224</ele>
        <time>2024-07-30T08:07:27Z</time>
      </trkpt>
      <trkpt lat="43.32589" lon="1.17379">
        <ele>224</ele>
        <time>2024-07-30T08:07:28Z</time>
      </trkpt>
      <trkpt lat="43.32586" lon="1.17386">
        <ele>223.8</ele>
        <time>2024-07-30T08:07:29Z</time>
      </trkpt>
      <trkpt lat="43.32583" lon="1.17393">
        <ele>223.8</ele>
        <time>2024-07-30T08:07:30Z</time>
      </trkpt>
      <trkpt lat="43.3258" lon="1.174">
        <ele>223.6</ele>
        <time>2024-07-30T08:07:31Z</time>
      </trkpt>
      <trkpt lat="43.32576" lon="1.17409">
        <ele>223.6</ele>
        <time>2024-07-30T08:07:32Z</time>
      </trkpt>
      <trkpt lat="43.32573" lon="1.17416">
        <ele>223.6</ele>
        <time>2024-07-30T08:07:33Z</time>
      </trkpt>
      <trkpt lat="43.3257" lon="1.17423">
        <ele>223.6</ele>
        <time>2024-07-30T08:07:34Z</time>
      </trkpt>
      <trkpt lat="43.32567" lon="1.1743">
        <ele>223.6</ele>
        <time>2024-07-30T08:07:35Z</time>
      </trkpt>
      <trkpt lat="43.32564" lon="1.17437">
        <ele>223.6</ele>
        <time>2024-07-30T08:07:36Z</time>
      </trkpt>
      <trkpt lat="43.3256" lon="1.17444">
        <ele>223.6</ele>
        <time>2024-07-30T08:07:37Z</time>
      </trkpt>
      <trkpt lat="43.32556" lon="1.17451">
        <ele>223.6</ele>
        <time>2024-07-30T08:07:38Z</time>
      </trkpt>
      <trkpt lat="43.32552" lon="1.17458">
        <ele>223.6</ele>
        <time>2024-07-30T08:07:39Z</time>
      </trkpt>
      <trkpt lat="43.32548" lon="1.17465">
        <ele>223.6</ele>
        <time>2024-07-30T08:07:40Z</time>
      </trkpt>
      <trkpt lat="43.32544" lon="1.17471">
        <ele>223.6</ele>
        <time>2024-07-30T08:07:41Z</time>
      </trkpt>
      <trkpt lat="43.3254" lon="1.17478">
        <ele>223.6</ele>
        <time>2024-07-30T08:07:42Z</time>
      </trkpt>
      <trkpt lat="43.32536" lon="1.17484">
        <ele>223.6</ele>
        <time>2024-07-30T08:07:43Z</time>
      </trkpt>
      <trkpt lat="43.32532" lon="1.1749">
        <ele>223.6</ele>
        <time>2024-07-30T08:07:44Z</time>
      </trkpt>
      <trkpt lat="43.32528" lon="1.17495">
        <ele>223.6</ele>
        <time>2024-07-30T08:07:45Z</time>
      </trkpt>
      <trkpt lat="43.32523" lon="1.17499">
        <ele>223.6</ele>
        <time>2024-07-30T08:07:46Z</time>
      </trkpt>
      <trkpt lat="43.32519" lon="1.17503">
        <ele>223.6</ele>
        <time>2024-07-30T08:07:47Z</time>
      </trkpt>
      <trkpt lat="43.32515" lon="1.17507">
        <ele>223.8</ele>
        <time>2024-07-30T08:07:48Z</time>
      </trkpt>
      <trkpt lat="43.32511" lon="1.17512">
        <ele>223.8</ele>
        <time>2024-07-30T08:07:49Z</time>
      </trkpt>
      <trkpt lat="43.32508" lon="1.17518">
        <ele>223.8</ele>
        <time>2024-07-30T08:07:50Z</time>
      </trkpt>
      <trkpt lat="43.32506" lon="1.17526">
        <ele>223.8</ele>
        <time>2024-07-30T08:07:51Z</time>
      </trkpt>
      <trkpt lat="43.32506" lon="1.17534">
        <ele>224</ele>
        <time>2024-07-30T08:07:52Z</time>
      </trkpt>
      <trkpt lat="43.32507" lon="1.17542">
        <ele>224</ele>
        <time>2024-07-30T08:07:53Z</time>
      </trkpt>
      <trkpt lat="43.32508" lon="1.1755">
        <ele>224</ele>
        <time>2024-07-30T08:07:54Z</time>
      </trkpt>
      <trkpt lat="43.32509" lon="1.17558">
        <ele>224</ele>
        <time>2024-07-30T08:07:55Z</time>
      </trkpt>
      <trkpt lat="43.32511" lon="1.17566">
        <ele>224</ele>
        <time>2024-07-30T08:07:56Z</time>
      </trkpt>
      <trkpt lat="43.32513" lon="1.17574">
        <ele>224</ele>
        <time>2024-07-30T08:07:57Z</time>
      </trkpt>
      <trkpt lat="43.32516" lon="1.17581">
        <ele>224</ele>
        <time>2024-07-30T08:07:58Z</time>
      </trkpt>
      <trkpt lat="43.32519" lon="1.17589">
        <ele>223.8</ele>
        <time>2024-07-30T08:07:59Z</time>
      </trkpt>
      <trkpt lat="43.32522" lon="1.17596">
        <ele>223.8</ele>
        <time>2024-07-30T08:08:00Z</time>
      </trkpt>
      <trkpt lat="43.32526" lon="1.17602">
        <ele>223.8</ele>
        <time>2024-07-30T08:08:01Z</time>
      </trkpt>
      <trkpt lat="43.32529" lon="1.17608">
        <ele>223.8</ele>
        <time>2024-07-30T08:08:02Z</time>
      </trkpt>
      <trkpt lat="43.32534" lon="1.17616">
        <ele>223.6</ele>
        <time>2024-07-30T08:08:03Z</time>
      </trkpt>
      <trkpt lat="43.32538" lon="1.17623">
        <ele>223.4</ele>
        <time>2024-07-30T08:08:04Z</time>
      </trkpt>
      <trkpt lat="43.32542" lon="1.17629">
        <ele>223.4</ele>
        <time>2024-07-30T08:08:05Z</time>
      </trkpt>
      <trkpt lat="43.32546" lon="1.17636">
        <ele>223.2</ele>
        <time>2024-07-30T08:08:06Z</time>
      </trkpt>
      <trkpt lat="43.3255" lon="1.17643">
        <ele>223.2</ele>
        <time>2024-07-30T08:08:07Z</time>
      </trkpt>
      <trkpt lat="43.32553" lon="1.17649">
        <ele>223</ele>
        <time>2024-07-30T08:08:08Z</time>
      </trkpt>
      <trkpt lat="43.32556" lon="1.17658">
        <ele>223</ele>
        <time>2024-07-30T08:08:09Z</time>
      </trkpt>
      <trkpt lat="43.32559" lon="1.17666">
        <ele>222.8</ele>
        <time>2024-07-30T08:08:10Z</time>
      </trkpt>
      <trkpt lat="43.32562" lon="1.17674">
        <ele>222.8</ele>
        <time>2024-07-30T08:08:11Z</time>
      </trkpt>
      <trkpt lat="43.32563" lon="1.17681">
        <ele>222.8</ele>
        <time>2024-07-30T08:08:12Z</time>
      </trkpt>
      <trkpt lat="43.32566" lon="1.17691">
        <ele>222.8</ele>
        <time>2024-07-30T08:08:13Z</time>
      </trkpt>
      <trkpt lat="43.32569" lon="1.17699">
        <ele>222.8</ele>
        <time>2024-07-30T08:08:14Z</time>
      </trkpt>
      <trkpt lat="43.32571" lon="1.17707">
        <ele>222.8</ele>
        <time>2024-07-30T08:08:15Z</time>
      </trkpt>
      <trkpt lat="43.32573" lon="1.17715">
        <ele>223</ele>
        <time>2024-07-30T08:08:16Z</time>
      </trkpt>
      <trkpt lat="43.32576" lon="1.17724">
        <ele>223.2</ele>
        <time>2024-07-30T08:08:17Z</time>
      </trkpt>
      <trkpt lat="43.32578" lon="1.17732">
        <ele>223.2</ele>
        <time>2024-07-30T08:08:18Z</time>
      </trkpt>
      <trkpt lat="43.3258" lon="1.1774">
        <ele>223.2</ele>
        <time>2024-07-30T08:08:19Z</time>
      </trkpt>
      <trkpt lat="43.32583" lon="1.17748">
        <ele>223.2</ele>
        <time>2024-07-30T08:08:20Z</time>
      </trkpt>
      <trkpt lat="43.32585" lon="1.17755">
        <ele>223.4</ele>
        <time>2024-07-30T08:08:21Z</time>
      </trkpt>
      <trkpt lat="43.32588" lon="1.17764">
        <ele>223.4</ele>
        <time>2024-07-30T08:08:22Z</time>
      </trkpt>
      <trkpt lat="43.32591" lon="1.17772">
        <ele>223.4</ele>
        <time>2024-07-30T08:08:23Z</time>
      </trkpt>
      <trkpt lat="43.32593" lon="1.1778">
        <ele>223.4</ele>
        <time>2024-07-30T08:08:24Z</time>
      </trkpt>
      <trkpt lat="43.32596" lon="1.17788">
        <ele>223.4</ele>
        <time>2024-07-30T08:08:25Z</time>
      </trkpt>
      <trkpt lat="43.32598" lon="1.17796">
        <ele>223.4</ele>
        <time>2024-07-30T08:08:26Z</time>
      </trkpt>
      <trkpt lat="43.32601" lon="1.17805">
        <ele>223.2</ele>
        <time>2024-07-30T08:08:27Z</time>
      </trkpt>
      <trkpt lat="43.32604" lon="1.17813">
        <ele>223.4</ele>
        <time>2024-07-30T08:08:28Z</time>
      </trkpt>
      <trkpt lat="43.32606" lon="1.17821">
        <ele>223</ele>
        <time>2024-07-30T08:08:29Z</time>
      </trkpt>
      <trkpt lat="43.32609" lon="1.17829">
        <ele>223</ele>
        <time>2024-07-30T08:08:30Z</time>
      </trkpt>
      <trkpt lat="43.32612" lon="1.17837">
        <ele>223</ele>
        <time>2024-07-30T08:08:31Z</time>
      </trkpt>
      <trkpt lat="43.32614" lon="1.17845">
        <ele>223</ele>
        <time>2024-07-30T08:08:32Z</time>
      </trkpt>
      <trkpt lat="43.32617" lon="1.17853">
        <ele>223</ele>
        <time>2024-07-30T08:08:33Z</time>
      </trkpt>
      <trkpt lat="43.3262" lon="1.17859">
        <ele>223</ele>
        <time>2024-07-30T08:08:34Z</time>
      </trkpt>
      <trkpt lat="43.32623" lon="1.17867">
        <ele>223</ele>
        <time>2024-07-30T08:08:35Z</time>
      </trkpt>
      <trkpt lat="43.32626" lon="1.17876">
        <ele>223</ele>
        <time>2024-07-30T08:08:36Z</time>
      </trkpt>
      <trkpt lat="43.32629" lon="1.17883">
        <ele>223.2</ele>
        <time>2024-07-30T08:08:37Z</time>
      </trkpt>
      <trkpt lat="43.32632" lon="1.17891">
        <ele>223.2</ele>
        <time>2024-07-30T08:08:38Z</time>
      </trkpt>
      <trkpt lat="43.32635" lon="1.17898">
        <ele>223.2</ele>
        <time>2024-07-30T08:08:39Z</time>
      </trkpt>
      <trkpt lat="43.32637" lon="1.17904">
        <ele>223.2</ele>
        <time>2024-07-30T08:08:40Z</time>
      </trkpt>
      <trkpt lat="43.3264" lon="1.17912">
        <ele>223.2</ele>
        <time>2024-07-30T08:08:41Z</time>
      </trkpt>
      <trkpt lat="43.32641" lon="1.17918">
        <ele>223.2</ele>
        <time>2024-07-30T08:08:42Z</time>
      </trkpt>
      <trkpt lat="43.32643" lon="1.17924">
        <ele>223.2</ele>
        <time>2024-07-30T08:08:43Z</time>
      </trkpt>
      <trkpt lat="43.32643" lon="1.17928">
        <ele>223.4</ele>
        <time>2024-07-30T08:08:44Z</time>
      </trkpt>
      <trkpt lat="43.32643" lon="1.17934">
        <ele>223.4</ele>
        <time>2024-07-30T08:08:45Z</time>
      </trkpt>
      <trkpt lat="43.32642" lon="1.17939">
        <ele>223.4</ele>
        <time>2024-07-30T08:08:46Z</time>
      </trkpt>
      <trkpt lat="43.32643" lon="1.17944">
        <ele>223.4</ele>
        <time>2024-07-30T08:08:47Z</time>
      </trkpt>
      <trkpt lat="43.32643" lon="1.1795">
        <ele>223.4</ele>
        <time>2024-07-30T08:08:48Z</time>
      </trkpt>
      <trkpt lat="43.32643" lon="1.17956">
        <ele>223.4</ele>
        <time>2024-07-30T08:08:49Z</time>
      </trkpt>
      <trkpt lat="43.32642" lon="1.17963">
        <ele>223.4</ele>
        <time>2024-07-30T08:08:50Z</time>
      </trkpt>
      <trkpt lat="43.32641" lon="1.17969">
        <ele>223.4</ele>
        <time>2024-07-30T08:08:51Z</time>
      </trkpt>
      <trkpt lat="43.3264" lon="1.17976">
        <ele>223.4</ele>
        <time>2024-07-30T08:08:52Z</time>
      </trkpt>
      <trkpt lat="43.32639" lon="1.17983">
        <ele>223.4</ele>
        <time>2024-07-30T08:08:53Z</time>
      </trkpt>
      <trkpt lat="43.32638" lon="1.1799">
        <ele>223.6</ele>
        <time>2024-07-30T08:08:54Z</time>
      </trkpt>
      <trkpt lat="43.32637" lon="1.17997">
        <ele>223.6</ele>
        <time>2024-07-30T08:08:55Z</time>
      </trkpt>
      <trkpt lat="43.32636" lon="1.18005">
        <ele>223.6</ele>
        <time>2024-07-30T08:08:56Z</time>
      </trkpt>
      <trkpt lat="43.32635" lon="1.18013">
        <ele>223.6</ele>
        <time>2024-07-30T08:08:57Z</time>
      </trkpt>
      <trkpt lat="43.32633" lon="1.18021">
        <ele>223.6</ele>
        <time>2024-07-30T08:08:58Z</time>
      </trkpt>
      <trkpt lat="43.32632" lon="1.1803">
        <ele>223.6</ele>
        <time>2024-07-30T08:08:59Z</time>
      </trkpt>
      <trkpt lat="43.32631" lon="1.18038">
        <ele>223.6</ele>
        <time>2024-07-30T08:09:00Z</time>
      </trkpt>
      <trkpt lat="43.32629" lon="1.18046">
        <ele>223.6</ele>
        <time>2024-07-30T08:09:01Z</time>
      </trkpt>
      <trkpt lat="43.32628" lon="1.18052">
        <ele>223.6</ele>
        <time>2024-07-30T08:09:02Z</time>
      </trkpt>
      <trkpt lat="43.32626" lon="1.18062">
        <ele>223.6</ele>
        <time>2024-07-30T08:09:03Z</time>
      </trkpt>
      <trkpt lat="43.32625" lon="1.1807">
        <ele>223.6</ele>
        <time>2024-07-30T08:09:04Z</time>
      </trkpt>
      <trkpt lat="43.32623" lon="1.18079">
        <ele>223.6</ele>
        <time>2024-07-30T08:09:05Z</time>
      </trkpt>
      <trkpt lat="43.32622" lon="1.18088">
        <ele>223.6</ele>
        <time>2024-07-30T08:09:06Z</time>
      </trkpt>
      <trkpt lat="43.3262" lon="1.18096">
        <ele>223.4</ele>
        <time>2024-07-30T08:09:07Z</time>
      </trkpt>
      <trkpt lat="43.32619" lon="1.18105">
        <ele>223.4</ele>
        <time>2024-07-30T08:09:08Z</time>
      </trkpt>
      <trkpt lat="43.32617" lon="1.18114">
        <ele>223.4</ele>
        <time>2024-07-30T08:09:09Z</time>
      </trkpt>
      <trkpt lat="43.32616" lon="1.18122">
        <ele>223.4</ele>
        <time>2024-07-30T08:09:10Z</time>
      </trkpt>
      <trkpt lat="43.32614" lon="1.18131">
        <ele>223.4</ele>
        <time>2024-07-30T08:09:11Z</time>
      </trkpt>
      <trkpt lat="43.32613" lon="1.1814">
        <ele>223.4</ele>
        <time>2024-07-30T08:09:12Z</time>
      </trkpt>
      <trkpt lat="43.32611" lon="1.18149">
        <ele>223.2</ele>
        <time>2024-07-30T08:09:13Z</time>
      </trkpt>
      <trkpt lat="43.3261" lon="1.18159">
        <ele>223.2</ele>
        <time>2024-07-30T08:09:14Z</time>
      </trkpt>
      <trkpt lat="43.32608" lon="1.18168">
        <ele>223</ele>
        <time>2024-07-30T08:09:15Z</time>
      </trkpt>
      <trkpt lat="43.32607" lon="1.18175">
        <ele>223</ele>
        <time>2024-07-30T08:09:16Z</time>
      </trkpt>
      <trkpt lat="43.32605" lon="1.18185">
        <ele>223</ele>
        <time>2024-07-30T08:09:17Z</time>
      </trkpt>
      <trkpt lat="43.32604" lon="1.18194">
        <ele>223</ele>
        <time>2024-07-30T08:09:18Z</time>
      </trkpt>
      <trkpt lat="43.32602" lon="1.18204">
        <ele>223</ele>
        <time>2024-07-30T08:09:19Z</time>
      </trkpt>
      <trkpt lat="43.32601" lon="1.18211">
        <ele>223</ele>
        <time>2024-07-30T08:09:20Z</time>
      </trkpt>
      <trkpt lat="43.32599" lon="1.18222">
        <ele>223</ele>
        <time>2024-07-30T08:09:21Z</time>
      </trkpt>
      <trkpt lat="43.32597" lon="1.18231">
        <ele>223</ele>
        <time>2024-07-30T08:09:22Z</time>
      </trkpt>
      <trkpt lat="43.32596" lon="1.1824">
        <ele>223</ele>
        <time>2024-07-30T08:09:23Z</time>
      </trkpt>
      <trkpt lat="43.32594" lon="1.1825">
        <ele>223</ele>
        <time>2024-07-30T08:09:24Z</time>
      </trkpt>
      <trkpt lat="43.32593" lon="1.18259">
        <ele>223.2</ele>
        <time>2024-07-30T08:09:25Z</time>
      </trkpt>
      <trkpt lat="43.32591" lon="1.18267">
        <ele>223.2</ele>
        <time>2024-07-30T08:09:26Z</time>
      </trkpt>
      <trkpt lat="43.3259" lon="1.18276">
        <ele>223.2</ele>
        <time>2024-07-30T08:09:27Z</time>
      </trkpt>
      <trkpt lat="43.32588" lon="1.18285">
        <ele>223.2</ele>
        <time>2024-07-30T08:09:28Z</time>
      </trkpt>
      <trkpt lat="43.32587" lon="1.18294">
        <ele>223.2</ele>
        <time>2024-07-30T08:09:29Z</time>
      </trkpt>
      <trkpt lat="43.32586" lon="1.18301">
        <ele>223.2</ele>
        <time>2024-07-30T08:09:30Z</time>
      </trkpt>
      <trkpt lat="43.32584" lon="1.18312">
        <ele>223.2</ele>
        <time>2024-07-30T08:09:31Z</time>
      </trkpt>
      <trkpt lat="43.32582" lon="1.18321">
        <ele>223.2</ele>
        <time>2024-07-30T08:09:32Z</time>
      </trkpt>
      <trkpt lat="43.32581" lon="1.1833">
        <ele>223.2</ele>
        <time>2024-07-30T08:09:33Z</time>
      </trkpt>
      <trkpt lat="43.32579" lon="1.18338">
        <ele>223.2</ele>
        <time>2024-07-30T08:09:34Z</time>
      </trkpt>
      <trkpt lat="43.32578" lon="1.18347">
        <ele>223.2</ele>
        <time>2024-07-30T08:09:35Z</time>
      </trkpt>
      <trkpt lat="43.32577" lon="1.18356">
        <ele>223.2</ele>
        <time>2024-07-30T08:09:36Z</time>
      </trkpt>
      <trkpt lat="43.32575" lon="1.18365">
        <ele>223.2</ele>
        <time>2024-07-30T08:09:37Z</time>
      </trkpt>
      <trkpt lat="43.32574" lon="1.18372">
        <ele>223.2</ele>
        <time>2024-07-30T08:09:38Z</time>
      </trkpt>
      <trkpt lat="43.32572" lon="1.18383">
        <ele>223.2</ele>
        <time>2024-07-30T08:09:39Z</time>
      </trkpt>
      <trkpt lat="43.32571" lon="1.18392">
        <ele>223.2</ele>
        <time>2024-07-30T08:09:40Z</time>
      </trkpt>
      <trkpt lat="43.32569" lon="1.18401">
        <ele>223.2</ele>
        <time>2024-07-30T08:09:41Z</time>
      </trkpt>
      <trkpt lat="43.32568" lon="1.1841">
        <ele>223.2</ele>
        <time>2024-07-30T08:09:42Z</time>
      </trkpt>
      <trkpt lat="43.32567" lon="1.18419">
        <ele>223.2</ele>
        <time>2024-07-30T08:09:43Z</time>
      </trkpt>
      <trkpt lat="43.32566" lon="1.18428">
        <ele>223.2</ele>
        <time>2024-07-30T08:09:44Z</time>
      </trkpt>
      <trkpt lat="43.32564" lon="1.18436">
        <ele>223.2</ele>
        <time>2024-07-30T08:09:45Z</time>
      </trkpt>
      <trkpt lat="43.32563" lon="1.18444">
        <ele>223.2</ele>
        <time>2024-07-30T08:09:46Z</time>
      </trkpt>
      <trkpt lat="43.32562" lon="1.18453">
        <ele>223.2</ele>
        <time>2024-07-30T08:09:47Z</time>
      </trkpt>
      <trkpt lat="43.32561" lon="1.18461">
        <ele>223.2</ele>
        <time>2024-07-30T08:09:48Z</time>
      </trkpt>
      <trkpt lat="43.3256" lon="1.1847">
        <ele>223.2</ele>
        <time>2024-07-30T08:09:49Z</time>
      </trkpt>
      <trkpt lat="43.32558" lon="1.18478">
        <ele>223.2</ele>
        <time>2024-07-30T08:09:50Z</time>
      </trkpt>
      <trkpt lat="43.32557" lon="1.18487">
        <ele>223.2</ele>
        <time>2024-07-30T08:09:51Z</time>
      </trkpt>
      <trkpt lat="43.32556" lon="1.18495">
        <ele>223</ele>
        <time>2024-07-30T08:09:52Z</time>
      </trkpt>
      <trkpt lat="43.32555" lon="1.18504">
        <ele>223</ele>
        <time>2024-07-30T08:09:53Z</time>
      </trkpt>
      <trkpt lat="43.32554" lon="1.18512">
        <ele>223</ele>
        <time>2024-07-30T08:09:54Z</time>
      </trkpt>
      <trkpt lat="43.32554" lon="1.18521">
        <ele>223</ele>
        <time>2024-07-30T08:09:55Z</time>
      </trkpt>
      <trkpt lat="43.32553" lon="1.1853">
        <ele>223</ele>
        <time>2024-07-30T08:09:56Z</time>
      </trkpt>
      <trkpt lat="43.32552" lon="1.18537">
        <ele>223.2</ele>
        <time>2024-07-30T08:09:57Z</time>
      </trkpt>
      <trkpt lat="43.32551" lon="1.18548">
        <ele>223</ele>
        <time>2024-07-30T08:09:58Z</time>
      </trkpt>
      <trkpt lat="43.32551" lon="1.18556">
        <ele>223</ele>
        <time>2024-07-30T08:09:59Z</time>
      </trkpt>
      <trkpt lat="43.3255" lon="1.18565">
        <ele>223</ele>
        <time>2024-07-30T08:10:00Z</time>
      </trkpt>
      <trkpt lat="43.32549" lon="1.18573">
        <ele>223</ele>
        <time>2024-07-30T08:10:01Z</time>
      </trkpt>
      <trkpt lat="43.32548" lon="1.18582">
        <ele>223.2</ele>
        <time>2024-07-30T08:10:02Z</time>
      </trkpt>
      <trkpt lat="43.32548" lon="1.18591">
        <ele>223</ele>
        <time>2024-07-30T08:10:03Z</time>
      </trkpt>
      <trkpt lat="43.32547" lon="1.186">
        <ele>223</ele>
        <time>2024-07-30T08:10:04Z</time>
      </trkpt>
      <trkpt lat="43.32546" lon="1.18609">
        <ele>223</ele>
        <time>2024-07-30T08:10:05Z</time>
      </trkpt>
      <trkpt lat="43.32546" lon="1.18618">
        <ele>223</ele>
        <time>2024-07-30T08:10:06Z</time>
      </trkpt>
      <trkpt lat="43.32545" lon="1.18628">
        <ele>223</ele>
        <time>2024-07-30T08:10:07Z</time>
      </trkpt>
      <trkpt lat="43.32545" lon="1.18637">
        <ele>223</ele>
        <time>2024-07-30T08:10:08Z</time>
      </trkpt>
      <trkpt lat="43.32544" lon="1.18646">
        <ele>223</ele>
        <time>2024-07-30T08:10:09Z</time>
      </trkpt>
      <trkpt lat="43.32544" lon="1.18655">
        <ele>223</ele>
        <time>2024-07-30T08:10:10Z</time>
      </trkpt>
      <trkpt lat="43.32543" lon="1.18665">
        <ele>223</ele>
        <time>2024-07-30T08:10:11Z</time>
      </trkpt>
      <trkpt lat="43.32543" lon="1.18674">
        <ele>223</ele>
        <time>2024-07-30T08:10:12Z</time>
      </trkpt>
      <trkpt lat="43.32542" lon="1.18683">
        <ele>223</ele>
        <time>2024-07-30T08:10:13Z</time>
      </trkpt>
      <trkpt lat="43.32542" lon="1.18691">
        <ele>223</ele>
        <time>2024-07-30T08:10:14Z</time>
      </trkpt>
      <trkpt lat="43.32542" lon="1.187">
        <ele>223</ele>
        <time>2024-07-30T08:10:15Z</time>
      </trkpt>
      <trkpt lat="43.32541" lon="1.18709">
        <ele>223</ele>
        <time>2024-07-30T08:10:16Z</time>
      </trkpt>
      <trkpt lat="43.3254" lon="1.18717">
        <ele>223</ele>
        <time>2024-07-30T08:10:17Z</time>
      </trkpt>
      <trkpt lat="43.3254" lon="1.18726">
        <ele>223</ele>
        <time>2024-07-30T08:10:18Z</time>
      </trkpt>
      <trkpt lat="43.32539" lon="1.18735">
        <ele>223</ele>
        <time>2024-07-30T08:10:19Z</time>
      </trkpt>
      <trkpt lat="43.32538" lon="1.18744">
        <ele>222.8</ele>
        <time>2024-07-30T08:10:20Z</time>
      </trkpt>
      <trkpt lat="43.32537" lon="1.18753">
        <ele>222.8</ele>
        <time>2024-07-30T08:10:21Z</time>
      </trkpt>
      <trkpt lat="43.32536" lon="1.18762">
        <ele>222.8</ele>
        <time>2024-07-30T08:10:22Z</time>
      </trkpt>
      <trkpt lat="43.32535" lon="1.18771">
        <ele>222.8</ele>
        <time>2024-07-30T08:10:23Z</time>
      </trkpt>
      <trkpt lat="43.32534" lon="1.1878">
        <ele>222.8</ele>
        <time>2024-07-30T08:10:24Z</time>
      </trkpt>
      <trkpt lat="43.32532" lon="1.18789">
        <ele>222.8</ele>
        <time>2024-07-30T08:10:25Z</time>
      </trkpt>
      <trkpt lat="43.32531" lon="1.18798">
        <ele>222.8</ele>
        <time>2024-07-30T08:10:26Z</time>
      </trkpt>
      <trkpt lat="43.32529" lon="1.18807">
        <ele>222.8</ele>
        <time>2024-07-30T08:10:27Z</time>
      </trkpt>
      <trkpt lat="43.32528" lon="1.18816">
        <ele>222.8</ele>
        <time>2024-07-30T08:10:28Z</time>
      </trkpt>
      <trkpt lat="43.32526" lon="1.18825">
        <ele>222.8</ele>
        <time>2024-07-30T08:10:29Z</time>
      </trkpt>
      <trkpt lat="43.32525" lon="1.18834">
        <ele>222.6</ele>
        <time>2024-07-30T08:10:30Z</time>
      </trkpt>
      <trkpt lat="43.32523" lon="1.18842">
        <ele>222.4</ele>
        <time>2024-07-30T08:10:31Z</time>
      </trkpt>
      <trkpt lat="43.32522" lon="1.18851">
        <ele>222.4</ele>
        <time>2024-07-30T08:10:32Z</time>
      </trkpt>
      <trkpt lat="43.3252" lon="1.1886">
        <ele>222.2</ele>
        <time>2024-07-30T08:10:33Z</time>
      </trkpt>
      <trkpt lat="43.32519" lon="1.18868">
        <ele>222.2</ele>
        <time>2024-07-30T08:10:34Z</time>
      </trkpt>
      <trkpt lat="43.32517" lon="1.18877">
        <ele>222.2</ele>
        <time>2024-07-30T08:10:35Z</time>
      </trkpt>
      <trkpt lat="43.32516" lon="1.18886">
        <ele>222.2</ele>
        <time>2024-07-30T08:10:36Z</time>
      </trkpt>
      <trkpt lat="43.32515" lon="1.18894">
        <ele>222.2</ele>
        <time>2024-07-30T08:10:37Z</time>
      </trkpt>
      <trkpt lat="43.32513" lon="1.18903">
        <ele>222</ele>
        <time>2024-07-30T08:10:38Z</time>
      </trkpt>
      <trkpt lat="43.32511" lon="1.18911">
        <ele>222</ele>
        <time>2024-07-30T08:10:39Z</time>
      </trkpt>
      <trkpt lat="43.3251" lon="1.18918">
        <ele>222</ele>
        <time>2024-07-30T08:10:40Z</time>
      </trkpt>
      <trkpt lat="43.32509" lon="1.18925">
        <ele>222</ele>
        <time>2024-07-30T08:10:41Z</time>
      </trkpt>
      <trkpt lat="43.32507" lon="1.18931">
        <ele>222</ele>
        <time>2024-07-30T08:10:42Z</time>
      </trkpt>
      <trkpt lat="43.32506" lon="1.18939">
        <ele>221.8</ele>
        <time>2024-07-30T08:10:43Z</time>
      </trkpt>
      <trkpt lat="43.32504" lon="1.18945">
        <ele>221.8</ele>
        <time>2024-07-30T08:10:44Z</time>
      </trkpt>
      <trkpt lat="43.32503" lon="1.18951">
        <ele>221.8</ele>
        <time>2024-07-30T08:10:45Z</time>
      </trkpt>
      <trkpt lat="43.32502" lon="1.18955">
        <ele>221.8</ele>
        <time>2024-07-30T08:10:46Z</time>
      </trkpt>
      <trkpt lat="43.32501" lon="1.18958">
        <ele>221.8</ele>
        <time>2024-07-30T08:10:47Z</time>
      </trkpt>
      <trkpt lat="43.32501" lon="1.18961">
        <ele>221.8</ele>
        <time>2024-07-30T08:10:48Z</time>
      </trkpt>
      <trkpt lat="43.325" lon="1.18963">
        <ele>221.6</ele>
        <time>2024-07-30T08:10:49Z</time>
      </trkpt>
      <trkpt lat="43.32499" lon="1.18966">
        <ele>221.6</ele>
        <time>2024-07-30T08:10:50Z</time>
      </trkpt>
      <trkpt lat="43.32498" lon="1.18969">
        <ele>221.4</ele>
        <time>2024-07-30T08:10:51Z</time>
      </trkpt>
      <trkpt lat="43.32497" lon="1.18973">
        <ele>221.4</ele>
        <time>2024-07-30T08:10:52Z</time>
      </trkpt>
      <trkpt lat="43.32495" lon="1.18976">
        <ele>221.4</ele>
        <time>2024-07-30T08:10:53Z</time>
      </trkpt>
      <trkpt lat="43.32494" lon="1.1898">
        <ele>221.2</ele>
        <time>2024-07-30T08:10:54Z</time>
      </trkpt>
      <trkpt lat="43.32495" lon="1.18984">
        <ele>221.2</ele>
        <time>2024-07-30T08:10:55Z</time>
      </trkpt>
      <trkpt lat="43.32498" lon="1.18988">
        <ele>221</ele>
        <time>2024-07-30T08:10:56Z</time>
      </trkpt>
      <trkpt lat="43.32502" lon="1.1899">
        <ele>220.8</ele>
        <time>2024-07-30T08:10:57Z</time>
      </trkpt>
      <trkpt lat="43.32505" lon="1.18993">
        <ele>220.8</ele>
        <time>2024-07-30T08:10:58Z</time>
      </trkpt>
      <trkpt lat="43.32509" lon="1.18997">
        <ele>220.6</ele>
        <time>2024-07-30T08:10:59Z</time>
      </trkpt>
      <trkpt lat="43.32512" lon="1.19001">
        <ele>220.6</ele>
        <time>2024-07-30T08:11:00Z</time>
      </trkpt>
      <trkpt lat="43.32515" lon="1.19005">
        <ele>220.6</ele>
        <time>2024-07-30T08:11:01Z</time>
      </trkpt>
      <trkpt lat="43.32519" lon="1.1901">
        <ele>220.4</ele>
        <time>2024-07-30T08:11:02Z</time>
      </trkpt>
      <trkpt lat="43.32522" lon="1.19014">
        <ele>220.4</ele>
        <time>2024-07-30T08:11:03Z</time>
      </trkpt>
      <trkpt lat="43.32525" lon="1.19019">
        <ele>220.4</ele>
        <time>2024-07-30T08:11:04Z</time>
      </trkpt>
      <trkpt lat="43.32529" lon="1.19023">
        <ele>220.4</ele>
        <time>2024-07-30T08:11:05Z</time>
      </trkpt>
      <trkpt lat="43.32532" lon="1.19028">
        <ele>220.6</ele>
        <time>2024-07-30T08:11:06Z</time>
      </trkpt>
      <trkpt lat="43.32536" lon="1.19033">
        <ele>220.6</ele>
        <time>2024-07-30T08:11:07Z</time>
      </trkpt>
      <trkpt lat="43.32539" lon="1.19037">
        <ele>220.8</ele>
        <time>2024-07-30T08:11:08Z</time>
      </trkpt>
      <trkpt lat="43.32543" lon="1.19042">
        <ele>220.8</ele>
        <time>2024-07-30T08:11:09Z</time>
      </trkpt>
      <trkpt lat="43.32546" lon="1.19046">
        <ele>220.8</ele>
        <time>2024-07-30T08:11:10Z</time>
      </trkpt>
      <trkpt lat="43.32551" lon="1.19052">
        <ele>221</ele>
        <time>2024-07-30T08:11:11Z</time>
      </trkpt>
      <trkpt lat="43.32554" lon="1.19057">
        <ele>221</ele>
        <time>2024-07-30T08:11:12Z</time>
      </trkpt>
      <trkpt lat="43.32558" lon="1.19062">
        <ele>221</ele>
        <time>2024-07-30T08:11:13Z</time>
      </trkpt>
      <trkpt lat="43.32562" lon="1.19068">
        <ele>221</ele>
        <time>2024-07-30T08:11:14Z</time>
      </trkpt>
      <trkpt lat="43.32566" lon="1.19073">
        <ele>221</ele>
        <time>2024-07-30T08:11:15Z</time>
      </trkpt>
      <trkpt lat="43.32569" lon="1.19079">
        <ele>221</ele>
        <time>2024-07-30T08:11:16Z</time>
      </trkpt>
      <trkpt lat="43.32573" lon="1.19085">
        <ele>221</ele>
        <time>2024-07-30T08:11:17Z</time>
      </trkpt>
      <trkpt lat="43.32577" lon="1.19091">
        <ele>221.2</ele>
        <time>2024-07-30T08:11:18Z</time>
      </trkpt>
      <trkpt lat="43.32581" lon="1.19096">
        <ele>221.2</ele>
        <time>2024-07-30T08:11:19Z</time>
      </trkpt>
      <trkpt lat="43.32585" lon="1.19101">
        <ele>221.2</ele>
        <time>2024-07-30T08:11:20Z</time>
      </trkpt>
      <trkpt lat="43.32589" lon="1.19106">
        <ele>221.2</ele>
        <time>2024-07-30T08:11:21Z</time>
      </trkpt>
      <trkpt lat="43.32594" lon="1.19111">
        <ele>221.2</ele>
        <time>2024-07-30T08:11:22Z</time>
      </trkpt>
      <trkpt lat="43.32599" lon="1.19117">
        <ele>221.2</ele>
        <time>2024-07-30T08:11:23Z</time>
      </trkpt>
      <trkpt lat="43.32603" lon="1.19122">
        <ele>221.4</ele>
        <time>2024-07-30T08:11:24Z</time>
      </trkpt>
      <trkpt lat="43.32608" lon="1.19128">
        <ele>221.4</ele>
        <time>2024-07-30T08:11:25Z</time>
      </trkpt>
      <trkpt lat="43.32612" lon="1.19134">
        <ele>221.4</ele>
        <time>2024-07-30T08:11:26Z</time>
      </trkpt>
      <trkpt lat="43.32616" lon="1.19139">
        <ele>221.4</ele>
        <time>2024-07-30T08:11:27Z</time>
      </trkpt>
      <trkpt lat="43.3262" lon="1.19144">
        <ele>221.4</ele>
        <time>2024-07-30T08:11:28Z</time>
      </trkpt>
      <trkpt lat="43.32626" lon="1.19151">
        <ele>221.4</ele>
        <time>2024-07-30T08:11:29Z</time>
      </trkpt>
      <trkpt lat="43.32632" lon="1.19157">
        <ele>221.4</ele>
        <time>2024-07-30T08:11:30Z</time>
      </trkpt>
      <trkpt lat="43.32637" lon="1.19162">
        <ele>221.4</ele>
        <time>2024-07-30T08:11:31Z</time>
      </trkpt>
      <trkpt lat="43.32642" lon="1.19168">
        <ele>221.4</ele>
        <time>2024-07-30T08:11:32Z</time>
      </trkpt>
      <trkpt lat="43.32647" lon="1.19174">
        <ele>221.4</ele>
        <time>2024-07-30T08:11:33Z</time>
      </trkpt>
      <trkpt lat="43.32652" lon="1.1918">
        <ele>221.4</ele>
        <time>2024-07-30T08:11:34Z</time>
      </trkpt>
      <trkpt lat="43.32657" lon="1.19185">
        <ele>221.4</ele>
        <time>2024-07-30T08:11:35Z</time>
      </trkpt>
      <trkpt lat="43.32662" lon="1.19191">
        <ele>221.4</ele>
        <time>2024-07-30T08:11:36Z</time>
      </trkpt>
      <trkpt lat="43.32667" lon="1.19197">
        <ele>221.4</ele>
        <time>2024-07-30T08:11:37Z</time>
      </trkpt>
      <trkpt lat="43.32672" lon="1.19203">
        <ele>221.4</ele>
        <time>2024-07-30T08:11:38Z</time>
      </trkpt>
      <trkpt lat="43.32677" lon="1.19209">
        <ele>221.6</ele>
        <time>2024-07-30T08:11:39Z</time>
      </trkpt>
      <trkpt lat="43.32683" lon="1.19215">
        <ele>221.6</ele>
        <time>2024-07-30T08:11:40Z</time>
      </trkpt>
      <trkpt lat="43.32688" lon="1.19221">
        <ele>221.6</ele>
        <time>2024-07-30T08:11:41Z</time>
      </trkpt>
      <trkpt lat="43.32693" lon="1.19227">
        <ele>221.6</ele>
        <time>2024-07-30T08:11:42Z</time>
      </trkpt>
      <trkpt lat="43.32698" lon="1.19233">
        <ele>221.6</ele>
        <time>2024-07-30T08:11:43Z</time>
      </trkpt>
      <trkpt lat="43.32703" lon="1.19239">
        <ele>221.6</ele>
        <time>2024-07-30T08:11:44Z</time>
      </trkpt>
      <trkpt lat="43.32708" lon="1.19245">
        <ele>221.8</ele>
        <time>2024-07-30T08:11:45Z</time>
      </trkpt>
      <trkpt lat="43.32712" lon="1.1925">
        <ele>221.8</ele>
        <time>2024-07-30T08:11:46Z</time>
      </trkpt>
      <trkpt lat="43.32718" lon="1.19257">
        <ele>221.8</ele>
        <time>2024-07-30T08:11:47Z</time>
      </trkpt>
      <trkpt lat="43.32723" lon="1.19263">
        <ele>221.8</ele>
        <time>2024-07-30T08:11:48Z</time>
      </trkpt>
      <trkpt lat="43.32728" lon="1.19269">
        <ele>221.8</ele>
        <time>2024-07-30T08:11:49Z</time>
      </trkpt>
      <trkpt lat="43.32732" lon="1.19275">
        <ele>221.8</ele>
        <time>2024-07-30T08:11:50Z</time>
      </trkpt>
      <trkpt lat="43.32737" lon="1.19282">
        <ele>222</ele>
        <time>2024-07-30T08:11:51Z</time>
      </trkpt>
      <trkpt lat="43.32742" lon="1.19288">
        <ele>222</ele>
        <time>2024-07-30T08:11:52Z</time>
      </trkpt>
      <trkpt lat="43.32746" lon="1.19294">
        <ele>222</ele>
        <time>2024-07-30T08:11:53Z</time>
      </trkpt>
      <trkpt lat="43.32751" lon="1.19301">
        <ele>222.2</ele>
        <time>2024-07-30T08:11:54Z</time>
      </trkpt>
      <trkpt lat="43.32755" lon="1.19307">
        <ele>222.2</ele>
        <time>2024-07-30T08:11:55Z</time>
      </trkpt>
      <trkpt lat="43.32759" lon="1.19313">
        <ele>222.2</ele>
        <time>2024-07-30T08:11:56Z</time>
      </trkpt>
      <trkpt lat="43.32765" lon="1.19319">
        <ele>222.2</ele>
        <time>2024-07-30T08:11:57Z</time>
      </trkpt>
      <trkpt lat="43.3277" lon="1.19324">
        <ele>222.2</ele>
        <time>2024-07-30T08:11:58Z</time>
      </trkpt>
      <trkpt lat="43.32775" lon="1.1933">
        <ele>222.2</ele>
        <time>2024-07-30T08:11:59Z</time>
      </trkpt>
      <trkpt lat="43.32781" lon="1.19336">
        <ele>222.2</ele>
        <time>2024-07-30T08:12:00Z</time>
      </trkpt>
      <trkpt lat="43.32786" lon="1.19342">
        <ele>222.2</ele>
        <time>2024-07-30T08:12:01Z</time>
      </trkpt>
      <trkpt lat="43.32791" lon="1.19349">
        <ele>222.2</ele>
        <time>2024-07-30T08:12:02Z</time>
      </trkpt>
      <trkpt lat="43.32796" lon="1.19355">
        <ele>222.2</ele>
        <time>2024-07-30T08:12:03Z</time>
      </trkpt>
      <trkpt lat="43.32802" lon="1.19361">
        <ele>222.2</ele>
        <time>2024-07-30T08:12:04Z</time>
      </trkpt>
      <trkpt lat="43.32807" lon="1.19367">
        <ele>222.2</ele>
        <time>2024-07-30T08:12:05Z</time>
      </trkpt>
      <trkpt lat="43.32813" lon="1.19373">
        <ele>222.2</ele>
        <time>2024-07-30T08:12:06Z</time>
      </trkpt>
      <trkpt lat="43.32818" lon="1.19379">
        <ele>222.2</ele>
        <time>2024-07-30T08:12:07Z</time>
      </trkpt>
      <trkpt lat="43.32824" lon="1.19385">
        <ele>222.2</ele>
        <time>2024-07-30T08:12:08Z</time>
      </trkpt>
      <trkpt lat="43.32829" lon="1.19391">
        <ele>222.2</ele>
        <time>2024-07-30T08:12:09Z</time>
      </trkpt>
      <trkpt lat="43.32834" lon="1.19396">
        <ele>222.2</ele>
        <time>2024-07-30T08:12:10Z</time>
      </trkpt>
      <trkpt lat="43.3284" lon="1.19404">
        <ele>222</ele>
        <time>2024-07-30T08:12:11Z</time>
      </trkpt>
      <trkpt lat="43.32845" lon="1.1941">
        <ele>222</ele>
        <time>2024-07-30T08:12:12Z</time>
      </trkpt>
      <trkpt lat="43.3285" lon="1.19417">
        <ele>222</ele>
        <time>2024-07-30T08:12:13Z</time>
      </trkpt>
      <trkpt lat="43.32855" lon="1.19424">
        <ele>222</ele>
        <time>2024-07-30T08:12:14Z</time>
      </trkpt>
      <trkpt lat="43.32861" lon="1.19429">
        <ele>222</ele>
        <time>2024-07-30T08:12:15Z</time>
      </trkpt>
      <trkpt lat="43.32867" lon="1.19435">
        <ele>222</ele>
        <time>2024-07-30T08:12:16Z</time>
      </trkpt>
      <trkpt lat="43.32873" lon="1.1944">
        <ele>222</ele>
        <time>2024-07-30T08:12:17Z</time>
      </trkpt>
      <trkpt lat="43.32879" lon="1.19446">
        <ele>221.8</ele>
        <time>2024-07-30T08:12:18Z</time>
      </trkpt>
      <trkpt lat="43.32885" lon="1.19451">
        <ele>221.8</ele>
        <time>2024-07-30T08:12:19Z</time>
      </trkpt>
      <trkpt lat="43.3289" lon="1.19457">
        <ele>221.8</ele>
        <time>2024-07-30T08:12:20Z</time>
      </trkpt>
      <trkpt lat="43.32896" lon="1.19464">
        <ele>221.8</ele>
        <time>2024-07-30T08:12:21Z</time>
      </trkpt>
      <trkpt lat="43.32901" lon="1.1947">
        <ele>221.8</ele>
        <time>2024-07-30T08:12:22Z</time>
      </trkpt>
      <trkpt lat="43.32907" lon="1.19476">
        <ele>221.6</ele>
        <time>2024-07-30T08:12:23Z</time>
      </trkpt>
      <trkpt lat="43.32911" lon="1.1948">
        <ele>221.6</ele>
        <time>2024-07-30T08:12:24Z</time>
      </trkpt>
      <trkpt lat="43.32918" lon="1.19487">
        <ele>221.6</ele>
        <time>2024-07-30T08:12:25Z</time>
      </trkpt>
      <trkpt lat="43.32923" lon="1.19493">
        <ele>221.6</ele>
        <time>2024-07-30T08:12:26Z</time>
      </trkpt>
      <trkpt lat="43.32928" lon="1.19498">
        <ele>221.4</ele>
        <time>2024-07-30T08:12:27Z</time>
      </trkpt>
      <trkpt lat="43.32932" lon="1.19503">
        <ele>221.4</ele>
        <time>2024-07-30T08:12:28Z</time>
      </trkpt>
      <trkpt lat="43.32939" lon="1.1951">
        <ele>221.6</ele>
        <time>2024-07-30T08:12:29Z</time>
      </trkpt>
      <trkpt lat="43.32944" lon="1.19516">
        <ele>221.6</ele>
        <time>2024-07-30T08:12:30Z</time>
      </trkpt>
      <trkpt lat="43.3295" lon="1.19522">
        <ele>221.6</ele>
        <time>2024-07-30T08:12:31Z</time>
      </trkpt>
      <trkpt lat="43.32955" lon="1.19528">
        <ele>221.4</ele>
        <time>2024-07-30T08:12:32Z</time>
      </trkpt>
      <trkpt lat="43.32961" lon="1.19534">
        <ele>221.4</ele>
        <time>2024-07-30T08:12:33Z</time>
      </trkpt>
      <trkpt lat="43.32966" lon="1.1954">
        <ele>221.4</ele>
        <time>2024-07-30T08:12:34Z</time>
      </trkpt>
      <trkpt lat="43.32972" lon="1.19546">
        <ele>221.4</ele>
        <time>2024-07-30T08:12:35Z</time>
      </trkpt>
      <trkpt lat="43.32977" lon="1.19552">
        <ele>221.4</ele>
        <time>2024-07-30T08:12:36Z</time>
      </trkpt>
      <trkpt lat="43.32983" lon="1.19558">
        <ele>221.4</ele>
        <time>2024-07-30T08:12:37Z</time>
      </trkpt>
      <trkpt lat="43.32989" lon="1.19564">
        <ele>221.4</ele>
        <time>2024-07-30T08:12:38Z</time>
      </trkpt>
      <trkpt lat="43.32995" lon="1.1957">
        <ele>221.4</ele>
        <time>2024-07-30T08:12:39Z</time>
      </trkpt>
      <trkpt lat="43.33" lon="1.19576">
        <ele>221.4</ele>
        <time>2024-07-30T08:12:40Z</time>
      </trkpt>
      <trkpt lat="43.33006" lon="1.19582">
        <ele>221.4</ele>
        <time>2024-07-30T08:12:41Z</time>
      </trkpt>
      <trkpt lat="43.33012" lon="1.19587">
        <ele>221.4</ele>
        <time>2024-07-30T08:12:42Z</time>
      </trkpt>
      <trkpt lat="43.33017" lon="1.19593">
        <ele>221.4</ele>
        <time>2024-07-30T08:12:43Z</time>
      </trkpt>
      <trkpt lat="43.33023" lon="1.19599">
        <ele>221.4</ele>
        <time>2024-07-30T08:12:44Z</time>
      </trkpt>
      <trkpt lat="43.33029" lon="1.19605">
        <ele>221.4</ele>
        <time>2024-07-30T08:12:45Z</time>
      </trkpt>
      <trkpt lat="43.33034" lon="1.1961">
        <ele>221.4</ele>
        <time>2024-07-30T08:12:46Z</time>
      </trkpt>
      <trkpt lat="43.33041" lon="1.19618">
        <ele>221.4</ele>
        <time>2024-07-30T08:12:47Z</time>
      </trkpt>
      <trkpt lat="43.33047" lon="1.19624">
        <ele>221.4</ele>
        <time>2024-07-30T08:12:48Z</time>
      </trkpt>
      <trkpt lat="43.33052" lon="1.1963">
        <ele>221.4</ele>
        <time>2024-07-30T08:12:49Z</time>
      </trkpt>
      <trkpt lat="43.33057" lon="1.19635">
        <ele>221.4</ele>
        <time>2024-07-30T08:12:50Z</time>
      </trkpt>
      <trkpt lat="43.33062" lon="1.19642">
        <ele>221.4</ele>
        <time>2024-07-30T08:12:51Z</time>
      </trkpt>
      <trkpt lat="43.33069" lon="1.1965">
        <ele>221.4</ele>
        <time>2024-07-30T08:12:52Z</time>
      </trkpt>
      <trkpt lat="43.33074" lon="1.19657">
        <ele>221.4</ele>
        <time>2024-07-30T08:12:53Z</time>
      </trkpt>
      <trkpt lat="43.33079" lon="1.19664">
        <ele>221.2</ele>
        <time>2024-07-30T08:12:54Z</time>
      </trkpt>
      <trkpt lat="43.33084" lon="1.19671">
        <ele>221.2</ele>
        <time>2024-07-30T08:12:55Z</time>
      </trkpt>
      <trkpt lat="43.33088" lon="1.19677">
        <ele>221.2</ele>
        <time>2024-07-30T08:12:56Z</time>
      </trkpt>
      <trkpt lat="43.33094" lon="1.19685">
        <ele>221</ele>
        <time>2024-07-30T08:12:57Z</time>
      </trkpt>
      <trkpt lat="43.33099" lon="1.19692">
        <ele>221</ele>
        <time>2024-07-30T08:12:58Z</time>
      </trkpt>
      <trkpt lat="43.33104" lon="1.19699">
        <ele>220.8</ele>
        <time>2024-07-30T08:12:59Z</time>
      </trkpt>
      <trkpt lat="43.33109" lon="1.19706">
        <ele>220.8</ele>
        <time>2024-07-30T08:13:00Z</time>
      </trkpt>
      <trkpt lat="43.33113" lon="1.19713">
        <ele>220.6</ele>
        <time>2024-07-30T08:13:01Z</time>
      </trkpt>
      <trkpt lat="43.33118" lon="1.1972">
        <ele>220.6</ele>
        <time>2024-07-30T08:13:02Z</time>
      </trkpt>
      <trkpt lat="43.33123" lon="1.19727">
        <ele>220.6</ele>
        <time>2024-07-30T08:13:03Z</time>
      </trkpt>
      <trkpt lat="43.33128" lon="1.19734">
        <ele>220.6</ele>
        <time>2024-07-30T08:13:04Z</time>
      </trkpt>
      <trkpt lat="43.33133" lon="1.19741">
        <ele>220.4</ele>
        <time>2024-07-30T08:13:05Z</time>
      </trkpt>
      <trkpt lat="43.33138" lon="1.19748">
        <ele>220.2</ele>
        <time>2024-07-30T08:13:06Z</time>
      </trkpt>
      <trkpt lat="43.33143" lon="1.19755">
        <ele>220.2</ele>
        <time>2024-07-30T08:13:07Z</time>
      </trkpt>
      <trkpt lat="43.33148" lon="1.19761">
        <ele>220.2</ele>
        <time>2024-07-30T08:13:08Z</time>
      </trkpt>
      <trkpt lat="43.33153" lon="1.19768">
        <ele>220.2</ele>
        <time>2024-07-30T08:13:09Z</time>
      </trkpt>
      <trkpt lat="43.33158" lon="1.19775">
        <ele>220</ele>
        <time>2024-07-30T08:13:10Z</time>
      </trkpt>
      <trkpt lat="43.33163" lon="1.19781">
        <ele>220</ele>
        <time>2024-07-30T08:13:11Z</time>
      </trkpt>
      <trkpt lat="43.33168" lon="1.19788">
        <ele>220</ele>
        <time>2024-07-30T08:13:12Z</time>
      </trkpt>
      <trkpt lat="43.33173" lon="1.19795">
        <ele>220</ele>
        <time>2024-07-30T08:13:13Z</time>
      </trkpt>
      <trkpt lat="43.33178" lon="1.19801">
        <ele>220</ele>
        <time>2024-07-30T08:13:14Z</time>
      </trkpt>
      <trkpt lat="43.33183" lon="1.19808">
        <ele>220</ele>
        <time>2024-07-30T08:13:15Z</time>
      </trkpt>
      <trkpt lat="43.33189" lon="1.19814">
        <ele>219.8</ele>
        <time>2024-07-30T08:13:16Z</time>
      </trkpt>
      <trkpt lat="43.33194" lon="1.19821">
        <ele>219.8</ele>
        <time>2024-07-30T08:13:17Z</time>
      </trkpt>
      <trkpt lat="43.332" lon="1.19827">
        <ele>219.6</ele>
        <time>2024-07-30T08:13:18Z</time>
      </trkpt>
      <trkpt lat="43.33205" lon="1.19833">
        <ele>219.6</ele>
        <time>2024-07-30T08:13:19Z</time>
      </trkpt>
      <trkpt lat="43.33211" lon="1.19839">
        <ele>219.6</ele>
        <time>2024-07-30T08:13:20Z</time>
      </trkpt>
      <trkpt lat="43.33216" lon="1.19846">
        <ele>219.6</ele>
        <time>2024-07-30T08:13:21Z</time>
      </trkpt>
      <trkpt lat="43.33222" lon="1.19852">
        <ele>219.6</ele>
        <time>2024-07-30T08:13:22Z</time>
      </trkpt>
      <trkpt lat="43.33227" lon="1.19858">
        <ele>219.6</ele>
        <time>2024-07-30T08:13:23Z</time>
      </trkpt>
      <trkpt lat="43.33233" lon="1.19865">
        <ele>219.8</ele>
        <time>2024-07-30T08:13:24Z</time>
      </trkpt>
      <trkpt lat="43.33239" lon="1.19871">
        <ele>219.8</ele>
        <time>2024-07-30T08:13:25Z</time>
      </trkpt>
      <trkpt lat="43.33245" lon="1.19877">
        <ele>219.8</ele>
        <time>2024-07-30T08:13:26Z</time>
      </trkpt>
      <trkpt lat="43.3325" lon="1.19883">
        <ele>219.8</ele>
        <time>2024-07-30T08:13:27Z</time>
      </trkpt>
      <trkpt lat="43.33256" lon="1.1989">
        <ele>219.8</ele>
        <time>2024-07-30T08:13:28Z</time>
      </trkpt>
      <trkpt lat="43.33261" lon="1.19896">
        <ele>219.8</ele>
        <time>2024-07-30T08:13:29Z</time>
      </trkpt>
      <trkpt lat="43.33267" lon="1.19902">
        <ele>219.8</ele>
        <time>2024-07-30T08:13:30Z</time>
      </trkpt>
      <trkpt lat="43.33272" lon="1.19909">
        <ele>219.8</ele>
        <time>2024-07-30T08:13:31Z</time>
      </trkpt>
      <trkpt lat="43.33277" lon="1.19913">
        <ele>219.8</ele>
        <time>2024-07-30T08:13:32Z</time>
      </trkpt>
      <trkpt lat="43.33283" lon="1.19921">
        <ele>219.8</ele>
        <time>2024-07-30T08:13:33Z</time>
      </trkpt>
      <trkpt lat="43.33289" lon="1.19928">
        <ele>219.8</ele>
        <time>2024-07-30T08:13:34Z</time>
      </trkpt>
      <trkpt lat="43.33294" lon="1.19934">
        <ele>219.8</ele>
        <time>2024-07-30T08:13:35Z</time>
      </trkpt>
      <trkpt lat="43.333" lon="1.1994">
        <ele>219.8</ele>
        <time>2024-07-30T08:13:36Z</time>
      </trkpt>
      <trkpt lat="43.33306" lon="1.19947">
        <ele>219.8</ele>
        <time>2024-07-30T08:13:37Z</time>
      </trkpt>
      <trkpt lat="43.33311" lon="1.19953">
        <ele>219.6</ele>
        <time>2024-07-30T08:13:38Z</time>
      </trkpt>
      <trkpt lat="43.33317" lon="1.1996">
        <ele>219.6</ele>
        <time>2024-07-30T08:13:39Z</time>
      </trkpt>
      <trkpt lat="43.33323" lon="1.19966">
        <ele>219.6</ele>
        <time>2024-07-30T08:13:40Z</time>
      </trkpt>
      <trkpt lat="43.33328" lon="1.19972">
        <ele>219.6</ele>
        <time>2024-07-30T08:13:41Z</time>
      </trkpt>
      <trkpt lat="43.33334" lon="1.19979">
        <ele>219.6</ele>
        <time>2024-07-30T08:13:42Z</time>
      </trkpt>
      <trkpt lat="43.33339" lon="1.19985">
        <ele>219.6</ele>
        <time>2024-07-30T08:13:43Z</time>
      </trkpt>
      <trkpt lat="43.33345" lon="1.19991">
        <ele>219.6</ele>
        <time>2024-07-30T08:13:44Z</time>
      </trkpt>
      <trkpt lat="43.33351" lon="1.19997">
        <ele>219.6</ele>
        <time>2024-07-30T08:13:45Z</time>
      </trkpt>
      <trkpt lat="43.33356" lon="1.20002">
        <ele>219.6</ele>
        <time>2024-07-30T08:13:46Z</time>
      </trkpt>
      <trkpt lat="43.33363" lon="1.20008">
        <ele>219.6</ele>
        <time>2024-07-30T08:13:47Z</time>
      </trkpt>
      <trkpt lat="43.33368" lon="1.20014">
        <ele>219.6</ele>
        <time>2024-07-30T08:13:48Z</time>
      </trkpt>
      <trkpt lat="43.33374" lon="1.20019">
        <ele>219.6</ele>
        <time>2024-07-30T08:13:49Z</time>
      </trkpt>
      <trkpt lat="43.3338" lon="1.20025">
        <ele>219.6</ele>
        <time>2024-07-30T08:13:50Z</time>
      </trkpt>
      <trkpt lat="43.33386" lon="1.2003">
        <ele>219.6</ele>
        <time>2024-07-30T08:13:51Z</time>
      </trkpt>
      <trkpt lat="43.33392" lon="1.20035">
        <ele>219.6</ele>
        <time>2024-07-30T08:13:52Z</time>
      </trkpt>
      <trkpt lat="43.33398" lon="1.2004">
        <ele>219.6</ele>
        <time>2024-07-30T08:13:53Z</time>
      </trkpt>
      <trkpt lat="43.33402" lon="1.20044">
        <ele>219.6</ele>
        <time>2024-07-30T08:13:54Z</time>
      </trkpt>
      <trkpt lat="43.33408" lon="1.20049">
        <ele>219.6</ele>
        <time>2024-07-30T08:13:55Z</time>
      </trkpt>
      <trkpt lat="43.33414" lon="1.20054">
        <ele>219.6</ele>
        <time>2024-07-30T08:13:56Z</time>
      </trkpt>
      <trkpt lat="43.33419" lon="1.20059">
        <ele>219.6</ele>
        <time>2024-07-30T08:13:57Z</time>
      </trkpt>
      <trkpt lat="43.33423" lon="1.20064">
        <ele>219.6</ele>
        <time>2024-07-30T08:13:58Z</time>
      </trkpt>
      <trkpt lat="43.33427" lon="1.20071">
        <ele>219.4</ele>
        <time>2024-07-30T08:13:59Z</time>
      </trkpt>
      <trkpt lat="43.33431" lon="1.20079">
        <ele>219.4</ele>
        <time>2024-07-30T08:14:00Z</time>
      </trkpt>
      <trkpt lat="43.33434" lon="1.20082">
        <ele>219.4</ele>
        <time>2024-07-30T08:14:01Z</time>
      </trkpt>
      <trkpt lat="43.33441" lon="1.20087">
        <ele>219.2</ele>
        <time>2024-07-30T08:14:02Z</time>
      </trkpt>
      <trkpt lat="43.33448" lon="1.20089">
        <ele>219.2</ele>
        <time>2024-07-30T08:14:03Z</time>
      </trkpt>
      <trkpt lat="43.33455" lon="1.2009">
        <ele>219.2</ele>
        <time>2024-07-30T08:14:04Z</time>
      </trkpt>
      <trkpt lat="43.33462" lon="1.20093">
        <ele>219</ele>
        <time>2024-07-30T08:14:05Z</time>
      </trkpt>
      <trkpt lat="43.33469" lon="1.20096">
        <ele>219</ele>
        <time>2024-07-30T08:14:06Z</time>
      </trkpt>
      <trkpt lat="43.33476" lon="1.20101">
        <ele>219</ele>
        <time>2024-07-30T08:14:07Z</time>
      </trkpt>
      <trkpt lat="43.33482" lon="1.20105">
        <ele>219</ele>
        <time>2024-07-30T08:14:08Z</time>
      </trkpt>
      <trkpt lat="43.33489" lon="1.20109">
        <ele>219</ele>
        <time>2024-07-30T08:14:09Z</time>
      </trkpt>
      <trkpt lat="43.33495" lon="1.20114">
        <ele>219</ele>
        <time>2024-07-30T08:14:10Z</time>
      </trkpt>
      <trkpt lat="43.33502" lon="1.20119">
        <ele>218.8</ele>
        <time>2024-07-30T08:14:11Z</time>
      </trkpt>
      <trkpt lat="43.33509" lon="1.20123">
        <ele>218.8</ele>
        <time>2024-07-30T08:14:12Z</time>
      </trkpt>
      <trkpt lat="43.33515" lon="1.20127">
        <ele>218.8</ele>
        <time>2024-07-30T08:14:13Z</time>
      </trkpt>
      <trkpt lat="43.33522" lon="1.20132">
        <ele>218.8</ele>
        <time>2024-07-30T08:14:14Z</time>
      </trkpt>
      <trkpt lat="43.33528" lon="1.20137">
        <ele>218.8</ele>
        <time>2024-07-30T08:14:15Z</time>
      </trkpt>
      <trkpt lat="43.33535" lon="1.20141">
        <ele>218.8</ele>
        <time>2024-07-30T08:14:16Z</time>
      </trkpt>
      <trkpt lat="43.3354" lon="1.20144">
        <ele>218.8</ele>
        <time>2024-07-30T08:14:17Z</time>
      </trkpt>
      <trkpt lat="43.33546" lon="1.20149">
        <ele>219</ele>
        <time>2024-07-30T08:14:18Z</time>
      </trkpt>
      <trkpt lat="43.33554" lon="1.20154">
        <ele>219</ele>
        <time>2024-07-30T08:14:19Z</time>
      </trkpt>
      <trkpt lat="43.3356" lon="1.20158">
        <ele>219</ele>
        <time>2024-07-30T08:14:20Z</time>
      </trkpt>
      <trkpt lat="43.33566" lon="1.20162">
        <ele>219</ele>
        <time>2024-07-30T08:14:21Z</time>
      </trkpt>
      <trkpt lat="43.33573" lon="1.20166">
        <ele>219</ele>
        <time>2024-07-30T08:14:22Z</time>
      </trkpt>
      <trkpt lat="43.33579" lon="1.20171">
        <ele>218.8</ele>
        <time>2024-07-30T08:14:23Z</time>
      </trkpt>
      <trkpt lat="43.33585" lon="1.20175">
        <ele>218.8</ele>
        <time>2024-07-30T08:14:24Z</time>
      </trkpt>
      <trkpt lat="43.33592" lon="1.2018">
        <ele>218.6</ele>
        <time>2024-07-30T08:14:25Z</time>
      </trkpt>
      <trkpt lat="43.33599" lon="1.20184">
        <ele>218.6</ele>
        <time>2024-07-30T08:14:26Z</time>
      </trkpt>
      <trkpt lat="43.33605" lon="1.20189">
        <ele>218.6</ele>
        <time>2024-07-30T08:14:27Z</time>
      </trkpt>
      <trkpt lat="43.33612" lon="1.20194">
        <ele>218.6</ele>
        <time>2024-07-30T08:14:28Z</time>
      </trkpt>
      <trkpt lat="43.33618" lon="1.20198">
        <ele>218.6</ele>
        <time>2024-07-30T08:14:29Z</time>
      </trkpt>
      <trkpt lat="43.33625" lon="1.20203">
        <ele>218.6</ele>
        <time>2024-07-30T08:14:30Z</time>
      </trkpt>
      <trkpt lat="43.33631" lon="1.20208">
        <ele>218.6</ele>
        <time>2024-07-30T08:14:31Z</time>
      </trkpt>
      <trkpt lat="43.33636" lon="1.20211">
        <ele>218.6</ele>
        <time>2024-07-30T08:14:32Z</time>
      </trkpt>
      <trkpt lat="43.33644" lon="1.20217">
        <ele>218.4</ele>
        <time>2024-07-30T08:14:33Z</time>
      </trkpt>
      <trkpt lat="43.3365" lon="1.20221">
        <ele>218.4</ele>
        <time>2024-07-30T08:14:34Z</time>
      </trkpt>
      <trkpt lat="43.33656" lon="1.20226">
        <ele>218.4</ele>
        <time>2024-07-30T08:14:35Z</time>
      </trkpt>
      <trkpt lat="43.33661" lon="1.2023">
        <ele>218.4</ele>
        <time>2024-07-30T08:14:36Z</time>
      </trkpt>
      <trkpt lat="43.33668" lon="1.20235">
        <ele>218.4</ele>
        <time>2024-07-30T08:14:37Z</time>
      </trkpt>
      <trkpt lat="43.33675" lon="1.20239">
        <ele>218.4</ele>
        <time>2024-07-30T08:14:38Z</time>
      </trkpt>
      <trkpt lat="43.33681" lon="1.20244">
        <ele>218.2</ele>
        <time>2024-07-30T08:14:39Z</time>
      </trkpt>
      <trkpt lat="43.33687" lon="1.20249">
        <ele>218.2</ele>
        <time>2024-07-30T08:14:40Z</time>
      </trkpt>
      <trkpt lat="43.33694" lon="1.20254">
        <ele>218.2</ele>
        <time>2024-07-30T08:14:41Z</time>
      </trkpt>
      <trkpt lat="43.337" lon="1.20259">
        <ele>218.2</ele>
        <time>2024-07-30T08:14:42Z</time>
      </trkpt>
      <trkpt lat="43.33707" lon="1.20264">
        <ele>218</ele>
        <time>2024-07-30T08:14:43Z</time>
      </trkpt>
      <trkpt lat="43.33713" lon="1.20269">
        <ele>218</ele>
        <time>2024-07-30T08:14:44Z</time>
      </trkpt>
      <trkpt lat="43.3372" lon="1.20274">
        <ele>218</ele>
        <time>2024-07-30T08:14:45Z</time>
      </trkpt>
      <trkpt lat="43.33725" lon="1.20278">
        <ele>217.8</ele>
        <time>2024-07-30T08:14:46Z</time>
      </trkpt>
      <trkpt lat="43.33733" lon="1.20284">
        <ele>217.8</ele>
        <time>2024-07-30T08:14:47Z</time>
      </trkpt>
      <trkpt lat="43.33739" lon="1.2029">
        <ele>217.8</ele>
        <time>2024-07-30T08:14:48Z</time>
      </trkpt>
      <trkpt lat="43.33746" lon="1.20295">
        <ele>217.8</ele>
        <time>2024-07-30T08:14:49Z</time>
      </trkpt>
      <trkpt lat="43.33752" lon="1.20301">
        <ele>217.8</ele>
        <time>2024-07-30T08:14:50Z</time>
      </trkpt>
      <trkpt lat="43.33758" lon="1.20306">
        <ele>217.8</ele>
        <time>2024-07-30T08:14:51Z</time>
      </trkpt>
      <trkpt lat="43.33765" lon="1.20312">
        <ele>217.8</ele>
        <time>2024-07-30T08:14:52Z</time>
      </trkpt>
      <trkpt lat="43.33771" lon="1.20318">
        <ele>217.8</ele>
        <time>2024-07-30T08:14:53Z</time>
      </trkpt>
      <trkpt lat="43.33777" lon="1.20323">
        <ele>217.8</ele>
        <time>2024-07-30T08:14:54Z</time>
      </trkpt>
      <trkpt lat="43.33783" lon="1.20329">
        <ele>217.8</ele>
        <time>2024-07-30T08:14:55Z</time>
      </trkpt>
      <trkpt lat="43.33789" lon="1.20334">
        <ele>217.8</ele>
        <time>2024-07-30T08:14:56Z</time>
      </trkpt>
      <trkpt lat="43.33794" lon="1.20339">
        <ele>217.8</ele>
        <time>2024-07-30T08:14:57Z</time>
      </trkpt>
      <trkpt lat="43.338" lon="1.20344">
        <ele>217.8</ele>
        <time>2024-07-30T08:14:58Z</time>
      </trkpt>
      <trkpt lat="43.33807" lon="1.2035">
        <ele>217.8</ele>
        <time>2024-07-30T08:14:59Z</time>
      </trkpt>
      <trkpt lat="43.33813" lon="1.20356">
        <ele>217.6</ele>
        <time>2024-07-30T08:15:00Z</time>
      </trkpt>
      <trkpt lat="43.33819" lon="1.20361">
        <ele>217.6</ele>
        <time>2024-07-30T08:15:01Z</time>
      </trkpt>
      <trkpt lat="43.33825" lon="1.20367">
        <ele>217.6</ele>
        <time>2024-07-30T08:15:02Z</time>
      </trkpt>
      <trkpt lat="43.33832" lon="1.20372">
        <ele>217.6</ele>
        <time>2024-07-30T08:15:03Z</time>
      </trkpt>
      <trkpt lat="43.33838" lon="1.20378">
        <ele>217.6</ele>
        <time>2024-07-30T08:15:04Z</time>
      </trkpt>
      <trkpt lat="43.33844" lon="1.20383">
        <ele>217.6</ele>
        <time>2024-07-30T08:15:05Z</time>
      </trkpt>
      <trkpt lat="43.3385" lon="1.20389">
        <ele>217.6</ele>
        <time>2024-07-30T08:15:06Z</time>
      </trkpt>
      <trkpt lat="43.33856" lon="1.20394">
        <ele>217.4</ele>
        <time>2024-07-30T08:15:07Z</time>
      </trkpt>
      <trkpt lat="43.33862" lon="1.204">
        <ele>217.4</ele>
        <time>2024-07-30T08:15:08Z</time>
      </trkpt>
      <trkpt lat="43.3387" lon="1.20407">
        <ele>217.4</ele>
        <time>2024-07-30T08:15:09Z</time>
      </trkpt>
      <trkpt lat="43.33874" lon="1.20411">
        <ele>217.4</ele>
        <time>2024-07-30T08:15:10Z</time>
      </trkpt>
      <trkpt lat="43.33882" lon="1.20418">
        <ele>217.4</ele>
        <time>2024-07-30T08:15:11Z</time>
      </trkpt>
      <trkpt lat="43.33887" lon="1.20423">
        <ele>217.4</ele>
        <time>2024-07-30T08:15:12Z</time>
      </trkpt>
      <trkpt lat="43.33893" lon="1.20428">
        <ele>217.4</ele>
        <time>2024-07-30T08:15:13Z</time>
      </trkpt>
      <trkpt lat="43.33899" lon="1.20433">
        <ele>217.4</ele>
        <time>2024-07-30T08:15:14Z</time>
      </trkpt>
      <trkpt lat="43.33905" lon="1.20439">
        <ele>217.4</ele>
        <time>2024-07-30T08:15:15Z</time>
      </trkpt>
      <trkpt lat="43.33911" lon="1.20444">
        <ele>217.4</ele>
        <time>2024-07-30T08:15:16Z</time>
      </trkpt>
      <trkpt lat="43.33917" lon="1.20449">
        <ele>217.4</ele>
        <time>2024-07-30T08:15:17Z</time>
      </trkpt>
      <trkpt lat="43.33922" lon="1.20454">
        <ele>217.2</ele>
        <time>2024-07-30T08:15:18Z</time>
      </trkpt>
      <trkpt lat="43.33928" lon="1.2046">
        <ele>217.2</ele>
        <time>2024-07-30T08:15:19Z</time>
      </trkpt>
      <trkpt lat="43.33934" lon="1.20465">
        <ele>217.2</ele>
        <time>2024-07-30T08:15:20Z</time>
      </trkpt>
      <trkpt lat="43.3394" lon="1.20471">
        <ele>217.2</ele>
        <time>2024-07-30T08:15:21Z</time>
      </trkpt>
      <trkpt lat="43.33947" lon="1.20476">
        <ele>217.2</ele>
        <time>2024-07-30T08:15:22Z</time>
      </trkpt>
      <trkpt lat="43.33953" lon="1.20482">
        <ele>217.2</ele>
        <time>2024-07-30T08:15:23Z</time>
      </trkpt>
      <trkpt lat="43.33959" lon="1.20487">
        <ele>217.4</ele>
        <time>2024-07-30T08:15:24Z</time>
      </trkpt>
      <trkpt lat="43.33966" lon="1.20492">
        <ele>217.4</ele>
        <time>2024-07-30T08:15:25Z</time>
      </trkpt>
      <trkpt lat="43.33972" lon="1.20498">
        <ele>217.4</ele>
        <time>2024-07-30T08:15:26Z</time>
      </trkpt>
      <trkpt lat="43.33979" lon="1.20503">
        <ele>217.4</ele>
        <time>2024-07-30T08:15:27Z</time>
      </trkpt>
      <trkpt lat="43.33986" lon="1.20508">
        <ele>217.4</ele>
        <time>2024-07-30T08:15:28Z</time>
      </trkpt>
      <trkpt lat="43.33992" lon="1.20513">
        <ele>217.4</ele>
        <time>2024-07-30T08:15:29Z</time>
      </trkpt>
      <trkpt lat="43.33999" lon="1.20518">
        <ele>217.4</ele>
        <time>2024-07-30T08:15:30Z</time>
      </trkpt>
      <trkpt lat="43.34004" lon="1.20522">
        <ele>217.4</ele>
        <time>2024-07-30T08:15:31Z</time>
      </trkpt>
      <trkpt lat="43.34011" lon="1.20528">
        <ele>217.4</ele>
        <time>2024-07-30T08:15:32Z</time>
      </trkpt>
      <trkpt lat="43.34019" lon="1.20534">
        <ele>217.4</ele>
        <time>2024-07-30T08:15:33Z</time>
      </trkpt>
      <trkpt lat="43.34025" lon="1.20539">
        <ele>217.4</ele>
        <time>2024-07-30T08:15:34Z</time>
      </trkpt>
      <trkpt lat="43.34032" lon="1.20544">
        <ele>217.4</ele>
        <time>2024-07-30T08:15:35Z</time>
      </trkpt>
      <trkpt lat="43.34038" lon="1.20549">
        <ele>217.4</ele>
        <time>2024-07-30T08:15:36Z</time>
      </trkpt>
      <trkpt lat="43.34044" lon="1.20554">
        <ele>217.4</ele>
        <time>2024-07-30T08:15:37Z</time>
      </trkpt>
      <trkpt lat="43.34051" lon="1.20559">
        <ele>217.4</ele>
        <time>2024-07-30T08:15:38Z</time>
      </trkpt>
      <trkpt lat="43.34057" lon="1.20565">
        <ele>217.4</ele>
        <time>2024-07-30T08:15:39Z</time>
      </trkpt>
      <trkpt lat="43.34062" lon="1.20569">
        <ele>217.4</ele>
        <time>2024-07-30T08:15:40Z</time>
      </trkpt>
      <trkpt lat="43.34068" lon="1.20574">
        <ele>217.4</ele>
        <time>2024-07-30T08:15:41Z</time>
      </trkpt>
      <trkpt lat="43.34076" lon="1.2058">
        <ele>217.2</ele>
        <time>2024-07-30T08:15:42Z</time>
      </trkpt>
      <trkpt lat="43.34082" lon="1.20585">
        <ele>217.2</ele>
        <time>2024-07-30T08:15:43Z</time>
      </trkpt>
      <trkpt lat="43.34089" lon="1.20591">
        <ele>217.2</ele>
        <time>2024-07-30T08:15:44Z</time>
      </trkpt>
      <trkpt lat="43.34095" lon="1.20596">
        <ele>217.2</ele>
        <time>2024-07-30T08:15:45Z</time>
      </trkpt>
      <trkpt lat="43.34101" lon="1.206">
        <ele>217</ele>
        <time>2024-07-30T08:15:46Z</time>
      </trkpt>
      <trkpt lat="43.34109" lon="1.20606">
        <ele>217</ele>
        <time>2024-07-30T08:15:47Z</time>
      </trkpt>
      <trkpt lat="43.34115" lon="1.2061">
        <ele>217</ele>
        <time>2024-07-30T08:15:48Z</time>
      </trkpt>
      <trkpt lat="43.34122" lon="1.20615">
        <ele>217</ele>
        <time>2024-07-30T08:15:49Z</time>
      </trkpt>
      <trkpt lat="43.34128" lon="1.2062">
        <ele>217</ele>
        <time>2024-07-30T08:15:50Z</time>
      </trkpt>
      <trkpt lat="43.34134" lon="1.20625">
        <ele>216.8</ele>
        <time>2024-07-30T08:15:51Z</time>
      </trkpt>
      <trkpt lat="43.34141" lon="1.2063">
        <ele>216.8</ele>
        <time>2024-07-30T08:15:52Z</time>
      </trkpt>
      <trkpt lat="43.34147" lon="1.20635">
        <ele>216.8</ele>
        <time>2024-07-30T08:15:53Z</time>
      </trkpt>
      <trkpt lat="43.34153" lon="1.20641">
        <ele>216.8</ele>
        <time>2024-07-30T08:15:54Z</time>
      </trkpt>
      <trkpt lat="43.3416" lon="1.20646">
        <ele>217</ele>
        <time>2024-07-30T08:15:55Z</time>
      </trkpt>
      <trkpt lat="43.34166" lon="1.20651">
        <ele>217</ele>
        <time>2024-07-30T08:15:56Z</time>
      </trkpt>
      <trkpt lat="43.34173" lon="1.20657">
        <ele>217</ele>
        <time>2024-07-30T08:15:57Z</time>
      </trkpt>
      <trkpt lat="43.34179" lon="1.20663">
        <ele>217</ele>
        <time>2024-07-30T08:15:58Z</time>
      </trkpt>
      <trkpt lat="43.34185" lon="1.20668">
        <ele>217</ele>
        <time>2024-07-30T08:15:59Z</time>
      </trkpt>
      <trkpt lat="43.34192" lon="1.20674">
        <ele>217</ele>
        <time>2024-07-30T08:16:00Z</time>
      </trkpt>
      <trkpt lat="43.34199" lon="1.2068">
        <ele>217</ele>
        <time>2024-07-30T08:16:01Z</time>
      </trkpt>
      <trkpt lat="43.34205" lon="1.20685">
        <ele>217.2</ele>
        <time>2024-07-30T08:16:02Z</time>
      </trkpt>
      <trkpt lat="43.34212" lon="1.20691">
        <ele>217.2</ele>
        <time>2024-07-30T08:16:03Z</time>
      </trkpt>
      <trkpt lat="43.34218" lon="1.20697">
        <ele>217.2</ele>
        <time>2024-07-30T08:16:04Z</time>
      </trkpt>
      <trkpt lat="43.34224" lon="1.20703">
        <ele>217.2</ele>
        <time>2024-07-30T08:16:05Z</time>
      </trkpt>
      <trkpt lat="43.34231" lon="1.20709">
        <ele>217.2</ele>
        <time>2024-07-30T08:16:06Z</time>
      </trkpt>
      <trkpt lat="43.34237" lon="1.20714">
        <ele>217.2</ele>
        <time>2024-07-30T08:16:07Z</time>
      </trkpt>
      <trkpt lat="43.34243" lon="1.2072">
        <ele>217.2</ele>
        <time>2024-07-30T08:16:08Z</time>
      </trkpt>
      <trkpt lat="43.3425" lon="1.20726">
        <ele>217.2</ele>
        <time>2024-07-30T08:16:09Z</time>
      </trkpt>
      <trkpt lat="43.34256" lon="1.20732">
        <ele>217.2</ele>
        <time>2024-07-30T08:16:10Z</time>
      </trkpt>
      <trkpt lat="43.34263" lon="1.20738">
        <ele>217.2</ele>
        <time>2024-07-30T08:16:11Z</time>
      </trkpt>
      <trkpt lat="43.34269" lon="1.20744">
        <ele>217.2</ele>
        <time>2024-07-30T08:16:12Z</time>
      </trkpt>
      <trkpt lat="43.34275" lon="1.2075">
        <ele>217</ele>
        <time>2024-07-30T08:16:13Z</time>
      </trkpt>
      <trkpt lat="43.34282" lon="1.20755">
        <ele>217</ele>
        <time>2024-07-30T08:16:14Z</time>
      </trkpt>
      <trkpt lat="43.34288" lon="1.20761">
        <ele>216.8</ele>
        <time>2024-07-30T08:16:15Z</time>
      </trkpt>
      <trkpt lat="43.34295" lon="1.20767">
        <ele>216.8</ele>
        <time>2024-07-30T08:16:16Z</time>
      </trkpt>
      <trkpt lat="43.34301" lon="1.20773">
        <ele>216.8</ele>
        <time>2024-07-30T08:16:17Z</time>
      </trkpt>
      <trkpt lat="43.34308" lon="1.20779">
        <ele>216.8</ele>
        <time>2024-07-30T08:16:18Z</time>
      </trkpt>
      <trkpt lat="43.34315" lon="1.20784">
        <ele>216.8</ele>
        <time>2024-07-30T08:16:19Z</time>
      </trkpt>
      <trkpt lat="43.34321" lon="1.20791">
        <ele>216.8</ele>
        <time>2024-07-30T08:16:20Z</time>
      </trkpt>
      <trkpt lat="43.34328" lon="1.20797">
        <ele>216.8</ele>
        <time>2024-07-30T08:16:21Z</time>
      </trkpt>
      <trkpt lat="43.34335" lon="1.20803">
        <ele>216.8</ele>
        <time>2024-07-30T08:16:22Z</time>
      </trkpt>
      <trkpt lat="43.34342" lon="1.20809">
        <ele>216.8</ele>
        <time>2024-07-30T08:16:23Z</time>
      </trkpt>
      <trkpt lat="43.34349" lon="1.20814">
        <ele>216.8</ele>
        <time>2024-07-30T08:16:24Z</time>
      </trkpt>
      <trkpt lat="43.34356" lon="1.2082">
        <ele>216.8</ele>
        <time>2024-07-30T08:16:25Z</time>
      </trkpt>
      <trkpt lat="43.34362" lon="1.20826">
        <ele>216.8</ele>
        <time>2024-07-30T08:16:26Z</time>
      </trkpt>
      <trkpt lat="43.34368" lon="1.20831">
        <ele>216.8</ele>
        <time>2024-07-30T08:16:27Z</time>
      </trkpt>
      <trkpt lat="43.34376" lon="1.20838">
        <ele>216.8</ele>
        <time>2024-07-30T08:16:28Z</time>
      </trkpt>
      <trkpt lat="43.34382" lon="1.20844">
        <ele>216.8</ele>
        <time>2024-07-30T08:16:29Z</time>
      </trkpt>
      <trkpt lat="43.34389" lon="1.2085">
        <ele>216.8</ele>
        <time>2024-07-30T08:16:30Z</time>
      </trkpt>
      <trkpt lat="43.34396" lon="1.20856">
        <ele>216.8</ele>
        <time>2024-07-30T08:16:31Z</time>
      </trkpt>
      <trkpt lat="43.34402" lon="1.20862">
        <ele>216.8</ele>
        <time>2024-07-30T08:16:32Z</time>
      </trkpt>
      <trkpt lat="43.34409" lon="1.20868">
        <ele>216.8</ele>
        <time>2024-07-30T08:16:33Z</time>
      </trkpt>
      <trkpt lat="43.34416" lon="1.20874">
        <ele>216.8</ele>
        <time>2024-07-30T08:16:34Z</time>
      </trkpt>
      <trkpt lat="43.34423" lon="1.2088">
        <ele>216.6</ele>
        <time>2024-07-30T08:16:35Z</time>
      </trkpt>
      <trkpt lat="43.3443" lon="1.20887">
        <ele>216.6</ele>
        <time>2024-07-30T08:16:36Z</time>
      </trkpt>
      <trkpt lat="43.34437" lon="1.20893">
        <ele>216.6</ele>
        <time>2024-07-30T08:16:37Z</time>
      </trkpt>
      <trkpt lat="43.34444" lon="1.20899">
        <ele>216.6</ele>
        <time>2024-07-30T08:16:38Z</time>
      </trkpt>
      <trkpt lat="43.34451" lon="1.20905">
        <ele>216.6</ele>
        <time>2024-07-30T08:16:39Z</time>
      </trkpt>
      <trkpt lat="43.34457" lon="1.20911">
        <ele>216.6</ele>
        <time>2024-07-30T08:16:40Z</time>
      </trkpt>
      <trkpt lat="43.34463" lon="1.20916">
        <ele>216.6</ele>
        <time>2024-07-30T08:16:41Z</time>
      </trkpt>
      <trkpt lat="43.34471" lon="1.20923">
        <ele>216.6</ele>
        <time>2024-07-30T08:16:42Z</time>
      </trkpt>
      <trkpt lat="43.34478" lon="1.20929">
        <ele>216.4</ele>
        <time>2024-07-30T08:16:43Z</time>
      </trkpt>
      <trkpt lat="43.34485" lon="1.20936">
        <ele>216.4</ele>
        <time>2024-07-30T08:16:44Z</time>
      </trkpt>
      <trkpt lat="43.34492" lon="1.20942">
        <ele>216.2</ele>
        <time>2024-07-30T08:16:45Z</time>
      </trkpt>
      <trkpt lat="43.34498" lon="1.20948">
        <ele>216.2</ele>
        <time>2024-07-30T08:16:46Z</time>
      </trkpt>
      <trkpt lat="43.34505" lon="1.20954">
        <ele>216.2</ele>
        <time>2024-07-30T08:16:47Z</time>
      </trkpt>
      <trkpt lat="43.34512" lon="1.2096">
        <ele>216.2</ele>
        <time>2024-07-30T08:16:48Z</time>
      </trkpt>
      <trkpt lat="43.34519" lon="1.20966">
        <ele>216.2</ele>
        <time>2024-07-30T08:16:49Z</time>
      </trkpt>
      <trkpt lat="43.34525" lon="1.20972">
        <ele>216</ele>
        <time>2024-07-30T08:16:50Z</time>
      </trkpt>
      <trkpt lat="43.34532" lon="1.20978">
        <ele>216</ele>
        <time>2024-07-30T08:16:51Z</time>
      </trkpt>
      <trkpt lat="43.34539" lon="1.20984">
        <ele>216</ele>
        <time>2024-07-30T08:16:52Z</time>
      </trkpt>
      <trkpt lat="43.34545" lon="1.20989">
        <ele>216</ele>
        <time>2024-07-30T08:16:53Z</time>
      </trkpt>
      <trkpt lat="43.34552" lon="1.20995">
        <ele>216</ele>
        <time>2024-07-30T08:16:54Z</time>
      </trkpt>
      <trkpt lat="43.34559" lon="1.21001">
        <ele>216</ele>
        <time>2024-07-30T08:16:55Z</time>
      </trkpt>
      <trkpt lat="43.34566" lon="1.21007">
        <ele>216</ele>
        <time>2024-07-30T08:16:56Z</time>
      </trkpt>
      <trkpt lat="43.34572" lon="1.21013">
        <ele>216</ele>
        <time>2024-07-30T08:16:57Z</time>
      </trkpt>
      <trkpt lat="43.34579" lon="1.2102">
        <ele>215.8</ele>
        <time>2024-07-30T08:16:58Z</time>
      </trkpt>
      <trkpt lat="43.34585" lon="1.21024">
        <ele>215.8</ele>
        <time>2024-07-30T08:16:59Z</time>
      </trkpt>
      <trkpt lat="43.34593" lon="1.21032">
        <ele>215.8</ele>
        <time>2024-07-30T08:17:00Z</time>
      </trkpt>
      <trkpt lat="43.346" lon="1.21038">
        <ele>215.8</ele>
        <time>2024-07-30T08:17:01Z</time>
      </trkpt>
      <trkpt lat="43.34606" lon="1.21044">
        <ele>215.8</ele>
        <time>2024-07-30T08:17:02Z</time>
      </trkpt>
      <trkpt lat="43.34613" lon="1.2105">
        <ele>215.8</ele>
        <time>2024-07-30T08:17:03Z</time>
      </trkpt>
      <trkpt lat="43.3462" lon="1.21056">
        <ele>215.8</ele>
        <time>2024-07-30T08:17:04Z</time>
      </trkpt>
      <trkpt lat="43.34626" lon="1.21062">
        <ele>215.6</ele>
        <time>2024-07-30T08:17:05Z</time>
      </trkpt>
      <trkpt lat="43.34633" lon="1.21068">
        <ele>215.6</ele>
        <time>2024-07-30T08:17:06Z</time>
      </trkpt>
      <trkpt lat="43.34638" lon="1.21072">
        <ele>215.6</ele>
        <time>2024-07-30T08:17:07Z</time>
      </trkpt>
      <trkpt lat="43.34645" lon="1.21078">
        <ele>215.6</ele>
        <time>2024-07-30T08:17:08Z</time>
      </trkpt>
      <trkpt lat="43.34653" lon="1.21085">
        <ele>215.4</ele>
        <time>2024-07-30T08:17:09Z</time>
      </trkpt>
      <trkpt lat="43.34659" lon="1.21091">
        <ele>215.4</ele>
        <time>2024-07-30T08:17:10Z</time>
      </trkpt>
      <trkpt lat="43.34666" lon="1.21097">
        <ele>215.4</ele>
        <time>2024-07-30T08:17:11Z</time>
      </trkpt>
      <trkpt lat="43.34672" lon="1.21103">
        <ele>215.2</ele>
        <time>2024-07-30T08:17:12Z</time>
      </trkpt>
      <trkpt lat="43.34679" lon="1.21109">
        <ele>215.2</ele>
        <time>2024-07-30T08:17:13Z</time>
      </trkpt>
      <trkpt lat="43.34685" lon="1.21114">
        <ele>215.2</ele>
        <time>2024-07-30T08:17:14Z</time>
      </trkpt>
      <trkpt lat="43.34692" lon="1.2112">
        <ele>215.2</ele>
        <time>2024-07-30T08:17:15Z</time>
      </trkpt>
      <trkpt lat="43.34698" lon="1.21126">
        <ele>215.2</ele>
        <time>2024-07-30T08:17:16Z</time>
      </trkpt>
      <trkpt lat="43.34704" lon="1.21131">
        <ele>215.2</ele>
        <time>2024-07-30T08:17:17Z</time>
      </trkpt>
      <trkpt lat="43.34711" lon="1.21137">
        <ele>215.4</ele>
        <time>2024-07-30T08:17:18Z</time>
      </trkpt>
      <trkpt lat="43.34717" lon="1.21143">
        <ele>215.4</ele>
        <time>2024-07-30T08:17:19Z</time>
      </trkpt>
      <trkpt lat="43.34723" lon="1.21148">
        <ele>215.4</ele>
        <time>2024-07-30T08:17:20Z</time>
      </trkpt>
      <trkpt lat="43.34729" lon="1.21154">
        <ele>215.6</ele>
        <time>2024-07-30T08:17:21Z</time>
      </trkpt>
      <trkpt lat="43.34735" lon="1.2116">
        <ele>215.6</ele>
        <time>2024-07-30T08:17:22Z</time>
      </trkpt>
      <trkpt lat="43.34742" lon="1.21165">
        <ele>215.6</ele>
        <time>2024-07-30T08:17:23Z</time>
      </trkpt>
      <trkpt lat="43.34748" lon="1.21171">
        <ele>215.6</ele>
        <time>2024-07-30T08:17:24Z</time>
      </trkpt>
      <trkpt lat="43.34755" lon="1.21177">
        <ele>215.6</ele>
        <time>2024-07-30T08:17:25Z</time>
      </trkpt>
      <trkpt lat="43.34761" lon="1.21183">
        <ele>215.8</ele>
        <time>2024-07-30T08:17:26Z</time>
      </trkpt>
      <trkpt lat="43.34768" lon="1.21189">
        <ele>215.8</ele>
        <time>2024-07-30T08:17:27Z</time>
      </trkpt>
      <trkpt lat="43.34774" lon="1.21195">
        <ele>215.6</ele>
        <time>2024-07-30T08:17:28Z</time>
      </trkpt>
      <trkpt lat="43.34781" lon="1.212">
        <ele>215.6</ele>
        <time>2024-07-30T08:17:29Z</time>
      </trkpt>
      <trkpt lat="43.34788" lon="1.21206">
        <ele>215.6</ele>
        <time>2024-07-30T08:17:30Z</time>
      </trkpt>
      <trkpt lat="43.34794" lon="1.21212">
        <ele>215.6</ele>
        <time>2024-07-30T08:17:31Z</time>
      </trkpt>
      <trkpt lat="43.348" lon="1.21218">
        <ele>215.6</ele>
        <time>2024-07-30T08:17:32Z</time>
      </trkpt>
      <trkpt lat="43.34807" lon="1.21223">
        <ele>215.6</ele>
        <time>2024-07-30T08:17:33Z</time>
      </trkpt>
      <trkpt lat="43.34813" lon="1.21229">
        <ele>215.6</ele>
        <time>2024-07-30T08:17:34Z</time>
      </trkpt>
      <trkpt lat="43.34819" lon="1.21235">
        <ele>215.6</ele>
        <time>2024-07-30T08:17:35Z</time>
      </trkpt>
      <trkpt lat="43.34826" lon="1.21241">
        <ele>215.6</ele>
        <time>2024-07-30T08:17:36Z</time>
      </trkpt>
      <trkpt lat="43.34833" lon="1.21246">
        <ele>215.6</ele>
        <time>2024-07-30T08:17:37Z</time>
      </trkpt>
      <trkpt lat="43.3484" lon="1.21252">
        <ele>215.4</ele>
        <time>2024-07-30T08:17:38Z</time>
      </trkpt>
      <trkpt lat="43.34846" lon="1.21257">
        <ele>215.4</ele>
        <time>2024-07-30T08:17:39Z</time>
      </trkpt>
      <trkpt lat="43.34853" lon="1.21263">
        <ele>215.4</ele>
        <time>2024-07-30T08:17:40Z</time>
      </trkpt>
      <trkpt lat="43.3486" lon="1.21269">
        <ele>215.4</ele>
        <time>2024-07-30T08:17:41Z</time>
      </trkpt>
      <trkpt lat="43.34867" lon="1.21274">
        <ele>215.4</ele>
        <time>2024-07-30T08:17:42Z</time>
      </trkpt>
      <trkpt lat="43.34875" lon="1.21279">
        <ele>215.4</ele>
        <time>2024-07-30T08:17:43Z</time>
      </trkpt>
      <trkpt lat="43.34882" lon="1.21284">
        <ele>215.4</ele>
        <time>2024-07-30T08:17:44Z</time>
      </trkpt>
      <trkpt lat="43.34889" lon="1.21288">
        <ele>215.4</ele>
        <time>2024-07-30T08:17:45Z</time>
      </trkpt>
      <trkpt lat="43.34896" lon="1.21293">
        <ele>215.4</ele>
        <time>2024-07-30T08:17:46Z</time>
      </trkpt>
      <trkpt lat="43.34904" lon="1.21297">
        <ele>215.4</ele>
        <time>2024-07-30T08:17:47Z</time>
      </trkpt>
      <trkpt lat="43.34909" lon="1.21301">
        <ele>215.2</ele>
        <time>2024-07-30T08:17:48Z</time>
      </trkpt>
      <trkpt lat="43.34916" lon="1.21305">
        <ele>215.2</ele>
        <time>2024-07-30T08:17:49Z</time>
      </trkpt>
      <trkpt lat="43.34924" lon="1.2131">
        <ele>215.2</ele>
        <time>2024-07-30T08:17:50Z</time>
      </trkpt>
      <trkpt lat="43.3493" lon="1.21315">
        <ele>215</ele>
        <time>2024-07-30T08:17:51Z</time>
      </trkpt>
      <trkpt lat="43.34937" lon="1.2132">
        <ele>215</ele>
        <time>2024-07-30T08:17:52Z</time>
      </trkpt>
      <trkpt lat="43.34944" lon="1.21325">
        <ele>215</ele>
        <time>2024-07-30T08:17:53Z</time>
      </trkpt>
      <trkpt lat="43.34951" lon="1.2133">
        <ele>214.8</ele>
        <time>2024-07-30T08:17:54Z</time>
      </trkpt>
      <trkpt lat="43.34958" lon="1.21335">
        <ele>214.8</ele>
        <time>2024-07-30T08:17:55Z</time>
      </trkpt>
      <trkpt lat="43.34964" lon="1.21339">
        <ele>214.8</ele>
        <time>2024-07-30T08:17:56Z</time>
      </trkpt>
      <trkpt lat="43.34971" lon="1.21344">
        <ele>214.6</ele>
        <time>2024-07-30T08:17:57Z</time>
      </trkpt>
      <trkpt lat="43.34978" lon="1.21348">
        <ele>214.6</ele>
        <time>2024-07-30T08:17:58Z</time>
      </trkpt>
      <trkpt lat="43.34985" lon="1.21352">
        <ele>214.6</ele>
        <time>2024-07-30T08:17:59Z</time>
      </trkpt>
      <trkpt lat="43.34992" lon="1.21357">
        <ele>214.6</ele>
        <time>2024-07-30T08:18:00Z</time>
      </trkpt>
      <trkpt lat="43.34999" lon="1.2136">
        <ele>214.6</ele>
        <time>2024-07-30T08:18:01Z</time>
      </trkpt>
      <trkpt lat="43.35006" lon="1.21364">
        <ele>214.4</ele>
        <time>2024-07-30T08:18:02Z</time>
      </trkpt>
      <trkpt lat="43.35013" lon="1.21368">
        <ele>214.4</ele>
        <time>2024-07-30T08:18:03Z</time>
      </trkpt>
      <trkpt lat="43.35021" lon="1.21371">
        <ele>214.4</ele>
        <time>2024-07-30T08:18:04Z</time>
      </trkpt>
      <trkpt lat="43.35028" lon="1.21374">
        <ele>214.4</ele>
        <time>2024-07-30T08:18:05Z</time>
      </trkpt>
      <trkpt lat="43.35035" lon="1.21378">
        <ele>214.4</ele>
        <time>2024-07-30T08:18:06Z</time>
      </trkpt>
      <trkpt lat="43.35043" lon="1.21381">
        <ele>214.4</ele>
        <time>2024-07-30T08:18:07Z</time>
      </trkpt>
      <trkpt lat="43.3505" lon="1.21384">
        <ele>214.4</ele>
        <time>2024-07-30T08:18:08Z</time>
      </trkpt>
      <trkpt lat="43.35058" lon="1.21387">
        <ele>214.4</ele>
        <time>2024-07-30T08:18:09Z</time>
      </trkpt>
      <trkpt lat="43.35065" lon="1.21391">
        <ele>214.2</ele>
        <time>2024-07-30T08:18:10Z</time>
      </trkpt>
      <trkpt lat="43.35072" lon="1.21395">
        <ele>214.2</ele>
        <time>2024-07-30T08:18:11Z</time>
      </trkpt>
      <trkpt lat="43.3508" lon="1.21398">
        <ele>214.2</ele>
        <time>2024-07-30T08:18:12Z</time>
      </trkpt>
      <trkpt lat="43.35087" lon="1.21402">
        <ele>214.2</ele>
        <time>2024-07-30T08:18:13Z</time>
      </trkpt>
      <trkpt lat="43.35094" lon="1.21405">
        <ele>214.2</ele>
        <time>2024-07-30T08:18:14Z</time>
      </trkpt>
      <trkpt lat="43.35102" lon="1.21409">
        <ele>214.2</ele>
        <time>2024-07-30T08:18:15Z</time>
      </trkpt>
      <trkpt lat="43.35109" lon="1.21413">
        <ele>214</ele>
        <time>2024-07-30T08:18:16Z</time>
      </trkpt>
      <trkpt lat="43.35116" lon="1.21417">
        <ele>214</ele>
        <time>2024-07-30T08:18:17Z</time>
      </trkpt>
      <trkpt lat="43.35123" lon="1.21422">
        <ele>214</ele>
        <time>2024-07-30T08:18:18Z</time>
      </trkpt>
      <trkpt lat="43.35131" lon="1.21426">
        <ele>213.8</ele>
        <time>2024-07-30T08:18:19Z</time>
      </trkpt>
      <trkpt lat="43.35138" lon="1.21431">
        <ele>213.8</ele>
        <time>2024-07-30T08:18:20Z</time>
      </trkpt>
      <trkpt lat="43.35145" lon="1.21436">
        <ele>213.6</ele>
        <time>2024-07-30T08:18:21Z</time>
      </trkpt>
      <trkpt lat="43.35152" lon="1.21441">
        <ele>213.6</ele>
        <time>2024-07-30T08:18:22Z</time>
      </trkpt>
      <trkpt lat="43.35159" lon="1.21446">
        <ele>213.6</ele>
        <time>2024-07-30T08:18:23Z</time>
      </trkpt>
      <trkpt lat="43.35166" lon="1.21452">
        <ele>213.4</ele>
        <time>2024-07-30T08:18:24Z</time>
      </trkpt>
      <trkpt lat="43.35173" lon="1.21458">
        <ele>213.4</ele>
        <time>2024-07-30T08:18:25Z</time>
      </trkpt>
      <trkpt lat="43.3518" lon="1.21464">
        <ele>213.4</ele>
        <time>2024-07-30T08:18:26Z</time>
      </trkpt>
      <trkpt lat="43.35186" lon="1.21471">
        <ele>213.4</ele>
        <time>2024-07-30T08:18:27Z</time>
      </trkpt>
      <trkpt lat="43.35193" lon="1.21477">
        <ele>213.4</ele>
        <time>2024-07-30T08:18:28Z</time>
      </trkpt>
      <trkpt lat="43.352" lon="1.21485">
        <ele>213.4</ele>
        <time>2024-07-30T08:18:29Z</time>
      </trkpt>
      <trkpt lat="43.35206" lon="1.21492">
        <ele>213.2</ele>
        <time>2024-07-30T08:18:30Z</time>
      </trkpt>
      <trkpt lat="43.35212" lon="1.21499">
        <ele>213</ele>
        <time>2024-07-30T08:18:31Z</time>
      </trkpt>
      <trkpt lat="43.35218" lon="1.21506">
        <ele>213</ele>
        <time>2024-07-30T08:18:32Z</time>
      </trkpt>
      <trkpt lat="43.35224" lon="1.21514">
        <ele>213</ele>
        <time>2024-07-30T08:18:33Z</time>
      </trkpt>
      <trkpt lat="43.35229" lon="1.2152">
        <ele>213</ele>
        <time>2024-07-30T08:18:34Z</time>
      </trkpt>
      <trkpt lat="43.35235" lon="1.21527">
        <ele>213</ele>
        <time>2024-07-30T08:18:35Z</time>
      </trkpt>
      <trkpt lat="43.35242" lon="1.21536">
        <ele>213</ele>
        <time>2024-07-30T08:18:36Z</time>
      </trkpt>
      <trkpt lat="43.35248" lon="1.21544">
        <ele>213</ele>
        <time>2024-07-30T08:18:37Z</time>
      </trkpt>
      <trkpt lat="43.35254" lon="1.21552">
        <ele>213</ele>
        <time>2024-07-30T08:18:38Z</time>
      </trkpt>
      <trkpt lat="43.3526" lon="1.21559">
        <ele>213</ele>
        <time>2024-07-30T08:18:39Z</time>
      </trkpt>
      <trkpt lat="43.35266" lon="1.21567">
        <ele>213</ele>
        <time>2024-07-30T08:18:40Z</time>
      </trkpt>
      <trkpt lat="43.35272" lon="1.21575">
        <ele>213.2</ele>
        <time>2024-07-30T08:18:41Z</time>
      </trkpt>
      <trkpt lat="43.35278" lon="1.21582">
        <ele>213.2</ele>
        <time>2024-07-30T08:18:42Z</time>
      </trkpt>
      <trkpt lat="43.35284" lon="1.2159">
        <ele>213.2</ele>
        <time>2024-07-30T08:18:43Z</time>
      </trkpt>
      <trkpt lat="43.3529" lon="1.21598">
        <ele>213.2</ele>
        <time>2024-07-30T08:18:44Z</time>
      </trkpt>
      <trkpt lat="43.35296" lon="1.21606">
        <ele>213.2</ele>
        <time>2024-07-30T08:18:45Z</time>
      </trkpt>
      <trkpt lat="43.35301" lon="1.21613">
        <ele>213.2</ele>
        <time>2024-07-30T08:18:46Z</time>
      </trkpt>
      <trkpt lat="43.35307" lon="1.21621">
        <ele>213.2</ele>
        <time>2024-07-30T08:18:47Z</time>
      </trkpt>
      <trkpt lat="43.35313" lon="1.21628">
        <ele>213.2</ele>
        <time>2024-07-30T08:18:48Z</time>
      </trkpt>
      <trkpt lat="43.35318" lon="1.21636">
        <ele>213.2</ele>
        <time>2024-07-30T08:18:49Z</time>
      </trkpt>
      <trkpt lat="43.35324" lon="1.21643">
        <ele>213.2</ele>
        <time>2024-07-30T08:18:50Z</time>
      </trkpt>
      <trkpt lat="43.35329" lon="1.21651">
        <ele>213.2</ele>
        <time>2024-07-30T08:18:51Z</time>
      </trkpt>
      <trkpt lat="43.35335" lon="1.21658">
        <ele>213.2</ele>
        <time>2024-07-30T08:18:52Z</time>
      </trkpt>
      <trkpt lat="43.35341" lon="1.21666">
        <ele>213.2</ele>
        <time>2024-07-30T08:18:53Z</time>
      </trkpt>
      <trkpt lat="43.35346" lon="1.21673">
        <ele>213</ele>
        <time>2024-07-30T08:18:54Z</time>
      </trkpt>
      <trkpt lat="43.35352" lon="1.21681">
        <ele>213</ele>
        <time>2024-07-30T08:18:55Z</time>
      </trkpt>
      <trkpt lat="43.35357" lon="1.21688">
        <ele>213</ele>
        <time>2024-07-30T08:18:56Z</time>
      </trkpt>
      <trkpt lat="43.35363" lon="1.21696">
        <ele>213</ele>
        <time>2024-07-30T08:18:57Z</time>
      </trkpt>
      <trkpt lat="43.35368" lon="1.21703">
        <ele>213</ele>
        <time>2024-07-30T08:18:58Z</time>
      </trkpt>
      <trkpt lat="43.35374" lon="1.21711">
        <ele>213</ele>
        <time>2024-07-30T08:18:59Z</time>
      </trkpt>
      <trkpt lat="43.3538" lon="1.21719">
        <ele>213</ele>
        <time>2024-07-30T08:19:00Z</time>
      </trkpt>
      <trkpt lat="43.35386" lon="1.21726">
        <ele>213</ele>
        <time>2024-07-30T08:19:01Z</time>
      </trkpt>
      <trkpt lat="43.35391" lon="1.21734">
        <ele>213</ele>
        <time>2024-07-30T08:19:02Z</time>
      </trkpt>
      <trkpt lat="43.35397" lon="1.21741">
        <ele>213</ele>
        <time>2024-07-30T08:19:03Z</time>
      </trkpt>
      <trkpt lat="43.35403" lon="1.21749">
        <ele>213</ele>
        <time>2024-07-30T08:19:04Z</time>
      </trkpt>
      <trkpt lat="43.35409" lon="1.21756">
        <ele>212.8</ele>
        <time>2024-07-30T08:19:05Z</time>
      </trkpt>
      <trkpt lat="43.35414" lon="1.21764">
        <ele>212.8</ele>
        <time>2024-07-30T08:19:06Z</time>
      </trkpt>
      <trkpt lat="43.3542" lon="1.21771">
        <ele>212.8</ele>
        <time>2024-07-30T08:19:07Z</time>
      </trkpt>
      <trkpt lat="43.35427" lon="1.21778">
        <ele>212.8</ele>
        <time>2024-07-30T08:19:08Z</time>
      </trkpt>
      <trkpt lat="43.35433" lon="1.21785">
        <ele>212.8</ele>
        <time>2024-07-30T08:19:09Z</time>
      </trkpt>
      <trkpt lat="43.3544" lon="1.21792">
        <ele>212.8</ele>
        <time>2024-07-30T08:19:10Z</time>
      </trkpt>
      <trkpt lat="43.35447" lon="1.21799">
        <ele>212.6</ele>
        <time>2024-07-30T08:19:11Z</time>
      </trkpt>
      <trkpt lat="43.35454" lon="1.21806">
        <ele>212.6</ele>
        <time>2024-07-30T08:19:12Z</time>
      </trkpt>
      <trkpt lat="43.35461" lon="1.21813">
        <ele>212.6</ele>
        <time>2024-07-30T08:19:13Z</time>
      </trkpt>
      <trkpt lat="43.35468" lon="1.21819">
        <ele>212.6</ele>
        <time>2024-07-30T08:19:14Z</time>
      </trkpt>
      <trkpt lat="43.35475" lon="1.21825">
        <ele>212.6</ele>
        <time>2024-07-30T08:19:15Z</time>
      </trkpt>
      <trkpt lat="43.35481" lon="1.2183">
        <ele>212.4</ele>
        <time>2024-07-30T08:19:16Z</time>
      </trkpt>
      <trkpt lat="43.3549" lon="1.21838">
        <ele>212.4</ele>
        <time>2024-07-30T08:19:17Z</time>
      </trkpt>
      <trkpt lat="43.35498" lon="1.21843">
        <ele>212.4</ele>
        <time>2024-07-30T08:19:18Z</time>
      </trkpt>
      <trkpt lat="43.35505" lon="1.21849">
        <ele>212.4</ele>
        <time>2024-07-30T08:19:19Z</time>
      </trkpt>
      <trkpt lat="43.35512" lon="1.21855">
        <ele>212.4</ele>
        <time>2024-07-30T08:19:20Z</time>
      </trkpt>
      <trkpt lat="43.3552" lon="1.21861">
        <ele>212.4</ele>
        <time>2024-07-30T08:19:21Z</time>
      </trkpt>
      <trkpt lat="43.35527" lon="1.21867">
        <ele>212.4</ele>
        <time>2024-07-30T08:19:22Z</time>
      </trkpt>
      <trkpt lat="43.35535" lon="1.21872">
        <ele>212.4</ele>
        <time>2024-07-30T08:19:23Z</time>
      </trkpt>
      <trkpt lat="43.35542" lon="1.21878">
        <ele>212.4</ele>
        <time>2024-07-30T08:19:24Z</time>
      </trkpt>
      <trkpt lat="43.35549" lon="1.21883">
        <ele>212.4</ele>
        <time>2024-07-30T08:19:25Z</time>
      </trkpt>
      <trkpt lat="43.35557" lon="1.21889">
        <ele>212.4</ele>
        <time>2024-07-30T08:19:26Z</time>
      </trkpt>
      <trkpt lat="43.35564" lon="1.21894">
        <ele>212.4</ele>
        <time>2024-07-30T08:19:27Z</time>
      </trkpt>
      <trkpt lat="43.35571" lon="1.219">
        <ele>212.4</ele>
        <time>2024-07-30T08:19:28Z</time>
      </trkpt>
      <trkpt lat="43.35579" lon="1.21906">
        <ele>212.4</ele>
        <time>2024-07-30T08:19:29Z</time>
      </trkpt>
      <trkpt lat="43.35586" lon="1.21912">
        <ele>212.4</ele>
        <time>2024-07-30T08:19:30Z</time>
      </trkpt>
      <trkpt lat="43.35593" lon="1.21918">
        <ele>212.4</ele>
        <time>2024-07-30T08:19:31Z</time>
      </trkpt>
      <trkpt lat="43.356" lon="1.21924">
        <ele>212.4</ele>
        <time>2024-07-30T08:19:32Z</time>
      </trkpt>
      <trkpt lat="43.35607" lon="1.2193">
        <ele>212.4</ele>
        <time>2024-07-30T08:19:33Z</time>
      </trkpt>
      <trkpt lat="43.35614" lon="1.21937">
        <ele>212.4</ele>
        <time>2024-07-30T08:19:34Z</time>
      </trkpt>
      <trkpt lat="43.35621" lon="1.21943">
        <ele>212.4</ele>
        <time>2024-07-30T08:19:35Z</time>
      </trkpt>
      <trkpt lat="43.35628" lon="1.2195">
        <ele>212.4</ele>
        <time>2024-07-30T08:19:36Z</time>
      </trkpt>
      <trkpt lat="43.35635" lon="1.21957">
        <ele>212.4</ele>
        <time>2024-07-30T08:19:37Z</time>
      </trkpt>
      <trkpt lat="43.35642" lon="1.21963">
        <ele>212.4</ele>
        <time>2024-07-30T08:19:38Z</time>
      </trkpt>
      <trkpt lat="43.35647" lon="1.21968">
        <ele>212.4</ele>
        <time>2024-07-30T08:19:39Z</time>
      </trkpt>
      <trkpt lat="43.35655" lon="1.21976">
        <ele>212.4</ele>
        <time>2024-07-30T08:19:40Z</time>
      </trkpt>
      <trkpt lat="43.35661" lon="1.21982">
        <ele>212.4</ele>
        <time>2024-07-30T08:19:41Z</time>
      </trkpt>
      <trkpt lat="43.35667" lon="1.21989">
        <ele>212.2</ele>
        <time>2024-07-30T08:19:42Z</time>
      </trkpt>
      <trkpt lat="43.35673" lon="1.21996">
        <ele>212.2</ele>
        <time>2024-07-30T08:19:43Z</time>
      </trkpt>
      <trkpt lat="43.35679" lon="1.22002">
        <ele>212.2</ele>
        <time>2024-07-30T08:19:44Z</time>
      </trkpt>
      <trkpt lat="43.35684" lon="1.22008">
        <ele>212.2</ele>
        <time>2024-07-30T08:19:45Z</time>
      </trkpt>
      <trkpt lat="43.35689" lon="1.22015">
        <ele>212.2</ele>
        <time>2024-07-30T08:19:46Z</time>
      </trkpt>
      <trkpt lat="43.35693" lon="1.22022">
        <ele>212.2</ele>
        <time>2024-07-30T08:19:47Z</time>
      </trkpt>
      <trkpt lat="43.35695" lon="1.22027">
        <ele>212</ele>
        <time>2024-07-30T08:19:48Z</time>
      </trkpt>
      <trkpt lat="43.35699" lon="1.22036">
        <ele>212</ele>
        <time>2024-07-30T08:19:49Z</time>
      </trkpt>
      <trkpt lat="43.35702" lon="1.22042">
        <ele>212</ele>
        <time>2024-07-30T08:19:50Z</time>
      </trkpt>
      <trkpt lat="43.35705" lon="1.22048">
        <ele>212</ele>
        <time>2024-07-30T08:19:51Z</time>
      </trkpt>
      <trkpt lat="43.35708" lon="1.22054">
        <ele>212</ele>
        <time>2024-07-30T08:19:52Z</time>
      </trkpt>
      <trkpt lat="43.35711" lon="1.22057">
        <ele>211.8</ele>
        <time>2024-07-30T08:19:53Z</time>
      </trkpt>
      <trkpt lat="43.35714" lon="1.22062">
        <ele>211.8</ele>
        <time>2024-07-30T08:19:54Z</time>
      </trkpt>
      <trkpt lat="43.35717" lon="1.22066">
        <ele>211.6</ele>
        <time>2024-07-30T08:19:55Z</time>
      </trkpt>
      <trkpt lat="43.3572" lon="1.22071">
        <ele>211.6</ele>
        <time>2024-07-30T08:19:56Z</time>
      </trkpt>
      <trkpt lat="43.35723" lon="1.22076">
        <ele>211.6</ele>
        <time>2024-07-30T08:19:57Z</time>
      </trkpt>
      <trkpt lat="43.35725" lon="1.22082">
        <ele>211.6</ele>
        <time>2024-07-30T08:19:58Z</time>
      </trkpt>
      <trkpt lat="43.35729" lon="1.22087">
        <ele>211.6</ele>
        <time>2024-07-30T08:19:59Z</time>
      </trkpt>
      <trkpt lat="43.35733" lon="1.2209">
        <ele>211.6</ele>
        <time>2024-07-30T08:20:00Z</time>
      </trkpt>
      <trkpt lat="43.35739" lon="1.22091">
        <ele>211.6</ele>
        <time>2024-07-30T08:20:01Z</time>
      </trkpt>
      <trkpt lat="43.35744" lon="1.2209">
        <ele>211.6</ele>
        <time>2024-07-30T08:20:02Z</time>
      </trkpt>
      <trkpt lat="43.35749" lon="1.22088">
        <ele>211.6</ele>
        <time>2024-07-30T08:20:03Z</time>
      </trkpt>
      <trkpt lat="43.35755" lon="1.22087">
        <ele>211.6</ele>
        <time>2024-07-30T08:20:04Z</time>
      </trkpt>
      <trkpt lat="43.35761" lon="1.22087">
        <ele>211.6</ele>
        <time>2024-07-30T08:20:05Z</time>
      </trkpt>
      <trkpt lat="43.35766" lon="1.22091">
        <ele>211.6</ele>
        <time>2024-07-30T08:20:06Z</time>
      </trkpt>
      <trkpt lat="43.3577" lon="1.22097">
        <ele>211.4</ele>
        <time>2024-07-30T08:20:07Z</time>
      </trkpt>
      <trkpt lat="43.35774" lon="1.22104">
        <ele>211.4</ele>
        <time>2024-07-30T08:20:08Z</time>
      </trkpt>
      <trkpt lat="43.35778" lon="1.22113">
        <ele>211.4</ele>
        <time>2024-07-30T08:20:09Z</time>
      </trkpt>
      <trkpt lat="43.35782" lon="1.22119">
        <ele>211.4</ele>
        <time>2024-07-30T08:20:10Z</time>
      </trkpt>
      <trkpt lat="43.35786" lon="1.22126">
        <ele>211.4</ele>
        <time>2024-07-30T08:20:11Z</time>
      </trkpt>
      <trkpt lat="43.35791" lon="1.22133">
        <ele>211.4</ele>
        <time>2024-07-30T08:20:12Z</time>
      </trkpt>
      <trkpt lat="43.35797" lon="1.22139">
        <ele>211.4</ele>
        <time>2024-07-30T08:20:13Z</time>
      </trkpt>
      <trkpt lat="43.35803" lon="1.22145">
        <ele>211.4</ele>
        <time>2024-07-30T08:20:14Z</time>
      </trkpt>
      <trkpt lat="43.35809" lon="1.22151">
        <ele>211.4</ele>
        <time>2024-07-30T08:20:15Z</time>
      </trkpt>
      <trkpt lat="43.35816" lon="1.22157">
        <ele>211.4</ele>
        <time>2024-07-30T08:20:16Z</time>
      </trkpt>
      <trkpt lat="43.35822" lon="1.22164">
        <ele>211.4</ele>
        <time>2024-07-30T08:20:17Z</time>
      </trkpt>
      <trkpt lat="43.35829" lon="1.22171">
        <ele>211.4</ele>
        <time>2024-07-30T08:20:18Z</time>
      </trkpt>
      <trkpt lat="43.35836" lon="1.22178">
        <ele>211.4</ele>
        <time>2024-07-30T08:20:19Z</time>
      </trkpt>
      <trkpt lat="43.35843" lon="1.22185">
        <ele>211.4</ele>
        <time>2024-07-30T08:20:20Z</time>
      </trkpt>
      <trkpt lat="43.35851" lon="1.22193">
        <ele>211.4</ele>
        <time>2024-07-30T08:20:21Z</time>
      </trkpt>
      <trkpt lat="43.35857" lon="1.22199">
        <ele>211.2</ele>
        <time>2024-07-30T08:20:22Z</time>
      </trkpt>
      <trkpt lat="43.35864" lon="1.22206">
        <ele>211.2</ele>
        <time>2024-07-30T08:20:23Z</time>
      </trkpt>
      <trkpt lat="43.3587" lon="1.22212">
        <ele>211.2</ele>
        <time>2024-07-30T08:20:24Z</time>
      </trkpt>
      <trkpt lat="43.35876" lon="1.22219">
        <ele>211.2</ele>
        <time>2024-07-30T08:20:25Z</time>
      </trkpt>
      <trkpt lat="43.35882" lon="1.22225">
        <ele>211.2</ele>
        <time>2024-07-30T08:20:26Z</time>
      </trkpt>
      <trkpt lat="43.35888" lon="1.22231">
        <ele>211.2</ele>
        <time>2024-07-30T08:20:27Z</time>
      </trkpt>
      <trkpt lat="43.35893" lon="1.22237">
        <ele>211.2</ele>
        <time>2024-07-30T08:20:28Z</time>
      </trkpt>
      <trkpt lat="43.35899" lon="1.22243">
        <ele>211.2</ele>
        <time>2024-07-30T08:20:29Z</time>
      </trkpt>
      <trkpt lat="43.35905" lon="1.2225">
        <ele>211.2</ele>
        <time>2024-07-30T08:20:30Z</time>
      </trkpt>
      <trkpt lat="43.35911" lon="1.22256">
        <ele>211</ele>
        <time>2024-07-30T08:20:31Z</time>
      </trkpt>
      <trkpt lat="43.35917" lon="1.22262">
        <ele>211</ele>
        <time>2024-07-30T08:20:32Z</time>
      </trkpt>
      <trkpt lat="43.35923" lon="1.22268">
        <ele>211</ele>
        <time>2024-07-30T08:20:33Z</time>
      </trkpt>
      <trkpt lat="43.35928" lon="1.22274">
        <ele>211</ele>
        <time>2024-07-30T08:20:34Z</time>
      </trkpt>
      <trkpt lat="43.35934" lon="1.2228">
        <ele>211</ele>
        <time>2024-07-30T08:20:35Z</time>
      </trkpt>
      <trkpt lat="43.3594" lon="1.22286">
        <ele>211</ele>
        <time>2024-07-30T08:20:36Z</time>
      </trkpt>
      <trkpt lat="43.35946" lon="1.22292">
        <ele>211</ele>
        <time>2024-07-30T08:20:37Z</time>
      </trkpt>
      <trkpt lat="43.35952" lon="1.22299">
        <ele>211</ele>
        <time>2024-07-30T08:20:38Z</time>
      </trkpt>
      <trkpt lat="43.35958" lon="1.22306">
        <ele>210.8</ele>
        <time>2024-07-30T08:20:39Z</time>
      </trkpt>
      <trkpt lat="43.35964" lon="1.22313">
        <ele>210.8</ele>
        <time>2024-07-30T08:20:40Z</time>
      </trkpt>
      <trkpt lat="43.35971" lon="1.2232">
        <ele>210.8</ele>
        <time>2024-07-30T08:20:41Z</time>
      </trkpt>
      <trkpt lat="43.35977" lon="1.22327">
        <ele>210.6</ele>
        <time>2024-07-30T08:20:42Z</time>
      </trkpt>
      <trkpt lat="43.35983" lon="1.22335">
        <ele>210.6</ele>
        <time>2024-07-30T08:20:43Z</time>
      </trkpt>
      <trkpt lat="43.3599" lon="1.22342">
        <ele>210.6</ele>
        <time>2024-07-30T08:20:44Z</time>
      </trkpt>
      <trkpt lat="43.35996" lon="1.2235">
        <ele>210.6</ele>
        <time>2024-07-30T08:20:45Z</time>
      </trkpt>
      <trkpt lat="43.36002" lon="1.22357">
        <ele>210.4</ele>
        <time>2024-07-30T08:20:46Z</time>
      </trkpt>
      <trkpt lat="43.3601" lon="1.22366">
        <ele>210.4</ele>
        <time>2024-07-30T08:20:47Z</time>
      </trkpt>
      <trkpt lat="43.36016" lon="1.22374">
        <ele>210.2</ele>
        <time>2024-07-30T08:20:48Z</time>
      </trkpt>
      <trkpt lat="43.36022" lon="1.22381">
        <ele>210.2</ele>
        <time>2024-07-30T08:20:49Z</time>
      </trkpt>
      <trkpt lat="43.36028" lon="1.22389">
        <ele>210.2</ele>
        <time>2024-07-30T08:20:50Z</time>
      </trkpt>
      <trkpt lat="43.36034" lon="1.22397">
        <ele>210.2</ele>
        <time>2024-07-30T08:20:51Z</time>
      </trkpt>
      <trkpt lat="43.3604" lon="1.22404">
        <ele>210.2</ele>
        <time>2024-07-30T08:20:52Z</time>
      </trkpt>
      <trkpt lat="43.36046" lon="1.22412">
        <ele>210.2</ele>
        <time>2024-07-30T08:20:53Z</time>
      </trkpt>
      <trkpt lat="43.36052" lon="1.2242">
        <ele>210.2</ele>
        <time>2024-07-30T08:20:54Z</time>
      </trkpt>
      <trkpt lat="43.36058" lon="1.22427">
        <ele>210.2</ele>
        <time>2024-07-30T08:20:55Z</time>
      </trkpt>
      <trkpt lat="43.36064" lon="1.22435">
        <ele>210</ele>
        <time>2024-07-30T08:20:56Z</time>
      </trkpt>
      <trkpt lat="43.3607" lon="1.22442">
        <ele>210.2</ele>
        <time>2024-07-30T08:20:57Z</time>
      </trkpt>
      <trkpt lat="43.36075" lon="1.22448">
        <ele>210.2</ele>
        <time>2024-07-30T08:20:58Z</time>
      </trkpt>
      <trkpt lat="43.36081" lon="1.22455">
        <ele>210.2</ele>
        <time>2024-07-30T08:20:59Z</time>
      </trkpt>
      <trkpt lat="43.36087" lon="1.22463">
        <ele>210.2</ele>
        <time>2024-07-30T08:21:00Z</time>
      </trkpt>
      <trkpt lat="43.36094" lon="1.22471">
        <ele>210.2</ele>
        <time>2024-07-30T08:21:01Z</time>
      </trkpt>
      <trkpt lat="43.36098" lon="1.22477">
        <ele>210.2</ele>
        <time>2024-07-30T08:21:02Z</time>
      </trkpt>
      <trkpt lat="43.36104" lon="1.22484">
        <ele>210</ele>
        <time>2024-07-30T08:21:03Z</time>
      </trkpt>
      <trkpt lat="43.3611" lon="1.22492">
        <ele>210</ele>
        <time>2024-07-30T08:21:04Z</time>
      </trkpt>
      <trkpt lat="43.36116" lon="1.22499">
        <ele>210</ele>
        <time>2024-07-30T08:21:05Z</time>
      </trkpt>
      <trkpt lat="43.36122" lon="1.22506">
        <ele>210</ele>
        <time>2024-07-30T08:21:06Z</time>
      </trkpt>
      <trkpt lat="43.36127" lon="1.22513">
        <ele>210</ele>
        <time>2024-07-30T08:21:07Z</time>
      </trkpt>
      <trkpt lat="43.36133" lon="1.22521">
        <ele>210</ele>
        <time>2024-07-30T08:21:08Z</time>
      </trkpt>
      <trkpt lat="43.36139" lon="1.22528">
        <ele>210</ele>
        <time>2024-07-30T08:21:09Z</time>
      </trkpt>
      <trkpt lat="43.36145" lon="1.22535">
        <ele>210</ele>
        <time>2024-07-30T08:21:10Z</time>
      </trkpt>
      <trkpt lat="43.3615" lon="1.22542">
        <ele>210</ele>
        <time>2024-07-30T08:21:11Z</time>
      </trkpt>
      <trkpt lat="43.36156" lon="1.22549">
        <ele>209.8</ele>
        <time>2024-07-30T08:21:12Z</time>
      </trkpt>
      <trkpt lat="43.36162" lon="1.22556">
        <ele>209.8</ele>
        <time>2024-07-30T08:21:13Z</time>
      </trkpt>
      <trkpt lat="43.36168" lon="1.22564">
        <ele>209.8</ele>
        <time>2024-07-30T08:21:14Z</time>
      </trkpt>
      <trkpt lat="43.36173" lon="1.22571">
        <ele>209.8</ele>
        <time>2024-07-30T08:21:15Z</time>
      </trkpt>
      <trkpt lat="43.36179" lon="1.22578">
        <ele>209.8</ele>
        <time>2024-07-30T08:21:16Z</time>
      </trkpt>
      <trkpt lat="43.36184" lon="1.22584">
        <ele>209.8</ele>
        <time>2024-07-30T08:21:17Z</time>
      </trkpt>
      <trkpt lat="43.3619" lon="1.22591">
        <ele>209.8</ele>
        <time>2024-07-30T08:21:18Z</time>
      </trkpt>
      <trkpt lat="43.36195" lon="1.22598">
        <ele>209.8</ele>
        <time>2024-07-30T08:21:19Z</time>
      </trkpt>
      <trkpt lat="43.36201" lon="1.22606">
        <ele>209.6</ele>
        <time>2024-07-30T08:21:20Z</time>
      </trkpt>
      <trkpt lat="43.36207" lon="1.22613">
        <ele>209.6</ele>
        <time>2024-07-30T08:21:21Z</time>
      </trkpt>
      <trkpt lat="43.36213" lon="1.2262">
        <ele>209.6</ele>
        <time>2024-07-30T08:21:22Z</time>
      </trkpt>
      <trkpt lat="43.36219" lon="1.22627">
        <ele>209.6</ele>
        <time>2024-07-30T08:21:23Z</time>
      </trkpt>
      <trkpt lat="43.36224" lon="1.22635">
        <ele>209.6</ele>
        <time>2024-07-30T08:21:24Z</time>
      </trkpt>
      <trkpt lat="43.3623" lon="1.22642">
        <ele>209.6</ele>
        <time>2024-07-30T08:21:25Z</time>
      </trkpt>
      <trkpt lat="43.36236" lon="1.22648">
        <ele>209.6</ele>
        <time>2024-07-30T08:21:26Z</time>
      </trkpt>
      <trkpt lat="43.36241" lon="1.22655">
        <ele>209.6</ele>
        <time>2024-07-30T08:21:27Z</time>
      </trkpt>
      <trkpt lat="43.36247" lon="1.22662">
        <ele>209.6</ele>
        <time>2024-07-30T08:21:28Z</time>
      </trkpt>
      <trkpt lat="43.36253" lon="1.22669">
        <ele>209.6</ele>
        <time>2024-07-30T08:21:29Z</time>
      </trkpt>
      <trkpt lat="43.36259" lon="1.22676">
        <ele>209.6</ele>
        <time>2024-07-30T08:21:30Z</time>
      </trkpt>
      <trkpt lat="43.36265" lon="1.22683">
        <ele>209.6</ele>
        <time>2024-07-30T08:21:31Z</time>
      </trkpt>
      <trkpt lat="43.3627" lon="1.2269">
        <ele>209.4</ele>
        <time>2024-07-30T08:21:32Z</time>
      </trkpt>
      <trkpt lat="43.36276" lon="1.22697">
        <ele>209.4</ele>
        <time>2024-07-30T08:21:33Z</time>
      </trkpt>
      <trkpt lat="43.36282" lon="1.22704">
        <ele>209.2</ele>
        <time>2024-07-30T08:21:34Z</time>
      </trkpt>
      <trkpt lat="43.36288" lon="1.22711">
        <ele>209.2</ele>
        <time>2024-07-30T08:21:35Z</time>
      </trkpt>
      <trkpt lat="43.36294" lon="1.22717">
        <ele>209.2</ele>
        <time>2024-07-30T08:21:36Z</time>
      </trkpt>
      <trkpt lat="43.363" lon="1.22724">
        <ele>209.2</ele>
        <time>2024-07-30T08:21:37Z</time>
      </trkpt>
      <trkpt lat="43.36306" lon="1.22731">
        <ele>209.2</ele>
        <time>2024-07-30T08:21:38Z</time>
      </trkpt>
      <trkpt lat="43.36313" lon="1.22737">
        <ele>209.2</ele>
        <time>2024-07-30T08:21:39Z</time>
      </trkpt>
      <trkpt lat="43.36319" lon="1.22744">
        <ele>209.2</ele>
        <time>2024-07-30T08:21:40Z</time>
      </trkpt>
      <trkpt lat="43.36325" lon="1.22751">
        <ele>209.2</ele>
        <time>2024-07-30T08:21:41Z</time>
      </trkpt>
      <trkpt lat="43.36332" lon="1.22758">
        <ele>209.2</ele>
        <time>2024-07-30T08:21:42Z</time>
      </trkpt>
      <trkpt lat="43.36338" lon="1.22765">
        <ele>209.2</ele>
        <time>2024-07-30T08:21:43Z</time>
      </trkpt>
      <trkpt lat="43.36345" lon="1.22771">
        <ele>209.2</ele>
        <time>2024-07-30T08:21:44Z</time>
      </trkpt>
      <trkpt lat="43.36352" lon="1.22778">
        <ele>209.2</ele>
        <time>2024-07-30T08:21:45Z</time>
      </trkpt>
      <trkpt lat="43.36358" lon="1.22784">
        <ele>209.2</ele>
        <time>2024-07-30T08:21:46Z</time>
      </trkpt>
      <trkpt lat="43.36365" lon="1.22791">
        <ele>209.2</ele>
        <time>2024-07-30T08:21:47Z</time>
      </trkpt>
      <trkpt lat="43.36371" lon="1.22797">
        <ele>209.2</ele>
        <time>2024-07-30T08:21:48Z</time>
      </trkpt>
      <trkpt lat="43.36377" lon="1.22803">
        <ele>209.2</ele>
        <time>2024-07-30T08:21:49Z</time>
      </trkpt>
      <trkpt lat="43.36384" lon="1.22809">
        <ele>209</ele>
        <time>2024-07-30T08:21:50Z</time>
      </trkpt>
      <trkpt lat="43.3639" lon="1.22815">
        <ele>209</ele>
        <time>2024-07-30T08:21:51Z</time>
      </trkpt>
      <trkpt lat="43.36396" lon="1.22821">
        <ele>209</ele>
        <time>2024-07-30T08:21:52Z</time>
      </trkpt>
      <trkpt lat="43.36402" lon="1.22827">
        <ele>209</ele>
        <time>2024-07-30T08:21:53Z</time>
      </trkpt>
      <trkpt lat="43.36408" lon="1.22833">
        <ele>209</ele>
        <time>2024-07-30T08:21:54Z</time>
      </trkpt>
      <trkpt lat="43.36415" lon="1.22839">
        <ele>209</ele>
        <time>2024-07-30T08:21:55Z</time>
      </trkpt>
      <trkpt lat="43.36421" lon="1.22846">
        <ele>209</ele>
        <time>2024-07-30T08:21:56Z</time>
      </trkpt>
      <trkpt lat="43.36427" lon="1.22853">
        <ele>208.8</ele>
        <time>2024-07-30T08:21:57Z</time>
      </trkpt>
      <trkpt lat="43.36432" lon="1.2286">
        <ele>208.8</ele>
        <time>2024-07-30T08:21:58Z</time>
      </trkpt>
      <trkpt lat="43.36438" lon="1.22867">
        <ele>208.8</ele>
        <time>2024-07-30T08:21:59Z</time>
      </trkpt>
      <trkpt lat="43.36444" lon="1.22874">
        <ele>208.8</ele>
        <time>2024-07-30T08:22:00Z</time>
      </trkpt>
      <trkpt lat="43.36449" lon="1.22882">
        <ele>208.8</ele>
        <time>2024-07-30T08:22:01Z</time>
      </trkpt>
      <trkpt lat="43.36455" lon="1.22889">
        <ele>208.6</ele>
        <time>2024-07-30T08:22:02Z</time>
      </trkpt>
      <trkpt lat="43.36459" lon="1.22896">
        <ele>208.6</ele>
        <time>2024-07-30T08:22:03Z</time>
      </trkpt>
      <trkpt lat="43.36466" lon="1.22906">
        <ele>208.6</ele>
        <time>2024-07-30T08:22:04Z</time>
      </trkpt>
      <trkpt lat="43.36472" lon="1.22914">
        <ele>208.6</ele>
        <time>2024-07-30T08:22:05Z</time>
      </trkpt>
      <trkpt lat="43.36477" lon="1.22921">
        <ele>208.4</ele>
        <time>2024-07-30T08:22:06Z</time>
      </trkpt>
      <trkpt lat="43.36482" lon="1.22928">
        <ele>208.4</ele>
        <time>2024-07-30T08:22:07Z</time>
      </trkpt>
      <trkpt lat="43.36488" lon="1.22936">
        <ele>208.4</ele>
        <time>2024-07-30T08:22:08Z</time>
      </trkpt>
      <trkpt lat="43.36493" lon="1.22943">
        <ele>208.4</ele>
        <time>2024-07-30T08:22:09Z</time>
      </trkpt>
      <trkpt lat="43.36499" lon="1.22951">
        <ele>208.4</ele>
        <time>2024-07-30T08:22:10Z</time>
      </trkpt>
      <trkpt lat="43.36504" lon="1.22958">
        <ele>208.4</ele>
        <time>2024-07-30T08:22:11Z</time>
      </trkpt>
      <trkpt lat="43.36509" lon="1.22963">
        <ele>208.2</ele>
        <time>2024-07-30T08:22:12Z</time>
      </trkpt>
      <trkpt lat="43.36516" lon="1.22972">
        <ele>208.2</ele>
        <time>2024-07-30T08:22:13Z</time>
      </trkpt>
      <trkpt lat="43.36521" lon="1.22979">
        <ele>208.2</ele>
        <time>2024-07-30T08:22:14Z</time>
      </trkpt>
      <trkpt lat="43.36527" lon="1.22986">
        <ele>208.2</ele>
        <time>2024-07-30T08:22:15Z</time>
      </trkpt>
      <trkpt lat="43.36533" lon="1.22993">
        <ele>208.2</ele>
        <time>2024-07-30T08:22:16Z</time>
      </trkpt>
      <trkpt lat="43.36539" lon="1.23">
        <ele>208.2</ele>
        <time>2024-07-30T08:22:17Z</time>
      </trkpt>
      <trkpt lat="43.36545" lon="1.23007">
        <ele>208.2</ele>
        <time>2024-07-30T08:22:18Z</time>
      </trkpt>
      <trkpt lat="43.36551" lon="1.23015">
        <ele>208.2</ele>
        <time>2024-07-30T08:22:19Z</time>
      </trkpt>
      <trkpt lat="43.36557" lon="1.23021">
        <ele>208.2</ele>
        <time>2024-07-30T08:22:20Z</time>
      </trkpt>
      <trkpt lat="43.36563" lon="1.23028">
        <ele>208.2</ele>
        <time>2024-07-30T08:22:21Z</time>
      </trkpt>
      <trkpt lat="43.36569" lon="1.23035">
        <ele>208</ele>
        <time>2024-07-30T08:22:22Z</time>
      </trkpt>
      <trkpt lat="43.36575" lon="1.23042">
        <ele>208</ele>
        <time>2024-07-30T08:22:23Z</time>
      </trkpt>
      <trkpt lat="43.3658" lon="1.23049">
        <ele>208</ele>
        <time>2024-07-30T08:22:24Z</time>
      </trkpt>
      <trkpt lat="43.36587" lon="1.23055">
        <ele>208</ele>
        <time>2024-07-30T08:22:25Z</time>
      </trkpt>
      <trkpt lat="43.36593" lon="1.23062">
        <ele>207.8</ele>
        <time>2024-07-30T08:22:26Z</time>
      </trkpt>
      <trkpt lat="43.36599" lon="1.23069">
        <ele>207.8</ele>
        <time>2024-07-30T08:22:27Z</time>
      </trkpt>
      <trkpt lat="43.36606" lon="1.23076">
        <ele>207.8</ele>
        <time>2024-07-30T08:22:28Z</time>
      </trkpt>
      <trkpt lat="43.36613" lon="1.23083">
        <ele>207.8</ele>
        <time>2024-07-30T08:22:29Z</time>
      </trkpt>
      <trkpt lat="43.3662" lon="1.2309">
        <ele>207.8</ele>
        <time>2024-07-30T08:22:30Z</time>
      </trkpt>
      <trkpt lat="43.36627" lon="1.23097">
        <ele>207.6</ele>
        <time>2024-07-30T08:22:31Z</time>
      </trkpt>
      <trkpt lat="43.36634" lon="1.23105">
        <ele>207.6</ele>
        <time>2024-07-30T08:22:32Z</time>
      </trkpt>
      <trkpt lat="43.3664" lon="1.23112">
        <ele>207.6</ele>
        <time>2024-07-30T08:22:33Z</time>
      </trkpt>
      <trkpt lat="43.36647" lon="1.23119">
        <ele>207.6</ele>
        <time>2024-07-30T08:22:34Z</time>
      </trkpt>
      <trkpt lat="43.36653" lon="1.23125">
        <ele>207.6</ele>
        <time>2024-07-30T08:22:35Z</time>
      </trkpt>
      <trkpt lat="43.3666" lon="1.23132">
        <ele>207.2</ele>
        <time>2024-07-30T08:22:36Z</time>
      </trkpt>
      <trkpt lat="43.36666" lon="1.23139">
        <ele>207.4</ele>
        <time>2024-07-30T08:22:37Z</time>
      </trkpt>
      <trkpt lat="43.36672" lon="1.23146">
        <ele>207.2</ele>
        <time>2024-07-30T08:22:38Z</time>
      </trkpt>
      <trkpt lat="43.36678" lon="1.23154">
        <ele>207.4</ele>
        <time>2024-07-30T08:22:39Z</time>
      </trkpt>
      <trkpt lat="43.36684" lon="1.23161">
        <ele>207.4</ele>
        <time>2024-07-30T08:22:40Z</time>
      </trkpt>
      <trkpt lat="43.36691" lon="1.23169">
        <ele>207.2</ele>
        <time>2024-07-30T08:22:41Z</time>
      </trkpt>
      <trkpt lat="43.36697" lon="1.23177">
        <ele>207.4</ele>
        <time>2024-07-30T08:22:42Z</time>
      </trkpt>
      <trkpt lat="43.36703" lon="1.23185">
        <ele>207.2</ele>
        <time>2024-07-30T08:22:43Z</time>
      </trkpt>
      <trkpt lat="43.36709" lon="1.23192">
        <ele>207.2</ele>
        <time>2024-07-30T08:22:44Z</time>
      </trkpt>
      <trkpt lat="43.36715" lon="1.232">
        <ele>207.2</ele>
        <time>2024-07-30T08:22:45Z</time>
      </trkpt>
      <trkpt lat="43.36721" lon="1.23208">
        <ele>207.2</ele>
        <time>2024-07-30T08:22:46Z</time>
      </trkpt>
      <trkpt lat="43.36727" lon="1.23217">
        <ele>207</ele>
        <time>2024-07-30T08:22:47Z</time>
      </trkpt>
      <trkpt lat="43.36732" lon="1.23224">
        <ele>206.8</ele>
        <time>2024-07-30T08:22:48Z</time>
      </trkpt>
      <trkpt lat="43.36739" lon="1.23234">
        <ele>206.8</ele>
        <time>2024-07-30T08:22:49Z</time>
      </trkpt>
      <trkpt lat="43.36744" lon="1.23243">
        <ele>206.8</ele>
        <time>2024-07-30T08:22:50Z</time>
      </trkpt>
      <trkpt lat="43.3675" lon="1.23252">
        <ele>206.8</ele>
        <time>2024-07-30T08:22:51Z</time>
      </trkpt>
      <trkpt lat="43.36755" lon="1.23261">
        <ele>206.6</ele>
        <time>2024-07-30T08:22:52Z</time>
      </trkpt>
      <trkpt lat="43.3676" lon="1.2327">
        <ele>206.6</ele>
        <time>2024-07-30T08:22:53Z</time>
      </trkpt>
      <trkpt lat="43.36764" lon="1.2328">
        <ele>206.6</ele>
        <time>2024-07-30T08:22:54Z</time>
      </trkpt>
      <trkpt lat="43.36768" lon="1.23288">
        <ele>206.6</ele>
        <time>2024-07-30T08:22:55Z</time>
      </trkpt>
      <trkpt lat="43.36772" lon="1.23298">
        <ele>206.6</ele>
        <time>2024-07-30T08:22:56Z</time>
      </trkpt>
      <trkpt lat="43.36776" lon="1.23308">
        <ele>206.6</ele>
        <time>2024-07-30T08:22:57Z</time>
      </trkpt>
      <trkpt lat="43.3678" lon="1.23318">
        <ele>206.6</ele>
        <time>2024-07-30T08:22:58Z</time>
      </trkpt>
      <trkpt lat="43.36783" lon="1.23329">
        <ele>206.6</ele>
        <time>2024-07-30T08:22:59Z</time>
      </trkpt>
      <trkpt lat="43.36786" lon="1.2334">
        <ele>206.8</ele>
        <time>2024-07-30T08:23:00Z</time>
      </trkpt>
      <trkpt lat="43.3679" lon="1.2335">
        <ele>206.6</ele>
        <time>2024-07-30T08:23:01Z</time>
      </trkpt>
      <trkpt lat="43.36793" lon="1.23361">
        <ele>206.6</ele>
        <time>2024-07-30T08:23:02Z</time>
      </trkpt>
      <trkpt lat="43.36796" lon="1.23371">
        <ele>206.8</ele>
        <time>2024-07-30T08:23:03Z</time>
      </trkpt>
      <trkpt lat="43.368" lon="1.23381">
        <ele>206.8</ele>
        <time>2024-07-30T08:23:04Z</time>
      </trkpt>
      <trkpt lat="43.36804" lon="1.23393">
        <ele>206.6</ele>
        <time>2024-07-30T08:23:05Z</time>
      </trkpt>
      <trkpt lat="43.36808" lon="1.23403">
        <ele>206.8</ele>
        <time>2024-07-30T08:23:06Z</time>
      </trkpt>
      <trkpt lat="43.36812" lon="1.23412">
        <ele>206.8</ele>
        <time>2024-07-30T08:23:07Z</time>
      </trkpt>
      <trkpt lat="43.36816" lon="1.23422">
        <ele>206.8</ele>
        <time>2024-07-30T08:23:08Z</time>
      </trkpt>
      <trkpt lat="43.3682" lon="1.23431">
        <ele>206.8</ele>
        <time>2024-07-30T08:23:09Z</time>
      </trkpt>
      <trkpt lat="43.36824" lon="1.23441">
        <ele>206.8</ele>
        <time>2024-07-30T08:23:10Z</time>
      </trkpt>
      <trkpt lat="43.36829" lon="1.2345">
        <ele>206.8</ele>
        <time>2024-07-30T08:23:11Z</time>
      </trkpt>
      <trkpt lat="43.36834" lon="1.23459">
        <ele>206.8</ele>
        <time>2024-07-30T08:23:12Z</time>
      </trkpt>
      <trkpt lat="43.36839" lon="1.23467">
        <ele>206.8</ele>
        <time>2024-07-30T08:23:13Z</time>
      </trkpt>
      <trkpt lat="43.36844" lon="1.23476">
        <ele>206.6</ele>
        <time>2024-07-30T08:23:14Z</time>
      </trkpt>
      <trkpt lat="43.36849" lon="1.23484">
        <ele>206.6</ele>
        <time>2024-07-30T08:23:15Z</time>
      </trkpt>
      <trkpt lat="43.36854" lon="1.23493">
        <ele>206.6</ele>
        <time>2024-07-30T08:23:16Z</time>
      </trkpt>
      <trkpt lat="43.3686" lon="1.23501">
        <ele>206.6</ele>
        <time>2024-07-30T08:23:17Z</time>
      </trkpt>
      <trkpt lat="43.36864" lon="1.23508">
        <ele>206.4</ele>
        <time>2024-07-30T08:23:18Z</time>
      </trkpt>
      <trkpt lat="43.36871" lon="1.23518">
        <ele>206.4</ele>
        <time>2024-07-30T08:23:19Z</time>
      </trkpt>
      <trkpt lat="43.36877" lon="1.23526">
        <ele>206.4</ele>
        <time>2024-07-30T08:23:20Z</time>
      </trkpt>
      <trkpt lat="43.36882" lon="1.23535">
        <ele>206.4</ele>
        <time>2024-07-30T08:23:21Z</time>
      </trkpt>
      <trkpt lat="43.36888" lon="1.23543">
        <ele>206.4</ele>
        <time>2024-07-30T08:23:22Z</time>
      </trkpt>
      <trkpt lat="43.36894" lon="1.23552">
        <ele>206.2</ele>
        <time>2024-07-30T08:23:23Z</time>
      </trkpt>
      <trkpt lat="43.369" lon="1.2356">
        <ele>206.2</ele>
        <time>2024-07-30T08:23:24Z</time>
      </trkpt>
      <trkpt lat="43.36905" lon="1.23568">
        <ele>206.2</ele>
        <time>2024-07-30T08:23:25Z</time>
      </trkpt>
      <trkpt lat="43.36911" lon="1.23577">
        <ele>206.2</ele>
        <time>2024-07-30T08:23:26Z</time>
      </trkpt>
      <trkpt lat="43.36916" lon="1.23585">
        <ele>206.2</ele>
        <time>2024-07-30T08:23:27Z</time>
      </trkpt>
      <trkpt lat="43.36921" lon="1.23593">
        <ele>206</ele>
        <time>2024-07-30T08:23:28Z</time>
      </trkpt>
      <trkpt lat="43.36927" lon="1.23601">
        <ele>206</ele>
        <time>2024-07-30T08:23:29Z</time>
      </trkpt>
      <trkpt lat="43.36932" lon="1.23609">
        <ele>206</ele>
        <time>2024-07-30T08:23:30Z</time>
      </trkpt>
      <trkpt lat="43.36937" lon="1.23616">
        <ele>205.8</ele>
        <time>2024-07-30T08:23:31Z</time>
      </trkpt>
      <trkpt lat="43.36943" lon="1.23625">
        <ele>205.8</ele>
        <time>2024-07-30T08:23:32Z</time>
      </trkpt>
      <trkpt lat="43.36949" lon="1.23635">
        <ele>205.8</ele>
        <time>2024-07-30T08:23:33Z</time>
      </trkpt>
      <trkpt lat="43.36955" lon="1.23643">
        <ele>205.8</ele>
        <time>2024-07-30T08:23:34Z</time>
      </trkpt>
      <trkpt lat="43.36961" lon="1.23652">
        <ele>205.8</ele>
        <time>2024-07-30T08:23:35Z</time>
      </trkpt>
      <trkpt lat="43.36967" lon="1.2366">
        <ele>205.8</ele>
        <time>2024-07-30T08:23:36Z</time>
      </trkpt>
      <trkpt lat="43.36973" lon="1.23668">
        <ele>205.8</ele>
        <time>2024-07-30T08:23:37Z</time>
      </trkpt>
      <trkpt lat="43.36979" lon="1.23676">
        <ele>205.6</ele>
        <time>2024-07-30T08:23:38Z</time>
      </trkpt>
      <trkpt lat="43.36985" lon="1.23684">
        <ele>205.6</ele>
        <time>2024-07-30T08:23:39Z</time>
      </trkpt>
      <trkpt lat="43.36991" lon="1.23692">
        <ele>205.6</ele>
        <time>2024-07-30T08:23:40Z</time>
      </trkpt>
      <trkpt lat="43.36998" lon="1.23699">
        <ele>205.6</ele>
        <time>2024-07-30T08:23:41Z</time>
      </trkpt>
      <trkpt lat="43.37004" lon="1.23707">
        <ele>205.6</ele>
        <time>2024-07-30T08:23:42Z</time>
      </trkpt>
      <trkpt lat="43.37011" lon="1.23714">
        <ele>205.6</ele>
        <time>2024-07-30T08:23:43Z</time>
      </trkpt>
      <trkpt lat="43.37017" lon="1.23721">
        <ele>205.6</ele>
        <time>2024-07-30T08:23:44Z</time>
      </trkpt>
      <trkpt lat="43.37023" lon="1.23729">
        <ele>205.6</ele>
        <time>2024-07-30T08:23:45Z</time>
      </trkpt>
      <trkpt lat="43.3703" lon="1.23736">
        <ele>205.6</ele>
        <time>2024-07-30T08:23:46Z</time>
      </trkpt>
      <trkpt lat="43.37037" lon="1.23744">
        <ele>205.6</ele>
        <time>2024-07-30T08:23:47Z</time>
      </trkpt>
      <trkpt lat="43.37043" lon="1.23751">
        <ele>205.6</ele>
        <time>2024-07-30T08:23:48Z</time>
      </trkpt>
      <trkpt lat="43.3705" lon="1.23759">
        <ele>205.8</ele>
        <time>2024-07-30T08:23:49Z</time>
      </trkpt>
      <trkpt lat="43.37055" lon="1.23765">
        <ele>205.6</ele>
        <time>2024-07-30T08:23:50Z</time>
      </trkpt>
      <trkpt lat="43.37061" lon="1.23772">
        <ele>205.6</ele>
        <time>2024-07-30T08:23:51Z</time>
      </trkpt>
      <trkpt lat="43.37069" lon="1.2378">
        <ele>205.4</ele>
        <time>2024-07-30T08:23:52Z</time>
      </trkpt>
      <trkpt lat="43.37076" lon="1.23787">
        <ele>205.4</ele>
        <time>2024-07-30T08:23:53Z</time>
      </trkpt>
      <trkpt lat="43.37083" lon="1.23794">
        <ele>205.4</ele>
        <time>2024-07-30T08:23:54Z</time>
      </trkpt>
      <trkpt lat="43.3709" lon="1.23801">
        <ele>205.4</ele>
        <time>2024-07-30T08:23:55Z</time>
      </trkpt>
      <trkpt lat="43.37096" lon="1.23807">
        <ele>205.2</ele>
        <time>2024-07-30T08:23:56Z</time>
      </trkpt>
      <trkpt lat="43.37103" lon="1.23814">
        <ele>205.2</ele>
        <time>2024-07-30T08:23:57Z</time>
      </trkpt>
      <trkpt lat="43.3711" lon="1.2382">
        <ele>205.2</ele>
        <time>2024-07-30T08:23:58Z</time>
      </trkpt>
      <trkpt lat="43.37116" lon="1.23826">
        <ele>205.2</ele>
        <time>2024-07-30T08:23:59Z</time>
      </trkpt>
      <trkpt lat="43.37123" lon="1.23833">
        <ele>205.2</ele>
        <time>2024-07-30T08:24:00Z</time>
      </trkpt>
      <trkpt lat="43.3713" lon="1.23839">
        <ele>205.2</ele>
        <time>2024-07-30T08:24:01Z</time>
      </trkpt>
      <trkpt lat="43.37137" lon="1.23846">
        <ele>205.2</ele>
        <time>2024-07-30T08:24:02Z</time>
      </trkpt>
      <trkpt lat="43.37144" lon="1.23852">
        <ele>205.2</ele>
        <time>2024-07-30T08:24:03Z</time>
      </trkpt>
      <trkpt lat="43.37149" lon="1.23857">
        <ele>205.2</ele>
        <time>2024-07-30T08:24:04Z</time>
      </trkpt>
      <trkpt lat="43.37158" lon="1.23865">
        <ele>205.2</ele>
        <time>2024-07-30T08:24:05Z</time>
      </trkpt>
      <trkpt lat="43.37165" lon="1.23871">
        <ele>205.2</ele>
        <time>2024-07-30T08:24:06Z</time>
      </trkpt>
      <trkpt lat="43.37172" lon="1.23877">
        <ele>205.2</ele>
        <time>2024-07-30T08:24:07Z</time>
      </trkpt>
      <trkpt lat="43.37179" lon="1.23884">
        <ele>205.2</ele>
        <time>2024-07-30T08:24:08Z</time>
      </trkpt>
      <trkpt lat="43.37186" lon="1.2389">
        <ele>205.2</ele>
        <time>2024-07-30T08:24:09Z</time>
      </trkpt>
      <trkpt lat="43.37193" lon="1.23896">
        <ele>205.2</ele>
        <time>2024-07-30T08:24:10Z</time>
      </trkpt>
      <trkpt lat="43.372" lon="1.23902">
        <ele>205.2</ele>
        <time>2024-07-30T08:24:11Z</time>
      </trkpt>
      <trkpt lat="43.37207" lon="1.23908">
        <ele>205.2</ele>
        <time>2024-07-30T08:24:12Z</time>
      </trkpt>
      <trkpt lat="43.37215" lon="1.23915">
        <ele>205.2</ele>
        <time>2024-07-30T08:24:13Z</time>
      </trkpt>
      <trkpt lat="43.37222" lon="1.23921">
        <ele>205</ele>
        <time>2024-07-30T08:24:14Z</time>
      </trkpt>
      <trkpt lat="43.3723" lon="1.23927">
        <ele>205</ele>
        <time>2024-07-30T08:24:15Z</time>
      </trkpt>
      <trkpt lat="43.37238" lon="1.23934">
        <ele>205</ele>
        <time>2024-07-30T08:24:16Z</time>
      </trkpt>
      <trkpt lat="43.37246" lon="1.2394">
        <ele>205</ele>
        <time>2024-07-30T08:24:17Z</time>
      </trkpt>
      <trkpt lat="43.37253" lon="1.23946">
        <ele>205</ele>
        <time>2024-07-30T08:24:18Z</time>
      </trkpt>
      <trkpt lat="43.37261" lon="1.23951">
        <ele>205</ele>
        <time>2024-07-30T08:24:19Z</time>
      </trkpt>
      <trkpt lat="43.37269" lon="1.23956">
        <ele>205</ele>
        <time>2024-07-30T08:24:20Z</time>
      </trkpt>
      <trkpt lat="43.37277" lon="1.23961">
        <ele>205</ele>
        <time>2024-07-30T08:24:21Z</time>
      </trkpt>
      <trkpt lat="43.37285" lon="1.23967">
        <ele>205</ele>
        <time>2024-07-30T08:24:22Z</time>
      </trkpt>
      <trkpt lat="43.37293" lon="1.23972">
        <ele>205</ele>
        <time>2024-07-30T08:24:23Z</time>
      </trkpt>
      <trkpt lat="43.373" lon="1.23977">
        <ele>205</ele>
        <time>2024-07-30T08:24:24Z</time>
      </trkpt>
      <trkpt lat="43.37308" lon="1.23983">
        <ele>205</ele>
        <time>2024-07-30T08:24:25Z</time>
      </trkpt>
      <trkpt lat="43.37316" lon="1.23988">
        <ele>204.8</ele>
        <time>2024-07-30T08:24:26Z</time>
      </trkpt>
      <trkpt lat="43.37324" lon="1.23993">
        <ele>204.8</ele>
        <time>2024-07-30T08:24:27Z</time>
      </trkpt>
      <trkpt lat="43.37331" lon="1.23998">
        <ele>204.8</ele>
        <time>2024-07-30T08:24:28Z</time>
      </trkpt>
      <trkpt lat="43.37339" lon="1.24003">
        <ele>204.8</ele>
        <time>2024-07-30T08:24:29Z</time>
      </trkpt>
      <trkpt lat="43.37347" lon="1.24009">
        <ele>204.8</ele>
        <time>2024-07-30T08:24:30Z</time>
      </trkpt>
      <trkpt lat="43.37355" lon="1.24014">
        <ele>204.8</ele>
        <time>2024-07-30T08:24:31Z</time>
      </trkpt>
      <trkpt lat="43.37361" lon="1.24019">
        <ele>204.6</ele>
        <time>2024-07-30T08:24:32Z</time>
      </trkpt>
      <trkpt lat="43.3737" lon="1.24025">
        <ele>204.8</ele>
        <time>2024-07-30T08:24:33Z</time>
      </trkpt>
      <trkpt lat="43.37378" lon="1.24031">
        <ele>204.8</ele>
        <time>2024-07-30T08:24:34Z</time>
      </trkpt>
      <trkpt lat="43.37385" lon="1.24037">
        <ele>204.8</ele>
        <time>2024-07-30T08:24:35Z</time>
      </trkpt>
      <trkpt lat="43.37393" lon="1.24042">
        <ele>204.8</ele>
        <time>2024-07-30T08:24:36Z</time>
      </trkpt>
      <trkpt lat="43.37401" lon="1.24048">
        <ele>204.8</ele>
        <time>2024-07-30T08:24:37Z</time>
      </trkpt>
      <trkpt lat="43.37409" lon="1.24054">
        <ele>204.6</ele>
        <time>2024-07-30T08:24:38Z</time>
      </trkpt>
      <trkpt lat="43.37416" lon="1.2406">
        <ele>204.6</ele>
        <time>2024-07-30T08:24:39Z</time>
      </trkpt>
      <trkpt lat="43.37424" lon="1.24066">
        <ele>204.6</ele>
        <time>2024-07-30T08:24:40Z</time>
      </trkpt>
      <trkpt lat="43.37431" lon="1.24072">
        <ele>204.6</ele>
        <time>2024-07-30T08:24:41Z</time>
      </trkpt>
      <trkpt lat="43.37439" lon="1.24078">
        <ele>204.6</ele>
        <time>2024-07-30T08:24:42Z</time>
      </trkpt>
      <trkpt lat="43.37446" lon="1.24084">
        <ele>204.4</ele>
        <time>2024-07-30T08:24:43Z</time>
      </trkpt>
      <trkpt lat="43.37454" lon="1.24091">
        <ele>204.4</ele>
        <time>2024-07-30T08:24:44Z</time>
      </trkpt>
      <trkpt lat="43.3746" lon="1.24096">
        <ele>204.4</ele>
        <time>2024-07-30T08:24:45Z</time>
      </trkpt>
      <trkpt lat="43.37469" lon="1.24104">
        <ele>204.2</ele>
        <time>2024-07-30T08:24:46Z</time>
      </trkpt>
      <trkpt lat="43.37476" lon="1.24111">
        <ele>204.2</ele>
        <time>2024-07-30T08:24:47Z</time>
      </trkpt>
      <trkpt lat="43.37484" lon="1.24118">
        <ele>204.2</ele>
        <time>2024-07-30T08:24:48Z</time>
      </trkpt>
      <trkpt lat="43.3749" lon="1.24123">
        <ele>204.2</ele>
        <time>2024-07-30T08:24:49Z</time>
      </trkpt>
      <trkpt lat="43.37498" lon="1.2413">
        <ele>204.2</ele>
        <time>2024-07-30T08:24:50Z</time>
      </trkpt>
      <trkpt lat="43.37507" lon="1.24139">
        <ele>204.2</ele>
        <time>2024-07-30T08:24:51Z</time>
      </trkpt>
      <trkpt lat="43.37515" lon="1.24146">
        <ele>204.2</ele>
        <time>2024-07-30T08:24:52Z</time>
      </trkpt>
      <trkpt lat="43.37522" lon="1.24153">
        <ele>204.2</ele>
        <time>2024-07-30T08:24:53Z</time>
      </trkpt>
      <trkpt lat="43.37529" lon="1.24158">
        <ele>204.2</ele>
        <time>2024-07-30T08:24:54Z</time>
      </trkpt>
      <trkpt lat="43.37538" lon="1.24166">
        <ele>204.2</ele>
        <time>2024-07-30T08:24:55Z</time>
      </trkpt>
      <trkpt lat="43.37544" lon="1.24171">
        <ele>204.2</ele>
        <time>2024-07-30T08:24:56Z</time>
      </trkpt>
      <trkpt lat="43.37554" lon="1.24178">
        <ele>204</ele>
        <time>2024-07-30T08:24:57Z</time>
      </trkpt>
      <trkpt lat="43.37562" lon="1.24185">
        <ele>204</ele>
        <time>2024-07-30T08:24:58Z</time>
      </trkpt>
      <trkpt lat="43.3757" lon="1.2419">
        <ele>203.8</ele>
        <time>2024-07-30T08:24:59Z</time>
      </trkpt>
      <trkpt lat="43.37577" lon="1.24195">
        <ele>203.8</ele>
        <time>2024-07-30T08:25:00Z</time>
      </trkpt>
      <trkpt lat="43.37586" lon="1.24201">
        <ele>203.6</ele>
        <time>2024-07-30T08:25:01Z</time>
      </trkpt>
      <trkpt lat="43.37595" lon="1.24206">
        <ele>203.6</ele>
        <time>2024-07-30T08:25:02Z</time>
      </trkpt>
      <trkpt lat="43.37603" lon="1.24211">
        <ele>203.6</ele>
        <time>2024-07-30T08:25:03Z</time>
      </trkpt>
      <trkpt lat="43.37611" lon="1.24216">
        <ele>203.4</ele>
        <time>2024-07-30T08:25:04Z</time>
      </trkpt>
      <trkpt lat="43.3762" lon="1.2422">
        <ele>203.4</ele>
        <time>2024-07-30T08:25:05Z</time>
      </trkpt>
      <trkpt lat="43.37628" lon="1.24225">
        <ele>203.4</ele>
        <time>2024-07-30T08:25:06Z</time>
      </trkpt>
      <trkpt lat="43.37637" lon="1.24229">
        <ele>203.4</ele>
        <time>2024-07-30T08:25:07Z</time>
      </trkpt>
      <trkpt lat="43.37645" lon="1.24233">
        <ele>203.4</ele>
        <time>2024-07-30T08:25:08Z</time>
      </trkpt>
      <trkpt lat="43.37654" lon="1.24238">
        <ele>203.4</ele>
        <time>2024-07-30T08:25:09Z</time>
      </trkpt>
      <trkpt lat="43.37662" lon="1.24242">
        <ele>203.6</ele>
        <time>2024-07-30T08:25:10Z</time>
      </trkpt>
      <trkpt lat="43.37671" lon="1.24247">
        <ele>203.6</ele>
        <time>2024-07-30T08:25:11Z</time>
      </trkpt>
      <trkpt lat="43.37679" lon="1.24251">
        <ele>203.6</ele>
        <time>2024-07-30T08:25:12Z</time>
      </trkpt>
      <trkpt lat="43.37688" lon="1.24256">
        <ele>203.6</ele>
        <time>2024-07-30T08:25:13Z</time>
      </trkpt>
      <trkpt lat="43.37696" lon="1.24259">
        <ele>203.6</ele>
        <time>2024-07-30T08:25:14Z</time>
      </trkpt>
      <trkpt lat="43.37705" lon="1.24263">
        <ele>203.6</ele>
        <time>2024-07-30T08:25:15Z</time>
      </trkpt>
      <trkpt lat="43.37714" lon="1.24267">
        <ele>203.6</ele>
        <time>2024-07-30T08:25:16Z</time>
      </trkpt>
      <trkpt lat="43.3772" lon="1.2427">
        <ele>203.6</ele>
        <time>2024-07-30T08:25:17Z</time>
      </trkpt>
      <trkpt lat="43.37729" lon="1.24273">
        <ele>203.6</ele>
        <time>2024-07-30T08:25:18Z</time>
      </trkpt>
      <trkpt lat="43.37738" lon="1.24277">
        <ele>203.6</ele>
        <time>2024-07-30T08:25:19Z</time>
      </trkpt>
      <trkpt lat="43.37747" lon="1.24281">
        <ele>203.6</ele>
        <time>2024-07-30T08:25:20Z</time>
      </trkpt>
      <trkpt lat="43.37755" lon="1.24284">
        <ele>203.6</ele>
        <time>2024-07-30T08:25:21Z</time>
      </trkpt>
      <trkpt lat="43.37761" lon="1.24287">
        <ele>203.6</ele>
        <time>2024-07-30T08:25:22Z</time>
      </trkpt>
      <trkpt lat="43.3777" lon="1.2429">
        <ele>203.6</ele>
        <time>2024-07-30T08:25:23Z</time>
      </trkpt>
      <trkpt lat="43.37779" lon="1.24295">
        <ele>203.6</ele>
        <time>2024-07-30T08:25:24Z</time>
      </trkpt>
      <trkpt lat="43.37787" lon="1.24298">
        <ele>203.6</ele>
        <time>2024-07-30T08:25:25Z</time>
      </trkpt>
      <trkpt lat="43.37793" lon="1.24301">
        <ele>203.6</ele>
        <time>2024-07-30T08:25:26Z</time>
      </trkpt>
      <trkpt lat="43.378" lon="1.24305">
        <ele>203.6</ele>
        <time>2024-07-30T08:25:27Z</time>
      </trkpt>
      <trkpt lat="43.37809" lon="1.24311">
        <ele>203.6</ele>
        <time>2024-07-30T08:25:28Z</time>
      </trkpt>
      <trkpt lat="43.37816" lon="1.24316">
        <ele>203.6</ele>
        <time>2024-07-30T08:25:29Z</time>
      </trkpt>
      <trkpt lat="43.37822" lon="1.24322">
        <ele>203.6</ele>
        <time>2024-07-30T08:25:30Z</time>
      </trkpt>
      <trkpt lat="43.37829" lon="1.24328">
        <ele>203.6</ele>
        <time>2024-07-30T08:25:31Z</time>
      </trkpt>
      <trkpt lat="43.37834" lon="1.24334">
        <ele>203.6</ele>
        <time>2024-07-30T08:25:32Z</time>
      </trkpt>
      <trkpt lat="43.37841" lon="1.24342">
        <ele>203.6</ele>
        <time>2024-07-30T08:25:33Z</time>
      </trkpt>
      <trkpt lat="43.37847" lon="1.24349">
        <ele>203.4</ele>
        <time>2024-07-30T08:25:34Z</time>
      </trkpt>
      <trkpt lat="43.37852" lon="1.24355">
        <ele>203.2</ele>
        <time>2024-07-30T08:25:35Z</time>
      </trkpt>
      <trkpt lat="43.37858" lon="1.24361">
        <ele>203.2</ele>
        <time>2024-07-30T08:25:36Z</time>
      </trkpt>
      <trkpt lat="43.37865" lon="1.24369">
        <ele>203.2</ele>
        <time>2024-07-30T08:25:37Z</time>
      </trkpt>
      <trkpt lat="43.37869" lon="1.24374">
        <ele>203.2</ele>
        <time>2024-07-30T08:25:38Z</time>
      </trkpt>
      <trkpt lat="43.37876" lon="1.24382">
        <ele>203</ele>
        <time>2024-07-30T08:25:39Z</time>
      </trkpt>
      <trkpt lat="43.37881" lon="1.24387">
        <ele>203</ele>
        <time>2024-07-30T08:25:40Z</time>
      </trkpt>
      <trkpt lat="43.37887" lon="1.24394">
        <ele>203</ele>
        <time>2024-07-30T08:25:41Z</time>
      </trkpt>
      <trkpt lat="43.37892" lon="1.244">
        <ele>203</ele>
        <time>2024-07-30T08:25:42Z</time>
      </trkpt>
      <trkpt lat="43.37899" lon="1.24408">
        <ele>203</ele>
        <time>2024-07-30T08:25:43Z</time>
      </trkpt>
      <trkpt lat="43.37905" lon="1.24415">
        <ele>203</ele>
        <time>2024-07-30T08:25:44Z</time>
      </trkpt>
      <trkpt lat="43.37912" lon="1.24422">
        <ele>203</ele>
        <time>2024-07-30T08:25:45Z</time>
      </trkpt>
      <trkpt lat="43.37918" lon="1.24428">
        <ele>203</ele>
        <time>2024-07-30T08:25:46Z</time>
      </trkpt>
      <trkpt lat="43.37924" lon="1.24434">
        <ele>203.2</ele>
        <time>2024-07-30T08:25:47Z</time>
      </trkpt>
      <trkpt lat="43.37932" lon="1.24441">
        <ele>203.2</ele>
        <time>2024-07-30T08:25:48Z</time>
      </trkpt>
      <trkpt lat="43.37939" lon="1.24446">
        <ele>203</ele>
        <time>2024-07-30T08:25:49Z</time>
      </trkpt>
      <trkpt lat="43.37948" lon="1.24451">
        <ele>203</ele>
        <time>2024-07-30T08:25:50Z</time>
      </trkpt>
      <trkpt lat="43.37954" lon="1.24454">
        <ele>203</ele>
        <time>2024-07-30T08:25:51Z</time>
      </trkpt>
      <trkpt lat="43.37964" lon="1.24459">
        <ele>202.8</ele>
        <time>2024-07-30T08:25:52Z</time>
      </trkpt>
      <trkpt lat="43.37972" lon="1.24463">
        <ele>202.8</ele>
        <time>2024-07-30T08:25:53Z</time>
      </trkpt>
      <trkpt lat="43.37981" lon="1.24466">
        <ele>202.8</ele>
        <time>2024-07-30T08:25:54Z</time>
      </trkpt>
      <trkpt lat="43.37987" lon="1.24469">
        <ele>202.6</ele>
        <time>2024-07-30T08:25:55Z</time>
      </trkpt>
      <trkpt lat="43.37996" lon="1.24472">
        <ele>202.6</ele>
        <time>2024-07-30T08:25:56Z</time>
      </trkpt>
      <trkpt lat="43.38005" lon="1.24476">
        <ele>202.4</ele>
        <time>2024-07-30T08:25:57Z</time>
      </trkpt>
      <trkpt lat="43.38013" lon="1.24479">
        <ele>202.4</ele>
        <time>2024-07-30T08:25:58Z</time>
      </trkpt>
      <trkpt lat="43.3802" lon="1.24482">
        <ele>202.4</ele>
        <time>2024-07-30T08:25:59Z</time>
      </trkpt>
      <trkpt lat="43.38027" lon="1.24485">
        <ele>202.2</ele>
        <time>2024-07-30T08:26:00Z</time>
      </trkpt>
      <trkpt lat="43.38032" lon="1.24487">
        <ele>202.2</ele>
        <time>2024-07-30T08:26:01Z</time>
      </trkpt>
      <trkpt lat="43.3804" lon="1.24491">
        <ele>202.2</ele>
        <time>2024-07-30T08:26:02Z</time>
      </trkpt>
      <trkpt lat="43.38047" lon="1.24494">
        <ele>202.2</ele>
        <time>2024-07-30T08:26:03Z</time>
      </trkpt>
      <trkpt lat="43.38052" lon="1.24497">
        <ele>202.2</ele>
        <time>2024-07-30T08:26:04Z</time>
      </trkpt>
      <trkpt lat="43.38059" lon="1.24501">
        <ele>202.2</ele>
        <time>2024-07-30T08:26:05Z</time>
      </trkpt>
      <trkpt lat="43.38067" lon="1.24505">
        <ele>202</ele>
        <time>2024-07-30T08:26:06Z</time>
      </trkpt>
      <trkpt lat="43.38074" lon="1.24508">
        <ele>202</ele>
        <time>2024-07-30T08:26:07Z</time>
      </trkpt>
      <trkpt lat="43.38081" lon="1.24512">
        <ele>201.8</ele>
        <time>2024-07-30T08:26:08Z</time>
      </trkpt>
      <trkpt lat="43.38087" lon="1.24515">
        <ele>201.8</ele>
        <time>2024-07-30T08:26:09Z</time>
      </trkpt>
      <trkpt lat="43.38092" lon="1.24518">
        <ele>201.8</ele>
        <time>2024-07-30T08:26:10Z</time>
      </trkpt>
      <trkpt lat="43.381" lon="1.24521">
        <ele>201.8</ele>
        <time>2024-07-30T08:26:11Z</time>
      </trkpt>
      <trkpt lat="43.38106" lon="1.24525">
        <ele>201.6</ele>
        <time>2024-07-30T08:26:12Z</time>
      </trkpt>
      <trkpt lat="43.38112" lon="1.24528">
        <ele>201.6</ele>
        <time>2024-07-30T08:26:13Z</time>
      </trkpt>
      <trkpt lat="43.38119" lon="1.24531">
        <ele>201.6</ele>
        <time>2024-07-30T08:26:14Z</time>
      </trkpt>
      <trkpt lat="43.38128" lon="1.24536">
        <ele>201.4</ele>
        <time>2024-07-30T08:26:15Z</time>
      </trkpt>
      <trkpt lat="43.38135" lon="1.24539">
        <ele>201.4</ele>
        <time>2024-07-30T08:26:16Z</time>
      </trkpt>
      <trkpt lat="43.38142" lon="1.24543">
        <ele>201.2</ele>
        <time>2024-07-30T08:26:17Z</time>
      </trkpt>
      <trkpt lat="43.38147" lon="1.24546">
        <ele>201</ele>
        <time>2024-07-30T08:26:18Z</time>
      </trkpt>
      <trkpt lat="43.38155" lon="1.2455">
        <ele>201</ele>
        <time>2024-07-30T08:26:19Z</time>
      </trkpt>
      <trkpt lat="43.38163" lon="1.24555">
        <ele>200.8</ele>
        <time>2024-07-30T08:26:20Z</time>
      </trkpt>
      <trkpt lat="43.3817" lon="1.24559">
        <ele>200.8</ele>
        <time>2024-07-30T08:26:21Z</time>
      </trkpt>
      <trkpt lat="43.38178" lon="1.24563">
        <ele>200.8</ele>
        <time>2024-07-30T08:26:22Z</time>
      </trkpt>
      <trkpt lat="43.38184" lon="1.24566">
        <ele>200.8</ele>
        <time>2024-07-30T08:26:23Z</time>
      </trkpt>
      <trkpt lat="43.38192" lon="1.2457">
        <ele>200.8</ele>
        <time>2024-07-30T08:26:24Z</time>
      </trkpt>
      <trkpt lat="43.38201" lon="1.24575">
        <ele>200.8</ele>
        <time>2024-07-30T08:26:25Z</time>
      </trkpt>
      <trkpt lat="43.38209" lon="1.24579">
        <ele>200.8</ele>
        <time>2024-07-30T08:26:26Z</time>
      </trkpt>
      <trkpt lat="43.38217" lon="1.24583">
        <ele>200.8</ele>
        <time>2024-07-30T08:26:27Z</time>
      </trkpt>
      <trkpt lat="43.38225" lon="1.24587">
        <ele>200.8</ele>
        <time>2024-07-30T08:26:28Z</time>
      </trkpt>
      <trkpt lat="43.38232" lon="1.2459">
        <ele>200.8</ele>
        <time>2024-07-30T08:26:29Z</time>
      </trkpt>
      <trkpt lat="43.38241" lon="1.24595">
        <ele>200.8</ele>
        <time>2024-07-30T08:26:30Z</time>
      </trkpt>
      <trkpt lat="43.38249" lon="1.24599">
        <ele>200.8</ele>
        <time>2024-07-30T08:26:31Z</time>
      </trkpt>
      <trkpt lat="43.38256" lon="1.24603">
        <ele>200.8</ele>
        <time>2024-07-30T08:26:32Z</time>
      </trkpt>
      <trkpt lat="43.38264" lon="1.24607">
        <ele>200.6</ele>
        <time>2024-07-30T08:26:33Z</time>
      </trkpt>
      <trkpt lat="43.38273" lon="1.24613">
        <ele>200.6</ele>
        <time>2024-07-30T08:26:34Z</time>
      </trkpt>
      <trkpt lat="43.38282" lon="1.24618">
        <ele>200.6</ele>
        <time>2024-07-30T08:26:35Z</time>
      </trkpt>
      <trkpt lat="43.38289" lon="1.24622">
        <ele>200.6</ele>
        <time>2024-07-30T08:26:36Z</time>
      </trkpt>
      <trkpt lat="43.38296" lon="1.24626">
        <ele>200.6</ele>
        <time>2024-07-30T08:26:37Z</time>
      </trkpt>
      <trkpt lat="43.38303" lon="1.24631">
        <ele>200.6</ele>
        <time>2024-07-30T08:26:38Z</time>
      </trkpt>
      <trkpt lat="43.38311" lon="1.24636">
        <ele>200.6</ele>
        <time>2024-07-30T08:26:39Z</time>
      </trkpt>
      <trkpt lat="43.38318" lon="1.24642">
        <ele>200.6</ele>
        <time>2024-07-30T08:26:40Z</time>
      </trkpt>
      <trkpt lat="43.38325" lon="1.24648">
        <ele>200.6</ele>
        <time>2024-07-30T08:26:41Z</time>
      </trkpt>
      <trkpt lat="43.38332" lon="1.24654">
        <ele>200.6</ele>
        <time>2024-07-30T08:26:42Z</time>
      </trkpt>
      <trkpt lat="43.38338" lon="1.2466">
        <ele>200.6</ele>
        <time>2024-07-30T08:26:43Z</time>
      </trkpt>
      <trkpt lat="43.38345" lon="1.24666">
        <ele>200.4</ele>
        <time>2024-07-30T08:26:44Z</time>
      </trkpt>
      <trkpt lat="43.38351" lon="1.24673">
        <ele>200.4</ele>
        <time>2024-07-30T08:26:45Z</time>
      </trkpt>
      <trkpt lat="43.38358" lon="1.2468">
        <ele>200.4</ele>
        <time>2024-07-30T08:26:46Z</time>
      </trkpt>
      <trkpt lat="43.38364" lon="1.24686">
        <ele>200.4</ele>
        <time>2024-07-30T08:26:47Z</time>
      </trkpt>
      <trkpt lat="43.38371" lon="1.24693">
        <ele>200.4</ele>
        <time>2024-07-30T08:26:48Z</time>
      </trkpt>
      <trkpt lat="43.38378" lon="1.247">
        <ele>200.4</ele>
        <time>2024-07-30T08:26:49Z</time>
      </trkpt>
      <trkpt lat="43.38385" lon="1.24707">
        <ele>200.4</ele>
        <time>2024-07-30T08:26:50Z</time>
      </trkpt>
      <trkpt lat="43.38392" lon="1.24713">
        <ele>200.4</ele>
        <time>2024-07-30T08:26:51Z</time>
      </trkpt>
      <trkpt lat="43.38399" lon="1.2472">
        <ele>200.2</ele>
        <time>2024-07-30T08:26:52Z</time>
      </trkpt>
      <trkpt lat="43.38406" lon="1.24727">
        <ele>200.2</ele>
        <time>2024-07-30T08:26:53Z</time>
      </trkpt>
      <trkpt lat="43.38413" lon="1.24733">
        <ele>200.4</ele>
        <time>2024-07-30T08:26:54Z</time>
      </trkpt>
      <trkpt lat="43.38421" lon="1.24739">
        <ele>200.4</ele>
        <time>2024-07-30T08:26:55Z</time>
      </trkpt>
      <trkpt lat="43.38428" lon="1.24746">
        <ele>200.2</ele>
        <time>2024-07-30T08:26:56Z</time>
      </trkpt>
      <trkpt lat="43.38436" lon="1.24752">
        <ele>200.2</ele>
        <time>2024-07-30T08:26:57Z</time>
      </trkpt>
      <trkpt lat="43.38443" lon="1.24758">
        <ele>200</ele>
        <time>2024-07-30T08:26:58Z</time>
      </trkpt>
      <trkpt lat="43.38451" lon="1.24764">
        <ele>200</ele>
        <time>2024-07-30T08:26:59Z</time>
      </trkpt>
      <trkpt lat="43.38459" lon="1.2477">
        <ele>200</ele>
        <time>2024-07-30T08:27:00Z</time>
      </trkpt>
      <trkpt lat="43.38466" lon="1.24776">
        <ele>200</ele>
        <time>2024-07-30T08:27:01Z</time>
      </trkpt>
      <trkpt lat="43.38473" lon="1.24782">
        <ele>199.8</ele>
        <time>2024-07-30T08:27:02Z</time>
      </trkpt>
      <trkpt lat="43.38481" lon="1.24788">
        <ele>199.8</ele>
        <time>2024-07-30T08:27:03Z</time>
      </trkpt>
      <trkpt lat="43.38488" lon="1.24795">
        <ele>199.8</ele>
        <time>2024-07-30T08:27:04Z</time>
      </trkpt>
      <trkpt lat="43.38496" lon="1.24801">
        <ele>199.8</ele>
        <time>2024-07-30T08:27:05Z</time>
      </trkpt>
      <trkpt lat="43.38503" lon="1.24807">
        <ele>199.8</ele>
        <time>2024-07-30T08:27:06Z</time>
      </trkpt>
      <trkpt lat="43.38511" lon="1.24813">
        <ele>199.6</ele>
        <time>2024-07-30T08:27:07Z</time>
      </trkpt>
      <trkpt lat="43.38518" lon="1.2482">
        <ele>199.6</ele>
        <time>2024-07-30T08:27:08Z</time>
      </trkpt>
      <trkpt lat="43.38526" lon="1.24826">
        <ele>199.6</ele>
        <time>2024-07-30T08:27:09Z</time>
      </trkpt>
      <trkpt lat="43.38533" lon="1.24832">
        <ele>199.6</ele>
        <time>2024-07-30T08:27:10Z</time>
      </trkpt>
      <trkpt lat="43.3854" lon="1.24838">
        <ele>199.6</ele>
        <time>2024-07-30T08:27:11Z</time>
      </trkpt>
      <trkpt lat="43.38548" lon="1.24844">
        <ele>199.4</ele>
        <time>2024-07-30T08:27:12Z</time>
      </trkpt>
      <trkpt lat="43.38555" lon="1.2485">
        <ele>199.4</ele>
        <time>2024-07-30T08:27:13Z</time>
      </trkpt>
      <trkpt lat="43.38562" lon="1.24856">
        <ele>199.4</ele>
        <time>2024-07-30T08:27:14Z</time>
      </trkpt>
      <trkpt lat="43.38569" lon="1.24862">
        <ele>199.2</ele>
        <time>2024-07-30T08:27:15Z</time>
      </trkpt>
      <trkpt lat="43.38577" lon="1.24867">
        <ele>199.2</ele>
        <time>2024-07-30T08:27:16Z</time>
      </trkpt>
      <trkpt lat="43.38584" lon="1.24873">
        <ele>199.2</ele>
        <time>2024-07-30T08:27:17Z</time>
      </trkpt>
      <trkpt lat="43.38592" lon="1.24879">
        <ele>199</ele>
        <time>2024-07-30T08:27:18Z</time>
      </trkpt>
      <trkpt lat="43.386" lon="1.24884">
        <ele>199</ele>
        <time>2024-07-30T08:27:19Z</time>
      </trkpt>
      <trkpt lat="43.38607" lon="1.24889">
        <ele>199</ele>
        <time>2024-07-30T08:27:20Z</time>
      </trkpt>
      <trkpt lat="43.38615" lon="1.24894">
        <ele>199</ele>
        <time>2024-07-30T08:27:21Z</time>
      </trkpt>
      <trkpt lat="43.38623" lon="1.24898">
        <ele>199</ele>
        <time>2024-07-30T08:27:22Z</time>
      </trkpt>
      <trkpt lat="43.38631" lon="1.24902">
        <ele>199</ele>
        <time>2024-07-30T08:27:23Z</time>
      </trkpt>
      <trkpt lat="43.38639" lon="1.24905">
        <ele>199</ele>
        <time>2024-07-30T08:27:24Z</time>
      </trkpt>
      <trkpt lat="43.38647" lon="1.24908">
        <ele>199.2</ele>
        <time>2024-07-30T08:27:25Z</time>
      </trkpt>
      <trkpt lat="43.38655" lon="1.24911">
        <ele>199</ele>
        <time>2024-07-30T08:27:26Z</time>
      </trkpt>
      <trkpt lat="43.38664" lon="1.24914">
        <ele>199.2</ele>
        <time>2024-07-30T08:27:27Z</time>
      </trkpt>
      <trkpt lat="43.38672" lon="1.24917">
        <ele>199.2</ele>
        <time>2024-07-30T08:27:28Z</time>
      </trkpt>
      <trkpt lat="43.3868" lon="1.2492">
        <ele>199.2</ele>
        <time>2024-07-30T08:27:29Z</time>
      </trkpt>
      <trkpt lat="43.38689" lon="1.24922">
        <ele>199.2</ele>
        <time>2024-07-30T08:27:30Z</time>
      </trkpt>
      <trkpt lat="43.38697" lon="1.24924">
        <ele>199.2</ele>
        <time>2024-07-30T08:27:31Z</time>
      </trkpt>
      <trkpt lat="43.38706" lon="1.24926">
        <ele>199.4</ele>
        <time>2024-07-30T08:27:32Z</time>
      </trkpt>
      <trkpt lat="43.38714" lon="1.24928">
        <ele>199.4</ele>
        <time>2024-07-30T08:27:33Z</time>
      </trkpt>
      <trkpt lat="43.38723" lon="1.2493">
        <ele>199.4</ele>
        <time>2024-07-30T08:27:34Z</time>
      </trkpt>
      <trkpt lat="43.38732" lon="1.24932">
        <ele>199.2</ele>
        <time>2024-07-30T08:27:35Z</time>
      </trkpt>
      <trkpt lat="43.3874" lon="1.24934">
        <ele>199.2</ele>
        <time>2024-07-30T08:27:36Z</time>
      </trkpt>
      <trkpt lat="43.3875" lon="1.24936">
        <ele>199.2</ele>
        <time>2024-07-30T08:27:37Z</time>
      </trkpt>
      <trkpt lat="43.38759" lon="1.24937">
        <ele>199.2</ele>
        <time>2024-07-30T08:27:38Z</time>
      </trkpt>
      <trkpt lat="43.38767" lon="1.24939">
        <ele>199.2</ele>
        <time>2024-07-30T08:27:39Z</time>
      </trkpt>
      <trkpt lat="43.38776" lon="1.2494">
        <ele>199.2</ele>
        <time>2024-07-30T08:27:40Z</time>
      </trkpt>
      <trkpt lat="43.38784" lon="1.24942">
        <ele>199.2</ele>
        <time>2024-07-30T08:27:41Z</time>
      </trkpt>
      <trkpt lat="43.38793" lon="1.24944">
        <ele>199.2</ele>
        <time>2024-07-30T08:27:42Z</time>
      </trkpt>
      <trkpt lat="43.38801" lon="1.24946">
        <ele>199.2</ele>
        <time>2024-07-30T08:27:43Z</time>
      </trkpt>
      <trkpt lat="43.38809" lon="1.24948">
        <ele>199</ele>
        <time>2024-07-30T08:27:44Z</time>
      </trkpt>
      <trkpt lat="43.38818" lon="1.24951">
        <ele>199</ele>
        <time>2024-07-30T08:27:45Z</time>
      </trkpt>
      <trkpt lat="43.38826" lon="1.24954">
        <ele>199</ele>
        <time>2024-07-30T08:27:46Z</time>
      </trkpt>
      <trkpt lat="43.38834" lon="1.24957">
        <ele>199</ele>
        <time>2024-07-30T08:27:47Z</time>
      </trkpt>
      <trkpt lat="43.38841" lon="1.2496">
        <ele>199</ele>
        <time>2024-07-30T08:27:48Z</time>
      </trkpt>
      <trkpt lat="43.38849" lon="1.24965">
        <ele>199</ele>
        <time>2024-07-30T08:27:49Z</time>
      </trkpt>
      <trkpt lat="43.38856" lon="1.24969">
        <ele>199</ele>
        <time>2024-07-30T08:27:50Z</time>
      </trkpt>
      <trkpt lat="43.38864" lon="1.24973">
        <ele>199</ele>
        <time>2024-07-30T08:27:51Z</time>
      </trkpt>
      <trkpt lat="43.38871" lon="1.24977">
        <ele>199</ele>
        <time>2024-07-30T08:27:52Z</time>
      </trkpt>
      <trkpt lat="43.38878" lon="1.24981">
        <ele>199</ele>
        <time>2024-07-30T08:27:53Z</time>
      </trkpt>
      <trkpt lat="43.38885" lon="1.24984">
        <ele>199</ele>
        <time>2024-07-30T08:27:54Z</time>
      </trkpt>
      <trkpt lat="43.38892" lon="1.24988">
        <ele>198.8</ele>
        <time>2024-07-30T08:27:55Z</time>
      </trkpt>
      <trkpt lat="43.38899" lon="1.24993">
        <ele>198.8</ele>
        <time>2024-07-30T08:27:56Z</time>
      </trkpt>
      <trkpt lat="43.38906" lon="1.24998">
        <ele>198.6</ele>
        <time>2024-07-30T08:27:57Z</time>
      </trkpt>
      <trkpt lat="43.38913" lon="1.25005">
        <ele>198.6</ele>
        <time>2024-07-30T08:27:58Z</time>
      </trkpt>
      <trkpt lat="43.38919" lon="1.25012">
        <ele>198.4</ele>
        <time>2024-07-30T08:27:59Z</time>
      </trkpt>
      <trkpt lat="43.38926" lon="1.25017">
        <ele>198.4</ele>
        <time>2024-07-30T08:28:00Z</time>
      </trkpt>
      <trkpt lat="43.38933" lon="1.25021">
        <ele>198.4</ele>
        <time>2024-07-30T08:28:01Z</time>
      </trkpt>
      <trkpt lat="43.38941" lon="1.25026">
        <ele>198.2</ele>
        <time>2024-07-30T08:28:02Z</time>
      </trkpt>
      <trkpt lat="43.38948" lon="1.25032">
        <ele>198.2</ele>
        <time>2024-07-30T08:28:03Z</time>
      </trkpt>
      <trkpt lat="43.38956" lon="1.25038">
        <ele>198.2</ele>
        <time>2024-07-30T08:28:04Z</time>
      </trkpt>
      <trkpt lat="43.38963" lon="1.25045">
        <ele>198</ele>
        <time>2024-07-30T08:28:05Z</time>
      </trkpt>
      <trkpt lat="43.3897" lon="1.25052">
        <ele>197.8</ele>
        <time>2024-07-30T08:28:06Z</time>
      </trkpt>
      <trkpt lat="43.38977" lon="1.25058">
        <ele>197.8</ele>
        <time>2024-07-30T08:28:07Z</time>
      </trkpt>
      <trkpt lat="43.38983" lon="1.25065">
        <ele>197.8</ele>
        <time>2024-07-30T08:28:08Z</time>
      </trkpt>
      <trkpt lat="43.3899" lon="1.25072">
        <ele>197.6</ele>
        <time>2024-07-30T08:28:09Z</time>
      </trkpt>
      <trkpt lat="43.38996" lon="1.25079">
        <ele>197.6</ele>
        <time>2024-07-30T08:28:10Z</time>
      </trkpt>
      <trkpt lat="43.39002" lon="1.25086">
        <ele>197.6</ele>
        <time>2024-07-30T08:28:11Z</time>
      </trkpt>
      <trkpt lat="43.39008" lon="1.25093">
        <ele>197.6</ele>
        <time>2024-07-30T08:28:12Z</time>
      </trkpt>
      <trkpt lat="43.39013" lon="1.25101">
        <ele>197.6</ele>
        <time>2024-07-30T08:28:13Z</time>
      </trkpt>
      <trkpt lat="43.39019" lon="1.25108">
        <ele>197.8</ele>
        <time>2024-07-30T08:28:14Z</time>
      </trkpt>
      <trkpt lat="43.39025" lon="1.25116">
        <ele>197.8</ele>
        <time>2024-07-30T08:28:15Z</time>
      </trkpt>
      <trkpt lat="43.39031" lon="1.25124">
        <ele>197.8</ele>
        <time>2024-07-30T08:28:16Z</time>
      </trkpt>
      <trkpt lat="43.39036" lon="1.25132">
        <ele>198</ele>
        <time>2024-07-30T08:28:17Z</time>
      </trkpt>
      <trkpt lat="43.39041" lon="1.25141">
        <ele>198</ele>
        <time>2024-07-30T08:28:18Z</time>
      </trkpt>
      <trkpt lat="43.39046" lon="1.25149">
        <ele>198</ele>
        <time>2024-07-30T08:28:19Z</time>
      </trkpt>
      <trkpt lat="43.39051" lon="1.25158">
        <ele>198</ele>
        <time>2024-07-30T08:28:20Z</time>
      </trkpt>
      <trkpt lat="43.39056" lon="1.25166">
        <ele>198.2</ele>
        <time>2024-07-30T08:28:21Z</time>
      </trkpt>
      <trkpt lat="43.39061" lon="1.25174">
        <ele>198.2</ele>
        <time>2024-07-30T08:28:22Z</time>
      </trkpt>
      <trkpt lat="43.39065" lon="1.25183">
        <ele>198.2</ele>
        <time>2024-07-30T08:28:23Z</time>
      </trkpt>
      <trkpt lat="43.3907" lon="1.25191">
        <ele>198.2</ele>
        <time>2024-07-30T08:28:24Z</time>
      </trkpt>
      <trkpt lat="43.39074" lon="1.252">
        <ele>198.2</ele>
        <time>2024-07-30T08:28:25Z</time>
      </trkpt>
      <trkpt lat="43.39078" lon="1.25208">
        <ele>198.2</ele>
        <time>2024-07-30T08:28:26Z</time>
      </trkpt>
      <trkpt lat="43.39081" lon="1.25217">
        <ele>198.2</ele>
        <time>2024-07-30T08:28:27Z</time>
      </trkpt>
      <trkpt lat="43.39084" lon="1.25226">
        <ele>198.2</ele>
        <time>2024-07-30T08:28:28Z</time>
      </trkpt>
      <trkpt lat="43.39087" lon="1.25233">
        <ele>198.2</ele>
        <time>2024-07-30T08:28:29Z</time>
      </trkpt>
      <trkpt lat="43.39092" lon="1.2524">
        <ele>198.2</ele>
        <time>2024-07-30T08:28:30Z</time>
      </trkpt>
      <trkpt lat="43.39098" lon="1.25244">
        <ele>198.2</ele>
        <time>2024-07-30T08:28:31Z</time>
      </trkpt>
      <trkpt lat="43.39104" lon="1.25246">
        <ele>198.2</ele>
        <time>2024-07-30T08:28:32Z</time>
      </trkpt>
      <trkpt lat="43.39111" lon="1.25247">
        <ele>198.4</ele>
        <time>2024-07-30T08:28:33Z</time>
      </trkpt>
      <trkpt lat="43.39117" lon="1.25248">
        <ele>198.4</ele>
        <time>2024-07-30T08:28:34Z</time>
      </trkpt>
      <trkpt lat="43.39124" lon="1.25251">
        <ele>198.4</ele>
        <time>2024-07-30T08:28:35Z</time>
      </trkpt>
      <trkpt lat="43.3913" lon="1.25254">
        <ele>198.4</ele>
        <time>2024-07-30T08:28:36Z</time>
      </trkpt>
      <trkpt lat="43.39137" lon="1.25258">
        <ele>198.4</ele>
        <time>2024-07-30T08:28:37Z</time>
      </trkpt>
      <trkpt lat="43.39143" lon="1.25262">
        <ele>198.6</ele>
        <time>2024-07-30T08:28:38Z</time>
      </trkpt>
      <trkpt lat="43.3915" lon="1.25267">
        <ele>198.6</ele>
        <time>2024-07-30T08:28:39Z</time>
      </trkpt>
      <trkpt lat="43.39157" lon="1.25271">
        <ele>198.6</ele>
        <time>2024-07-30T08:28:40Z</time>
      </trkpt>
      <trkpt lat="43.39164" lon="1.25276">
        <ele>198.6</ele>
        <time>2024-07-30T08:28:41Z</time>
      </trkpt>
      <trkpt lat="43.39171" lon="1.25281">
        <ele>198.4</ele>
        <time>2024-07-30T08:28:42Z</time>
      </trkpt>
      <trkpt lat="43.39178" lon="1.25285">
        <ele>198.4</ele>
        <time>2024-07-30T08:28:43Z</time>
      </trkpt>
      <trkpt lat="43.39186" lon="1.2529">
        <ele>198.4</ele>
        <time>2024-07-30T08:28:44Z</time>
      </trkpt>
      <trkpt lat="43.39193" lon="1.25294">
        <ele>198.4</ele>
        <time>2024-07-30T08:28:45Z</time>
      </trkpt>
      <trkpt lat="43.392" lon="1.25299">
        <ele>198.4</ele>
        <time>2024-07-30T08:28:46Z</time>
      </trkpt>
      <trkpt lat="43.39208" lon="1.25303">
        <ele>198.2</ele>
        <time>2024-07-30T08:28:47Z</time>
      </trkpt>
      <trkpt lat="43.39215" lon="1.25308">
        <ele>198.2</ele>
        <time>2024-07-30T08:28:48Z</time>
      </trkpt>
      <trkpt lat="43.39223" lon="1.25313">
        <ele>198.2</ele>
        <time>2024-07-30T08:28:49Z</time>
      </trkpt>
      <trkpt lat="43.39231" lon="1.25317">
        <ele>198.2</ele>
        <time>2024-07-30T08:28:50Z</time>
      </trkpt>
      <trkpt lat="43.39238" lon="1.25322">
        <ele>198.2</ele>
        <time>2024-07-30T08:28:51Z</time>
      </trkpt>
      <trkpt lat="43.39246" lon="1.25327">
        <ele>198</ele>
        <time>2024-07-30T08:28:52Z</time>
      </trkpt>
      <trkpt lat="43.39253" lon="1.25331">
        <ele>198</ele>
        <time>2024-07-30T08:28:53Z</time>
      </trkpt>
      <trkpt lat="43.3926" lon="1.25335">
        <ele>198</ele>
        <time>2024-07-30T08:28:54Z</time>
      </trkpt>
      <trkpt lat="43.39267" lon="1.25339">
        <ele>197.8</ele>
        <time>2024-07-30T08:28:55Z</time>
      </trkpt>
      <trkpt lat="43.39275" lon="1.25343">
        <ele>197.8</ele>
        <time>2024-07-30T08:28:56Z</time>
      </trkpt>
      <trkpt lat="43.39282" lon="1.25347">
        <ele>197.6</ele>
        <time>2024-07-30T08:28:57Z</time>
      </trkpt>
      <trkpt lat="43.39289" lon="1.2535">
        <ele>197.6</ele>
        <time>2024-07-30T08:28:58Z</time>
      </trkpt>
      <trkpt lat="43.39296" lon="1.25353">
        <ele>197.4</ele>
        <time>2024-07-30T08:28:59Z</time>
      </trkpt>
      <trkpt lat="43.39303" lon="1.25356">
        <ele>197.4</ele>
        <time>2024-07-30T08:29:00Z</time>
      </trkpt>
      <trkpt lat="43.3931" lon="1.25359">
        <ele>197.4</ele>
        <time>2024-07-30T08:29:01Z</time>
      </trkpt>
      <trkpt lat="43.39317" lon="1.25362">
        <ele>197.2</ele>
        <time>2024-07-30T08:29:02Z</time>
      </trkpt>
      <trkpt lat="43.39324" lon="1.25365">
        <ele>197.2</ele>
        <time>2024-07-30T08:29:03Z</time>
      </trkpt>
      <trkpt lat="43.39331" lon="1.25368">
        <ele>197.2</ele>
        <time>2024-07-30T08:29:04Z</time>
      </trkpt>
      <trkpt lat="43.39338" lon="1.25371">
        <ele>197.2</ele>
        <time>2024-07-30T08:29:05Z</time>
      </trkpt>
      <trkpt lat="43.39347" lon="1.25375">
        <ele>197.2</ele>
        <time>2024-07-30T08:29:06Z</time>
      </trkpt>
      <trkpt lat="43.39354" lon="1.25378">
        <ele>197.2</ele>
        <time>2024-07-30T08:29:07Z</time>
      </trkpt>
      <trkpt lat="43.3936" lon="1.2538">
        <ele>197.2</ele>
        <time>2024-07-30T08:29:08Z</time>
      </trkpt>
      <trkpt lat="43.39367" lon="1.25384">
        <ele>197.2</ele>
        <time>2024-07-30T08:29:09Z</time>
      </trkpt>
      <trkpt lat="43.39374" lon="1.25387">
        <ele>197.2</ele>
        <time>2024-07-30T08:29:10Z</time>
      </trkpt>
      <trkpt lat="43.39382" lon="1.25391">
        <ele>197.2</ele>
        <time>2024-07-30T08:29:11Z</time>
      </trkpt>
      <trkpt lat="43.39389" lon="1.25395">
        <ele>197.2</ele>
        <time>2024-07-30T08:29:12Z</time>
      </trkpt>
      <trkpt lat="43.39396" lon="1.25398">
        <ele>197.2</ele>
        <time>2024-07-30T08:29:13Z</time>
      </trkpt>
      <trkpt lat="43.39401" lon="1.25402">
        <ele>197.2</ele>
        <time>2024-07-30T08:29:14Z</time>
      </trkpt>
      <trkpt lat="43.39408" lon="1.25406">
        <ele>197.2</ele>
        <time>2024-07-30T08:29:15Z</time>
      </trkpt>
      <trkpt lat="43.39415" lon="1.25411">
        <ele>197.2</ele>
        <time>2024-07-30T08:29:16Z</time>
      </trkpt>
      <trkpt lat="43.39423" lon="1.25417">
        <ele>197.2</ele>
        <time>2024-07-30T08:29:17Z</time>
      </trkpt>
      <trkpt lat="43.39429" lon="1.25422">
        <ele>197.2</ele>
        <time>2024-07-30T08:29:18Z</time>
      </trkpt>
      <trkpt lat="43.39434" lon="1.25427">
        <ele>197.2</ele>
        <time>2024-07-30T08:29:19Z</time>
      </trkpt>
      <trkpt lat="43.39441" lon="1.25434">
        <ele>197.2</ele>
        <time>2024-07-30T08:29:20Z</time>
      </trkpt>
      <trkpt lat="43.39446" lon="1.25441">
        <ele>197</ele>
        <time>2024-07-30T08:29:21Z</time>
      </trkpt>
      <trkpt lat="43.39451" lon="1.25448">
        <ele>197</ele>
        <time>2024-07-30T08:29:22Z</time>
      </trkpt>
      <trkpt lat="43.39455" lon="1.25454">
        <ele>197</ele>
        <time>2024-07-30T08:29:23Z</time>
      </trkpt>
      <trkpt lat="43.39461" lon="1.25461">
        <ele>197</ele>
        <time>2024-07-30T08:29:24Z</time>
      </trkpt>
      <trkpt lat="43.39467" lon="1.25469">
        <ele>197</ele>
        <time>2024-07-30T08:29:25Z</time>
      </trkpt>
      <trkpt lat="43.39472" lon="1.25477">
        <ele>196.8</ele>
        <time>2024-07-30T08:29:26Z</time>
      </trkpt>
      <trkpt lat="43.39476" lon="1.25484">
        <ele>196.8</ele>
        <time>2024-07-30T08:29:27Z</time>
      </trkpt>
      <trkpt lat="43.3948" lon="1.25491">
        <ele>196.8</ele>
        <time>2024-07-30T08:29:28Z</time>
      </trkpt>
      <trkpt lat="43.39486" lon="1.255">
        <ele>196.6</ele>
        <time>2024-07-30T08:29:29Z</time>
      </trkpt>
      <trkpt lat="43.3949" lon="1.25506">
        <ele>196.6</ele>
        <time>2024-07-30T08:29:30Z</time>
      </trkpt>
      <trkpt lat="43.39496" lon="1.25516">
        <ele>196.6</ele>
        <time>2024-07-30T08:29:31Z</time>
      </trkpt>
      <trkpt lat="43.395" lon="1.25522">
        <ele>196.4</ele>
        <time>2024-07-30T08:29:32Z</time>
      </trkpt>
      <trkpt lat="43.39505" lon="1.2553">
        <ele>196.4</ele>
        <time>2024-07-30T08:29:33Z</time>
      </trkpt>
      <trkpt lat="43.39511" lon="1.25539">
        <ele>196.4</ele>
        <time>2024-07-30T08:29:34Z</time>
      </trkpt>
      <trkpt lat="43.39517" lon="1.25546">
        <ele>196.2</ele>
        <time>2024-07-30T08:29:35Z</time>
      </trkpt>
      <trkpt lat="43.39522" lon="1.25553">
        <ele>196.2</ele>
        <time>2024-07-30T08:29:36Z</time>
      </trkpt>
      <trkpt lat="43.39526" lon="1.25559">
        <ele>196.2</ele>
        <time>2024-07-30T08:29:37Z</time>
      </trkpt>
      <trkpt lat="43.39531" lon="1.25566">
        <ele>196</ele>
        <time>2024-07-30T08:29:38Z</time>
      </trkpt>
      <trkpt lat="43.39537" lon="1.25575">
        <ele>196</ele>
        <time>2024-07-30T08:29:39Z</time>
      </trkpt>
      <trkpt lat="43.39542" lon="1.25583">
        <ele>195.8</ele>
        <time>2024-07-30T08:29:40Z</time>
      </trkpt>
      <trkpt lat="43.39546" lon="1.2559">
        <ele>195.8</ele>
        <time>2024-07-30T08:29:41Z</time>
      </trkpt>
      <trkpt lat="43.39551" lon="1.25597">
        <ele>195.8</ele>
        <time>2024-07-30T08:29:42Z</time>
      </trkpt>
      <trkpt lat="43.39557" lon="1.25606">
        <ele>195.8</ele>
        <time>2024-07-30T08:29:43Z</time>
      </trkpt>
      <trkpt lat="43.39562" lon="1.25613">
        <ele>195.8</ele>
        <time>2024-07-30T08:29:44Z</time>
      </trkpt>
      <trkpt lat="43.39567" lon="1.2562">
        <ele>195.6</ele>
        <time>2024-07-30T08:29:45Z</time>
      </trkpt>
      <trkpt lat="43.3957" lon="1.25626">
        <ele>195.6</ele>
        <time>2024-07-30T08:29:46Z</time>
      </trkpt>
      <trkpt lat="43.39575" lon="1.25633">
        <ele>195.6</ele>
        <time>2024-07-30T08:29:47Z</time>
      </trkpt>
      <trkpt lat="43.39581" lon="1.2564">
        <ele>195.6</ele>
        <time>2024-07-30T08:29:48Z</time>
      </trkpt>
      <trkpt lat="43.39586" lon="1.25646">
        <ele>195.6</ele>
        <time>2024-07-30T08:29:49Z</time>
      </trkpt>
      <trkpt lat="43.39589" lon="1.25651">
        <ele>195.6</ele>
        <time>2024-07-30T08:29:50Z</time>
      </trkpt>
      <trkpt lat="43.39594" lon="1.25656">
        <ele>195.6</ele>
        <time>2024-07-30T08:29:51Z</time>
      </trkpt>
      <trkpt lat="43.39598" lon="1.25661">
        <ele>195.4</ele>
        <time>2024-07-30T08:29:52Z</time>
      </trkpt>
      <trkpt lat="43.39604" lon="1.25667">
        <ele>195.4</ele>
        <time>2024-07-30T08:29:53Z</time>
      </trkpt>
      <trkpt lat="43.39608" lon="1.25671">
        <ele>195.4</ele>
        <time>2024-07-30T08:29:54Z</time>
      </trkpt>
      <trkpt lat="43.39611" lon="1.25674">
        <ele>195.4</ele>
        <time>2024-07-30T08:29:55Z</time>
      </trkpt>
      <trkpt lat="43.39614" lon="1.25677">
        <ele>195.4</ele>
        <time>2024-07-30T08:29:56Z</time>
      </trkpt>
      <trkpt lat="43.39618" lon="1.25679">
        <ele>195</ele>
        <time>2024-07-30T08:29:57Z</time>
      </trkpt>
      <trkpt lat="43.39621" lon="1.2568">
        <ele>195</ele>
        <time>2024-07-30T08:29:58Z</time>
      </trkpt>
      <trkpt lat="43.39624" lon="1.25681">
        <ele>194.8</ele>
        <time>2024-07-30T08:29:59Z</time>
      </trkpt>
      <trkpt lat="43.39627" lon="1.25679">
        <ele>194.8</ele>
        <time>2024-07-30T08:30:00Z</time>
      </trkpt>
      <trkpt lat="43.3963" lon="1.25676">
        <ele>194.8</ele>
        <time>2024-07-30T08:30:01Z</time>
      </trkpt>
      <trkpt lat="43.39632" lon="1.25671">
        <ele>194.8</ele>
        <time>2024-07-30T08:30:02Z</time>
      </trkpt>
      <trkpt lat="43.39633" lon="1.25664">
        <ele>194.6</ele>
        <time>2024-07-30T08:30:03Z</time>
      </trkpt>
      <trkpt lat="43.39634" lon="1.25659">
        <ele>194.4</ele>
        <time>2024-07-30T08:30:04Z</time>
      </trkpt>
      <trkpt lat="43.39634" lon="1.25652">
        <ele>194.2</ele>
        <time>2024-07-30T08:30:05Z</time>
      </trkpt>
      <trkpt lat="43.39634" lon="1.25642">
        <ele>194</ele>
        <time>2024-07-30T08:30:06Z</time>
      </trkpt>
      <trkpt lat="43.39635" lon="1.25634">
        <ele>193.8</ele>
        <time>2024-07-30T08:30:07Z</time>
      </trkpt>
      <trkpt lat="43.39635" lon="1.25625">
        <ele>193.6</ele>
        <time>2024-07-30T08:30:08Z</time>
      </trkpt>
      <trkpt lat="43.39637" lon="1.25619">
        <ele>193.2</ele>
        <time>2024-07-30T08:30:09Z</time>
      </trkpt>
      <trkpt lat="43.39639" lon="1.25611">
        <ele>193.2</ele>
        <time>2024-07-30T08:30:10Z</time>
      </trkpt>
      <trkpt lat="43.39643" lon="1.25604">
        <ele>192.8</ele>
        <time>2024-07-30T08:30:11Z</time>
      </trkpt>
      <trkpt lat="43.39647" lon="1.25597">
        <ele>192.8</ele>
        <time>2024-07-30T08:30:12Z</time>
      </trkpt>
      <trkpt lat="43.39651" lon="1.25593">
        <ele>192.4</ele>
        <time>2024-07-30T08:30:13Z</time>
      </trkpt>
      <trkpt lat="43.39654" lon="1.25588">
        <ele>192.4</ele>
        <time>2024-07-30T08:30:14Z</time>
      </trkpt>
      <trkpt lat="43.39659" lon="1.25583">
        <ele>192.2</ele>
        <time>2024-07-30T08:30:15Z</time>
      </trkpt>
      <trkpt lat="43.39663" lon="1.25579">
        <ele>192.2</ele>
        <time>2024-07-30T08:30:16Z</time>
      </trkpt>
      <trkpt lat="43.39667" lon="1.25575">
        <ele>192</ele>
        <time>2024-07-30T08:30:17Z</time>
      </trkpt>
      <trkpt lat="43.39671" lon="1.25572">
        <ele>192</ele>
        <time>2024-07-30T08:30:18Z</time>
      </trkpt>
      <trkpt lat="43.39674" lon="1.25567">
        <ele>192</ele>
        <time>2024-07-30T08:30:19Z</time>
      </trkpt>
      <trkpt lat="43.39679" lon="1.25562">
        <ele>192</ele>
        <time>2024-07-30T08:30:20Z</time>
      </trkpt>
      <trkpt lat="43.39684" lon="1.25559">
        <ele>192</ele>
        <time>2024-07-30T08:30:21Z</time>
      </trkpt>
      <trkpt lat="43.39688" lon="1.25556">
        <ele>191.8</ele>
        <time>2024-07-30T08:30:22Z</time>
      </trkpt>
      <trkpt lat="43.39693" lon="1.25554">
        <ele>191.8</ele>
        <time>2024-07-30T08:30:23Z</time>
      </trkpt>
      <trkpt lat="43.39701" lon="1.25553">
        <ele>191.8</ele>
        <time>2024-07-30T08:30:24Z</time>
      </trkpt>
      <trkpt lat="43.39707" lon="1.25553">
        <ele>191.4</ele>
        <time>2024-07-30T08:30:25Z</time>
      </trkpt>
      <trkpt lat="43.39713" lon="1.25555">
        <ele>191.4</ele>
        <time>2024-07-30T08:30:26Z</time>
      </trkpt>
      <trkpt lat="43.39719" lon="1.25558">
        <ele>191</ele>
        <time>2024-07-30T08:30:27Z</time>
      </trkpt>
      <trkpt lat="43.39726" lon="1.25562">
        <ele>190.6</ele>
        <time>2024-07-30T08:30:28Z</time>
      </trkpt>
      <trkpt lat="43.39734" lon="1.25567">
        <ele>190.6</ele>
        <time>2024-07-30T08:30:29Z</time>
      </trkpt>
      <trkpt lat="43.39741" lon="1.25572">
        <ele>190.2</ele>
        <time>2024-07-30T08:30:30Z</time>
      </trkpt>
      <trkpt lat="43.39747" lon="1.25575">
        <ele>190</ele>
        <time>2024-07-30T08:30:31Z</time>
      </trkpt>
      <trkpt lat="43.39754" lon="1.25579">
        <ele>189.4</ele>
        <time>2024-07-30T08:30:32Z</time>
      </trkpt>
      <trkpt lat="43.39762" lon="1.25583">
        <ele>189.4</ele>
        <time>2024-07-30T08:30:33Z</time>
      </trkpt>
      <trkpt lat="43.39769" lon="1.25586">
        <ele>189</ele>
        <time>2024-07-30T08:30:34Z</time>
      </trkpt>
      <trkpt lat="43.39775" lon="1.2559">
        <ele>188.6</ele>
        <time>2024-07-30T08:30:35Z</time>
      </trkpt>
      <trkpt lat="43.39781" lon="1.25592">
        <ele>188.4</ele>
        <time>2024-07-30T08:30:36Z</time>
      </trkpt>
      <trkpt lat="43.39787" lon="1.25595">
        <ele>188</ele>
        <time>2024-07-30T08:30:37Z</time>
      </trkpt>
      <trkpt lat="43.39794" lon="1.25599">
        <ele>188</ele>
        <time>2024-07-30T08:30:38Z</time>
      </trkpt>
      <trkpt lat="43.39801" lon="1.25602">
        <ele>187.6</ele>
        <time>2024-07-30T08:30:39Z</time>
      </trkpt>
      <trkpt lat="43.39806" lon="1.25605">
        <ele>187.4</ele>
        <time>2024-07-30T08:30:40Z</time>
      </trkpt>
      <trkpt lat="43.39811" lon="1.25607">
        <ele>187.4</ele>
        <time>2024-07-30T08:30:41Z</time>
      </trkpt>
      <trkpt lat="43.39818" lon="1.25611">
        <ele>187.4</ele>
        <time>2024-07-30T08:30:42Z</time>
      </trkpt>
      <trkpt lat="43.39826" lon="1.25614">
        <ele>187.4</ele>
        <time>2024-07-30T08:30:43Z</time>
      </trkpt>
      <trkpt lat="43.39832" lon="1.25618">
        <ele>187.4</ele>
        <time>2024-07-30T08:30:44Z</time>
      </trkpt>
      <trkpt lat="43.39837" lon="1.2562">
        <ele>187.4</ele>
        <time>2024-07-30T08:30:45Z</time>
      </trkpt>
      <trkpt lat="43.39844" lon="1.25623">
        <ele>187.4</ele>
        <time>2024-07-30T08:30:46Z</time>
      </trkpt>
      <trkpt lat="43.3985" lon="1.25626">
        <ele>187.4</ele>
        <time>2024-07-30T08:30:47Z</time>
      </trkpt>
      <trkpt lat="43.39859" lon="1.2563">
        <ele>187.4</ele>
        <time>2024-07-30T08:30:48Z</time>
      </trkpt>
      <trkpt lat="43.39866" lon="1.25634">
        <ele>187.4</ele>
        <time>2024-07-30T08:30:49Z</time>
      </trkpt>
      <trkpt lat="43.39871" lon="1.25637">
        <ele>187.4</ele>
        <time>2024-07-30T08:30:50Z</time>
      </trkpt>
      <trkpt lat="43.39878" lon="1.2564">
        <ele>187.4</ele>
        <time>2024-07-30T08:30:51Z</time>
      </trkpt>
      <trkpt lat="43.39885" lon="1.25644">
        <ele>187.4</ele>
        <time>2024-07-30T08:30:52Z</time>
      </trkpt>
      <trkpt lat="43.39894" lon="1.25648">
        <ele>187.4</ele>
        <time>2024-07-30T08:30:53Z</time>
      </trkpt>
      <trkpt lat="43.39899" lon="1.25651">
        <ele>187.2</ele>
        <time>2024-07-30T08:30:54Z</time>
      </trkpt>
      <trkpt lat="43.39906" lon="1.25654">
        <ele>187.2</ele>
        <time>2024-07-30T08:30:55Z</time>
      </trkpt>
      <trkpt lat="43.39915" lon="1.25658">
        <ele>187.2</ele>
        <time>2024-07-30T08:30:56Z</time>
      </trkpt>
      <trkpt lat="43.39922" lon="1.25662">
        <ele>187.2</ele>
        <time>2024-07-30T08:30:57Z</time>
      </trkpt>
      <trkpt lat="43.39929" lon="1.25665">
        <ele>187.2</ele>
        <time>2024-07-30T08:30:58Z</time>
      </trkpt>
      <trkpt lat="43.39934" lon="1.25668">
        <ele>187</ele>
        <time>2024-07-30T08:30:59Z</time>
      </trkpt>
      <trkpt lat="43.39941" lon="1.25671">
        <ele>187</ele>
        <time>2024-07-30T08:31:00Z</time>
      </trkpt>
      <trkpt lat="43.3995" lon="1.25675">
        <ele>187</ele>
        <time>2024-07-30T08:31:01Z</time>
      </trkpt>
      <trkpt lat="43.39957" lon="1.25679">
        <ele>187</ele>
        <time>2024-07-30T08:31:02Z</time>
      </trkpt>
      <trkpt lat="43.39965" lon="1.25682">
        <ele>187</ele>
        <time>2024-07-30T08:31:03Z</time>
      </trkpt>
      <trkpt lat="43.39971" lon="1.25685">
        <ele>187</ele>
        <time>2024-07-30T08:31:04Z</time>
      </trkpt>
      <trkpt lat="43.39978" lon="1.25689">
        <ele>187</ele>
        <time>2024-07-30T08:31:05Z</time>
      </trkpt>
      <trkpt lat="43.39986" lon="1.25694">
        <ele>187</ele>
        <time>2024-07-30T08:31:06Z</time>
      </trkpt>
      <trkpt lat="43.39993" lon="1.25698">
        <ele>187</ele>
        <time>2024-07-30T08:31:07Z</time>
      </trkpt>
      <trkpt lat="43.39999" lon="1.25701">
        <ele>186.8</ele>
        <time>2024-07-30T08:31:08Z</time>
      </trkpt>
      <trkpt lat="43.40006" lon="1.25705">
        <ele>186.8</ele>
        <time>2024-07-30T08:31:09Z</time>
      </trkpt>
      <trkpt lat="43.40015" lon="1.25709">
        <ele>186.8</ele>
        <time>2024-07-30T08:31:10Z</time>
      </trkpt>
      <trkpt lat="43.40022" lon="1.25713">
        <ele>186.8</ele>
        <time>2024-07-30T08:31:11Z</time>
      </trkpt>
      <trkpt lat="43.40029" lon="1.25717">
        <ele>186.8</ele>
        <time>2024-07-30T08:31:12Z</time>
      </trkpt>
      <trkpt lat="43.40034" lon="1.2572">
        <ele>186.8</ele>
        <time>2024-07-30T08:31:13Z</time>
      </trkpt>
      <trkpt lat="43.40041" lon="1.25725">
        <ele>186.8</ele>
        <time>2024-07-30T08:31:14Z</time>
      </trkpt>
      <trkpt lat="43.40048" lon="1.25729">
        <ele>186.8</ele>
        <time>2024-07-30T08:31:15Z</time>
      </trkpt>
      <trkpt lat="43.40057" lon="1.25735">
        <ele>186.8</ele>
        <time>2024-07-30T08:31:16Z</time>
      </trkpt>
      <trkpt lat="43.40062" lon="1.25739">
        <ele>186.8</ele>
        <time>2024-07-30T08:31:17Z</time>
      </trkpt>
      <trkpt lat="43.40068" lon="1.25744">
        <ele>186.8</ele>
        <time>2024-07-30T08:31:18Z</time>
      </trkpt>
      <trkpt lat="43.40075" lon="1.2575">
        <ele>186.8</ele>
        <time>2024-07-30T08:31:19Z</time>
      </trkpt>
      <trkpt lat="43.40082" lon="1.25758">
        <ele>186.8</ele>
        <time>2024-07-30T08:31:20Z</time>
      </trkpt>
      <trkpt lat="43.40088" lon="1.25765">
        <ele>186.6</ele>
        <time>2024-07-30T08:31:21Z</time>
      </trkpt>
      <trkpt lat="43.40093" lon="1.2577">
        <ele>186.6</ele>
        <time>2024-07-30T08:31:22Z</time>
      </trkpt>
      <trkpt lat="43.40099" lon="1.25777">
        <ele>186.6</ele>
        <time>2024-07-30T08:31:23Z</time>
      </trkpt>
      <trkpt lat="43.40105" lon="1.25785">
        <ele>186.4</ele>
        <time>2024-07-30T08:31:24Z</time>
      </trkpt>
      <trkpt lat="43.40111" lon="1.25792">
        <ele>186.4</ele>
        <time>2024-07-30T08:31:25Z</time>
      </trkpt>
      <trkpt lat="43.40117" lon="1.25799">
        <ele>186.4</ele>
        <time>2024-07-30T08:31:26Z</time>
      </trkpt>
      <trkpt lat="43.40121" lon="1.25804">
        <ele>186.4</ele>
        <time>2024-07-30T08:31:27Z</time>
      </trkpt>
      <trkpt lat="43.40127" lon="1.2581">
        <ele>186.4</ele>
        <time>2024-07-30T08:31:28Z</time>
      </trkpt>
      <trkpt lat="43.40135" lon="1.25818">
        <ele>186.4</ele>
        <time>2024-07-30T08:31:29Z</time>
      </trkpt>
      <trkpt lat="43.40141" lon="1.25824">
        <ele>186.4</ele>
        <time>2024-07-30T08:31:30Z</time>
      </trkpt>
      <trkpt lat="43.40146" lon="1.25828">
        <ele>186.4</ele>
        <time>2024-07-30T08:31:31Z</time>
      </trkpt>
      <trkpt lat="43.40152" lon="1.25833">
        <ele>186.4</ele>
        <time>2024-07-30T08:31:32Z</time>
      </trkpt>
      <trkpt lat="43.4016" lon="1.25839">
        <ele>186.4</ele>
        <time>2024-07-30T08:31:33Z</time>
      </trkpt>
      <trkpt lat="43.40167" lon="1.25842">
        <ele>186.4</ele>
        <time>2024-07-30T08:31:34Z</time>
      </trkpt>
      <trkpt lat="43.40174" lon="1.25843">
        <ele>186.4</ele>
        <time>2024-07-30T08:31:35Z</time>
      </trkpt>
      <trkpt lat="43.4018" lon="1.25844">
        <ele>186.4</ele>
        <time>2024-07-30T08:31:36Z</time>
      </trkpt>
      <trkpt lat="43.40187" lon="1.25843">
        <ele>186.4</ele>
        <time>2024-07-30T08:31:37Z</time>
      </trkpt>
      <trkpt lat="43.40196" lon="1.25842">
        <ele>186.4</ele>
        <time>2024-07-30T08:31:38Z</time>
      </trkpt>
      <trkpt lat="43.40203" lon="1.25841">
        <ele>186.4</ele>
        <time>2024-07-30T08:31:39Z</time>
      </trkpt>
      <trkpt lat="43.40211" lon="1.25841">
        <ele>186.4</ele>
        <time>2024-07-30T08:31:40Z</time>
      </trkpt>
      <trkpt lat="43.40216" lon="1.25842">
        <ele>186.2</ele>
        <time>2024-07-30T08:31:41Z</time>
      </trkpt>
      <trkpt lat="43.40225" lon="1.25845">
        <ele>186</ele>
        <time>2024-07-30T08:31:42Z</time>
      </trkpt>
      <trkpt lat="43.40232" lon="1.25849">
        <ele>186</ele>
        <time>2024-07-30T08:31:43Z</time>
      </trkpt>
      <trkpt lat="43.40237" lon="1.25853">
        <ele>186</ele>
        <time>2024-07-30T08:31:44Z</time>
      </trkpt>
      <trkpt lat="43.40243" lon="1.25858">
        <ele>186</ele>
        <time>2024-07-30T08:31:45Z</time>
      </trkpt>
      <trkpt lat="43.40249" lon="1.25863">
        <ele>186</ele>
        <time>2024-07-30T08:31:46Z</time>
      </trkpt>
      <trkpt lat="43.40257" lon="1.2587">
        <ele>186</ele>
        <time>2024-07-30T08:31:47Z</time>
      </trkpt>
      <trkpt lat="43.40263" lon="1.25875">
        <ele>186</ele>
        <time>2024-07-30T08:31:48Z</time>
      </trkpt>
      <trkpt lat="43.40268" lon="1.2588">
        <ele>186</ele>
        <time>2024-07-30T08:31:49Z</time>
      </trkpt>
      <trkpt lat="43.40274" lon="1.25886">
        <ele>186.2</ele>
        <time>2024-07-30T08:31:50Z</time>
      </trkpt>
      <trkpt lat="43.40281" lon="1.25894">
        <ele>186.2</ele>
        <time>2024-07-30T08:31:51Z</time>
      </trkpt>
      <trkpt lat="43.40287" lon="1.259">
        <ele>186.2</ele>
        <time>2024-07-30T08:31:52Z</time>
      </trkpt>
      <trkpt lat="43.40292" lon="1.25905">
        <ele>186.2</ele>
        <time>2024-07-30T08:31:53Z</time>
      </trkpt>
      <trkpt lat="43.40298" lon="1.25911">
        <ele>186</ele>
        <time>2024-07-30T08:31:54Z</time>
      </trkpt>
      <trkpt lat="43.40305" lon="1.25917">
        <ele>186.2</ele>
        <time>2024-07-30T08:31:55Z</time>
      </trkpt>
      <trkpt lat="43.40312" lon="1.25923">
        <ele>186.2</ele>
        <time>2024-07-30T08:31:56Z</time>
      </trkpt>
      <trkpt lat="43.40317" lon="1.25927">
        <ele>186.2</ele>
        <time>2024-07-30T08:31:57Z</time>
      </trkpt>
      <trkpt lat="43.40324" lon="1.25932">
        <ele>186.4</ele>
        <time>2024-07-30T08:31:58Z</time>
      </trkpt>
      <trkpt lat="43.4033" lon="1.25937">
        <ele>186.4</ele>
        <time>2024-07-30T08:31:59Z</time>
      </trkpt>
      <trkpt lat="43.40336" lon="1.25942">
        <ele>186.6</ele>
        <time>2024-07-30T08:32:00Z</time>
      </trkpt>
      <trkpt lat="43.40343" lon="1.25949">
        <ele>186.8</ele>
        <time>2024-07-30T08:32:01Z</time>
      </trkpt>
      <trkpt lat="43.40348" lon="1.25955">
        <ele>186.8</ele>
        <time>2024-07-30T08:32:02Z</time>
      </trkpt>
      <trkpt lat="43.40353" lon="1.25961">
        <ele>187</ele>
        <time>2024-07-30T08:32:03Z</time>
      </trkpt>
      <trkpt lat="43.40358" lon="1.25968">
        <ele>187.2</ele>
        <time>2024-07-30T08:32:04Z</time>
      </trkpt>
      <trkpt lat="43.40363" lon="1.25977">
        <ele>187.4</ele>
        <time>2024-07-30T08:32:05Z</time>
      </trkpt>
      <trkpt lat="43.40366" lon="1.25985">
        <ele>187.6</ele>
        <time>2024-07-30T08:32:06Z</time>
      </trkpt>
      <trkpt lat="43.40369" lon="1.25992">
        <ele>188</ele>
        <time>2024-07-30T08:32:07Z</time>
      </trkpt>
      <trkpt lat="43.40372" lon="1.26001">
        <ele>188.2</ele>
        <time>2024-07-30T08:32:08Z</time>
      </trkpt>
      <trkpt lat="43.40374" lon="1.26011">
        <ele>188.4</ele>
        <time>2024-07-30T08:32:09Z</time>
      </trkpt>
      <trkpt lat="43.40378" lon="1.26022">
        <ele>188.8</ele>
        <time>2024-07-30T08:32:10Z</time>
      </trkpt>
      <trkpt lat="43.4038" lon="1.26032">
        <ele>189</ele>
        <time>2024-07-30T08:32:11Z</time>
      </trkpt>
      <trkpt lat="43.40382" lon="1.26041">
        <ele>189.4</ele>
        <time>2024-07-30T08:32:12Z</time>
      </trkpt>
      <trkpt lat="43.40385" lon="1.26051">
        <ele>189.8</ele>
        <time>2024-07-30T08:32:13Z</time>
      </trkpt>
      <trkpt lat="43.40388" lon="1.26063">
        <ele>190</ele>
        <time>2024-07-30T08:32:14Z</time>
      </trkpt>
      <trkpt lat="43.40391" lon="1.26074">
        <ele>190.4</ele>
        <time>2024-07-30T08:32:15Z</time>
      </trkpt>
      <trkpt lat="43.40393" lon="1.26082">
        <ele>190.6</ele>
        <time>2024-07-30T08:32:16Z</time>
      </trkpt>
      <trkpt lat="43.40396" lon="1.26092">
        <ele>190.8</ele>
        <time>2024-07-30T08:32:17Z</time>
      </trkpt>
      <trkpt lat="43.40399" lon="1.26102">
        <ele>191</ele>
        <time>2024-07-30T08:32:18Z</time>
      </trkpt>
      <trkpt lat="43.40404" lon="1.26114">
        <ele>191</ele>
        <time>2024-07-30T08:32:19Z</time>
      </trkpt>
      <trkpt lat="43.40407" lon="1.26121">
        <ele>191</ele>
        <time>2024-07-30T08:32:20Z</time>
      </trkpt>
      <trkpt lat="43.40412" lon="1.26133">
        <ele>191</ele>
        <time>2024-07-30T08:32:21Z</time>
      </trkpt>
      <trkpt lat="43.40414" lon="1.26141">
        <ele>191.2</ele>
        <time>2024-07-30T08:32:22Z</time>
      </trkpt>
      <trkpt lat="43.40418" lon="1.2615">
        <ele>191.2</ele>
        <time>2024-07-30T08:32:23Z</time>
      </trkpt>
      <trkpt lat="43.40422" lon="1.26162">
        <ele>191.2</ele>
        <time>2024-07-30T08:32:24Z</time>
      </trkpt>
      <trkpt lat="43.40425" lon="1.26171">
        <ele>191.2</ele>
        <time>2024-07-30T08:32:25Z</time>
      </trkpt>
      <trkpt lat="43.40427" lon="1.26179">
        <ele>191.4</ele>
        <time>2024-07-30T08:32:26Z</time>
      </trkpt>
      <trkpt lat="43.40429" lon="1.26189">
        <ele>191.4</ele>
        <time>2024-07-30T08:32:27Z</time>
      </trkpt>
      <trkpt lat="43.40432" lon="1.26199">
        <ele>191.4</ele>
        <time>2024-07-30T08:32:28Z</time>
      </trkpt>
      <trkpt lat="43.40435" lon="1.26211">
        <ele>191.6</ele>
        <time>2024-07-30T08:32:29Z</time>
      </trkpt>
      <trkpt lat="43.40437" lon="1.26221">
        <ele>191.6</ele>
        <time>2024-07-30T08:32:30Z</time>
      </trkpt>
      <trkpt lat="43.40439" lon="1.2623">
        <ele>191.6</ele>
        <time>2024-07-30T08:32:31Z</time>
      </trkpt>
      <trkpt lat="43.40441" lon="1.2624">
        <ele>191.6</ele>
        <time>2024-07-30T08:32:32Z</time>
      </trkpt>
      <trkpt lat="43.40444" lon="1.2625">
        <ele>191.8</ele>
        <time>2024-07-30T08:32:33Z</time>
      </trkpt>
      <trkpt lat="43.40447" lon="1.26262">
        <ele>191.8</ele>
        <time>2024-07-30T08:32:34Z</time>
      </trkpt>
      <trkpt lat="43.40449" lon="1.2627">
        <ele>191.8</ele>
        <time>2024-07-30T08:32:35Z</time>
      </trkpt>
      <trkpt lat="43.40452" lon="1.2628">
        <ele>192</ele>
        <time>2024-07-30T08:32:36Z</time>
      </trkpt>
      <trkpt lat="43.40456" lon="1.26291">
        <ele>192</ele>
        <time>2024-07-30T08:32:37Z</time>
      </trkpt>
      <trkpt lat="43.4046" lon="1.26301">
        <ele>192</ele>
        <time>2024-07-30T08:32:38Z</time>
      </trkpt>
      <trkpt lat="43.40462" lon="1.26309">
        <ele>192.2</ele>
        <time>2024-07-30T08:32:39Z</time>
      </trkpt>
      <trkpt lat="43.40466" lon="1.26319">
        <ele>192.2</ele>
        <time>2024-07-30T08:32:40Z</time>
      </trkpt>
      <trkpt lat="43.4047" lon="1.26328">
        <ele>192.2</ele>
        <time>2024-07-30T08:32:41Z</time>
      </trkpt>
      <trkpt lat="43.40475" lon="1.26337">
        <ele>192.2</ele>
        <time>2024-07-30T08:32:42Z</time>
      </trkpt>
      <trkpt lat="43.40479" lon="1.26346">
        <ele>192.2</ele>
        <time>2024-07-30T08:32:43Z</time>
      </trkpt>
      <trkpt lat="43.40484" lon="1.26355">
        <ele>192.2</ele>
        <time>2024-07-30T08:32:44Z</time>
      </trkpt>
      <trkpt lat="43.40489" lon="1.26364">
        <ele>192.2</ele>
        <time>2024-07-30T08:32:45Z</time>
      </trkpt>
      <trkpt lat="43.40494" lon="1.26373">
        <ele>192.2</ele>
        <time>2024-07-30T08:32:46Z</time>
      </trkpt>
      <trkpt lat="43.405" lon="1.26381">
        <ele>192.2</ele>
        <time>2024-07-30T08:32:47Z</time>
      </trkpt>
      <trkpt lat="43.40505" lon="1.26388">
        <ele>192.2</ele>
        <time>2024-07-30T08:32:48Z</time>
      </trkpt>
      <trkpt lat="43.40511" lon="1.26396">
        <ele>192.2</ele>
        <time>2024-07-30T08:32:49Z</time>
      </trkpt>
      <trkpt lat="43.40516" lon="1.26403">
        <ele>192.2</ele>
        <time>2024-07-30T08:32:50Z</time>
      </trkpt>
      <trkpt lat="43.40522" lon="1.2641">
        <ele>192.2</ele>
        <time>2024-07-30T08:32:51Z</time>
      </trkpt>
      <trkpt lat="43.40528" lon="1.26417">
        <ele>192.4</ele>
        <time>2024-07-30T08:32:52Z</time>
      </trkpt>
      <trkpt lat="43.40534" lon="1.26424">
        <ele>192.4</ele>
        <time>2024-07-30T08:32:53Z</time>
      </trkpt>
      <trkpt lat="43.4054" lon="1.2643">
        <ele>192.4</ele>
        <time>2024-07-30T08:32:54Z</time>
      </trkpt>
      <trkpt lat="43.40547" lon="1.26436">
        <ele>192.4</ele>
        <time>2024-07-30T08:32:55Z</time>
      </trkpt>
      <trkpt lat="43.40554" lon="1.26442">
        <ele>192.4</ele>
        <time>2024-07-30T08:32:56Z</time>
      </trkpt>
      <trkpt lat="43.40561" lon="1.26448">
        <ele>192.4</ele>
        <time>2024-07-30T08:32:57Z</time>
      </trkpt>
      <trkpt lat="43.40568" lon="1.26454">
        <ele>192.4</ele>
        <time>2024-07-30T08:32:58Z</time>
      </trkpt>
      <trkpt lat="43.40575" lon="1.2646">
        <ele>192.4</ele>
        <time>2024-07-30T08:32:59Z</time>
      </trkpt>
      <trkpt lat="43.40581" lon="1.26465">
        <ele>192.4</ele>
        <time>2024-07-30T08:33:00Z</time>
      </trkpt>
      <trkpt lat="43.40588" lon="1.26471">
        <ele>192.4</ele>
        <time>2024-07-30T08:33:01Z</time>
      </trkpt>
      <trkpt lat="43.40596" lon="1.26477">
        <ele>192.4</ele>
        <time>2024-07-30T08:33:02Z</time>
      </trkpt>
      <trkpt lat="43.40603" lon="1.26482">
        <ele>192.4</ele>
        <time>2024-07-30T08:33:03Z</time>
      </trkpt>
      <trkpt lat="43.4061" lon="1.26487">
        <ele>192.4</ele>
        <time>2024-07-30T08:33:04Z</time>
      </trkpt>
      <trkpt lat="43.40618" lon="1.2649">
        <ele>192.4</ele>
        <time>2024-07-30T08:33:05Z</time>
      </trkpt>
      <trkpt lat="43.40626" lon="1.26493">
        <ele>192.4</ele>
        <time>2024-07-30T08:33:06Z</time>
      </trkpt>
      <trkpt lat="43.40633" lon="1.26495">
        <ele>192.4</ele>
        <time>2024-07-30T08:33:07Z</time>
      </trkpt>
      <trkpt lat="43.40641" lon="1.26498">
        <ele>192.4</ele>
        <time>2024-07-30T08:33:08Z</time>
      </trkpt>
      <trkpt lat="43.40649" lon="1.265">
        <ele>192.4</ele>
        <time>2024-07-30T08:33:09Z</time>
      </trkpt>
      <trkpt lat="43.40656" lon="1.26503">
        <ele>192.4</ele>
        <time>2024-07-30T08:33:10Z</time>
      </trkpt>
      <trkpt lat="43.40663" lon="1.26506">
        <ele>192.4</ele>
        <time>2024-07-30T08:33:11Z</time>
      </trkpt>
      <trkpt lat="43.40671" lon="1.26509">
        <ele>192.4</ele>
        <time>2024-07-30T08:33:12Z</time>
      </trkpt>
      <trkpt lat="43.40678" lon="1.26514">
        <ele>192.4</ele>
        <time>2024-07-30T08:33:13Z</time>
      </trkpt>
      <trkpt lat="43.40686" lon="1.26519">
        <ele>192.4</ele>
        <time>2024-07-30T08:33:14Z</time>
      </trkpt>
      <trkpt lat="43.40693" lon="1.26524">
        <ele>192.4</ele>
        <time>2024-07-30T08:33:15Z</time>
      </trkpt>
      <trkpt lat="43.40701" lon="1.26531">
        <ele>192.4</ele>
        <time>2024-07-30T08:33:16Z</time>
      </trkpt>
      <trkpt lat="43.40706" lon="1.26535">
        <ele>192.6</ele>
        <time>2024-07-30T08:33:17Z</time>
      </trkpt>
      <trkpt lat="43.40713" lon="1.26541">
        <ele>192.6</ele>
        <time>2024-07-30T08:33:18Z</time>
      </trkpt>
      <trkpt lat="43.40719" lon="1.26548">
        <ele>192.6</ele>
        <time>2024-07-30T08:33:19Z</time>
      </trkpt>
      <trkpt lat="43.40726" lon="1.26554">
        <ele>192.6</ele>
        <time>2024-07-30T08:33:20Z</time>
      </trkpt>
      <trkpt lat="43.40732" lon="1.26561">
        <ele>192.6</ele>
        <time>2024-07-30T08:33:21Z</time>
      </trkpt>
      <trkpt lat="43.40739" lon="1.26567">
        <ele>192.6</ele>
        <time>2024-07-30T08:33:22Z</time>
      </trkpt>
      <trkpt lat="43.40745" lon="1.26573">
        <ele>192.6</ele>
        <time>2024-07-30T08:33:23Z</time>
      </trkpt>
      <trkpt lat="43.40752" lon="1.2658">
        <ele>192.6</ele>
        <time>2024-07-30T08:33:24Z</time>
      </trkpt>
      <trkpt lat="43.40758" lon="1.26586">
        <ele>192.6</ele>
        <time>2024-07-30T08:33:25Z</time>
      </trkpt>
      <trkpt lat="43.40765" lon="1.26593">
        <ele>192.8</ele>
        <time>2024-07-30T08:33:26Z</time>
      </trkpt>
      <trkpt lat="43.40771" lon="1.26599">
        <ele>192.8</ele>
        <time>2024-07-30T08:33:27Z</time>
      </trkpt>
      <trkpt lat="43.40777" lon="1.26606">
        <ele>192.8</ele>
        <time>2024-07-30T08:33:28Z</time>
      </trkpt>
      <trkpt lat="43.40784" lon="1.26613">
        <ele>192.8</ele>
        <time>2024-07-30T08:33:29Z</time>
      </trkpt>
      <trkpt lat="43.4079" lon="1.26619">
        <ele>192.8</ele>
        <time>2024-07-30T08:33:30Z</time>
      </trkpt>
      <trkpt lat="43.40796" lon="1.26626">
        <ele>192.8</ele>
        <time>2024-07-30T08:33:31Z</time>
      </trkpt>
      <trkpt lat="43.40802" lon="1.26633">
        <ele>192.8</ele>
        <time>2024-07-30T08:33:32Z</time>
      </trkpt>
      <trkpt lat="43.40809" lon="1.2664">
        <ele>192.8</ele>
        <time>2024-07-30T08:33:33Z</time>
      </trkpt>
      <trkpt lat="43.40815" lon="1.26647">
        <ele>192.8</ele>
        <time>2024-07-30T08:33:34Z</time>
      </trkpt>
      <trkpt lat="43.40821" lon="1.26653">
        <ele>192.8</ele>
        <time>2024-07-30T08:33:35Z</time>
      </trkpt>
      <trkpt lat="43.40828" lon="1.2666">
        <ele>192.8</ele>
        <time>2024-07-30T08:33:36Z</time>
      </trkpt>
      <trkpt lat="43.40834" lon="1.26667">
        <ele>192.8</ele>
        <time>2024-07-30T08:33:37Z</time>
      </trkpt>
      <trkpt lat="43.4084" lon="1.26674">
        <ele>192.8</ele>
        <time>2024-07-30T08:33:38Z</time>
      </trkpt>
      <trkpt lat="43.40846" lon="1.26682">
        <ele>192.8</ele>
        <time>2024-07-30T08:33:39Z</time>
      </trkpt>
      <trkpt lat="43.40852" lon="1.26689">
        <ele>192.8</ele>
        <time>2024-07-30T08:33:40Z</time>
      </trkpt>
      <trkpt lat="43.40858" lon="1.26697">
        <ele>192.8</ele>
        <time>2024-07-30T08:33:41Z</time>
      </trkpt>
      <trkpt lat="43.40864" lon="1.26705">
        <ele>192.8</ele>
        <time>2024-07-30T08:33:42Z</time>
      </trkpt>
      <trkpt lat="43.40869" lon="1.26713">
        <ele>192.8</ele>
        <time>2024-07-30T08:33:43Z</time>
      </trkpt>
      <trkpt lat="43.40875" lon="1.26722">
        <ele>192.8</ele>
        <time>2024-07-30T08:33:44Z</time>
      </trkpt>
      <trkpt lat="43.40881" lon="1.2673">
        <ele>192.8</ele>
        <time>2024-07-30T08:33:45Z</time>
      </trkpt>
      <trkpt lat="43.40886" lon="1.26739">
        <ele>192.8</ele>
        <time>2024-07-30T08:33:46Z</time>
      </trkpt>
      <trkpt lat="43.40891" lon="1.26747">
        <ele>192.8</ele>
        <time>2024-07-30T08:33:47Z</time>
      </trkpt>
      <trkpt lat="43.40897" lon="1.26756">
        <ele>192.8</ele>
        <time>2024-07-30T08:33:48Z</time>
      </trkpt>
      <trkpt lat="43.40902" lon="1.26764">
        <ele>192.8</ele>
        <time>2024-07-30T08:33:49Z</time>
      </trkpt>
      <trkpt lat="43.40908" lon="1.26772">
        <ele>192.6</ele>
        <time>2024-07-30T08:33:50Z</time>
      </trkpt>
      <trkpt lat="43.40914" lon="1.2678">
        <ele>192.6</ele>
        <time>2024-07-30T08:33:51Z</time>
      </trkpt>
      <trkpt lat="43.4092" lon="1.26788">
        <ele>192.6</ele>
        <time>2024-07-30T08:33:52Z</time>
      </trkpt>
      <trkpt lat="43.40926" lon="1.26795">
        <ele>192.6</ele>
        <time>2024-07-30T08:33:53Z</time>
      </trkpt>
      <trkpt lat="43.40932" lon="1.26802">
        <ele>192.6</ele>
        <time>2024-07-30T08:33:54Z</time>
      </trkpt>
      <trkpt lat="43.40939" lon="1.26809">
        <ele>192.6</ele>
        <time>2024-07-30T08:33:55Z</time>
      </trkpt>
      <trkpt lat="43.40945" lon="1.26816">
        <ele>192.6</ele>
        <time>2024-07-30T08:33:56Z</time>
      </trkpt>
      <trkpt lat="43.40952" lon="1.26822">
        <ele>192.6</ele>
        <time>2024-07-30T08:33:57Z</time>
      </trkpt>
      <trkpt lat="43.40959" lon="1.26828">
        <ele>192.6</ele>
        <time>2024-07-30T08:33:58Z</time>
      </trkpt>
      <trkpt lat="43.40965" lon="1.26835">
        <ele>192.4</ele>
        <time>2024-07-30T08:33:59Z</time>
      </trkpt>
      <trkpt lat="43.40972" lon="1.26841">
        <ele>192.4</ele>
        <time>2024-07-30T08:34:00Z</time>
      </trkpt>
      <trkpt lat="43.40979" lon="1.26847">
        <ele>192.6</ele>
        <time>2024-07-30T08:34:01Z</time>
      </trkpt>
      <trkpt lat="43.40985" lon="1.26853">
        <ele>192.6</ele>
        <time>2024-07-30T08:34:02Z</time>
      </trkpt>
      <trkpt lat="43.40992" lon="1.26859">
        <ele>192.6</ele>
        <time>2024-07-30T08:34:03Z</time>
      </trkpt>
      <trkpt lat="43.40999" lon="1.26865">
        <ele>192.6</ele>
        <time>2024-07-30T08:34:04Z</time>
      </trkpt>
      <trkpt lat="43.41006" lon="1.2687">
        <ele>192.4</ele>
        <time>2024-07-30T08:34:05Z</time>
      </trkpt>
      <trkpt lat="43.41013" lon="1.26876">
        <ele>192.4</ele>
        <time>2024-07-30T08:34:06Z</time>
      </trkpt>
      <trkpt lat="43.4102" lon="1.26882">
        <ele>192.2</ele>
        <time>2024-07-30T08:34:07Z</time>
      </trkpt>
      <trkpt lat="43.41027" lon="1.26887">
        <ele>192.4</ele>
        <time>2024-07-30T08:34:08Z</time>
      </trkpt>
      <trkpt lat="43.41034" lon="1.26893">
        <ele>192.2</ele>
        <time>2024-07-30T08:34:09Z</time>
      </trkpt>
      <trkpt lat="43.41041" lon="1.26898">
        <ele>192.2</ele>
        <time>2024-07-30T08:34:10Z</time>
      </trkpt>
      <trkpt lat="43.41048" lon="1.26903">
        <ele>192</ele>
        <time>2024-07-30T08:34:11Z</time>
      </trkpt>
      <trkpt lat="43.41056" lon="1.26908">
        <ele>191.6</ele>
        <time>2024-07-30T08:34:12Z</time>
      </trkpt>
      <trkpt lat="43.41063" lon="1.26914">
        <ele>191.6</ele>
        <time>2024-07-30T08:34:13Z</time>
      </trkpt>
      <trkpt lat="43.4107" lon="1.26919">
        <ele>191.6</ele>
        <time>2024-07-30T08:34:14Z</time>
      </trkpt>
      <trkpt lat="43.41077" lon="1.26924">
        <ele>191.6</ele>
        <time>2024-07-30T08:34:15Z</time>
      </trkpt>
      <trkpt lat="43.41084" lon="1.2693">
        <ele>191.4</ele>
        <time>2024-07-30T08:34:16Z</time>
      </trkpt>
      <trkpt lat="43.41092" lon="1.26937">
        <ele>191.8</ele>
        <time>2024-07-30T08:34:17Z</time>
      </trkpt>
      <trkpt lat="43.41098" lon="1.26941">
        <ele>191.4</ele>
        <time>2024-07-30T08:34:18Z</time>
      </trkpt>
      <trkpt lat="43.41105" lon="1.26947">
        <ele>191.4</ele>
        <time>2024-07-30T08:34:19Z</time>
      </trkpt>
      <trkpt lat="43.41113" lon="1.26954">
        <ele>191.4</ele>
        <time>2024-07-30T08:34:20Z</time>
      </trkpt>
      <trkpt lat="43.41118" lon="1.26959">
        <ele>191.2</ele>
        <time>2024-07-30T08:34:21Z</time>
      </trkpt>
      <trkpt lat="43.41125" lon="1.26966">
        <ele>191.2</ele>
        <time>2024-07-30T08:34:22Z</time>
      </trkpt>
      <trkpt lat="43.41132" lon="1.26972">
        <ele>191.2</ele>
        <time>2024-07-30T08:34:23Z</time>
      </trkpt>
      <trkpt lat="43.41138" lon="1.26979">
        <ele>191.2</ele>
        <time>2024-07-30T08:34:24Z</time>
      </trkpt>
      <trkpt lat="43.41145" lon="1.26985">
        <ele>191.2</ele>
        <time>2024-07-30T08:34:25Z</time>
      </trkpt>
      <trkpt lat="43.41151" lon="1.26992">
        <ele>191.2</ele>
        <time>2024-07-30T08:34:26Z</time>
      </trkpt>
      <trkpt lat="43.41158" lon="1.26998">
        <ele>191.2</ele>
        <time>2024-07-30T08:34:27Z</time>
      </trkpt>
      <trkpt lat="43.41164" lon="1.27005">
        <ele>191</ele>
        <time>2024-07-30T08:34:28Z</time>
      </trkpt>
      <trkpt lat="43.41171" lon="1.27011">
        <ele>191</ele>
        <time>2024-07-30T08:34:29Z</time>
      </trkpt>
      <trkpt lat="43.41178" lon="1.27018">
        <ele>191</ele>
        <time>2024-07-30T08:34:30Z</time>
      </trkpt>
      <trkpt lat="43.41184" lon="1.27025">
        <ele>191</ele>
        <time>2024-07-30T08:34:31Z</time>
      </trkpt>
      <trkpt lat="43.4119" lon="1.27031">
        <ele>191</ele>
        <time>2024-07-30T08:34:32Z</time>
      </trkpt>
      <trkpt lat="43.41197" lon="1.27038">
        <ele>191</ele>
        <time>2024-07-30T08:34:33Z</time>
      </trkpt>
      <trkpt lat="43.41203" lon="1.27044">
        <ele>191</ele>
        <time>2024-07-30T08:34:34Z</time>
      </trkpt>
      <trkpt lat="43.4121" lon="1.27051">
        <ele>191</ele>
        <time>2024-07-30T08:34:35Z</time>
      </trkpt>
      <trkpt lat="43.41215" lon="1.27057">
        <ele>191</ele>
        <time>2024-07-30T08:34:36Z</time>
      </trkpt>
      <trkpt lat="43.41221" lon="1.27063">
        <ele>191</ele>
        <time>2024-07-30T08:34:37Z</time>
      </trkpt>
      <trkpt lat="43.41228" lon="1.2707">
        <ele>191</ele>
        <time>2024-07-30T08:34:38Z</time>
      </trkpt>
      <trkpt lat="43.41233" lon="1.27075">
        <ele>191</ele>
        <time>2024-07-30T08:34:39Z</time>
      </trkpt>
      <trkpt lat="43.41238" lon="1.27082">
        <ele>191.2</ele>
        <time>2024-07-30T08:34:40Z</time>
      </trkpt>
      <trkpt lat="43.41244" lon="1.27088">
        <ele>191.2</ele>
        <time>2024-07-30T08:34:41Z</time>
      </trkpt>
      <trkpt lat="43.4125" lon="1.27094">
        <ele>191.2</ele>
        <time>2024-07-30T08:34:42Z</time>
      </trkpt>
      <trkpt lat="43.41257" lon="1.27101">
        <ele>191</ele>
        <time>2024-07-30T08:34:43Z</time>
      </trkpt>
      <trkpt lat="43.41262" lon="1.27108">
        <ele>191</ele>
        <time>2024-07-30T08:34:44Z</time>
      </trkpt>
      <trkpt lat="43.41267" lon="1.27113">
        <ele>190.8</ele>
        <time>2024-07-30T08:34:45Z</time>
      </trkpt>
      <trkpt lat="43.41272" lon="1.2712">
        <ele>190.8</ele>
        <time>2024-07-30T08:34:46Z</time>
      </trkpt>
      <trkpt lat="43.41277" lon="1.27126">
        <ele>190.8</ele>
        <time>2024-07-30T08:34:47Z</time>
      </trkpt>
      <trkpt lat="43.41283" lon="1.27133">
        <ele>190.8</ele>
        <time>2024-07-30T08:34:48Z</time>
      </trkpt>
      <trkpt lat="43.41288" lon="1.2714">
        <ele>190.6</ele>
        <time>2024-07-30T08:34:49Z</time>
      </trkpt>
      <trkpt lat="43.41293" lon="1.27146">
        <ele>190.6</ele>
        <time>2024-07-30T08:34:50Z</time>
      </trkpt>
      <trkpt lat="43.41298" lon="1.27153">
        <ele>190.6</ele>
        <time>2024-07-30T08:34:51Z</time>
      </trkpt>
      <trkpt lat="43.41303" lon="1.27161">
        <ele>190.6</ele>
        <time>2024-07-30T08:34:52Z</time>
      </trkpt>
      <trkpt lat="43.41308" lon="1.27168">
        <ele>190.6</ele>
        <time>2024-07-30T08:34:53Z</time>
      </trkpt>
      <trkpt lat="43.41313" lon="1.27175">
        <ele>190.4</ele>
        <time>2024-07-30T08:34:54Z</time>
      </trkpt>
      <trkpt lat="43.41318" lon="1.27182">
        <ele>190.4</ele>
        <time>2024-07-30T08:34:55Z</time>
      </trkpt>
      <trkpt lat="43.41323" lon="1.27189">
        <ele>190.6</ele>
        <time>2024-07-30T08:34:56Z</time>
      </trkpt>
      <trkpt lat="43.41328" lon="1.27195">
        <ele>190.4</ele>
        <time>2024-07-30T08:34:57Z</time>
      </trkpt>
      <trkpt lat="43.41333" lon="1.27202">
        <ele>190.4</ele>
        <time>2024-07-30T08:34:58Z</time>
      </trkpt>
      <trkpt lat="43.41338" lon="1.2721">
        <ele>190.4</ele>
        <time>2024-07-30T08:34:59Z</time>
      </trkpt>
      <trkpt lat="43.41342" lon="1.27215">
        <ele>190.6</ele>
        <time>2024-07-30T08:35:00Z</time>
      </trkpt>
      <trkpt lat="43.41346" lon="1.27222">
        <ele>190.6</ele>
        <time>2024-07-30T08:35:01Z</time>
      </trkpt>
      <trkpt lat="43.41351" lon="1.27228">
        <ele>190.6</ele>
        <time>2024-07-30T08:35:02Z</time>
      </trkpt>
      <trkpt lat="43.41356" lon="1.27236">
        <ele>190.6</ele>
        <time>2024-07-30T08:35:03Z</time>
      </trkpt>
      <trkpt lat="43.4136" lon="1.27241">
        <ele>190.4</ele>
        <time>2024-07-30T08:35:04Z</time>
      </trkpt>
      <trkpt lat="43.41364" lon="1.27248">
        <ele>190.4</ele>
        <time>2024-07-30T08:35:05Z</time>
      </trkpt>
      <trkpt lat="43.4137" lon="1.27256">
        <ele>190.4</ele>
        <time>2024-07-30T08:35:06Z</time>
      </trkpt>
      <trkpt lat="43.41373" lon="1.27261">
        <ele>190.4</ele>
        <time>2024-07-30T08:35:07Z</time>
      </trkpt>
      <trkpt lat="43.41378" lon="1.27268">
        <ele>190.4</ele>
        <time>2024-07-30T08:35:08Z</time>
      </trkpt>
      <trkpt lat="43.41383" lon="1.27274">
        <ele>190.4</ele>
        <time>2024-07-30T08:35:09Z</time>
      </trkpt>
      <trkpt lat="43.41387" lon="1.27281">
        <ele>190.4</ele>
        <time>2024-07-30T08:35:10Z</time>
      </trkpt>
      <trkpt lat="43.41392" lon="1.27287">
        <ele>190.4</ele>
        <time>2024-07-30T08:35:11Z</time>
      </trkpt>
      <trkpt lat="43.41397" lon="1.27295">
        <ele>190.4</ele>
        <time>2024-07-30T08:35:12Z</time>
      </trkpt>
      <trkpt lat="43.41401" lon="1.27301">
        <ele>190.4</ele>
        <time>2024-07-30T08:35:13Z</time>
      </trkpt>
      <trkpt lat="43.41406" lon="1.27308">
        <ele>190.4</ele>
        <time>2024-07-30T08:35:14Z</time>
      </trkpt>
      <trkpt lat="43.41411" lon="1.27315">
        <ele>190.2</ele>
        <time>2024-07-30T08:35:15Z</time>
      </trkpt>
      <trkpt lat="43.41415" lon="1.27321">
        <ele>190.2</ele>
        <time>2024-07-30T08:35:16Z</time>
      </trkpt>
      <trkpt lat="43.41421" lon="1.27329">
        <ele>190.2</ele>
        <time>2024-07-30T08:35:17Z</time>
      </trkpt>
      <trkpt lat="43.41425" lon="1.27334">
        <ele>190.2</ele>
        <time>2024-07-30T08:35:18Z</time>
      </trkpt>
      <trkpt lat="43.41429" lon="1.2734">
        <ele>190.2</ele>
        <time>2024-07-30T08:35:19Z</time>
      </trkpt>
      <trkpt lat="43.41434" lon="1.27347">
        <ele>190.2</ele>
        <time>2024-07-30T08:35:20Z</time>
      </trkpt>
      <trkpt lat="43.41439" lon="1.27355">
        <ele>190.2</ele>
        <time>2024-07-30T08:35:21Z</time>
      </trkpt>
      <trkpt lat="43.41443" lon="1.2736">
        <ele>190.2</ele>
        <time>2024-07-30T08:35:22Z</time>
      </trkpt>
      <trkpt lat="43.41448" lon="1.27367">
        <ele>190.2</ele>
        <time>2024-07-30T08:35:23Z</time>
      </trkpt>
      <trkpt lat="43.41453" lon="1.27374">
        <ele>189.8</ele>
        <time>2024-07-30T08:35:24Z</time>
      </trkpt>
      <trkpt lat="43.41457" lon="1.27381">
        <ele>189.8</ele>
        <time>2024-07-30T08:35:25Z</time>
      </trkpt>
      <trkpt lat="43.41463" lon="1.27389">
        <ele>189.8</ele>
        <time>2024-07-30T08:35:26Z</time>
      </trkpt>
      <trkpt lat="43.41467" lon="1.27394">
        <ele>190</ele>
        <time>2024-07-30T08:35:27Z</time>
      </trkpt>
      <trkpt lat="43.41472" lon="1.27401">
        <ele>190</ele>
        <time>2024-07-30T08:35:28Z</time>
      </trkpt>
      <trkpt lat="43.41477" lon="1.27408">
        <ele>190.2</ele>
        <time>2024-07-30T08:35:29Z</time>
      </trkpt>
      <trkpt lat="43.41482" lon="1.27415">
        <ele>190.2</ele>
        <time>2024-07-30T08:35:30Z</time>
      </trkpt>
      <trkpt lat="43.41487" lon="1.27422">
        <ele>190.2</ele>
        <time>2024-07-30T08:35:31Z</time>
      </trkpt>
      <trkpt lat="43.41492" lon="1.2743">
        <ele>190.2</ele>
        <time>2024-07-30T08:35:32Z</time>
      </trkpt>
      <trkpt lat="43.41497" lon="1.27437">
        <ele>190.2</ele>
        <time>2024-07-30T08:35:33Z</time>
      </trkpt>
      <trkpt lat="43.41502" lon="1.27444">
        <ele>190.2</ele>
        <time>2024-07-30T08:35:34Z</time>
      </trkpt>
      <trkpt lat="43.41507" lon="1.27451">
        <ele>190.2</ele>
        <time>2024-07-30T08:35:35Z</time>
      </trkpt>
      <trkpt lat="43.41512" lon="1.27458">
        <ele>190</ele>
        <time>2024-07-30T08:35:36Z</time>
      </trkpt>
      <trkpt lat="43.41517" lon="1.27465">
        <ele>190</ele>
        <time>2024-07-30T08:35:37Z</time>
      </trkpt>
      <trkpt lat="43.41521" lon="1.27472">
        <ele>190.2</ele>
        <time>2024-07-30T08:35:38Z</time>
      </trkpt>
      <trkpt lat="43.41526" lon="1.27479">
        <ele>190.2</ele>
        <time>2024-07-30T08:35:39Z</time>
      </trkpt>
      <trkpt lat="43.41532" lon="1.27488">
        <ele>190.2</ele>
        <time>2024-07-30T08:35:40Z</time>
      </trkpt>
      <trkpt lat="43.41536" lon="1.27493">
        <ele>190.2</ele>
        <time>2024-07-30T08:35:41Z</time>
      </trkpt>
      <trkpt lat="43.41541" lon="1.275">
        <ele>190.2</ele>
        <time>2024-07-30T08:35:42Z</time>
      </trkpt>
      <trkpt lat="43.41547" lon="1.27509">
        <ele>190.2</ele>
        <time>2024-07-30T08:35:43Z</time>
      </trkpt>
      <trkpt lat="43.41551" lon="1.27515">
        <ele>190.2</ele>
        <time>2024-07-30T08:35:44Z</time>
      </trkpt>
      <trkpt lat="43.41557" lon="1.27523">
        <ele>190.2</ele>
        <time>2024-07-30T08:35:45Z</time>
      </trkpt>
      <trkpt lat="43.41561" lon="1.27529">
        <ele>190.4</ele>
        <time>2024-07-30T08:35:46Z</time>
      </trkpt>
      <trkpt lat="43.41567" lon="1.27536">
        <ele>190.4</ele>
        <time>2024-07-30T08:35:47Z</time>
      </trkpt>
      <trkpt lat="43.41572" lon="1.27543">
        <ele>190.4</ele>
        <time>2024-07-30T08:35:48Z</time>
      </trkpt>
      <trkpt lat="43.41578" lon="1.27551">
        <ele>190.2</ele>
        <time>2024-07-30T08:35:49Z</time>
      </trkpt>
      <trkpt lat="43.41583" lon="1.27557">
        <ele>190.2</ele>
        <time>2024-07-30T08:35:50Z</time>
      </trkpt>
      <trkpt lat="43.41588" lon="1.27564">
        <ele>190.2</ele>
        <time>2024-07-30T08:35:51Z</time>
      </trkpt>
      <trkpt lat="43.41594" lon="1.2757">
        <ele>190.2</ele>
        <time>2024-07-30T08:35:52Z</time>
      </trkpt>
      <trkpt lat="43.416" lon="1.27577">
        <ele>190.2</ele>
        <time>2024-07-30T08:35:53Z</time>
      </trkpt>
      <trkpt lat="43.41607" lon="1.27584">
        <ele>190.2</ele>
        <time>2024-07-30T08:35:54Z</time>
      </trkpt>
      <trkpt lat="43.41611" lon="1.27589">
        <ele>190</ele>
        <time>2024-07-30T08:35:55Z</time>
      </trkpt>
      <trkpt lat="43.41617" lon="1.27594">
        <ele>190</ele>
        <time>2024-07-30T08:35:56Z</time>
      </trkpt>
      <trkpt lat="43.41623" lon="1.27599">
        <ele>190</ele>
        <time>2024-07-30T08:35:57Z</time>
      </trkpt>
      <trkpt lat="43.41629" lon="1.27604">
        <ele>190</ele>
        <time>2024-07-30T08:35:58Z</time>
      </trkpt>
      <trkpt lat="43.41636" lon="1.2761">
        <ele>190.2</ele>
        <time>2024-07-30T08:35:59Z</time>
      </trkpt>
      <trkpt lat="43.41641" lon="1.27613">
        <ele>190.2</ele>
        <time>2024-07-30T08:36:00Z</time>
      </trkpt>
      <trkpt lat="43.41647" lon="1.27617">
        <ele>190.2</ele>
        <time>2024-07-30T08:36:01Z</time>
      </trkpt>
      <trkpt lat="43.41653" lon="1.27621">
        <ele>190.4</ele>
        <time>2024-07-30T08:36:02Z</time>
      </trkpt>
      <trkpt lat="43.41661" lon="1.27626">
        <ele>190.4</ele>
        <time>2024-07-30T08:36:03Z</time>
      </trkpt>
      <trkpt lat="43.41666" lon="1.27629">
        <ele>190.4</ele>
        <time>2024-07-30T08:36:04Z</time>
      </trkpt>
      <trkpt lat="43.41672" lon="1.27633">
        <ele>190.4</ele>
        <time>2024-07-30T08:36:05Z</time>
      </trkpt>
      <trkpt lat="43.4168" lon="1.27637">
        <ele>190.4</ele>
        <time>2024-07-30T08:36:06Z</time>
      </trkpt>
      <trkpt lat="43.41686" lon="1.27641">
        <ele>190.4</ele>
        <time>2024-07-30T08:36:07Z</time>
      </trkpt>
      <trkpt lat="43.41693" lon="1.27644">
        <ele>190.4</ele>
        <time>2024-07-30T08:36:08Z</time>
      </trkpt>
      <trkpt lat="43.41698" lon="1.27647">
        <ele>190.4</ele>
        <time>2024-07-30T08:36:09Z</time>
      </trkpt>
      <trkpt lat="43.41704" lon="1.27651">
        <ele>190.4</ele>
        <time>2024-07-30T08:36:10Z</time>
      </trkpt>
      <trkpt lat="43.41712" lon="1.27655">
        <ele>190.4</ele>
        <time>2024-07-30T08:36:11Z</time>
      </trkpt>
      <trkpt lat="43.41717" lon="1.27658">
        <ele>190.2</ele>
        <time>2024-07-30T08:36:12Z</time>
      </trkpt>
      <trkpt lat="43.41723" lon="1.27661">
        <ele>190.2</ele>
        <time>2024-07-30T08:36:13Z</time>
      </trkpt>
      <trkpt lat="43.41729" lon="1.27665">
        <ele>190.2</ele>
        <time>2024-07-30T08:36:14Z</time>
      </trkpt>
      <trkpt lat="43.41735" lon="1.27668">
        <ele>190.2</ele>
        <time>2024-07-30T08:36:15Z</time>
      </trkpt>
      <trkpt lat="43.41742" lon="1.27672">
        <ele>190.2</ele>
        <time>2024-07-30T08:36:16Z</time>
      </trkpt>
      <trkpt lat="43.41748" lon="1.27675">
        <ele>190.2</ele>
        <time>2024-07-30T08:36:17Z</time>
      </trkpt>
      <trkpt lat="43.41756" lon="1.27678">
        <ele>190.2</ele>
        <time>2024-07-30T08:36:18Z</time>
      </trkpt>
      <trkpt lat="43.41761" lon="1.27681">
        <ele>190.2</ele>
        <time>2024-07-30T08:36:19Z</time>
      </trkpt>
      <trkpt lat="43.41768" lon="1.27684">
        <ele>190.2</ele>
        <time>2024-07-30T08:36:20Z</time>
      </trkpt>
      <trkpt lat="43.41775" lon="1.27687">
        <ele>190.4</ele>
        <time>2024-07-30T08:36:21Z</time>
      </trkpt>
      <trkpt lat="43.41783" lon="1.27691">
        <ele>190.4</ele>
        <time>2024-07-30T08:36:22Z</time>
      </trkpt>
      <trkpt lat="43.41789" lon="1.27693">
        <ele>190.4</ele>
        <time>2024-07-30T08:36:23Z</time>
      </trkpt>
      <trkpt lat="43.41796" lon="1.27696">
        <ele>190.4</ele>
        <time>2024-07-30T08:36:24Z</time>
      </trkpt>
      <trkpt lat="43.41805" lon="1.27699">
        <ele>190.4</ele>
        <time>2024-07-30T08:36:25Z</time>
      </trkpt>
      <trkpt lat="43.41812" lon="1.27701">
        <ele>190.4</ele>
        <time>2024-07-30T08:36:26Z</time>
      </trkpt>
      <trkpt lat="43.41818" lon="1.27703">
        <ele>190.4</ele>
        <time>2024-07-30T08:36:27Z</time>
      </trkpt>
      <trkpt lat="43.41825" lon="1.27705">
        <ele>190.4</ele>
        <time>2024-07-30T08:36:28Z</time>
      </trkpt>
      <trkpt lat="43.41832" lon="1.27708">
        <ele>190.2</ele>
        <time>2024-07-30T08:36:29Z</time>
      </trkpt>
      <trkpt lat="43.41841" lon="1.27711">
        <ele>190.2</ele>
        <time>2024-07-30T08:36:30Z</time>
      </trkpt>
      <trkpt lat="43.41849" lon="1.27713">
        <ele>190</ele>
        <time>2024-07-30T08:36:31Z</time>
      </trkpt>
      <trkpt lat="43.41855" lon="1.27715">
        <ele>190</ele>
        <time>2024-07-30T08:36:32Z</time>
      </trkpt>
      <trkpt lat="43.41863" lon="1.27717">
        <ele>190</ele>
        <time>2024-07-30T08:36:33Z</time>
      </trkpt>
      <trkpt lat="43.41871" lon="1.27719">
        <ele>189.8</ele>
        <time>2024-07-30T08:36:34Z</time>
      </trkpt>
      <trkpt lat="43.41877" lon="1.27721">
        <ele>189.8</ele>
        <time>2024-07-30T08:36:35Z</time>
      </trkpt>
      <trkpt lat="43.41886" lon="1.27724">
        <ele>189.8</ele>
        <time>2024-07-30T08:36:36Z</time>
      </trkpt>
      <trkpt lat="43.41892" lon="1.27725">
        <ele>189.6</ele>
        <time>2024-07-30T08:36:37Z</time>
      </trkpt>
      <trkpt lat="43.41899" lon="1.27727">
        <ele>189.6</ele>
        <time>2024-07-30T08:36:38Z</time>
      </trkpt>
      <trkpt lat="43.41908" lon="1.2773">
        <ele>189.6</ele>
        <time>2024-07-30T08:36:39Z</time>
      </trkpt>
      <trkpt lat="43.41915" lon="1.27733">
        <ele>189.4</ele>
        <time>2024-07-30T08:36:40Z</time>
      </trkpt>
      <trkpt lat="43.41923" lon="1.27735">
        <ele>189.4</ele>
        <time>2024-07-30T08:36:41Z</time>
      </trkpt>
      <trkpt lat="43.41929" lon="1.27737">
        <ele>189.4</ele>
        <time>2024-07-30T08:36:42Z</time>
      </trkpt>
      <trkpt lat="43.41938" lon="1.27739">
        <ele>189.4</ele>
        <time>2024-07-30T08:36:43Z</time>
      </trkpt>
      <trkpt lat="43.41946" lon="1.27742">
        <ele>189.4</ele>
        <time>2024-07-30T08:36:44Z</time>
      </trkpt>
      <trkpt lat="43.41953" lon="1.27744">
        <ele>189.4</ele>
        <time>2024-07-30T08:36:45Z</time>
      </trkpt>
      <trkpt lat="43.41958" lon="1.27746">
        <ele>189.4</ele>
        <time>2024-07-30T08:36:46Z</time>
      </trkpt>
      <trkpt lat="43.41965" lon="1.27748">
        <ele>189.6</ele>
        <time>2024-07-30T08:36:47Z</time>
      </trkpt>
      <trkpt lat="43.41973" lon="1.27751">
        <ele>189.8</ele>
        <time>2024-07-30T08:36:48Z</time>
      </trkpt>
      <trkpt lat="43.41979" lon="1.27754">
        <ele>189.8</ele>
        <time>2024-07-30T08:36:49Z</time>
      </trkpt>
      <trkpt lat="43.41985" lon="1.27756">
        <ele>190</ele>
        <time>2024-07-30T08:36:50Z</time>
      </trkpt>
      <trkpt lat="43.4199" lon="1.27757">
        <ele>190.2</ele>
        <time>2024-07-30T08:36:51Z</time>
      </trkpt>
      <trkpt lat="43.41997" lon="1.27758">
        <ele>190.2</ele>
        <time>2024-07-30T08:36:52Z</time>
      </trkpt>
      <trkpt lat="43.42005" lon="1.2776">
        <ele>190.2</ele>
        <time>2024-07-30T08:36:53Z</time>
      </trkpt>
      <trkpt lat="43.42012" lon="1.27762">
        <ele>190.2</ele>
        <time>2024-07-30T08:36:54Z</time>
      </trkpt>
      <trkpt lat="43.42018" lon="1.27763">
        <ele>190.4</ele>
        <time>2024-07-30T08:36:55Z</time>
      </trkpt>
      <trkpt lat="43.42025" lon="1.27766">
        <ele>190.4</ele>
        <time>2024-07-30T08:36:56Z</time>
      </trkpt>
      <trkpt lat="43.42033" lon="1.27768">
        <ele>190.4</ele>
        <time>2024-07-30T08:36:57Z</time>
      </trkpt>
      <trkpt lat="43.42039" lon="1.27771">
        <ele>190.4</ele>
        <time>2024-07-30T08:36:58Z</time>
      </trkpt>
      <trkpt lat="43.42046" lon="1.27773">
        <ele>190.4</ele>
        <time>2024-07-30T08:36:59Z</time>
      </trkpt>
      <trkpt lat="43.42053" lon="1.27775">
        <ele>190.4</ele>
        <time>2024-07-30T08:37:00Z</time>
      </trkpt>
      <trkpt lat="43.42059" lon="1.27776">
        <ele>190.4</ele>
        <time>2024-07-30T08:37:01Z</time>
      </trkpt>
      <trkpt lat="43.42068" lon="1.27779">
        <ele>190.4</ele>
        <time>2024-07-30T08:37:02Z</time>
      </trkpt>
      <trkpt lat="43.42075" lon="1.27781">
        <ele>190.4</ele>
        <time>2024-07-30T08:37:03Z</time>
      </trkpt>
      <trkpt lat="43.42082" lon="1.27783">
        <ele>190.2</ele>
        <time>2024-07-30T08:37:04Z</time>
      </trkpt>
      <trkpt lat="43.42089" lon="1.27785">
        <ele>190.2</ele>
        <time>2024-07-30T08:37:05Z</time>
      </trkpt>
      <trkpt lat="43.42095" lon="1.27787">
        <ele>190.2</ele>
        <time>2024-07-30T08:37:06Z</time>
      </trkpt>
      <trkpt lat="43.42103" lon="1.27789">
        <ele>190.2</ele>
        <time>2024-07-30T08:37:07Z</time>
      </trkpt>
      <trkpt lat="43.4211" lon="1.27791">
        <ele>190.2</ele>
        <time>2024-07-30T08:37:08Z</time>
      </trkpt>
      <trkpt lat="43.42117" lon="1.27793">
        <ele>190</ele>
        <time>2024-07-30T08:37:09Z</time>
      </trkpt>
      <trkpt lat="43.42123" lon="1.27795">
        <ele>190</ele>
        <time>2024-07-30T08:37:10Z</time>
      </trkpt>
      <trkpt lat="43.42132" lon="1.27798">
        <ele>190</ele>
        <time>2024-07-30T08:37:11Z</time>
      </trkpt>
      <trkpt lat="43.42139" lon="1.278">
        <ele>190</ele>
        <time>2024-07-30T08:37:12Z</time>
      </trkpt>
      <trkpt lat="43.42146" lon="1.27803">
        <ele>189.8</ele>
        <time>2024-07-30T08:37:13Z</time>
      </trkpt>
      <trkpt lat="43.42153" lon="1.27805">
        <ele>189.8</ele>
        <time>2024-07-30T08:37:14Z</time>
      </trkpt>
      <trkpt lat="43.4216" lon="1.27807">
        <ele>189.8</ele>
        <time>2024-07-30T08:37:15Z</time>
      </trkpt>
      <trkpt lat="43.42167" lon="1.2781">
        <ele>189.8</ele>
        <time>2024-07-30T08:37:16Z</time>
      </trkpt>
      <trkpt lat="43.42174" lon="1.27812">
        <ele>189.8</ele>
        <time>2024-07-30T08:37:17Z</time>
      </trkpt>
      <trkpt lat="43.42181" lon="1.27815">
        <ele>189.8</ele>
        <time>2024-07-30T08:37:18Z</time>
      </trkpt>
      <trkpt lat="43.42195" lon="1.2782">
        <ele>189.8</ele>
        <time>2024-07-30T08:37:19Z</time>
      </trkpt>
      <trkpt lat="43.42195" lon="1.2782">
        <ele>189.8</ele>
        <time>2024-07-30T08:37:20Z</time>
      </trkpt>
      <trkpt lat="43.42208" lon="1.27826">
        <ele>189.8</ele>
        <time>2024-07-30T08:37:21Z</time>
      </trkpt>
      <trkpt lat="43.42213" lon="1.27828">
        <ele>189.8</ele>
        <time>2024-07-30T08:37:22Z</time>
      </trkpt>
      <trkpt lat="43.42213" lon="1.27828">
        <ele>189.8</ele>
        <time>2024-07-30T08:37:23Z</time>
      </trkpt>
      <trkpt lat="43.42226" lon="1.27833">
        <ele>189.8</ele>
        <time>2024-07-30T08:37:24Z</time>
      </trkpt>
      <trkpt lat="43.42232" lon="1.27836">
        <ele>189.8</ele>
        <time>2024-07-30T08:37:25Z</time>
      </trkpt>
      <trkpt lat="43.42238" lon="1.27838">
        <ele>189.6</ele>
        <time>2024-07-30T08:37:26Z</time>
      </trkpt>
      <trkpt lat="43.42242" lon="1.2784">
        <ele>189.6</ele>
        <time>2024-07-30T08:37:27Z</time>
      </trkpt>
      <trkpt lat="43.42248" lon="1.27842">
        <ele>189.6</ele>
        <time>2024-07-30T08:37:28Z</time>
      </trkpt>
      <trkpt lat="43.42248" lon="1.27842">
        <ele>189.6</ele>
        <time>2024-07-30T08:37:29Z</time>
      </trkpt>
      <trkpt lat="43.42259" lon="1.27847">
        <ele>189.4</ele>
        <time>2024-07-30T08:37:30Z</time>
      </trkpt>
      <trkpt lat="43.42264" lon="1.27849">
        <ele>189.4</ele>
        <time>2024-07-30T08:37:31Z</time>
      </trkpt>
      <trkpt lat="43.42264" lon="1.27849">
        <ele>189.4</ele>
        <time>2024-07-30T08:37:32Z</time>
      </trkpt>
      <trkpt lat="43.42273" lon="1.27853">
        <ele>189.4</ele>
        <time>2024-07-30T08:37:33Z</time>
      </trkpt>
      <trkpt lat="43.42278" lon="1.27855">
        <ele>189.4</ele>
        <time>2024-07-30T08:37:34Z</time>
      </trkpt>
      <trkpt lat="43.42282" lon="1.27857">
        <ele>189.4</ele>
        <time>2024-07-30T08:37:35Z</time>
      </trkpt>
      <trkpt lat="43.42288" lon="1.2786">
        <ele>189.2</ele>
        <time>2024-07-30T08:37:36Z</time>
      </trkpt>
      <trkpt lat="43.42293" lon="1.27863">
        <ele>189.2</ele>
        <time>2024-07-30T08:37:37Z</time>
      </trkpt>
      <trkpt lat="43.42298" lon="1.27866">
        <ele>189.2</ele>
        <time>2024-07-30T08:37:38Z</time>
      </trkpt>
      <trkpt lat="43.42304" lon="1.2787">
        <ele>189.2</ele>
        <time>2024-07-30T08:37:39Z</time>
      </trkpt>
      <trkpt lat="43.42309" lon="1.27874">
        <ele>189.2</ele>
        <time>2024-07-30T08:37:40Z</time>
      </trkpt>
      <trkpt lat="43.42314" lon="1.27877">
        <ele>189.2</ele>
        <time>2024-07-30T08:37:41Z</time>
      </trkpt>
      <trkpt lat="43.42321" lon="1.27882">
        <ele>189.2</ele>
        <time>2024-07-30T08:37:42Z</time>
      </trkpt>
      <trkpt lat="43.42321" lon="1.27882">
        <ele>189.2</ele>
        <time>2024-07-30T08:37:43Z</time>
      </trkpt>
      <trkpt lat="43.42332" lon="1.27889">
        <ele>189</ele>
        <time>2024-07-30T08:37:44Z</time>
      </trkpt>
      <trkpt lat="43.42337" lon="1.27893">
        <ele>189</ele>
        <time>2024-07-30T08:37:45Z</time>
      </trkpt>
      <trkpt lat="43.42337" lon="1.27893">
        <ele>189</ele>
        <time>2024-07-30T08:37:46Z</time>
      </trkpt>
      <trkpt lat="43.42349" lon="1.27901">
        <ele>189</ele>
        <time>2024-07-30T08:37:47Z</time>
      </trkpt>
      <trkpt lat="43.42355" lon="1.27905">
        <ele>189</ele>
        <time>2024-07-30T08:37:48Z</time>
      </trkpt>
      <trkpt lat="43.42359" lon="1.27908">
        <ele>189</ele>
        <time>2024-07-30T08:37:49Z</time>
      </trkpt>
      <trkpt lat="43.42365" lon="1.27912">
        <ele>189</ele>
        <time>2024-07-30T08:37:50Z</time>
      </trkpt>
      <trkpt lat="43.42372" lon="1.27917">
        <ele>189</ele>
        <time>2024-07-30T08:37:51Z</time>
      </trkpt>
      <trkpt lat="43.42378" lon="1.27921">
        <ele>189</ele>
        <time>2024-07-30T08:37:52Z</time>
      </trkpt>
      <trkpt lat="43.42383" lon="1.27925">
        <ele>189</ele>
        <time>2024-07-30T08:37:53Z</time>
      </trkpt>
      <trkpt lat="43.42388" lon="1.27928">
        <ele>189</ele>
        <time>2024-07-30T08:37:54Z</time>
      </trkpt>
      <trkpt lat="43.42388" lon="1.27928">
        <ele>189</ele>
        <time>2024-07-30T08:37:55Z</time>
      </trkpt>
      <trkpt lat="43.424" lon="1.27938">
        <ele>189</ele>
        <time>2024-07-30T08:37:56Z</time>
      </trkpt>
      <trkpt lat="43.42406" lon="1.27942">
        <ele>189</ele>
        <time>2024-07-30T08:37:57Z</time>
      </trkpt>
      <trkpt lat="43.42406" lon="1.27942">
        <ele>189</ele>
        <time>2024-07-30T08:37:58Z</time>
      </trkpt>
      <trkpt lat="43.42416" lon="1.2795">
        <ele>189</ele>
        <time>2024-07-30T08:37:59Z</time>
      </trkpt>
      <trkpt lat="43.42422" lon="1.27956">
        <ele>189</ele>
        <time>2024-07-30T08:38:00Z</time>
      </trkpt>
      <trkpt lat="43.42427" lon="1.27962">
        <ele>189</ele>
        <time>2024-07-30T08:38:01Z</time>
      </trkpt>
      <trkpt lat="43.42432" lon="1.27967">
        <ele>189</ele>
        <time>2024-07-30T08:38:02Z</time>
      </trkpt>
      <trkpt lat="43.42436" lon="1.27972">
        <ele>189.2</ele>
        <time>2024-07-30T08:38:03Z</time>
      </trkpt>
      <trkpt lat="43.42436" lon="1.27972">
        <ele>189.2</ele>
        <time>2024-07-30T08:38:04Z</time>
      </trkpt>
      <trkpt lat="43.42449" lon="1.27981">
        <ele>189.2</ele>
        <time>2024-07-30T08:38:05Z</time>
      </trkpt>
      <trkpt lat="43.42456" lon="1.27985">
        <ele>189.2</ele>
        <time>2024-07-30T08:38:06Z</time>
      </trkpt>
      <trkpt lat="43.42462" lon="1.27988">
        <ele>189.2</ele>
        <time>2024-07-30T08:38:07Z</time>
      </trkpt>
      <trkpt lat="43.42466" lon="1.27991">
        <ele>189.2</ele>
        <time>2024-07-30T08:38:08Z</time>
      </trkpt>
      <trkpt lat="43.42474" lon="1.27997">
        <ele>189.2</ele>
        <time>2024-07-30T08:38:09Z</time>
      </trkpt>
      <trkpt lat="43.4248" lon="1.28001">
        <ele>189.2</ele>
        <time>2024-07-30T08:38:10Z</time>
      </trkpt>
      <trkpt lat="43.42486" lon="1.28006">
        <ele>189.2</ele>
        <time>2024-07-30T08:38:11Z</time>
      </trkpt>
      <trkpt lat="43.42492" lon="1.2801">
        <ele>189.2</ele>
        <time>2024-07-30T08:38:12Z</time>
      </trkpt>
      <trkpt lat="43.42497" lon="1.28014">
        <ele>189</ele>
        <time>2024-07-30T08:38:13Z</time>
      </trkpt>
      <trkpt lat="43.42505" lon="1.28019">
        <ele>189</ele>
        <time>2024-07-30T08:38:14Z</time>
      </trkpt>
      <trkpt lat="43.42512" lon="1.28023">
        <ele>189</ele>
        <time>2024-07-30T08:38:15Z</time>
      </trkpt>
      <trkpt lat="43.42518" lon="1.28028">
        <ele>189</ele>
        <time>2024-07-30T08:38:16Z</time>
      </trkpt>
      <trkpt lat="43.42524" lon="1.28032">
        <ele>189</ele>
        <time>2024-07-30T08:38:17Z</time>
      </trkpt>
      <trkpt lat="43.42532" lon="1.28037">
        <ele>189</ele>
        <time>2024-07-30T08:38:18Z</time>
      </trkpt>
      <trkpt lat="43.42539" lon="1.28042">
        <ele>189</ele>
        <time>2024-07-30T08:38:19Z</time>
      </trkpt>
      <trkpt lat="43.42546" lon="1.28046">
        <ele>189</ele>
        <time>2024-07-30T08:38:20Z</time>
      </trkpt>
      <trkpt lat="43.42552" lon="1.2805">
        <ele>189</ele>
        <time>2024-07-30T08:38:21Z</time>
      </trkpt>
      <trkpt lat="43.42559" lon="1.28055">
        <ele>189</ele>
        <time>2024-07-30T08:38:22Z</time>
      </trkpt>
      <trkpt lat="43.42559" lon="1.28055">
        <ele>189</ele>
        <time>2024-07-30T08:38:23Z</time>
      </trkpt>
      <trkpt lat="43.42574" lon="1.28065">
        <ele>189</ele>
        <time>2024-07-30T08:38:24Z</time>
      </trkpt>
      <trkpt lat="43.42581" lon="1.28069">
        <ele>188.8</ele>
        <time>2024-07-30T08:38:25Z</time>
      </trkpt>
      <trkpt lat="43.42586" lon="1.28073">
        <ele>188.8</ele>
        <time>2024-07-30T08:38:26Z</time>
      </trkpt>
      <trkpt lat="43.42593" lon="1.28078">
        <ele>188.8</ele>
        <time>2024-07-30T08:38:27Z</time>
      </trkpt>
      <trkpt lat="43.42602" lon="1.28083">
        <ele>188.8</ele>
        <time>2024-07-30T08:38:28Z</time>
      </trkpt>
      <trkpt lat="43.42609" lon="1.28088">
        <ele>188.8</ele>
        <time>2024-07-30T08:38:29Z</time>
      </trkpt>
      <trkpt lat="43.42616" lon="1.28093">
        <ele>188.8</ele>
        <time>2024-07-30T08:38:30Z</time>
      </trkpt>
      <trkpt lat="43.42623" lon="1.28097">
        <ele>188.8</ele>
        <time>2024-07-30T08:38:31Z</time>
      </trkpt>
      <trkpt lat="43.42629" lon="1.28101">
        <ele>188.8</ele>
        <time>2024-07-30T08:38:32Z</time>
      </trkpt>
      <trkpt lat="43.42637" lon="1.28106">
        <ele>188.8</ele>
        <time>2024-07-30T08:38:33Z</time>
      </trkpt>
      <trkpt lat="43.42637" lon="1.28106">
        <ele>188.8</ele>
        <time>2024-07-30T08:38:34Z</time>
      </trkpt>
      <trkpt lat="43.42652" lon="1.28115">
        <ele>188.6</ele>
        <time>2024-07-30T08:38:35Z</time>
      </trkpt>
      <trkpt lat="43.4266" lon="1.2812">
        <ele>188.4</ele>
        <time>2024-07-30T08:38:36Z</time>
      </trkpt>
      <trkpt lat="43.4266" lon="1.2812">
        <ele>188.6</ele>
        <time>2024-07-30T08:38:37Z</time>
      </trkpt>
      <trkpt lat="43.42676" lon="1.28127">
        <ele>188.4</ele>
        <time>2024-07-30T08:38:38Z</time>
      </trkpt>
      <trkpt lat="43.42684" lon="1.2813">
        <ele>188.4</ele>
        <time>2024-07-30T08:38:39Z</time>
      </trkpt>
      <trkpt lat="43.42692" lon="1.28133">
        <ele>188.4</ele>
        <time>2024-07-30T08:38:40Z</time>
      </trkpt>
      <trkpt lat="43.42698" lon="1.28135">
        <ele>188.2</ele>
        <time>2024-07-30T08:38:41Z</time>
      </trkpt>
      <trkpt lat="43.42708" lon="1.28138">
        <ele>188</ele>
        <time>2024-07-30T08:38:42Z</time>
      </trkpt>
      <trkpt lat="43.42716" lon="1.28141">
        <ele>188</ele>
        <time>2024-07-30T08:38:43Z</time>
      </trkpt>
      <trkpt lat="43.42724" lon="1.28144">
        <ele>188</ele>
        <time>2024-07-30T08:38:44Z</time>
      </trkpt>
      <trkpt lat="43.42731" lon="1.28146">
        <ele>187.8</ele>
        <time>2024-07-30T08:38:45Z</time>
      </trkpt>
      <trkpt lat="43.42741" lon="1.2815">
        <ele>187.8</ele>
        <time>2024-07-30T08:38:46Z</time>
      </trkpt>
      <trkpt lat="43.42749" lon="1.28152">
        <ele>187.6</ele>
        <time>2024-07-30T08:38:47Z</time>
      </trkpt>
      <trkpt lat="43.42757" lon="1.28155">
        <ele>187.6</ele>
        <time>2024-07-30T08:38:48Z</time>
      </trkpt>
      <trkpt lat="43.42765" lon="1.28158">
        <ele>187.4</ele>
        <time>2024-07-30T08:38:49Z</time>
      </trkpt>
      <trkpt lat="43.42772" lon="1.2816">
        <ele>187.2</ele>
        <time>2024-07-30T08:38:50Z</time>
      </trkpt>
      <trkpt lat="43.4278" lon="1.28164">
        <ele>187.2</ele>
        <time>2024-07-30T08:38:51Z</time>
      </trkpt>
      <trkpt lat="43.4279" lon="1.28168">
        <ele>187</ele>
        <time>2024-07-30T08:38:52Z</time>
      </trkpt>
      <trkpt lat="43.42797" lon="1.28171">
        <ele>187</ele>
        <time>2024-07-30T08:38:53Z</time>
      </trkpt>
      <trkpt lat="43.42804" lon="1.28174">
        <ele>186.8</ele>
        <time>2024-07-30T08:38:54Z</time>
      </trkpt>
      <trkpt lat="43.42811" lon="1.28178">
        <ele>186.8</ele>
        <time>2024-07-30T08:38:55Z</time>
      </trkpt>
      <trkpt lat="43.4282" lon="1.28182">
        <ele>186.8</ele>
        <time>2024-07-30T08:38:56Z</time>
      </trkpt>
      <trkpt lat="43.42828" lon="1.28186">
        <ele>186.6</ele>
        <time>2024-07-30T08:38:57Z</time>
      </trkpt>
      <trkpt lat="43.42836" lon="1.2819">
        <ele>186.6</ele>
        <time>2024-07-30T08:38:58Z</time>
      </trkpt>
      <trkpt lat="43.42843" lon="1.28194">
        <ele>186.6</ele>
        <time>2024-07-30T08:38:59Z</time>
      </trkpt>
      <trkpt lat="43.42851" lon="1.28198">
        <ele>186.6</ele>
        <time>2024-07-30T08:39:00Z</time>
      </trkpt>
      <trkpt lat="43.42858" lon="1.28201">
        <ele>186.6</ele>
        <time>2024-07-30T08:39:01Z</time>
      </trkpt>
      <trkpt lat="43.42865" lon="1.28205">
        <ele>186.6</ele>
        <time>2024-07-30T08:39:02Z</time>
      </trkpt>
      <trkpt lat="43.42871" lon="1.28208">
        <ele>186.6</ele>
        <time>2024-07-30T08:39:03Z</time>
      </trkpt>
      <trkpt lat="43.42878" lon="1.28212">
        <ele>186.6</ele>
        <time>2024-07-30T08:39:04Z</time>
      </trkpt>
      <trkpt lat="43.42887" lon="1.28216">
        <ele>186.6</ele>
        <time>2024-07-30T08:39:05Z</time>
      </trkpt>
      <trkpt lat="43.42894" lon="1.2822">
        <ele>186.8</ele>
        <time>2024-07-30T08:39:06Z</time>
      </trkpt>
      <trkpt lat="43.42901" lon="1.28224">
        <ele>187</ele>
        <time>2024-07-30T08:39:07Z</time>
      </trkpt>
      <trkpt lat="43.42908" lon="1.28228">
        <ele>187</ele>
        <time>2024-07-30T08:39:08Z</time>
      </trkpt>
      <trkpt lat="43.42914" lon="1.28231">
        <ele>187</ele>
        <time>2024-07-30T08:39:09Z</time>
      </trkpt>
      <trkpt lat="43.42922" lon="1.28235">
        <ele>186.8</ele>
        <time>2024-07-30T08:39:10Z</time>
      </trkpt>
      <trkpt lat="43.4293" lon="1.28239">
        <ele>187.2</ele>
        <time>2024-07-30T08:39:11Z</time>
      </trkpt>
      <trkpt lat="43.42937" lon="1.28243">
        <ele>187.2</ele>
        <time>2024-07-30T08:39:12Z</time>
      </trkpt>
      <trkpt lat="43.42942" lon="1.28246">
        <ele>187</ele>
        <time>2024-07-30T08:39:13Z</time>
      </trkpt>
      <trkpt lat="43.42951" lon="1.28251">
        <ele>187</ele>
        <time>2024-07-30T08:39:14Z</time>
      </trkpt>
      <trkpt lat="43.42958" lon="1.28256">
        <ele>187</ele>
        <time>2024-07-30T08:39:15Z</time>
      </trkpt>
      <trkpt lat="43.42966" lon="1.2826">
        <ele>187.2</ele>
        <time>2024-07-30T08:39:16Z</time>
      </trkpt>
      <trkpt lat="43.42971" lon="1.28263">
        <ele>187.2</ele>
        <time>2024-07-30T08:39:17Z</time>
      </trkpt>
      <trkpt lat="43.4298" lon="1.28268">
        <ele>187</ele>
        <time>2024-07-30T08:39:18Z</time>
      </trkpt>
      <trkpt lat="43.42987" lon="1.28272">
        <ele>187</ele>
        <time>2024-07-30T08:39:19Z</time>
      </trkpt>
      <trkpt lat="43.42994" lon="1.28276">
        <ele>187</ele>
        <time>2024-07-30T08:39:20Z</time>
      </trkpt>
      <trkpt lat="43.43001" lon="1.28281">
        <ele>187.2</ele>
        <time>2024-07-30T08:39:21Z</time>
      </trkpt>
      <trkpt lat="43.43007" lon="1.28284">
        <ele>187.2</ele>
        <time>2024-07-30T08:39:22Z</time>
      </trkpt>
      <trkpt lat="43.43014" lon="1.28288">
        <ele>187.2</ele>
        <time>2024-07-30T08:39:23Z</time>
      </trkpt>
      <trkpt lat="43.43023" lon="1.28293">
        <ele>187.2</ele>
        <time>2024-07-30T08:39:24Z</time>
      </trkpt>
      <trkpt lat="43.4303" lon="1.28297">
        <ele>187.2</ele>
        <time>2024-07-30T08:39:25Z</time>
      </trkpt>
      <trkpt lat="43.43038" lon="1.28301">
        <ele>187.2</ele>
        <time>2024-07-30T08:39:26Z</time>
      </trkpt>
      <trkpt lat="43.43045" lon="1.28306">
        <ele>187.2</ele>
        <time>2024-07-30T08:39:27Z</time>
      </trkpt>
      <trkpt lat="43.43052" lon="1.2831">
        <ele>187.2</ele>
        <time>2024-07-30T08:39:28Z</time>
      </trkpt>
      <trkpt lat="43.43052" lon="1.2831">
        <ele>187.2</ele>
        <time>2024-07-30T08:39:29Z</time>
      </trkpt>
      <trkpt lat="43.43066" lon="1.28318">
        <ele>187.2</ele>
        <time>2024-07-30T08:39:30Z</time>
      </trkpt>
      <trkpt lat="43.43073" lon="1.28322">
        <ele>187.2</ele>
        <time>2024-07-30T08:39:31Z</time>
      </trkpt>
      <trkpt lat="43.43073" lon="1.28322">
        <ele>187.2</ele>
        <time>2024-07-30T08:39:32Z</time>
      </trkpt>
      <trkpt lat="43.43088" lon="1.2833">
        <ele>187.2</ele>
        <time>2024-07-30T08:39:33Z</time>
      </trkpt>
      <trkpt lat="43.43095" lon="1.28334">
        <ele>187.2</ele>
        <time>2024-07-30T08:39:34Z</time>
      </trkpt>
      <trkpt lat="43.43102" lon="1.28338">
        <ele>187.2</ele>
        <time>2024-07-30T08:39:35Z</time>
      </trkpt>
      <trkpt lat="43.43108" lon="1.28342">
        <ele>187.2</ele>
        <time>2024-07-30T08:39:36Z</time>
      </trkpt>
      <trkpt lat="43.43117" lon="1.28347">
        <ele>187.2</ele>
        <time>2024-07-30T08:39:37Z</time>
      </trkpt>
      <trkpt lat="43.43117" lon="1.28347">
        <ele>187.2</ele>
        <time>2024-07-30T08:39:38Z</time>
      </trkpt>
      <trkpt lat="43.43132" lon="1.28355">
        <ele>187</ele>
        <time>2024-07-30T08:39:39Z</time>
      </trkpt>
      <trkpt lat="43.43139" lon="1.28359">
        <ele>187</ele>
        <time>2024-07-30T08:39:40Z</time>
      </trkpt>
      <trkpt lat="43.43139" lon="1.28359">
        <ele>187</ele>
        <time>2024-07-30T08:39:41Z</time>
      </trkpt>
      <trkpt lat="43.43154" lon="1.28368">
        <ele>187</ele>
        <time>2024-07-30T08:39:42Z</time>
      </trkpt>
      <trkpt lat="43.43161" lon="1.28372">
        <ele>187</ele>
        <time>2024-07-30T08:39:43Z</time>
      </trkpt>
      <trkpt lat="43.43169" lon="1.28376">
        <ele>187</ele>
        <time>2024-07-30T08:39:44Z</time>
      </trkpt>
      <trkpt lat="43.43174" lon="1.2838">
        <ele>187</ele>
        <time>2024-07-30T08:39:45Z</time>
      </trkpt>
      <trkpt lat="43.43183" lon="1.28385">
        <ele>187</ele>
        <time>2024-07-30T08:39:46Z</time>
      </trkpt>
      <trkpt lat="43.4319" lon="1.28389">
        <ele>187</ele>
        <time>2024-07-30T08:39:47Z</time>
      </trkpt>
      <trkpt lat="43.43198" lon="1.28393">
        <ele>187</ele>
        <time>2024-07-30T08:39:48Z</time>
      </trkpt>
      <trkpt lat="43.43203" lon="1.28396">
        <ele>187</ele>
        <time>2024-07-30T08:39:49Z</time>
      </trkpt>
      <trkpt lat="43.43212" lon="1.28401">
        <ele>187</ele>
        <time>2024-07-30T08:39:50Z</time>
      </trkpt>
      <trkpt lat="43.43219" lon="1.28405">
        <ele>187</ele>
        <time>2024-07-30T08:39:51Z</time>
      </trkpt>
      <trkpt lat="43.43226" lon="1.28409">
        <ele>187</ele>
        <time>2024-07-30T08:39:52Z</time>
      </trkpt>
      <trkpt lat="43.43233" lon="1.28413">
        <ele>187</ele>
        <time>2024-07-30T08:39:53Z</time>
      </trkpt>
      <trkpt lat="43.43239" lon="1.28416">
        <ele>187</ele>
        <time>2024-07-30T08:39:54Z</time>
      </trkpt>
      <trkpt lat="43.43246" lon="1.2842">
        <ele>186.8</ele>
        <time>2024-07-30T08:39:55Z</time>
      </trkpt>
      <trkpt lat="43.43255" lon="1.28425">
        <ele>186.8</ele>
        <time>2024-07-30T08:39:56Z</time>
      </trkpt>
      <trkpt lat="43.43262" lon="1.28429">
        <ele>186.8</ele>
        <time>2024-07-30T08:39:57Z</time>
      </trkpt>
      <trkpt lat="43.43269" lon="1.28433">
        <ele>186.8</ele>
        <time>2024-07-30T08:39:58Z</time>
      </trkpt>
      <trkpt lat="43.43275" lon="1.28436">
        <ele>186.6</ele>
        <time>2024-07-30T08:39:59Z</time>
      </trkpt>
      <trkpt lat="43.43283" lon="1.28442">
        <ele>186.6</ele>
        <time>2024-07-30T08:40:00Z</time>
      </trkpt>
      <trkpt lat="43.4329" lon="1.28446">
        <ele>186.6</ele>
        <time>2024-07-30T08:40:01Z</time>
      </trkpt>
      <trkpt lat="43.43297" lon="1.2845">
        <ele>186.6</ele>
        <time>2024-07-30T08:40:02Z</time>
      </trkpt>
      <trkpt lat="43.43303" lon="1.28453">
        <ele>186.6</ele>
        <time>2024-07-30T08:40:03Z</time>
      </trkpt>
      <trkpt lat="43.43311" lon="1.28459">
        <ele>186.6</ele>
        <time>2024-07-30T08:40:04Z</time>
      </trkpt>
      <trkpt lat="43.43317" lon="1.28462">
        <ele>186.6</ele>
        <time>2024-07-30T08:40:05Z</time>
      </trkpt>
      <trkpt lat="43.43325" lon="1.28467">
        <ele>186.6</ele>
        <time>2024-07-30T08:40:06Z</time>
      </trkpt>
      <trkpt lat="43.43332" lon="1.28472">
        <ele>186.4</ele>
        <time>2024-07-30T08:40:07Z</time>
      </trkpt>
      <trkpt lat="43.43339" lon="1.28476">
        <ele>186.4</ele>
        <time>2024-07-30T08:40:08Z</time>
      </trkpt>
      <trkpt lat="43.43346" lon="1.28481">
        <ele>186.4</ele>
        <time>2024-07-30T08:40:09Z</time>
      </trkpt>
      <trkpt lat="43.43355" lon="1.28486">
        <ele>186.4</ele>
        <time>2024-07-30T08:40:10Z</time>
      </trkpt>
      <trkpt lat="43.43362" lon="1.28491">
        <ele>186.4</ele>
        <time>2024-07-30T08:40:11Z</time>
      </trkpt>
      <trkpt lat="43.43368" lon="1.28494">
        <ele>186.4</ele>
        <time>2024-07-30T08:40:12Z</time>
      </trkpt>
      <trkpt lat="43.43375" lon="1.28499">
        <ele>186.4</ele>
        <time>2024-07-30T08:40:13Z</time>
      </trkpt>
      <trkpt lat="43.43383" lon="1.28504">
        <ele>186.4</ele>
        <time>2024-07-30T08:40:14Z</time>
      </trkpt>
      <trkpt lat="43.43391" lon="1.28509">
        <ele>186.4</ele>
        <time>2024-07-30T08:40:15Z</time>
      </trkpt>
      <trkpt lat="43.43398" lon="1.28514">
        <ele>186.4</ele>
        <time>2024-07-30T08:40:16Z</time>
      </trkpt>
      <trkpt lat="43.43405" lon="1.28518">
        <ele>186.4</ele>
        <time>2024-07-30T08:40:17Z</time>
      </trkpt>
      <trkpt lat="43.43411" lon="1.28522">
        <ele>186.4</ele>
        <time>2024-07-30T08:40:18Z</time>
      </trkpt>
      <trkpt lat="43.43419" lon="1.28527">
        <ele>186.4</ele>
        <time>2024-07-30T08:40:19Z</time>
      </trkpt>
      <trkpt lat="43.43426" lon="1.28532">
        <ele>186.4</ele>
        <time>2024-07-30T08:40:20Z</time>
      </trkpt>
      <trkpt lat="43.43432" lon="1.28536">
        <ele>186.6</ele>
        <time>2024-07-30T08:40:21Z</time>
      </trkpt>
      <trkpt lat="43.43439" lon="1.28541">
        <ele>186.6</ele>
        <time>2024-07-30T08:40:22Z</time>
      </trkpt>
      <trkpt lat="43.43448" lon="1.28546">
        <ele>186.6</ele>
        <time>2024-07-30T08:40:23Z</time>
      </trkpt>
      <trkpt lat="43.43456" lon="1.28551">
        <ele>186.6</ele>
        <time>2024-07-30T08:40:24Z</time>
      </trkpt>
      <trkpt lat="43.43463" lon="1.28556">
        <ele>186.6</ele>
        <time>2024-07-30T08:40:25Z</time>
      </trkpt>
      <trkpt lat="43.4347" lon="1.28561">
        <ele>186.6</ele>
        <time>2024-07-30T08:40:26Z</time>
      </trkpt>
      <trkpt lat="43.43476" lon="1.28564">
        <ele>186.6</ele>
        <time>2024-07-30T08:40:27Z</time>
      </trkpt>
      <trkpt lat="43.43484" lon="1.2857">
        <ele>186.6</ele>
        <time>2024-07-30T08:40:28Z</time>
      </trkpt>
      <trkpt lat="43.43491" lon="1.28574">
        <ele>186.6</ele>
        <time>2024-07-30T08:40:29Z</time>
      </trkpt>
      <trkpt lat="43.43498" lon="1.28579">
        <ele>186.6</ele>
        <time>2024-07-30T08:40:30Z</time>
      </trkpt>
      <trkpt lat="43.43503" lon="1.28582">
        <ele>186.6</ele>
        <time>2024-07-30T08:40:31Z</time>
      </trkpt>
      <trkpt lat="43.4351" lon="1.28587">
        <ele>186.6</ele>
        <time>2024-07-30T08:40:32Z</time>
      </trkpt>
      <trkpt lat="43.43517" lon="1.28591">
        <ele>186.6</ele>
        <time>2024-07-30T08:40:33Z</time>
      </trkpt>
      <trkpt lat="43.43526" lon="1.28596">
        <ele>186.4</ele>
        <time>2024-07-30T08:40:34Z</time>
      </trkpt>
      <trkpt lat="43.43532" lon="1.286">
        <ele>186.4</ele>
        <time>2024-07-30T08:40:35Z</time>
      </trkpt>
      <trkpt lat="43.43539" lon="1.28605">
        <ele>186.4</ele>
        <time>2024-07-30T08:40:36Z</time>
      </trkpt>
      <trkpt lat="43.43545" lon="1.28608">
        <ele>186.4</ele>
        <time>2024-07-30T08:40:37Z</time>
      </trkpt>
      <trkpt lat="43.43553" lon="1.28614">
        <ele>186.4</ele>
        <time>2024-07-30T08:40:38Z</time>
      </trkpt>
      <trkpt lat="43.4356" lon="1.28619">
        <ele>186.4</ele>
        <time>2024-07-30T08:40:39Z</time>
      </trkpt>
      <trkpt lat="43.43567" lon="1.28623">
        <ele>186.4</ele>
        <time>2024-07-30T08:40:40Z</time>
      </trkpt>
      <trkpt lat="43.43573" lon="1.28627">
        <ele>186.4</ele>
        <time>2024-07-30T08:40:41Z</time>
      </trkpt>
      <trkpt lat="43.43581" lon="1.28632">
        <ele>186.2</ele>
        <time>2024-07-30T08:40:42Z</time>
      </trkpt>
      <trkpt lat="43.43589" lon="1.28637">
        <ele>186.2</ele>
        <time>2024-07-30T08:40:43Z</time>
      </trkpt>
      <trkpt lat="43.43596" lon="1.28642">
        <ele>186.2</ele>
        <time>2024-07-30T08:40:44Z</time>
      </trkpt>
      <trkpt lat="43.43601" lon="1.28645">
        <ele>186</ele>
        <time>2024-07-30T08:40:45Z</time>
      </trkpt>
      <trkpt lat="43.43609" lon="1.2865">
        <ele>186</ele>
        <time>2024-07-30T08:40:46Z</time>
      </trkpt>
      <trkpt lat="43.43618" lon="1.28656">
        <ele>186</ele>
        <time>2024-07-30T08:40:47Z</time>
      </trkpt>
      <trkpt lat="43.43625" lon="1.2866">
        <ele>186</ele>
        <time>2024-07-30T08:40:48Z</time>
      </trkpt>
      <trkpt lat="43.43632" lon="1.28665">
        <ele>185.8</ele>
        <time>2024-07-30T08:40:49Z</time>
      </trkpt>
      <trkpt lat="43.43638" lon="1.28668">
        <ele>185.8</ele>
        <time>2024-07-30T08:40:50Z</time>
      </trkpt>
      <trkpt lat="43.43645" lon="1.28673">
        <ele>185.8</ele>
        <time>2024-07-30T08:40:51Z</time>
      </trkpt>
      <trkpt lat="43.43654" lon="1.28678">
        <ele>185.8</ele>
        <time>2024-07-30T08:40:52Z</time>
      </trkpt>
      <trkpt lat="43.43661" lon="1.28683">
        <ele>185.8</ele>
        <time>2024-07-30T08:40:53Z</time>
      </trkpt>
      <trkpt lat="43.43667" lon="1.28687">
        <ele>185.8</ele>
        <time>2024-07-30T08:40:54Z</time>
      </trkpt>
      <trkpt lat="43.43674" lon="1.28692">
        <ele>185.8</ele>
        <time>2024-07-30T08:40:55Z</time>
      </trkpt>
      <trkpt lat="43.43683" lon="1.28697">
        <ele>185.8</ele>
        <time>2024-07-30T08:40:56Z</time>
      </trkpt>
      <trkpt lat="43.4369" lon="1.28701">
        <ele>185.6</ele>
        <time>2024-07-30T08:40:57Z</time>
      </trkpt>
      <trkpt lat="43.43697" lon="1.28706">
        <ele>185.6</ele>
        <time>2024-07-30T08:40:58Z</time>
      </trkpt>
      <trkpt lat="43.43703" lon="1.28709">
        <ele>185.6</ele>
        <time>2024-07-30T08:40:59Z</time>
      </trkpt>
      <trkpt lat="43.43711" lon="1.28713">
        <ele>185.6</ele>
        <time>2024-07-30T08:41:00Z</time>
      </trkpt>
      <trkpt lat="43.43718" lon="1.28718">
        <ele>185.6</ele>
        <time>2024-07-30T08:41:01Z</time>
      </trkpt>
      <trkpt lat="43.43727" lon="1.28723">
        <ele>185.4</ele>
        <time>2024-07-30T08:41:02Z</time>
      </trkpt>
      <trkpt lat="43.43734" lon="1.28728">
        <ele>185.4</ele>
        <time>2024-07-30T08:41:03Z</time>
      </trkpt>
      <trkpt lat="43.4374" lon="1.28731">
        <ele>185.2</ele>
        <time>2024-07-30T08:41:04Z</time>
      </trkpt>
      <trkpt lat="43.43749" lon="1.28737">
        <ele>185.2</ele>
        <time>2024-07-30T08:41:05Z</time>
      </trkpt>
      <trkpt lat="43.43756" lon="1.28742">
        <ele>185.2</ele>
        <time>2024-07-30T08:41:06Z</time>
      </trkpt>
      <trkpt lat="43.43763" lon="1.28747">
        <ele>185.2</ele>
        <time>2024-07-30T08:41:07Z</time>
      </trkpt>
      <trkpt lat="43.4377" lon="1.28752">
        <ele>185</ele>
        <time>2024-07-30T08:41:08Z</time>
      </trkpt>
      <trkpt lat="43.43776" lon="1.28756">
        <ele>185</ele>
        <time>2024-07-30T08:41:09Z</time>
      </trkpt>
      <trkpt lat="43.43784" lon="1.28761">
        <ele>185</ele>
        <time>2024-07-30T08:41:10Z</time>
      </trkpt>
      <trkpt lat="43.43791" lon="1.28766">
        <ele>185</ele>
        <time>2024-07-30T08:41:11Z</time>
      </trkpt>
      <trkpt lat="43.43798" lon="1.28771">
        <ele>184.8</ele>
        <time>2024-07-30T08:41:12Z</time>
      </trkpt>
      <trkpt lat="43.43804" lon="1.28775">
        <ele>184.8</ele>
        <time>2024-07-30T08:41:13Z</time>
      </trkpt>
      <trkpt lat="43.43811" lon="1.2878">
        <ele>184.8</ele>
        <time>2024-07-30T08:41:14Z</time>
      </trkpt>
      <trkpt lat="43.4382" lon="1.28787">
        <ele>184.8</ele>
        <time>2024-07-30T08:41:15Z</time>
      </trkpt>
      <trkpt lat="43.43827" lon="1.28793">
        <ele>184.8</ele>
        <time>2024-07-30T08:41:16Z</time>
      </trkpt>
      <trkpt lat="43.43832" lon="1.28797">
        <ele>184.8</ele>
        <time>2024-07-30T08:41:17Z</time>
      </trkpt>
      <trkpt lat="43.43839" lon="1.28803">
        <ele>184.6</ele>
        <time>2024-07-30T08:41:18Z</time>
      </trkpt>
      <trkpt lat="43.43848" lon="1.2881">
        <ele>184.6</ele>
        <time>2024-07-30T08:41:19Z</time>
      </trkpt>
      <trkpt lat="43.43855" lon="1.28816">
        <ele>184.6</ele>
        <time>2024-07-30T08:41:20Z</time>
      </trkpt>
      <trkpt lat="43.43862" lon="1.28821">
        <ele>184.6</ele>
        <time>2024-07-30T08:41:21Z</time>
      </trkpt>
      <trkpt lat="43.43867" lon="1.28826">
        <ele>184.6</ele>
        <time>2024-07-30T08:41:22Z</time>
      </trkpt>
      <trkpt lat="43.43874" lon="1.28831">
        <ele>184.4</ele>
        <time>2024-07-30T08:41:23Z</time>
      </trkpt>
      <trkpt lat="43.43882" lon="1.28838">
        <ele>184.4</ele>
        <time>2024-07-30T08:41:24Z</time>
      </trkpt>
      <trkpt lat="43.43888" lon="1.28843">
        <ele>184.4</ele>
        <time>2024-07-30T08:41:25Z</time>
      </trkpt>
      <trkpt lat="43.43895" lon="1.28849">
        <ele>184.2</ele>
        <time>2024-07-30T08:41:26Z</time>
      </trkpt>
      <trkpt lat="43.439" lon="1.28853">
        <ele>184.2</ele>
        <time>2024-07-30T08:41:27Z</time>
      </trkpt>
      <trkpt lat="43.43908" lon="1.28861">
        <ele>184.2</ele>
        <time>2024-07-30T08:41:28Z</time>
      </trkpt>
      <trkpt lat="43.43915" lon="1.28867">
        <ele>184.2</ele>
        <time>2024-07-30T08:41:29Z</time>
      </trkpt>
      <trkpt lat="43.43921" lon="1.28874">
        <ele>184.2</ele>
        <time>2024-07-30T08:41:30Z</time>
      </trkpt>
      <trkpt lat="43.43927" lon="1.28879">
        <ele>184</ele>
        <time>2024-07-30T08:41:31Z</time>
      </trkpt>
      <trkpt lat="43.43933" lon="1.28885">
        <ele>184</ele>
        <time>2024-07-30T08:41:32Z</time>
      </trkpt>
      <trkpt lat="43.4394" lon="1.28894">
        <ele>184</ele>
        <time>2024-07-30T08:41:33Z</time>
      </trkpt>
      <trkpt lat="43.43946" lon="1.28902">
        <ele>183.8</ele>
        <time>2024-07-30T08:41:34Z</time>
      </trkpt>
      <trkpt lat="43.43952" lon="1.2891">
        <ele>183.8</ele>
        <time>2024-07-30T08:41:35Z</time>
      </trkpt>
      <trkpt lat="43.43957" lon="1.28916">
        <ele>183.8</ele>
        <time>2024-07-30T08:41:36Z</time>
      </trkpt>
      <trkpt lat="43.43964" lon="1.28925">
        <ele>183.8</ele>
        <time>2024-07-30T08:41:37Z</time>
      </trkpt>
      <trkpt lat="43.4397" lon="1.28934">
        <ele>183.8</ele>
        <time>2024-07-30T08:41:38Z</time>
      </trkpt>
      <trkpt lat="43.43975" lon="1.28942">
        <ele>183.8</ele>
        <time>2024-07-30T08:41:39Z</time>
      </trkpt>
      <trkpt lat="43.43981" lon="1.2895">
        <ele>183.8</ele>
        <time>2024-07-30T08:41:40Z</time>
      </trkpt>
      <trkpt lat="43.43985" lon="1.28957">
        <ele>183.8</ele>
        <time>2024-07-30T08:41:41Z</time>
      </trkpt>
      <trkpt lat="43.43992" lon="1.28966">
        <ele>183.8</ele>
        <time>2024-07-30T08:41:42Z</time>
      </trkpt>
      <trkpt lat="43.43998" lon="1.28974">
        <ele>183.8</ele>
        <time>2024-07-30T08:41:43Z</time>
      </trkpt>
      <trkpt lat="43.44003" lon="1.28982">
        <ele>183.8</ele>
        <time>2024-07-30T08:41:44Z</time>
      </trkpt>
      <trkpt lat="43.44008" lon="1.28989">
        <ele>183.8</ele>
        <time>2024-07-30T08:41:45Z</time>
      </trkpt>
      <trkpt lat="43.44014" lon="1.28998">
        <ele>183.8</ele>
        <time>2024-07-30T08:41:46Z</time>
      </trkpt>
      <trkpt lat="43.4402" lon="1.29006">
        <ele>183.8</ele>
        <time>2024-07-30T08:41:47Z</time>
      </trkpt>
      <trkpt lat="43.44026" lon="1.29013">
        <ele>183.8</ele>
        <time>2024-07-30T08:41:48Z</time>
      </trkpt>
      <trkpt lat="43.44032" lon="1.2902">
        <ele>183.8</ele>
        <time>2024-07-30T08:41:49Z</time>
      </trkpt>
      <trkpt lat="43.44039" lon="1.29026">
        <ele>183.8</ele>
        <time>2024-07-30T08:41:50Z</time>
      </trkpt>
      <trkpt lat="43.44045" lon="1.29032">
        <ele>183.8</ele>
        <time>2024-07-30T08:41:51Z</time>
      </trkpt>
      <trkpt lat="43.44051" lon="1.29037">
        <ele>183.8</ele>
        <time>2024-07-30T08:41:52Z</time>
      </trkpt>
      <trkpt lat="43.44058" lon="1.29043">
        <ele>183.8</ele>
        <time>2024-07-30T08:41:53Z</time>
      </trkpt>
      <trkpt lat="43.44063" lon="1.29047">
        <ele>183.8</ele>
        <time>2024-07-30T08:41:54Z</time>
      </trkpt>
      <trkpt lat="43.44069" lon="1.29053">
        <ele>183.8</ele>
        <time>2024-07-30T08:41:55Z</time>
      </trkpt>
      <trkpt lat="43.44077" lon="1.29059">
        <ele>183.8</ele>
        <time>2024-07-30T08:41:56Z</time>
      </trkpt>
      <trkpt lat="43.44083" lon="1.29063">
        <ele>183.8</ele>
        <time>2024-07-30T08:41:57Z</time>
      </trkpt>
      <trkpt lat="43.44088" lon="1.29067">
        <ele>183.8</ele>
        <time>2024-07-30T08:41:58Z</time>
      </trkpt>
      <trkpt lat="43.44094" lon="1.29071">
        <ele>183.8</ele>
        <time>2024-07-30T08:41:59Z</time>
      </trkpt>
      <trkpt lat="43.44094" lon="1.29071">
        <ele>183.8</ele>
        <time>2024-07-30T08:42:00Z</time>
      </trkpt>
      <trkpt lat="43.44106" lon="1.29079">
        <ele>183.8</ele>
        <time>2024-07-30T08:42:01Z</time>
      </trkpt>
      <trkpt lat="43.44111" lon="1.29084">
        <ele>183.8</ele>
        <time>2024-07-30T08:42:02Z</time>
      </trkpt>
      <trkpt lat="43.44116" lon="1.29088">
        <ele>183.8</ele>
        <time>2024-07-30T08:42:03Z</time>
      </trkpt>
      <trkpt lat="43.44122" lon="1.29092">
        <ele>184</ele>
        <time>2024-07-30T08:42:04Z</time>
      </trkpt>
      <trkpt lat="43.44127" lon="1.29097">
        <ele>184</ele>
        <time>2024-07-30T08:42:05Z</time>
      </trkpt>
      <trkpt lat="43.44133" lon="1.29101">
        <ele>184</ele>
        <time>2024-07-30T08:42:06Z</time>
      </trkpt>
      <trkpt lat="43.44138" lon="1.29105">
        <ele>184</ele>
        <time>2024-07-30T08:42:07Z</time>
      </trkpt>
      <trkpt lat="43.44144" lon="1.29109">
        <ele>184</ele>
        <time>2024-07-30T08:42:08Z</time>
      </trkpt>
      <trkpt lat="43.44149" lon="1.29113">
        <ele>184</ele>
        <time>2024-07-30T08:42:09Z</time>
      </trkpt>
      <trkpt lat="43.44154" lon="1.29117">
        <ele>184</ele>
        <time>2024-07-30T08:42:10Z</time>
      </trkpt>
      <trkpt lat="43.44159" lon="1.29121">
        <ele>184</ele>
        <time>2024-07-30T08:42:11Z</time>
      </trkpt>
      <trkpt lat="43.44165" lon="1.29125">
        <ele>184</ele>
        <time>2024-07-30T08:42:12Z</time>
      </trkpt>
      <trkpt lat="43.44169" lon="1.29129">
        <ele>184</ele>
        <time>2024-07-30T08:42:13Z</time>
      </trkpt>
      <trkpt lat="43.44176" lon="1.29134">
        <ele>183.8</ele>
        <time>2024-07-30T08:42:14Z</time>
      </trkpt>
      <trkpt lat="43.44181" lon="1.29139">
        <ele>183.8</ele>
        <time>2024-07-30T08:42:15Z</time>
      </trkpt>
      <trkpt lat="43.44186" lon="1.29143">
        <ele>183.8</ele>
        <time>2024-07-30T08:42:16Z</time>
      </trkpt>
      <trkpt lat="43.44191" lon="1.29146">
        <ele>183.8</ele>
        <time>2024-07-30T08:42:17Z</time>
      </trkpt>
      <trkpt lat="43.44196" lon="1.2915">
        <ele>183.6</ele>
        <time>2024-07-30T08:42:18Z</time>
      </trkpt>
      <trkpt lat="43.44201" lon="1.29154">
        <ele>183.6</ele>
        <time>2024-07-30T08:42:19Z</time>
      </trkpt>
      <trkpt lat="43.44206" lon="1.29158">
        <ele>183.6</ele>
        <time>2024-07-30T08:42:20Z</time>
      </trkpt>
      <trkpt lat="43.44211" lon="1.29162">
        <ele>183.6</ele>
        <time>2024-07-30T08:42:21Z</time>
      </trkpt>
      <trkpt lat="43.44215" lon="1.29166">
        <ele>183.6</ele>
        <time>2024-07-30T08:42:22Z</time>
      </trkpt>
      <trkpt lat="43.4422" lon="1.29172">
        <ele>183.6</ele>
        <time>2024-07-30T08:42:23Z</time>
      </trkpt>
      <trkpt lat="43.44224" lon="1.29178">
        <ele>183.8</ele>
        <time>2024-07-30T08:42:24Z</time>
      </trkpt>
      <trkpt lat="43.44228" lon="1.29184">
        <ele>183.8</ele>
        <time>2024-07-30T08:42:25Z</time>
      </trkpt>
      <trkpt lat="43.44233" lon="1.29189">
        <ele>183.8</ele>
        <time>2024-07-30T08:42:26Z</time>
      </trkpt>
      <trkpt lat="43.44239" lon="1.29193">
        <ele>183.8</ele>
        <time>2024-07-30T08:42:27Z</time>
      </trkpt>
      <trkpt lat="43.44245" lon="1.29196">
        <ele>183.8</ele>
        <time>2024-07-30T08:42:28Z</time>
      </trkpt>
      <trkpt lat="43.44251" lon="1.292">
        <ele>183.8</ele>
        <time>2024-07-30T08:42:29Z</time>
      </trkpt>
      <trkpt lat="43.44257" lon="1.29203">
        <ele>183.8</ele>
        <time>2024-07-30T08:42:30Z</time>
      </trkpt>
      <trkpt lat="43.44263" lon="1.29207">
        <ele>183.8</ele>
        <time>2024-07-30T08:42:31Z</time>
      </trkpt>
      <trkpt lat="43.4427" lon="1.29211">
        <ele>183.6</ele>
        <time>2024-07-30T08:42:32Z</time>
      </trkpt>
      <trkpt lat="43.44276" lon="1.29216">
        <ele>183.6</ele>
        <time>2024-07-30T08:42:33Z</time>
      </trkpt>
      <trkpt lat="43.44282" lon="1.29221">
        <ele>183.6</ele>
        <time>2024-07-30T08:42:34Z</time>
      </trkpt>
      <trkpt lat="43.44286" lon="1.29225">
        <ele>183.6</ele>
        <time>2024-07-30T08:42:35Z</time>
      </trkpt>
      <trkpt lat="43.44292" lon="1.2923">
        <ele>183.6</ele>
        <time>2024-07-30T08:42:36Z</time>
      </trkpt>
      <trkpt lat="43.44299" lon="1.29236">
        <ele>183.6</ele>
        <time>2024-07-30T08:42:37Z</time>
      </trkpt>
      <trkpt lat="43.44306" lon="1.2924">
        <ele>183.4</ele>
        <time>2024-07-30T08:42:38Z</time>
      </trkpt>
      <trkpt lat="43.44312" lon="1.29244">
        <ele>183.4</ele>
        <time>2024-07-30T08:42:39Z</time>
      </trkpt>
      <trkpt lat="43.44317" lon="1.29247">
        <ele>183.4</ele>
        <time>2024-07-30T08:42:40Z</time>
      </trkpt>
      <trkpt lat="43.44326" lon="1.29251">
        <ele>183.2</ele>
        <time>2024-07-30T08:42:41Z</time>
      </trkpt>
      <trkpt lat="43.44333" lon="1.29252">
        <ele>183.2</ele>
        <time>2024-07-30T08:42:42Z</time>
      </trkpt>
      <trkpt lat="43.44341" lon="1.29253">
        <ele>183.2</ele>
        <time>2024-07-30T08:42:43Z</time>
      </trkpt>
      <trkpt lat="43.44348" lon="1.29254">
        <ele>183</ele>
        <time>2024-07-30T08:42:44Z</time>
      </trkpt>
      <trkpt lat="43.44355" lon="1.29255">
        <ele>183</ele>
        <time>2024-07-30T08:42:45Z</time>
      </trkpt>
      <trkpt lat="43.44363" lon="1.29256">
        <ele>183</ele>
        <time>2024-07-30T08:42:46Z</time>
      </trkpt>
      <trkpt lat="43.44371" lon="1.29257">
        <ele>183</ele>
        <time>2024-07-30T08:42:47Z</time>
      </trkpt>
      <trkpt lat="43.44378" lon="1.29258">
        <ele>183</ele>
        <time>2024-07-30T08:42:48Z</time>
      </trkpt>
      <trkpt lat="43.44385" lon="1.29259">
        <ele>182.8</ele>
        <time>2024-07-30T08:42:49Z</time>
      </trkpt>
      <trkpt lat="43.44393" lon="1.2926">
        <ele>183</ele>
        <time>2024-07-30T08:42:50Z</time>
      </trkpt>
      <trkpt lat="43.444" lon="1.29261">
        <ele>183</ele>
        <time>2024-07-30T08:42:51Z</time>
      </trkpt>
      <trkpt lat="43.44407" lon="1.29262">
        <ele>183</ele>
        <time>2024-07-30T08:42:52Z</time>
      </trkpt>
      <trkpt lat="43.44414" lon="1.29262">
        <ele>183</ele>
        <time>2024-07-30T08:42:53Z</time>
      </trkpt>
      <trkpt lat="43.44421" lon="1.29264">
        <ele>183</ele>
        <time>2024-07-30T08:42:54Z</time>
      </trkpt>
      <trkpt lat="43.44428" lon="1.29265">
        <ele>183.2</ele>
        <time>2024-07-30T08:42:55Z</time>
      </trkpt>
      <trkpt lat="43.44435" lon="1.29266">
        <ele>183.2</ele>
        <time>2024-07-30T08:42:56Z</time>
      </trkpt>
      <trkpt lat="43.44442" lon="1.29266">
        <ele>183.2</ele>
        <time>2024-07-30T08:42:57Z</time>
      </trkpt>
      <trkpt lat="43.44449" lon="1.29267">
        <ele>183.2</ele>
        <time>2024-07-30T08:42:58Z</time>
      </trkpt>
      <trkpt lat="43.44456" lon="1.29268">
        <ele>183.2</ele>
        <time>2024-07-30T08:42:59Z</time>
      </trkpt>
      <trkpt lat="43.44463" lon="1.29268">
        <ele>183.2</ele>
        <time>2024-07-30T08:43:00Z</time>
      </trkpt>
      <trkpt lat="43.4447" lon="1.29268">
        <ele>183.2</ele>
        <time>2024-07-30T08:43:01Z</time>
      </trkpt>
      <trkpt lat="43.44478" lon="1.29269">
        <ele>183.2</ele>
        <time>2024-07-30T08:43:02Z</time>
      </trkpt>
      <trkpt lat="43.44485" lon="1.29269">
        <ele>183.2</ele>
        <time>2024-07-30T08:43:03Z</time>
      </trkpt>
      <trkpt lat="43.44493" lon="1.2927">
        <ele>183.2</ele>
        <time>2024-07-30T08:43:04Z</time>
      </trkpt>
      <trkpt lat="43.445" lon="1.2927">
        <ele>183.2</ele>
        <time>2024-07-30T08:43:05Z</time>
      </trkpt>
      <trkpt lat="43.44507" lon="1.2927">
        <ele>183.2</ele>
        <time>2024-07-30T08:43:06Z</time>
      </trkpt>
      <trkpt lat="43.44515" lon="1.2927">
        <ele>183.2</ele>
        <time>2024-07-30T08:43:07Z</time>
      </trkpt>
      <trkpt lat="43.44522" lon="1.29271">
        <ele>183.2</ele>
        <time>2024-07-30T08:43:08Z</time>
      </trkpt>
      <trkpt lat="43.4453" lon="1.29271">
        <ele>183.2</ele>
        <time>2024-07-30T08:43:09Z</time>
      </trkpt>
      <trkpt lat="43.44537" lon="1.29272">
        <ele>183.2</ele>
        <time>2024-07-30T08:43:10Z</time>
      </trkpt>
      <trkpt lat="43.44545" lon="1.29272">
        <ele>183.2</ele>
        <time>2024-07-30T08:43:11Z</time>
      </trkpt>
      <trkpt lat="43.44553" lon="1.29272">
        <ele>183.2</ele>
        <time>2024-07-30T08:43:12Z</time>
      </trkpt>
      <trkpt lat="43.44561" lon="1.29273">
        <ele>183.2</ele>
        <time>2024-07-30T08:43:13Z</time>
      </trkpt>
      <trkpt lat="43.44568" lon="1.29273">
        <ele>183.2</ele>
        <time>2024-07-30T08:43:14Z</time>
      </trkpt>
      <trkpt lat="43.44576" lon="1.29274">
        <ele>183.2</ele>
        <time>2024-07-30T08:43:15Z</time>
      </trkpt>
      <trkpt lat="43.44584" lon="1.29274">
        <ele>183.2</ele>
        <time>2024-07-30T08:43:16Z</time>
      </trkpt>
      <trkpt lat="43.44592" lon="1.29274">
        <ele>183.2</ele>
        <time>2024-07-30T08:43:17Z</time>
      </trkpt>
      <trkpt lat="43.446" lon="1.29274">
        <ele>183</ele>
        <time>2024-07-30T08:43:18Z</time>
      </trkpt>
      <trkpt lat="43.44609" lon="1.29274">
        <ele>183</ele>
        <time>2024-07-30T08:43:19Z</time>
      </trkpt>
      <trkpt lat="43.44617" lon="1.29275">
        <ele>183</ele>
        <time>2024-07-30T08:43:20Z</time>
      </trkpt>
      <trkpt lat="43.44625" lon="1.29275">
        <ele>183</ele>
        <time>2024-07-30T08:43:21Z</time>
      </trkpt>
      <trkpt lat="43.44633" lon="1.29275">
        <ele>183</ele>
        <time>2024-07-30T08:43:22Z</time>
      </trkpt>
      <trkpt lat="43.44641" lon="1.29275">
        <ele>183</ele>
        <time>2024-07-30T08:43:23Z</time>
      </trkpt>
      <trkpt lat="43.44648" lon="1.29275">
        <ele>182.8</ele>
        <time>2024-07-30T08:43:24Z</time>
      </trkpt>
      <trkpt lat="43.44657" lon="1.29275">
        <ele>182.8</ele>
        <time>2024-07-30T08:43:25Z</time>
      </trkpt>
      <trkpt lat="43.44665" lon="1.29274">
        <ele>182.6</ele>
        <time>2024-07-30T08:43:26Z</time>
      </trkpt>
      <trkpt lat="43.44673" lon="1.29274">
        <ele>182.6</ele>
        <time>2024-07-30T08:43:27Z</time>
      </trkpt>
      <trkpt lat="43.44681" lon="1.29273">
        <ele>182.6</ele>
        <time>2024-07-30T08:43:28Z</time>
      </trkpt>
      <trkpt lat="43.44689" lon="1.29272">
        <ele>182.6</ele>
        <time>2024-07-30T08:43:29Z</time>
      </trkpt>
      <trkpt lat="43.44696" lon="1.29272">
        <ele>182.6</ele>
        <time>2024-07-30T08:43:30Z</time>
      </trkpt>
      <trkpt lat="43.44703" lon="1.29271">
        <ele>182.6</ele>
        <time>2024-07-30T08:43:31Z</time>
      </trkpt>
      <trkpt lat="43.44712" lon="1.2927">
        <ele>182.6</ele>
        <time>2024-07-30T08:43:32Z</time>
      </trkpt>
      <trkpt lat="43.44719" lon="1.29269">
        <ele>182.6</ele>
        <time>2024-07-30T08:43:33Z</time>
      </trkpt>
      <trkpt lat="43.44727" lon="1.29268">
        <ele>182.6</ele>
        <time>2024-07-30T08:43:34Z</time>
      </trkpt>
      <trkpt lat="43.44735" lon="1.29268">
        <ele>182.6</ele>
        <time>2024-07-30T08:43:35Z</time>
      </trkpt>
      <trkpt lat="43.44742" lon="1.29267">
        <ele>182.6</ele>
        <time>2024-07-30T08:43:36Z</time>
      </trkpt>
      <trkpt lat="43.4475" lon="1.29266">
        <ele>182.6</ele>
        <time>2024-07-30T08:43:37Z</time>
      </trkpt>
      <trkpt lat="43.44758" lon="1.29265">
        <ele>182.4</ele>
        <time>2024-07-30T08:43:38Z</time>
      </trkpt>
      <trkpt lat="43.44764" lon="1.29265">
        <ele>182.4</ele>
        <time>2024-07-30T08:43:39Z</time>
      </trkpt>
      <trkpt lat="43.44772" lon="1.29264">
        <ele>182.4</ele>
        <time>2024-07-30T08:43:40Z</time>
      </trkpt>
      <trkpt lat="43.44781" lon="1.29263">
        <ele>182.4</ele>
        <time>2024-07-30T08:43:41Z</time>
      </trkpt>
      <trkpt lat="43.44789" lon="1.29262">
        <ele>182.4</ele>
        <time>2024-07-30T08:43:42Z</time>
      </trkpt>
      <trkpt lat="43.44796" lon="1.29261">
        <ele>182.2</ele>
        <time>2024-07-30T08:43:43Z</time>
      </trkpt>
      <trkpt lat="43.44804" lon="1.29261">
        <ele>182.2</ele>
        <time>2024-07-30T08:43:44Z</time>
      </trkpt>
      <trkpt lat="43.44812" lon="1.2926">
        <ele>182</ele>
        <time>2024-07-30T08:43:45Z</time>
      </trkpt>
      <trkpt lat="43.44819" lon="1.29259">
        <ele>182</ele>
        <time>2024-07-30T08:43:46Z</time>
      </trkpt>
      <trkpt lat="43.44827" lon="1.29258">
        <ele>182</ele>
        <time>2024-07-30T08:43:47Z</time>
      </trkpt>
      <trkpt lat="43.44835" lon="1.29257">
        <ele>182</ele>
        <time>2024-07-30T08:43:48Z</time>
      </trkpt>
      <trkpt lat="43.44842" lon="1.29257">
        <ele>182</ele>
        <time>2024-07-30T08:43:49Z</time>
      </trkpt>
      <trkpt lat="43.44852" lon="1.29256">
        <ele>182</ele>
        <time>2024-07-30T08:43:50Z</time>
      </trkpt>
      <trkpt lat="43.4486" lon="1.29255">
        <ele>182</ele>
        <time>2024-07-30T08:43:51Z</time>
      </trkpt>
      <trkpt lat="43.44869" lon="1.29254">
        <ele>182</ele>
        <time>2024-07-30T08:43:52Z</time>
      </trkpt>
      <trkpt lat="43.44877" lon="1.29253">
        <ele>182</ele>
        <time>2024-07-30T08:43:53Z</time>
      </trkpt>
      <trkpt lat="43.44885" lon="1.29253">
        <ele>181.8</ele>
        <time>2024-07-30T08:43:54Z</time>
      </trkpt>
      <trkpt lat="43.44893" lon="1.29252">
        <ele>181.8</ele>
        <time>2024-07-30T08:43:55Z</time>
      </trkpt>
      <trkpt lat="43.44901" lon="1.29251">
        <ele>181.8</ele>
        <time>2024-07-30T08:43:56Z</time>
      </trkpt>
      <trkpt lat="43.44908" lon="1.2925">
        <ele>181.4</ele>
        <time>2024-07-30T08:43:57Z</time>
      </trkpt>
      <trkpt lat="43.44914" lon="1.29249">
        <ele>181.4</ele>
        <time>2024-07-30T08:43:58Z</time>
      </trkpt>
      <trkpt lat="43.44923" lon="1.29247">
        <ele>181.4</ele>
        <time>2024-07-30T08:43:59Z</time>
      </trkpt>
      <trkpt lat="43.4493" lon="1.29246">
        <ele>181.6</ele>
        <time>2024-07-30T08:44:00Z</time>
      </trkpt>
      <trkpt lat="43.44938" lon="1.29244">
        <ele>181.6</ele>
        <time>2024-07-30T08:44:01Z</time>
      </trkpt>
      <trkpt lat="43.44945" lon="1.29242">
        <ele>181.6</ele>
        <time>2024-07-30T08:44:02Z</time>
      </trkpt>
      <trkpt lat="43.44953" lon="1.2924">
        <ele>181.6</ele>
        <time>2024-07-30T08:44:03Z</time>
      </trkpt>
      <trkpt lat="43.4496" lon="1.29238">
        <ele>181.8</ele>
        <time>2024-07-30T08:44:04Z</time>
      </trkpt>
      <trkpt lat="43.44968" lon="1.29236">
        <ele>181.8</ele>
        <time>2024-07-30T08:44:05Z</time>
      </trkpt>
      <trkpt lat="43.44975" lon="1.29235">
        <ele>182</ele>
        <time>2024-07-30T08:44:06Z</time>
      </trkpt>
      <trkpt lat="43.44983" lon="1.29233">
        <ele>182</ele>
        <time>2024-07-30T08:44:07Z</time>
      </trkpt>
      <trkpt lat="43.44991" lon="1.29231">
        <ele>182.2</ele>
        <time>2024-07-30T08:44:08Z</time>
      </trkpt>
      <trkpt lat="43.44999" lon="1.2923">
        <ele>182.2</ele>
        <time>2024-07-30T08:44:09Z</time>
      </trkpt>
      <trkpt lat="43.45007" lon="1.29228">
        <ele>182.2</ele>
        <time>2024-07-30T08:44:10Z</time>
      </trkpt>
      <trkpt lat="43.45015" lon="1.29227">
        <ele>182.2</ele>
        <time>2024-07-30T08:44:11Z</time>
      </trkpt>
      <trkpt lat="43.45022" lon="1.29225">
        <ele>182.2</ele>
        <time>2024-07-30T08:44:12Z</time>
      </trkpt>
      <trkpt lat="43.4503" lon="1.29224">
        <ele>182.4</ele>
        <time>2024-07-30T08:44:13Z</time>
      </trkpt>
      <trkpt lat="43.45038" lon="1.29223">
        <ele>182.4</ele>
        <time>2024-07-30T08:44:14Z</time>
      </trkpt>
      <trkpt lat="43.45046" lon="1.29222">
        <ele>182.6</ele>
        <time>2024-07-30T08:44:15Z</time>
      </trkpt>
      <trkpt lat="43.45053" lon="1.2922">
        <ele>182.4</ele>
        <time>2024-07-30T08:44:16Z</time>
      </trkpt>
      <trkpt lat="43.45061" lon="1.29219">
        <ele>182.2</ele>
        <time>2024-07-30T08:44:17Z</time>
      </trkpt>
      <trkpt lat="43.45069" lon="1.29218">
        <ele>182.2</ele>
        <time>2024-07-30T08:44:18Z</time>
      </trkpt>
      <trkpt lat="43.45077" lon="1.29217">
        <ele>182.2</ele>
        <time>2024-07-30T08:44:19Z</time>
      </trkpt>
      <trkpt lat="43.45085" lon="1.29216">
        <ele>182.2</ele>
        <time>2024-07-30T08:44:20Z</time>
      </trkpt>
      <trkpt lat="43.45093" lon="1.29215">
        <ele>182.4</ele>
        <time>2024-07-30T08:44:21Z</time>
      </trkpt>
      <trkpt lat="43.451" lon="1.29215">
        <ele>182.4</ele>
        <time>2024-07-30T08:44:22Z</time>
      </trkpt>
      <trkpt lat="43.45107" lon="1.29215">
        <ele>182.2</ele>
        <time>2024-07-30T08:44:23Z</time>
      </trkpt>
      <trkpt lat="43.45115" lon="1.29214">
        <ele>182.2</ele>
        <time>2024-07-30T08:44:24Z</time>
      </trkpt>
      <trkpt lat="43.45122" lon="1.29214">
        <ele>182.2</ele>
        <time>2024-07-30T08:44:25Z</time>
      </trkpt>
      <trkpt lat="43.45129" lon="1.29214">
        <ele>182</ele>
        <time>2024-07-30T08:44:26Z</time>
      </trkpt>
      <trkpt lat="43.45137" lon="1.29214">
        <ele>182.4</ele>
        <time>2024-07-30T08:44:27Z</time>
      </trkpt>
      <trkpt lat="43.45144" lon="1.29215">
        <ele>182.4</ele>
        <time>2024-07-30T08:44:28Z</time>
      </trkpt>
      <trkpt lat="43.45144" lon="1.29215">
        <ele>182.2</ele>
        <time>2024-07-30T08:44:29Z</time>
      </trkpt>
      <trkpt lat="43.45158" lon="1.29215">
        <ele>182</ele>
        <time>2024-07-30T08:44:30Z</time>
      </trkpt>
      <trkpt lat="43.45168" lon="1.29216">
        <ele>182.2</ele>
        <time>2024-07-30T08:44:31Z</time>
      </trkpt>
      <trkpt lat="43.45175" lon="1.29216">
        <ele>182.2</ele>
        <time>2024-07-30T08:44:32Z</time>
      </trkpt>
      <trkpt lat="43.45183" lon="1.29216">
        <ele>182.2</ele>
        <time>2024-07-30T08:44:33Z</time>
      </trkpt>
      <trkpt lat="43.4519" lon="1.29216">
        <ele>182.2</ele>
        <time>2024-07-30T08:44:34Z</time>
      </trkpt>
      <trkpt lat="43.45196" lon="1.29216">
        <ele>182.2</ele>
        <time>2024-07-30T08:44:35Z</time>
      </trkpt>
      <trkpt lat="43.45205" lon="1.29217">
        <ele>182</ele>
        <time>2024-07-30T08:44:36Z</time>
      </trkpt>
      <trkpt lat="43.45213" lon="1.29217">
        <ele>182</ele>
        <time>2024-07-30T08:44:37Z</time>
      </trkpt>
      <trkpt lat="43.4522" lon="1.29217">
        <ele>182</ele>
        <time>2024-07-30T08:44:38Z</time>
      </trkpt>
      <trkpt lat="43.45228" lon="1.29218">
        <ele>182</ele>
        <time>2024-07-30T08:44:39Z</time>
      </trkpt>
      <trkpt lat="43.45236" lon="1.29218">
        <ele>182</ele>
        <time>2024-07-30T08:44:40Z</time>
      </trkpt>
      <trkpt lat="43.45243" lon="1.29219">
        <ele>182</ele>
        <time>2024-07-30T08:44:41Z</time>
      </trkpt>
      <trkpt lat="43.45251" lon="1.29219">
        <ele>182</ele>
        <time>2024-07-30T08:44:42Z</time>
      </trkpt>
      <trkpt lat="43.45258" lon="1.29219">
        <ele>181.8</ele>
        <time>2024-07-30T08:44:43Z</time>
      </trkpt>
      <trkpt lat="43.45266" lon="1.2922">
        <ele>181.8</ele>
        <time>2024-07-30T08:44:44Z</time>
      </trkpt>
      <trkpt lat="43.45275" lon="1.2922">
        <ele>181.8</ele>
        <time>2024-07-30T08:44:45Z</time>
      </trkpt>
      <trkpt lat="43.45282" lon="1.2922">
        <ele>181.8</ele>
        <time>2024-07-30T08:44:46Z</time>
      </trkpt>
      <trkpt lat="43.45289" lon="1.2922">
        <ele>181.6</ele>
        <time>2024-07-30T08:44:47Z</time>
      </trkpt>
      <trkpt lat="43.45297" lon="1.29221">
        <ele>181.6</ele>
        <time>2024-07-30T08:44:48Z</time>
      </trkpt>
      <trkpt lat="43.45304" lon="1.29221">
        <ele>181.6</ele>
        <time>2024-07-30T08:44:49Z</time>
      </trkpt>
      <trkpt lat="43.45311" lon="1.29221">
        <ele>181.6</ele>
        <time>2024-07-30T08:44:50Z</time>
      </trkpt>
      <trkpt lat="43.45319" lon="1.29221">
        <ele>181.6</ele>
        <time>2024-07-30T08:44:51Z</time>
      </trkpt>
      <trkpt lat="43.45327" lon="1.29221">
        <ele>181.6</ele>
        <time>2024-07-30T08:44:52Z</time>
      </trkpt>
      <trkpt lat="43.45333" lon="1.29221">
        <ele>181.6</ele>
        <time>2024-07-30T08:44:53Z</time>
      </trkpt>
      <trkpt lat="43.45342" lon="1.29222">
        <ele>181.6</ele>
        <time>2024-07-30T08:44:54Z</time>
      </trkpt>
      <trkpt lat="43.45349" lon="1.29223">
        <ele>181.6</ele>
        <time>2024-07-30T08:44:55Z</time>
      </trkpt>
      <trkpt lat="43.45357" lon="1.29223">
        <ele>181.6</ele>
        <time>2024-07-30T08:44:56Z</time>
      </trkpt>
      <trkpt lat="43.45364" lon="1.29224">
        <ele>181.8</ele>
        <time>2024-07-30T08:44:57Z</time>
      </trkpt>
      <trkpt lat="43.45371" lon="1.29225">
        <ele>181.8</ele>
        <time>2024-07-30T08:44:58Z</time>
      </trkpt>
      <trkpt lat="43.45378" lon="1.29226">
        <ele>181.8</ele>
        <time>2024-07-30T08:44:59Z</time>
      </trkpt>
      <trkpt lat="43.45386" lon="1.29227">
        <ele>181.8</ele>
        <time>2024-07-30T08:45:00Z</time>
      </trkpt>
      <trkpt lat="43.45394" lon="1.29228">
        <ele>181.6</ele>
        <time>2024-07-30T08:45:01Z</time>
      </trkpt>
      <trkpt lat="43.454" lon="1.29229">
        <ele>181.6</ele>
        <time>2024-07-30T08:45:02Z</time>
      </trkpt>
      <trkpt lat="43.45409" lon="1.29231">
        <ele>181.6</ele>
        <time>2024-07-30T08:45:03Z</time>
      </trkpt>
      <trkpt lat="43.45417" lon="1.29233">
        <ele>181.6</ele>
        <time>2024-07-30T08:45:04Z</time>
      </trkpt>
      <trkpt lat="43.45426" lon="1.29234">
        <ele>181.6</ele>
        <time>2024-07-30T08:45:05Z</time>
      </trkpt>
      <trkpt lat="43.45434" lon="1.29236">
        <ele>181.6</ele>
        <time>2024-07-30T08:45:06Z</time>
      </trkpt>
      <trkpt lat="43.45442" lon="1.29238">
        <ele>181.4</ele>
        <time>2024-07-30T08:45:07Z</time>
      </trkpt>
      <trkpt lat="43.45451" lon="1.2924">
        <ele>181.4</ele>
        <time>2024-07-30T08:45:08Z</time>
      </trkpt>
      <trkpt lat="43.45459" lon="1.29242">
        <ele>181.2</ele>
        <time>2024-07-30T08:45:09Z</time>
      </trkpt>
      <trkpt lat="43.45468" lon="1.29244">
        <ele>181</ele>
        <time>2024-07-30T08:45:10Z</time>
      </trkpt>
      <trkpt lat="43.45477" lon="1.29246">
        <ele>180.8</ele>
        <time>2024-07-30T08:45:11Z</time>
      </trkpt>
      <trkpt lat="43.45485" lon="1.29249">
        <ele>180.6</ele>
        <time>2024-07-30T08:45:12Z</time>
      </trkpt>
      <trkpt lat="43.45494" lon="1.29251">
        <ele>180.4</ele>
        <time>2024-07-30T08:45:13Z</time>
      </trkpt>
      <trkpt lat="43.45503" lon="1.29253">
        <ele>179.8</ele>
        <time>2024-07-30T08:45:14Z</time>
      </trkpt>
      <trkpt lat="43.45511" lon="1.29255">
        <ele>179.8</ele>
        <time>2024-07-30T08:45:15Z</time>
      </trkpt>
      <trkpt lat="43.4552" lon="1.29257">
        <ele>179.6</ele>
        <time>2024-07-30T08:45:16Z</time>
      </trkpt>
      <trkpt lat="43.45528" lon="1.29259">
        <ele>179.4</ele>
        <time>2024-07-30T08:45:17Z</time>
      </trkpt>
      <trkpt lat="43.45537" lon="1.29261">
        <ele>179.2</ele>
        <time>2024-07-30T08:45:18Z</time>
      </trkpt>
      <trkpt lat="43.45545" lon="1.29263">
        <ele>179</ele>
        <time>2024-07-30T08:45:19Z</time>
      </trkpt>
      <trkpt lat="43.45554" lon="1.29265">
        <ele>178.8</ele>
        <time>2024-07-30T08:45:20Z</time>
      </trkpt>
      <trkpt lat="43.45563" lon="1.29267">
        <ele>178.6</ele>
        <time>2024-07-30T08:45:21Z</time>
      </trkpt>
      <trkpt lat="43.45571" lon="1.2927">
        <ele>178.4</ele>
        <time>2024-07-30T08:45:22Z</time>
      </trkpt>
      <trkpt lat="43.4558" lon="1.29272">
        <ele>178.4</ele>
        <time>2024-07-30T08:45:23Z</time>
      </trkpt>
      <trkpt lat="43.45589" lon="1.29273">
        <ele>178.2</ele>
        <time>2024-07-30T08:45:24Z</time>
      </trkpt>
      <trkpt lat="43.45596" lon="1.29275">
        <ele>178.2</ele>
        <time>2024-07-30T08:45:25Z</time>
      </trkpt>
      <trkpt lat="43.45606" lon="1.29277">
        <ele>178.2</ele>
        <time>2024-07-30T08:45:26Z</time>
      </trkpt>
      <trkpt lat="43.45614" lon="1.29279">
        <ele>178.2</ele>
        <time>2024-07-30T08:45:27Z</time>
      </trkpt>
      <trkpt lat="43.45622" lon="1.29282">
        <ele>178.2</ele>
        <time>2024-07-30T08:45:28Z</time>
      </trkpt>
      <trkpt lat="43.4563" lon="1.29284">
        <ele>178.2</ele>
        <time>2024-07-30T08:45:29Z</time>
      </trkpt>
      <trkpt lat="43.45638" lon="1.29287">
        <ele>178.2</ele>
        <time>2024-07-30T08:45:30Z</time>
      </trkpt>
      <trkpt lat="43.45646" lon="1.29289">
        <ele>178.4</ele>
        <time>2024-07-30T08:45:31Z</time>
      </trkpt>
      <trkpt lat="43.45653" lon="1.29291">
        <ele>178.6</ele>
        <time>2024-07-30T08:45:32Z</time>
      </trkpt>
      <trkpt lat="43.4566" lon="1.29293">
        <ele>178.6</ele>
        <time>2024-07-30T08:45:33Z</time>
      </trkpt>
      <trkpt lat="43.45666" lon="1.29294">
        <ele>178.6</ele>
        <time>2024-07-30T08:45:34Z</time>
      </trkpt>
      <trkpt lat="43.45674" lon="1.29297">
        <ele>178.6</ele>
        <time>2024-07-30T08:45:35Z</time>
      </trkpt>
      <trkpt lat="43.45681" lon="1.29298">
        <ele>178.8</ele>
        <time>2024-07-30T08:45:36Z</time>
      </trkpt>
      <trkpt lat="43.45689" lon="1.293">
        <ele>179</ele>
        <time>2024-07-30T08:45:37Z</time>
      </trkpt>
      <trkpt lat="43.45697" lon="1.29302">
        <ele>179.2</ele>
        <time>2024-07-30T08:45:38Z</time>
      </trkpt>
      <trkpt lat="43.45704" lon="1.29304">
        <ele>179.2</ele>
        <time>2024-07-30T08:45:39Z</time>
      </trkpt>
      <trkpt lat="43.45712" lon="1.29306">
        <ele>179.4</ele>
        <time>2024-07-30T08:45:40Z</time>
      </trkpt>
      <trkpt lat="43.4572" lon="1.29307">
        <ele>179.4</ele>
        <time>2024-07-30T08:45:41Z</time>
      </trkpt>
      <trkpt lat="43.45728" lon="1.29309">
        <ele>179.6</ele>
        <time>2024-07-30T08:45:42Z</time>
      </trkpt>
      <trkpt lat="43.45735" lon="1.29311">
        <ele>179.8</ele>
        <time>2024-07-30T08:45:43Z</time>
      </trkpt>
      <trkpt lat="43.45742" lon="1.29313">
        <ele>179.8</ele>
        <time>2024-07-30T08:45:44Z</time>
      </trkpt>
      <trkpt lat="43.4575" lon="1.29315">
        <ele>180</ele>
        <time>2024-07-30T08:45:45Z</time>
      </trkpt>
      <trkpt lat="43.45757" lon="1.29316">
        <ele>180</ele>
        <time>2024-07-30T08:45:46Z</time>
      </trkpt>
      <trkpt lat="43.45763" lon="1.29318">
        <ele>180.2</ele>
        <time>2024-07-30T08:45:47Z</time>
      </trkpt>
      <trkpt lat="43.4577" lon="1.2932">
        <ele>180.2</ele>
        <time>2024-07-30T08:45:48Z</time>
      </trkpt>
      <trkpt lat="43.45779" lon="1.29322">
        <ele>180.4</ele>
        <time>2024-07-30T08:45:49Z</time>
      </trkpt>
      <trkpt lat="43.45786" lon="1.29323">
        <ele>180.6</ele>
        <time>2024-07-30T08:45:50Z</time>
      </trkpt>
      <trkpt lat="43.45793" lon="1.29325">
        <ele>180.6</ele>
        <time>2024-07-30T08:45:51Z</time>
      </trkpt>
      <trkpt lat="43.458" lon="1.29327">
        <ele>180.8</ele>
        <time>2024-07-30T08:45:52Z</time>
      </trkpt>
      <trkpt lat="43.45807" lon="1.29329">
        <ele>180.8</ele>
        <time>2024-07-30T08:45:53Z</time>
      </trkpt>
      <trkpt lat="43.45814" lon="1.2933">
        <ele>180.8</ele>
        <time>2024-07-30T08:45:54Z</time>
      </trkpt>
      <trkpt lat="43.45822" lon="1.29331">
        <ele>180.8</ele>
        <time>2024-07-30T08:45:55Z</time>
      </trkpt>
      <trkpt lat="43.45829" lon="1.29332">
        <ele>180.8</ele>
        <time>2024-07-30T08:45:56Z</time>
      </trkpt>
      <trkpt lat="43.45835" lon="1.29333">
        <ele>180.8</ele>
        <time>2024-07-30T08:45:57Z</time>
      </trkpt>
      <trkpt lat="43.45843" lon="1.29337">
        <ele>180.8</ele>
        <time>2024-07-30T08:45:58Z</time>
      </trkpt>
      <trkpt lat="43.4585" lon="1.29341">
        <ele>180.8</ele>
        <time>2024-07-30T08:45:59Z</time>
      </trkpt>
      <trkpt lat="43.45857" lon="1.29345">
        <ele>180.8</ele>
        <time>2024-07-30T08:46:00Z</time>
      </trkpt>
      <trkpt lat="43.45864" lon="1.29349">
        <ele>180.8</ele>
        <time>2024-07-30T08:46:01Z</time>
      </trkpt>
      <trkpt lat="43.45872" lon="1.29352">
        <ele>180.8</ele>
        <time>2024-07-30T08:46:02Z</time>
      </trkpt>
      <trkpt lat="43.45879" lon="1.29357">
        <ele>180.8</ele>
        <time>2024-07-30T08:46:03Z</time>
      </trkpt>
      <trkpt lat="43.45886" lon="1.29364">
        <ele>180.8</ele>
        <time>2024-07-30T08:46:04Z</time>
      </trkpt>
      <trkpt lat="43.45892" lon="1.29372">
        <ele>180.8</ele>
        <time>2024-07-30T08:46:05Z</time>
      </trkpt>
      <trkpt lat="43.45896" lon="1.29378">
        <ele>180.8</ele>
        <time>2024-07-30T08:46:06Z</time>
      </trkpt>
      <trkpt lat="43.45903" lon="1.29388">
        <ele>180.6</ele>
        <time>2024-07-30T08:46:07Z</time>
      </trkpt>
      <trkpt lat="43.45909" lon="1.29397">
        <ele>180.6</ele>
        <time>2024-07-30T08:46:08Z</time>
      </trkpt>
      <trkpt lat="43.45915" lon="1.29405">
        <ele>180.6</ele>
        <time>2024-07-30T08:46:09Z</time>
      </trkpt>
      <trkpt lat="43.4592" lon="1.29412">
        <ele>180.6</ele>
        <time>2024-07-30T08:46:10Z</time>
      </trkpt>
      <trkpt lat="43.45927" lon="1.29422">
        <ele>180.6</ele>
        <time>2024-07-30T08:46:11Z</time>
      </trkpt>
      <trkpt lat="43.45932" lon="1.2943">
        <ele>180.6</ele>
        <time>2024-07-30T08:46:12Z</time>
      </trkpt>
      <trkpt lat="43.45937" lon="1.29439">
        <ele>180.6</ele>
        <time>2024-07-30T08:46:13Z</time>
      </trkpt>
      <trkpt lat="43.45943" lon="1.29447">
        <ele>180.6</ele>
        <time>2024-07-30T08:46:14Z</time>
      </trkpt>
      <trkpt lat="43.45948" lon="1.29455">
        <ele>180.6</ele>
        <time>2024-07-30T08:46:15Z</time>
      </trkpt>
      <trkpt lat="43.45953" lon="1.29463">
        <ele>180.6</ele>
        <time>2024-07-30T08:46:16Z</time>
      </trkpt>
      <trkpt lat="43.45958" lon="1.29471">
        <ele>180.6</ele>
        <time>2024-07-30T08:46:17Z</time>
      </trkpt>
      <trkpt lat="43.45963" lon="1.29479">
        <ele>180.6</ele>
        <time>2024-07-30T08:46:18Z</time>
      </trkpt>
      <trkpt lat="43.45968" lon="1.29487">
        <ele>180.6</ele>
        <time>2024-07-30T08:46:19Z</time>
      </trkpt>
      <trkpt lat="43.45973" lon="1.29495">
        <ele>180.6</ele>
        <time>2024-07-30T08:46:20Z</time>
      </trkpt>
      <trkpt lat="43.45978" lon="1.29503">
        <ele>180.6</ele>
        <time>2024-07-30T08:46:21Z</time>
      </trkpt>
      <trkpt lat="43.45983" lon="1.29511">
        <ele>180.8</ele>
        <time>2024-07-30T08:46:22Z</time>
      </trkpt>
      <trkpt lat="43.45989" lon="1.29519">
        <ele>180.8</ele>
        <time>2024-07-30T08:46:23Z</time>
      </trkpt>
      <trkpt lat="43.45993" lon="1.29525">
        <ele>180.8</ele>
        <time>2024-07-30T08:46:24Z</time>
      </trkpt>
      <trkpt lat="43.46" lon="1.29535">
        <ele>180.8</ele>
        <time>2024-07-30T08:46:25Z</time>
      </trkpt>
      <trkpt lat="43.46005" lon="1.29542">
        <ele>180.8</ele>
        <time>2024-07-30T08:46:26Z</time>
      </trkpt>
      <trkpt lat="43.46011" lon="1.2955">
        <ele>180.8</ele>
        <time>2024-07-30T08:46:27Z</time>
      </trkpt>
      <trkpt lat="43.46017" lon="1.29557">
        <ele>180.8</ele>
        <time>2024-07-30T08:46:28Z</time>
      </trkpt>
      <trkpt lat="43.46021" lon="1.29562">
        <ele>180.8</ele>
        <time>2024-07-30T08:46:29Z</time>
      </trkpt>
      <trkpt lat="43.46028" lon="1.29571">
        <ele>180.8</ele>
        <time>2024-07-30T08:46:30Z</time>
      </trkpt>
      <trkpt lat="43.46034" lon="1.29578">
        <ele>180.8</ele>
        <time>2024-07-30T08:46:31Z</time>
      </trkpt>
      <trkpt lat="43.4604" lon="1.29584">
        <ele>180.8</ele>
        <time>2024-07-30T08:46:32Z</time>
      </trkpt>
      <trkpt lat="43.46044" lon="1.29589">
        <ele>180.8</ele>
        <time>2024-07-30T08:46:33Z</time>
      </trkpt>
      <trkpt lat="43.46051" lon="1.29597">
        <ele>180.8</ele>
        <time>2024-07-30T08:46:34Z</time>
      </trkpt>
      <trkpt lat="43.46057" lon="1.29603">
        <ele>180.8</ele>
        <time>2024-07-30T08:46:35Z</time>
      </trkpt>
      <trkpt lat="43.46063" lon="1.2961">
        <ele>180.8</ele>
        <time>2024-07-30T08:46:36Z</time>
      </trkpt>
      <trkpt lat="43.46069" lon="1.29616">
        <ele>180.6</ele>
        <time>2024-07-30T08:46:37Z</time>
      </trkpt>
      <trkpt lat="43.46075" lon="1.29622">
        <ele>180.6</ele>
        <time>2024-07-30T08:46:38Z</time>
      </trkpt>
      <trkpt lat="43.46081" lon="1.29628">
        <ele>180.6</ele>
        <time>2024-07-30T08:46:39Z</time>
      </trkpt>
      <trkpt lat="43.46088" lon="1.29634">
        <ele>180.6</ele>
        <time>2024-07-30T08:46:40Z</time>
      </trkpt>
      <trkpt lat="43.46094" lon="1.2964">
        <ele>180.6</ele>
        <time>2024-07-30T08:46:41Z</time>
      </trkpt>
      <trkpt lat="43.46101" lon="1.29647">
        <ele>180.4</ele>
        <time>2024-07-30T08:46:42Z</time>
      </trkpt>
      <trkpt lat="43.46108" lon="1.29653">
        <ele>180.4</ele>
        <time>2024-07-30T08:46:43Z</time>
      </trkpt>
      <trkpt lat="43.46115" lon="1.29659">
        <ele>180.2</ele>
        <time>2024-07-30T08:46:44Z</time>
      </trkpt>
      <trkpt lat="43.46122" lon="1.29666">
        <ele>180.2</ele>
        <time>2024-07-30T08:46:45Z</time>
      </trkpt>
      <trkpt lat="43.46129" lon="1.29672">
        <ele>180</ele>
        <time>2024-07-30T08:46:46Z</time>
      </trkpt>
      <trkpt lat="43.46135" lon="1.29678">
        <ele>179.8</ele>
        <time>2024-07-30T08:46:47Z</time>
      </trkpt>
      <trkpt lat="43.46142" lon="1.29685">
        <ele>179.6</ele>
        <time>2024-07-30T08:46:48Z</time>
      </trkpt>
      <trkpt lat="43.46148" lon="1.29691">
        <ele>179.4</ele>
        <time>2024-07-30T08:46:49Z</time>
      </trkpt>
      <trkpt lat="43.46155" lon="1.29697">
        <ele>179.2</ele>
        <time>2024-07-30T08:46:50Z</time>
      </trkpt>
      <trkpt lat="43.4616" lon="1.29702">
        <ele>179.2</ele>
        <time>2024-07-30T08:46:51Z</time>
      </trkpt>
      <trkpt lat="43.46167" lon="1.29708">
        <ele>179</ele>
        <time>2024-07-30T08:46:52Z</time>
      </trkpt>
      <trkpt lat="43.46175" lon="1.29716">
        <ele>179</ele>
        <time>2024-07-30T08:46:53Z</time>
      </trkpt>
      <trkpt lat="43.46182" lon="1.29722">
        <ele>179</ele>
        <time>2024-07-30T08:46:54Z</time>
      </trkpt>
      <trkpt lat="43.46188" lon="1.29728">
        <ele>178.8</ele>
        <time>2024-07-30T08:46:55Z</time>
      </trkpt>
      <trkpt lat="43.46195" lon="1.29734">
        <ele>178.8</ele>
        <time>2024-07-30T08:46:56Z</time>
      </trkpt>
      <trkpt lat="43.46202" lon="1.2974">
        <ele>178.8</ele>
        <time>2024-07-30T08:46:57Z</time>
      </trkpt>
      <trkpt lat="43.46208" lon="1.29746">
        <ele>178.8</ele>
        <time>2024-07-30T08:46:58Z</time>
      </trkpt>
      <trkpt lat="43.46215" lon="1.29751">
        <ele>178.8</ele>
        <time>2024-07-30T08:46:59Z</time>
      </trkpt>
      <trkpt lat="43.46222" lon="1.29757">
        <ele>178.8</ele>
        <time>2024-07-30T08:47:00Z</time>
      </trkpt>
      <trkpt lat="43.46227" lon="1.29761">
        <ele>179</ele>
        <time>2024-07-30T08:47:01Z</time>
      </trkpt>
      <trkpt lat="43.46235" lon="1.29768">
        <ele>179</ele>
        <time>2024-07-30T08:47:02Z</time>
      </trkpt>
      <trkpt lat="43.46242" lon="1.29773">
        <ele>179</ele>
        <time>2024-07-30T08:47:03Z</time>
      </trkpt>
      <trkpt lat="43.46249" lon="1.29778">
        <ele>179</ele>
        <time>2024-07-30T08:47:04Z</time>
      </trkpt>
      <trkpt lat="43.46256" lon="1.29784">
        <ele>179</ele>
        <time>2024-07-30T08:47:05Z</time>
      </trkpt>
      <trkpt lat="43.46262" lon="1.29789">
        <ele>179.2</ele>
        <time>2024-07-30T08:47:06Z</time>
      </trkpt>
      <trkpt lat="43.46269" lon="1.29794">
        <ele>179.2</ele>
        <time>2024-07-30T08:47:07Z</time>
      </trkpt>
      <trkpt lat="43.46276" lon="1.298">
        <ele>179.4</ele>
        <time>2024-07-30T08:47:08Z</time>
      </trkpt>
      <trkpt lat="43.46283" lon="1.29805">
        <ele>179.4</ele>
        <time>2024-07-30T08:47:09Z</time>
      </trkpt>
      <trkpt lat="43.46288" lon="1.2981">
        <ele>179.4</ele>
        <time>2024-07-30T08:47:10Z</time>
      </trkpt>
      <trkpt lat="43.46296" lon="1.29816">
        <ele>179.4</ele>
        <time>2024-07-30T08:47:11Z</time>
      </trkpt>
      <trkpt lat="43.46303" lon="1.29821">
        <ele>179.4</ele>
        <time>2024-07-30T08:47:12Z</time>
      </trkpt>
      <trkpt lat="43.4631" lon="1.29827">
        <ele>179.4</ele>
        <time>2024-07-30T08:47:13Z</time>
      </trkpt>
      <trkpt lat="43.46317" lon="1.29832">
        <ele>179.4</ele>
        <time>2024-07-30T08:47:14Z</time>
      </trkpt>
      <trkpt lat="43.46323" lon="1.29838">
        <ele>179.4</ele>
        <time>2024-07-30T08:47:15Z</time>
      </trkpt>
      <trkpt lat="43.4633" lon="1.29844">
        <ele>179.4</ele>
        <time>2024-07-30T08:47:16Z</time>
      </trkpt>
      <trkpt lat="43.46337" lon="1.2985">
        <ele>179.4</ele>
        <time>2024-07-30T08:47:17Z</time>
      </trkpt>
      <trkpt lat="43.46343" lon="1.29856">
        <ele>179.2</ele>
        <time>2024-07-30T08:47:18Z</time>
      </trkpt>
      <trkpt lat="43.4635" lon="1.29862">
        <ele>179</ele>
        <time>2024-07-30T08:47:19Z</time>
      </trkpt>
      <trkpt lat="43.46356" lon="1.29868">
        <ele>179</ele>
        <time>2024-07-30T08:47:20Z</time>
      </trkpt>
      <trkpt lat="43.46363" lon="1.29874">
        <ele>178.8</ele>
        <time>2024-07-30T08:47:21Z</time>
      </trkpt>
      <trkpt lat="43.46368" lon="1.2988">
        <ele>178.6</ele>
        <time>2024-07-30T08:47:22Z</time>
      </trkpt>
      <trkpt lat="43.46374" lon="1.29886">
        <ele>178.4</ele>
        <time>2024-07-30T08:47:23Z</time>
      </trkpt>
      <trkpt lat="43.46379" lon="1.29892">
        <ele>178.2</ele>
        <time>2024-07-30T08:47:24Z</time>
      </trkpt>
      <trkpt lat="43.46385" lon="1.29898">
        <ele>178</ele>
        <time>2024-07-30T08:47:25Z</time>
      </trkpt>
      <trkpt lat="43.4639" lon="1.29904">
        <ele>178</ele>
        <time>2024-07-30T08:47:26Z</time>
      </trkpt>
      <trkpt lat="43.46394" lon="1.29911">
        <ele>178</ele>
        <time>2024-07-30T08:47:27Z</time>
      </trkpt>
      <trkpt lat="43.46397" lon="1.29919">
        <ele>177.8</ele>
        <time>2024-07-30T08:47:28Z</time>
      </trkpt>
      <trkpt lat="43.46401" lon="1.29927">
        <ele>177.8</ele>
        <time>2024-07-30T08:47:29Z</time>
      </trkpt>
      <trkpt lat="43.46405" lon="1.29934">
        <ele>177.8</ele>
        <time>2024-07-30T08:47:30Z</time>
      </trkpt>
      <trkpt lat="43.46412" lon="1.29938">
        <ele>177.8</ele>
        <time>2024-07-30T08:47:31Z</time>
      </trkpt>
      <trkpt lat="43.46419" lon="1.2994">
        <ele>177.8</ele>
        <time>2024-07-30T08:47:32Z</time>
      </trkpt>
      <trkpt lat="43.46424" lon="1.2994">
        <ele>177.8</ele>
        <time>2024-07-30T08:47:33Z</time>
      </trkpt>
      <trkpt lat="43.46433" lon="1.29939">
        <ele>177.8</ele>
        <time>2024-07-30T08:47:34Z</time>
      </trkpt>
      <trkpt lat="43.46441" lon="1.29939">
        <ele>177.6</ele>
        <time>2024-07-30T08:47:35Z</time>
      </trkpt>
      <trkpt lat="43.46448" lon="1.29942">
        <ele>177.6</ele>
        <time>2024-07-30T08:47:36Z</time>
      </trkpt>
      <trkpt lat="43.46455" lon="1.29946">
        <ele>177.6</ele>
        <time>2024-07-30T08:47:37Z</time>
      </trkpt>
      <trkpt lat="43.46462" lon="1.29951">
        <ele>177.6</ele>
        <time>2024-07-30T08:47:38Z</time>
      </trkpt>
      <trkpt lat="43.46468" lon="1.29956">
        <ele>177.4</ele>
        <time>2024-07-30T08:47:39Z</time>
      </trkpt>
      <trkpt lat="43.46474" lon="1.29961">
        <ele>177.6</ele>
        <time>2024-07-30T08:47:40Z</time>
      </trkpt>
      <trkpt lat="43.4648" lon="1.29967">
        <ele>177.6</ele>
        <time>2024-07-30T08:47:41Z</time>
      </trkpt>
      <trkpt lat="43.46485" lon="1.29971">
        <ele>177.6</ele>
        <time>2024-07-30T08:47:42Z</time>
      </trkpt>
      <trkpt lat="43.46492" lon="1.29977">
        <ele>177.6</ele>
        <time>2024-07-30T08:47:43Z</time>
      </trkpt>
      <trkpt lat="43.46498" lon="1.29982">
        <ele>177.6</ele>
        <time>2024-07-30T08:47:44Z</time>
      </trkpt>
      <trkpt lat="43.46505" lon="1.29987">
        <ele>177.6</ele>
        <time>2024-07-30T08:47:45Z</time>
      </trkpt>
      <trkpt lat="43.46511" lon="1.29992">
        <ele>177.6</ele>
        <time>2024-07-30T08:47:46Z</time>
      </trkpt>
      <trkpt lat="43.46517" lon="1.29997">
        <ele>177.6</ele>
        <time>2024-07-30T08:47:47Z</time>
      </trkpt>
      <trkpt lat="43.46524" lon="1.30003">
        <ele>177.6</ele>
        <time>2024-07-30T08:47:48Z</time>
      </trkpt>
      <trkpt lat="43.4653" lon="1.30008">
        <ele>177.6</ele>
        <time>2024-07-30T08:47:49Z</time>
      </trkpt>
      <trkpt lat="43.46536" lon="1.30013">
        <ele>177.8</ele>
        <time>2024-07-30T08:47:50Z</time>
      </trkpt>
      <trkpt lat="43.46543" lon="1.30018">
        <ele>177.8</ele>
        <time>2024-07-30T08:47:51Z</time>
      </trkpt>
      <trkpt lat="43.46549" lon="1.30023">
        <ele>177.8</ele>
        <time>2024-07-30T08:47:52Z</time>
      </trkpt>
      <trkpt lat="43.46556" lon="1.30028">
        <ele>177.8</ele>
        <time>2024-07-30T08:47:53Z</time>
      </trkpt>
      <trkpt lat="43.46562" lon="1.30033">
        <ele>177.8</ele>
        <time>2024-07-30T08:47:54Z</time>
      </trkpt>
      <trkpt lat="43.46567" lon="1.30038">
        <ele>177.8</ele>
        <time>2024-07-30T08:47:55Z</time>
      </trkpt>
      <trkpt lat="43.46574" lon="1.30043">
        <ele>177.8</ele>
        <time>2024-07-30T08:47:56Z</time>
      </trkpt>
      <trkpt lat="43.46582" lon="1.30049">
        <ele>177.8</ele>
        <time>2024-07-30T08:47:57Z</time>
      </trkpt>
      <trkpt lat="43.46588" lon="1.30055">
        <ele>177.8</ele>
        <time>2024-07-30T08:47:58Z</time>
      </trkpt>
      <trkpt lat="43.46595" lon="1.3006">
        <ele>177.8</ele>
        <time>2024-07-30T08:47:59Z</time>
      </trkpt>
      <trkpt lat="43.46601" lon="1.30066">
        <ele>177.8</ele>
        <time>2024-07-30T08:48:00Z</time>
      </trkpt>
      <trkpt lat="43.46608" lon="1.30071">
        <ele>177.8</ele>
        <time>2024-07-30T08:48:01Z</time>
      </trkpt>
      <trkpt lat="43.46615" lon="1.30077">
        <ele>177.8</ele>
        <time>2024-07-30T08:48:02Z</time>
      </trkpt>
      <trkpt lat="43.46621" lon="1.30082">
        <ele>177.8</ele>
        <time>2024-07-30T08:48:03Z</time>
      </trkpt>
      <trkpt lat="43.46628" lon="1.30088">
        <ele>177.8</ele>
        <time>2024-07-30T08:48:04Z</time>
      </trkpt>
      <trkpt lat="43.46633" lon="1.30093">
        <ele>177.8</ele>
        <time>2024-07-30T08:48:05Z</time>
      </trkpt>
      <trkpt lat="43.46641" lon="1.301">
        <ele>177.8</ele>
        <time>2024-07-30T08:48:06Z</time>
      </trkpt>
      <trkpt lat="43.46648" lon="1.30106">
        <ele>177.8</ele>
        <time>2024-07-30T08:48:07Z</time>
      </trkpt>
      <trkpt lat="43.46654" lon="1.30112">
        <ele>177.8</ele>
        <time>2024-07-30T08:48:08Z</time>
      </trkpt>
      <trkpt lat="43.46661" lon="1.30118">
        <ele>177.8</ele>
        <time>2024-07-30T08:48:09Z</time>
      </trkpt>
      <trkpt lat="43.46667" lon="1.30124">
        <ele>177.8</ele>
        <time>2024-07-30T08:48:10Z</time>
      </trkpt>
      <trkpt lat="43.46674" lon="1.30129">
        <ele>177.8</ele>
        <time>2024-07-30T08:48:11Z</time>
      </trkpt>
      <trkpt lat="43.4668" lon="1.30135">
        <ele>177.8</ele>
        <time>2024-07-30T08:48:12Z</time>
      </trkpt>
      <trkpt lat="43.46687" lon="1.30141">
        <ele>177.8</ele>
        <time>2024-07-30T08:48:13Z</time>
      </trkpt>
      <trkpt lat="43.46692" lon="1.30146">
        <ele>177.8</ele>
        <time>2024-07-30T08:48:14Z</time>
      </trkpt>
      <trkpt lat="43.467" lon="1.30152">
        <ele>177.8</ele>
        <time>2024-07-30T08:48:15Z</time>
      </trkpt>
      <trkpt lat="43.46708" lon="1.30157">
        <ele>177.8</ele>
        <time>2024-07-30T08:48:16Z</time>
      </trkpt>
      <trkpt lat="43.46715" lon="1.30161">
        <ele>177.8</ele>
        <time>2024-07-30T08:48:17Z</time>
      </trkpt>
      <trkpt lat="43.46721" lon="1.30163">
        <ele>177.8</ele>
        <time>2024-07-30T08:48:18Z</time>
      </trkpt>
      <trkpt lat="43.4673" lon="1.30167">
        <ele>177.8</ele>
        <time>2024-07-30T08:48:19Z</time>
      </trkpt>
      <trkpt lat="43.46738" lon="1.3017">
        <ele>177.8</ele>
        <time>2024-07-30T08:48:20Z</time>
      </trkpt>
      <trkpt lat="43.46745" lon="1.30172">
        <ele>177.8</ele>
        <time>2024-07-30T08:48:21Z</time>
      </trkpt>
      <trkpt lat="43.46753" lon="1.30174">
        <ele>177.8</ele>
        <time>2024-07-30T08:48:22Z</time>
      </trkpt>
      <trkpt lat="43.46759" lon="1.30176">
        <ele>177.6</ele>
        <time>2024-07-30T08:48:23Z</time>
      </trkpt>
      <trkpt lat="43.46768" lon="1.30178">
        <ele>177.6</ele>
        <time>2024-07-30T08:48:24Z</time>
      </trkpt>
      <trkpt lat="43.46775" lon="1.3018">
        <ele>177.6</ele>
        <time>2024-07-30T08:48:25Z</time>
      </trkpt>
      <trkpt lat="43.46783" lon="1.30181">
        <ele>177.6</ele>
        <time>2024-07-30T08:48:26Z</time>
      </trkpt>
      <trkpt lat="43.46791" lon="1.30184">
        <ele>177.6</ele>
        <time>2024-07-30T08:48:27Z</time>
      </trkpt>
      <trkpt lat="43.46797" lon="1.30185">
        <ele>177.6</ele>
        <time>2024-07-30T08:48:28Z</time>
      </trkpt>
      <trkpt lat="43.46806" lon="1.30188">
        <ele>177.6</ele>
        <time>2024-07-30T08:48:29Z</time>
      </trkpt>
      <trkpt lat="43.46813" lon="1.3019">
        <ele>177.6</ele>
        <time>2024-07-30T08:48:30Z</time>
      </trkpt>
      <trkpt lat="43.46821" lon="1.30192">
        <ele>177.6</ele>
        <time>2024-07-30T08:48:31Z</time>
      </trkpt>
      <trkpt lat="43.46829" lon="1.30194">
        <ele>177.6</ele>
        <time>2024-07-30T08:48:32Z</time>
      </trkpt>
      <trkpt lat="43.46836" lon="1.30196">
        <ele>177.6</ele>
        <time>2024-07-30T08:48:33Z</time>
      </trkpt>
      <trkpt lat="43.46845" lon="1.30198">
        <ele>177.6</ele>
        <time>2024-07-30T08:48:34Z</time>
      </trkpt>
      <trkpt lat="43.46852" lon="1.302">
        <ele>177.6</ele>
        <time>2024-07-30T08:48:35Z</time>
      </trkpt>
      <trkpt lat="43.46858" lon="1.30202">
        <ele>177.6</ele>
        <time>2024-07-30T08:48:36Z</time>
      </trkpt>
      <trkpt lat="43.46866" lon="1.30204">
        <ele>177.6</ele>
        <time>2024-07-30T08:48:37Z</time>
      </trkpt>
      <trkpt lat="43.46875" lon="1.30206">
        <ele>177.6</ele>
        <time>2024-07-30T08:48:38Z</time>
      </trkpt>
      <trkpt lat="43.46882" lon="1.30208">
        <ele>177.6</ele>
        <time>2024-07-30T08:48:39Z</time>
      </trkpt>
      <trkpt lat="43.4689" lon="1.3021">
        <ele>177.6</ele>
        <time>2024-07-30T08:48:40Z</time>
      </trkpt>
      <trkpt lat="43.46895" lon="1.30211">
        <ele>177.6</ele>
        <time>2024-07-30T08:48:41Z</time>
      </trkpt>
      <trkpt lat="43.46903" lon="1.30213">
        <ele>177.6</ele>
        <time>2024-07-30T08:48:42Z</time>
      </trkpt>
      <trkpt lat="43.46912" lon="1.30216">
        <ele>177.6</ele>
        <time>2024-07-30T08:48:43Z</time>
      </trkpt>
      <trkpt lat="43.46919" lon="1.30218">
        <ele>177.6</ele>
        <time>2024-07-30T08:48:44Z</time>
      </trkpt>
      <trkpt lat="43.46927" lon="1.3022">
        <ele>177.6</ele>
        <time>2024-07-30T08:48:45Z</time>
      </trkpt>
      <trkpt lat="43.46935" lon="1.30223">
        <ele>177.6</ele>
        <time>2024-07-30T08:48:46Z</time>
      </trkpt>
      <trkpt lat="43.46942" lon="1.30225">
        <ele>177.6</ele>
        <time>2024-07-30T08:48:47Z</time>
      </trkpt>
      <trkpt lat="43.4695" lon="1.30227">
        <ele>177.6</ele>
        <time>2024-07-30T08:48:48Z</time>
      </trkpt>
      <trkpt lat="43.46957" lon="1.30229">
        <ele>177.6</ele>
        <time>2024-07-30T08:48:49Z</time>
      </trkpt>
      <trkpt lat="43.46964" lon="1.30231">
        <ele>177.6</ele>
        <time>2024-07-30T08:48:50Z</time>
      </trkpt>
      <trkpt lat="43.46972" lon="1.30232">
        <ele>177.6</ele>
        <time>2024-07-30T08:48:51Z</time>
      </trkpt>
      <trkpt lat="43.46979" lon="1.30234">
        <ele>177.6</ele>
        <time>2024-07-30T08:48:52Z</time>
      </trkpt>
      <trkpt lat="43.46987" lon="1.30236">
        <ele>177.6</ele>
        <time>2024-07-30T08:48:53Z</time>
      </trkpt>
      <trkpt lat="43.46995" lon="1.30238">
        <ele>177.6</ele>
        <time>2024-07-30T08:48:54Z</time>
      </trkpt>
      <trkpt lat="43.47002" lon="1.30239">
        <ele>177.6</ele>
        <time>2024-07-30T08:48:55Z</time>
      </trkpt>
      <trkpt lat="43.4701" lon="1.30241">
        <ele>177.6</ele>
        <time>2024-07-30T08:48:56Z</time>
      </trkpt>
      <trkpt lat="43.47017" lon="1.30242">
        <ele>177.6</ele>
        <time>2024-07-30T08:48:57Z</time>
      </trkpt>
      <trkpt lat="43.47025" lon="1.30244">
        <ele>177.6</ele>
        <time>2024-07-30T08:48:58Z</time>
      </trkpt>
      <trkpt lat="43.4703" lon="1.30245">
        <ele>177.6</ele>
        <time>2024-07-30T08:48:59Z</time>
      </trkpt>
      <trkpt lat="43.47037" lon="1.30246">
        <ele>177.6</ele>
        <time>2024-07-30T08:49:00Z</time>
      </trkpt>
      <trkpt lat="43.47045" lon="1.30247">
        <ele>177.6</ele>
        <time>2024-07-30T08:49:01Z</time>
      </trkpt>
      <trkpt lat="43.47052" lon="1.30249">
        <ele>177.6</ele>
        <time>2024-07-30T08:49:02Z</time>
      </trkpt>
      <trkpt lat="43.47058" lon="1.30251">
        <ele>177.6</ele>
        <time>2024-07-30T08:49:03Z</time>
      </trkpt>
      <trkpt lat="43.47064" lon="1.30253">
        <ele>177.4</ele>
        <time>2024-07-30T08:49:04Z</time>
      </trkpt>
      <trkpt lat="43.47067" lon="1.30254">
        <ele>177.4</ele>
        <time>2024-07-30T08:49:05Z</time>
      </trkpt>
      <trkpt lat="43.47072" lon="1.30257">
        <ele>177.4</ele>
        <time>2024-07-30T08:49:06Z</time>
      </trkpt>
      <trkpt lat="43.47075" lon="1.3026">
        <ele>177.4</ele>
        <time>2024-07-30T08:49:07Z</time>
      </trkpt>
      <trkpt lat="43.47078" lon="1.30263">
        <ele>177.4</ele>
        <time>2024-07-30T08:49:08Z</time>
      </trkpt>
      <trkpt lat="43.47081" lon="1.30266">
        <ele>177.2</ele>
        <time>2024-07-30T08:49:09Z</time>
      </trkpt>
      <trkpt lat="43.47083" lon="1.3027">
        <ele>177.2</ele>
        <time>2024-07-30T08:49:10Z</time>
      </trkpt>
      <trkpt lat="43.47086" lon="1.30276">
        <ele>177</ele>
        <time>2024-07-30T08:49:11Z</time>
      </trkpt>
      <trkpt lat="43.47088" lon="1.30282">
        <ele>177</ele>
        <time>2024-07-30T08:49:12Z</time>
      </trkpt>
      <trkpt lat="43.47091" lon="1.30289">
        <ele>176.8</ele>
        <time>2024-07-30T08:49:13Z</time>
      </trkpt>
      <trkpt lat="43.47095" lon="1.30295">
        <ele>176.6</ele>
        <time>2024-07-30T08:49:14Z</time>
      </trkpt>
      <trkpt lat="43.471" lon="1.30299">
        <ele>176.6</ele>
        <time>2024-07-30T08:49:15Z</time>
      </trkpt>
      <trkpt lat="43.47105" lon="1.30301">
        <ele>176.4</ele>
        <time>2024-07-30T08:49:16Z</time>
      </trkpt>
      <trkpt lat="43.47111" lon="1.303">
        <ele>176.4</ele>
        <time>2024-07-30T08:49:17Z</time>
      </trkpt>
      <trkpt lat="43.47117" lon="1.30298">
        <ele>176.2</ele>
        <time>2024-07-30T08:49:18Z</time>
      </trkpt>
      <trkpt lat="43.47122" lon="1.30294">
        <ele>176</ele>
        <time>2024-07-30T08:49:19Z</time>
      </trkpt>
      <trkpt lat="43.47127" lon="1.30291">
        <ele>176</ele>
        <time>2024-07-30T08:49:20Z</time>
      </trkpt>
      <trkpt lat="43.47133" lon="1.30289">
        <ele>176</ele>
        <time>2024-07-30T08:49:21Z</time>
      </trkpt>
      <trkpt lat="43.47139" lon="1.30288">
        <ele>176</ele>
        <time>2024-07-30T08:49:22Z</time>
      </trkpt>
      <trkpt lat="43.47145" lon="1.30288">
        <ele>176</ele>
        <time>2024-07-30T08:49:23Z</time>
      </trkpt>
      <trkpt lat="43.47152" lon="1.30287">
        <ele>175.8</ele>
        <time>2024-07-30T08:49:24Z</time>
      </trkpt>
      <trkpt lat="43.47159" lon="1.30285">
        <ele>175.8</ele>
        <time>2024-07-30T08:49:25Z</time>
      </trkpt>
      <trkpt lat="43.47165" lon="1.30285">
        <ele>175.8</ele>
        <time>2024-07-30T08:49:26Z</time>
      </trkpt>
      <trkpt lat="43.47172" lon="1.30284">
        <ele>175.8</ele>
        <time>2024-07-30T08:49:27Z</time>
      </trkpt>
      <trkpt lat="43.47178" lon="1.30283">
        <ele>175.8</ele>
        <time>2024-07-30T08:49:28Z</time>
      </trkpt>
      <trkpt lat="43.47186" lon="1.30281">
        <ele>175.8</ele>
        <time>2024-07-30T08:49:29Z</time>
      </trkpt>
      <trkpt lat="43.47192" lon="1.3028">
        <ele>175.8</ele>
        <time>2024-07-30T08:49:30Z</time>
      </trkpt>
      <trkpt lat="43.47199" lon="1.3028">
        <ele>175.8</ele>
        <time>2024-07-30T08:49:31Z</time>
      </trkpt>
      <trkpt lat="43.47206" lon="1.3028">
        <ele>175.8</ele>
        <time>2024-07-30T08:49:32Z</time>
      </trkpt>
      <trkpt lat="43.47213" lon="1.30281">
        <ele>175.6</ele>
        <time>2024-07-30T08:49:33Z</time>
      </trkpt>
      <trkpt lat="43.47221" lon="1.30281">
        <ele>175.6</ele>
        <time>2024-07-30T08:49:34Z</time>
      </trkpt>
      <trkpt lat="43.47229" lon="1.30282">
        <ele>175.6</ele>
        <time>2024-07-30T08:49:35Z</time>
      </trkpt>
      <trkpt lat="43.47236" lon="1.30283">
        <ele>175.6</ele>
        <time>2024-07-30T08:49:36Z</time>
      </trkpt>
      <trkpt lat="43.47244" lon="1.30285">
        <ele>175.6</ele>
        <time>2024-07-30T08:49:37Z</time>
      </trkpt>
      <trkpt lat="43.47252" lon="1.30286">
        <ele>175.6</ele>
        <time>2024-07-30T08:49:38Z</time>
      </trkpt>
      <trkpt lat="43.47259" lon="1.30287">
        <ele>175.6</ele>
        <time>2024-07-30T08:49:39Z</time>
      </trkpt>
      <trkpt lat="43.47267" lon="1.30289">
        <ele>175.6</ele>
        <time>2024-07-30T08:49:40Z</time>
      </trkpt>
      <trkpt lat="43.47272" lon="1.30291">
        <ele>175.6</ele>
        <time>2024-07-30T08:49:41Z</time>
      </trkpt>
      <trkpt lat="43.47281" lon="1.30293">
        <ele>175.6</ele>
        <time>2024-07-30T08:49:42Z</time>
      </trkpt>
      <trkpt lat="43.47289" lon="1.30296">
        <ele>175.6</ele>
        <time>2024-07-30T08:49:43Z</time>
      </trkpt>
      <trkpt lat="43.47297" lon="1.30299">
        <ele>175.6</ele>
        <time>2024-07-30T08:49:44Z</time>
      </trkpt>
      <trkpt lat="43.47305" lon="1.30302">
        <ele>175.6</ele>
        <time>2024-07-30T08:49:45Z</time>
      </trkpt>
      <trkpt lat="43.47305" lon="1.30302">
        <ele>175.6</ele>
        <time>2024-07-30T08:49:46Z</time>
      </trkpt>
      <trkpt lat="43.4732" lon="1.30309">
        <ele>175.6</ele>
        <time>2024-07-30T08:49:47Z</time>
      </trkpt>
      <trkpt lat="43.47327" lon="1.30312">
        <ele>175.6</ele>
        <time>2024-07-30T08:49:48Z</time>
      </trkpt>
      <trkpt lat="43.47334" lon="1.30316">
        <ele>175.6</ele>
        <time>2024-07-30T08:49:49Z</time>
      </trkpt>
      <trkpt lat="43.4734" lon="1.30319">
        <ele>175.6</ele>
        <time>2024-07-30T08:49:50Z</time>
      </trkpt>
      <trkpt lat="43.47348" lon="1.30323">
        <ele>175.6</ele>
        <time>2024-07-30T08:49:51Z</time>
      </trkpt>
      <trkpt lat="43.47355" lon="1.30327">
        <ele>175.8</ele>
        <time>2024-07-30T08:49:52Z</time>
      </trkpt>
      <trkpt lat="43.47362" lon="1.30331">
        <ele>175.8</ele>
        <time>2024-07-30T08:49:53Z</time>
      </trkpt>
      <trkpt lat="43.47369" lon="1.30334">
        <ele>175.8</ele>
        <time>2024-07-30T08:49:54Z</time>
      </trkpt>
      <trkpt lat="43.47376" lon="1.30338">
        <ele>175.8</ele>
        <time>2024-07-30T08:49:55Z</time>
      </trkpt>
      <trkpt lat="43.47384" lon="1.30342">
        <ele>176</ele>
        <time>2024-07-30T08:49:56Z</time>
      </trkpt>
      <trkpt lat="43.47392" lon="1.30346">
        <ele>176</ele>
        <time>2024-07-30T08:49:57Z</time>
      </trkpt>
      <trkpt lat="43.47399" lon="1.3035">
        <ele>176</ele>
        <time>2024-07-30T08:49:58Z</time>
      </trkpt>
      <trkpt lat="43.47406" lon="1.30353">
        <ele>176</ele>
        <time>2024-07-30T08:49:59Z</time>
      </trkpt>
      <trkpt lat="43.47414" lon="1.30357">
        <ele>176</ele>
        <time>2024-07-30T08:50:00Z</time>
      </trkpt>
      <trkpt lat="43.47421" lon="1.3036">
        <ele>176</ele>
        <time>2024-07-30T08:50:01Z</time>
      </trkpt>
      <trkpt lat="43.47428" lon="1.30363">
        <ele>176</ele>
        <time>2024-07-30T08:50:02Z</time>
      </trkpt>
      <trkpt lat="43.47434" lon="1.30366">
        <ele>176</ele>
        <time>2024-07-30T08:50:03Z</time>
      </trkpt>
      <trkpt lat="43.47442" lon="1.30369">
        <ele>176</ele>
        <time>2024-07-30T08:50:04Z</time>
      </trkpt>
      <trkpt lat="43.47449" lon="1.30372">
        <ele>176</ele>
        <time>2024-07-30T08:50:05Z</time>
      </trkpt>
      <trkpt lat="43.47457" lon="1.30375">
        <ele>176</ele>
        <time>2024-07-30T08:50:06Z</time>
      </trkpt>
      <trkpt lat="43.47464" lon="1.30378">
        <ele>176</ele>
        <time>2024-07-30T08:50:07Z</time>
      </trkpt>
      <trkpt lat="43.47471" lon="1.30381">
        <ele>175.8</ele>
        <time>2024-07-30T08:50:08Z</time>
      </trkpt>
      <trkpt lat="43.47478" lon="1.30384">
        <ele>175.8</ele>
        <time>2024-07-30T08:50:09Z</time>
      </trkpt>
      <trkpt lat="43.47485" lon="1.30387">
        <ele>175.8</ele>
        <time>2024-07-30T08:50:10Z</time>
      </trkpt>
      <trkpt lat="43.47493" lon="1.30389">
        <ele>175.8</ele>
        <time>2024-07-30T08:50:11Z</time>
      </trkpt>
      <trkpt lat="43.475" lon="1.30392">
        <ele>175.8</ele>
        <time>2024-07-30T08:50:12Z</time>
      </trkpt>
      <trkpt lat="43.47506" lon="1.30394">
        <ele>175.8</ele>
        <time>2024-07-30T08:50:13Z</time>
      </trkpt>
      <trkpt lat="43.47514" lon="1.30396">
        <ele>175.8</ele>
        <time>2024-07-30T08:50:14Z</time>
      </trkpt>
      <trkpt lat="43.47521" lon="1.30398">
        <ele>175.8</ele>
        <time>2024-07-30T08:50:15Z</time>
      </trkpt>
      <trkpt lat="43.47521" lon="1.30398">
        <ele>175.8</ele>
        <time>2024-07-30T08:50:16Z</time>
      </trkpt>
      <trkpt lat="43.47535" lon="1.30401">
        <ele>175.8</ele>
        <time>2024-07-30T08:50:17Z</time>
      </trkpt>
      <trkpt lat="43.4754" lon="1.30402">
        <ele>175.8</ele>
        <time>2024-07-30T08:50:18Z</time>
      </trkpt>
      <trkpt lat="43.47547" lon="1.30402">
        <ele>175.8</ele>
        <time>2024-07-30T08:50:19Z</time>
      </trkpt>
      <trkpt lat="43.47554" lon="1.30403">
        <ele>175.8</ele>
        <time>2024-07-30T08:50:20Z</time>
      </trkpt>
      <trkpt lat="43.47561" lon="1.30404">
        <ele>175.8</ele>
        <time>2024-07-30T08:50:21Z</time>
      </trkpt>
      <trkpt lat="43.47568" lon="1.30404">
        <ele>175.8</ele>
        <time>2024-07-30T08:50:22Z</time>
      </trkpt>
      <trkpt lat="43.47575" lon="1.30404">
        <ele>175.8</ele>
        <time>2024-07-30T08:50:23Z</time>
      </trkpt>
      <trkpt lat="43.47582" lon="1.30404">
        <ele>176</ele>
        <time>2024-07-30T08:50:24Z</time>
      </trkpt>
      <trkpt lat="43.4759" lon="1.30404">
        <ele>176</ele>
        <time>2024-07-30T08:50:25Z</time>
      </trkpt>
      <trkpt lat="43.47597" lon="1.30404">
        <ele>176</ele>
        <time>2024-07-30T08:50:26Z</time>
      </trkpt>
      <trkpt lat="43.47604" lon="1.30404">
        <ele>176</ele>
        <time>2024-07-30T08:50:27Z</time>
      </trkpt>
      <trkpt lat="43.47613" lon="1.30405">
        <ele>176</ele>
        <time>2024-07-30T08:50:28Z</time>
      </trkpt>
      <trkpt lat="43.47621" lon="1.30405">
        <ele>176.2</ele>
        <time>2024-07-30T08:50:29Z</time>
      </trkpt>
      <trkpt lat="43.47629" lon="1.30405">
        <ele>176.2</ele>
        <time>2024-07-30T08:50:30Z</time>
      </trkpt>
      <trkpt lat="43.47637" lon="1.30406">
        <ele>176.4</ele>
        <time>2024-07-30T08:50:31Z</time>
      </trkpt>
      <trkpt lat="43.47645" lon="1.30406">
        <ele>176.4</ele>
        <time>2024-07-30T08:50:32Z</time>
      </trkpt>
      <trkpt lat="43.47652" lon="1.30407">
        <ele>176.4</ele>
        <time>2024-07-30T08:50:33Z</time>
      </trkpt>
      <trkpt lat="43.4766" lon="1.30407">
        <ele>176.4</ele>
        <time>2024-07-30T08:50:34Z</time>
      </trkpt>
      <trkpt lat="43.47668" lon="1.30408">
        <ele>176.4</ele>
        <time>2024-07-30T08:50:35Z</time>
      </trkpt>
      <trkpt lat="43.47676" lon="1.30408">
        <ele>176.4</ele>
        <time>2024-07-30T08:50:36Z</time>
      </trkpt>
      <trkpt lat="43.47684" lon="1.30409">
        <ele>176.4</ele>
        <time>2024-07-30T08:50:37Z</time>
      </trkpt>
      <trkpt lat="43.47692" lon="1.30409">
        <ele>176.4</ele>
        <time>2024-07-30T08:50:38Z</time>
      </trkpt>
      <trkpt lat="43.47699" lon="1.3041">
        <ele>176.4</ele>
        <time>2024-07-30T08:50:39Z</time>
      </trkpt>
      <trkpt lat="43.47707" lon="1.30411">
        <ele>176.4</ele>
        <time>2024-07-30T08:50:40Z</time>
      </trkpt>
      <trkpt lat="43.47713" lon="1.30411">
        <ele>176.4</ele>
        <time>2024-07-30T08:50:41Z</time>
      </trkpt>
      <trkpt lat="43.47722" lon="1.30412">
        <ele>176.4</ele>
        <time>2024-07-30T08:50:42Z</time>
      </trkpt>
      <trkpt lat="43.4773" lon="1.30413">
        <ele>176.4</ele>
        <time>2024-07-30T08:50:43Z</time>
      </trkpt>
      <trkpt lat="43.47737" lon="1.30414">
        <ele>176.2</ele>
        <time>2024-07-30T08:50:44Z</time>
      </trkpt>
      <trkpt lat="43.47743" lon="1.30414">
        <ele>176.2</ele>
        <time>2024-07-30T08:50:45Z</time>
      </trkpt>
      <trkpt lat="43.47751" lon="1.30415">
        <ele>176.2</ele>
        <time>2024-07-30T08:50:46Z</time>
      </trkpt>
      <trkpt lat="43.4776" lon="1.30416">
        <ele>176.2</ele>
        <time>2024-07-30T08:50:47Z</time>
      </trkpt>
      <trkpt lat="43.47767" lon="1.30417">
        <ele>176.2</ele>
        <time>2024-07-30T08:50:48Z</time>
      </trkpt>
      <trkpt lat="43.47774" lon="1.30418">
        <ele>176.2</ele>
        <time>2024-07-30T08:50:49Z</time>
      </trkpt>
      <trkpt lat="43.4778" lon="1.30418">
        <ele>176.2</ele>
        <time>2024-07-30T08:50:50Z</time>
      </trkpt>
      <trkpt lat="43.47788" lon="1.3042">
        <ele>176.2</ele>
        <time>2024-07-30T08:50:51Z</time>
      </trkpt>
      <trkpt lat="43.47796" lon="1.30421">
        <ele>176.4</ele>
        <time>2024-07-30T08:50:52Z</time>
      </trkpt>
      <trkpt lat="43.47803" lon="1.30422">
        <ele>176.6</ele>
        <time>2024-07-30T08:50:53Z</time>
      </trkpt>
      <trkpt lat="43.47809" lon="1.30423">
        <ele>176.6</ele>
        <time>2024-07-30T08:50:54Z</time>
      </trkpt>
      <trkpt lat="43.47817" lon="1.30424">
        <ele>176.6</ele>
        <time>2024-07-30T08:50:55Z</time>
      </trkpt>
      <trkpt lat="43.47825" lon="1.30425">
        <ele>176.6</ele>
        <time>2024-07-30T08:50:56Z</time>
      </trkpt>
      <trkpt lat="43.47833" lon="1.30426">
        <ele>176.6</ele>
        <time>2024-07-30T08:50:57Z</time>
      </trkpt>
      <trkpt lat="43.47841" lon="1.30427">
        <ele>176.6</ele>
        <time>2024-07-30T08:50:58Z</time>
      </trkpt>
      <trkpt lat="43.47847" lon="1.30428">
        <ele>176.6</ele>
        <time>2024-07-30T08:50:59Z</time>
      </trkpt>
      <trkpt lat="43.47855" lon="1.3043">
        <ele>176.6</ele>
        <time>2024-07-30T08:51:00Z</time>
      </trkpt>
      <trkpt lat="43.47864" lon="1.30432">
        <ele>176.8</ele>
        <time>2024-07-30T08:51:01Z</time>
      </trkpt>
      <trkpt lat="43.47873" lon="1.30433">
        <ele>176.8</ele>
        <time>2024-07-30T08:51:02Z</time>
      </trkpt>
      <trkpt lat="43.47881" lon="1.30435">
        <ele>176.8</ele>
        <time>2024-07-30T08:51:03Z</time>
      </trkpt>
      <trkpt lat="43.47889" lon="1.30437">
        <ele>176.8</ele>
        <time>2024-07-30T08:51:04Z</time>
      </trkpt>
      <trkpt lat="43.47897" lon="1.30438">
        <ele>176.8</ele>
        <time>2024-07-30T08:51:05Z</time>
      </trkpt>
      <trkpt lat="43.47905" lon="1.3044">
        <ele>176.8</ele>
        <time>2024-07-30T08:51:06Z</time>
      </trkpt>
      <trkpt lat="43.47913" lon="1.30442">
        <ele>176.6</ele>
        <time>2024-07-30T08:51:07Z</time>
      </trkpt>
      <trkpt lat="43.47919" lon="1.30444">
        <ele>176.6</ele>
        <time>2024-07-30T08:51:08Z</time>
      </trkpt>
      <trkpt lat="43.47926" lon="1.30445">
        <ele>176.6</ele>
        <time>2024-07-30T08:51:09Z</time>
      </trkpt>
      <trkpt lat="43.47935" lon="1.30448">
        <ele>176.6</ele>
        <time>2024-07-30T08:51:10Z</time>
      </trkpt>
      <trkpt lat="43.47943" lon="1.3045">
        <ele>176.6</ele>
        <time>2024-07-30T08:51:11Z</time>
      </trkpt>
      <trkpt lat="43.4795" lon="1.30452">
        <ele>176.6</ele>
        <time>2024-07-30T08:51:12Z</time>
      </trkpt>
      <trkpt lat="43.47956" lon="1.30454">
        <ele>176.6</ele>
        <time>2024-07-30T08:51:13Z</time>
      </trkpt>
      <trkpt lat="43.47964" lon="1.30457">
        <ele>176.6</ele>
        <time>2024-07-30T08:51:14Z</time>
      </trkpt>
      <trkpt lat="43.47972" lon="1.30459">
        <ele>176.6</ele>
        <time>2024-07-30T08:51:15Z</time>
      </trkpt>
      <trkpt lat="43.47979" lon="1.30462">
        <ele>176.4</ele>
        <time>2024-07-30T08:51:16Z</time>
      </trkpt>
      <trkpt lat="43.47987" lon="1.30464">
        <ele>176.4</ele>
        <time>2024-07-30T08:51:17Z</time>
      </trkpt>
      <trkpt lat="43.47993" lon="1.30466">
        <ele>176.4</ele>
        <time>2024-07-30T08:51:18Z</time>
      </trkpt>
      <trkpt lat="43.48" lon="1.30469">
        <ele>176.4</ele>
        <time>2024-07-30T08:51:19Z</time>
      </trkpt>
      <trkpt lat="43.48009" lon="1.30472">
        <ele>176.4</ele>
        <time>2024-07-30T08:51:20Z</time>
      </trkpt>
      <trkpt lat="43.48016" lon="1.30474">
        <ele>176.4</ele>
        <time>2024-07-30T08:51:21Z</time>
      </trkpt>
      <trkpt lat="43.48022" lon="1.30476">
        <ele>176.4</ele>
        <time>2024-07-30T08:51:22Z</time>
      </trkpt>
      <trkpt lat="43.48029" lon="1.30479">
        <ele>176.4</ele>
        <time>2024-07-30T08:51:23Z</time>
      </trkpt>
      <trkpt lat="43.48037" lon="1.30482">
        <ele>176.4</ele>
        <time>2024-07-30T08:51:24Z</time>
      </trkpt>
      <trkpt lat="43.48044" lon="1.30485">
        <ele>176.4</ele>
        <time>2024-07-30T08:51:25Z</time>
      </trkpt>
      <trkpt lat="43.48051" lon="1.30488">
        <ele>176.6</ele>
        <time>2024-07-30T08:51:26Z</time>
      </trkpt>
      <trkpt lat="43.48057" lon="1.3049">
        <ele>176.6</ele>
        <time>2024-07-30T08:51:27Z</time>
      </trkpt>
      <trkpt lat="43.48064" lon="1.30493">
        <ele>176.6</ele>
        <time>2024-07-30T08:51:28Z</time>
      </trkpt>
      <trkpt lat="43.48072" lon="1.30497">
        <ele>176.8</ele>
        <time>2024-07-30T08:51:29Z</time>
      </trkpt>
      <trkpt lat="43.48079" lon="1.30501">
        <ele>176.8</ele>
        <time>2024-07-30T08:51:30Z</time>
      </trkpt>
      <trkpt lat="43.48086" lon="1.30505">
        <ele>176.8</ele>
        <time>2024-07-30T08:51:31Z</time>
      </trkpt>
      <trkpt lat="43.48092" lon="1.30508">
        <ele>176.8</ele>
        <time>2024-07-30T08:51:32Z</time>
      </trkpt>
      <trkpt lat="43.481" lon="1.30513">
        <ele>176.8</ele>
        <time>2024-07-30T08:51:33Z</time>
      </trkpt>
      <trkpt lat="43.48107" lon="1.30518">
        <ele>176.8</ele>
        <time>2024-07-30T08:51:34Z</time>
      </trkpt>
      <trkpt lat="43.48114" lon="1.30522">
        <ele>177</ele>
        <time>2024-07-30T08:51:35Z</time>
      </trkpt>
      <trkpt lat="43.48121" lon="1.30527">
        <ele>177</ele>
        <time>2024-07-30T08:51:36Z</time>
      </trkpt>
      <trkpt lat="43.48126" lon="1.3053">
        <ele>177</ele>
        <time>2024-07-30T08:51:37Z</time>
      </trkpt>
      <trkpt lat="43.48134" lon="1.30536">
        <ele>177</ele>
        <time>2024-07-30T08:51:38Z</time>
      </trkpt>
      <trkpt lat="43.4814" lon="1.3054">
        <ele>177</ele>
        <time>2024-07-30T08:51:39Z</time>
      </trkpt>
      <trkpt lat="43.48146" lon="1.30545">
        <ele>176.8</ele>
        <time>2024-07-30T08:51:40Z</time>
      </trkpt>
      <trkpt lat="43.48151" lon="1.30548">
        <ele>176.8</ele>
        <time>2024-07-30T08:51:41Z</time>
      </trkpt>
      <trkpt lat="43.48158" lon="1.30554">
        <ele>176.8</ele>
        <time>2024-07-30T08:51:42Z</time>
      </trkpt>
      <trkpt lat="43.48164" lon="1.30558">
        <ele>176.8</ele>
        <time>2024-07-30T08:51:43Z</time>
      </trkpt>
      <trkpt lat="43.48169" lon="1.30562">
        <ele>176.6</ele>
        <time>2024-07-30T08:51:44Z</time>
      </trkpt>
      <trkpt lat="43.48173" lon="1.30565">
        <ele>176.6</ele>
        <time>2024-07-30T08:51:45Z</time>
      </trkpt>
      <trkpt lat="43.48178" lon="1.30569">
        <ele>176.6</ele>
        <time>2024-07-30T08:51:46Z</time>
      </trkpt>
      <trkpt lat="43.48184" lon="1.30574">
        <ele>176.6</ele>
        <time>2024-07-30T08:51:47Z</time>
      </trkpt>
      <trkpt lat="43.48189" lon="1.30578">
        <ele>176.6</ele>
        <time>2024-07-30T08:51:48Z</time>
      </trkpt>
      <trkpt lat="43.48194" lon="1.30581">
        <ele>176.6</ele>
        <time>2024-07-30T08:51:49Z</time>
      </trkpt>
      <trkpt lat="43.48197" lon="1.30584">
        <ele>176.6</ele>
        <time>2024-07-30T08:51:50Z</time>
      </trkpt>
      <trkpt lat="43.48202" lon="1.30587">
        <ele>176.6</ele>
        <time>2024-07-30T08:51:51Z</time>
      </trkpt>
      <trkpt lat="43.48207" lon="1.30591">
        <ele>176.6</ele>
        <time>2024-07-30T08:51:52Z</time>
      </trkpt>
      <trkpt lat="43.48211" lon="1.30594">
        <ele>176.4</ele>
        <time>2024-07-30T08:51:53Z</time>
      </trkpt>
      <trkpt lat="43.48215" lon="1.30597">
        <ele>176.4</ele>
        <time>2024-07-30T08:51:54Z</time>
      </trkpt>
      <trkpt lat="43.48219" lon="1.30601">
        <ele>176.4</ele>
        <time>2024-07-30T08:51:55Z</time>
      </trkpt>
      <trkpt lat="43.48224" lon="1.30606">
        <ele>176.4</ele>
        <time>2024-07-30T08:51:56Z</time>
      </trkpt>
      <trkpt lat="43.48229" lon="1.3061">
        <ele>176.4</ele>
        <time>2024-07-30T08:51:57Z</time>
      </trkpt>
      <trkpt lat="43.48234" lon="1.30613">
        <ele>176.4</ele>
        <time>2024-07-30T08:51:58Z</time>
      </trkpt>
      <trkpt lat="43.48238" lon="1.30617">
        <ele>176.4</ele>
        <time>2024-07-30T08:51:59Z</time>
      </trkpt>
      <trkpt lat="43.48242" lon="1.3062">
        <ele>176.4</ele>
        <time>2024-07-30T08:52:00Z</time>
      </trkpt>
      <trkpt lat="43.48247" lon="1.30624">
        <ele>176.4</ele>
        <time>2024-07-30T08:52:01Z</time>
      </trkpt>
      <trkpt lat="43.48251" lon="1.30626">
        <ele>176.4</ele>
        <time>2024-07-30T08:52:02Z</time>
      </trkpt>
      <trkpt lat="43.48255" lon="1.30629">
        <ele>176.4</ele>
        <time>2024-07-30T08:52:03Z</time>
      </trkpt>
      <trkpt lat="43.48257" lon="1.30631">
        <ele>176.4</ele>
        <time>2024-07-30T08:52:04Z</time>
      </trkpt>
      <trkpt lat="43.4826" lon="1.30633">
        <ele>176.4</ele>
        <time>2024-07-30T08:52:05Z</time>
      </trkpt>
      <trkpt lat="43.48262" lon="1.30634">
        <ele>176.4</ele>
        <time>2024-07-30T08:52:06Z</time>
      </trkpt>
      <trkpt lat="43.48264" lon="1.30635">
        <ele>176.4</ele>
        <time>2024-07-30T08:52:07Z</time>
      </trkpt>
      <trkpt lat="43.48265" lon="1.30635">
        <ele>176.6</ele>
        <time>2024-07-30T08:52:08Z</time>
      </trkpt>
      <trkpt lat="43.48267" lon="1.30636">
        <ele>176.6</ele>
        <time>2024-07-30T08:52:09Z</time>
      </trkpt>
      <trkpt lat="43.48268" lon="1.30636">
        <ele>176.6</ele>
        <time>2024-07-30T08:52:10Z</time>
      </trkpt>
      <trkpt lat="43.48269" lon="1.30636">
        <ele>176.8</ele>
        <time>2024-07-30T08:52:11Z</time>
      </trkpt>
      <trkpt lat="43.4827" lon="1.30636">
        <ele>176.8</ele>
        <time>2024-07-30T08:52:12Z</time>
      </trkpt>
      <trkpt lat="43.48271" lon="1.30637">
        <ele>176.8</ele>
        <time>2024-07-30T08:52:13Z</time>
      </trkpt>
      <trkpt lat="43.48272" lon="1.30638">
        <ele>176.8</ele>
        <time>2024-07-30T08:52:14Z</time>
      </trkpt>
      <trkpt lat="43.48273" lon="1.30638">
        <ele>176.8</ele>
        <time>2024-07-30T08:52:15Z</time>
      </trkpt>
      <trkpt lat="43.48274" lon="1.30638">
        <ele>176.8</ele>
        <time>2024-07-30T08:52:16Z</time>
      </trkpt>
      <trkpt lat="43.48274" lon="1.30638">
        <ele>176.8</ele>
        <time>2024-07-30T08:52:17Z</time>
      </trkpt>
      <trkpt lat="43.48274" lon="1.30638">
        <ele>176.8</ele>
        <time>2024-07-30T08:52:18Z</time>
      </trkpt>
      <trkpt lat="43.48274" lon="1.30638">
        <ele>176.8</ele>
        <time>2024-07-30T08:52:19Z</time>
      </trkpt>
      <trkpt lat="43.48274" lon="1.30638">
        <ele>176.8</ele>
        <time>2024-07-30T08:52:20Z</time>
      </trkpt>
      <trkpt lat="43.48283" lon="1.3064">
        <ele>176.4</ele>
        <time>2024-07-30T08:52:43Z</time>
      </trkpt>
      <trkpt lat="43.48286" lon="1.30642">
        <ele>176.4</ele>
        <time>2024-07-30T08:52:44Z</time>
      </trkpt>
      <trkpt lat="43.48289" lon="1.30644">
        <ele>176.4</ele>
        <time>2024-07-30T08:52:45Z</time>
      </trkpt>
      <trkpt lat="43.48294" lon="1.30646">
        <ele>176.4</ele>
        <time>2024-07-30T08:52:46Z</time>
      </trkpt>
      <trkpt lat="43.48298" lon="1.30649">
        <ele>176.4</ele>
        <time>2024-07-30T08:52:47Z</time>
      </trkpt>
      <trkpt lat="43.48303" lon="1.30652">
        <ele>176.4</ele>
        <time>2024-07-30T08:52:48Z</time>
      </trkpt>
      <trkpt lat="43.48308" lon="1.30655">
        <ele>176.4</ele>
        <time>2024-07-30T08:52:49Z</time>
      </trkpt>
      <trkpt lat="43.48314" lon="1.30659">
        <ele>176.4</ele>
        <time>2024-07-30T08:52:50Z</time>
      </trkpt>
      <trkpt lat="43.4832" lon="1.30663">
        <ele>176.2</ele>
        <time>2024-07-30T08:52:51Z</time>
      </trkpt>
      <trkpt lat="43.48326" lon="1.30667">
        <ele>176.2</ele>
        <time>2024-07-30T08:52:52Z</time>
      </trkpt>
      <trkpt lat="43.48333" lon="1.3067">
        <ele>176.2</ele>
        <time>2024-07-30T08:52:53Z</time>
      </trkpt>
      <trkpt lat="43.48338" lon="1.30673">
        <ele>176.2</ele>
        <time>2024-07-30T08:52:54Z</time>
      </trkpt>
      <trkpt lat="43.48344" lon="1.30677">
        <ele>176.2</ele>
        <time>2024-07-30T08:52:55Z</time>
      </trkpt>
      <trkpt lat="43.48353" lon="1.30682">
        <ele>176.2</ele>
        <time>2024-07-30T08:52:56Z</time>
      </trkpt>
      <trkpt lat="43.4836" lon="1.30687">
        <ele>176.2</ele>
        <time>2024-07-30T08:52:57Z</time>
      </trkpt>
      <trkpt lat="43.48368" lon="1.30691">
        <ele>176.2</ele>
        <time>2024-07-30T08:52:58Z</time>
      </trkpt>
      <trkpt lat="43.48375" lon="1.30696">
        <ele>176.2</ele>
        <time>2024-07-30T08:52:59Z</time>
      </trkpt>
      <trkpt lat="43.48383" lon="1.30701">
        <ele>176.2</ele>
        <time>2024-07-30T08:53:00Z</time>
      </trkpt>
      <trkpt lat="43.48391" lon="1.30706">
        <ele>176.2</ele>
        <time>2024-07-30T08:53:01Z</time>
      </trkpt>
      <trkpt lat="43.48398" lon="1.30711">
        <ele>176</ele>
        <time>2024-07-30T08:53:02Z</time>
      </trkpt>
      <trkpt lat="43.48406" lon="1.30716">
        <ele>176</ele>
        <time>2024-07-30T08:53:03Z</time>
      </trkpt>
      <trkpt lat="43.48412" lon="1.30721">
        <ele>176</ele>
        <time>2024-07-30T08:53:04Z</time>
      </trkpt>
      <trkpt lat="43.48422" lon="1.30727">
        <ele>176</ele>
        <time>2024-07-30T08:53:05Z</time>
      </trkpt>
      <trkpt lat="43.4843" lon="1.30733">
        <ele>176</ele>
        <time>2024-07-30T08:53:06Z</time>
      </trkpt>
      <trkpt lat="43.48438" lon="1.30739">
        <ele>176</ele>
        <time>2024-07-30T08:53:07Z</time>
      </trkpt>
      <trkpt lat="43.48444" lon="1.30743">
        <ele>176</ele>
        <time>2024-07-30T08:53:08Z</time>
      </trkpt>
      <trkpt lat="43.48454" lon="1.3075">
        <ele>176</ele>
        <time>2024-07-30T08:53:09Z</time>
      </trkpt>
      <trkpt lat="43.48462" lon="1.30756">
        <ele>176</ele>
        <time>2024-07-30T08:53:10Z</time>
      </trkpt>
      <trkpt lat="43.48469" lon="1.30761">
        <ele>176</ele>
        <time>2024-07-30T08:53:11Z</time>
      </trkpt>
      <trkpt lat="43.48477" lon="1.30767">
        <ele>176</ele>
        <time>2024-07-30T08:53:12Z</time>
      </trkpt>
      <trkpt lat="43.48483" lon="1.30771">
        <ele>176</ele>
        <time>2024-07-30T08:53:13Z</time>
      </trkpt>
      <trkpt lat="43.48491" lon="1.30777">
        <ele>176</ele>
        <time>2024-07-30T08:53:14Z</time>
      </trkpt>
      <trkpt lat="43.485" lon="1.30783">
        <ele>176.2</ele>
        <time>2024-07-30T08:53:15Z</time>
      </trkpt>
      <trkpt lat="43.48507" lon="1.30788">
        <ele>176.2</ele>
        <time>2024-07-30T08:53:16Z</time>
      </trkpt>
      <trkpt lat="43.48514" lon="1.30793">
        <ele>176.2</ele>
        <time>2024-07-30T08:53:17Z</time>
      </trkpt>
      <trkpt lat="43.4852" lon="1.30797">
        <ele>176.4</ele>
        <time>2024-07-30T08:53:18Z</time>
      </trkpt>
      <trkpt lat="43.48528" lon="1.30804">
        <ele>176.4</ele>
        <time>2024-07-30T08:53:19Z</time>
      </trkpt>
      <trkpt lat="43.48535" lon="1.3081">
        <ele>176.4</ele>
        <time>2024-07-30T08:53:20Z</time>
      </trkpt>
      <trkpt lat="43.48541" lon="1.30816">
        <ele>176.4</ele>
        <time>2024-07-30T08:53:21Z</time>
      </trkpt>
      <trkpt lat="43.48546" lon="1.30821">
        <ele>176.6</ele>
        <time>2024-07-30T08:53:22Z</time>
      </trkpt>
      <trkpt lat="43.48553" lon="1.30827">
        <ele>176.6</ele>
        <time>2024-07-30T08:53:23Z</time>
      </trkpt>
      <trkpt lat="43.48561" lon="1.30834">
        <ele>176.6</ele>
        <time>2024-07-30T08:53:24Z</time>
      </trkpt>
      <trkpt lat="43.48567" lon="1.3084">
        <ele>176.6</ele>
        <time>2024-07-30T08:53:25Z</time>
      </trkpt>
      <trkpt lat="43.48573" lon="1.30846">
        <ele>176.6</ele>
        <time>2024-07-30T08:53:26Z</time>
      </trkpt>
      <trkpt lat="43.48578" lon="1.30852">
        <ele>176.4</ele>
        <time>2024-07-30T08:53:27Z</time>
      </trkpt>
      <trkpt lat="43.48584" lon="1.30858">
        <ele>176.4</ele>
        <time>2024-07-30T08:53:28Z</time>
      </trkpt>
      <trkpt lat="43.4859" lon="1.30865">
        <ele>176.4</ele>
        <time>2024-07-30T08:53:29Z</time>
      </trkpt>
      <trkpt lat="43.48598" lon="1.30872">
        <ele>176.4</ele>
        <time>2024-07-30T08:53:30Z</time>
      </trkpt>
      <trkpt lat="43.48603" lon="1.30877">
        <ele>176.4</ele>
        <time>2024-07-30T08:53:31Z</time>
      </trkpt>
      <trkpt lat="43.4861" lon="1.30884">
        <ele>176.4</ele>
        <time>2024-07-30T08:53:32Z</time>
      </trkpt>
      <trkpt lat="43.48618" lon="1.30891">
        <ele>176.4</ele>
        <time>2024-07-30T08:53:33Z</time>
      </trkpt>
      <trkpt lat="43.48625" lon="1.30898">
        <ele>176.4</ele>
        <time>2024-07-30T08:53:34Z</time>
      </trkpt>
      <trkpt lat="43.4863" lon="1.30903">
        <ele>176.4</ele>
        <time>2024-07-30T08:53:35Z</time>
      </trkpt>
      <trkpt lat="43.48637" lon="1.3091">
        <ele>176.4</ele>
        <time>2024-07-30T08:53:36Z</time>
      </trkpt>
      <trkpt lat="43.48644" lon="1.30916">
        <ele>176.4</ele>
        <time>2024-07-30T08:53:37Z</time>
      </trkpt>
      <trkpt lat="43.48651" lon="1.30922">
        <ele>176.2</ele>
        <time>2024-07-30T08:53:38Z</time>
      </trkpt>
      <trkpt lat="43.48659" lon="1.3093">
        <ele>176.2</ele>
        <time>2024-07-30T08:53:39Z</time>
      </trkpt>
      <trkpt lat="43.48664" lon="1.30935">
        <ele>176.2</ele>
        <time>2024-07-30T08:53:40Z</time>
      </trkpt>
      <trkpt lat="43.48671" lon="1.30941">
        <ele>176.2</ele>
        <time>2024-07-30T08:53:41Z</time>
      </trkpt>
      <trkpt lat="43.4868" lon="1.30949">
        <ele>176.2</ele>
        <time>2024-07-30T08:53:42Z</time>
      </trkpt>
      <trkpt lat="43.48687" lon="1.30955">
        <ele>176.2</ele>
        <time>2024-07-30T08:53:43Z</time>
      </trkpt>
      <trkpt lat="43.48694" lon="1.3096">
        <ele>176.2</ele>
        <time>2024-07-30T08:53:44Z</time>
      </trkpt>
      <trkpt lat="43.487" lon="1.30964">
        <ele>176.2</ele>
        <time>2024-07-30T08:53:45Z</time>
      </trkpt>
      <trkpt lat="43.48708" lon="1.30969">
        <ele>176</ele>
        <time>2024-07-30T08:53:46Z</time>
      </trkpt>
      <trkpt lat="43.48717" lon="1.30975">
        <ele>176</ele>
        <time>2024-07-30T08:53:47Z</time>
      </trkpt>
      <trkpt lat="43.48725" lon="1.30979">
        <ele>176</ele>
        <time>2024-07-30T08:53:48Z</time>
      </trkpt>
      <trkpt lat="43.48733" lon="1.30983">
        <ele>176</ele>
        <time>2024-07-30T08:53:49Z</time>
      </trkpt>
      <trkpt lat="43.4874" lon="1.30986">
        <ele>176</ele>
        <time>2024-07-30T08:53:50Z</time>
      </trkpt>
      <trkpt lat="43.48748" lon="1.3099">
        <ele>175.8</ele>
        <time>2024-07-30T08:53:51Z</time>
      </trkpt>
      <trkpt lat="43.48756" lon="1.30993">
        <ele>175.8</ele>
        <time>2024-07-30T08:53:52Z</time>
      </trkpt>
      <trkpt lat="43.48765" lon="1.30997">
        <ele>175.8</ele>
        <time>2024-07-30T08:53:53Z</time>
      </trkpt>
      <trkpt lat="43.48772" lon="1.31">
        <ele>175.8</ele>
        <time>2024-07-30T08:53:54Z</time>
      </trkpt>
      <trkpt lat="43.4878" lon="1.31003">
        <ele>175.6</ele>
        <time>2024-07-30T08:53:55Z</time>
      </trkpt>
      <trkpt lat="43.48789" lon="1.31007">
        <ele>175.4</ele>
        <time>2024-07-30T08:53:56Z</time>
      </trkpt>
      <trkpt lat="43.48797" lon="1.3101">
        <ele>175.4</ele>
        <time>2024-07-30T08:53:57Z</time>
      </trkpt>
      <trkpt lat="43.48806" lon="1.31015">
        <ele>175.4</ele>
        <time>2024-07-30T08:53:58Z</time>
      </trkpt>
      <trkpt lat="43.48814" lon="1.31018">
        <ele>175.4</ele>
        <time>2024-07-30T08:53:59Z</time>
      </trkpt>
      <trkpt lat="43.48822" lon="1.31022">
        <ele>175.2</ele>
        <time>2024-07-30T08:54:00Z</time>
      </trkpt>
      <trkpt lat="43.48832" lon="1.31027">
        <ele>175</ele>
        <time>2024-07-30T08:54:01Z</time>
      </trkpt>
      <trkpt lat="43.4884" lon="1.31031">
        <ele>175</ele>
        <time>2024-07-30T08:54:02Z</time>
      </trkpt>
      <trkpt lat="43.48848" lon="1.31036">
        <ele>175</ele>
        <time>2024-07-30T08:54:03Z</time>
      </trkpt>
      <trkpt lat="43.48854" lon="1.31039">
        <ele>174.8</ele>
        <time>2024-07-30T08:54:04Z</time>
      </trkpt>
      <trkpt lat="43.48862" lon="1.31044">
        <ele>174.8</ele>
        <time>2024-07-30T08:54:05Z</time>
      </trkpt>
      <trkpt lat="43.48871" lon="1.31049">
        <ele>174.8</ele>
        <time>2024-07-30T08:54:06Z</time>
      </trkpt>
      <trkpt lat="43.48879" lon="1.31053">
        <ele>174.8</ele>
        <time>2024-07-30T08:54:07Z</time>
      </trkpt>
      <trkpt lat="43.48885" lon="1.31057">
        <ele>174.8</ele>
        <time>2024-07-30T08:54:08Z</time>
      </trkpt>
      <trkpt lat="43.48893" lon="1.31061">
        <ele>174.8</ele>
        <time>2024-07-30T08:54:09Z</time>
      </trkpt>
      <trkpt lat="43.48902" lon="1.31066">
        <ele>174.8</ele>
        <time>2024-07-30T08:54:10Z</time>
      </trkpt>
      <trkpt lat="43.48909" lon="1.3107">
        <ele>174.8</ele>
        <time>2024-07-30T08:54:11Z</time>
      </trkpt>
      <trkpt lat="43.48917" lon="1.31074">
        <ele>174.8</ele>
        <time>2024-07-30T08:54:12Z</time>
      </trkpt>
      <trkpt lat="43.48923" lon="1.31078">
        <ele>174.8</ele>
        <time>2024-07-30T08:54:13Z</time>
      </trkpt>
      <trkpt lat="43.48931" lon="1.31082">
        <ele>174.8</ele>
        <time>2024-07-30T08:54:14Z</time>
      </trkpt>
      <trkpt lat="43.48939" lon="1.31086">
        <ele>174.8</ele>
        <time>2024-07-30T08:54:15Z</time>
      </trkpt>
      <trkpt lat="43.48948" lon="1.31091">
        <ele>174.8</ele>
        <time>2024-07-30T08:54:16Z</time>
      </trkpt>
      <trkpt lat="43.48954" lon="1.31094">
        <ele>174.8</ele>
        <time>2024-07-30T08:54:17Z</time>
      </trkpt>
      <trkpt lat="43.48962" lon="1.31098">
        <ele>174.8</ele>
        <time>2024-07-30T08:54:18Z</time>
      </trkpt>
      <trkpt lat="43.48972" lon="1.31103">
        <ele>174.6</ele>
        <time>2024-07-30T08:54:19Z</time>
      </trkpt>
      <trkpt lat="43.4898" lon="1.31107">
        <ele>174.6</ele>
        <time>2024-07-30T08:54:20Z</time>
      </trkpt>
      <trkpt lat="43.48989" lon="1.31111">
        <ele>174.4</ele>
        <time>2024-07-30T08:54:21Z</time>
      </trkpt>
      <trkpt lat="43.48995" lon="1.31115">
        <ele>174.4</ele>
        <time>2024-07-30T08:54:22Z</time>
      </trkpt>
      <trkpt lat="43.49003" lon="1.31119">
        <ele>174.4</ele>
        <time>2024-07-30T08:54:23Z</time>
      </trkpt>
      <trkpt lat="43.49013" lon="1.31124">
        <ele>174.4</ele>
        <time>2024-07-30T08:54:24Z</time>
      </trkpt>
      <trkpt lat="43.49021" lon="1.31128">
        <ele>174.2</ele>
        <time>2024-07-30T08:54:25Z</time>
      </trkpt>
      <trkpt lat="43.49028" lon="1.31131">
        <ele>174.2</ele>
        <time>2024-07-30T08:54:26Z</time>
      </trkpt>
      <trkpt lat="43.49035" lon="1.31134">
        <ele>174.2</ele>
        <time>2024-07-30T08:54:27Z</time>
      </trkpt>
      <trkpt lat="43.49042" lon="1.31138">
        <ele>174.2</ele>
        <time>2024-07-30T08:54:28Z</time>
      </trkpt>
      <trkpt lat="43.49052" lon="1.31143">
        <ele>174.2</ele>
        <time>2024-07-30T08:54:29Z</time>
      </trkpt>
      <trkpt lat="43.49059" lon="1.31146">
        <ele>174.2</ele>
        <time>2024-07-30T08:54:30Z</time>
      </trkpt>
      <trkpt lat="43.49066" lon="1.31149">
        <ele>174.2</ele>
        <time>2024-07-30T08:54:31Z</time>
      </trkpt>
      <trkpt lat="43.49073" lon="1.31152">
        <ele>174.2</ele>
        <time>2024-07-30T08:54:32Z</time>
      </trkpt>
      <trkpt lat="43.49083" lon="1.31156">
        <ele>174.2</ele>
        <time>2024-07-30T08:54:33Z</time>
      </trkpt>
      <trkpt lat="43.4909" lon="1.3116">
        <ele>174.2</ele>
        <time>2024-07-30T08:54:34Z</time>
      </trkpt>
      <trkpt lat="43.49098" lon="1.31163">
        <ele>174.2</ele>
        <time>2024-07-30T08:54:35Z</time>
      </trkpt>
      <trkpt lat="43.49104" lon="1.31166">
        <ele>174.2</ele>
        <time>2024-07-30T08:54:36Z</time>
      </trkpt>
      <trkpt lat="43.49112" lon="1.31169">
        <ele>174.2</ele>
        <time>2024-07-30T08:54:37Z</time>
      </trkpt>
      <trkpt lat="43.49122" lon="1.31173">
        <ele>174.2</ele>
        <time>2024-07-30T08:54:38Z</time>
      </trkpt>
      <trkpt lat="43.49128" lon="1.31176">
        <ele>174.2</ele>
        <time>2024-07-30T08:54:39Z</time>
      </trkpt>
      <trkpt lat="43.49136" lon="1.3118">
        <ele>174</ele>
        <time>2024-07-30T08:54:40Z</time>
      </trkpt>
      <trkpt lat="43.49143" lon="1.31183">
        <ele>174</ele>
        <time>2024-07-30T08:54:41Z</time>
      </trkpt>
      <trkpt lat="43.49151" lon="1.31187">
        <ele>174</ele>
        <time>2024-07-30T08:54:42Z</time>
      </trkpt>
      <trkpt lat="43.49158" lon="1.31191">
        <ele>174</ele>
        <time>2024-07-30T08:54:43Z</time>
      </trkpt>
      <trkpt lat="43.49165" lon="1.31195">
        <ele>174</ele>
        <time>2024-07-30T08:54:44Z</time>
      </trkpt>
      <trkpt lat="43.49172" lon="1.31199">
        <ele>174</ele>
        <time>2024-07-30T08:54:45Z</time>
      </trkpt>
      <trkpt lat="43.4918" lon="1.31203">
        <ele>174</ele>
        <time>2024-07-30T08:54:46Z</time>
      </trkpt>
      <trkpt lat="43.49187" lon="1.31207">
        <ele>174</ele>
        <time>2024-07-30T08:54:47Z</time>
      </trkpt>
      <trkpt lat="43.49195" lon="1.31211">
        <ele>174</ele>
        <time>2024-07-30T08:54:48Z</time>
      </trkpt>
      <trkpt lat="43.49204" lon="1.31215">
        <ele>174</ele>
        <time>2024-07-30T08:54:49Z</time>
      </trkpt>
      <trkpt lat="43.49211" lon="1.31219">
        <ele>174</ele>
        <time>2024-07-30T08:54:50Z</time>
      </trkpt>
      <trkpt lat="43.49216" lon="1.31221">
        <ele>174</ele>
        <time>2024-07-30T08:54:51Z</time>
      </trkpt>
      <trkpt lat="43.49224" lon="1.31224">
        <ele>174</ele>
        <time>2024-07-30T08:54:52Z</time>
      </trkpt>
      <trkpt lat="43.49232" lon="1.31228">
        <ele>174</ele>
        <time>2024-07-30T08:54:53Z</time>
      </trkpt>
      <trkpt lat="43.49238" lon="1.31231">
        <ele>174</ele>
        <time>2024-07-30T08:54:54Z</time>
      </trkpt>
      <trkpt lat="43.49244" lon="1.31233">
        <ele>174.2</ele>
        <time>2024-07-30T08:54:55Z</time>
      </trkpt>
      <trkpt lat="43.4925" lon="1.31236">
        <ele>174.2</ele>
        <time>2024-07-30T08:54:56Z</time>
      </trkpt>
      <trkpt lat="43.49258" lon="1.3124">
        <ele>174.2</ele>
        <time>2024-07-30T08:54:57Z</time>
      </trkpt>
      <trkpt lat="43.49265" lon="1.31243">
        <ele>174.2</ele>
        <time>2024-07-30T08:54:58Z</time>
      </trkpt>
      <trkpt lat="43.49272" lon="1.31246">
        <ele>174.2</ele>
        <time>2024-07-30T08:54:59Z</time>
      </trkpt>
      <trkpt lat="43.49277" lon="1.31248">
        <ele>174.2</ele>
        <time>2024-07-30T08:55:00Z</time>
      </trkpt>
      <trkpt lat="43.49284" lon="1.31251">
        <ele>174</ele>
        <time>2024-07-30T08:55:01Z</time>
      </trkpt>
      <trkpt lat="43.49291" lon="1.31255">
        <ele>174</ele>
        <time>2024-07-30T08:55:02Z</time>
      </trkpt>
      <trkpt lat="43.49299" lon="1.31259">
        <ele>173.8</ele>
        <time>2024-07-30T08:55:03Z</time>
      </trkpt>
      <trkpt lat="43.49304" lon="1.31262">
        <ele>173.8</ele>
        <time>2024-07-30T08:55:04Z</time>
      </trkpt>
      <trkpt lat="43.4931" lon="1.31266">
        <ele>173.8</ele>
        <time>2024-07-30T08:55:05Z</time>
      </trkpt>
      <trkpt lat="43.49316" lon="1.3127">
        <ele>173.6</ele>
        <time>2024-07-30T08:55:06Z</time>
      </trkpt>
      <trkpt lat="43.49323" lon="1.31275">
        <ele>173.6</ele>
        <time>2024-07-30T08:55:07Z</time>
      </trkpt>
      <trkpt lat="43.49328" lon="1.31278">
        <ele>173.6</ele>
        <time>2024-07-30T08:55:08Z</time>
      </trkpt>
      <trkpt lat="43.49332" lon="1.31281">
        <ele>173.6</ele>
        <time>2024-07-30T08:55:09Z</time>
      </trkpt>
      <trkpt lat="43.49337" lon="1.31285">
        <ele>173.4</ele>
        <time>2024-07-30T08:55:10Z</time>
      </trkpt>
      <trkpt lat="43.49343" lon="1.3129">
        <ele>173.2</ele>
        <time>2024-07-30T08:55:11Z</time>
      </trkpt>
      <trkpt lat="43.49347" lon="1.31296">
        <ele>173.2</ele>
        <time>2024-07-30T08:55:12Z</time>
      </trkpt>
      <trkpt lat="43.4935" lon="1.31302">
        <ele>173</ele>
        <time>2024-07-30T08:55:13Z</time>
      </trkpt>
      <trkpt lat="43.49352" lon="1.31308">
        <ele>173</ele>
        <time>2024-07-30T08:55:14Z</time>
      </trkpt>
      <trkpt lat="43.49356" lon="1.31314">
        <ele>173</ele>
        <time>2024-07-30T08:55:15Z</time>
      </trkpt>
      <trkpt lat="43.49361" lon="1.31319">
        <ele>173</ele>
        <time>2024-07-30T08:55:16Z</time>
      </trkpt>
      <trkpt lat="43.49367" lon="1.31323">
        <ele>173</ele>
        <time>2024-07-30T08:55:17Z</time>
      </trkpt>
      <trkpt lat="43.49372" lon="1.31322">
        <ele>172.8</ele>
        <time>2024-07-30T08:55:18Z</time>
      </trkpt>
      <trkpt lat="43.49377" lon="1.31319">
        <ele>172.8</ele>
        <time>2024-07-30T08:55:19Z</time>
      </trkpt>
      <trkpt lat="43.49384" lon="1.31315">
        <ele>172.8</ele>
        <time>2024-07-30T08:55:20Z</time>
      </trkpt>
      <trkpt lat="43.49389" lon="1.31311">
        <ele>172.8</ele>
        <time>2024-07-30T08:55:21Z</time>
      </trkpt>
      <trkpt lat="43.49394" lon="1.31309">
        <ele>172.8</ele>
        <time>2024-07-30T08:55:22Z</time>
      </trkpt>
      <trkpt lat="43.494" lon="1.31306">
        <ele>172.8</ele>
        <time>2024-07-30T08:55:23Z</time>
      </trkpt>
      <trkpt lat="43.49406" lon="1.31306">
        <ele>172.8</ele>
        <time>2024-07-30T08:55:24Z</time>
      </trkpt>
      <trkpt lat="43.49414" lon="1.31306">
        <ele>173</ele>
        <time>2024-07-30T08:55:25Z</time>
      </trkpt>
      <trkpt lat="43.4942" lon="1.31307">
        <ele>173.2</ele>
        <time>2024-07-30T08:55:26Z</time>
      </trkpt>
      <trkpt lat="43.49427" lon="1.31309">
        <ele>173.4</ele>
        <time>2024-07-30T08:55:27Z</time>
      </trkpt>
      <trkpt lat="43.49432" lon="1.31311">
        <ele>173.4</ele>
        <time>2024-07-30T08:55:28Z</time>
      </trkpt>
      <trkpt lat="43.4944" lon="1.31314">
        <ele>173.6</ele>
        <time>2024-07-30T08:55:29Z</time>
      </trkpt>
      <trkpt lat="43.49447" lon="1.31318">
        <ele>173.6</ele>
        <time>2024-07-30T08:55:30Z</time>
      </trkpt>
      <trkpt lat="43.49456" lon="1.31322">
        <ele>173.8</ele>
        <time>2024-07-30T08:55:31Z</time>
      </trkpt>
      <trkpt lat="43.49463" lon="1.31325">
        <ele>173.8</ele>
        <time>2024-07-30T08:55:32Z</time>
      </trkpt>
      <trkpt lat="43.49471" lon="1.31328">
        <ele>174</ele>
        <time>2024-07-30T08:55:33Z</time>
      </trkpt>
      <trkpt lat="43.4948" lon="1.31332">
        <ele>174</ele>
        <time>2024-07-30T08:55:34Z</time>
      </trkpt>
      <trkpt lat="43.49488" lon="1.31335">
        <ele>174</ele>
        <time>2024-07-30T08:55:35Z</time>
      </trkpt>
      <trkpt lat="43.49496" lon="1.31338">
        <ele>173.8</ele>
        <time>2024-07-30T08:55:36Z</time>
      </trkpt>
      <trkpt lat="43.49502" lon="1.31341">
        <ele>173.8</ele>
        <time>2024-07-30T08:55:37Z</time>
      </trkpt>
      <trkpt lat="43.4951" lon="1.31345">
        <ele>173.6</ele>
        <time>2024-07-30T08:55:38Z</time>
      </trkpt>
      <trkpt lat="43.49518" lon="1.31349">
        <ele>173.6</ele>
        <time>2024-07-30T08:55:39Z</time>
      </trkpt>
      <trkpt lat="43.49528" lon="1.31353">
        <ele>173.4</ele>
        <time>2024-07-30T08:55:40Z</time>
      </trkpt>
      <trkpt lat="43.49534" lon="1.31356">
        <ele>173.2</ele>
        <time>2024-07-30T08:55:41Z</time>
      </trkpt>
      <trkpt lat="43.49542" lon="1.3136">
        <ele>172.8</ele>
        <time>2024-07-30T08:55:42Z</time>
      </trkpt>
      <trkpt lat="43.49551" lon="1.31365">
        <ele>172.6</ele>
        <time>2024-07-30T08:55:43Z</time>
      </trkpt>
      <trkpt lat="43.49559" lon="1.31368">
        <ele>172.4</ele>
        <time>2024-07-30T08:55:44Z</time>
      </trkpt>
      <trkpt lat="43.49567" lon="1.31371">
        <ele>172.2</ele>
        <time>2024-07-30T08:55:45Z</time>
      </trkpt>
      <trkpt lat="43.49572" lon="1.31374">
        <ele>172</ele>
        <time>2024-07-30T08:55:46Z</time>
      </trkpt>
      <trkpt lat="43.49579" lon="1.31378">
        <ele>172</ele>
        <time>2024-07-30T08:55:47Z</time>
      </trkpt>
      <trkpt lat="43.49586" lon="1.31381">
        <ele>171.8</ele>
        <time>2024-07-30T08:55:48Z</time>
      </trkpt>
      <trkpt lat="43.49591" lon="1.31383">
        <ele>171.4</ele>
        <time>2024-07-30T08:55:49Z</time>
      </trkpt>
      <trkpt lat="43.49595" lon="1.31385">
        <ele>171.4</ele>
        <time>2024-07-30T08:55:50Z</time>
      </trkpt>
      <trkpt lat="43.49598" lon="1.31386">
        <ele>171.2</ele>
        <time>2024-07-30T08:55:51Z</time>
      </trkpt>
      <trkpt lat="43.496" lon="1.31387">
        <ele>171</ele>
        <time>2024-07-30T08:55:52Z</time>
      </trkpt>
      <trkpt lat="43.49602" lon="1.31388">
        <ele>170.8</ele>
        <time>2024-07-30T08:55:53Z</time>
      </trkpt>
      <trkpt lat="43.49604" lon="1.31388">
        <ele>170.8</ele>
        <time>2024-07-30T08:55:54Z</time>
      </trkpt>
      <trkpt lat="43.49604" lon="1.31389">
        <ele>170.6</ele>
        <time>2024-07-30T08:55:55Z</time>
      </trkpt>
      <trkpt lat="43.49605" lon="1.31389">
        <ele>170.6</ele>
        <time>2024-07-30T08:55:56Z</time>
      </trkpt>
      <trkpt lat="43.49606" lon="1.31388">
        <ele>170.6</ele>
        <time>2024-07-30T08:55:57Z</time>
      </trkpt>
      <trkpt lat="43.49608" lon="1.31387">
        <ele>170.6</ele>
        <time>2024-07-30T08:55:58Z</time>
      </trkpt>
      <trkpt lat="43.49609" lon="1.31384">
        <ele>170.6</ele>
        <time>2024-07-30T08:55:59Z</time>
      </trkpt>
      <trkpt lat="43.4961" lon="1.31382">
        <ele>170.6</ele>
        <time>2024-07-30T08:56:00Z</time>
      </trkpt>
      <trkpt lat="43.49612" lon="1.3138">
        <ele>170.6</ele>
        <time>2024-07-30T08:56:01Z</time>
      </trkpt>
      <trkpt lat="43.49614" lon="1.31378">
        <ele>170.6</ele>
        <time>2024-07-30T08:56:02Z</time>
      </trkpt>
      <trkpt lat="43.49617" lon="1.31375">
        <ele>170.6</ele>
        <time>2024-07-30T08:56:03Z</time>
      </trkpt>
      <trkpt lat="43.49618" lon="1.31373">
        <ele>170.4</ele>
        <time>2024-07-30T08:56:04Z</time>
      </trkpt>
      <trkpt lat="43.4962" lon="1.3137">
        <ele>170.4</ele>
        <time>2024-07-30T08:56:05Z</time>
      </trkpt>
      <trkpt lat="43.49622" lon="1.31368">
        <ele>170.4</ele>
        <time>2024-07-30T08:56:06Z</time>
      </trkpt>
      <trkpt lat="43.49623" lon="1.31365">
        <ele>170.4</ele>
        <time>2024-07-30T08:56:07Z</time>
      </trkpt>
      <trkpt lat="43.49625" lon="1.31362">
        <ele>170.4</ele>
        <time>2024-07-30T08:56:08Z</time>
      </trkpt>
      <trkpt lat="43.49626" lon="1.31359">
        <ele>170.4</ele>
        <time>2024-07-30T08:56:09Z</time>
      </trkpt>
      <trkpt lat="43.49629" lon="1.31354">
        <ele>170.4</ele>
        <time>2024-07-30T08:56:10Z</time>
      </trkpt>
      <trkpt lat="43.49631" lon="1.3135">
        <ele>170.4</ele>
        <time>2024-07-30T08:56:11Z</time>
      </trkpt>
      <trkpt lat="43.49634" lon="1.31344">
        <ele>170.4</ele>
        <time>2024-07-30T08:56:12Z</time>
      </trkpt>
      <trkpt lat="43.49637" lon="1.31339">
        <ele>170.4</ele>
        <time>2024-07-30T08:56:13Z</time>
      </trkpt>
      <trkpt lat="43.4964" lon="1.31335">
        <ele>170.4</ele>
        <time>2024-07-30T08:56:14Z</time>
      </trkpt>
      <trkpt lat="43.49643" lon="1.31329">
        <ele>170.4</ele>
        <time>2024-07-30T08:56:15Z</time>
      </trkpt>
      <trkpt lat="43.49647" lon="1.31321">
        <ele>170.4</ele>
        <time>2024-07-30T08:56:16Z</time>
      </trkpt>
      <trkpt lat="43.49651" lon="1.31314">
        <ele>170.4</ele>
        <time>2024-07-30T08:56:17Z</time>
      </trkpt>
      <trkpt lat="43.49655" lon="1.31308">
        <ele>170.4</ele>
        <time>2024-07-30T08:56:18Z</time>
      </trkpt>
      <trkpt lat="43.49658" lon="1.31302">
        <ele>170.4</ele>
        <time>2024-07-30T08:56:19Z</time>
      </trkpt>
      <trkpt lat="43.49663" lon="1.31295">
        <ele>170.6</ele>
        <time>2024-07-30T08:56:20Z</time>
      </trkpt>
      <trkpt lat="43.49668" lon="1.31287">
        <ele>170.6</ele>
        <time>2024-07-30T08:56:21Z</time>
      </trkpt>
      <trkpt lat="43.49672" lon="1.3128">
        <ele>170.8</ele>
        <time>2024-07-30T08:56:22Z</time>
      </trkpt>
      <trkpt lat="43.49677" lon="1.31273">
        <ele>171</ele>
        <time>2024-07-30T08:56:23Z</time>
      </trkpt>
      <trkpt lat="43.4968" lon="1.31267">
        <ele>171</ele>
        <time>2024-07-30T08:56:24Z</time>
      </trkpt>
      <trkpt lat="43.49686" lon="1.31258">
        <ele>171.2</ele>
        <time>2024-07-30T08:56:25Z</time>
      </trkpt>
      <trkpt lat="43.49689" lon="1.31253">
        <ele>171.2</ele>
        <time>2024-07-30T08:56:26Z</time>
      </trkpt>
      <trkpt lat="43.49694" lon="1.31245">
        <ele>171.2</ele>
        <time>2024-07-30T08:56:27Z</time>
      </trkpt>
      <trkpt lat="43.49698" lon="1.31239">
        <ele>171.4</ele>
        <time>2024-07-30T08:56:28Z</time>
      </trkpt>
      <trkpt lat="43.49702" lon="1.31232">
        <ele>171.6</ele>
        <time>2024-07-30T08:56:29Z</time>
      </trkpt>
      <trkpt lat="43.49708" lon="1.31225">
        <ele>171.8</ele>
        <time>2024-07-30T08:56:30Z</time>
      </trkpt>
      <trkpt lat="43.49712" lon="1.31218">
        <ele>171.8</ele>
        <time>2024-07-30T08:56:31Z</time>
      </trkpt>
      <trkpt lat="43.49717" lon="1.31212">
        <ele>172.2</ele>
        <time>2024-07-30T08:56:32Z</time>
      </trkpt>
      <trkpt lat="43.49721" lon="1.31207">
        <ele>172.4</ele>
        <time>2024-07-30T08:56:33Z</time>
      </trkpt>
      <trkpt lat="43.49727" lon="1.31202">
        <ele>172.8</ele>
        <time>2024-07-30T08:56:34Z</time>
      </trkpt>
      <trkpt lat="43.49733" lon="1.31197">
        <ele>173</ele>
        <time>2024-07-30T08:56:35Z</time>
      </trkpt>
      <trkpt lat="43.4974" lon="1.3119">
        <ele>173.2</ele>
        <time>2024-07-30T08:56:36Z</time>
      </trkpt>
      <trkpt lat="43.49744" lon="1.31186">
        <ele>173.2</ele>
        <time>2024-07-30T08:56:37Z</time>
      </trkpt>
      <trkpt lat="43.4975" lon="1.3118">
        <ele>173.2</ele>
        <time>2024-07-30T08:56:38Z</time>
      </trkpt>
      <trkpt lat="43.49757" lon="1.31174">
        <ele>173.2</ele>
        <time>2024-07-30T08:56:39Z</time>
      </trkpt>
      <trkpt lat="43.49762" lon="1.31168">
        <ele>173.2</ele>
        <time>2024-07-30T08:56:40Z</time>
      </trkpt>
      <trkpt lat="43.49768" lon="1.31162">
        <ele>173.4</ele>
        <time>2024-07-30T08:56:41Z</time>
      </trkpt>
      <trkpt lat="43.49772" lon="1.31158">
        <ele>173.4</ele>
        <time>2024-07-30T08:56:42Z</time>
      </trkpt>
      <trkpt lat="43.49778" lon="1.31153">
        <ele>173.4</ele>
        <time>2024-07-30T08:56:43Z</time>
      </trkpt>
      <trkpt lat="43.49785" lon="1.31148">
        <ele>173.4</ele>
        <time>2024-07-30T08:56:44Z</time>
      </trkpt>
      <trkpt lat="43.4979" lon="1.31143">
        <ele>173.2</ele>
        <time>2024-07-30T08:56:45Z</time>
      </trkpt>
      <trkpt lat="43.49794" lon="1.31139">
        <ele>173.2</ele>
        <time>2024-07-30T08:56:46Z</time>
      </trkpt>
      <trkpt lat="43.49798" lon="1.31135">
        <ele>173.2</ele>
        <time>2024-07-30T08:56:47Z</time>
      </trkpt>
      <trkpt lat="43.49803" lon="1.31131">
        <ele>173.2</ele>
        <time>2024-07-30T08:56:48Z</time>
      </trkpt>
      <trkpt lat="43.49807" lon="1.31128">
        <ele>173.2</ele>
        <time>2024-07-30T08:56:49Z</time>
      </trkpt>
      <trkpt lat="43.49813" lon="1.31125">
        <ele>173.4</ele>
        <time>2024-07-30T08:56:50Z</time>
      </trkpt>
      <trkpt lat="43.49818" lon="1.31124">
        <ele>173.4</ele>
        <time>2024-07-30T08:56:51Z</time>
      </trkpt>
      <trkpt lat="43.49823" lon="1.31122">
        <ele>173.4</ele>
        <time>2024-07-30T08:56:52Z</time>
      </trkpt>
      <trkpt lat="43.49829" lon="1.31121">
        <ele>173.4</ele>
        <time>2024-07-30T08:56:53Z</time>
      </trkpt>
      <trkpt lat="43.49834" lon="1.3112">
        <ele>173.8</ele>
        <time>2024-07-30T08:56:54Z</time>
      </trkpt>
      <trkpt lat="43.49839" lon="1.31119">
        <ele>174</ele>
        <time>2024-07-30T08:56:55Z</time>
      </trkpt>
      <trkpt lat="43.49842" lon="1.31118">
        <ele>174.2</ele>
        <time>2024-07-30T08:56:56Z</time>
      </trkpt>
      <trkpt lat="43.49846" lon="1.31116">
        <ele>174.4</ele>
        <time>2024-07-30T08:56:57Z</time>
      </trkpt>
      <trkpt lat="43.49848" lon="1.31115">
        <ele>174.4</ele>
        <time>2024-07-30T08:56:58Z</time>
      </trkpt>
      <trkpt lat="43.49849" lon="1.31115">
        <ele>174.6</ele>
        <time>2024-07-30T08:56:59Z</time>
      </trkpt>
      <trkpt lat="43.4985" lon="1.31114">
        <ele>174.8</ele>
        <time>2024-07-30T08:57:00Z</time>
      </trkpt>
      <trkpt lat="43.49852" lon="1.31114">
        <ele>174.8</ele>
        <time>2024-07-30T08:57:01Z</time>
      </trkpt>
      <trkpt lat="43.49853" lon="1.31115">
        <ele>175</ele>
        <time>2024-07-30T08:57:02Z</time>
      </trkpt>
      <trkpt lat="43.49854" lon="1.31116">
        <ele>175</ele>
        <time>2024-07-30T08:57:03Z</time>
      </trkpt>
      <trkpt lat="43.49855" lon="1.31116">
        <ele>175.2</ele>
        <time>2024-07-30T08:57:04Z</time>
      </trkpt>
      <trkpt lat="43.49856" lon="1.31116">
        <ele>175.4</ele>
        <time>2024-07-30T08:57:05Z</time>
      </trkpt>
      <trkpt lat="43.49858" lon="1.31116">
        <ele>175.4</ele>
        <time>2024-07-30T08:57:06Z</time>
      </trkpt>
      <trkpt lat="43.49861" lon="1.31115">
        <ele>175.4</ele>
        <time>2024-07-30T08:57:07Z</time>
      </trkpt>
      <trkpt lat="43.49864" lon="1.31112">
        <ele>175.4</ele>
        <time>2024-07-30T08:57:08Z</time>
      </trkpt>
      <trkpt lat="43.49865" lon="1.3111">
        <ele>175.4</ele>
        <time>2024-07-30T08:57:09Z</time>
      </trkpt>
      <trkpt lat="43.49868" lon="1.31106">
        <ele>175.4</ele>
        <time>2024-07-30T08:57:10Z</time>
      </trkpt>
      <trkpt lat="43.49871" lon="1.31102">
        <ele>175.4</ele>
        <time>2024-07-30T08:57:11Z</time>
      </trkpt>
      <trkpt lat="43.49874" lon="1.31098">
        <ele>175.4</ele>
        <time>2024-07-30T08:57:12Z</time>
      </trkpt>
      <trkpt lat="43.49878" lon="1.31092">
        <ele>175.4</ele>
        <time>2024-07-30T08:57:13Z</time>
      </trkpt>
      <trkpt lat="43.49881" lon="1.31087">
        <ele>175.4</ele>
        <time>2024-07-30T08:57:14Z</time>
      </trkpt>
      <trkpt lat="43.49885" lon="1.31081">
        <ele>175.4</ele>
        <time>2024-07-30T08:57:15Z</time>
      </trkpt>
      <trkpt lat="43.4989" lon="1.31074">
        <ele>175.4</ele>
        <time>2024-07-30T08:57:16Z</time>
      </trkpt>
      <trkpt lat="43.49895" lon="1.31067">
        <ele>175.4</ele>
        <time>2024-07-30T08:57:17Z</time>
      </trkpt>
      <trkpt lat="43.49899" lon="1.3106">
        <ele>175.2</ele>
        <time>2024-07-30T08:57:18Z</time>
      </trkpt>
      <trkpt lat="43.49903" lon="1.31055">
        <ele>175.2</ele>
        <time>2024-07-30T08:57:19Z</time>
      </trkpt>
      <trkpt lat="43.49907" lon="1.31048">
        <ele>175.2</ele>
        <time>2024-07-30T08:57:20Z</time>
      </trkpt>
      <trkpt lat="43.49912" lon="1.3104">
        <ele>175.2</ele>
        <time>2024-07-30T08:57:21Z</time>
      </trkpt>
      <trkpt lat="43.49917" lon="1.31033">
        <ele>175</ele>
        <time>2024-07-30T08:57:22Z</time>
      </trkpt>
      <trkpt lat="43.4992" lon="1.31028">
        <ele>175</ele>
        <time>2024-07-30T08:57:23Z</time>
      </trkpt>
      <trkpt lat="43.49923" lon="1.31023">
        <ele>175</ele>
        <time>2024-07-30T08:57:24Z</time>
      </trkpt>
      <trkpt lat="43.49928" lon="1.31019">
        <ele>175</ele>
        <time>2024-07-30T08:57:25Z</time>
      </trkpt>
      <trkpt lat="43.49934" lon="1.31019">
        <ele>175</ele>
        <time>2024-07-30T08:57:26Z</time>
      </trkpt>
      <trkpt lat="43.49939" lon="1.31022">
        <ele>175</ele>
        <time>2024-07-30T08:57:27Z</time>
      </trkpt>
      <trkpt lat="43.49944" lon="1.31026">
        <ele>174.8</ele>
        <time>2024-07-30T08:57:28Z</time>
      </trkpt>
      <trkpt lat="43.49949" lon="1.3103">
        <ele>174.8</ele>
        <time>2024-07-30T08:57:29Z</time>
      </trkpt>
      <trkpt lat="43.49955" lon="1.31035">
        <ele>174.8</ele>
        <time>2024-07-30T08:57:30Z</time>
      </trkpt>
      <trkpt lat="43.49961" lon="1.3104">
        <ele>174.8</ele>
        <time>2024-07-30T08:57:31Z</time>
      </trkpt>
      <trkpt lat="43.49967" lon="1.31045">
        <ele>174.6</ele>
        <time>2024-07-30T08:57:32Z</time>
      </trkpt>
      <trkpt lat="43.49974" lon="1.3105">
        <ele>174.6</ele>
        <time>2024-07-30T08:57:33Z</time>
      </trkpt>
      <trkpt lat="43.4998" lon="1.31055">
        <ele>174.6</ele>
        <time>2024-07-30T08:57:34Z</time>
      </trkpt>
      <trkpt lat="43.49987" lon="1.31059">
        <ele>174.6</ele>
        <time>2024-07-30T08:57:35Z</time>
      </trkpt>
      <trkpt lat="43.49995" lon="1.31065">
        <ele>174.6</ele>
        <time>2024-07-30T08:57:36Z</time>
      </trkpt>
      <trkpt lat="43.50001" lon="1.31071">
        <ele>174.6</ele>
        <time>2024-07-30T08:57:37Z</time>
      </trkpt>
      <trkpt lat="43.50007" lon="1.31075">
        <ele>174.6</ele>
        <time>2024-07-30T08:57:38Z</time>
      </trkpt>
      <trkpt lat="43.50014" lon="1.3108">
        <ele>174.6</ele>
        <time>2024-07-30T08:57:39Z</time>
      </trkpt>
      <trkpt lat="43.50022" lon="1.31086">
        <ele>174.6</ele>
        <time>2024-07-30T08:57:40Z</time>
      </trkpt>
      <trkpt lat="43.50029" lon="1.31091">
        <ele>174.6</ele>
        <time>2024-07-30T08:57:41Z</time>
      </trkpt>
      <trkpt lat="43.50034" lon="1.31095">
        <ele>174.6</ele>
        <time>2024-07-30T08:57:42Z</time>
      </trkpt>
      <trkpt lat="43.50041" lon="1.311">
        <ele>174.6</ele>
        <time>2024-07-30T08:57:43Z</time>
      </trkpt>
      <trkpt lat="43.50049" lon="1.31106">
        <ele>174.6</ele>
        <time>2024-07-30T08:57:44Z</time>
      </trkpt>
      <trkpt lat="43.50055" lon="1.3111">
        <ele>174.6</ele>
        <time>2024-07-30T08:57:45Z</time>
      </trkpt>
      <trkpt lat="43.50062" lon="1.31116">
        <ele>174.6</ele>
        <time>2024-07-30T08:57:46Z</time>
      </trkpt>
      <trkpt lat="43.50068" lon="1.3112">
        <ele>174.6</ele>
        <time>2024-07-30T08:57:47Z</time>
      </trkpt>
      <trkpt lat="43.50075" lon="1.31125">
        <ele>174.6</ele>
        <time>2024-07-30T08:57:48Z</time>
      </trkpt>
      <trkpt lat="43.50082" lon="1.31131">
        <ele>174.6</ele>
        <time>2024-07-30T08:57:49Z</time>
      </trkpt>
      <trkpt lat="43.50089" lon="1.31136">
        <ele>174.6</ele>
        <time>2024-07-30T08:57:50Z</time>
      </trkpt>
      <trkpt lat="43.50096" lon="1.31141">
        <ele>174.4</ele>
        <time>2024-07-30T08:57:51Z</time>
      </trkpt>
      <trkpt lat="43.50102" lon="1.31146">
        <ele>174.4</ele>
        <time>2024-07-30T08:57:52Z</time>
      </trkpt>
      <trkpt lat="43.50109" lon="1.31151">
        <ele>174.4</ele>
        <time>2024-07-30T08:57:53Z</time>
      </trkpt>
      <trkpt lat="43.50116" lon="1.31156">
        <ele>174.2</ele>
        <time>2024-07-30T08:57:54Z</time>
      </trkpt>
      <trkpt lat="43.50125" lon="1.31163">
        <ele>174.2</ele>
        <time>2024-07-30T08:57:55Z</time>
      </trkpt>
      <trkpt lat="43.5013" lon="1.31167">
        <ele>174.2</ele>
        <time>2024-07-30T08:57:56Z</time>
      </trkpt>
      <trkpt lat="43.50137" lon="1.31172">
        <ele>174.2</ele>
        <time>2024-07-30T08:57:57Z</time>
      </trkpt>
      <trkpt lat="43.50145" lon="1.31179">
        <ele>174.2</ele>
        <time>2024-07-30T08:57:58Z</time>
      </trkpt>
      <trkpt lat="43.50151" lon="1.31184">
        <ele>174.2</ele>
        <time>2024-07-30T08:57:59Z</time>
      </trkpt>
      <trkpt lat="43.50158" lon="1.31189">
        <ele>174.2</ele>
        <time>2024-07-30T08:58:00Z</time>
      </trkpt>
      <trkpt lat="43.50163" lon="1.31193">
        <ele>174.2</ele>
        <time>2024-07-30T08:58:01Z</time>
      </trkpt>
      <trkpt lat="43.5017" lon="1.31197">
        <ele>174.2</ele>
        <time>2024-07-30T08:58:02Z</time>
      </trkpt>
      <trkpt lat="43.50178" lon="1.31204">
        <ele>174.2</ele>
        <time>2024-07-30T08:58:03Z</time>
      </trkpt>
      <trkpt lat="43.50184" lon="1.31209">
        <ele>174.2</ele>
        <time>2024-07-30T08:58:04Z</time>
      </trkpt>
      <trkpt lat="43.50191" lon="1.31214">
        <ele>174.2</ele>
        <time>2024-07-30T08:58:05Z</time>
      </trkpt>
      <trkpt lat="43.50196" lon="1.31218">
        <ele>174</ele>
        <time>2024-07-30T08:58:06Z</time>
      </trkpt>
      <trkpt lat="43.50204" lon="1.31223">
        <ele>174</ele>
        <time>2024-07-30T08:58:07Z</time>
      </trkpt>
      <trkpt lat="43.50211" lon="1.31229">
        <ele>174</ele>
        <time>2024-07-30T08:58:08Z</time>
      </trkpt>
      <trkpt lat="43.50218" lon="1.31234">
        <ele>174</ele>
        <time>2024-07-30T08:58:09Z</time>
      </trkpt>
      <trkpt lat="43.50223" lon="1.31238">
        <ele>173.8</ele>
        <time>2024-07-30T08:58:10Z</time>
      </trkpt>
      <trkpt lat="43.5023" lon="1.31243">
        <ele>173.8</ele>
        <time>2024-07-30T08:58:11Z</time>
      </trkpt>
      <trkpt lat="43.50236" lon="1.31247">
        <ele>173.8</ele>
        <time>2024-07-30T08:58:12Z</time>
      </trkpt>
      <trkpt lat="43.50243" lon="1.31252">
        <ele>173.8</ele>
        <time>2024-07-30T08:58:13Z</time>
      </trkpt>
      <trkpt lat="43.50251" lon="1.31258">
        <ele>173.8</ele>
        <time>2024-07-30T08:58:14Z</time>
      </trkpt>
      <trkpt lat="43.50256" lon="1.31262">
        <ele>173.8</ele>
        <time>2024-07-30T08:58:15Z</time>
      </trkpt>
      <trkpt lat="43.50263" lon="1.31268">
        <ele>173.8</ele>
        <time>2024-07-30T08:58:16Z</time>
      </trkpt>
      <trkpt lat="43.5027" lon="1.31273">
        <ele>173.8</ele>
        <time>2024-07-30T08:58:17Z</time>
      </trkpt>
      <trkpt lat="43.50278" lon="1.31279">
        <ele>173.8</ele>
        <time>2024-07-30T08:58:18Z</time>
      </trkpt>
      <trkpt lat="43.50284" lon="1.31284">
        <ele>173.8</ele>
        <time>2024-07-30T08:58:19Z</time>
      </trkpt>
      <trkpt lat="43.5029" lon="1.31289">
        <ele>173.8</ele>
        <time>2024-07-30T08:58:20Z</time>
      </trkpt>
      <trkpt lat="43.50298" lon="1.31295">
        <ele>173.8</ele>
        <time>2024-07-30T08:58:21Z</time>
      </trkpt>
      <trkpt lat="43.50305" lon="1.31301">
        <ele>173.8</ele>
        <time>2024-07-30T08:58:22Z</time>
      </trkpt>
      <trkpt lat="43.50312" lon="1.31306">
        <ele>173.8</ele>
        <time>2024-07-30T08:58:23Z</time>
      </trkpt>
      <trkpt lat="43.50317" lon="1.3131">
        <ele>173.8</ele>
        <time>2024-07-30T08:58:24Z</time>
      </trkpt>
      <trkpt lat="43.50323" lon="1.31315">
        <ele>173.8</ele>
        <time>2024-07-30T08:58:25Z</time>
      </trkpt>
      <trkpt lat="43.50331" lon="1.31321">
        <ele>173.8</ele>
        <time>2024-07-30T08:58:26Z</time>
      </trkpt>
      <trkpt lat="43.50337" lon="1.31326">
        <ele>173.8</ele>
        <time>2024-07-30T08:58:27Z</time>
      </trkpt>
      <trkpt lat="43.50342" lon="1.3133">
        <ele>173.8</ele>
        <time>2024-07-30T08:58:28Z</time>
      </trkpt>
      <trkpt lat="43.50349" lon="1.31335">
        <ele>173.8</ele>
        <time>2024-07-30T08:58:29Z</time>
      </trkpt>
      <trkpt lat="43.50356" lon="1.31341">
        <ele>173.8</ele>
        <time>2024-07-30T08:58:30Z</time>
      </trkpt>
      <trkpt lat="43.50363" lon="1.31345">
        <ele>173.8</ele>
        <time>2024-07-30T08:58:31Z</time>
      </trkpt>
      <trkpt lat="43.50368" lon="1.31349">
        <ele>173.8</ele>
        <time>2024-07-30T08:58:32Z</time>
      </trkpt>
      <trkpt lat="43.50373" lon="1.31354">
        <ele>173.8</ele>
        <time>2024-07-30T08:58:33Z</time>
      </trkpt>
      <trkpt lat="43.50379" lon="1.31359">
        <ele>173.8</ele>
        <time>2024-07-30T08:58:34Z</time>
      </trkpt>
      <trkpt lat="43.50385" lon="1.31365">
        <ele>173.8</ele>
        <time>2024-07-30T08:58:35Z</time>
      </trkpt>
      <trkpt lat="43.50388" lon="1.31369">
        <ele>173.8</ele>
        <time>2024-07-30T08:58:36Z</time>
      </trkpt>
      <trkpt lat="43.5039" lon="1.31373">
        <ele>174</ele>
        <time>2024-07-30T08:58:37Z</time>
      </trkpt>
      <trkpt lat="43.50391" lon="1.31377">
        <ele>174</ele>
        <time>2024-07-30T08:58:38Z</time>
      </trkpt>
      <trkpt lat="43.50391" lon="1.31381">
        <ele>174</ele>
        <time>2024-07-30T08:58:39Z</time>
      </trkpt>
      <trkpt lat="43.5039" lon="1.31386">
        <ele>174.2</ele>
        <time>2024-07-30T08:58:40Z</time>
      </trkpt>
      <trkpt lat="43.50388" lon="1.3139">
        <ele>174.2</ele>
        <time>2024-07-30T08:58:41Z</time>
      </trkpt>
      <trkpt lat="43.50386" lon="1.31394">
        <ele>174.2</ele>
        <time>2024-07-30T08:58:42Z</time>
      </trkpt>
      <trkpt lat="43.50384" lon="1.31399">
        <ele>174.2</ele>
        <time>2024-07-30T08:58:43Z</time>
      </trkpt>
      <trkpt lat="43.50381" lon="1.31405">
        <ele>174.2</ele>
        <time>2024-07-30T08:58:44Z</time>
      </trkpt>
      <trkpt lat="43.50378" lon="1.31411">
        <ele>174.2</ele>
        <time>2024-07-30T08:58:45Z</time>
      </trkpt>
      <trkpt lat="43.50376" lon="1.31415">
        <ele>174.2</ele>
        <time>2024-07-30T08:58:46Z</time>
      </trkpt>
      <trkpt lat="43.50374" lon="1.31421">
        <ele>174.2</ele>
        <time>2024-07-30T08:58:47Z</time>
      </trkpt>
      <trkpt lat="43.50371" lon="1.31427">
        <ele>174.2</ele>
        <time>2024-07-30T08:58:48Z</time>
      </trkpt>
      <trkpt lat="43.50369" lon="1.31433">
        <ele>174.2</ele>
        <time>2024-07-30T08:58:49Z</time>
      </trkpt>
      <trkpt lat="43.50368" lon="1.31438">
        <ele>174.2</ele>
        <time>2024-07-30T08:58:50Z</time>
      </trkpt>
      <trkpt lat="43.50368" lon="1.31443">
        <ele>174.2</ele>
        <time>2024-07-30T08:58:51Z</time>
      </trkpt>
      <trkpt lat="43.50369" lon="1.31447">
        <ele>174.2</ele>
        <time>2024-07-30T08:58:52Z</time>
      </trkpt>
      <trkpt lat="43.50372" lon="1.31453">
        <ele>174.2</ele>
        <time>2024-07-30T08:58:53Z</time>
      </trkpt>
      <trkpt lat="43.50375" lon="1.31456">
        <ele>174.2</ele>
        <time>2024-07-30T08:58:54Z</time>
      </trkpt>
      <trkpt lat="43.50378" lon="1.3146">
        <ele>174.2</ele>
        <time>2024-07-30T08:58:55Z</time>
      </trkpt>
      <trkpt lat="43.50384" lon="1.31465">
        <ele>174.2</ele>
        <time>2024-07-30T08:58:56Z</time>
      </trkpt>
      <trkpt lat="43.50389" lon="1.31469">
        <ele>174.2</ele>
        <time>2024-07-30T08:58:57Z</time>
      </trkpt>
      <trkpt lat="43.50396" lon="1.31475">
        <ele>174.2</ele>
        <time>2024-07-30T08:58:58Z</time>
      </trkpt>
      <trkpt lat="43.50401" lon="1.31479">
        <ele>174.2</ele>
        <time>2024-07-30T08:58:59Z</time>
      </trkpt>
      <trkpt lat="43.50407" lon="1.31484">
        <ele>174</ele>
        <time>2024-07-30T08:59:00Z</time>
      </trkpt>
      <trkpt lat="43.50412" lon="1.31488">
        <ele>174</ele>
        <time>2024-07-30T08:59:01Z</time>
      </trkpt>
      <trkpt lat="43.50418" lon="1.31493">
        <ele>174</ele>
        <time>2024-07-30T08:59:02Z</time>
      </trkpt>
      <trkpt lat="43.50425" lon="1.31498">
        <ele>174</ele>
        <time>2024-07-30T08:59:03Z</time>
      </trkpt>
      <trkpt lat="43.50433" lon="1.31505">
        <ele>173.8</ele>
        <time>2024-07-30T08:59:04Z</time>
      </trkpt>
      <trkpt lat="43.50438" lon="1.31509">
        <ele>173.8</ele>
        <time>2024-07-30T08:59:05Z</time>
      </trkpt>
      <trkpt lat="43.50445" lon="1.31515">
        <ele>173.8</ele>
        <time>2024-07-30T08:59:06Z</time>
      </trkpt>
      <trkpt lat="43.50454" lon="1.31522">
        <ele>173.8</ele>
        <time>2024-07-30T08:59:07Z</time>
      </trkpt>
      <trkpt lat="43.50461" lon="1.31527">
        <ele>173.8</ele>
        <time>2024-07-30T08:59:08Z</time>
      </trkpt>
      <trkpt lat="43.50468" lon="1.31533">
        <ele>173.8</ele>
        <time>2024-07-30T08:59:09Z</time>
      </trkpt>
      <trkpt lat="43.50473" lon="1.31537">
        <ele>173.8</ele>
        <time>2024-07-30T08:59:10Z</time>
      </trkpt>
      <trkpt lat="43.5048" lon="1.31543">
        <ele>173.6</ele>
        <time>2024-07-30T08:59:11Z</time>
      </trkpt>
      <trkpt lat="43.50489" lon="1.31549">
        <ele>173.6</ele>
        <time>2024-07-30T08:59:12Z</time>
      </trkpt>
      <trkpt lat="43.50496" lon="1.31555">
        <ele>173.6</ele>
        <time>2024-07-30T08:59:13Z</time>
      </trkpt>
      <trkpt lat="43.50503" lon="1.3156">
        <ele>173.6</ele>
        <time>2024-07-30T08:59:14Z</time>
      </trkpt>
      <trkpt lat="43.50508" lon="1.31564">
        <ele>173.4</ele>
        <time>2024-07-30T08:59:15Z</time>
      </trkpt>
      <trkpt lat="43.50515" lon="1.3157">
        <ele>173.4</ele>
        <time>2024-07-30T08:59:16Z</time>
      </trkpt>
      <trkpt lat="43.50522" lon="1.31575">
        <ele>173.4</ele>
        <time>2024-07-30T08:59:17Z</time>
      </trkpt>
      <trkpt lat="43.50529" lon="1.31581">
        <ele>173.4</ele>
        <time>2024-07-30T08:59:18Z</time>
      </trkpt>
      <trkpt lat="43.50535" lon="1.31585">
        <ele>173.2</ele>
        <time>2024-07-30T08:59:19Z</time>
      </trkpt>
      <trkpt lat="43.50541" lon="1.3159">
        <ele>173</ele>
        <time>2024-07-30T08:59:20Z</time>
      </trkpt>
      <trkpt lat="43.50549" lon="1.31596">
        <ele>173</ele>
        <time>2024-07-30T08:59:21Z</time>
      </trkpt>
      <trkpt lat="43.50555" lon="1.31601">
        <ele>173</ele>
        <time>2024-07-30T08:59:22Z</time>
      </trkpt>
      <trkpt lat="43.50562" lon="1.31606">
        <ele>173</ele>
        <time>2024-07-30T08:59:23Z</time>
      </trkpt>
      <trkpt lat="43.50567" lon="1.3161">
        <ele>173</ele>
        <time>2024-07-30T08:59:24Z</time>
      </trkpt>
      <trkpt lat="43.50573" lon="1.31615">
        <ele>173</ele>
        <time>2024-07-30T08:59:25Z</time>
      </trkpt>
      <trkpt lat="43.50581" lon="1.31621">
        <ele>173</ele>
        <time>2024-07-30T08:59:26Z</time>
      </trkpt>
      <trkpt lat="43.50587" lon="1.31626">
        <ele>173</ele>
        <time>2024-07-30T08:59:27Z</time>
      </trkpt>
      <trkpt lat="43.50592" lon="1.3163">
        <ele>172.8</ele>
        <time>2024-07-30T08:59:28Z</time>
      </trkpt>
      <trkpt lat="43.50598" lon="1.31635">
        <ele>172.8</ele>
        <time>2024-07-30T08:59:29Z</time>
      </trkpt>
      <trkpt lat="43.50606" lon="1.3164">
        <ele>172.8</ele>
        <time>2024-07-30T08:59:30Z</time>
      </trkpt>
      <trkpt lat="43.50612" lon="1.31645">
        <ele>172.8</ele>
        <time>2024-07-30T08:59:31Z</time>
      </trkpt>
      <trkpt lat="43.50619" lon="1.3165">
        <ele>172.8</ele>
        <time>2024-07-30T08:59:32Z</time>
      </trkpt>
      <trkpt lat="43.50624" lon="1.31654">
        <ele>172.8</ele>
        <time>2024-07-30T08:59:33Z</time>
      </trkpt>
      <trkpt lat="43.50631" lon="1.3166">
        <ele>172.8</ele>
        <time>2024-07-30T08:59:34Z</time>
      </trkpt>
      <trkpt lat="43.50639" lon="1.31666">
        <ele>172.8</ele>
        <time>2024-07-30T08:59:35Z</time>
      </trkpt>
      <trkpt lat="43.50644" lon="1.3167">
        <ele>172.8</ele>
        <time>2024-07-30T08:59:36Z</time>
      </trkpt>
      <trkpt lat="43.50651" lon="1.31675">
        <ele>172.8</ele>
        <time>2024-07-30T08:59:37Z</time>
      </trkpt>
      <trkpt lat="43.50658" lon="1.31679">
        <ele>172.8</ele>
        <time>2024-07-30T08:59:38Z</time>
      </trkpt>
      <trkpt lat="43.50664" lon="1.31684">
        <ele>172.8</ele>
        <time>2024-07-30T08:59:39Z</time>
      </trkpt>
      <trkpt lat="43.50672" lon="1.3169">
        <ele>172.8</ele>
        <time>2024-07-30T08:59:40Z</time>
      </trkpt>
      <trkpt lat="43.50679" lon="1.31695">
        <ele>172.8</ele>
        <time>2024-07-30T08:59:41Z</time>
      </trkpt>
      <trkpt lat="43.50686" lon="1.317">
        <ele>172.8</ele>
        <time>2024-07-30T08:59:42Z</time>
      </trkpt>
      <trkpt lat="43.50691" lon="1.31705">
        <ele>172.8</ele>
        <time>2024-07-30T08:59:43Z</time>
      </trkpt>
      <trkpt lat="43.50698" lon="1.31711">
        <ele>172.8</ele>
        <time>2024-07-30T08:59:44Z</time>
      </trkpt>
      <trkpt lat="43.50705" lon="1.31716">
        <ele>172.8</ele>
        <time>2024-07-30T08:59:45Z</time>
      </trkpt>
      <trkpt lat="43.50711" lon="1.31721">
        <ele>172.8</ele>
        <time>2024-07-30T08:59:46Z</time>
      </trkpt>
      <trkpt lat="43.50716" lon="1.31725">
        <ele>172.8</ele>
        <time>2024-07-30T08:59:47Z</time>
      </trkpt>
      <trkpt lat="43.50723" lon="1.3173">
        <ele>172.8</ele>
        <time>2024-07-30T08:59:48Z</time>
      </trkpt>
      <trkpt lat="43.5073" lon="1.31737">
        <ele>172.6</ele>
        <time>2024-07-30T08:59:49Z</time>
      </trkpt>
      <trkpt lat="43.50737" lon="1.31742">
        <ele>172.6</ele>
        <time>2024-07-30T08:59:50Z</time>
      </trkpt>
      <trkpt lat="43.50742" lon="1.31746">
        <ele>172.6</ele>
        <time>2024-07-30T08:59:51Z</time>
      </trkpt>
      <trkpt lat="43.50749" lon="1.31752">
        <ele>172.6</ele>
        <time>2024-07-30T08:59:52Z</time>
      </trkpt>
      <trkpt lat="43.50757" lon="1.31758">
        <ele>172.6</ele>
        <time>2024-07-30T08:59:53Z</time>
      </trkpt>
      <trkpt lat="43.50762" lon="1.31763">
        <ele>172.6</ele>
        <time>2024-07-30T08:59:54Z</time>
      </trkpt>
      <trkpt lat="43.5077" lon="1.31769">
        <ele>172.6</ele>
        <time>2024-07-30T08:59:55Z</time>
      </trkpt>
      <trkpt lat="43.50775" lon="1.31773">
        <ele>172.2</ele>
        <time>2024-07-30T08:59:56Z</time>
      </trkpt>
      <trkpt lat="43.50781" lon="1.31778">
        <ele>172</ele>
        <time>2024-07-30T08:59:57Z</time>
      </trkpt>
      <trkpt lat="43.50787" lon="1.31783">
        <ele>171.8</ele>
        <time>2024-07-30T08:59:58Z</time>
      </trkpt>
      <trkpt lat="43.50794" lon="1.31788">
        <ele>171.8</ele>
        <time>2024-07-30T08:59:59Z</time>
      </trkpt>
      <trkpt lat="43.508" lon="1.31793">
        <ele>171.8</ele>
        <time>2024-07-30T09:00:00Z</time>
      </trkpt>
      <trkpt lat="43.50806" lon="1.31799">
        <ele>171.8</ele>
        <time>2024-07-30T09:00:01Z</time>
      </trkpt>
      <trkpt lat="43.50812" lon="1.31804">
        <ele>171.8</ele>
        <time>2024-07-30T09:00:02Z</time>
      </trkpt>
      <trkpt lat="43.50818" lon="1.31809">
        <ele>171.8</ele>
        <time>2024-07-30T09:00:03Z</time>
      </trkpt>
      <trkpt lat="43.50824" lon="1.31814">
        <ele>171.8</ele>
        <time>2024-07-30T09:00:04Z</time>
      </trkpt>
      <trkpt lat="43.50831" lon="1.31819">
        <ele>171.8</ele>
        <time>2024-07-30T09:00:05Z</time>
      </trkpt>
      <trkpt lat="43.50837" lon="1.31824">
        <ele>171.8</ele>
        <time>2024-07-30T09:00:06Z</time>
      </trkpt>
      <trkpt lat="43.50842" lon="1.31829">
        <ele>171.8</ele>
        <time>2024-07-30T09:00:07Z</time>
      </trkpt>
      <trkpt lat="43.50849" lon="1.31834">
        <ele>171.8</ele>
        <time>2024-07-30T09:00:08Z</time>
      </trkpt>
      <trkpt lat="43.50855" lon="1.31839">
        <ele>172</ele>
        <time>2024-07-30T09:00:09Z</time>
      </trkpt>
      <trkpt lat="43.5086" lon="1.31843">
        <ele>172</ele>
        <time>2024-07-30T09:00:10Z</time>
      </trkpt>
      <trkpt lat="43.50866" lon="1.31847">
        <ele>172</ele>
        <time>2024-07-30T09:00:11Z</time>
      </trkpt>
      <trkpt lat="43.50873" lon="1.31853">
        <ele>172.2</ele>
        <time>2024-07-30T09:00:12Z</time>
      </trkpt>
      <trkpt lat="43.50878" lon="1.31857">
        <ele>172.2</ele>
        <time>2024-07-30T09:00:13Z</time>
      </trkpt>
      <trkpt lat="43.50885" lon="1.31862">
        <ele>172.2</ele>
        <time>2024-07-30T09:00:14Z</time>
      </trkpt>
      <trkpt lat="43.5089" lon="1.31866">
        <ele>172.2</ele>
        <time>2024-07-30T09:00:15Z</time>
      </trkpt>
      <trkpt lat="43.50897" lon="1.31871">
        <ele>172</ele>
        <time>2024-07-30T09:00:16Z</time>
      </trkpt>
      <trkpt lat="43.50904" lon="1.31877">
        <ele>172.2</ele>
        <time>2024-07-30T09:00:17Z</time>
      </trkpt>
      <trkpt lat="43.50909" lon="1.31881">
        <ele>172.2</ele>
        <time>2024-07-30T09:00:18Z</time>
      </trkpt>
      <trkpt lat="43.50915" lon="1.31886">
        <ele>172</ele>
        <time>2024-07-30T09:00:19Z</time>
      </trkpt>
      <trkpt lat="43.50921" lon="1.31891">
        <ele>172</ele>
        <time>2024-07-30T09:00:20Z</time>
      </trkpt>
      <trkpt lat="43.50928" lon="1.31896">
        <ele>171.8</ele>
        <time>2024-07-30T09:00:21Z</time>
      </trkpt>
      <trkpt lat="43.50934" lon="1.31902">
        <ele>171.8</ele>
        <time>2024-07-30T09:00:22Z</time>
      </trkpt>
      <trkpt lat="43.5094" lon="1.31907">
        <ele>171.8</ele>
        <time>2024-07-30T09:00:23Z</time>
      </trkpt>
      <trkpt lat="43.50946" lon="1.31913">
        <ele>171.8</ele>
        <time>2024-07-30T09:00:24Z</time>
      </trkpt>
      <trkpt lat="43.50953" lon="1.31918">
        <ele>171.8</ele>
        <time>2024-07-30T09:00:25Z</time>
      </trkpt>
      <trkpt lat="43.50959" lon="1.31924">
        <ele>171.8</ele>
        <time>2024-07-30T09:00:26Z</time>
      </trkpt>
      <trkpt lat="43.50965" lon="1.31929">
        <ele>171.8</ele>
        <time>2024-07-30T09:00:27Z</time>
      </trkpt>
      <trkpt lat="43.50972" lon="1.31936">
        <ele>171.8</ele>
        <time>2024-07-30T09:00:28Z</time>
      </trkpt>
      <trkpt lat="43.50978" lon="1.31942">
        <ele>171.8</ele>
        <time>2024-07-30T09:00:29Z</time>
      </trkpt>
      <trkpt lat="43.50983" lon="1.31946">
        <ele>171.6</ele>
        <time>2024-07-30T09:00:30Z</time>
      </trkpt>
      <trkpt lat="43.50989" lon="1.31952">
        <ele>171.6</ele>
        <time>2024-07-30T09:00:31Z</time>
      </trkpt>
      <trkpt lat="43.50996" lon="1.31957">
        <ele>171.6</ele>
        <time>2024-07-30T09:00:32Z</time>
      </trkpt>
      <trkpt lat="43.51003" lon="1.31964">
        <ele>171.6</ele>
        <time>2024-07-30T09:00:33Z</time>
      </trkpt>
      <trkpt lat="43.51008" lon="1.31969">
        <ele>171.6</ele>
        <time>2024-07-30T09:00:34Z</time>
      </trkpt>
      <trkpt lat="43.51014" lon="1.31975">
        <ele>171.4</ele>
        <time>2024-07-30T09:00:35Z</time>
      </trkpt>
      <trkpt lat="43.51022" lon="1.31982">
        <ele>171.4</ele>
        <time>2024-07-30T09:00:36Z</time>
      </trkpt>
      <trkpt lat="43.51028" lon="1.31988">
        <ele>171.4</ele>
        <time>2024-07-30T09:00:37Z</time>
      </trkpt>
      <trkpt lat="43.51033" lon="1.31992">
        <ele>171.4</ele>
        <time>2024-07-30T09:00:38Z</time>
      </trkpt>
      <trkpt lat="43.51039" lon="1.31998">
        <ele>171.4</ele>
        <time>2024-07-30T09:00:39Z</time>
      </trkpt>
      <trkpt lat="43.51045" lon="1.32004">
        <ele>171.2</ele>
        <time>2024-07-30T09:00:40Z</time>
      </trkpt>
      <trkpt lat="43.51052" lon="1.32011">
        <ele>171.2</ele>
        <time>2024-07-30T09:00:41Z</time>
      </trkpt>
      <trkpt lat="43.51058" lon="1.32017">
        <ele>171.2</ele>
        <time>2024-07-30T09:00:42Z</time>
      </trkpt>
      <trkpt lat="43.51064" lon="1.32022">
        <ele>171.2</ele>
        <time>2024-07-30T09:00:43Z</time>
      </trkpt>
      <trkpt lat="43.51069" lon="1.32027">
        <ele>171</ele>
        <time>2024-07-30T09:00:44Z</time>
      </trkpt>
      <trkpt lat="43.51075" lon="1.32032">
        <ele>171</ele>
        <time>2024-07-30T09:00:45Z</time>
      </trkpt>
      <trkpt lat="43.51082" lon="1.32039">
        <ele>171</ele>
        <time>2024-07-30T09:00:46Z</time>
      </trkpt>
      <trkpt lat="43.51088" lon="1.32045">
        <ele>171</ele>
        <time>2024-07-30T09:00:47Z</time>
      </trkpt>
      <trkpt lat="43.51093" lon="1.3205">
        <ele>171</ele>
        <time>2024-07-30T09:00:48Z</time>
      </trkpt>
      <trkpt lat="43.51099" lon="1.32055">
        <ele>171</ele>
        <time>2024-07-30T09:00:49Z</time>
      </trkpt>
      <trkpt lat="43.51107" lon="1.32061">
        <ele>171</ele>
        <time>2024-07-30T09:00:50Z</time>
      </trkpt>
      <trkpt lat="43.51113" lon="1.32067">
        <ele>171</ele>
        <time>2024-07-30T09:00:51Z</time>
      </trkpt>
      <trkpt lat="43.51119" lon="1.32072">
        <ele>171</ele>
        <time>2024-07-30T09:00:52Z</time>
      </trkpt>
      <trkpt lat="43.51123" lon="1.32077">
        <ele>171</ele>
        <time>2024-07-30T09:00:53Z</time>
      </trkpt>
      <trkpt lat="43.51129" lon="1.32082">
        <ele>171.2</ele>
        <time>2024-07-30T09:00:54Z</time>
      </trkpt>
      <trkpt lat="43.51135" lon="1.32087">
        <ele>171.2</ele>
        <time>2024-07-30T09:00:55Z</time>
      </trkpt>
      <trkpt lat="43.51141" lon="1.32093">
        <ele>171.2</ele>
        <time>2024-07-30T09:00:56Z</time>
      </trkpt>
      <trkpt lat="43.51145" lon="1.32096">
        <ele>171.2</ele>
        <time>2024-07-30T09:00:57Z</time>
      </trkpt>
      <trkpt lat="43.51149" lon="1.321">
        <ele>171.2</ele>
        <time>2024-07-30T09:00:58Z</time>
      </trkpt>
      <trkpt lat="43.51153" lon="1.32104">
        <ele>171.2</ele>
        <time>2024-07-30T09:00:59Z</time>
      </trkpt>
      <trkpt lat="43.51156" lon="1.32107">
        <ele>171.2</ele>
        <time>2024-07-30T09:01:00Z</time>
      </trkpt>
      <trkpt lat="43.5116" lon="1.32111">
        <ele>171.2</ele>
        <time>2024-07-30T09:01:01Z</time>
      </trkpt>
      <trkpt lat="43.51164" lon="1.32115">
        <ele>171.2</ele>
        <time>2024-07-30T09:01:02Z</time>
      </trkpt>
      <trkpt lat="43.51168" lon="1.32119">
        <ele>171</ele>
        <time>2024-07-30T09:01:03Z</time>
      </trkpt>
      <trkpt lat="43.51173" lon="1.32123">
        <ele>171</ele>
        <time>2024-07-30T09:01:04Z</time>
      </trkpt>
      <trkpt lat="43.51178" lon="1.32128">
        <ele>171</ele>
        <time>2024-07-30T09:01:05Z</time>
      </trkpt>
      <trkpt lat="43.51184" lon="1.32134">
        <ele>170.8</ele>
        <time>2024-07-30T09:01:06Z</time>
      </trkpt>
      <trkpt lat="43.51188" lon="1.32137">
        <ele>170.8</ele>
        <time>2024-07-30T09:01:07Z</time>
      </trkpt>
      <trkpt lat="43.51193" lon="1.32142">
        <ele>170.8</ele>
        <time>2024-07-30T09:01:08Z</time>
      </trkpt>
      <trkpt lat="43.51198" lon="1.32147">
        <ele>170.8</ele>
        <time>2024-07-30T09:01:09Z</time>
      </trkpt>
      <trkpt lat="43.51205" lon="1.32152">
        <ele>170.8</ele>
        <time>2024-07-30T09:01:10Z</time>
      </trkpt>
      <trkpt lat="43.51211" lon="1.32157">
        <ele>170.8</ele>
        <time>2024-07-30T09:01:11Z</time>
      </trkpt>
      <trkpt lat="43.51215" lon="1.32161">
        <ele>170.8</ele>
        <time>2024-07-30T09:01:12Z</time>
      </trkpt>
      <trkpt lat="43.5122" lon="1.32166">
        <ele>170.8</ele>
        <time>2024-07-30T09:01:13Z</time>
      </trkpt>
      <trkpt lat="43.51227" lon="1.32173">
        <ele>170.8</ele>
        <time>2024-07-30T09:01:14Z</time>
      </trkpt>
      <trkpt lat="43.51232" lon="1.32178">
        <ele>170.6</ele>
        <time>2024-07-30T09:01:15Z</time>
      </trkpt>
      <trkpt lat="43.51238" lon="1.32183">
        <ele>170.6</ele>
        <time>2024-07-30T09:01:16Z</time>
      </trkpt>
      <trkpt lat="43.51242" lon="1.32188">
        <ele>170.6</ele>
        <time>2024-07-30T09:01:17Z</time>
      </trkpt>
      <trkpt lat="43.51247" lon="1.32193">
        <ele>170.6</ele>
        <time>2024-07-30T09:01:18Z</time>
      </trkpt>
      <trkpt lat="43.51252" lon="1.32198">
        <ele>170.6</ele>
        <time>2024-07-30T09:01:19Z</time>
      </trkpt>
      <trkpt lat="43.51259" lon="1.32205">
        <ele>170.6</ele>
        <time>2024-07-30T09:01:20Z</time>
      </trkpt>
      <trkpt lat="43.51263" lon="1.32209">
        <ele>170.6</ele>
        <time>2024-07-30T09:01:21Z</time>
      </trkpt>
      <trkpt lat="43.51268" lon="1.32214">
        <ele>170.6</ele>
        <time>2024-07-30T09:01:22Z</time>
      </trkpt>
      <trkpt lat="43.51273" lon="1.32218">
        <ele>170.6</ele>
        <time>2024-07-30T09:01:23Z</time>
      </trkpt>
      <trkpt lat="43.51277" lon="1.32223">
        <ele>170.6</ele>
        <time>2024-07-30T09:01:24Z</time>
      </trkpt>
      <trkpt lat="43.51283" lon="1.32229">
        <ele>170.6</ele>
        <time>2024-07-30T09:01:25Z</time>
      </trkpt>
      <trkpt lat="43.51286" lon="1.32232">
        <ele>170.6</ele>
        <time>2024-07-30T09:01:26Z</time>
      </trkpt>
      <trkpt lat="43.51291" lon="1.32236">
        <ele>170.6</ele>
        <time>2024-07-30T09:01:27Z</time>
      </trkpt>
      <trkpt lat="43.51296" lon="1.32241">
        <ele>170.6</ele>
        <time>2024-07-30T09:01:28Z</time>
      </trkpt>
      <trkpt lat="43.51301" lon="1.32245">
        <ele>170.6</ele>
        <time>2024-07-30T09:01:29Z</time>
      </trkpt>
      <trkpt lat="43.51305" lon="1.32249">
        <ele>170.6</ele>
        <time>2024-07-30T09:01:30Z</time>
      </trkpt>
      <trkpt lat="43.51309" lon="1.32252">
        <ele>170.4</ele>
        <time>2024-07-30T09:01:31Z</time>
      </trkpt>
      <trkpt lat="43.51313" lon="1.32256">
        <ele>170.4</ele>
        <time>2024-07-30T09:01:32Z</time>
      </trkpt>
      <trkpt lat="43.51317" lon="1.32261">
        <ele>170.4</ele>
        <time>2024-07-30T09:01:33Z</time>
      </trkpt>
      <trkpt lat="43.51322" lon="1.32265">
        <ele>170.4</ele>
        <time>2024-07-30T09:01:34Z</time>
      </trkpt>
      <trkpt lat="43.51325" lon="1.32267">
        <ele>170.4</ele>
        <time>2024-07-30T09:01:35Z</time>
      </trkpt>
      <trkpt lat="43.51328" lon="1.3227">
        <ele>170.2</ele>
        <time>2024-07-30T09:01:36Z</time>
      </trkpt>
      <trkpt lat="43.51331" lon="1.32273">
        <ele>170.2</ele>
        <time>2024-07-30T09:01:37Z</time>
      </trkpt>
      <trkpt lat="43.51332" lon="1.32274">
        <ele>170.2</ele>
        <time>2024-07-30T09:01:38Z</time>
      </trkpt>
      <trkpt lat="43.51333" lon="1.32275">
        <ele>170.2</ele>
        <time>2024-07-30T09:01:39Z</time>
      </trkpt>
      <trkpt lat="43.51334" lon="1.32276">
        <ele>170.2</ele>
        <time>2024-07-30T09:01:40Z</time>
      </trkpt>
      <trkpt lat="43.51336" lon="1.32275">
        <ele>170.2</ele>
        <time>2024-07-30T09:01:41Z</time>
      </trkpt>
      <trkpt lat="43.51338" lon="1.32274">
        <ele>170</ele>
        <time>2024-07-30T09:01:42Z</time>
      </trkpt>
      <trkpt lat="43.51339" lon="1.32272">
        <ele>170</ele>
        <time>2024-07-30T09:01:43Z</time>
      </trkpt>
      <trkpt lat="43.51341" lon="1.32269">
        <ele>170</ele>
        <time>2024-07-30T09:01:44Z</time>
      </trkpt>
      <trkpt lat="43.51343" lon="1.32266">
        <ele>170</ele>
        <time>2024-07-30T09:01:45Z</time>
      </trkpt>
      <trkpt lat="43.51345" lon="1.32263">
        <ele>170</ele>
        <time>2024-07-30T09:01:46Z</time>
      </trkpt>
      <trkpt lat="43.51348" lon="1.32259">
        <ele>170</ele>
        <time>2024-07-30T09:01:47Z</time>
      </trkpt>
      <trkpt lat="43.51349" lon="1.32255">
        <ele>170</ele>
        <time>2024-07-30T09:01:48Z</time>
      </trkpt>
      <trkpt lat="43.51352" lon="1.3225">
        <ele>169.8</ele>
        <time>2024-07-30T09:01:49Z</time>
      </trkpt>
      <trkpt lat="43.51355" lon="1.32246">
        <ele>169.8</ele>
        <time>2024-07-30T09:01:50Z</time>
      </trkpt>
      <trkpt lat="43.51358" lon="1.3224">
        <ele>169.8</ele>
        <time>2024-07-30T09:01:51Z</time>
      </trkpt>
      <trkpt lat="43.5136" lon="1.32235">
        <ele>169.6</ele>
        <time>2024-07-30T09:01:52Z</time>
      </trkpt>
      <trkpt lat="43.51364" lon="1.32227">
        <ele>169.6</ele>
        <time>2024-07-30T09:01:53Z</time>
      </trkpt>
      <trkpt lat="43.51366" lon="1.32222">
        <ele>169.6</ele>
        <time>2024-07-30T09:01:54Z</time>
      </trkpt>
      <trkpt lat="43.5137" lon="1.32216">
        <ele>169.6</ele>
        <time>2024-07-30T09:01:55Z</time>
      </trkpt>
      <trkpt lat="43.51373" lon="1.32209">
        <ele>169.6</ele>
        <time>2024-07-30T09:01:56Z</time>
      </trkpt>
      <trkpt lat="43.51377" lon="1.32201">
        <ele>169.6</ele>
        <time>2024-07-30T09:01:57Z</time>
      </trkpt>
      <trkpt lat="43.5138" lon="1.32194">
        <ele>169.6</ele>
        <time>2024-07-30T09:01:58Z</time>
      </trkpt>
      <trkpt lat="43.51383" lon="1.32186">
        <ele>169.4</ele>
        <time>2024-07-30T09:01:59Z</time>
      </trkpt>
      <trkpt lat="43.51387" lon="1.32178">
        <ele>169.4</ele>
        <time>2024-07-30T09:02:00Z</time>
      </trkpt>
      <trkpt lat="43.5139" lon="1.32171">
        <ele>169.4</ele>
        <time>2024-07-30T09:02:01Z</time>
      </trkpt>
      <trkpt lat="43.51394" lon="1.32161">
        <ele>169.4</ele>
        <time>2024-07-30T09:02:02Z</time>
      </trkpt>
      <trkpt lat="43.51396" lon="1.32154">
        <ele>169.4</ele>
        <time>2024-07-30T09:02:03Z</time>
      </trkpt>
      <trkpt lat="43.51399" lon="1.32145">
        <ele>169.4</ele>
        <time>2024-07-30T09:02:04Z</time>
      </trkpt>
      <trkpt lat="43.51403" lon="1.32137">
        <ele>169.4</ele>
        <time>2024-07-30T09:02:05Z</time>
      </trkpt>
      <trkpt lat="43.51406" lon="1.32129">
        <ele>169.4</ele>
        <time>2024-07-30T09:02:06Z</time>
      </trkpt>
      <trkpt lat="43.5141" lon="1.32119">
        <ele>169.4</ele>
        <time>2024-07-30T09:02:07Z</time>
      </trkpt>
      <trkpt lat="43.51413" lon="1.32112">
        <ele>169.4</ele>
        <time>2024-07-30T09:02:08Z</time>
      </trkpt>
      <trkpt lat="43.51416" lon="1.32103">
        <ele>169.4</ele>
        <time>2024-07-30T09:02:09Z</time>
      </trkpt>
      <trkpt lat="43.5142" lon="1.32093">
        <ele>169.4</ele>
        <time>2024-07-30T09:02:10Z</time>
      </trkpt>
      <trkpt lat="43.51422" lon="1.32087">
        <ele>169.6</ele>
        <time>2024-07-30T09:02:11Z</time>
      </trkpt>
      <trkpt lat="43.51426" lon="1.32078">
        <ele>169.6</ele>
        <time>2024-07-30T09:02:12Z</time>
      </trkpt>
      <trkpt lat="43.51429" lon="1.3207">
        <ele>169.6</ele>
        <time>2024-07-30T09:02:13Z</time>
      </trkpt>
      <trkpt lat="43.51431" lon="1.32062">
        <ele>169.6</ele>
        <time>2024-07-30T09:02:14Z</time>
      </trkpt>
      <trkpt lat="43.51434" lon="1.32053">
        <ele>169.6</ele>
        <time>2024-07-30T09:02:15Z</time>
      </trkpt>
      <trkpt lat="43.51437" lon="1.32046">
        <ele>169.6</ele>
        <time>2024-07-30T09:02:16Z</time>
      </trkpt>
      <trkpt lat="43.51439" lon="1.32038">
        <ele>169.6</ele>
        <time>2024-07-30T09:02:17Z</time>
      </trkpt>
      <trkpt lat="43.51442" lon="1.32029">
        <ele>169.6</ele>
        <time>2024-07-30T09:02:18Z</time>
      </trkpt>
      <trkpt lat="43.51445" lon="1.32021">
        <ele>169.6</ele>
        <time>2024-07-30T09:02:19Z</time>
      </trkpt>
      <trkpt lat="43.51448" lon="1.32012">
        <ele>169.6</ele>
        <time>2024-07-30T09:02:20Z</time>
      </trkpt>
      <trkpt lat="43.5145" lon="1.32003">
        <ele>169.6</ele>
        <time>2024-07-30T09:02:21Z</time>
      </trkpt>
      <trkpt lat="43.51453" lon="1.31995">
        <ele>169.6</ele>
        <time>2024-07-30T09:02:22Z</time>
      </trkpt>
      <trkpt lat="43.51455" lon="1.31986">
        <ele>169.6</ele>
        <time>2024-07-30T09:02:23Z</time>
      </trkpt>
      <trkpt lat="43.51457" lon="1.31978">
        <ele>169.6</ele>
        <time>2024-07-30T09:02:24Z</time>
      </trkpt>
      <trkpt lat="43.51459" lon="1.31969">
        <ele>169.4</ele>
        <time>2024-07-30T09:02:25Z</time>
      </trkpt>
      <trkpt lat="43.51461" lon="1.31959">
        <ele>169.4</ele>
        <time>2024-07-30T09:02:26Z</time>
      </trkpt>
      <trkpt lat="43.51463" lon="1.31952">
        <ele>169.4</ele>
        <time>2024-07-30T09:02:27Z</time>
      </trkpt>
      <trkpt lat="43.51465" lon="1.31943">
        <ele>169.4</ele>
        <time>2024-07-30T09:02:28Z</time>
      </trkpt>
      <trkpt lat="43.51467" lon="1.31934">
        <ele>169.4</ele>
        <time>2024-07-30T09:02:29Z</time>
      </trkpt>
      <trkpt lat="43.5147" lon="1.31925">
        <ele>169.4</ele>
        <time>2024-07-30T09:02:30Z</time>
      </trkpt>
      <trkpt lat="43.51472" lon="1.31914">
        <ele>169.4</ele>
        <time>2024-07-30T09:02:31Z</time>
      </trkpt>
      <trkpt lat="43.51474" lon="1.31907">
        <ele>169.4</ele>
        <time>2024-07-30T09:02:32Z</time>
      </trkpt>
      <trkpt lat="43.51477" lon="1.31899">
        <ele>169.4</ele>
        <time>2024-07-30T09:02:33Z</time>
      </trkpt>
      <trkpt lat="43.51479" lon="1.31888">
        <ele>169.4</ele>
        <time>2024-07-30T09:02:34Z</time>
      </trkpt>
      <trkpt lat="43.5148" lon="1.31881">
        <ele>169.4</ele>
        <time>2024-07-30T09:02:35Z</time>
      </trkpt>
      <trkpt lat="43.51482" lon="1.31872">
        <ele>169.4</ele>
        <time>2024-07-30T09:02:36Z</time>
      </trkpt>
      <trkpt lat="43.51484" lon="1.31864">
        <ele>169.4</ele>
        <time>2024-07-30T09:02:37Z</time>
      </trkpt>
      <trkpt lat="43.51486" lon="1.31855">
        <ele>169.4</ele>
        <time>2024-07-30T09:02:38Z</time>
      </trkpt>
      <trkpt lat="43.51489" lon="1.31845">
        <ele>169.4</ele>
        <time>2024-07-30T09:02:39Z</time>
      </trkpt>
      <trkpt lat="43.51491" lon="1.31837">
        <ele>169.4</ele>
        <time>2024-07-30T09:02:40Z</time>
      </trkpt>
      <trkpt lat="43.51493" lon="1.31831">
        <ele>169.4</ele>
        <time>2024-07-30T09:02:41Z</time>
      </trkpt>
      <trkpt lat="43.51495" lon="1.31823">
        <ele>169.4</ele>
        <time>2024-07-30T09:02:42Z</time>
      </trkpt>
      <trkpt lat="43.51497" lon="1.31815">
        <ele>169.4</ele>
        <time>2024-07-30T09:02:43Z</time>
      </trkpt>
      <trkpt lat="43.51498" lon="1.31807">
        <ele>169.4</ele>
        <time>2024-07-30T09:02:44Z</time>
      </trkpt>
      <trkpt lat="43.515" lon="1.31797">
        <ele>169.4</ele>
        <time>2024-07-30T09:02:45Z</time>
      </trkpt>
      <trkpt lat="43.51502" lon="1.3179">
        <ele>169.4</ele>
        <time>2024-07-30T09:02:46Z</time>
      </trkpt>
      <trkpt lat="43.51504" lon="1.31781">
        <ele>169.4</ele>
        <time>2024-07-30T09:02:47Z</time>
      </trkpt>
      <trkpt lat="43.51506" lon="1.31773">
        <ele>169.4</ele>
        <time>2024-07-30T09:02:48Z</time>
      </trkpt>
      <trkpt lat="43.51508" lon="1.31765">
        <ele>169.4</ele>
        <time>2024-07-30T09:02:49Z</time>
      </trkpt>
      <trkpt lat="43.5151" lon="1.31756">
        <ele>169.4</ele>
        <time>2024-07-30T09:02:50Z</time>
      </trkpt>
      <trkpt lat="43.51512" lon="1.31748">
        <ele>169.4</ele>
        <time>2024-07-30T09:02:51Z</time>
      </trkpt>
      <trkpt lat="43.51514" lon="1.31741">
        <ele>169.4</ele>
        <time>2024-07-30T09:02:52Z</time>
      </trkpt>
      <trkpt lat="43.51518" lon="1.31734">
        <ele>169.4</ele>
        <time>2024-07-30T09:02:53Z</time>
      </trkpt>
      <trkpt lat="43.51523" lon="1.31729">
        <ele>169.2</ele>
        <time>2024-07-30T09:02:54Z</time>
      </trkpt>
      <trkpt lat="43.5153" lon="1.31724">
        <ele>169.2</ele>
        <time>2024-07-30T09:02:55Z</time>
      </trkpt>
      <trkpt lat="43.51535" lon="1.31722">
        <ele>169.2</ele>
        <time>2024-07-30T09:02:56Z</time>
      </trkpt>
      <trkpt lat="43.51541" lon="1.31719">
        <ele>169.2</ele>
        <time>2024-07-30T09:02:57Z</time>
      </trkpt>
      <trkpt lat="43.51547" lon="1.31716">
        <ele>169</ele>
        <time>2024-07-30T09:02:58Z</time>
      </trkpt>
      <trkpt lat="43.51554" lon="1.31713">
        <ele>168.8</ele>
        <time>2024-07-30T09:02:59Z</time>
      </trkpt>
      <trkpt lat="43.51559" lon="1.31711">
        <ele>168.8</ele>
        <time>2024-07-30T09:03:00Z</time>
      </trkpt>
      <trkpt lat="43.51565" lon="1.31708">
        <ele>168.6</ele>
        <time>2024-07-30T09:03:01Z</time>
      </trkpt>
      <trkpt lat="43.51572" lon="1.31706">
        <ele>168.6</ele>
        <time>2024-07-30T09:03:02Z</time>
      </trkpt>
      <trkpt lat="43.51577" lon="1.31704">
        <ele>168.6</ele>
        <time>2024-07-30T09:03:03Z</time>
      </trkpt>
      <trkpt lat="43.51583" lon="1.31703">
        <ele>168.6</ele>
        <time>2024-07-30T09:03:04Z</time>
      </trkpt>
      <trkpt lat="43.51589" lon="1.31704">
        <ele>168.6</ele>
        <time>2024-07-30T09:03:05Z</time>
      </trkpt>
      <trkpt lat="43.51595" lon="1.31706">
        <ele>168.6</ele>
        <time>2024-07-30T09:03:06Z</time>
      </trkpt>
      <trkpt lat="43.51602" lon="1.31711">
        <ele>168.6</ele>
        <time>2024-07-30T09:03:07Z</time>
      </trkpt>
      <trkpt lat="43.51607" lon="1.31714">
        <ele>168.6</ele>
        <time>2024-07-30T09:03:08Z</time>
      </trkpt>
      <trkpt lat="43.51613" lon="1.31719">
        <ele>168.8</ele>
        <time>2024-07-30T09:03:09Z</time>
      </trkpt>
      <trkpt lat="43.51618" lon="1.31725">
        <ele>168.8</ele>
        <time>2024-07-30T09:03:10Z</time>
      </trkpt>
      <trkpt lat="43.51623" lon="1.31731">
        <ele>168.8</ele>
        <time>2024-07-30T09:03:11Z</time>
      </trkpt>
      <trkpt lat="43.51628" lon="1.31738">
        <ele>168.8</ele>
        <time>2024-07-30T09:03:12Z</time>
      </trkpt>
      <trkpt lat="43.51633" lon="1.31745">
        <ele>168.8</ele>
        <time>2024-07-30T09:03:13Z</time>
      </trkpt>
      <trkpt lat="43.51638" lon="1.31752">
        <ele>168.8</ele>
        <time>2024-07-30T09:03:14Z</time>
      </trkpt>
      <trkpt lat="43.51644" lon="1.31758">
        <ele>168.8</ele>
        <time>2024-07-30T09:03:15Z</time>
      </trkpt>
      <trkpt lat="43.51649" lon="1.31765">
        <ele>168.6</ele>
        <time>2024-07-30T09:03:16Z</time>
      </trkpt>
      <trkpt lat="43.51655" lon="1.31772">
        <ele>168.6</ele>
        <time>2024-07-30T09:03:17Z</time>
      </trkpt>
      <trkpt lat="43.51661" lon="1.31778">
        <ele>168.4</ele>
        <time>2024-07-30T09:03:18Z</time>
      </trkpt>
      <trkpt lat="43.51668" lon="1.31785">
        <ele>168.4</ele>
        <time>2024-07-30T09:03:19Z</time>
      </trkpt>
      <trkpt lat="43.51673" lon="1.31789">
        <ele>168.2</ele>
        <time>2024-07-30T09:03:20Z</time>
      </trkpt>
      <trkpt lat="43.51679" lon="1.31795">
        <ele>168</ele>
        <time>2024-07-30T09:03:21Z</time>
      </trkpt>
      <trkpt lat="43.51685" lon="1.31801">
        <ele>168</ele>
        <time>2024-07-30T09:03:22Z</time>
      </trkpt>
      <trkpt lat="43.51692" lon="1.31808">
        <ele>168</ele>
        <time>2024-07-30T09:03:23Z</time>
      </trkpt>
      <trkpt lat="43.51696" lon="1.31812">
        <ele>168</ele>
        <time>2024-07-30T09:03:24Z</time>
      </trkpt>
      <trkpt lat="43.51702" lon="1.31818">
        <ele>167.8</ele>
        <time>2024-07-30T09:03:25Z</time>
      </trkpt>
      <trkpt lat="43.51708" lon="1.31824">
        <ele>167.8</ele>
        <time>2024-07-30T09:03:26Z</time>
      </trkpt>
      <trkpt lat="43.51714" lon="1.31829">
        <ele>167.8</ele>
        <time>2024-07-30T09:03:27Z</time>
      </trkpt>
      <trkpt lat="43.5172" lon="1.31835">
        <ele>167.8</ele>
        <time>2024-07-30T09:03:28Z</time>
      </trkpt>
      <trkpt lat="43.51726" lon="1.3184">
        <ele>167.6</ele>
        <time>2024-07-30T09:03:29Z</time>
      </trkpt>
      <trkpt lat="43.51732" lon="1.31845">
        <ele>167.6</ele>
        <time>2024-07-30T09:03:30Z</time>
      </trkpt>
      <trkpt lat="43.51739" lon="1.3185">
        <ele>167.6</ele>
        <time>2024-07-30T09:03:31Z</time>
      </trkpt>
      <trkpt lat="43.51745" lon="1.31854">
        <ele>167.6</ele>
        <time>2024-07-30T09:03:32Z</time>
      </trkpt>
      <trkpt lat="43.51751" lon="1.31859">
        <ele>167.6</ele>
        <time>2024-07-30T09:03:33Z</time>
      </trkpt>
      <trkpt lat="43.51758" lon="1.31863">
        <ele>167.6</ele>
        <time>2024-07-30T09:03:34Z</time>
      </trkpt>
      <trkpt lat="43.51765" lon="1.31866">
        <ele>167.6</ele>
        <time>2024-07-30T09:03:35Z</time>
      </trkpt>
      <trkpt lat="43.51773" lon="1.31871">
        <ele>167.6</ele>
        <time>2024-07-30T09:03:36Z</time>
      </trkpt>
      <trkpt lat="43.51779" lon="1.31874">
        <ele>167.6</ele>
        <time>2024-07-30T09:03:37Z</time>
      </trkpt>
      <trkpt lat="43.51786" lon="1.31877">
        <ele>167.6</ele>
        <time>2024-07-30T09:03:38Z</time>
      </trkpt>
      <trkpt lat="43.51793" lon="1.31881">
        <ele>167.6</ele>
        <time>2024-07-30T09:03:39Z</time>
      </trkpt>
      <trkpt lat="43.518" lon="1.31885">
        <ele>167.6</ele>
        <time>2024-07-30T09:03:40Z</time>
      </trkpt>
      <trkpt lat="43.51807" lon="1.3189">
        <ele>167.6</ele>
        <time>2024-07-30T09:03:41Z</time>
      </trkpt>
      <trkpt lat="43.51815" lon="1.31896">
        <ele>167.6</ele>
        <time>2024-07-30T09:03:42Z</time>
      </trkpt>
      <trkpt lat="43.5182" lon="1.31901">
        <ele>167.6</ele>
        <time>2024-07-30T09:03:43Z</time>
      </trkpt>
      <trkpt lat="43.51826" lon="1.31908">
        <ele>167.6</ele>
        <time>2024-07-30T09:03:44Z</time>
      </trkpt>
      <trkpt lat="43.51833" lon="1.31915">
        <ele>167.6</ele>
        <time>2024-07-30T09:03:45Z</time>
      </trkpt>
      <trkpt lat="43.51837" lon="1.31921">
        <ele>167.6</ele>
        <time>2024-07-30T09:03:46Z</time>
      </trkpt>
      <trkpt lat="43.51842" lon="1.31928">
        <ele>167.6</ele>
        <time>2024-07-30T09:03:47Z</time>
      </trkpt>
      <trkpt lat="43.51847" lon="1.31935">
        <ele>167.6</ele>
        <time>2024-07-30T09:03:48Z</time>
      </trkpt>
      <trkpt lat="43.51852" lon="1.31942">
        <ele>167.6</ele>
        <time>2024-07-30T09:03:49Z</time>
      </trkpt>
      <trkpt lat="43.51857" lon="1.31949">
        <ele>167.6</ele>
        <time>2024-07-30T09:03:50Z</time>
      </trkpt>
      <trkpt lat="43.51861" lon="1.31956">
        <ele>167.6</ele>
        <time>2024-07-30T09:03:51Z</time>
      </trkpt>
      <trkpt lat="43.51864" lon="1.31962">
        <ele>167.6</ele>
        <time>2024-07-30T09:03:52Z</time>
      </trkpt>
      <trkpt lat="43.51867" lon="1.31966">
        <ele>167.6</ele>
        <time>2024-07-30T09:03:53Z</time>
      </trkpt>
      <trkpt lat="43.5187" lon="1.31969">
        <ele>167.6</ele>
        <time>2024-07-30T09:03:54Z</time>
      </trkpt>
      <trkpt lat="43.51874" lon="1.31972">
        <ele>167.6</ele>
        <time>2024-07-30T09:03:55Z</time>
      </trkpt>
      <trkpt lat="43.51877" lon="1.31977">
        <ele>167.6</ele>
        <time>2024-07-30T09:03:56Z</time>
      </trkpt>
      <trkpt lat="43.51879" lon="1.31983">
        <ele>167.6</ele>
        <time>2024-07-30T09:03:57Z</time>
      </trkpt>
      <trkpt lat="43.51881" lon="1.3199">
        <ele>167.6</ele>
        <time>2024-07-30T09:03:58Z</time>
      </trkpt>
      <trkpt lat="43.51883" lon="1.31997">
        <ele>167.6</ele>
        <time>2024-07-30T09:03:59Z</time>
      </trkpt>
      <trkpt lat="43.51888" lon="1.32002">
        <ele>167.6</ele>
        <time>2024-07-30T09:04:00Z</time>
      </trkpt>
      <trkpt lat="43.51893" lon="1.32004">
        <ele>167.4</ele>
        <time>2024-07-30T09:04:01Z</time>
      </trkpt>
      <trkpt lat="43.51899" lon="1.32004">
        <ele>167.4</ele>
        <time>2024-07-30T09:04:02Z</time>
      </trkpt>
      <trkpt lat="43.51902" lon="1.32">
        <ele>167.4</ele>
        <time>2024-07-30T09:04:03Z</time>
      </trkpt>
      <trkpt lat="43.51904" lon="1.31993">
        <ele>167.4</ele>
        <time>2024-07-30T09:04:04Z</time>
      </trkpt>
      <trkpt lat="43.51904" lon="1.31984">
        <ele>167.4</ele>
        <time>2024-07-30T09:04:05Z</time>
      </trkpt>
      <trkpt lat="43.51905" lon="1.31976">
        <ele>167.4</ele>
        <time>2024-07-30T09:04:06Z</time>
      </trkpt>
      <trkpt lat="43.51907" lon="1.31967">
        <ele>167.4</ele>
        <time>2024-07-30T09:04:07Z</time>
      </trkpt>
      <trkpt lat="43.5191" lon="1.31962">
        <ele>167.4</ele>
        <time>2024-07-30T09:04:08Z</time>
      </trkpt>
      <trkpt lat="43.51913" lon="1.31955">
        <ele>167.4</ele>
        <time>2024-07-30T09:04:09Z</time>
      </trkpt>
      <trkpt lat="43.51917" lon="1.31948">
        <ele>167.4</ele>
        <time>2024-07-30T09:04:10Z</time>
      </trkpt>
      <trkpt lat="43.51922" lon="1.31939">
        <ele>167.4</ele>
        <time>2024-07-30T09:04:11Z</time>
      </trkpt>
      <trkpt lat="43.51925" lon="1.31932">
        <ele>167.4</ele>
        <time>2024-07-30T09:04:12Z</time>
      </trkpt>
      <trkpt lat="43.51929" lon="1.31924">
        <ele>167.6</ele>
        <time>2024-07-30T09:04:13Z</time>
      </trkpt>
      <trkpt lat="43.51934" lon="1.31917">
        <ele>167.6</ele>
        <time>2024-07-30T09:04:14Z</time>
      </trkpt>
      <trkpt lat="43.51938" lon="1.31909">
        <ele>167.6</ele>
        <time>2024-07-30T09:04:15Z</time>
      </trkpt>
      <trkpt lat="43.51943" lon="1.31899">
        <ele>167.6</ele>
        <time>2024-07-30T09:04:16Z</time>
      </trkpt>
      <trkpt lat="43.51947" lon="1.31892">
        <ele>167.4</ele>
        <time>2024-07-30T09:04:17Z</time>
      </trkpt>
      <trkpt lat="43.51951" lon="1.31884">
        <ele>167.4</ele>
        <time>2024-07-30T09:04:18Z</time>
      </trkpt>
      <trkpt lat="43.51956" lon="1.31874">
        <ele>167.2</ele>
        <time>2024-07-30T09:04:19Z</time>
      </trkpt>
      <trkpt lat="43.5196" lon="1.31868">
        <ele>167.2</ele>
        <time>2024-07-30T09:04:20Z</time>
      </trkpt>
      <trkpt lat="43.51965" lon="1.31858">
        <ele>167.2</ele>
        <time>2024-07-30T09:04:21Z</time>
      </trkpt>
      <trkpt lat="43.51969" lon="1.31851">
        <ele>167.2</ele>
        <time>2024-07-30T09:04:22Z</time>
      </trkpt>
      <trkpt lat="43.51973" lon="1.31843">
        <ele>167.2</ele>
        <time>2024-07-30T09:04:23Z</time>
      </trkpt>
      <trkpt lat="43.51977" lon="1.31835">
        <ele>167.2</ele>
        <time>2024-07-30T09:04:24Z</time>
      </trkpt>
      <trkpt lat="43.51982" lon="1.31825">
        <ele>167.2</ele>
        <time>2024-07-30T09:04:25Z</time>
      </trkpt>
      <trkpt lat="43.51985" lon="1.31818">
        <ele>167.2</ele>
        <time>2024-07-30T09:04:26Z</time>
      </trkpt>
      <trkpt lat="43.51988" lon="1.3181">
        <ele>167.2</ele>
        <time>2024-07-30T09:04:27Z</time>
      </trkpt>
      <trkpt lat="43.51992" lon="1.318">
        <ele>167.2</ele>
        <time>2024-07-30T09:04:28Z</time>
      </trkpt>
      <trkpt lat="43.51995" lon="1.31794">
        <ele>167.2</ele>
        <time>2024-07-30T09:04:29Z</time>
      </trkpt>
      <trkpt lat="43.51999" lon="1.31786">
        <ele>167.2</ele>
        <time>2024-07-30T09:04:30Z</time>
      </trkpt>
      <trkpt lat="43.52003" lon="1.31778">
        <ele>167.2</ele>
        <time>2024-07-30T09:04:31Z</time>
      </trkpt>
      <trkpt lat="43.52006" lon="1.3177">
        <ele>167.2</ele>
        <time>2024-07-30T09:04:32Z</time>
      </trkpt>
      <trkpt lat="43.5201" lon="1.31762">
        <ele>167.2</ele>
        <time>2024-07-30T09:04:33Z</time>
      </trkpt>
      <trkpt lat="43.52014" lon="1.31754">
        <ele>167.2</ele>
        <time>2024-07-30T09:04:34Z</time>
      </trkpt>
      <trkpt lat="43.52018" lon="1.31745">
        <ele>167.4</ele>
        <time>2024-07-30T09:04:35Z</time>
      </trkpt>
      <trkpt lat="43.52022" lon="1.31737">
        <ele>167.4</ele>
        <time>2024-07-30T09:04:36Z</time>
      </trkpt>
      <trkpt lat="43.52025" lon="1.31728">
        <ele>167.4</ele>
        <time>2024-07-30T09:04:37Z</time>
      </trkpt>
      <trkpt lat="43.52029" lon="1.3172">
        <ele>167.4</ele>
        <time>2024-07-30T09:04:38Z</time>
      </trkpt>
      <trkpt lat="43.52033" lon="1.31711">
        <ele>167.4</ele>
        <time>2024-07-30T09:04:39Z</time>
      </trkpt>
      <trkpt lat="43.52037" lon="1.31701">
        <ele>167.4</ele>
        <time>2024-07-30T09:04:40Z</time>
      </trkpt>
      <trkpt lat="43.5204" lon="1.31695">
        <ele>167.4</ele>
        <time>2024-07-30T09:04:41Z</time>
      </trkpt>
      <trkpt lat="43.52044" lon="1.31686">
        <ele>167.4</ele>
        <time>2024-07-30T09:04:42Z</time>
      </trkpt>
      <trkpt lat="43.52048" lon="1.31678">
        <ele>167.4</ele>
        <time>2024-07-30T09:04:43Z</time>
      </trkpt>
      <trkpt lat="43.52053" lon="1.31668">
        <ele>167.4</ele>
        <time>2024-07-30T09:04:44Z</time>
      </trkpt>
      <trkpt lat="43.52057" lon="1.31662">
        <ele>167.4</ele>
        <time>2024-07-30T09:04:45Z</time>
      </trkpt>
      <trkpt lat="43.52061" lon="1.31654">
        <ele>167.4</ele>
        <time>2024-07-30T09:04:46Z</time>
      </trkpt>
      <trkpt lat="43.52066" lon="1.31644">
        <ele>167.4</ele>
        <time>2024-07-30T09:04:47Z</time>
      </trkpt>
      <trkpt lat="43.5207" lon="1.31638">
        <ele>167.4</ele>
        <time>2024-07-30T09:04:48Z</time>
      </trkpt>
      <trkpt lat="43.52074" lon="1.3163">
        <ele>167.4</ele>
        <time>2024-07-30T09:04:49Z</time>
      </trkpt>
      <trkpt lat="43.52079" lon="1.31623">
        <ele>167.4</ele>
        <time>2024-07-30T09:04:50Z</time>
      </trkpt>
      <trkpt lat="43.52084" lon="1.31615">
        <ele>167.6</ele>
        <time>2024-07-30T09:04:51Z</time>
      </trkpt>
      <trkpt lat="43.5209" lon="1.31607">
        <ele>167.6</ele>
        <time>2024-07-30T09:04:52Z</time>
      </trkpt>
      <trkpt lat="43.52094" lon="1.31601">
        <ele>167.6</ele>
        <time>2024-07-30T09:04:53Z</time>
      </trkpt>
      <trkpt lat="43.52099" lon="1.31594">
        <ele>167.6</ele>
        <time>2024-07-30T09:04:54Z</time>
      </trkpt>
      <trkpt lat="43.52104" lon="1.31586">
        <ele>167.4</ele>
        <time>2024-07-30T09:04:55Z</time>
      </trkpt>
      <trkpt lat="43.52108" lon="1.31579">
        <ele>167.4</ele>
        <time>2024-07-30T09:04:56Z</time>
      </trkpt>
      <trkpt lat="43.52113" lon="1.31571">
        <ele>167.4</ele>
        <time>2024-07-30T09:04:57Z</time>
      </trkpt>
      <trkpt lat="43.52119" lon="1.31563">
        <ele>167.4</ele>
        <time>2024-07-30T09:04:58Z</time>
      </trkpt>
      <trkpt lat="43.52123" lon="1.31557">
        <ele>167.4</ele>
        <time>2024-07-30T09:04:59Z</time>
      </trkpt>
      <trkpt lat="43.52128" lon="1.3155">
        <ele>167.4</ele>
        <time>2024-07-30T09:05:00Z</time>
      </trkpt>
      <trkpt lat="43.52133" lon="1.31544">
        <ele>167.4</ele>
        <time>2024-07-30T09:05:01Z</time>
      </trkpt>
      <trkpt lat="43.52138" lon="1.31537">
        <ele>167.4</ele>
        <time>2024-07-30T09:05:02Z</time>
      </trkpt>
      <trkpt lat="43.52145" lon="1.3153">
        <ele>167.4</ele>
        <time>2024-07-30T09:05:03Z</time>
      </trkpt>
      <trkpt lat="43.52149" lon="1.31525">
        <ele>167.4</ele>
        <time>2024-07-30T09:05:04Z</time>
      </trkpt>
      <trkpt lat="43.52155" lon="1.3152">
        <ele>167.4</ele>
        <time>2024-07-30T09:05:05Z</time>
      </trkpt>
      <trkpt lat="43.52161" lon="1.31513">
        <ele>167.4</ele>
        <time>2024-07-30T09:05:06Z</time>
      </trkpt>
      <trkpt lat="43.52166" lon="1.31508">
        <ele>167.4</ele>
        <time>2024-07-30T09:05:07Z</time>
      </trkpt>
      <trkpt lat="43.52171" lon="1.31502">
        <ele>167.6</ele>
        <time>2024-07-30T09:05:08Z</time>
      </trkpt>
      <trkpt lat="43.52177" lon="1.31497">
        <ele>167.8</ele>
        <time>2024-07-30T09:05:09Z</time>
      </trkpt>
      <trkpt lat="43.52183" lon="1.31491">
        <ele>168</ele>
        <time>2024-07-30T09:05:10Z</time>
      </trkpt>
      <trkpt lat="43.52189" lon="1.31485">
        <ele>168.2</ele>
        <time>2024-07-30T09:05:11Z</time>
      </trkpt>
      <trkpt lat="43.52196" lon="1.31479">
        <ele>168.4</ele>
        <time>2024-07-30T09:05:12Z</time>
      </trkpt>
      <trkpt lat="43.522" lon="1.31474">
        <ele>168.6</ele>
        <time>2024-07-30T09:05:13Z</time>
      </trkpt>
      <trkpt lat="43.52207" lon="1.31468">
        <ele>168.6</ele>
        <time>2024-07-30T09:05:14Z</time>
      </trkpt>
      <trkpt lat="43.52213" lon="1.31462">
        <ele>168.8</ele>
        <time>2024-07-30T09:05:15Z</time>
      </trkpt>
      <trkpt lat="43.52219" lon="1.31456">
        <ele>168.6</ele>
        <time>2024-07-30T09:05:16Z</time>
      </trkpt>
      <trkpt lat="43.52225" lon="1.3145">
        <ele>168.6</ele>
        <time>2024-07-30T09:05:17Z</time>
      </trkpt>
      <trkpt lat="43.52232" lon="1.31444">
        <ele>168.6</ele>
        <time>2024-07-30T09:05:18Z</time>
      </trkpt>
      <trkpt lat="43.52238" lon="1.31437">
        <ele>168.4</ele>
        <time>2024-07-30T09:05:19Z</time>
      </trkpt>
      <trkpt lat="43.52245" lon="1.3143">
        <ele>168.4</ele>
        <time>2024-07-30T09:05:20Z</time>
      </trkpt>
      <trkpt lat="43.5225" lon="1.31425">
        <ele>168.2</ele>
        <time>2024-07-30T09:05:21Z</time>
      </trkpt>
      <trkpt lat="43.52258" lon="1.31417">
        <ele>168.2</ele>
        <time>2024-07-30T09:05:22Z</time>
      </trkpt>
      <trkpt lat="43.52263" lon="1.31412">
        <ele>168</ele>
        <time>2024-07-30T09:05:23Z</time>
      </trkpt>
      <trkpt lat="43.52269" lon="1.31406">
        <ele>168</ele>
        <time>2024-07-30T09:05:24Z</time>
      </trkpt>
      <trkpt lat="43.52275" lon="1.314">
        <ele>167.8</ele>
        <time>2024-07-30T09:05:25Z</time>
      </trkpt>
      <trkpt lat="43.52281" lon="1.31394">
        <ele>167.8</ele>
        <time>2024-07-30T09:05:26Z</time>
      </trkpt>
      <trkpt lat="43.52287" lon="1.31388">
        <ele>167.8</ele>
        <time>2024-07-30T09:05:27Z</time>
      </trkpt>
      <trkpt lat="43.52293" lon="1.31381">
        <ele>167.8</ele>
        <time>2024-07-30T09:05:28Z</time>
      </trkpt>
      <trkpt lat="43.52299" lon="1.31375">
        <ele>167.6</ele>
        <time>2024-07-30T09:05:29Z</time>
      </trkpt>
      <trkpt lat="43.52305" lon="1.31368">
        <ele>167.6</ele>
        <time>2024-07-30T09:05:30Z</time>
      </trkpt>
      <trkpt lat="43.52311" lon="1.31362">
        <ele>167.6</ele>
        <time>2024-07-30T09:05:31Z</time>
      </trkpt>
      <trkpt lat="43.52317" lon="1.31355">
        <ele>167.6</ele>
        <time>2024-07-30T09:05:32Z</time>
      </trkpt>
      <trkpt lat="43.52323" lon="1.31349">
        <ele>167.6</ele>
        <time>2024-07-30T09:05:33Z</time>
      </trkpt>
      <trkpt lat="43.52328" lon="1.31343">
        <ele>167.4</ele>
        <time>2024-07-30T09:05:34Z</time>
      </trkpt>
      <trkpt lat="43.52334" lon="1.31336">
        <ele>167.4</ele>
        <time>2024-07-30T09:05:35Z</time>
      </trkpt>
      <trkpt lat="43.5234" lon="1.3133">
        <ele>167.4</ele>
        <time>2024-07-30T09:05:36Z</time>
      </trkpt>
      <trkpt lat="43.52345" lon="1.31323">
        <ele>167.4</ele>
        <time>2024-07-30T09:05:37Z</time>
      </trkpt>
      <trkpt lat="43.52351" lon="1.31317">
        <ele>167.2</ele>
        <time>2024-07-30T09:05:38Z</time>
      </trkpt>
      <trkpt lat="43.52357" lon="1.31311">
        <ele>167.2</ele>
        <time>2024-07-30T09:05:39Z</time>
      </trkpt>
      <trkpt lat="43.52363" lon="1.31303">
        <ele>167.2</ele>
        <time>2024-07-30T09:05:40Z</time>
      </trkpt>
      <trkpt lat="43.52368" lon="1.31298">
        <ele>167.2</ele>
        <time>2024-07-30T09:05:41Z</time>
      </trkpt>
      <trkpt lat="43.52374" lon="1.31292">
        <ele>167</ele>
        <time>2024-07-30T09:05:42Z</time>
      </trkpt>
      <trkpt lat="43.52379" lon="1.31286">
        <ele>167</ele>
        <time>2024-07-30T09:05:43Z</time>
      </trkpt>
      <trkpt lat="43.52385" lon="1.3128">
        <ele>167</ele>
        <time>2024-07-30T09:05:44Z</time>
      </trkpt>
      <trkpt lat="43.52391" lon="1.31274">
        <ele>167</ele>
        <time>2024-07-30T09:05:45Z</time>
      </trkpt>
      <trkpt lat="43.52397" lon="1.31269">
        <ele>167</ele>
        <time>2024-07-30T09:05:46Z</time>
      </trkpt>
      <trkpt lat="43.52404" lon="1.31263">
        <ele>167</ele>
        <time>2024-07-30T09:05:47Z</time>
      </trkpt>
      <trkpt lat="43.5241" lon="1.31258">
        <ele>167</ele>
        <time>2024-07-30T09:05:48Z</time>
      </trkpt>
      <trkpt lat="43.52419" lon="1.31253">
        <ele>167</ele>
        <time>2024-07-30T09:05:49Z</time>
      </trkpt>
      <trkpt lat="43.52426" lon="1.31248">
        <ele>167</ele>
        <time>2024-07-30T09:05:50Z</time>
      </trkpt>
      <trkpt lat="43.52431" lon="1.31245">
        <ele>167</ele>
        <time>2024-07-30T09:05:51Z</time>
      </trkpt>
      <trkpt lat="43.52439" lon="1.31241">
        <ele>166.8</ele>
        <time>2024-07-30T09:05:52Z</time>
      </trkpt>
      <trkpt lat="43.52446" lon="1.31237">
        <ele>166.8</ele>
        <time>2024-07-30T09:05:53Z</time>
      </trkpt>
      <trkpt lat="43.52455" lon="1.31232">
        <ele>166.8</ele>
        <time>2024-07-30T09:05:54Z</time>
      </trkpt>
      <trkpt lat="43.52461" lon="1.31229">
        <ele>166.8</ele>
        <time>2024-07-30T09:05:55Z</time>
      </trkpt>
      <trkpt lat="43.52469" lon="1.31226">
        <ele>166.8</ele>
        <time>2024-07-30T09:05:56Z</time>
      </trkpt>
      <trkpt lat="43.52476" lon="1.31223">
        <ele>166.6</ele>
        <time>2024-07-30T09:05:57Z</time>
      </trkpt>
      <trkpt lat="43.52484" lon="1.31219">
        <ele>166.6</ele>
        <time>2024-07-30T09:05:58Z</time>
      </trkpt>
      <trkpt lat="43.52491" lon="1.31215">
        <ele>166.8</ele>
        <time>2024-07-30T09:05:59Z</time>
      </trkpt>
      <trkpt lat="43.52498" lon="1.31212">
        <ele>166.6</ele>
        <time>2024-07-30T09:06:00Z</time>
      </trkpt>
      <trkpt lat="43.52506" lon="1.31208">
        <ele>166.6</ele>
        <time>2024-07-30T09:06:01Z</time>
      </trkpt>
      <trkpt lat="43.52513" lon="1.31204">
        <ele>166.4</ele>
        <time>2024-07-30T09:06:02Z</time>
      </trkpt>
      <trkpt lat="43.5252" lon="1.312">
        <ele>166.4</ele>
        <time>2024-07-30T09:06:03Z</time>
      </trkpt>
      <trkpt lat="43.52529" lon="1.31195">
        <ele>166.4</ele>
        <time>2024-07-30T09:06:04Z</time>
      </trkpt>
      <trkpt lat="43.52534" lon="1.31191">
        <ele>166.2</ele>
        <time>2024-07-30T09:06:05Z</time>
      </trkpt>
      <trkpt lat="43.52541" lon="1.31186">
        <ele>166.2</ele>
        <time>2024-07-30T09:06:06Z</time>
      </trkpt>
      <trkpt lat="43.52547" lon="1.31181">
        <ele>166.2</ele>
        <time>2024-07-30T09:06:07Z</time>
      </trkpt>
      <trkpt lat="43.52556" lon="1.31176">
        <ele>166.2</ele>
        <time>2024-07-30T09:06:08Z</time>
      </trkpt>
      <trkpt lat="43.52562" lon="1.31175">
        <ele>166.2</ele>
        <time>2024-07-30T09:06:09Z</time>
      </trkpt>
      <trkpt lat="43.52569" lon="1.31173">
        <ele>166.2</ele>
        <time>2024-07-30T09:06:10Z</time>
      </trkpt>
      <trkpt lat="43.52578" lon="1.31172">
        <ele>166.2</ele>
        <time>2024-07-30T09:06:11Z</time>
      </trkpt>
      <trkpt lat="43.52584" lon="1.3117">
        <ele>166.2</ele>
        <time>2024-07-30T09:06:12Z</time>
      </trkpt>
      <trkpt lat="43.5259" lon="1.31165">
        <ele>166.2</ele>
        <time>2024-07-30T09:06:13Z</time>
      </trkpt>
      <trkpt lat="43.52596" lon="1.31159">
        <ele>166</ele>
        <time>2024-07-30T09:06:14Z</time>
      </trkpt>
      <trkpt lat="43.52602" lon="1.31153">
        <ele>166</ele>
        <time>2024-07-30T09:06:15Z</time>
      </trkpt>
      <trkpt lat="43.52609" lon="1.31149">
        <ele>166.4</ele>
        <time>2024-07-30T09:06:16Z</time>
      </trkpt>
      <trkpt lat="43.52617" lon="1.31144">
        <ele>166.4</ele>
        <time>2024-07-30T09:06:17Z</time>
      </trkpt>
      <trkpt lat="43.52623" lon="1.31142">
        <ele>166.4</ele>
        <time>2024-07-30T09:06:18Z</time>
      </trkpt>
      <trkpt lat="43.5263" lon="1.31139">
        <ele>166.2</ele>
        <time>2024-07-30T09:06:19Z</time>
      </trkpt>
      <trkpt lat="43.52637" lon="1.31136">
        <ele>166.2</ele>
        <time>2024-07-30T09:06:20Z</time>
      </trkpt>
      <trkpt lat="43.52644" lon="1.31132">
        <ele>166.2</ele>
        <time>2024-07-30T09:06:21Z</time>
      </trkpt>
      <trkpt lat="43.52653" lon="1.31128">
        <ele>166.2</ele>
        <time>2024-07-30T09:06:22Z</time>
      </trkpt>
      <trkpt lat="43.52658" lon="1.31125">
        <ele>166.2</ele>
        <time>2024-07-30T09:06:23Z</time>
      </trkpt>
      <trkpt lat="43.52665" lon="1.31121">
        <ele>166</ele>
        <time>2024-07-30T09:06:24Z</time>
      </trkpt>
      <trkpt lat="43.52673" lon="1.31115">
        <ele>166</ele>
        <time>2024-07-30T09:06:25Z</time>
      </trkpt>
      <trkpt lat="43.52679" lon="1.3111">
        <ele>166.2</ele>
        <time>2024-07-30T09:06:26Z</time>
      </trkpt>
      <trkpt lat="43.52684" lon="1.31105">
        <ele>166.4</ele>
        <time>2024-07-30T09:06:27Z</time>
      </trkpt>
      <trkpt lat="43.52691" lon="1.311">
        <ele>166.4</ele>
        <time>2024-07-30T09:06:28Z</time>
      </trkpt>
      <trkpt lat="43.52697" lon="1.31095">
        <ele>166.4</ele>
        <time>2024-07-30T09:06:29Z</time>
      </trkpt>
      <trkpt lat="43.52705" lon="1.31089">
        <ele>166.4</ele>
        <time>2024-07-30T09:06:30Z</time>
      </trkpt>
      <trkpt lat="43.52712" lon="1.31084">
        <ele>166.4</ele>
        <time>2024-07-30T09:06:31Z</time>
      </trkpt>
      <trkpt lat="43.52717" lon="1.3108">
        <ele>166.4</ele>
        <time>2024-07-30T09:06:32Z</time>
      </trkpt>
      <trkpt lat="43.52723" lon="1.31075">
        <ele>166.4</ele>
        <time>2024-07-30T09:06:33Z</time>
      </trkpt>
      <trkpt lat="43.5273" lon="1.3107">
        <ele>166.4</ele>
        <time>2024-07-30T09:06:34Z</time>
      </trkpt>
      <trkpt lat="43.52737" lon="1.31064">
        <ele>166.4</ele>
        <time>2024-07-30T09:06:35Z</time>
      </trkpt>
      <trkpt lat="43.52742" lon="1.31059">
        <ele>166.4</ele>
        <time>2024-07-30T09:06:36Z</time>
      </trkpt>
      <trkpt lat="43.52749" lon="1.31054">
        <ele>166.4</ele>
        <time>2024-07-30T09:06:37Z</time>
      </trkpt>
      <trkpt lat="43.52756" lon="1.31049">
        <ele>166.4</ele>
        <time>2024-07-30T09:06:38Z</time>
      </trkpt>
      <trkpt lat="43.52762" lon="1.31044">
        <ele>166.4</ele>
        <time>2024-07-30T09:06:39Z</time>
      </trkpt>
      <trkpt lat="43.52769" lon="1.31039">
        <ele>166.2</ele>
        <time>2024-07-30T09:06:40Z</time>
      </trkpt>
      <trkpt lat="43.52775" lon="1.31033">
        <ele>166.4</ele>
        <time>2024-07-30T09:06:41Z</time>
      </trkpt>
      <trkpt lat="43.52782" lon="1.31028">
        <ele>166.4</ele>
        <time>2024-07-30T09:06:42Z</time>
      </trkpt>
      <trkpt lat="43.52788" lon="1.31023">
        <ele>166.2</ele>
        <time>2024-07-30T09:06:43Z</time>
      </trkpt>
      <trkpt lat="43.52795" lon="1.31017">
        <ele>166.2</ele>
        <time>2024-07-30T09:06:44Z</time>
      </trkpt>
      <trkpt lat="43.52802" lon="1.31012">
        <ele>166.2</ele>
        <time>2024-07-30T09:06:45Z</time>
      </trkpt>
      <trkpt lat="43.52808" lon="1.31006">
        <ele>166.2</ele>
        <time>2024-07-30T09:06:46Z</time>
      </trkpt>
      <trkpt lat="43.52815" lon="1.31001">
        <ele>166.2</ele>
        <time>2024-07-30T09:06:47Z</time>
      </trkpt>
      <trkpt lat="43.52821" lon="1.30996">
        <ele>166.2</ele>
        <time>2024-07-30T09:06:48Z</time>
      </trkpt>
      <trkpt lat="43.52829" lon="1.30989">
        <ele>166.2</ele>
        <time>2024-07-30T09:06:49Z</time>
      </trkpt>
      <trkpt lat="43.52836" lon="1.30984">
        <ele>166.2</ele>
        <time>2024-07-30T09:06:50Z</time>
      </trkpt>
      <trkpt lat="43.52843" lon="1.30979">
        <ele>166.2</ele>
        <time>2024-07-30T09:06:51Z</time>
      </trkpt>
      <trkpt lat="43.52848" lon="1.30975">
        <ele>166.2</ele>
        <time>2024-07-30T09:06:52Z</time>
      </trkpt>
      <trkpt lat="43.52855" lon="1.3097">
        <ele>166.2</ele>
        <time>2024-07-30T09:06:53Z</time>
      </trkpt>
      <trkpt lat="43.52863" lon="1.30963">
        <ele>166.2</ele>
        <time>2024-07-30T09:06:54Z</time>
      </trkpt>
      <trkpt lat="43.5287" lon="1.30958">
        <ele>166.2</ele>
        <time>2024-07-30T09:06:55Z</time>
      </trkpt>
      <trkpt lat="43.52877" lon="1.30953">
        <ele>166.2</ele>
        <time>2024-07-30T09:06:56Z</time>
      </trkpt>
      <trkpt lat="43.52882" lon="1.30948">
        <ele>166</ele>
        <time>2024-07-30T09:06:57Z</time>
      </trkpt>
      <trkpt lat="43.52889" lon="1.30943">
        <ele>166</ele>
        <time>2024-07-30T09:06:58Z</time>
      </trkpt>
      <trkpt lat="43.52896" lon="1.30938">
        <ele>166</ele>
        <time>2024-07-30T09:06:59Z</time>
      </trkpt>
      <trkpt lat="43.52903" lon="1.30932">
        <ele>166</ele>
        <time>2024-07-30T09:07:00Z</time>
      </trkpt>
      <trkpt lat="43.5291" lon="1.30927">
        <ele>166</ele>
        <time>2024-07-30T09:07:01Z</time>
      </trkpt>
      <trkpt lat="43.52917" lon="1.30922">
        <ele>166</ele>
        <time>2024-07-30T09:07:02Z</time>
      </trkpt>
      <trkpt lat="43.52923" lon="1.30916">
        <ele>166</ele>
        <time>2024-07-30T09:07:03Z</time>
      </trkpt>
      <trkpt lat="43.52932" lon="1.3091">
        <ele>166</ele>
        <time>2024-07-30T09:07:04Z</time>
      </trkpt>
      <trkpt lat="43.52937" lon="1.30905">
        <ele>166</ele>
        <time>2024-07-30T09:07:05Z</time>
      </trkpt>
      <trkpt lat="43.52944" lon="1.309">
        <ele>166</ele>
        <time>2024-07-30T09:07:06Z</time>
      </trkpt>
      <trkpt lat="43.52951" lon="1.30894">
        <ele>166</ele>
        <time>2024-07-30T09:07:07Z</time>
      </trkpt>
      <trkpt lat="43.52959" lon="1.30888">
        <ele>166</ele>
        <time>2024-07-30T09:07:08Z</time>
      </trkpt>
      <trkpt lat="43.52966" lon="1.30883">
        <ele>166</ele>
        <time>2024-07-30T09:07:09Z</time>
      </trkpt>
      <trkpt lat="43.52973" lon="1.30877">
        <ele>166</ele>
        <time>2024-07-30T09:07:10Z</time>
      </trkpt>
      <trkpt lat="43.52978" lon="1.30873">
        <ele>166</ele>
        <time>2024-07-30T09:07:11Z</time>
      </trkpt>
      <trkpt lat="43.52985" lon="1.30868">
        <ele>166</ele>
        <time>2024-07-30T09:07:12Z</time>
      </trkpt>
      <trkpt lat="43.52992" lon="1.30862">
        <ele>166</ele>
        <time>2024-07-30T09:07:13Z</time>
      </trkpt>
      <trkpt lat="43.53" lon="1.30856">
        <ele>166</ele>
        <time>2024-07-30T09:07:14Z</time>
      </trkpt>
      <trkpt lat="43.53006" lon="1.30852">
        <ele>166</ele>
        <time>2024-07-30T09:07:15Z</time>
      </trkpt>
      <trkpt lat="43.53012" lon="1.30847">
        <ele>166</ele>
        <time>2024-07-30T09:07:16Z</time>
      </trkpt>
      <trkpt lat="43.53021" lon="1.30841">
        <ele>165.8</ele>
        <time>2024-07-30T09:07:17Z</time>
      </trkpt>
      <trkpt lat="43.53027" lon="1.30836">
        <ele>165.8</ele>
        <time>2024-07-30T09:07:18Z</time>
      </trkpt>
      <trkpt lat="43.53034" lon="1.30831">
        <ele>165.6</ele>
        <time>2024-07-30T09:07:19Z</time>
      </trkpt>
      <trkpt lat="43.5304" lon="1.30827">
        <ele>165.6</ele>
        <time>2024-07-30T09:07:20Z</time>
      </trkpt>
      <trkpt lat="43.53047" lon="1.30823">
        <ele>165.6</ele>
        <time>2024-07-30T09:07:21Z</time>
      </trkpt>
      <trkpt lat="43.53054" lon="1.30818">
        <ele>165.4</ele>
        <time>2024-07-30T09:07:22Z</time>
      </trkpt>
      <trkpt lat="43.5306" lon="1.30814">
        <ele>165.4</ele>
        <time>2024-07-30T09:07:23Z</time>
      </trkpt>
      <trkpt lat="43.53069" lon="1.30808">
        <ele>165.4</ele>
        <time>2024-07-30T09:07:24Z</time>
      </trkpt>
      <trkpt lat="43.53075" lon="1.30805">
        <ele>165.6</ele>
        <time>2024-07-30T09:07:25Z</time>
      </trkpt>
      <trkpt lat="43.53082" lon="1.30801">
        <ele>165.6</ele>
        <time>2024-07-30T09:07:26Z</time>
      </trkpt>
      <trkpt lat="43.53089" lon="1.30796">
        <ele>165.6</ele>
        <time>2024-07-30T09:07:27Z</time>
      </trkpt>
      <trkpt lat="43.53097" lon="1.30791">
        <ele>165.6</ele>
        <time>2024-07-30T09:07:28Z</time>
      </trkpt>
      <trkpt lat="43.53103" lon="1.30788">
        <ele>165.6</ele>
        <time>2024-07-30T09:07:29Z</time>
      </trkpt>
      <trkpt lat="43.5311" lon="1.30784">
        <ele>165.6</ele>
        <time>2024-07-30T09:07:30Z</time>
      </trkpt>
      <trkpt lat="43.53119" lon="1.30779">
        <ele>165.6</ele>
        <time>2024-07-30T09:07:31Z</time>
      </trkpt>
      <trkpt lat="43.53126" lon="1.30775">
        <ele>165.6</ele>
        <time>2024-07-30T09:07:32Z</time>
      </trkpt>
      <trkpt lat="43.53133" lon="1.30771">
        <ele>165.6</ele>
        <time>2024-07-30T09:07:33Z</time>
      </trkpt>
      <trkpt lat="43.53139" lon="1.30767">
        <ele>165.6</ele>
        <time>2024-07-30T09:07:34Z</time>
      </trkpt>
      <trkpt lat="43.53146" lon="1.30763">
        <ele>165.8</ele>
        <time>2024-07-30T09:07:35Z</time>
      </trkpt>
      <trkpt lat="43.53153" lon="1.30759">
        <ele>165.8</ele>
        <time>2024-07-30T09:07:36Z</time>
      </trkpt>
      <trkpt lat="43.53162" lon="1.30753">
        <ele>165.8</ele>
        <time>2024-07-30T09:07:37Z</time>
      </trkpt>
      <trkpt lat="43.53162" lon="1.30753">
        <ele>165.8</ele>
        <time>2024-07-30T09:07:38Z</time>
      </trkpt>
      <trkpt lat="43.53175" lon="1.30746">
        <ele>165.8</ele>
        <time>2024-07-30T09:07:39Z</time>
      </trkpt>
      <trkpt lat="43.53184" lon="1.3074">
        <ele>165.8</ele>
        <time>2024-07-30T09:07:40Z</time>
      </trkpt>
      <trkpt lat="43.53191" lon="1.30736">
        <ele>165.8</ele>
        <time>2024-07-30T09:07:41Z</time>
      </trkpt>
      <trkpt lat="43.53197" lon="1.30732">
        <ele>165.8</ele>
        <time>2024-07-30T09:07:42Z</time>
      </trkpt>
      <trkpt lat="43.53204" lon="1.30727">
        <ele>165.8</ele>
        <time>2024-07-30T09:07:43Z</time>
      </trkpt>
      <trkpt lat="43.53211" lon="1.30722">
        <ele>165.8</ele>
        <time>2024-07-30T09:07:44Z</time>
      </trkpt>
      <trkpt lat="43.53219" lon="1.30715">
        <ele>165.8</ele>
        <time>2024-07-30T09:07:45Z</time>
      </trkpt>
      <trkpt lat="43.53226" lon="1.30709">
        <ele>165.8</ele>
        <time>2024-07-30T09:07:46Z</time>
      </trkpt>
      <trkpt lat="43.53232" lon="1.30704">
        <ele>165.8</ele>
        <time>2024-07-30T09:07:47Z</time>
      </trkpt>
      <trkpt lat="43.53237" lon="1.30699">
        <ele>166</ele>
        <time>2024-07-30T09:07:48Z</time>
      </trkpt>
      <trkpt lat="43.53244" lon="1.30694">
        <ele>166</ele>
        <time>2024-07-30T09:07:49Z</time>
      </trkpt>
      <trkpt lat="43.53253" lon="1.30688">
        <ele>166</ele>
        <time>2024-07-30T09:07:50Z</time>
      </trkpt>
      <trkpt lat="43.5326" lon="1.30684">
        <ele>166</ele>
        <time>2024-07-30T09:07:51Z</time>
      </trkpt>
      <trkpt lat="43.53266" lon="1.30681">
        <ele>166</ele>
        <time>2024-07-30T09:07:52Z</time>
      </trkpt>
      <trkpt lat="43.53273" lon="1.30677">
        <ele>166</ele>
        <time>2024-07-30T09:07:53Z</time>
      </trkpt>
      <trkpt lat="43.53282" lon="1.30673">
        <ele>166</ele>
        <time>2024-07-30T09:07:54Z</time>
      </trkpt>
      <trkpt lat="43.53289" lon="1.3067">
        <ele>166.2</ele>
        <time>2024-07-30T09:07:55Z</time>
      </trkpt>
      <trkpt lat="43.53297" lon="1.30667">
        <ele>166.4</ele>
        <time>2024-07-30T09:07:56Z</time>
      </trkpt>
      <trkpt lat="43.53303" lon="1.30665">
        <ele>166.4</ele>
        <time>2024-07-30T09:07:57Z</time>
      </trkpt>
      <trkpt lat="43.53311" lon="1.30662">
        <ele>166.6</ele>
        <time>2024-07-30T09:07:58Z</time>
      </trkpt>
      <trkpt lat="43.5332" lon="1.30659">
        <ele>166.6</ele>
        <time>2024-07-30T09:07:59Z</time>
      </trkpt>
      <trkpt lat="43.53327" lon="1.30656">
        <ele>166.6</ele>
        <time>2024-07-30T09:08:00Z</time>
      </trkpt>
      <trkpt lat="43.53333" lon="1.30654">
        <ele>166.6</ele>
        <time>2024-07-30T09:08:01Z</time>
      </trkpt>
      <trkpt lat="43.53341" lon="1.30651">
        <ele>166.4</ele>
        <time>2024-07-30T09:08:02Z</time>
      </trkpt>
      <trkpt lat="43.5335" lon="1.30648">
        <ele>166.4</ele>
        <time>2024-07-30T09:08:03Z</time>
      </trkpt>
      <trkpt lat="43.53356" lon="1.30645">
        <ele>166.4</ele>
        <time>2024-07-30T09:08:04Z</time>
      </trkpt>
      <trkpt lat="43.53364" lon="1.30642">
        <ele>166.6</ele>
        <time>2024-07-30T09:08:05Z</time>
      </trkpt>
      <trkpt lat="43.53371" lon="1.30638">
        <ele>166.6</ele>
        <time>2024-07-30T09:08:06Z</time>
      </trkpt>
      <trkpt lat="43.53379" lon="1.30634">
        <ele>166.6</ele>
        <time>2024-07-30T09:08:07Z</time>
      </trkpt>
      <trkpt lat="43.53387" lon="1.30629">
        <ele>166.4</ele>
        <time>2024-07-30T09:08:08Z</time>
      </trkpt>
      <trkpt lat="43.53394" lon="1.30624">
        <ele>166.4</ele>
        <time>2024-07-30T09:08:09Z</time>
      </trkpt>
      <trkpt lat="43.53402" lon="1.3062">
        <ele>166.4</ele>
        <time>2024-07-30T09:08:10Z</time>
      </trkpt>
      <trkpt lat="43.53407" lon="1.30616">
        <ele>166.4</ele>
        <time>2024-07-30T09:08:11Z</time>
      </trkpt>
      <trkpt lat="43.53414" lon="1.30611">
        <ele>166.4</ele>
        <time>2024-07-30T09:08:12Z</time>
      </trkpt>
      <trkpt lat="43.53421" lon="1.30606">
        <ele>166.4</ele>
        <time>2024-07-30T09:08:13Z</time>
      </trkpt>
      <trkpt lat="43.53429" lon="1.306">
        <ele>166.6</ele>
        <time>2024-07-30T09:08:14Z</time>
      </trkpt>
      <trkpt lat="43.53435" lon="1.30596">
        <ele>166.6</ele>
        <time>2024-07-30T09:08:15Z</time>
      </trkpt>
      <trkpt lat="43.53442" lon="1.30592">
        <ele>166.6</ele>
        <time>2024-07-30T09:08:16Z</time>
      </trkpt>
      <trkpt lat="43.5345" lon="1.30586">
        <ele>166.6</ele>
        <time>2024-07-30T09:08:17Z</time>
      </trkpt>
      <trkpt lat="43.53457" lon="1.30581">
        <ele>166.6</ele>
        <time>2024-07-30T09:08:18Z</time>
      </trkpt>
      <trkpt lat="43.53464" lon="1.30577">
        <ele>166.4</ele>
        <time>2024-07-30T09:08:19Z</time>
      </trkpt>
      <trkpt lat="43.53469" lon="1.30573">
        <ele>166.4</ele>
        <time>2024-07-30T09:08:20Z</time>
      </trkpt>
      <trkpt lat="43.53476" lon="1.30568">
        <ele>166.4</ele>
        <time>2024-07-30T09:08:21Z</time>
      </trkpt>
      <trkpt lat="43.53484" lon="1.30562">
        <ele>166.4</ele>
        <time>2024-07-30T09:08:22Z</time>
      </trkpt>
      <trkpt lat="43.53491" lon="1.30557">
        <ele>166.2</ele>
        <time>2024-07-30T09:08:23Z</time>
      </trkpt>
      <trkpt lat="43.53496" lon="1.30554">
        <ele>166.2</ele>
        <time>2024-07-30T09:08:24Z</time>
      </trkpt>
      <trkpt lat="43.53503" lon="1.30549">
        <ele>166.2</ele>
        <time>2024-07-30T09:08:25Z</time>
      </trkpt>
      <trkpt lat="43.53511" lon="1.30543">
        <ele>166</ele>
        <time>2024-07-30T09:08:26Z</time>
      </trkpt>
      <trkpt lat="43.53517" lon="1.30539">
        <ele>166</ele>
        <time>2024-07-30T09:08:27Z</time>
      </trkpt>
      <trkpt lat="43.53525" lon="1.30534">
        <ele>166</ele>
        <time>2024-07-30T09:08:28Z</time>
      </trkpt>
      <trkpt lat="43.5353" lon="1.3053">
        <ele>166.2</ele>
        <time>2024-07-30T09:08:29Z</time>
      </trkpt>
      <trkpt lat="43.53537" lon="1.30525">
        <ele>166.2</ele>
        <time>2024-07-30T09:08:30Z</time>
      </trkpt>
      <trkpt lat="43.53545" lon="1.30519">
        <ele>166.4</ele>
        <time>2024-07-30T09:08:31Z</time>
      </trkpt>
      <trkpt lat="43.53552" lon="1.30515">
        <ele>166.4</ele>
        <time>2024-07-30T09:08:32Z</time>
      </trkpt>
      <trkpt lat="43.53559" lon="1.3051">
        <ele>166.4</ele>
        <time>2024-07-30T09:08:33Z</time>
      </trkpt>
      <trkpt lat="43.53564" lon="1.30506">
        <ele>166.6</ele>
        <time>2024-07-30T09:08:34Z</time>
      </trkpt>
      <trkpt lat="43.53571" lon="1.30501">
        <ele>166.6</ele>
        <time>2024-07-30T09:08:35Z</time>
      </trkpt>
      <trkpt lat="43.53579" lon="1.30495">
        <ele>166.8</ele>
        <time>2024-07-30T09:08:36Z</time>
      </trkpt>
      <trkpt lat="43.53586" lon="1.3049">
        <ele>166.8</ele>
        <time>2024-07-30T09:08:37Z</time>
      </trkpt>
      <trkpt lat="43.53591" lon="1.30485">
        <ele>166.8</ele>
        <time>2024-07-30T09:08:38Z</time>
      </trkpt>
      <trkpt lat="43.53597" lon="1.3048">
        <ele>166.8</ele>
        <time>2024-07-30T09:08:39Z</time>
      </trkpt>
      <trkpt lat="43.53605" lon="1.30473">
        <ele>166.8</ele>
        <time>2024-07-30T09:08:40Z</time>
      </trkpt>
      <trkpt lat="43.53611" lon="1.30466">
        <ele>166.8</ele>
        <time>2024-07-30T09:08:41Z</time>
      </trkpt>
      <trkpt lat="43.53617" lon="1.3046">
        <ele>167</ele>
        <time>2024-07-30T09:08:42Z</time>
      </trkpt>
      <trkpt lat="43.53621" lon="1.30455">
        <ele>167</ele>
        <time>2024-07-30T09:08:43Z</time>
      </trkpt>
      <trkpt lat="43.53627" lon="1.30448">
        <ele>167</ele>
        <time>2024-07-30T09:08:44Z</time>
      </trkpt>
      <trkpt lat="43.53633" lon="1.3044">
        <ele>167.2</ele>
        <time>2024-07-30T09:08:45Z</time>
      </trkpt>
      <trkpt lat="43.53639" lon="1.30431">
        <ele>167.2</ele>
        <time>2024-07-30T09:08:46Z</time>
      </trkpt>
      <trkpt lat="43.53643" lon="1.30425">
        <ele>167.2</ele>
        <time>2024-07-30T09:08:47Z</time>
      </trkpt>
      <trkpt lat="43.53648" lon="1.30417">
        <ele>167.4</ele>
        <time>2024-07-30T09:08:48Z</time>
      </trkpt>
      <trkpt lat="43.53654" lon="1.30407">
        <ele>167.4</ele>
        <time>2024-07-30T09:08:49Z</time>
      </trkpt>
      <trkpt lat="43.53659" lon="1.30399">
        <ele>167.6</ele>
        <time>2024-07-30T09:08:50Z</time>
      </trkpt>
      <trkpt lat="43.53662" lon="1.30392">
        <ele>167.6</ele>
        <time>2024-07-30T09:08:51Z</time>
      </trkpt>
      <trkpt lat="43.53667" lon="1.30383">
        <ele>167.6</ele>
        <time>2024-07-30T09:08:52Z</time>
      </trkpt>
      <trkpt lat="43.53671" lon="1.30374">
        <ele>167.6</ele>
        <time>2024-07-30T09:08:53Z</time>
      </trkpt>
      <trkpt lat="43.53676" lon="1.30366">
        <ele>167.6</ele>
        <time>2024-07-30T09:08:54Z</time>
      </trkpt>
      <trkpt lat="43.53682" lon="1.30355">
        <ele>167.6</ele>
        <time>2024-07-30T09:08:55Z</time>
      </trkpt>
      <trkpt lat="43.53686" lon="1.30346">
        <ele>167.6</ele>
        <time>2024-07-30T09:08:56Z</time>
      </trkpt>
      <trkpt lat="43.5369" lon="1.30339">
        <ele>167.6</ele>
        <time>2024-07-30T09:08:57Z</time>
      </trkpt>
      <trkpt lat="43.53695" lon="1.30331">
        <ele>167.6</ele>
        <time>2024-07-30T09:08:58Z</time>
      </trkpt>
      <trkpt lat="43.53701" lon="1.3032">
        <ele>167.6</ele>
        <time>2024-07-30T09:08:59Z</time>
      </trkpt>
      <trkpt lat="43.53706" lon="1.30311">
        <ele>167.6</ele>
        <time>2024-07-30T09:09:00Z</time>
      </trkpt>
      <trkpt lat="43.53711" lon="1.30303">
        <ele>167.6</ele>
        <time>2024-07-30T09:09:01Z</time>
      </trkpt>
      <trkpt lat="43.53715" lon="1.30297">
        <ele>167.6</ele>
        <time>2024-07-30T09:09:02Z</time>
      </trkpt>
      <trkpt lat="43.5372" lon="1.30288">
        <ele>167.6</ele>
        <time>2024-07-30T09:09:03Z</time>
      </trkpt>
      <trkpt lat="43.53726" lon="1.30279">
        <ele>167.6</ele>
        <time>2024-07-30T09:09:04Z</time>
      </trkpt>
      <trkpt lat="43.53732" lon="1.30271">
        <ele>167.6</ele>
        <time>2024-07-30T09:09:05Z</time>
      </trkpt>
      <trkpt lat="43.53737" lon="1.30265">
        <ele>167.6</ele>
        <time>2024-07-30T09:09:06Z</time>
      </trkpt>
      <trkpt lat="43.53742" lon="1.30257">
        <ele>167.6</ele>
        <time>2024-07-30T09:09:07Z</time>
      </trkpt>
      <trkpt lat="43.5375" lon="1.30248">
        <ele>167.6</ele>
        <time>2024-07-30T09:09:08Z</time>
      </trkpt>
      <trkpt lat="43.53756" lon="1.30241">
        <ele>167.6</ele>
        <time>2024-07-30T09:09:09Z</time>
      </trkpt>
      <trkpt lat="43.53763" lon="1.30235">
        <ele>167.6</ele>
        <time>2024-07-30T09:09:10Z</time>
      </trkpt>
      <trkpt lat="43.53768" lon="1.30229">
        <ele>167.4</ele>
        <time>2024-07-30T09:09:11Z</time>
      </trkpt>
      <trkpt lat="43.53774" lon="1.30223">
        <ele>167.4</ele>
        <time>2024-07-30T09:09:12Z</time>
      </trkpt>
      <trkpt lat="43.53782" lon="1.30216">
        <ele>167.4</ele>
        <time>2024-07-30T09:09:13Z</time>
      </trkpt>
      <trkpt lat="43.53789" lon="1.3021">
        <ele>167.2</ele>
        <time>2024-07-30T09:09:14Z</time>
      </trkpt>
      <trkpt lat="43.53796" lon="1.30205">
        <ele>167.2</ele>
        <time>2024-07-30T09:09:15Z</time>
      </trkpt>
      <trkpt lat="43.53801" lon="1.30201">
        <ele>167.2</ele>
        <time>2024-07-30T09:09:16Z</time>
      </trkpt>
      <trkpt lat="43.53808" lon="1.30196">
        <ele>167</ele>
        <time>2024-07-30T09:09:17Z</time>
      </trkpt>
      <trkpt lat="43.53817" lon="1.3019">
        <ele>167</ele>
        <time>2024-07-30T09:09:18Z</time>
      </trkpt>
      <trkpt lat="43.53824" lon="1.30185">
        <ele>167</ele>
        <time>2024-07-30T09:09:19Z</time>
      </trkpt>
      <trkpt lat="43.53829" lon="1.30181">
        <ele>167</ele>
        <time>2024-07-30T09:09:20Z</time>
      </trkpt>
      <trkpt lat="43.53836" lon="1.30176">
        <ele>167</ele>
        <time>2024-07-30T09:09:21Z</time>
      </trkpt>
      <trkpt lat="43.53845" lon="1.30171">
        <ele>167</ele>
        <time>2024-07-30T09:09:22Z</time>
      </trkpt>
      <trkpt lat="43.53852" lon="1.30166">
        <ele>167</ele>
        <time>2024-07-30T09:09:23Z</time>
      </trkpt>
      <trkpt lat="43.53859" lon="1.30161">
        <ele>166.8</ele>
        <time>2024-07-30T09:09:24Z</time>
      </trkpt>
      <trkpt lat="43.53865" lon="1.30157">
        <ele>166.8</ele>
        <time>2024-07-30T09:09:25Z</time>
      </trkpt>
      <trkpt lat="43.53872" lon="1.30152">
        <ele>166.8</ele>
        <time>2024-07-30T09:09:26Z</time>
      </trkpt>
      <trkpt lat="43.53879" lon="1.30148">
        <ele>166.8</ele>
        <time>2024-07-30T09:09:27Z</time>
      </trkpt>
      <trkpt lat="43.53887" lon="1.30142">
        <ele>166.8</ele>
        <time>2024-07-30T09:09:28Z</time>
      </trkpt>
      <trkpt lat="43.53893" lon="1.30138">
        <ele>166.8</ele>
        <time>2024-07-30T09:09:29Z</time>
      </trkpt>
      <trkpt lat="43.539" lon="1.30133">
        <ele>166.8</ele>
        <time>2024-07-30T09:09:30Z</time>
      </trkpt>
      <trkpt lat="43.53908" lon="1.30127">
        <ele>167</ele>
        <time>2024-07-30T09:09:31Z</time>
      </trkpt>
      <trkpt lat="43.53914" lon="1.30123">
        <ele>167</ele>
        <time>2024-07-30T09:09:32Z</time>
      </trkpt>
      <trkpt lat="43.53923" lon="1.30118">
        <ele>167</ele>
        <time>2024-07-30T09:09:33Z</time>
      </trkpt>
      <trkpt lat="43.53928" lon="1.30114">
        <ele>167</ele>
        <time>2024-07-30T09:09:34Z</time>
      </trkpt>
      <trkpt lat="43.53935" lon="1.30109">
        <ele>167</ele>
        <time>2024-07-30T09:09:35Z</time>
      </trkpt>
      <trkpt lat="43.53942" lon="1.30104">
        <ele>167</ele>
        <time>2024-07-30T09:09:36Z</time>
      </trkpt>
      <trkpt lat="43.5395" lon="1.30097">
        <ele>167</ele>
        <time>2024-07-30T09:09:37Z</time>
      </trkpt>
      <trkpt lat="43.53957" lon="1.30091">
        <ele>167.2</ele>
        <time>2024-07-30T09:09:38Z</time>
      </trkpt>
      <trkpt lat="43.53961" lon="1.30086">
        <ele>167.2</ele>
        <time>2024-07-30T09:09:39Z</time>
      </trkpt>
      <trkpt lat="43.53967" lon="1.30079">
        <ele>167.2</ele>
        <time>2024-07-30T09:09:40Z</time>
      </trkpt>
      <trkpt lat="43.53973" lon="1.3007">
        <ele>167.2</ele>
        <time>2024-07-30T09:09:41Z</time>
      </trkpt>
      <trkpt lat="43.53978" lon="1.30063">
        <ele>167.2</ele>
        <time>2024-07-30T09:09:42Z</time>
      </trkpt>
      <trkpt lat="43.53983" lon="1.30055">
        <ele>167.4</ele>
        <time>2024-07-30T09:09:43Z</time>
      </trkpt>
      <trkpt lat="43.53987" lon="1.30048">
        <ele>167.4</ele>
        <time>2024-07-30T09:09:44Z</time>
      </trkpt>
      <trkpt lat="43.53993" lon="1.30041">
        <ele>167.6</ele>
        <time>2024-07-30T09:09:45Z</time>
      </trkpt>
      <trkpt lat="43.53999" lon="1.30033">
        <ele>167.8</ele>
        <time>2024-07-30T09:09:46Z</time>
      </trkpt>
      <trkpt lat="43.54007" lon="1.30026">
        <ele>167.8</ele>
        <time>2024-07-30T09:09:47Z</time>
      </trkpt>
      <trkpt lat="43.54013" lon="1.30022">
        <ele>167.8</ele>
        <time>2024-07-30T09:09:48Z</time>
      </trkpt>
      <trkpt lat="43.5402" lon="1.30018">
        <ele>167.8</ele>
        <time>2024-07-30T09:09:49Z</time>
      </trkpt>
      <trkpt lat="43.5403" lon="1.30015">
        <ele>167.8</ele>
        <time>2024-07-30T09:09:50Z</time>
      </trkpt>
      <trkpt lat="43.54038" lon="1.30013">
        <ele>167.8</ele>
        <time>2024-07-30T09:09:51Z</time>
      </trkpt>
      <trkpt lat="43.54045" lon="1.30012">
        <ele>167.8</ele>
        <time>2024-07-30T09:09:52Z</time>
      </trkpt>
      <trkpt lat="43.54052" lon="1.30011">
        <ele>167.8</ele>
        <time>2024-07-30T09:09:53Z</time>
      </trkpt>
      <trkpt lat="43.5406" lon="1.3001">
        <ele>167.8</ele>
        <time>2024-07-30T09:09:54Z</time>
      </trkpt>
      <trkpt lat="43.54069" lon="1.30009">
        <ele>167.6</ele>
        <time>2024-07-30T09:09:55Z</time>
      </trkpt>
      <trkpt lat="43.54077" lon="1.30008">
        <ele>167.6</ele>
        <time>2024-07-30T09:09:56Z</time>
      </trkpt>
      <trkpt lat="43.54085" lon="1.30007">
        <ele>167.6</ele>
        <time>2024-07-30T09:09:57Z</time>
      </trkpt>
      <trkpt lat="43.54092" lon="1.30007">
        <ele>167.4</ele>
        <time>2024-07-30T09:09:58Z</time>
      </trkpt>
      <trkpt lat="43.541" lon="1.30006">
        <ele>167.4</ele>
        <time>2024-07-30T09:09:59Z</time>
      </trkpt>
      <trkpt lat="43.54108" lon="1.30005">
        <ele>167.4</ele>
        <time>2024-07-30T09:10:00Z</time>
      </trkpt>
      <trkpt lat="43.54118" lon="1.30004">
        <ele>167.4</ele>
        <time>2024-07-30T09:10:01Z</time>
      </trkpt>
      <trkpt lat="43.54124" lon="1.30003">
        <ele>167.4</ele>
        <time>2024-07-30T09:10:02Z</time>
      </trkpt>
      <trkpt lat="43.54132" lon="1.30002">
        <ele>167.4</ele>
        <time>2024-07-30T09:10:03Z</time>
      </trkpt>
      <trkpt lat="43.54142" lon="1.30001">
        <ele>167.4</ele>
        <time>2024-07-30T09:10:04Z</time>
      </trkpt>
      <trkpt lat="43.54149" lon="1.29999">
        <ele>167.4</ele>
        <time>2024-07-30T09:10:05Z</time>
      </trkpt>
      <trkpt lat="43.54156" lon="1.29998">
        <ele>167.4</ele>
        <time>2024-07-30T09:10:06Z</time>
      </trkpt>
      <trkpt lat="43.54163" lon="1.29997">
        <ele>167.4</ele>
        <time>2024-07-30T09:10:07Z</time>
      </trkpt>
      <trkpt lat="43.54171" lon="1.29997">
        <ele>167.4</ele>
        <time>2024-07-30T09:10:08Z</time>
      </trkpt>
      <trkpt lat="43.54181" lon="1.29995">
        <ele>167.4</ele>
        <time>2024-07-30T09:10:09Z</time>
      </trkpt>
      <trkpt lat="43.54189" lon="1.29994">
        <ele>167.4</ele>
        <time>2024-07-30T09:10:10Z</time>
      </trkpt>
      <trkpt lat="43.54195" lon="1.29994">
        <ele>167.4</ele>
        <time>2024-07-30T09:10:11Z</time>
      </trkpt>
      <trkpt lat="43.54203" lon="1.29993">
        <ele>167.2</ele>
        <time>2024-07-30T09:10:12Z</time>
      </trkpt>
      <trkpt lat="43.54211" lon="1.29992">
        <ele>167.2</ele>
        <time>2024-07-30T09:10:13Z</time>
      </trkpt>
      <trkpt lat="43.5422" lon="1.2999">
        <ele>167.2</ele>
        <time>2024-07-30T09:10:14Z</time>
      </trkpt>
      <trkpt lat="43.54228" lon="1.2999">
        <ele>167.2</ele>
        <time>2024-07-30T09:10:15Z</time>
      </trkpt>
      <trkpt lat="43.54235" lon="1.29989">
        <ele>167.2</ele>
        <time>2024-07-30T09:10:16Z</time>
      </trkpt>
      <trkpt lat="43.54243" lon="1.29988">
        <ele>167.2</ele>
        <time>2024-07-30T09:10:17Z</time>
      </trkpt>
      <trkpt lat="43.54253" lon="1.29987">
        <ele>167</ele>
        <time>2024-07-30T09:10:18Z</time>
      </trkpt>
      <trkpt lat="43.54261" lon="1.29986">
        <ele>167</ele>
        <time>2024-07-30T09:10:19Z</time>
      </trkpt>
      <trkpt lat="43.54269" lon="1.29985">
        <ele>166.8</ele>
        <time>2024-07-30T09:10:20Z</time>
      </trkpt>
      <trkpt lat="43.54276" lon="1.29984">
        <ele>167</ele>
        <time>2024-07-30T09:10:21Z</time>
      </trkpt>
      <trkpt lat="43.54284" lon="1.29982">
        <ele>167</ele>
        <time>2024-07-30T09:10:22Z</time>
      </trkpt>
      <trkpt lat="43.54292" lon="1.29981">
        <ele>167</ele>
        <time>2024-07-30T09:10:23Z</time>
      </trkpt>
      <trkpt lat="43.54302" lon="1.29979">
        <ele>167</ele>
        <time>2024-07-30T09:10:24Z</time>
      </trkpt>
      <trkpt lat="43.54309" lon="1.29977">
        <ele>167</ele>
        <time>2024-07-30T09:10:25Z</time>
      </trkpt>
      <trkpt lat="43.5432" lon="1.29974">
        <ele>166.8</ele>
        <time>2024-07-30T09:10:26Z</time>
      </trkpt>
      <trkpt lat="43.54327" lon="1.29972">
        <ele>167</ele>
        <time>2024-07-30T09:10:27Z</time>
      </trkpt>
      <trkpt lat="43.54336" lon="1.2997">
        <ele>167</ele>
        <time>2024-07-30T09:10:28Z</time>
      </trkpt>
      <trkpt lat="43.54347" lon="1.29967">
        <ele>166.8</ele>
        <time>2024-07-30T09:10:29Z</time>
      </trkpt>
      <trkpt lat="43.54355" lon="1.29965">
        <ele>166.8</ele>
        <time>2024-07-30T09:10:30Z</time>
      </trkpt>
      <trkpt lat="43.54364" lon="1.29963">
        <ele>166.8</ele>
        <time>2024-07-30T09:10:31Z</time>
      </trkpt>
      <trkpt lat="43.54375" lon="1.2996">
        <ele>166.6</ele>
        <time>2024-07-30T09:10:32Z</time>
      </trkpt>
      <trkpt lat="43.54384" lon="1.29958">
        <ele>166.6</ele>
        <time>2024-07-30T09:10:33Z</time>
      </trkpt>
      <trkpt lat="43.54391" lon="1.29956">
        <ele>166.8</ele>
        <time>2024-07-30T09:10:34Z</time>
      </trkpt>
      <trkpt lat="43.544" lon="1.29954">
        <ele>166.8</ele>
        <time>2024-07-30T09:10:35Z</time>
      </trkpt>
      <trkpt lat="43.54409" lon="1.29952">
        <ele>166.6</ele>
        <time>2024-07-30T09:10:36Z</time>
      </trkpt>
      <trkpt lat="43.5442" lon="1.29949">
        <ele>166.6</ele>
        <time>2024-07-30T09:10:37Z</time>
      </trkpt>
      <trkpt lat="43.54429" lon="1.29947">
        <ele>166.6</ele>
        <time>2024-07-30T09:10:38Z</time>
      </trkpt>
      <trkpt lat="43.54436" lon="1.29946">
        <ele>166.6</ele>
        <time>2024-07-30T09:10:39Z</time>
      </trkpt>
      <trkpt lat="43.54445" lon="1.29944">
        <ele>166.6</ele>
        <time>2024-07-30T09:10:40Z</time>
      </trkpt>
      <trkpt lat="43.54456" lon="1.29941">
        <ele>166.6</ele>
        <time>2024-07-30T09:10:41Z</time>
      </trkpt>
      <trkpt lat="43.54466" lon="1.2994">
        <ele>166.6</ele>
        <time>2024-07-30T09:10:42Z</time>
      </trkpt>
      <trkpt lat="43.54475" lon="1.2994">
        <ele>166.6</ele>
        <time>2024-07-30T09:10:43Z</time>
      </trkpt>
      <trkpt lat="43.54482" lon="1.2994">
        <ele>166.6</ele>
        <time>2024-07-30T09:10:44Z</time>
      </trkpt>
      <trkpt lat="43.54492" lon="1.2994">
        <ele>166.6</ele>
        <time>2024-07-30T09:10:45Z</time>
      </trkpt>
      <trkpt lat="43.54503" lon="1.2994">
        <ele>166.6</ele>
        <time>2024-07-30T09:10:46Z</time>
      </trkpt>
      <trkpt lat="43.54513" lon="1.29941">
        <ele>166.4</ele>
        <time>2024-07-30T09:10:47Z</time>
      </trkpt>
      <trkpt lat="43.54523" lon="1.29941">
        <ele>166.4</ele>
        <time>2024-07-30T09:10:48Z</time>
      </trkpt>
      <trkpt lat="43.5453" lon="1.29942">
        <ele>166.4</ele>
        <time>2024-07-30T09:10:49Z</time>
      </trkpt>
      <trkpt lat="43.5454" lon="1.29942">
        <ele>166.4</ele>
        <time>2024-07-30T09:10:50Z</time>
      </trkpt>
      <trkpt lat="43.54549" lon="1.29943">
        <ele>166.4</ele>
        <time>2024-07-30T09:10:51Z</time>
      </trkpt>
      <trkpt lat="43.54561" lon="1.29943">
        <ele>166.4</ele>
        <time>2024-07-30T09:10:52Z</time>
      </trkpt>
      <trkpt lat="43.54568" lon="1.29944">
        <ele>166.4</ele>
        <time>2024-07-30T09:10:53Z</time>
      </trkpt>
      <trkpt lat="43.54578" lon="1.29944">
        <ele>166.4</ele>
        <time>2024-07-30T09:10:54Z</time>
      </trkpt>
      <trkpt lat="43.54589" lon="1.29945">
        <ele>166.4</ele>
        <time>2024-07-30T09:10:55Z</time>
      </trkpt>
      <trkpt lat="43.54598" lon="1.29946">
        <ele>166.4</ele>
        <time>2024-07-30T09:10:56Z</time>
      </trkpt>
      <trkpt lat="43.54606" lon="1.29946">
        <ele>166.2</ele>
        <time>2024-07-30T09:10:57Z</time>
      </trkpt>
      <trkpt lat="43.54616" lon="1.29947">
        <ele>166.2</ele>
        <time>2024-07-30T09:10:58Z</time>
      </trkpt>
      <trkpt lat="43.54625" lon="1.29949">
        <ele>166.2</ele>
        <time>2024-07-30T09:10:59Z</time>
      </trkpt>
      <trkpt lat="43.54635" lon="1.2995">
        <ele>166.4</ele>
        <time>2024-07-30T09:11:00Z</time>
      </trkpt>
      <trkpt lat="43.54644" lon="1.29951">
        <ele>166.4</ele>
        <time>2024-07-30T09:11:01Z</time>
      </trkpt>
      <trkpt lat="43.54655" lon="1.29953">
        <ele>166.4</ele>
        <time>2024-07-30T09:11:02Z</time>
      </trkpt>
      <trkpt lat="43.54662" lon="1.29953">
        <ele>166.4</ele>
        <time>2024-07-30T09:11:03Z</time>
      </trkpt>
      <trkpt lat="43.54671" lon="1.29954">
        <ele>166.4</ele>
        <time>2024-07-30T09:11:04Z</time>
      </trkpt>
      <trkpt lat="43.54682" lon="1.29955">
        <ele>166.4</ele>
        <time>2024-07-30T09:11:05Z</time>
      </trkpt>
      <trkpt lat="43.54691" lon="1.29956">
        <ele>166.6</ele>
        <time>2024-07-30T09:11:06Z</time>
      </trkpt>
      <trkpt lat="43.547" lon="1.29956">
        <ele>166.6</ele>
        <time>2024-07-30T09:11:07Z</time>
      </trkpt>
      <trkpt lat="43.54708" lon="1.29956">
        <ele>166.6</ele>
        <time>2024-07-30T09:11:08Z</time>
      </trkpt>
      <trkpt lat="43.54717" lon="1.29956">
        <ele>166.6</ele>
        <time>2024-07-30T09:11:09Z</time>
      </trkpt>
      <trkpt lat="43.54728" lon="1.29956">
        <ele>166.6</ele>
        <time>2024-07-30T09:11:10Z</time>
      </trkpt>
      <trkpt lat="43.54737" lon="1.29956">
        <ele>166.6</ele>
        <time>2024-07-30T09:11:11Z</time>
      </trkpt>
      <trkpt lat="43.54746" lon="1.29957">
        <ele>166.6</ele>
        <time>2024-07-30T09:11:12Z</time>
      </trkpt>
      <trkpt lat="43.54756" lon="1.29958">
        <ele>166.6</ele>
        <time>2024-07-30T09:11:13Z</time>
      </trkpt>
      <trkpt lat="43.54765" lon="1.2996">
        <ele>166.6</ele>
        <time>2024-07-30T09:11:14Z</time>
      </trkpt>
      <trkpt lat="43.54774" lon="1.29962">
        <ele>166.6</ele>
        <time>2024-07-30T09:11:15Z</time>
      </trkpt>
      <trkpt lat="43.54783" lon="1.29965">
        <ele>166.4</ele>
        <time>2024-07-30T09:11:16Z</time>
      </trkpt>
      <trkpt lat="43.54792" lon="1.29969">
        <ele>166.4</ele>
        <time>2024-07-30T09:11:17Z</time>
      </trkpt>
      <trkpt lat="43.54801" lon="1.29973">
        <ele>166.2</ele>
        <time>2024-07-30T09:11:18Z</time>
      </trkpt>
      <trkpt lat="43.5481" lon="1.29978">
        <ele>166.2</ele>
        <time>2024-07-30T09:11:19Z</time>
      </trkpt>
      <trkpt lat="43.54819" lon="1.29982">
        <ele>166.2</ele>
        <time>2024-07-30T09:11:20Z</time>
      </trkpt>
      <trkpt lat="43.54828" lon="1.29986">
        <ele>166.2</ele>
        <time>2024-07-30T09:11:21Z</time>
      </trkpt>
      <trkpt lat="43.54837" lon="1.2999">
        <ele>166.2</ele>
        <time>2024-07-30T09:11:22Z</time>
      </trkpt>
      <trkpt lat="43.54845" lon="1.29994">
        <ele>166.2</ele>
        <time>2024-07-30T09:11:23Z</time>
      </trkpt>
      <trkpt lat="43.54854" lon="1.29998">
        <ele>166.4</ele>
        <time>2024-07-30T09:11:24Z</time>
      </trkpt>
      <trkpt lat="43.54862" lon="1.30001">
        <ele>166.4</ele>
        <time>2024-07-30T09:11:25Z</time>
      </trkpt>
      <trkpt lat="43.54871" lon="1.30004">
        <ele>166.4</ele>
        <time>2024-07-30T09:11:26Z</time>
      </trkpt>
      <trkpt lat="43.54878" lon="1.30007">
        <ele>166.4</ele>
        <time>2024-07-30T09:11:27Z</time>
      </trkpt>
      <trkpt lat="43.54888" lon="1.30009">
        <ele>166.6</ele>
        <time>2024-07-30T09:11:28Z</time>
      </trkpt>
      <trkpt lat="43.54896" lon="1.3001">
        <ele>166.6</ele>
        <time>2024-07-30T09:11:29Z</time>
      </trkpt>
      <trkpt lat="43.54905" lon="1.30011">
        <ele>166.6</ele>
        <time>2024-07-30T09:11:30Z</time>
      </trkpt>
      <trkpt lat="43.54913" lon="1.30012">
        <ele>166.6</ele>
        <time>2024-07-30T09:11:31Z</time>
      </trkpt>
      <trkpt lat="43.54921" lon="1.30012">
        <ele>166.6</ele>
        <time>2024-07-30T09:11:32Z</time>
      </trkpt>
      <trkpt lat="43.54929" lon="1.30013">
        <ele>166.6</ele>
        <time>2024-07-30T09:11:33Z</time>
      </trkpt>
      <trkpt lat="43.54937" lon="1.30014">
        <ele>166.6</ele>
        <time>2024-07-30T09:11:34Z</time>
      </trkpt>
      <trkpt lat="43.54945" lon="1.30014">
        <ele>166.6</ele>
        <time>2024-07-30T09:11:35Z</time>
      </trkpt>
      <trkpt lat="43.54952" lon="1.30014">
        <ele>166.4</ele>
        <time>2024-07-30T09:11:36Z</time>
      </trkpt>
      <trkpt lat="43.54961" lon="1.30014">
        <ele>166.2</ele>
        <time>2024-07-30T09:11:37Z</time>
      </trkpt>
      <trkpt lat="43.54969" lon="1.30015">
        <ele>166.2</ele>
        <time>2024-07-30T09:11:38Z</time>
      </trkpt>
      <trkpt lat="43.54977" lon="1.30015">
        <ele>166</ele>
        <time>2024-07-30T09:11:39Z</time>
      </trkpt>
      <trkpt lat="43.54983" lon="1.30015">
        <ele>166</ele>
        <time>2024-07-30T09:11:40Z</time>
      </trkpt>
      <trkpt lat="43.5499" lon="1.30015">
        <ele>165.8</ele>
        <time>2024-07-30T09:11:41Z</time>
      </trkpt>
      <trkpt lat="43.54999" lon="1.30014">
        <ele>165.6</ele>
        <time>2024-07-30T09:11:42Z</time>
      </trkpt>
      <trkpt lat="43.55007" lon="1.30014">
        <ele>165.6</ele>
        <time>2024-07-30T09:11:43Z</time>
      </trkpt>
      <trkpt lat="43.55015" lon="1.30014">
        <ele>165.4</ele>
        <time>2024-07-30T09:11:44Z</time>
      </trkpt>
      <trkpt lat="43.55023" lon="1.30014">
        <ele>165.4</ele>
        <time>2024-07-30T09:11:45Z</time>
      </trkpt>
      <trkpt lat="43.5503" lon="1.30014">
        <ele>165.4</ele>
        <time>2024-07-30T09:11:46Z</time>
      </trkpt>
      <trkpt lat="43.55038" lon="1.30013">
        <ele>165.6</ele>
        <time>2024-07-30T09:11:47Z</time>
      </trkpt>
      <trkpt lat="43.55045" lon="1.30013">
        <ele>165.6</ele>
        <time>2024-07-30T09:11:48Z</time>
      </trkpt>
      <trkpt lat="43.55053" lon="1.30013">
        <ele>165.6</ele>
        <time>2024-07-30T09:11:49Z</time>
      </trkpt>
      <trkpt lat="43.5506" lon="1.30013">
        <ele>165.6</ele>
        <time>2024-07-30T09:11:50Z</time>
      </trkpt>
      <trkpt lat="43.55068" lon="1.30013">
        <ele>165.6</ele>
        <time>2024-07-30T09:11:51Z</time>
      </trkpt>
      <trkpt lat="43.55075" lon="1.30013">
        <ele>165.6</ele>
        <time>2024-07-30T09:11:52Z</time>
      </trkpt>
      <trkpt lat="43.55083" lon="1.30013">
        <ele>165.6</ele>
        <time>2024-07-30T09:11:53Z</time>
      </trkpt>
      <trkpt lat="43.55091" lon="1.30013">
        <ele>165.6</ele>
        <time>2024-07-30T09:11:54Z</time>
      </trkpt>
      <trkpt lat="43.55098" lon="1.30013">
        <ele>165.6</ele>
        <time>2024-07-30T09:11:55Z</time>
      </trkpt>
      <trkpt lat="43.55106" lon="1.30012">
        <ele>165.8</ele>
        <time>2024-07-30T09:11:56Z</time>
      </trkpt>
      <trkpt lat="43.55113" lon="1.30011">
        <ele>165.8</ele>
        <time>2024-07-30T09:11:57Z</time>
      </trkpt>
      <trkpt lat="43.55121" lon="1.3001">
        <ele>165.6</ele>
        <time>2024-07-30T09:11:58Z</time>
      </trkpt>
      <trkpt lat="43.55128" lon="1.30008">
        <ele>165.6</ele>
        <time>2024-07-30T09:11:59Z</time>
      </trkpt>
      <trkpt lat="43.55136" lon="1.30006">
        <ele>165.6</ele>
        <time>2024-07-30T09:12:00Z</time>
      </trkpt>
      <trkpt lat="43.55143" lon="1.30004">
        <ele>165.6</ele>
        <time>2024-07-30T09:12:01Z</time>
      </trkpt>
      <trkpt lat="43.55151" lon="1.30001">
        <ele>165.6</ele>
        <time>2024-07-30T09:12:02Z</time>
      </trkpt>
      <trkpt lat="43.55158" lon="1.29998">
        <ele>165.6</ele>
        <time>2024-07-30T09:12:03Z</time>
      </trkpt>
      <trkpt lat="43.55166" lon="1.29994">
        <ele>165.6</ele>
        <time>2024-07-30T09:12:04Z</time>
      </trkpt>
      <trkpt lat="43.55173" lon="1.2999">
        <ele>165.6</ele>
        <time>2024-07-30T09:12:05Z</time>
      </trkpt>
      <trkpt lat="43.55181" lon="1.29986">
        <ele>165.6</ele>
        <time>2024-07-30T09:12:06Z</time>
      </trkpt>
      <trkpt lat="43.55188" lon="1.29981">
        <ele>165.6</ele>
        <time>2024-07-30T09:12:07Z</time>
      </trkpt>
      <trkpt lat="43.55195" lon="1.29976">
        <ele>165.6</ele>
        <time>2024-07-30T09:12:08Z</time>
      </trkpt>
      <trkpt lat="43.55202" lon="1.29971">
        <ele>165.6</ele>
        <time>2024-07-30T09:12:09Z</time>
      </trkpt>
      <trkpt lat="43.55208" lon="1.29964">
        <ele>165.6</ele>
        <time>2024-07-30T09:12:10Z</time>
      </trkpt>
      <trkpt lat="43.55215" lon="1.29958">
        <ele>165.6</ele>
        <time>2024-07-30T09:12:11Z</time>
      </trkpt>
      <trkpt lat="43.55222" lon="1.29952">
        <ele>165.6</ele>
        <time>2024-07-30T09:12:12Z</time>
      </trkpt>
      <trkpt lat="43.55228" lon="1.29945">
        <ele>165.6</ele>
        <time>2024-07-30T09:12:13Z</time>
      </trkpt>
      <trkpt lat="43.55235" lon="1.29939">
        <ele>165.6</ele>
        <time>2024-07-30T09:12:14Z</time>
      </trkpt>
      <trkpt lat="43.55241" lon="1.29932">
        <ele>165.6</ele>
        <time>2024-07-30T09:12:15Z</time>
      </trkpt>
      <trkpt lat="43.55248" lon="1.29926">
        <ele>165.6</ele>
        <time>2024-07-30T09:12:16Z</time>
      </trkpt>
      <trkpt lat="43.55254" lon="1.2992">
        <ele>165.6</ele>
        <time>2024-07-30T09:12:17Z</time>
      </trkpt>
      <trkpt lat="43.55259" lon="1.29916">
        <ele>165.6</ele>
        <time>2024-07-30T09:12:18Z</time>
      </trkpt>
      <trkpt lat="43.55267" lon="1.29908">
        <ele>165.6</ele>
        <time>2024-07-30T09:12:19Z</time>
      </trkpt>
      <trkpt lat="43.55274" lon="1.29903">
        <ele>165.6</ele>
        <time>2024-07-30T09:12:20Z</time>
      </trkpt>
      <trkpt lat="43.55281" lon="1.29897">
        <ele>165.6</ele>
        <time>2024-07-30T09:12:21Z</time>
      </trkpt>
      <trkpt lat="43.55286" lon="1.29893">
        <ele>165.6</ele>
        <time>2024-07-30T09:12:22Z</time>
      </trkpt>
      <trkpt lat="43.55293" lon="1.29888">
        <ele>165.6</ele>
        <time>2024-07-30T09:12:23Z</time>
      </trkpt>
      <trkpt lat="43.55302" lon="1.29883">
        <ele>165.6</ele>
        <time>2024-07-30T09:12:24Z</time>
      </trkpt>
      <trkpt lat="43.5531" lon="1.29881">
        <ele>165.6</ele>
        <time>2024-07-30T09:12:25Z</time>
      </trkpt>
      <trkpt lat="43.55318" lon="1.29879">
        <ele>165.6</ele>
        <time>2024-07-30T09:12:26Z</time>
      </trkpt>
      <trkpt lat="43.55326" lon="1.29878">
        <ele>165.6</ele>
        <time>2024-07-30T09:12:27Z</time>
      </trkpt>
      <trkpt lat="43.55333" lon="1.29879">
        <ele>165.4</ele>
        <time>2024-07-30T09:12:28Z</time>
      </trkpt>
      <trkpt lat="43.55343" lon="1.29879">
        <ele>165.4</ele>
        <time>2024-07-30T09:12:29Z</time>
      </trkpt>
      <trkpt lat="43.55351" lon="1.29879">
        <ele>165.4</ele>
        <time>2024-07-30T09:12:30Z</time>
      </trkpt>
      <trkpt lat="43.5536" lon="1.29878">
        <ele>165.4</ele>
        <time>2024-07-30T09:12:31Z</time>
      </trkpt>
      <trkpt lat="43.55368" lon="1.29878">
        <ele>165.4</ele>
        <time>2024-07-30T09:12:32Z</time>
      </trkpt>
      <trkpt lat="43.55377" lon="1.29877">
        <ele>165.2</ele>
        <time>2024-07-30T09:12:33Z</time>
      </trkpt>
      <trkpt lat="43.55385" lon="1.29877">
        <ele>165.2</ele>
        <time>2024-07-30T09:12:34Z</time>
      </trkpt>
      <trkpt lat="43.55394" lon="1.29877">
        <ele>165</ele>
        <time>2024-07-30T09:12:35Z</time>
      </trkpt>
      <trkpt lat="43.55402" lon="1.29876">
        <ele>165</ele>
        <time>2024-07-30T09:12:36Z</time>
      </trkpt>
      <trkpt lat="43.55409" lon="1.29876">
        <ele>165</ele>
        <time>2024-07-30T09:12:37Z</time>
      </trkpt>
      <trkpt lat="43.5542" lon="1.29876">
        <ele>165</ele>
        <time>2024-07-30T09:12:38Z</time>
      </trkpt>
      <trkpt lat="43.55428" lon="1.29875">
        <ele>165</ele>
        <time>2024-07-30T09:12:39Z</time>
      </trkpt>
      <trkpt lat="43.55437" lon="1.29874">
        <ele>165</ele>
        <time>2024-07-30T09:12:40Z</time>
      </trkpt>
      <trkpt lat="43.55445" lon="1.29874">
        <ele>165</ele>
        <time>2024-07-30T09:12:41Z</time>
      </trkpt>
      <trkpt lat="43.55453" lon="1.29873">
        <ele>164.8</ele>
        <time>2024-07-30T09:12:42Z</time>
      </trkpt>
      <trkpt lat="43.55462" lon="1.29872">
        <ele>164.8</ele>
        <time>2024-07-30T09:12:43Z</time>
      </trkpt>
      <trkpt lat="43.5547" lon="1.29871">
        <ele>164.8</ele>
        <time>2024-07-30T09:12:44Z</time>
      </trkpt>
      <trkpt lat="43.55479" lon="1.29871">
        <ele>164.8</ele>
        <time>2024-07-30T09:12:45Z</time>
      </trkpt>
      <trkpt lat="43.55487" lon="1.2987">
        <ele>164.8</ele>
        <time>2024-07-30T09:12:46Z</time>
      </trkpt>
      <trkpt lat="43.55495" lon="1.29869">
        <ele>164.6</ele>
        <time>2024-07-30T09:12:47Z</time>
      </trkpt>
      <trkpt lat="43.55504" lon="1.29868">
        <ele>164.6</ele>
        <time>2024-07-30T09:12:48Z</time>
      </trkpt>
      <trkpt lat="43.55512" lon="1.29867">
        <ele>164.6</ele>
        <time>2024-07-30T09:12:49Z</time>
      </trkpt>
      <trkpt lat="43.55521" lon="1.29867">
        <ele>164.6</ele>
        <time>2024-07-30T09:12:50Z</time>
      </trkpt>
      <trkpt lat="43.55527" lon="1.29866">
        <ele>164.6</ele>
        <time>2024-07-30T09:12:51Z</time>
      </trkpt>
      <trkpt lat="43.55538" lon="1.29865">
        <ele>164.6</ele>
        <time>2024-07-30T09:12:52Z</time>
      </trkpt>
      <trkpt lat="43.55546" lon="1.29864">
        <ele>164.6</ele>
        <time>2024-07-30T09:12:53Z</time>
      </trkpt>
      <trkpt lat="43.55555" lon="1.29864">
        <ele>164.6</ele>
        <time>2024-07-30T09:12:54Z</time>
      </trkpt>
      <trkpt lat="43.55563" lon="1.29863">
        <ele>164.6</ele>
        <time>2024-07-30T09:12:55Z</time>
      </trkpt>
      <trkpt lat="43.55571" lon="1.29862">
        <ele>164.6</ele>
        <time>2024-07-30T09:12:56Z</time>
      </trkpt>
      <trkpt lat="43.55579" lon="1.29862">
        <ele>164.6</ele>
        <time>2024-07-30T09:12:57Z</time>
      </trkpt>
      <trkpt lat="43.55587" lon="1.29861">
        <ele>164.6</ele>
        <time>2024-07-30T09:12:58Z</time>
      </trkpt>
      <trkpt lat="43.55594" lon="1.2986">
        <ele>164.6</ele>
        <time>2024-07-30T09:12:59Z</time>
      </trkpt>
      <trkpt lat="43.55602" lon="1.29859">
        <ele>164.6</ele>
        <time>2024-07-30T09:13:00Z</time>
      </trkpt>
      <trkpt lat="43.5561" lon="1.29858">
        <ele>164.6</ele>
        <time>2024-07-30T09:13:01Z</time>
      </trkpt>
      <trkpt lat="43.55618" lon="1.29857">
        <ele>164.6</ele>
        <time>2024-07-30T09:13:02Z</time>
      </trkpt>
      <trkpt lat="43.55627" lon="1.29857">
        <ele>164.6</ele>
        <time>2024-07-30T09:13:03Z</time>
      </trkpt>
      <trkpt lat="43.55635" lon="1.29856">
        <ele>164.6</ele>
        <time>2024-07-30T09:13:04Z</time>
      </trkpt>
      <trkpt lat="43.55643" lon="1.29855">
        <ele>164.6</ele>
        <time>2024-07-30T09:13:05Z</time>
      </trkpt>
      <trkpt lat="43.55651" lon="1.29854">
        <ele>164.6</ele>
        <time>2024-07-30T09:13:06Z</time>
      </trkpt>
      <trkpt lat="43.55659" lon="1.29854">
        <ele>164.6</ele>
        <time>2024-07-30T09:13:07Z</time>
      </trkpt>
      <trkpt lat="43.55666" lon="1.29853">
        <ele>164.4</ele>
        <time>2024-07-30T09:13:08Z</time>
      </trkpt>
      <trkpt lat="43.55676" lon="1.29852">
        <ele>164.4</ele>
        <time>2024-07-30T09:13:09Z</time>
      </trkpt>
      <trkpt lat="43.55684" lon="1.29852">
        <ele>164.4</ele>
        <time>2024-07-30T09:13:10Z</time>
      </trkpt>
      <trkpt lat="43.55692" lon="1.29851">
        <ele>164.4</ele>
        <time>2024-07-30T09:13:11Z</time>
      </trkpt>
      <trkpt lat="43.557" lon="1.2985">
        <ele>164.4</ele>
        <time>2024-07-30T09:13:12Z</time>
      </trkpt>
      <trkpt lat="43.55708" lon="1.2985">
        <ele>164.4</ele>
        <time>2024-07-30T09:13:13Z</time>
      </trkpt>
      <trkpt lat="43.55716" lon="1.2985">
        <ele>164.4</ele>
        <time>2024-07-30T09:13:14Z</time>
      </trkpt>
      <trkpt lat="43.55723" lon="1.29851">
        <ele>164.4</ele>
        <time>2024-07-30T09:13:15Z</time>
      </trkpt>
      <trkpt lat="43.5573" lon="1.29852">
        <ele>164.2</ele>
        <time>2024-07-30T09:13:16Z</time>
      </trkpt>
      <trkpt lat="43.55737" lon="1.29854">
        <ele>164.2</ele>
        <time>2024-07-30T09:13:17Z</time>
      </trkpt>
      <trkpt lat="43.55742" lon="1.29856">
        <ele>164.2</ele>
        <time>2024-07-30T09:13:18Z</time>
      </trkpt>
      <trkpt lat="43.5575" lon="1.2986">
        <ele>164.2</ele>
        <time>2024-07-30T09:13:19Z</time>
      </trkpt>
      <trkpt lat="43.55757" lon="1.29862">
        <ele>164.2</ele>
        <time>2024-07-30T09:13:20Z</time>
      </trkpt>
      <trkpt lat="43.55764" lon="1.29864">
        <ele>164</ele>
        <time>2024-07-30T09:13:21Z</time>
      </trkpt>
      <trkpt lat="43.55771" lon="1.29865">
        <ele>164</ele>
        <time>2024-07-30T09:13:22Z</time>
      </trkpt>
      <trkpt lat="43.55776" lon="1.29865">
        <ele>164</ele>
        <time>2024-07-30T09:13:23Z</time>
      </trkpt>
      <trkpt lat="43.55784" lon="1.29865">
        <ele>163.8</ele>
        <time>2024-07-30T09:13:24Z</time>
      </trkpt>
      <trkpt lat="43.55791" lon="1.29863">
        <ele>163.8</ele>
        <time>2024-07-30T09:13:25Z</time>
      </trkpt>
      <trkpt lat="43.55796" lon="1.29861">
        <ele>163.8</ele>
        <time>2024-07-30T09:13:26Z</time>
      </trkpt>
      <trkpt lat="43.55801" lon="1.29856">
        <ele>163.6</ele>
        <time>2024-07-30T09:13:27Z</time>
      </trkpt>
      <trkpt lat="43.55806" lon="1.29851">
        <ele>163.6</ele>
        <time>2024-07-30T09:13:28Z</time>
      </trkpt>
      <trkpt lat="43.55811" lon="1.29846">
        <ele>163.6</ele>
        <time>2024-07-30T09:13:29Z</time>
      </trkpt>
      <trkpt lat="43.55817" lon="1.29843">
        <ele>163.6</ele>
        <time>2024-07-30T09:13:30Z</time>
      </trkpt>
      <trkpt lat="43.55823" lon="1.29841">
        <ele>163.6</ele>
        <time>2024-07-30T09:13:31Z</time>
      </trkpt>
      <trkpt lat="43.55829" lon="1.2984">
        <ele>163.6</ele>
        <time>2024-07-30T09:13:32Z</time>
      </trkpt>
      <trkpt lat="43.55836" lon="1.29839">
        <ele>163.6</ele>
        <time>2024-07-30T09:13:33Z</time>
      </trkpt>
      <trkpt lat="43.55843" lon="1.29839">
        <ele>163.6</ele>
        <time>2024-07-30T09:13:34Z</time>
      </trkpt>
      <trkpt lat="43.55849" lon="1.29838">
        <ele>163.6</ele>
        <time>2024-07-30T09:13:35Z</time>
      </trkpt>
      <trkpt lat="43.55855" lon="1.29838">
        <ele>163.6</ele>
        <time>2024-07-30T09:13:36Z</time>
      </trkpt>
      <trkpt lat="43.55863" lon="1.29837">
        <ele>163.6</ele>
        <time>2024-07-30T09:13:37Z</time>
      </trkpt>
      <trkpt lat="43.5587" lon="1.29837">
        <ele>163.6</ele>
        <time>2024-07-30T09:13:38Z</time>
      </trkpt>
      <trkpt lat="43.55877" lon="1.29836">
        <ele>163.6</ele>
        <time>2024-07-30T09:13:39Z</time>
      </trkpt>
      <trkpt lat="43.55884" lon="1.29835">
        <ele>163.6</ele>
        <time>2024-07-30T09:13:40Z</time>
      </trkpt>
      <trkpt lat="43.55891" lon="1.29835">
        <ele>163.6</ele>
        <time>2024-07-30T09:13:41Z</time>
      </trkpt>
      <trkpt lat="43.55898" lon="1.29834">
        <ele>163.6</ele>
        <time>2024-07-30T09:13:42Z</time>
      </trkpt>
      <trkpt lat="43.55904" lon="1.29833">
        <ele>163.6</ele>
        <time>2024-07-30T09:13:43Z</time>
      </trkpt>
      <trkpt lat="43.55911" lon="1.29833">
        <ele>163.6</ele>
        <time>2024-07-30T09:13:44Z</time>
      </trkpt>
      <trkpt lat="43.55917" lon="1.29832">
        <ele>163.6</ele>
        <time>2024-07-30T09:13:45Z</time>
      </trkpt>
      <trkpt lat="43.55925" lon="1.29831">
        <ele>163.6</ele>
        <time>2024-07-30T09:13:46Z</time>
      </trkpt>
      <trkpt lat="43.55933" lon="1.2983">
        <ele>163.6</ele>
        <time>2024-07-30T09:13:47Z</time>
      </trkpt>
      <trkpt lat="43.5594" lon="1.29829">
        <ele>163.6</ele>
        <time>2024-07-30T09:13:48Z</time>
      </trkpt>
      <trkpt lat="43.55947" lon="1.29829">
        <ele>163.6</ele>
        <time>2024-07-30T09:13:49Z</time>
      </trkpt>
      <trkpt lat="43.55954" lon="1.29828">
        <ele>163.4</ele>
        <time>2024-07-30T09:13:50Z</time>
      </trkpt>
      <trkpt lat="43.55961" lon="1.29827">
        <ele>163.4</ele>
        <time>2024-07-30T09:13:51Z</time>
      </trkpt>
      <trkpt lat="43.55969" lon="1.29826">
        <ele>163.2</ele>
        <time>2024-07-30T09:13:52Z</time>
      </trkpt>
      <trkpt lat="43.55976" lon="1.29824">
        <ele>163.2</ele>
        <time>2024-07-30T09:13:53Z</time>
      </trkpt>
      <trkpt lat="43.55983" lon="1.29821">
        <ele>163.2</ele>
        <time>2024-07-30T09:13:54Z</time>
      </trkpt>
      <trkpt lat="43.55988" lon="1.29817">
        <ele>163.2</ele>
        <time>2024-07-30T09:13:55Z</time>
      </trkpt>
      <trkpt lat="43.55996" lon="1.29812">
        <ele>163.2</ele>
        <time>2024-07-30T09:13:56Z</time>
      </trkpt>
      <trkpt lat="43.56002" lon="1.29806">
        <ele>163</ele>
        <time>2024-07-30T09:13:57Z</time>
      </trkpt>
      <trkpt lat="43.56009" lon="1.29801">
        <ele>163</ele>
        <time>2024-07-30T09:13:58Z</time>
      </trkpt>
      <trkpt lat="43.56015" lon="1.29796">
        <ele>163</ele>
        <time>2024-07-30T09:13:59Z</time>
      </trkpt>
      <trkpt lat="43.56021" lon="1.29791">
        <ele>163</ele>
        <time>2024-07-30T09:14:00Z</time>
      </trkpt>
      <trkpt lat="43.56027" lon="1.29786">
        <ele>163</ele>
        <time>2024-07-30T09:14:01Z</time>
      </trkpt>
      <trkpt lat="43.56033" lon="1.29781">
        <ele>163</ele>
        <time>2024-07-30T09:14:02Z</time>
      </trkpt>
      <trkpt lat="43.56039" lon="1.29777">
        <ele>163</ele>
        <time>2024-07-30T09:14:03Z</time>
      </trkpt>
      <trkpt lat="43.56045" lon="1.29772">
        <ele>163</ele>
        <time>2024-07-30T09:14:04Z</time>
      </trkpt>
      <trkpt lat="43.5605" lon="1.29768">
        <ele>163</ele>
        <time>2024-07-30T09:14:05Z</time>
      </trkpt>
      <trkpt lat="43.56056" lon="1.29767">
        <ele>163</ele>
        <time>2024-07-30T09:14:06Z</time>
      </trkpt>
      <trkpt lat="43.56062" lon="1.29768">
        <ele>162.8</ele>
        <time>2024-07-30T09:14:07Z</time>
      </trkpt>
      <trkpt lat="43.56068" lon="1.29768">
        <ele>162.8</ele>
        <time>2024-07-30T09:14:08Z</time>
      </trkpt>
      <trkpt lat="43.56074" lon="1.29766">
        <ele>162.8</ele>
        <time>2024-07-30T09:14:09Z</time>
      </trkpt>
      <trkpt lat="43.56078" lon="1.29761">
        <ele>162.8</ele>
        <time>2024-07-30T09:14:10Z</time>
      </trkpt>
      <trkpt lat="43.56081" lon="1.29755">
        <ele>162.8</ele>
        <time>2024-07-30T09:14:11Z</time>
      </trkpt>
      <trkpt lat="43.56085" lon="1.29747">
        <ele>162.8</ele>
        <time>2024-07-30T09:14:12Z</time>
      </trkpt>
      <trkpt lat="43.56089" lon="1.2974">
        <ele>163</ele>
        <time>2024-07-30T09:14:13Z</time>
      </trkpt>
      <trkpt lat="43.56093" lon="1.29734">
        <ele>163</ele>
        <time>2024-07-30T09:14:14Z</time>
      </trkpt>
      <trkpt lat="43.56098" lon="1.29729">
        <ele>163.2</ele>
        <time>2024-07-30T09:14:15Z</time>
      </trkpt>
      <trkpt lat="43.56103" lon="1.29724">
        <ele>163.4</ele>
        <time>2024-07-30T09:14:16Z</time>
      </trkpt>
      <trkpt lat="43.56108" lon="1.2972">
        <ele>163.6</ele>
        <time>2024-07-30T09:14:17Z</time>
      </trkpt>
      <trkpt lat="43.56113" lon="1.29715">
        <ele>163.4</ele>
        <time>2024-07-30T09:14:18Z</time>
      </trkpt>
      <trkpt lat="43.56118" lon="1.29711">
        <ele>163.6</ele>
        <time>2024-07-30T09:14:19Z</time>
      </trkpt>
      <trkpt lat="43.56123" lon="1.29707">
        <ele>164</ele>
        <time>2024-07-30T09:14:20Z</time>
      </trkpt>
      <trkpt lat="43.56128" lon="1.29702">
        <ele>164.2</ele>
        <time>2024-07-30T09:14:21Z</time>
      </trkpt>
      <trkpt lat="43.56132" lon="1.29697">
        <ele>164.4</ele>
        <time>2024-07-30T09:14:22Z</time>
      </trkpt>
      <trkpt lat="43.56138" lon="1.29693">
        <ele>164.8</ele>
        <time>2024-07-30T09:14:23Z</time>
      </trkpt>
      <trkpt lat="43.56143" lon="1.29688">
        <ele>165</ele>
        <time>2024-07-30T09:14:24Z</time>
      </trkpt>
      <trkpt lat="43.56149" lon="1.29683">
        <ele>165.2</ele>
        <time>2024-07-30T09:14:25Z</time>
      </trkpt>
      <trkpt lat="43.56154" lon="1.29678">
        <ele>165.4</ele>
        <time>2024-07-30T09:14:26Z</time>
      </trkpt>
      <trkpt lat="43.5616" lon="1.29673">
        <ele>165.4</ele>
        <time>2024-07-30T09:14:27Z</time>
      </trkpt>
      <trkpt lat="43.56166" lon="1.29668">
        <ele>165.6</ele>
        <time>2024-07-30T09:14:28Z</time>
      </trkpt>
      <trkpt lat="43.56171" lon="1.29663">
        <ele>165.6</ele>
        <time>2024-07-30T09:14:29Z</time>
      </trkpt>
      <trkpt lat="43.56177" lon="1.29658">
        <ele>165.6</ele>
        <time>2024-07-30T09:14:30Z</time>
      </trkpt>
      <trkpt lat="43.56181" lon="1.29654">
        <ele>165.4</ele>
        <time>2024-07-30T09:14:31Z</time>
      </trkpt>
      <trkpt lat="43.56187" lon="1.29649">
        <ele>165.4</ele>
        <time>2024-07-30T09:14:32Z</time>
      </trkpt>
      <trkpt lat="43.56194" lon="1.29642">
        <ele>165.4</ele>
        <time>2024-07-30T09:14:33Z</time>
      </trkpt>
      <trkpt lat="43.562" lon="1.29637">
        <ele>165.4</ele>
        <time>2024-07-30T09:14:34Z</time>
      </trkpt>
      <trkpt lat="43.56206" lon="1.29632">
        <ele>165.2</ele>
        <time>2024-07-30T09:14:35Z</time>
      </trkpt>
      <trkpt lat="43.56212" lon="1.29627">
        <ele>165.2</ele>
        <time>2024-07-30T09:14:36Z</time>
      </trkpt>
      <trkpt lat="43.56218" lon="1.29621">
        <ele>165</ele>
        <time>2024-07-30T09:14:37Z</time>
      </trkpt>
      <trkpt lat="43.56224" lon="1.29616">
        <ele>164.8</ele>
        <time>2024-07-30T09:14:38Z</time>
      </trkpt>
      <trkpt lat="43.56229" lon="1.29611">
        <ele>164.8</ele>
        <time>2024-07-30T09:14:39Z</time>
      </trkpt>
      <trkpt lat="43.56235" lon="1.29606">
        <ele>164.6</ele>
        <time>2024-07-30T09:14:40Z</time>
      </trkpt>
      <trkpt lat="43.5624" lon="1.29601">
        <ele>164.8</ele>
        <time>2024-07-30T09:14:41Z</time>
      </trkpt>
      <trkpt lat="43.56245" lon="1.29596">
        <ele>164.6</ele>
        <time>2024-07-30T09:14:42Z</time>
      </trkpt>
      <trkpt lat="43.5625" lon="1.29591">
        <ele>164.4</ele>
        <time>2024-07-30T09:14:43Z</time>
      </trkpt>
      <trkpt lat="43.56256" lon="1.29587">
        <ele>164.4</ele>
        <time>2024-07-30T09:14:44Z</time>
      </trkpt>
      <trkpt lat="43.56261" lon="1.29582">
        <ele>164.4</ele>
        <time>2024-07-30T09:14:45Z</time>
      </trkpt>
      <trkpt lat="43.56266" lon="1.29578">
        <ele>164.4</ele>
        <time>2024-07-30T09:14:46Z</time>
      </trkpt>
      <trkpt lat="43.56272" lon="1.29572">
        <ele>164.4</ele>
        <time>2024-07-30T09:14:47Z</time>
      </trkpt>
      <trkpt lat="43.56277" lon="1.29568">
        <ele>164.2</ele>
        <time>2024-07-30T09:14:48Z</time>
      </trkpt>
      <trkpt lat="43.56282" lon="1.29564">
        <ele>164.2</ele>
        <time>2024-07-30T09:14:49Z</time>
      </trkpt>
      <trkpt lat="43.56287" lon="1.29561">
        <ele>164</ele>
        <time>2024-07-30T09:14:50Z</time>
      </trkpt>
      <trkpt lat="43.56293" lon="1.29562">
        <ele>164.2</ele>
        <time>2024-07-30T09:14:51Z</time>
      </trkpt>
      <trkpt lat="43.56299" lon="1.29566">
        <ele>163.8</ele>
        <time>2024-07-30T09:14:52Z</time>
      </trkpt>
      <trkpt lat="43.56306" lon="1.29568">
        <ele>163.8</ele>
        <time>2024-07-30T09:14:53Z</time>
      </trkpt>
      <trkpt lat="43.56312" lon="1.2957">
        <ele>163.8</ele>
        <time>2024-07-30T09:14:54Z</time>
      </trkpt>
      <trkpt lat="43.56319" lon="1.29572">
        <ele>164</ele>
        <time>2024-07-30T09:14:55Z</time>
      </trkpt>
      <trkpt lat="43.56326" lon="1.29574">
        <ele>163.8</ele>
        <time>2024-07-30T09:14:56Z</time>
      </trkpt>
      <trkpt lat="43.56334" lon="1.29576">
        <ele>163.8</ele>
        <time>2024-07-30T09:14:57Z</time>
      </trkpt>
      <trkpt lat="43.56341" lon="1.29579">
        <ele>163.8</ele>
        <time>2024-07-30T09:14:58Z</time>
      </trkpt>
      <trkpt lat="43.56347" lon="1.29582">
        <ele>163.8</ele>
        <time>2024-07-30T09:14:59Z</time>
      </trkpt>
      <trkpt lat="43.56353" lon="1.29585">
        <ele>163.6</ele>
        <time>2024-07-30T09:15:00Z</time>
      </trkpt>
      <trkpt lat="43.56359" lon="1.29589">
        <ele>163.4</ele>
        <time>2024-07-30T09:15:01Z</time>
      </trkpt>
      <trkpt lat="43.56365" lon="1.29593">
        <ele>163.4</ele>
        <time>2024-07-30T09:15:02Z</time>
      </trkpt>
      <trkpt lat="43.56371" lon="1.29598">
        <ele>163.6</ele>
        <time>2024-07-30T09:15:03Z</time>
      </trkpt>
      <trkpt lat="43.56377" lon="1.29604">
        <ele>163.4</ele>
        <time>2024-07-30T09:15:04Z</time>
      </trkpt>
      <trkpt lat="43.56383" lon="1.2961">
        <ele>163.4</ele>
        <time>2024-07-30T09:15:05Z</time>
      </trkpt>
      <trkpt lat="43.56388" lon="1.29615">
        <ele>163.2</ele>
        <time>2024-07-30T09:15:06Z</time>
      </trkpt>
      <trkpt lat="43.56394" lon="1.2962">
        <ele>163.2</ele>
        <time>2024-07-30T09:15:07Z</time>
      </trkpt>
      <trkpt lat="43.56398" lon="1.29623">
        <ele>163.2</ele>
        <time>2024-07-30T09:15:08Z</time>
      </trkpt>
      <trkpt lat="43.56404" lon="1.29629">
        <ele>163.2</ele>
        <time>2024-07-30T09:15:09Z</time>
      </trkpt>
      <trkpt lat="43.56409" lon="1.29634">
        <ele>163.2</ele>
        <time>2024-07-30T09:15:10Z</time>
      </trkpt>
      <trkpt lat="43.56414" lon="1.29639">
        <ele>163</ele>
        <time>2024-07-30T09:15:11Z</time>
      </trkpt>
      <trkpt lat="43.56418" lon="1.29644">
        <ele>163</ele>
        <time>2024-07-30T09:15:12Z</time>
      </trkpt>
      <trkpt lat="43.56422" lon="1.29648">
        <ele>163</ele>
        <time>2024-07-30T09:15:13Z</time>
      </trkpt>
      <trkpt lat="43.56428" lon="1.29654">
        <ele>163</ele>
        <time>2024-07-30T09:15:14Z</time>
      </trkpt>
      <trkpt lat="43.56432" lon="1.29659">
        <ele>163</ele>
        <time>2024-07-30T09:15:15Z</time>
      </trkpt>
      <trkpt lat="43.56437" lon="1.29665">
        <ele>163</ele>
        <time>2024-07-30T09:15:16Z</time>
      </trkpt>
      <trkpt lat="43.56441" lon="1.29671">
        <ele>163</ele>
        <time>2024-07-30T09:15:17Z</time>
      </trkpt>
      <trkpt lat="43.56444" lon="1.29676">
        <ele>163</ele>
        <time>2024-07-30T09:15:18Z</time>
      </trkpt>
      <trkpt lat="43.56449" lon="1.29684">
        <ele>163</ele>
        <time>2024-07-30T09:15:19Z</time>
      </trkpt>
      <trkpt lat="43.56453" lon="1.29691">
        <ele>163</ele>
        <time>2024-07-30T09:15:20Z</time>
      </trkpt>
      <trkpt lat="43.56456" lon="1.29698">
        <ele>163</ele>
        <time>2024-07-30T09:15:21Z</time>
      </trkpt>
      <trkpt lat="43.5646" lon="1.29705">
        <ele>163</ele>
        <time>2024-07-30T09:15:22Z</time>
      </trkpt>
      <trkpt lat="43.56463" lon="1.29713">
        <ele>162.8</ele>
        <time>2024-07-30T09:15:23Z</time>
      </trkpt>
      <trkpt lat="43.56467" lon="1.2972">
        <ele>162.8</ele>
        <time>2024-07-30T09:15:24Z</time>
      </trkpt>
      <trkpt lat="43.5647" lon="1.29727">
        <ele>162.6</ele>
        <time>2024-07-30T09:15:25Z</time>
      </trkpt>
      <trkpt lat="43.56474" lon="1.29734">
        <ele>162.6</ele>
        <time>2024-07-30T09:15:26Z</time>
      </trkpt>
      <trkpt lat="43.56477" lon="1.2974">
        <ele>162.8</ele>
        <time>2024-07-30T09:15:27Z</time>
      </trkpt>
      <trkpt lat="43.56482" lon="1.29749">
        <ele>162.8</ele>
        <time>2024-07-30T09:15:28Z</time>
      </trkpt>
      <trkpt lat="43.56485" lon="1.29756">
        <ele>162.8</ele>
        <time>2024-07-30T09:15:29Z</time>
      </trkpt>
      <trkpt lat="43.56488" lon="1.29764">
        <ele>162.8</ele>
        <time>2024-07-30T09:15:30Z</time>
      </trkpt>
      <trkpt lat="43.56488" lon="1.29772">
        <ele>162.8</ele>
        <time>2024-07-30T09:15:31Z</time>
      </trkpt>
      <trkpt lat="43.56489" lon="1.2978">
        <ele>162.8</ele>
        <time>2024-07-30T09:15:32Z</time>
      </trkpt>
      <trkpt lat="43.56491" lon="1.29787">
        <ele>162.8</ele>
        <time>2024-07-30T09:15:33Z</time>
      </trkpt>
      <trkpt lat="43.56495" lon="1.29792">
        <ele>162.8</ele>
        <time>2024-07-30T09:15:34Z</time>
      </trkpt>
      <trkpt lat="43.56499" lon="1.29796">
        <ele>162.8</ele>
        <time>2024-07-30T09:15:35Z</time>
      </trkpt>
      <trkpt lat="43.56504" lon="1.29801">
        <ele>162.8</ele>
        <time>2024-07-30T09:15:36Z</time>
      </trkpt>
      <trkpt lat="43.56507" lon="1.29807">
        <ele>162.8</ele>
        <time>2024-07-30T09:15:37Z</time>
      </trkpt>
      <trkpt lat="43.5651" lon="1.29815">
        <ele>162.8</ele>
        <time>2024-07-30T09:15:38Z</time>
      </trkpt>
      <trkpt lat="43.56513" lon="1.29822">
        <ele>162.8</ele>
        <time>2024-07-30T09:15:39Z</time>
      </trkpt>
      <trkpt lat="43.56515" lon="1.2983">
        <ele>162.6</ele>
        <time>2024-07-30T09:15:40Z</time>
      </trkpt>
      <trkpt lat="43.56516" lon="1.29838">
        <ele>162.6</ele>
        <time>2024-07-30T09:15:41Z</time>
      </trkpt>
      <trkpt lat="43.5652" lon="1.29845">
        <ele>162.6</ele>
        <time>2024-07-30T09:15:42Z</time>
      </trkpt>
      <trkpt lat="43.56524" lon="1.29849">
        <ele>162.6</ele>
        <time>2024-07-30T09:15:43Z</time>
      </trkpt>
      <trkpt lat="43.56528" lon="1.2985">
        <ele>162.6</ele>
        <time>2024-07-30T09:15:44Z</time>
      </trkpt>
      <trkpt lat="43.56534" lon="1.29848">
        <ele>162.4</ele>
        <time>2024-07-30T09:15:45Z</time>
      </trkpt>
      <trkpt lat="43.56539" lon="1.29844">
        <ele>162.4</ele>
        <time>2024-07-30T09:15:46Z</time>
      </trkpt>
      <trkpt lat="43.56544" lon="1.29841">
        <ele>162.4</ele>
        <time>2024-07-30T09:15:47Z</time>
      </trkpt>
      <trkpt lat="43.56549" lon="1.29837">
        <ele>162.6</ele>
        <time>2024-07-30T09:15:48Z</time>
      </trkpt>
      <trkpt lat="43.56553" lon="1.29834">
        <ele>162.6</ele>
        <time>2024-07-30T09:15:49Z</time>
      </trkpt>
      <trkpt lat="43.56558" lon="1.2983">
        <ele>162.8</ele>
        <time>2024-07-30T09:15:50Z</time>
      </trkpt>
      <trkpt lat="43.56561" lon="1.29826">
        <ele>162.8</ele>
        <time>2024-07-30T09:15:51Z</time>
      </trkpt>
      <trkpt lat="43.56565" lon="1.29822">
        <ele>163</ele>
        <time>2024-07-30T09:15:52Z</time>
      </trkpt>
      <trkpt lat="43.56569" lon="1.29819">
        <ele>163</ele>
        <time>2024-07-30T09:15:53Z</time>
      </trkpt>
      <trkpt lat="43.56571" lon="1.29817">
        <ele>163.2</ele>
        <time>2024-07-30T09:15:54Z</time>
      </trkpt>
      <trkpt lat="43.56574" lon="1.29814">
        <ele>163.4</ele>
        <time>2024-07-30T09:15:55Z</time>
      </trkpt>
      <trkpt lat="43.56577" lon="1.29812">
        <ele>163.4</ele>
        <time>2024-07-30T09:15:56Z</time>
      </trkpt>
      <trkpt lat="43.5658" lon="1.29809">
        <ele>163.6</ele>
        <time>2024-07-30T09:15:57Z</time>
      </trkpt>
      <trkpt lat="43.56583" lon="1.29807">
        <ele>163.6</ele>
        <time>2024-07-30T09:15:58Z</time>
      </trkpt>
      <trkpt lat="43.56586" lon="1.29804">
        <ele>163.8</ele>
        <time>2024-07-30T09:15:59Z</time>
      </trkpt>
      <trkpt lat="43.56589" lon="1.29801">
        <ele>164</ele>
        <time>2024-07-30T09:16:00Z</time>
      </trkpt>
      <trkpt lat="43.56592" lon="1.29799">
        <ele>164</ele>
        <time>2024-07-30T09:16:01Z</time>
      </trkpt>
      <trkpt lat="43.56597" lon="1.29796">
        <ele>164.2</ele>
        <time>2024-07-30T09:16:02Z</time>
      </trkpt>
      <trkpt lat="43.56601" lon="1.29794">
        <ele>164.2</ele>
        <time>2024-07-30T09:16:03Z</time>
      </trkpt>
      <trkpt lat="43.56605" lon="1.29792">
        <ele>164.4</ele>
        <time>2024-07-30T09:16:04Z</time>
      </trkpt>
      <trkpt lat="43.5661" lon="1.29789">
        <ele>164.6</ele>
        <time>2024-07-30T09:16:05Z</time>
      </trkpt>
      <trkpt lat="43.56615" lon="1.29785">
        <ele>164.6</ele>
        <time>2024-07-30T09:16:06Z</time>
      </trkpt>
      <trkpt lat="43.5662" lon="1.29782">
        <ele>164.6</ele>
        <time>2024-07-30T09:16:07Z</time>
      </trkpt>
      <trkpt lat="43.56624" lon="1.29778">
        <ele>164.8</ele>
        <time>2024-07-30T09:16:08Z</time>
      </trkpt>
      <trkpt lat="43.56629" lon="1.29773">
        <ele>164.8</ele>
        <time>2024-07-30T09:16:09Z</time>
      </trkpt>
      <trkpt lat="43.56634" lon="1.29769">
        <ele>164.8</ele>
        <time>2024-07-30T09:16:10Z</time>
      </trkpt>
      <trkpt lat="43.56639" lon="1.29765">
        <ele>164.8</ele>
        <time>2024-07-30T09:16:11Z</time>
      </trkpt>
      <trkpt lat="43.56644" lon="1.29761">
        <ele>164.8</ele>
        <time>2024-07-30T09:16:12Z</time>
      </trkpt>
      <trkpt lat="43.56647" lon="1.29758">
        <ele>164.8</ele>
        <time>2024-07-30T09:16:13Z</time>
      </trkpt>
      <trkpt lat="43.56653" lon="1.29754">
        <ele>164.8</ele>
        <time>2024-07-30T09:16:14Z</time>
      </trkpt>
      <trkpt lat="43.56658" lon="1.29751">
        <ele>164.8</ele>
        <time>2024-07-30T09:16:15Z</time>
      </trkpt>
      <trkpt lat="43.56663" lon="1.29749">
        <ele>164.8</ele>
        <time>2024-07-30T09:16:16Z</time>
      </trkpt>
      <trkpt lat="43.56667" lon="1.29747">
        <ele>164.8</ele>
        <time>2024-07-30T09:16:17Z</time>
      </trkpt>
      <trkpt lat="43.56671" lon="1.29743">
        <ele>164.8</ele>
        <time>2024-07-30T09:16:18Z</time>
      </trkpt>
      <trkpt lat="43.56675" lon="1.29738">
        <ele>164.8</ele>
        <time>2024-07-30T09:16:19Z</time>
      </trkpt>
      <trkpt lat="43.56678" lon="1.29733">
        <ele>164.8</ele>
        <time>2024-07-30T09:16:20Z</time>
      </trkpt>
      <trkpt lat="43.56682" lon="1.29729">
        <ele>164.8</ele>
        <time>2024-07-30T09:16:21Z</time>
      </trkpt>
      <trkpt lat="43.56686" lon="1.29726">
        <ele>164.8</ele>
        <time>2024-07-30T09:16:22Z</time>
      </trkpt>
      <trkpt lat="43.56689" lon="1.29723">
        <ele>164.8</ele>
        <time>2024-07-30T09:16:23Z</time>
      </trkpt>
      <trkpt lat="43.56693" lon="1.29721">
        <ele>165</ele>
        <time>2024-07-30T09:16:24Z</time>
      </trkpt>
      <trkpt lat="43.56696" lon="1.29718">
        <ele>165</ele>
        <time>2024-07-30T09:16:25Z</time>
      </trkpt>
      <trkpt lat="43.567" lon="1.29715">
        <ele>165</ele>
        <time>2024-07-30T09:16:26Z</time>
      </trkpt>
      <trkpt lat="43.56703" lon="1.29712">
        <ele>165.2</ele>
        <time>2024-07-30T09:16:27Z</time>
      </trkpt>
      <trkpt lat="43.56706" lon="1.29709">
        <ele>165.2</ele>
        <time>2024-07-30T09:16:28Z</time>
      </trkpt>
      <trkpt lat="43.56709" lon="1.29706">
        <ele>165.2</ele>
        <time>2024-07-30T09:16:29Z</time>
      </trkpt>
      <trkpt lat="43.56713" lon="1.29703">
        <ele>165.2</ele>
        <time>2024-07-30T09:16:30Z</time>
      </trkpt>
      <trkpt lat="43.56716" lon="1.297">
        <ele>165.2</ele>
        <time>2024-07-30T09:16:31Z</time>
      </trkpt>
      <trkpt lat="43.56721" lon="1.29696">
        <ele>165</ele>
        <time>2024-07-30T09:16:32Z</time>
      </trkpt>
      <trkpt lat="43.56726" lon="1.29692">
        <ele>165</ele>
        <time>2024-07-30T09:16:33Z</time>
      </trkpt>
      <trkpt lat="43.56731" lon="1.29688">
        <ele>164.8</ele>
        <time>2024-07-30T09:16:34Z</time>
      </trkpt>
      <trkpt lat="43.56735" lon="1.29685">
        <ele>164.8</ele>
        <time>2024-07-30T09:16:35Z</time>
      </trkpt>
      <trkpt lat="43.5674" lon="1.2968">
        <ele>165</ele>
        <time>2024-07-30T09:16:36Z</time>
      </trkpt>
      <trkpt lat="43.56747" lon="1.29675">
        <ele>164.6</ele>
        <time>2024-07-30T09:16:37Z</time>
      </trkpt>
      <trkpt lat="43.56752" lon="1.2967">
        <ele>164.8</ele>
        <time>2024-07-30T09:16:38Z</time>
      </trkpt>
      <trkpt lat="43.56758" lon="1.29666">
        <ele>164.8</ele>
        <time>2024-07-30T09:16:39Z</time>
      </trkpt>
      <trkpt lat="43.56763" lon="1.29661">
        <ele>164.4</ele>
        <time>2024-07-30T09:16:40Z</time>
      </trkpt>
      <trkpt lat="43.56768" lon="1.29658">
        <ele>164.4</ele>
        <time>2024-07-30T09:16:41Z</time>
      </trkpt>
      <trkpt lat="43.56774" lon="1.29652">
        <ele>164.4</ele>
        <time>2024-07-30T09:16:42Z</time>
      </trkpt>
      <trkpt lat="43.5678" lon="1.29648">
        <ele>164.4</ele>
        <time>2024-07-30T09:16:43Z</time>
      </trkpt>
      <trkpt lat="43.56785" lon="1.29644">
        <ele>164.4</ele>
        <time>2024-07-30T09:16:44Z</time>
      </trkpt>
      <trkpt lat="43.56791" lon="1.2964">
        <ele>164.4</ele>
        <time>2024-07-30T09:16:45Z</time>
      </trkpt>
      <trkpt lat="43.56795" lon="1.29636">
        <ele>164.6</ele>
        <time>2024-07-30T09:16:46Z</time>
      </trkpt>
      <trkpt lat="43.56802" lon="1.29632">
        <ele>164.6</ele>
        <time>2024-07-30T09:16:47Z</time>
      </trkpt>
      <trkpt lat="43.56807" lon="1.29628">
        <ele>164.6</ele>
        <time>2024-07-30T09:16:48Z</time>
      </trkpt>
      <trkpt lat="43.56813" lon="1.29625">
        <ele>164.6</ele>
        <time>2024-07-30T09:16:49Z</time>
      </trkpt>
      <trkpt lat="43.56818" lon="1.2962">
        <ele>164.8</ele>
        <time>2024-07-30T09:16:50Z</time>
      </trkpt>
      <trkpt lat="43.56824" lon="1.29616">
        <ele>164.8</ele>
        <time>2024-07-30T09:16:51Z</time>
      </trkpt>
      <trkpt lat="43.56829" lon="1.29611">
        <ele>164.8</ele>
        <time>2024-07-30T09:16:52Z</time>
      </trkpt>
      <trkpt lat="43.56834" lon="1.29607">
        <ele>165</ele>
        <time>2024-07-30T09:16:53Z</time>
      </trkpt>
      <trkpt lat="43.56839" lon="1.29602">
        <ele>165</ele>
        <time>2024-07-30T09:16:54Z</time>
      </trkpt>
      <trkpt lat="43.56843" lon="1.29598">
        <ele>165.2</ele>
        <time>2024-07-30T09:16:55Z</time>
      </trkpt>
      <trkpt lat="43.56849" lon="1.29593">
        <ele>165.2</ele>
        <time>2024-07-30T09:16:56Z</time>
      </trkpt>
      <trkpt lat="43.56854" lon="1.29588">
        <ele>165.2</ele>
        <time>2024-07-30T09:16:57Z</time>
      </trkpt>
      <trkpt lat="43.56859" lon="1.29584">
        <ele>165.2</ele>
        <time>2024-07-30T09:16:58Z</time>
      </trkpt>
      <trkpt lat="43.56864" lon="1.2958">
        <ele>165.4</ele>
        <time>2024-07-30T09:16:59Z</time>
      </trkpt>
      <trkpt lat="43.56868" lon="1.29576">
        <ele>165.4</ele>
        <time>2024-07-30T09:17:00Z</time>
      </trkpt>
      <trkpt lat="43.56873" lon="1.29571">
        <ele>165.4</ele>
        <time>2024-07-30T09:17:01Z</time>
      </trkpt>
      <trkpt lat="43.56876" lon="1.29567">
        <ele>165.6</ele>
        <time>2024-07-30T09:17:02Z</time>
      </trkpt>
      <trkpt lat="43.5688" lon="1.29563">
        <ele>165.6</ele>
        <time>2024-07-30T09:17:03Z</time>
      </trkpt>
      <trkpt lat="43.56883" lon="1.2956">
        <ele>165.8</ele>
        <time>2024-07-30T09:17:04Z</time>
      </trkpt>
      <trkpt lat="43.56885" lon="1.29558">
        <ele>165.8</ele>
        <time>2024-07-30T09:17:05Z</time>
      </trkpt>
      <trkpt lat="43.56887" lon="1.29555">
        <ele>165.8</ele>
        <time>2024-07-30T09:17:06Z</time>
      </trkpt>
      <trkpt lat="43.56888" lon="1.29554">
        <ele>166</ele>
        <time>2024-07-30T09:17:07Z</time>
      </trkpt>
      <trkpt lat="43.56889" lon="1.29554">
        <ele>166</ele>
        <time>2024-07-30T09:17:08Z</time>
      </trkpt>
      <trkpt lat="43.5689" lon="1.29554">
        <ele>166.2</ele>
        <time>2024-07-30T09:17:09Z</time>
      </trkpt>
      <trkpt lat="43.5689" lon="1.29554">
        <ele>166.2</ele>
        <time>2024-07-30T09:17:10Z</time>
      </trkpt>
      <trkpt lat="43.5689" lon="1.29554">
        <ele>166.4</ele>
        <time>2024-07-30T09:17:11Z</time>
      </trkpt>
      <trkpt lat="43.56894" lon="1.29549">
        <ele>166.2</ele>
        <time>2024-07-30T09:17:22Z</time>
      </trkpt>
      <trkpt lat="43.56896" lon="1.29547">
        <ele>166.2</ele>
        <time>2024-07-30T09:17:23Z</time>
      </trkpt>
      <trkpt lat="43.56899" lon="1.29545">
        <ele>166</ele>
        <time>2024-07-30T09:17:24Z</time>
      </trkpt>
      <trkpt lat="43.56901" lon="1.29542">
        <ele>166</ele>
        <time>2024-07-30T09:17:25Z</time>
      </trkpt>
      <trkpt lat="43.56904" lon="1.29539">
        <ele>166</ele>
        <time>2024-07-30T09:17:26Z</time>
      </trkpt>
      <trkpt lat="43.56908" lon="1.29535">
        <ele>166</ele>
        <time>2024-07-30T09:17:27Z</time>
      </trkpt>
      <trkpt lat="43.56911" lon="1.29532">
        <ele>166</ele>
        <time>2024-07-30T09:17:28Z</time>
      </trkpt>
      <trkpt lat="43.56915" lon="1.29529">
        <ele>166</ele>
        <time>2024-07-30T09:17:29Z</time>
      </trkpt>
      <trkpt lat="43.56919" lon="1.29525">
        <ele>166</ele>
        <time>2024-07-30T09:17:30Z</time>
      </trkpt>
      <trkpt lat="43.56923" lon="1.29521">
        <ele>166</ele>
        <time>2024-07-30T09:17:31Z</time>
      </trkpt>
      <trkpt lat="43.56927" lon="1.29517">
        <ele>166</ele>
        <time>2024-07-30T09:17:32Z</time>
      </trkpt>
      <trkpt lat="43.56932" lon="1.29513">
        <ele>166</ele>
        <time>2024-07-30T09:17:33Z</time>
      </trkpt>
      <trkpt lat="43.56937" lon="1.29509">
        <ele>166.2</ele>
        <time>2024-07-30T09:17:34Z</time>
      </trkpt>
      <trkpt lat="43.56941" lon="1.29504">
        <ele>166.2</ele>
        <time>2024-07-30T09:17:35Z</time>
      </trkpt>
      <trkpt lat="43.56945" lon="1.295">
        <ele>166.2</ele>
        <time>2024-07-30T09:17:36Z</time>
      </trkpt>
      <trkpt lat="43.5695" lon="1.29495">
        <ele>166.2</ele>
        <time>2024-07-30T09:17:37Z</time>
      </trkpt>
      <trkpt lat="43.56954" lon="1.29491">
        <ele>166.2</ele>
        <time>2024-07-30T09:17:38Z</time>
      </trkpt>
      <trkpt lat="43.56958" lon="1.29486">
        <ele>166.4</ele>
        <time>2024-07-30T09:17:39Z</time>
      </trkpt>
      <trkpt lat="43.56963" lon="1.29482">
        <ele>166.6</ele>
        <time>2024-07-30T09:17:40Z</time>
      </trkpt>
      <trkpt lat="43.56968" lon="1.29477">
        <ele>166.6</ele>
        <time>2024-07-30T09:17:41Z</time>
      </trkpt>
      <trkpt lat="43.56972" lon="1.29473">
        <ele>166.8</ele>
        <time>2024-07-30T09:17:42Z</time>
      </trkpt>
      <trkpt lat="43.56977" lon="1.2947">
        <ele>166.8</ele>
        <time>2024-07-30T09:17:43Z</time>
      </trkpt>
      <trkpt lat="43.56982" lon="1.29465">
        <ele>167</ele>
        <time>2024-07-30T09:17:44Z</time>
      </trkpt>
      <trkpt lat="43.56986" lon="1.29462">
        <ele>167</ele>
        <time>2024-07-30T09:17:45Z</time>
      </trkpt>
      <trkpt lat="43.56991" lon="1.29456">
        <ele>167</ele>
        <time>2024-07-30T09:17:46Z</time>
      </trkpt>
      <trkpt lat="43.56996" lon="1.29452">
        <ele>167</ele>
        <time>2024-07-30T09:17:47Z</time>
      </trkpt>
      <trkpt lat="43.57001" lon="1.29447">
        <ele>167.2</ele>
        <time>2024-07-30T09:17:48Z</time>
      </trkpt>
      <trkpt lat="43.57006" lon="1.29442">
        <ele>167.4</ele>
        <time>2024-07-30T09:17:49Z</time>
      </trkpt>
      <trkpt lat="43.5701" lon="1.29438">
        <ele>167.4</ele>
        <time>2024-07-30T09:17:50Z</time>
      </trkpt>
      <trkpt lat="43.57015" lon="1.29433">
        <ele>167.6</ele>
        <time>2024-07-30T09:17:51Z</time>
      </trkpt>
      <trkpt lat="43.5702" lon="1.29429">
        <ele>167.8</ele>
        <time>2024-07-30T09:17:52Z</time>
      </trkpt>
      <trkpt lat="43.57025" lon="1.29425">
        <ele>168</ele>
        <time>2024-07-30T09:17:53Z</time>
      </trkpt>
      <trkpt lat="43.5703" lon="1.2942">
        <ele>168</ele>
        <time>2024-07-30T09:17:54Z</time>
      </trkpt>
      <trkpt lat="43.57035" lon="1.29415">
        <ele>168.2</ele>
        <time>2024-07-30T09:17:55Z</time>
      </trkpt>
      <trkpt lat="43.5704" lon="1.29411">
        <ele>168.4</ele>
        <time>2024-07-30T09:17:56Z</time>
      </trkpt>
      <trkpt lat="43.57045" lon="1.29406">
        <ele>168.4</ele>
        <time>2024-07-30T09:17:57Z</time>
      </trkpt>
      <trkpt lat="43.5705" lon="1.29401">
        <ele>168.6</ele>
        <time>2024-07-30T09:17:58Z</time>
      </trkpt>
      <trkpt lat="43.57055" lon="1.29396">
        <ele>168.6</ele>
        <time>2024-07-30T09:17:59Z</time>
      </trkpt>
      <trkpt lat="43.5706" lon="1.29391">
        <ele>168.8</ele>
        <time>2024-07-30T09:18:00Z</time>
      </trkpt>
      <trkpt lat="43.57065" lon="1.29386">
        <ele>168.8</ele>
        <time>2024-07-30T09:18:01Z</time>
      </trkpt>
      <trkpt lat="43.57069" lon="1.29382">
        <ele>169</ele>
        <time>2024-07-30T09:18:02Z</time>
      </trkpt>
      <trkpt lat="43.57074" lon="1.29377">
        <ele>169.2</ele>
        <time>2024-07-30T09:18:03Z</time>
      </trkpt>
      <trkpt lat="43.57079" lon="1.29372">
        <ele>169.2</ele>
        <time>2024-07-30T09:18:04Z</time>
      </trkpt>
      <trkpt lat="43.57084" lon="1.29367">
        <ele>169.4</ele>
        <time>2024-07-30T09:18:05Z</time>
      </trkpt>
      <trkpt lat="43.5709" lon="1.29363">
        <ele>169.4</ele>
        <time>2024-07-30T09:18:06Z</time>
      </trkpt>
      <trkpt lat="43.57095" lon="1.29358">
        <ele>169.6</ele>
        <time>2024-07-30T09:18:07Z</time>
      </trkpt>
      <trkpt lat="43.571" lon="1.29354">
        <ele>169.6</ele>
        <time>2024-07-30T09:18:08Z</time>
      </trkpt>
      <trkpt lat="43.57105" lon="1.2935">
        <ele>169.8</ele>
        <time>2024-07-30T09:18:09Z</time>
      </trkpt>
      <trkpt lat="43.5711" lon="1.29346">
        <ele>170</ele>
        <time>2024-07-30T09:18:10Z</time>
      </trkpt>
      <trkpt lat="43.57116" lon="1.29342">
        <ele>170</ele>
        <time>2024-07-30T09:18:11Z</time>
      </trkpt>
      <trkpt lat="43.57121" lon="1.29338">
        <ele>170.4</ele>
        <time>2024-07-30T09:18:12Z</time>
      </trkpt>
      <trkpt lat="43.57126" lon="1.29335">
        <ele>170.8</ele>
        <time>2024-07-30T09:18:13Z</time>
      </trkpt>
      <trkpt lat="43.57131" lon="1.29331">
        <ele>170.8</ele>
        <time>2024-07-30T09:18:14Z</time>
      </trkpt>
      <trkpt lat="43.57136" lon="1.29328">
        <ele>171</ele>
        <time>2024-07-30T09:18:15Z</time>
      </trkpt>
      <trkpt lat="43.57142" lon="1.29324">
        <ele>171</ele>
        <time>2024-07-30T09:18:16Z</time>
      </trkpt>
      <trkpt lat="43.57146" lon="1.29322">
        <ele>171.2</ele>
        <time>2024-07-30T09:18:17Z</time>
      </trkpt>
      <trkpt lat="43.57152" lon="1.29317">
        <ele>171.4</ele>
        <time>2024-07-30T09:18:18Z</time>
      </trkpt>
      <trkpt lat="43.57158" lon="1.29314">
        <ele>171.6</ele>
        <time>2024-07-30T09:18:19Z</time>
      </trkpt>
      <trkpt lat="43.57163" lon="1.2931">
        <ele>171.6</ele>
        <time>2024-07-30T09:18:20Z</time>
      </trkpt>
      <trkpt lat="43.57169" lon="1.29306">
        <ele>171.8</ele>
        <time>2024-07-30T09:18:21Z</time>
      </trkpt>
      <trkpt lat="43.57174" lon="1.29302">
        <ele>172.4</ele>
        <time>2024-07-30T09:18:22Z</time>
      </trkpt>
      <trkpt lat="43.5718" lon="1.29299">
        <ele>172.4</ele>
        <time>2024-07-30T09:18:23Z</time>
      </trkpt>
      <trkpt lat="43.57185" lon="1.29295">
        <ele>172.8</ele>
        <time>2024-07-30T09:18:24Z</time>
      </trkpt>
      <trkpt lat="43.57191" lon="1.29291">
        <ele>173</ele>
        <time>2024-07-30T09:18:25Z</time>
      </trkpt>
      <trkpt lat="43.57196" lon="1.29287">
        <ele>173.2</ele>
        <time>2024-07-30T09:18:26Z</time>
      </trkpt>
      <trkpt lat="43.57202" lon="1.29283">
        <ele>173.6</ele>
        <time>2024-07-30T09:18:27Z</time>
      </trkpt>
      <trkpt lat="43.57207" lon="1.29279">
        <ele>173.8</ele>
        <time>2024-07-30T09:18:28Z</time>
      </trkpt>
      <trkpt lat="43.57212" lon="1.29275">
        <ele>174.2</ele>
        <time>2024-07-30T09:18:29Z</time>
      </trkpt>
      <trkpt lat="43.57217" lon="1.29271">
        <ele>174.4</ele>
        <time>2024-07-30T09:18:30Z</time>
      </trkpt>
      <trkpt lat="43.57223" lon="1.29268">
        <ele>174.6</ele>
        <time>2024-07-30T09:18:31Z</time>
      </trkpt>
      <trkpt lat="43.57229" lon="1.29264">
        <ele>174.8</ele>
        <time>2024-07-30T09:18:32Z</time>
      </trkpt>
      <trkpt lat="43.57234" lon="1.2926">
        <ele>174.8</ele>
        <time>2024-07-30T09:18:33Z</time>
      </trkpt>
      <trkpt lat="43.57239" lon="1.29256">
        <ele>175.2</ele>
        <time>2024-07-30T09:18:34Z</time>
      </trkpt>
      <trkpt lat="43.57244" lon="1.29252">
        <ele>175.4</ele>
        <time>2024-07-30T09:18:35Z</time>
      </trkpt>
      <trkpt lat="43.57249" lon="1.29248">
        <ele>175.8</ele>
        <time>2024-07-30T09:18:36Z</time>
      </trkpt>
      <trkpt lat="43.57255" lon="1.29244">
        <ele>176</ele>
        <time>2024-07-30T09:18:37Z</time>
      </trkpt>
      <trkpt lat="43.5726" lon="1.2924">
        <ele>176.2</ele>
        <time>2024-07-30T09:18:38Z</time>
      </trkpt>
      <trkpt lat="43.57265" lon="1.29237">
        <ele>176.4</ele>
        <time>2024-07-30T09:18:39Z</time>
      </trkpt>
      <trkpt lat="43.57269" lon="1.29233">
        <ele>176.6</ele>
        <time>2024-07-30T09:18:40Z</time>
      </trkpt>
      <trkpt lat="43.57274" lon="1.29229">
        <ele>177</ele>
        <time>2024-07-30T09:18:41Z</time>
      </trkpt>
      <trkpt lat="43.57279" lon="1.29225">
        <ele>177.2</ele>
        <time>2024-07-30T09:18:42Z</time>
      </trkpt>
      <trkpt lat="43.57284" lon="1.29222">
        <ele>177.2</ele>
        <time>2024-07-30T09:18:43Z</time>
      </trkpt>
      <trkpt lat="43.5729" lon="1.29219">
        <ele>177.4</ele>
        <time>2024-07-30T09:18:44Z</time>
      </trkpt>
      <trkpt lat="43.57295" lon="1.29216">
        <ele>177.6</ele>
        <time>2024-07-30T09:18:45Z</time>
      </trkpt>
      <trkpt lat="43.57301" lon="1.29213">
        <ele>178</ele>
        <time>2024-07-30T09:18:46Z</time>
      </trkpt>
      <trkpt lat="43.57306" lon="1.29211">
        <ele>178.2</ele>
        <time>2024-07-30T09:18:47Z</time>
      </trkpt>
      <trkpt lat="43.57311" lon="1.29208">
        <ele>178.6</ele>
        <time>2024-07-30T09:18:48Z</time>
      </trkpt>
      <trkpt lat="43.57316" lon="1.29206">
        <ele>178.8</ele>
        <time>2024-07-30T09:18:49Z</time>
      </trkpt>
      <trkpt lat="43.57321" lon="1.29203">
        <ele>179</ele>
        <time>2024-07-30T09:18:50Z</time>
      </trkpt>
      <trkpt lat="43.57326" lon="1.29201">
        <ele>179.2</ele>
        <time>2024-07-30T09:18:51Z</time>
      </trkpt>
      <trkpt lat="43.57331" lon="1.29198">
        <ele>179.2</ele>
        <time>2024-07-30T09:18:52Z</time>
      </trkpt>
      <trkpt lat="43.57337" lon="1.29196">
        <ele>179.4</ele>
        <time>2024-07-30T09:18:53Z</time>
      </trkpt>
      <trkpt lat="43.57342" lon="1.29194">
        <ele>179.8</ele>
        <time>2024-07-30T09:18:54Z</time>
      </trkpt>
      <trkpt lat="43.57346" lon="1.29192">
        <ele>180</ele>
        <time>2024-07-30T09:18:55Z</time>
      </trkpt>
      <trkpt lat="43.57351" lon="1.2919">
        <ele>180.4</ele>
        <time>2024-07-30T09:18:56Z</time>
      </trkpt>
      <trkpt lat="43.57357" lon="1.29188">
        <ele>180.6</ele>
        <time>2024-07-30T09:18:57Z</time>
      </trkpt>
      <trkpt lat="43.57362" lon="1.29186">
        <ele>180.8</ele>
        <time>2024-07-30T09:18:58Z</time>
      </trkpt>
      <trkpt lat="43.57367" lon="1.29185">
        <ele>181</ele>
        <time>2024-07-30T09:18:59Z</time>
      </trkpt>
      <trkpt lat="43.57374" lon="1.29183">
        <ele>181.2</ele>
        <time>2024-07-30T09:19:00Z</time>
      </trkpt>
      <trkpt lat="43.57381" lon="1.29182">
        <ele>181.6</ele>
        <time>2024-07-30T09:19:01Z</time>
      </trkpt>
      <trkpt lat="43.57386" lon="1.2918">
        <ele>181.6</ele>
        <time>2024-07-30T09:19:02Z</time>
      </trkpt>
      <trkpt lat="43.57392" lon="1.29178">
        <ele>181.8</ele>
        <time>2024-07-30T09:19:03Z</time>
      </trkpt>
      <trkpt lat="43.57398" lon="1.29177">
        <ele>182</ele>
        <time>2024-07-30T09:19:04Z</time>
      </trkpt>
      <trkpt lat="43.57404" lon="1.29175">
        <ele>182</ele>
        <time>2024-07-30T09:19:05Z</time>
      </trkpt>
      <trkpt lat="43.5741" lon="1.29172">
        <ele>182</ele>
        <time>2024-07-30T09:19:06Z</time>
      </trkpt>
      <trkpt lat="43.57416" lon="1.29169">
        <ele>182.2</ele>
        <time>2024-07-30T09:19:07Z</time>
      </trkpt>
      <trkpt lat="43.57422" lon="1.29166">
        <ele>182.4</ele>
        <time>2024-07-30T09:19:08Z</time>
      </trkpt>
      <trkpt lat="43.57428" lon="1.29163">
        <ele>182.4</ele>
        <time>2024-07-30T09:19:09Z</time>
      </trkpt>
      <trkpt lat="43.57433" lon="1.2916">
        <ele>182.8</ele>
        <time>2024-07-30T09:19:10Z</time>
      </trkpt>
      <trkpt lat="43.57437" lon="1.29157">
        <ele>183</ele>
        <time>2024-07-30T09:19:11Z</time>
      </trkpt>
      <trkpt lat="43.57443" lon="1.29153">
        <ele>183.2</ele>
        <time>2024-07-30T09:19:12Z</time>
      </trkpt>
      <trkpt lat="43.57448" lon="1.2915">
        <ele>183.4</ele>
        <time>2024-07-30T09:19:13Z</time>
      </trkpt>
      <trkpt lat="43.57454" lon="1.29146">
        <ele>183.6</ele>
        <time>2024-07-30T09:19:14Z</time>
      </trkpt>
      <trkpt lat="43.57459" lon="1.29142">
        <ele>184.2</ele>
        <time>2024-07-30T09:19:15Z</time>
      </trkpt>
      <trkpt lat="43.57464" lon="1.29138">
        <ele>184.4</ele>
        <time>2024-07-30T09:19:16Z</time>
      </trkpt>
      <trkpt lat="43.57469" lon="1.29134">
        <ele>184.6</ele>
        <time>2024-07-30T09:19:17Z</time>
      </trkpt>
      <trkpt lat="43.57474" lon="1.29131">
        <ele>184.8</ele>
        <time>2024-07-30T09:19:18Z</time>
      </trkpt>
      <trkpt lat="43.57478" lon="1.29129">
        <ele>184.8</ele>
        <time>2024-07-30T09:19:19Z</time>
      </trkpt>
      <trkpt lat="43.57481" lon="1.29127">
        <ele>185</ele>
        <time>2024-07-30T09:19:20Z</time>
      </trkpt>
      <trkpt lat="43.57483" lon="1.29126">
        <ele>185.4</ele>
        <time>2024-07-30T09:19:21Z</time>
      </trkpt>
      <trkpt lat="43.57484" lon="1.29126">
        <ele>185.8</ele>
        <time>2024-07-30T09:19:22Z</time>
      </trkpt>
      <trkpt lat="43.57484" lon="1.29126">
        <ele>186</ele>
        <time>2024-07-30T09:19:23Z</time>
      </trkpt>
      <trkpt lat="43.57484" lon="1.29126">
        <ele>186</ele>
        <time>2024-07-30T09:19:24Z</time>
      </trkpt>
      <trkpt lat="43.57487" lon="1.29124">
        <ele>186.6</ele>
        <time>2024-07-30T09:19:52Z</time>
      </trkpt>
      <trkpt lat="43.5749" lon="1.29123">
        <ele>186.6</ele>
        <time>2024-07-30T09:19:53Z</time>
      </trkpt>
      <trkpt lat="43.57492" lon="1.29121">
        <ele>186.6</ele>
        <time>2024-07-30T09:19:54Z</time>
      </trkpt>
      <trkpt lat="43.57495" lon="1.2912">
        <ele>186.6</ele>
        <time>2024-07-30T09:19:55Z</time>
      </trkpt>
      <trkpt lat="43.57499" lon="1.29118">
        <ele>186.6</ele>
        <time>2024-07-30T09:19:56Z</time>
      </trkpt>
      <trkpt lat="43.57502" lon="1.29116">
        <ele>186.6</ele>
        <time>2024-07-30T09:19:57Z</time>
      </trkpt>
      <trkpt lat="43.57506" lon="1.29114">
        <ele>186.6</ele>
        <time>2024-07-30T09:19:58Z</time>
      </trkpt>
      <trkpt lat="43.5751" lon="1.29113">
        <ele>186.6</ele>
        <time>2024-07-30T09:19:59Z</time>
      </trkpt>
      <trkpt lat="43.57514" lon="1.29112">
        <ele>186.6</ele>
        <time>2024-07-30T09:20:00Z</time>
      </trkpt>
      <trkpt lat="43.57517" lon="1.29112">
        <ele>186.6</ele>
        <time>2024-07-30T09:20:01Z</time>
      </trkpt>
      <trkpt lat="43.57521" lon="1.2911">
        <ele>186.6</ele>
        <time>2024-07-30T09:20:02Z</time>
      </trkpt>
      <trkpt lat="43.57524" lon="1.29108">
        <ele>186.6</ele>
        <time>2024-07-30T09:20:03Z</time>
      </trkpt>
      <trkpt lat="43.57528" lon="1.29106">
        <ele>187</ele>
        <time>2024-07-30T09:20:04Z</time>
      </trkpt>
      <trkpt lat="43.57532" lon="1.29104">
        <ele>187</ele>
        <time>2024-07-30T09:20:05Z</time>
      </trkpt>
      <trkpt lat="43.57536" lon="1.29103">
        <ele>187.2</ele>
        <time>2024-07-30T09:20:06Z</time>
      </trkpt>
      <trkpt lat="43.57541" lon="1.29102">
        <ele>187.2</ele>
        <time>2024-07-30T09:20:07Z</time>
      </trkpt>
      <trkpt lat="43.57546" lon="1.291">
        <ele>187.4</ele>
        <time>2024-07-30T09:20:08Z</time>
      </trkpt>
      <trkpt lat="43.57552" lon="1.29099">
        <ele>187.6</ele>
        <time>2024-07-30T09:20:09Z</time>
      </trkpt>
      <trkpt lat="43.57557" lon="1.29099">
        <ele>187.6</ele>
        <time>2024-07-30T09:20:10Z</time>
      </trkpt>
      <trkpt lat="43.57563" lon="1.29098">
        <ele>187.8</ele>
        <time>2024-07-30T09:20:11Z</time>
      </trkpt>
      <trkpt lat="43.57568" lon="1.29097">
        <ele>187.8</ele>
        <time>2024-07-30T09:20:12Z</time>
      </trkpt>
      <trkpt lat="43.57574" lon="1.29096">
        <ele>188</ele>
        <time>2024-07-30T09:20:13Z</time>
      </trkpt>
      <trkpt lat="43.5758" lon="1.29095">
        <ele>188</ele>
        <time>2024-07-30T09:20:14Z</time>
      </trkpt>
      <trkpt lat="43.57586" lon="1.29095">
        <ele>188.2</ele>
        <time>2024-07-30T09:20:15Z</time>
      </trkpt>
      <trkpt lat="43.57592" lon="1.29094">
        <ele>188.2</ele>
        <time>2024-07-30T09:20:16Z</time>
      </trkpt>
      <trkpt lat="43.57598" lon="1.29094">
        <ele>188.2</ele>
        <time>2024-07-30T09:20:17Z</time>
      </trkpt>
      <trkpt lat="43.57605" lon="1.29093">
        <ele>188.2</ele>
        <time>2024-07-30T09:20:18Z</time>
      </trkpt>
      <trkpt lat="43.57611" lon="1.29093">
        <ele>188.2</ele>
        <time>2024-07-30T09:20:19Z</time>
      </trkpt>
      <trkpt lat="43.57618" lon="1.29093">
        <ele>188.2</ele>
        <time>2024-07-30T09:20:20Z</time>
      </trkpt>
      <trkpt lat="43.57624" lon="1.29092">
        <ele>188.2</ele>
        <time>2024-07-30T09:20:21Z</time>
      </trkpt>
      <trkpt lat="43.57631" lon="1.29092">
        <ele>188.2</ele>
        <time>2024-07-30T09:20:22Z</time>
      </trkpt>
      <trkpt lat="43.57638" lon="1.29092">
        <ele>188.2</ele>
        <time>2024-07-30T09:20:23Z</time>
      </trkpt>
      <trkpt lat="43.57645" lon="1.29092">
        <ele>188.2</ele>
        <time>2024-07-30T09:20:24Z</time>
      </trkpt>
      <trkpt lat="43.57651" lon="1.29091">
        <ele>188.2</ele>
        <time>2024-07-30T09:20:25Z</time>
      </trkpt>
      <trkpt lat="43.57658" lon="1.29091">
        <ele>188.2</ele>
        <time>2024-07-30T09:20:26Z</time>
      </trkpt>
      <trkpt lat="43.57665" lon="1.29091">
        <ele>188.2</ele>
        <time>2024-07-30T09:20:27Z</time>
      </trkpt>
      <trkpt lat="43.57672" lon="1.29091">
        <ele>188.2</ele>
        <time>2024-07-30T09:20:28Z</time>
      </trkpt>
      <trkpt lat="43.5768" lon="1.29091">
        <ele>188.2</ele>
        <time>2024-07-30T09:20:29Z</time>
      </trkpt>
      <trkpt lat="43.57687" lon="1.2909">
        <ele>188.2</ele>
        <time>2024-07-30T09:20:30Z</time>
      </trkpt>
      <trkpt lat="43.57694" lon="1.2909">
        <ele>188.2</ele>
        <time>2024-07-30T09:20:31Z</time>
      </trkpt>
      <trkpt lat="43.57701" lon="1.29091">
        <ele>188.2</ele>
        <time>2024-07-30T09:20:32Z</time>
      </trkpt>
      <trkpt lat="43.57708" lon="1.29091">
        <ele>188.2</ele>
        <time>2024-07-30T09:20:33Z</time>
      </trkpt>
      <trkpt lat="43.57715" lon="1.29091">
        <ele>188.2</ele>
        <time>2024-07-30T09:20:34Z</time>
      </trkpt>
      <trkpt lat="43.57722" lon="1.29091">
        <ele>188.4</ele>
        <time>2024-07-30T09:20:35Z</time>
      </trkpt>
      <trkpt lat="43.57729" lon="1.29091">
        <ele>188.2</ele>
        <time>2024-07-30T09:20:36Z</time>
      </trkpt>
      <trkpt lat="43.57736" lon="1.2909">
        <ele>188.2</ele>
        <time>2024-07-30T09:20:37Z</time>
      </trkpt>
      <trkpt lat="43.57744" lon="1.2909">
        <ele>188.2</ele>
        <time>2024-07-30T09:20:38Z</time>
      </trkpt>
      <trkpt lat="43.57751" lon="1.2909">
        <ele>188.2</ele>
        <time>2024-07-30T09:20:39Z</time>
      </trkpt>
      <trkpt lat="43.57758" lon="1.2909">
        <ele>188.2</ele>
        <time>2024-07-30T09:20:40Z</time>
      </trkpt>
      <trkpt lat="43.57765" lon="1.2909">
        <ele>188.2</ele>
        <time>2024-07-30T09:20:41Z</time>
      </trkpt>
      <trkpt lat="43.57772" lon="1.2909">
        <ele>188.2</ele>
        <time>2024-07-30T09:20:42Z</time>
      </trkpt>
      <trkpt lat="43.57779" lon="1.2909">
        <ele>188.2</ele>
        <time>2024-07-30T09:20:43Z</time>
      </trkpt>
      <trkpt lat="43.57784" lon="1.2909">
        <ele>188.2</ele>
        <time>2024-07-30T09:20:44Z</time>
      </trkpt>
      <trkpt lat="43.57793" lon="1.29089">
        <ele>188</ele>
        <time>2024-07-30T09:20:45Z</time>
      </trkpt>
      <trkpt lat="43.578" lon="1.29088">
        <ele>188</ele>
        <time>2024-07-30T09:20:46Z</time>
      </trkpt>
      <trkpt lat="43.57807" lon="1.29088">
        <ele>188</ele>
        <time>2024-07-30T09:20:47Z</time>
      </trkpt>
      <trkpt lat="43.57814" lon="1.29087">
        <ele>187.8</ele>
        <time>2024-07-30T09:20:48Z</time>
      </trkpt>
      <trkpt lat="43.57821" lon="1.29086">
        <ele>187.8</ele>
        <time>2024-07-30T09:20:49Z</time>
      </trkpt>
      <trkpt lat="43.57828" lon="1.29084">
        <ele>187.6</ele>
        <time>2024-07-30T09:20:50Z</time>
      </trkpt>
      <trkpt lat="43.57836" lon="1.29083">
        <ele>187.6</ele>
        <time>2024-07-30T09:20:51Z</time>
      </trkpt>
      <trkpt lat="43.57843" lon="1.29081">
        <ele>187.6</ele>
        <time>2024-07-30T09:20:52Z</time>
      </trkpt>
      <trkpt lat="43.57849" lon="1.2908">
        <ele>187.6</ele>
        <time>2024-07-30T09:20:53Z</time>
      </trkpt>
      <trkpt lat="43.57856" lon="1.29078">
        <ele>187.6</ele>
        <time>2024-07-30T09:20:54Z</time>
      </trkpt>
      <trkpt lat="43.57865" lon="1.29076">
        <ele>187.4</ele>
        <time>2024-07-30T09:20:55Z</time>
      </trkpt>
      <trkpt lat="43.57872" lon="1.29074">
        <ele>187.4</ele>
        <time>2024-07-30T09:20:56Z</time>
      </trkpt>
      <trkpt lat="43.57879" lon="1.29072">
        <ele>187.4</ele>
        <time>2024-07-30T09:20:57Z</time>
      </trkpt>
      <trkpt lat="43.57886" lon="1.29071">
        <ele>187.4</ele>
        <time>2024-07-30T09:20:58Z</time>
      </trkpt>
      <trkpt lat="43.57893" lon="1.29069">
        <ele>187.4</ele>
        <time>2024-07-30T09:20:59Z</time>
      </trkpt>
      <trkpt lat="43.57901" lon="1.29067">
        <ele>187.4</ele>
        <time>2024-07-30T09:21:00Z</time>
      </trkpt>
      <trkpt lat="43.57908" lon="1.29066">
        <ele>187.4</ele>
        <time>2024-07-30T09:21:01Z</time>
      </trkpt>
      <trkpt lat="43.57916" lon="1.29064">
        <ele>187.4</ele>
        <time>2024-07-30T09:21:02Z</time>
      </trkpt>
      <trkpt lat="43.57923" lon="1.29062">
        <ele>187.4</ele>
        <time>2024-07-30T09:21:03Z</time>
      </trkpt>
      <trkpt lat="43.57931" lon="1.2906">
        <ele>187.4</ele>
        <time>2024-07-30T09:21:04Z</time>
      </trkpt>
      <trkpt lat="43.57938" lon="1.29058">
        <ele>187.4</ele>
        <time>2024-07-30T09:21:05Z</time>
      </trkpt>
      <trkpt lat="43.57946" lon="1.29056">
        <ele>187.4</ele>
        <time>2024-07-30T09:21:06Z</time>
      </trkpt>
      <trkpt lat="43.57953" lon="1.29054">
        <ele>187.4</ele>
        <time>2024-07-30T09:21:07Z</time>
      </trkpt>
      <trkpt lat="43.57959" lon="1.29052">
        <ele>187.4</ele>
        <time>2024-07-30T09:21:08Z</time>
      </trkpt>
      <trkpt lat="43.57967" lon="1.29048">
        <ele>187.4</ele>
        <time>2024-07-30T09:21:09Z</time>
      </trkpt>
      <trkpt lat="43.57975" lon="1.29046">
        <ele>187.4</ele>
        <time>2024-07-30T09:21:10Z</time>
      </trkpt>
      <trkpt lat="43.57982" lon="1.29043">
        <ele>187.4</ele>
        <time>2024-07-30T09:21:11Z</time>
      </trkpt>
      <trkpt lat="43.57989" lon="1.2904">
        <ele>187.4</ele>
        <time>2024-07-30T09:21:12Z</time>
      </trkpt>
      <trkpt lat="43.57997" lon="1.29037">
        <ele>187.4</ele>
        <time>2024-07-30T09:21:13Z</time>
      </trkpt>
      <trkpt lat="43.58004" lon="1.29035">
        <ele>187.2</ele>
        <time>2024-07-30T09:21:14Z</time>
      </trkpt>
      <trkpt lat="43.58011" lon="1.29032">
        <ele>187.2</ele>
        <time>2024-07-30T09:21:15Z</time>
      </trkpt>
      <trkpt lat="43.58018" lon="1.29029">
        <ele>187.2</ele>
        <time>2024-07-30T09:21:16Z</time>
      </trkpt>
      <trkpt lat="43.58025" lon="1.29027">
        <ele>187.2</ele>
        <time>2024-07-30T09:21:17Z</time>
      </trkpt>
      <trkpt lat="43.58033" lon="1.29025">
        <ele>187.2</ele>
        <time>2024-07-30T09:21:18Z</time>
      </trkpt>
      <trkpt lat="43.5804" lon="1.29022">
        <ele>187.4</ele>
        <time>2024-07-30T09:21:19Z</time>
      </trkpt>
      <trkpt lat="43.58048" lon="1.29021">
        <ele>187.4</ele>
        <time>2024-07-30T09:21:20Z</time>
      </trkpt>
      <trkpt lat="43.58055" lon="1.29018">
        <ele>187.4</ele>
        <time>2024-07-30T09:21:21Z</time>
      </trkpt>
      <trkpt lat="43.58062" lon="1.29016">
        <ele>187.4</ele>
        <time>2024-07-30T09:21:22Z</time>
      </trkpt>
      <trkpt lat="43.58069" lon="1.29014">
        <ele>187.4</ele>
        <time>2024-07-30T09:21:23Z</time>
      </trkpt>
      <trkpt lat="43.58077" lon="1.29012">
        <ele>187.6</ele>
        <time>2024-07-30T09:21:24Z</time>
      </trkpt>
      <trkpt lat="43.58084" lon="1.2901">
        <ele>187.6</ele>
        <time>2024-07-30T09:21:25Z</time>
      </trkpt>
      <trkpt lat="43.58091" lon="1.29008">
        <ele>187.6</ele>
        <time>2024-07-30T09:21:26Z</time>
      </trkpt>
      <trkpt lat="43.58098" lon="1.29006">
        <ele>187.6</ele>
        <time>2024-07-30T09:21:27Z</time>
      </trkpt>
      <trkpt lat="43.58106" lon="1.29004">
        <ele>187.6</ele>
        <time>2024-07-30T09:21:28Z</time>
      </trkpt>
      <trkpt lat="43.58113" lon="1.29002">
        <ele>187.4</ele>
        <time>2024-07-30T09:21:29Z</time>
      </trkpt>
      <trkpt lat="43.5812" lon="1.29">
        <ele>187.4</ele>
        <time>2024-07-30T09:21:30Z</time>
      </trkpt>
      <trkpt lat="43.58128" lon="1.28998">
        <ele>187.4</ele>
        <time>2024-07-30T09:21:31Z</time>
      </trkpt>
      <trkpt lat="43.58135" lon="1.28996">
        <ele>187.4</ele>
        <time>2024-07-30T09:21:32Z</time>
      </trkpt>
      <trkpt lat="43.58142" lon="1.28993">
        <ele>187.4</ele>
        <time>2024-07-30T09:21:33Z</time>
      </trkpt>
      <trkpt lat="43.58149" lon="1.28991">
        <ele>187.2</ele>
        <time>2024-07-30T09:21:34Z</time>
      </trkpt>
      <trkpt lat="43.58156" lon="1.28989">
        <ele>187.2</ele>
        <time>2024-07-30T09:21:35Z</time>
      </trkpt>
      <trkpt lat="43.58164" lon="1.28987">
        <ele>187</ele>
        <time>2024-07-30T09:21:36Z</time>
      </trkpt>
      <trkpt lat="43.58171" lon="1.28985">
        <ele>187</ele>
        <time>2024-07-30T09:21:37Z</time>
      </trkpt>
      <trkpt lat="43.58178" lon="1.28983">
        <ele>187</ele>
        <time>2024-07-30T09:21:38Z</time>
      </trkpt>
      <trkpt lat="43.58185" lon="1.28981">
        <ele>187</ele>
        <time>2024-07-30T09:21:39Z</time>
      </trkpt>
      <trkpt lat="43.58193" lon="1.28979">
        <ele>186.8</ele>
        <time>2024-07-30T09:21:40Z</time>
      </trkpt>
      <trkpt lat="43.582" lon="1.28977">
        <ele>186.8</ele>
        <time>2024-07-30T09:21:41Z</time>
      </trkpt>
      <trkpt lat="43.58207" lon="1.28975">
        <ele>186.8</ele>
        <time>2024-07-30T09:21:42Z</time>
      </trkpt>
      <trkpt lat="43.58215" lon="1.28973">
        <ele>186.8</ele>
        <time>2024-07-30T09:21:43Z</time>
      </trkpt>
      <trkpt lat="43.58222" lon="1.28971">
        <ele>186.8</ele>
        <time>2024-07-30T09:21:44Z</time>
      </trkpt>
      <trkpt lat="43.58229" lon="1.28969">
        <ele>186.8</ele>
        <time>2024-07-30T09:21:45Z</time>
      </trkpt>
      <trkpt lat="43.58236" lon="1.28967">
        <ele>186.8</ele>
        <time>2024-07-30T09:21:46Z</time>
      </trkpt>
      <trkpt lat="43.58244" lon="1.28966">
        <ele>186.8</ele>
        <time>2024-07-30T09:21:47Z</time>
      </trkpt>
      <trkpt lat="43.58251" lon="1.28964">
        <ele>186.8</ele>
        <time>2024-07-30T09:21:48Z</time>
      </trkpt>
      <trkpt lat="43.58259" lon="1.28962">
        <ele>186.8</ele>
        <time>2024-07-30T09:21:49Z</time>
      </trkpt>
      <trkpt lat="43.58266" lon="1.2896">
        <ele>186.8</ele>
        <time>2024-07-30T09:21:50Z</time>
      </trkpt>
      <trkpt lat="43.58273" lon="1.28958">
        <ele>186.8</ele>
        <time>2024-07-30T09:21:51Z</time>
      </trkpt>
      <trkpt lat="43.5828" lon="1.28956">
        <ele>186.8</ele>
        <time>2024-07-30T09:21:52Z</time>
      </trkpt>
      <trkpt lat="43.58288" lon="1.28954">
        <ele>186.8</ele>
        <time>2024-07-30T09:21:53Z</time>
      </trkpt>
      <trkpt lat="43.58294" lon="1.28952">
        <ele>186.8</ele>
        <time>2024-07-30T09:21:54Z</time>
      </trkpt>
      <trkpt lat="43.58302" lon="1.28949">
        <ele>186.6</ele>
        <time>2024-07-30T09:21:55Z</time>
      </trkpt>
      <trkpt lat="43.5831" lon="1.28947">
        <ele>186.6</ele>
        <time>2024-07-30T09:21:56Z</time>
      </trkpt>
      <trkpt lat="43.58317" lon="1.28944">
        <ele>186.6</ele>
        <time>2024-07-30T09:21:57Z</time>
      </trkpt>
      <trkpt lat="43.58324" lon="1.28942">
        <ele>186.6</ele>
        <time>2024-07-30T09:21:58Z</time>
      </trkpt>
      <trkpt lat="43.58331" lon="1.28939">
        <ele>186.6</ele>
        <time>2024-07-30T09:21:59Z</time>
      </trkpt>
      <trkpt lat="43.58338" lon="1.28937">
        <ele>186.6</ele>
        <time>2024-07-30T09:22:00Z</time>
      </trkpt>
      <trkpt lat="43.58345" lon="1.28934">
        <ele>186.6</ele>
        <time>2024-07-30T09:22:01Z</time>
      </trkpt>
      <trkpt lat="43.58353" lon="1.28931">
        <ele>186.8</ele>
        <time>2024-07-30T09:22:02Z</time>
      </trkpt>
      <trkpt lat="43.58359" lon="1.2893">
        <ele>186.8</ele>
        <time>2024-07-30T09:22:03Z</time>
      </trkpt>
      <trkpt lat="43.58367" lon="1.28927">
        <ele>186.8</ele>
        <time>2024-07-30T09:22:04Z</time>
      </trkpt>
      <trkpt lat="43.58374" lon="1.28924">
        <ele>186.8</ele>
        <time>2024-07-30T09:22:05Z</time>
      </trkpt>
      <trkpt lat="43.58381" lon="1.28922">
        <ele>186.8</ele>
        <time>2024-07-30T09:22:06Z</time>
      </trkpt>
      <trkpt lat="43.58387" lon="1.2892">
        <ele>187</ele>
        <time>2024-07-30T09:22:07Z</time>
      </trkpt>
      <trkpt lat="43.58395" lon="1.28917">
        <ele>187</ele>
        <time>2024-07-30T09:22:08Z</time>
      </trkpt>
      <trkpt lat="43.58402" lon="1.28916">
        <ele>187</ele>
        <time>2024-07-30T09:22:09Z</time>
      </trkpt>
      <trkpt lat="43.58409" lon="1.28916">
        <ele>187</ele>
        <time>2024-07-30T09:22:10Z</time>
      </trkpt>
      <trkpt lat="43.58415" lon="1.28918">
        <ele>187</ele>
        <time>2024-07-30T09:22:11Z</time>
      </trkpt>
      <trkpt lat="43.58422" lon="1.2892">
        <ele>187</ele>
        <time>2024-07-30T09:22:12Z</time>
      </trkpt>
      <trkpt lat="43.58429" lon="1.28921">
        <ele>187</ele>
        <time>2024-07-30T09:22:13Z</time>
      </trkpt>
      <trkpt lat="43.58435" lon="1.28918">
        <ele>187</ele>
        <time>2024-07-30T09:22:14Z</time>
      </trkpt>
      <trkpt lat="43.58441" lon="1.28913">
        <ele>187</ele>
        <time>2024-07-30T09:22:15Z</time>
      </trkpt>
      <trkpt lat="43.58446" lon="1.28906">
        <ele>187</ele>
        <time>2024-07-30T09:22:16Z</time>
      </trkpt>
      <trkpt lat="43.58452" lon="1.289">
        <ele>186.8</ele>
        <time>2024-07-30T09:22:17Z</time>
      </trkpt>
      <trkpt lat="43.58458" lon="1.28895">
        <ele>186.8</ele>
        <time>2024-07-30T09:22:18Z</time>
      </trkpt>
      <trkpt lat="43.58465" lon="1.28892">
        <ele>186.8</ele>
        <time>2024-07-30T09:22:19Z</time>
      </trkpt>
      <trkpt lat="43.58471" lon="1.28889">
        <ele>186.8</ele>
        <time>2024-07-30T09:22:20Z</time>
      </trkpt>
      <trkpt lat="43.58478" lon="1.28887">
        <ele>186.8</ele>
        <time>2024-07-30T09:22:21Z</time>
      </trkpt>
      <trkpt lat="43.58485" lon="1.28885">
        <ele>186.8</ele>
        <time>2024-07-30T09:22:22Z</time>
      </trkpt>
      <trkpt lat="43.58492" lon="1.28883">
        <ele>186.8</ele>
        <time>2024-07-30T09:22:23Z</time>
      </trkpt>
      <trkpt lat="43.58499" lon="1.28882">
        <ele>186.8</ele>
        <time>2024-07-30T09:22:24Z</time>
      </trkpt>
      <trkpt lat="43.58506" lon="1.28883">
        <ele>186.8</ele>
        <time>2024-07-30T09:22:25Z</time>
      </trkpt>
      <trkpt lat="43.58514" lon="1.28884">
        <ele>186.8</ele>
        <time>2024-07-30T09:22:26Z</time>
      </trkpt>
      <trkpt lat="43.58521" lon="1.28885">
        <ele>186.6</ele>
        <time>2024-07-30T09:22:27Z</time>
      </trkpt>
      <trkpt lat="43.58528" lon="1.28888">
        <ele>186.6</ele>
        <time>2024-07-30T09:22:28Z</time>
      </trkpt>
      <trkpt lat="43.58535" lon="1.28892">
        <ele>186.6</ele>
        <time>2024-07-30T09:22:29Z</time>
      </trkpt>
      <trkpt lat="43.58541" lon="1.28896">
        <ele>186.6</ele>
        <time>2024-07-30T09:22:30Z</time>
      </trkpt>
      <trkpt lat="43.58548" lon="1.289">
        <ele>186.6</ele>
        <time>2024-07-30T09:22:31Z</time>
      </trkpt>
      <trkpt lat="43.58554" lon="1.28905">
        <ele>186.6</ele>
        <time>2024-07-30T09:22:32Z</time>
      </trkpt>
      <trkpt lat="43.58561" lon="1.2891">
        <ele>186.6</ele>
        <time>2024-07-30T09:22:33Z</time>
      </trkpt>
      <trkpt lat="43.58567" lon="1.28915">
        <ele>186.6</ele>
        <time>2024-07-30T09:22:34Z</time>
      </trkpt>
      <trkpt lat="43.58573" lon="1.2892">
        <ele>186.6</ele>
        <time>2024-07-30T09:22:35Z</time>
      </trkpt>
      <trkpt lat="43.5858" lon="1.28925">
        <ele>186.4</ele>
        <time>2024-07-30T09:22:36Z</time>
      </trkpt>
      <trkpt lat="43.58586" lon="1.2893">
        <ele>186.4</ele>
        <time>2024-07-30T09:22:37Z</time>
      </trkpt>
      <trkpt lat="43.58592" lon="1.28935">
        <ele>186.4</ele>
        <time>2024-07-30T09:22:38Z</time>
      </trkpt>
      <trkpt lat="43.58598" lon="1.2894">
        <ele>186.4</ele>
        <time>2024-07-30T09:22:39Z</time>
      </trkpt>
      <trkpt lat="43.58604" lon="1.28946">
        <ele>186.4</ele>
        <time>2024-07-30T09:22:40Z</time>
      </trkpt>
      <trkpt lat="43.5861" lon="1.28952">
        <ele>186.4</ele>
        <time>2024-07-30T09:22:41Z</time>
      </trkpt>
      <trkpt lat="43.58615" lon="1.28958">
        <ele>186.2</ele>
        <time>2024-07-30T09:22:42Z</time>
      </trkpt>
      <trkpt lat="43.58621" lon="1.28965">
        <ele>186.2</ele>
        <time>2024-07-30T09:22:43Z</time>
      </trkpt>
      <trkpt lat="43.58626" lon="1.28971">
        <ele>186.2</ele>
        <time>2024-07-30T09:22:44Z</time>
      </trkpt>
      <trkpt lat="43.58631" lon="1.28979">
        <ele>186.2</ele>
        <time>2024-07-30T09:22:45Z</time>
      </trkpt>
      <trkpt lat="43.58636" lon="1.28986">
        <ele>186.2</ele>
        <time>2024-07-30T09:22:46Z</time>
      </trkpt>
      <trkpt lat="43.58641" lon="1.28993">
        <ele>186</ele>
        <time>2024-07-30T09:22:47Z</time>
      </trkpt>
      <trkpt lat="43.58645" lon="1.29001">
        <ele>186</ele>
        <time>2024-07-30T09:22:48Z</time>
      </trkpt>
      <trkpt lat="43.5865" lon="1.29009">
        <ele>186</ele>
        <time>2024-07-30T09:22:49Z</time>
      </trkpt>
      <trkpt lat="43.58655" lon="1.29017">
        <ele>186</ele>
        <time>2024-07-30T09:22:50Z</time>
      </trkpt>
      <trkpt lat="43.5866" lon="1.29025">
        <ele>186</ele>
        <time>2024-07-30T09:22:51Z</time>
      </trkpt>
      <trkpt lat="43.58665" lon="1.29032">
        <ele>186</ele>
        <time>2024-07-30T09:22:52Z</time>
      </trkpt>
      <trkpt lat="43.58669" lon="1.29038">
        <ele>186</ele>
        <time>2024-07-30T09:22:53Z</time>
      </trkpt>
      <trkpt lat="43.58674" lon="1.29048">
        <ele>186</ele>
        <time>2024-07-30T09:22:54Z</time>
      </trkpt>
      <trkpt lat="43.58679" lon="1.29055">
        <ele>186</ele>
        <time>2024-07-30T09:22:55Z</time>
      </trkpt>
      <trkpt lat="43.58684" lon="1.29063">
        <ele>186</ele>
        <time>2024-07-30T09:22:56Z</time>
      </trkpt>
      <trkpt lat="43.5869" lon="1.29071">
        <ele>186</ele>
        <time>2024-07-30T09:22:57Z</time>
      </trkpt>
      <trkpt lat="43.58695" lon="1.29078">
        <ele>186.2</ele>
        <time>2024-07-30T09:22:58Z</time>
      </trkpt>
      <trkpt lat="43.58701" lon="1.29084">
        <ele>186.2</ele>
        <time>2024-07-30T09:22:59Z</time>
      </trkpt>
      <trkpt lat="43.58706" lon="1.29091">
        <ele>186.2</ele>
        <time>2024-07-30T09:23:00Z</time>
      </trkpt>
      <trkpt lat="43.58712" lon="1.29097">
        <ele>186.2</ele>
        <time>2024-07-30T09:23:01Z</time>
      </trkpt>
      <trkpt lat="43.58718" lon="1.29104">
        <ele>186.2</ele>
        <time>2024-07-30T09:23:02Z</time>
      </trkpt>
      <trkpt lat="43.58724" lon="1.2911">
        <ele>186.2</ele>
        <time>2024-07-30T09:23:03Z</time>
      </trkpt>
      <trkpt lat="43.58729" lon="1.29116">
        <ele>186.2</ele>
        <time>2024-07-30T09:23:04Z</time>
      </trkpt>
      <trkpt lat="43.58735" lon="1.29123">
        <ele>186.2</ele>
        <time>2024-07-30T09:23:05Z</time>
      </trkpt>
      <trkpt lat="43.58741" lon="1.29129">
        <ele>186.2</ele>
        <time>2024-07-30T09:23:06Z</time>
      </trkpt>
      <trkpt lat="43.58746" lon="1.29135">
        <ele>186.2</ele>
        <time>2024-07-30T09:23:07Z</time>
      </trkpt>
      <trkpt lat="43.58752" lon="1.29141">
        <ele>186.2</ele>
        <time>2024-07-30T09:23:08Z</time>
      </trkpt>
      <trkpt lat="43.58758" lon="1.29148">
        <ele>186.2</ele>
        <time>2024-07-30T09:23:09Z</time>
      </trkpt>
      <trkpt lat="43.58763" lon="1.29154">
        <ele>186.2</ele>
        <time>2024-07-30T09:23:10Z</time>
      </trkpt>
      <trkpt lat="43.58768" lon="1.2916">
        <ele>186.2</ele>
        <time>2024-07-30T09:23:11Z</time>
      </trkpt>
      <trkpt lat="43.58775" lon="1.29167">
        <ele>186.2</ele>
        <time>2024-07-30T09:23:12Z</time>
      </trkpt>
      <trkpt lat="43.5878" lon="1.29173">
        <ele>186.2</ele>
        <time>2024-07-30T09:23:13Z</time>
      </trkpt>
      <trkpt lat="43.58786" lon="1.29179">
        <ele>186.2</ele>
        <time>2024-07-30T09:23:14Z</time>
      </trkpt>
      <trkpt lat="43.58791" lon="1.29186">
        <ele>186.2</ele>
        <time>2024-07-30T09:23:15Z</time>
      </trkpt>
      <trkpt lat="43.58797" lon="1.29193">
        <ele>186</ele>
        <time>2024-07-30T09:23:16Z</time>
      </trkpt>
      <trkpt lat="43.58803" lon="1.29199">
        <ele>186</ele>
        <time>2024-07-30T09:23:17Z</time>
      </trkpt>
      <trkpt lat="43.58809" lon="1.29204">
        <ele>186</ele>
        <time>2024-07-30T09:23:18Z</time>
      </trkpt>
      <trkpt lat="43.58814" lon="1.2921">
        <ele>186</ele>
        <time>2024-07-30T09:23:19Z</time>
      </trkpt>
      <trkpt lat="43.5882" lon="1.29216">
        <ele>186</ele>
        <time>2024-07-30T09:23:20Z</time>
      </trkpt>
      <trkpt lat="43.58826" lon="1.29221">
        <ele>186</ele>
        <time>2024-07-30T09:23:21Z</time>
      </trkpt>
      <trkpt lat="43.58832" lon="1.29226">
        <ele>185.8</ele>
        <time>2024-07-30T09:23:22Z</time>
      </trkpt>
      <trkpt lat="43.58837" lon="1.29231">
        <ele>185.8</ele>
        <time>2024-07-30T09:23:23Z</time>
      </trkpt>
      <trkpt lat="43.58842" lon="1.29235">
        <ele>185.8</ele>
        <time>2024-07-30T09:23:24Z</time>
      </trkpt>
      <trkpt lat="43.58848" lon="1.29241">
        <ele>185.6</ele>
        <time>2024-07-30T09:23:25Z</time>
      </trkpt>
      <trkpt lat="43.58854" lon="1.29249">
        <ele>185.6</ele>
        <time>2024-07-30T09:23:26Z</time>
      </trkpt>
      <trkpt lat="43.58858" lon="1.29256">
        <ele>185.6</ele>
        <time>2024-07-30T09:23:27Z</time>
      </trkpt>
      <trkpt lat="43.58863" lon="1.29263">
        <ele>185.4</ele>
        <time>2024-07-30T09:23:28Z</time>
      </trkpt>
      <trkpt lat="43.58867" lon="1.29269">
        <ele>185.4</ele>
        <time>2024-07-30T09:23:29Z</time>
      </trkpt>
      <trkpt lat="43.58872" lon="1.29278">
        <ele>185.4</ele>
        <time>2024-07-30T09:23:30Z</time>
      </trkpt>
      <trkpt lat="43.58876" lon="1.29286">
        <ele>185.4</ele>
        <time>2024-07-30T09:23:31Z</time>
      </trkpt>
      <trkpt lat="43.58879" lon="1.29294">
        <ele>185.4</ele>
        <time>2024-07-30T09:23:32Z</time>
      </trkpt>
      <trkpt lat="43.58881" lon="1.29302">
        <ele>185.4</ele>
        <time>2024-07-30T09:23:33Z</time>
      </trkpt>
      <trkpt lat="43.58883" lon="1.29311">
        <ele>185.4</ele>
        <time>2024-07-30T09:23:34Z</time>
      </trkpt>
      <trkpt lat="43.58884" lon="1.29322">
        <ele>185.2</ele>
        <time>2024-07-30T09:23:35Z</time>
      </trkpt>
      <trkpt lat="43.58884" lon="1.29332">
        <ele>185.2</ele>
        <time>2024-07-30T09:23:36Z</time>
      </trkpt>
      <trkpt lat="43.58884" lon="1.29341">
        <ele>185.2</ele>
        <time>2024-07-30T09:23:37Z</time>
      </trkpt>
      <trkpt lat="43.58885" lon="1.2935">
        <ele>185.2</ele>
        <time>2024-07-30T09:23:38Z</time>
      </trkpt>
      <trkpt lat="43.58885" lon="1.29359">
        <ele>185</ele>
        <time>2024-07-30T09:23:39Z</time>
      </trkpt>
      <trkpt lat="43.58886" lon="1.29368">
        <ele>185</ele>
        <time>2024-07-30T09:23:40Z</time>
      </trkpt>
      <trkpt lat="43.58886" lon="1.29377">
        <ele>185</ele>
        <time>2024-07-30T09:23:41Z</time>
      </trkpt>
      <trkpt lat="43.58887" lon="1.29384">
        <ele>185</ele>
        <time>2024-07-30T09:23:42Z</time>
      </trkpt>
      <trkpt lat="43.58887" lon="1.29393">
        <ele>185</ele>
        <time>2024-07-30T09:23:43Z</time>
      </trkpt>
      <trkpt lat="43.58888" lon="1.29404">
        <ele>185</ele>
        <time>2024-07-30T09:23:44Z</time>
      </trkpt>
      <trkpt lat="43.58888" lon="1.29414">
        <ele>185.2</ele>
        <time>2024-07-30T09:23:45Z</time>
      </trkpt>
      <trkpt lat="43.58889" lon="1.29423">
        <ele>185.2</ele>
        <time>2024-07-30T09:23:46Z</time>
      </trkpt>
      <trkpt lat="43.5889" lon="1.29432">
        <ele>185.2</ele>
        <time>2024-07-30T09:23:47Z</time>
      </trkpt>
      <trkpt lat="43.58891" lon="1.29441">
        <ele>185.4</ele>
        <time>2024-07-30T09:23:48Z</time>
      </trkpt>
      <trkpt lat="43.58892" lon="1.2945">
        <ele>185.4</ele>
        <time>2024-07-30T09:23:49Z</time>
      </trkpt>
      <trkpt lat="43.58892" lon="1.29459">
        <ele>185.6</ele>
        <time>2024-07-30T09:23:50Z</time>
      </trkpt>
      <trkpt lat="43.58893" lon="1.29469">
        <ele>185.6</ele>
        <time>2024-07-30T09:23:51Z</time>
      </trkpt>
      <trkpt lat="43.58894" lon="1.29476">
        <ele>185.6</ele>
        <time>2024-07-30T09:23:52Z</time>
      </trkpt>
      <trkpt lat="43.58895" lon="1.29488">
        <ele>185.6</ele>
        <time>2024-07-30T09:23:53Z</time>
      </trkpt>
      <trkpt lat="43.58896" lon="1.29498">
        <ele>185.8</ele>
        <time>2024-07-30T09:23:54Z</time>
      </trkpt>
      <trkpt lat="43.58897" lon="1.29509">
        <ele>185.8</ele>
        <time>2024-07-30T09:23:55Z</time>
      </trkpt>
      <trkpt lat="43.58898" lon="1.29519">
        <ele>185.8</ele>
        <time>2024-07-30T09:23:56Z</time>
      </trkpt>
      <trkpt lat="43.58899" lon="1.29529">
        <ele>185.8</ele>
        <time>2024-07-30T09:23:57Z</time>
      </trkpt>
      <trkpt lat="43.589" lon="1.29539">
        <ele>185.8</ele>
        <time>2024-07-30T09:23:58Z</time>
      </trkpt>
      <trkpt lat="43.58901" lon="1.2955">
        <ele>185.8</ele>
        <time>2024-07-30T09:23:59Z</time>
      </trkpt>
      <trkpt lat="43.58902" lon="1.2956">
        <ele>185.8</ele>
        <time>2024-07-30T09:24:00Z</time>
      </trkpt>
      <trkpt lat="43.58903" lon="1.2957">
        <ele>185.8</ele>
        <time>2024-07-30T09:24:01Z</time>
      </trkpt>
      <trkpt lat="43.58904" lon="1.29579">
        <ele>185.8</ele>
        <time>2024-07-30T09:24:02Z</time>
      </trkpt>
      <trkpt lat="43.58905" lon="1.29591">
        <ele>185.8</ele>
        <time>2024-07-30T09:24:03Z</time>
      </trkpt>
      <trkpt lat="43.58907" lon="1.29601">
        <ele>185.6</ele>
        <time>2024-07-30T09:24:04Z</time>
      </trkpt>
      <trkpt lat="43.58908" lon="1.29611">
        <ele>185.6</ele>
        <time>2024-07-30T09:24:05Z</time>
      </trkpt>
      <trkpt lat="43.58909" lon="1.29621">
        <ele>185.4</ele>
        <time>2024-07-30T09:24:06Z</time>
      </trkpt>
      <trkpt lat="43.5891" lon="1.29632">
        <ele>185.4</ele>
        <time>2024-07-30T09:24:07Z</time>
      </trkpt>
      <trkpt lat="43.58911" lon="1.29642">
        <ele>185.4</ele>
        <time>2024-07-30T09:24:08Z</time>
      </trkpt>
      <trkpt lat="43.58912" lon="1.29652">
        <ele>185.4</ele>
        <time>2024-07-30T09:24:09Z</time>
      </trkpt>
      <trkpt lat="43.58913" lon="1.29662">
        <ele>185.2</ele>
        <time>2024-07-30T09:24:10Z</time>
      </trkpt>
      <trkpt lat="43.58914" lon="1.29672">
        <ele>185.2</ele>
        <time>2024-07-30T09:24:11Z</time>
      </trkpt>
      <trkpt lat="43.58915" lon="1.29681">
        <ele>185.2</ele>
        <time>2024-07-30T09:24:12Z</time>
      </trkpt>
      <trkpt lat="43.58916" lon="1.29691">
        <ele>185.2</ele>
        <time>2024-07-30T09:24:13Z</time>
      </trkpt>
      <trkpt lat="43.58918" lon="1.29701">
        <ele>185.2</ele>
        <time>2024-07-30T09:24:14Z</time>
      </trkpt>
      <trkpt lat="43.58919" lon="1.29709">
        <ele>185.2</ele>
        <time>2024-07-30T09:24:15Z</time>
      </trkpt>
      <trkpt lat="43.58921" lon="1.29721">
        <ele>185</ele>
        <time>2024-07-30T09:24:16Z</time>
      </trkpt>
      <trkpt lat="43.58923" lon="1.29731">
        <ele>185</ele>
        <time>2024-07-30T09:24:17Z</time>
      </trkpt>
      <trkpt lat="43.58925" lon="1.29741">
        <ele>185</ele>
        <time>2024-07-30T09:24:18Z</time>
      </trkpt>
      <trkpt lat="43.58928" lon="1.2975">
        <ele>185</ele>
        <time>2024-07-30T09:24:19Z</time>
      </trkpt>
      <trkpt lat="43.58929" lon="1.2976">
        <ele>185</ele>
        <time>2024-07-30T09:24:20Z</time>
      </trkpt>
      <trkpt lat="43.5893" lon="1.2977">
        <ele>185</ele>
        <time>2024-07-30T09:24:21Z</time>
      </trkpt>
      <trkpt lat="43.5893" lon="1.2978">
        <ele>185</ele>
        <time>2024-07-30T09:24:22Z</time>
      </trkpt>
      <trkpt lat="43.5893" lon="1.29789">
        <ele>185</ele>
        <time>2024-07-30T09:24:23Z</time>
      </trkpt>
      <trkpt lat="43.58929" lon="1.29797">
        <ele>185</ele>
        <time>2024-07-30T09:24:24Z</time>
      </trkpt>
      <trkpt lat="43.58929" lon="1.29807">
        <ele>184.8</ele>
        <time>2024-07-30T09:24:25Z</time>
      </trkpt>
      <trkpt lat="43.58928" lon="1.29818">
        <ele>184.8</ele>
        <time>2024-07-30T09:24:26Z</time>
      </trkpt>
      <trkpt lat="43.58928" lon="1.29828">
        <ele>184.8</ele>
        <time>2024-07-30T09:24:27Z</time>
      </trkpt>
      <trkpt lat="43.58927" lon="1.29837">
        <ele>184.6</ele>
        <time>2024-07-30T09:24:28Z</time>
      </trkpt>
      <trkpt lat="43.58927" lon="1.29844">
        <ele>184.6</ele>
        <time>2024-07-30T09:24:29Z</time>
      </trkpt>
      <trkpt lat="43.58926" lon="1.29853">
        <ele>184.8</ele>
        <time>2024-07-30T09:24:30Z</time>
      </trkpt>
      <trkpt lat="43.58926" lon="1.29864">
        <ele>184.8</ele>
        <time>2024-07-30T09:24:31Z</time>
      </trkpt>
      <trkpt lat="43.58925" lon="1.29874">
        <ele>184.8</ele>
        <time>2024-07-30T09:24:32Z</time>
      </trkpt>
      <trkpt lat="43.58926" lon="1.29883">
        <ele>185</ele>
        <time>2024-07-30T09:24:33Z</time>
      </trkpt>
      <trkpt lat="43.58927" lon="1.2989">
        <ele>185</ele>
        <time>2024-07-30T09:24:34Z</time>
      </trkpt>
      <trkpt lat="43.58928" lon="1.29899">
        <ele>185</ele>
        <time>2024-07-30T09:24:35Z</time>
      </trkpt>
      <trkpt lat="43.58929" lon="1.29909">
        <ele>185</ele>
        <time>2024-07-30T09:24:36Z</time>
      </trkpt>
      <trkpt lat="43.58928" lon="1.29918">
        <ele>185</ele>
        <time>2024-07-30T09:24:37Z</time>
      </trkpt>
      <trkpt lat="43.58925" lon="1.29926">
        <ele>185</ele>
        <time>2024-07-30T09:24:38Z</time>
      </trkpt>
      <trkpt lat="43.58923" lon="1.29933">
        <ele>185.2</ele>
        <time>2024-07-30T09:24:39Z</time>
      </trkpt>
      <trkpt lat="43.58921" lon="1.29942">
        <ele>185.2</ele>
        <time>2024-07-30T09:24:40Z</time>
      </trkpt>
      <trkpt lat="43.5892" lon="1.29952">
        <ele>185.2</ele>
        <time>2024-07-30T09:24:41Z</time>
      </trkpt>
      <trkpt lat="43.58919" lon="1.29962">
        <ele>185.2</ele>
        <time>2024-07-30T09:24:42Z</time>
      </trkpt>
      <trkpt lat="43.58918" lon="1.29971">
        <ele>185.2</ele>
        <time>2024-07-30T09:24:43Z</time>
      </trkpt>
      <trkpt lat="43.58918" lon="1.29978">
        <ele>185.2</ele>
        <time>2024-07-30T09:24:44Z</time>
      </trkpt>
      <trkpt lat="43.58917" lon="1.2999">
        <ele>185</ele>
        <time>2024-07-30T09:24:45Z</time>
      </trkpt>
      <trkpt lat="43.58917" lon="1.29999">
        <ele>185</ele>
        <time>2024-07-30T09:24:46Z</time>
      </trkpt>
      <trkpt lat="43.58916" lon="1.30009">
        <ele>185</ele>
        <time>2024-07-30T09:24:47Z</time>
      </trkpt>
      <trkpt lat="43.58916" lon="1.30019">
        <ele>185</ele>
        <time>2024-07-30T09:24:48Z</time>
      </trkpt>
      <trkpt lat="43.58915" lon="1.30027">
        <ele>185</ele>
        <time>2024-07-30T09:24:49Z</time>
      </trkpt>
      <trkpt lat="43.58915" lon="1.30038">
        <ele>185</ele>
        <time>2024-07-30T09:24:50Z</time>
      </trkpt>
      <trkpt lat="43.58914" lon="1.30048">
        <ele>184.8</ele>
        <time>2024-07-30T09:24:51Z</time>
      </trkpt>
      <trkpt lat="43.58914" lon="1.30058">
        <ele>184.8</ele>
        <time>2024-07-30T09:24:52Z</time>
      </trkpt>
      <trkpt lat="43.58913" lon="1.30066">
        <ele>184.8</ele>
        <time>2024-07-30T09:24:53Z</time>
      </trkpt>
      <trkpt lat="43.58912" lon="1.30078">
        <ele>184.8</ele>
        <time>2024-07-30T09:24:54Z</time>
      </trkpt>
      <trkpt lat="43.58912" lon="1.30088">
        <ele>184.8</ele>
        <time>2024-07-30T09:24:55Z</time>
      </trkpt>
      <trkpt lat="43.58911" lon="1.30098">
        <ele>184.8</ele>
        <time>2024-07-30T09:24:56Z</time>
      </trkpt>
      <trkpt lat="43.5891" lon="1.30106">
        <ele>184.8</ele>
        <time>2024-07-30T09:24:58Z</time>
      </trkpt>
      <trkpt lat="43.5891" lon="1.30115">
        <ele>184.8</ele>
        <time>2024-07-30T09:24:59Z</time>
      </trkpt>
      <trkpt lat="43.58909" lon="1.30128">
        <ele>184.8</ele>
        <time>2024-07-30T09:25:00Z</time>
      </trkpt>
      <trkpt lat="43.58908" lon="1.30137">
        <ele>184.8</ele>
        <time>2024-07-30T09:25:01Z</time>
      </trkpt>
      <trkpt lat="43.58907" lon="1.30147">
        <ele>184.8</ele>
        <time>2024-07-30T09:25:02Z</time>
      </trkpt>
      <trkpt lat="43.58907" lon="1.30154">
        <ele>184.6</ele>
        <time>2024-07-30T09:25:03Z</time>
      </trkpt>
      <trkpt lat="43.58906" lon="1.30163">
        <ele>184.6</ele>
        <time>2024-07-30T09:25:04Z</time>
      </trkpt>
      <trkpt lat="43.58904" lon="1.30174">
        <ele>184.6</ele>
        <time>2024-07-30T09:25:05Z</time>
      </trkpt>
      <trkpt lat="43.58903" lon="1.30184">
        <ele>184.6</ele>
        <time>2024-07-30T09:25:06Z</time>
      </trkpt>
      <trkpt lat="43.58901" lon="1.30191">
        <ele>184.6</ele>
        <time>2024-07-30T09:25:07Z</time>
      </trkpt>
      <trkpt lat="43.589" lon="1.302">
        <ele>184.6</ele>
        <time>2024-07-30T09:25:08Z</time>
      </trkpt>
      <trkpt lat="43.58898" lon="1.30212">
        <ele>184.6</ele>
        <time>2024-07-30T09:25:09Z</time>
      </trkpt>
      <trkpt lat="43.58897" lon="1.30221">
        <ele>184.8</ele>
        <time>2024-07-30T09:25:10Z</time>
      </trkpt>
      <trkpt lat="43.58895" lon="1.30231">
        <ele>184.6</ele>
        <time>2024-07-30T09:25:11Z</time>
      </trkpt>
      <trkpt lat="43.58894" lon="1.30241">
        <ele>184.6</ele>
        <time>2024-07-30T09:25:12Z</time>
      </trkpt>
      <trkpt lat="43.58893" lon="1.30248">
        <ele>184.6</ele>
        <time>2024-07-30T09:25:13Z</time>
      </trkpt>
      <trkpt lat="43.58891" lon="1.3026">
        <ele>184.6</ele>
        <time>2024-07-30T09:25:14Z</time>
      </trkpt>
      <trkpt lat="43.58889" lon="1.3027">
        <ele>184.6</ele>
        <time>2024-07-30T09:25:15Z</time>
      </trkpt>
      <trkpt lat="43.58888" lon="1.3028">
        <ele>184.6</ele>
        <time>2024-07-30T09:25:16Z</time>
      </trkpt>
      <trkpt lat="43.58887" lon="1.30287">
        <ele>184.6</ele>
        <time>2024-07-30T09:25:17Z</time>
      </trkpt>
      <trkpt lat="43.58886" lon="1.30297">
        <ele>184.6</ele>
        <time>2024-07-30T09:25:18Z</time>
      </trkpt>
      <trkpt lat="43.58884" lon="1.30309">
        <ele>184.6</ele>
        <time>2024-07-30T09:25:19Z</time>
      </trkpt>
      <trkpt lat="43.58882" lon="1.30318">
        <ele>184.6</ele>
        <time>2024-07-30T09:25:20Z</time>
      </trkpt>
      <trkpt lat="43.58881" lon="1.30328">
        <ele>184.6</ele>
        <time>2024-07-30T09:25:21Z</time>
      </trkpt>
      <trkpt lat="43.5888" lon="1.30336">
        <ele>184.6</ele>
        <time>2024-07-30T09:25:22Z</time>
      </trkpt>
      <trkpt lat="43.58878" lon="1.30348">
        <ele>184.6</ele>
        <time>2024-07-30T09:25:23Z</time>
      </trkpt>
      <trkpt lat="43.58877" lon="1.30358">
        <ele>184.6</ele>
        <time>2024-07-30T09:25:24Z</time>
      </trkpt>
      <trkpt lat="43.58876" lon="1.30368">
        <ele>184.4</ele>
        <time>2024-07-30T09:25:25Z</time>
      </trkpt>
      <trkpt lat="43.58874" lon="1.30376">
        <ele>184.4</ele>
        <time>2024-07-30T09:25:26Z</time>
      </trkpt>
      <trkpt lat="43.58873" lon="1.30386">
        <ele>184.4</ele>
        <time>2024-07-30T09:25:27Z</time>
      </trkpt>
      <trkpt lat="43.58871" lon="1.30395">
        <ele>184.4</ele>
        <time>2024-07-30T09:25:28Z</time>
      </trkpt>
      <trkpt lat="43.5887" lon="1.30407">
        <ele>184.4</ele>
        <time>2024-07-30T09:25:29Z</time>
      </trkpt>
      <trkpt lat="43.58868" lon="1.30417">
        <ele>184.4</ele>
        <time>2024-07-30T09:25:30Z</time>
      </trkpt>
      <trkpt lat="43.58866" lon="1.30424">
        <ele>184.4</ele>
        <time>2024-07-30T09:25:31Z</time>
      </trkpt>
      <trkpt lat="43.58865" lon="1.30434">
        <ele>184.4</ele>
        <time>2024-07-30T09:25:32Z</time>
      </trkpt>
      <trkpt lat="43.58864" lon="1.30445">
        <ele>184.4</ele>
        <time>2024-07-30T09:25:33Z</time>
      </trkpt>
      <trkpt lat="43.58862" lon="1.30455">
        <ele>184.2</ele>
        <time>2024-07-30T09:25:34Z</time>
      </trkpt>
      <trkpt lat="43.58861" lon="1.30462">
        <ele>184.2</ele>
        <time>2024-07-30T09:25:35Z</time>
      </trkpt>
      <trkpt lat="43.58859" lon="1.30472">
        <ele>184.2</ele>
        <time>2024-07-30T09:25:36Z</time>
      </trkpt>
      <trkpt lat="43.58858" lon="1.30484">
        <ele>184.2</ele>
        <time>2024-07-30T09:25:37Z</time>
      </trkpt>
      <trkpt lat="43.58856" lon="1.30494">
        <ele>184.2</ele>
        <time>2024-07-30T09:25:38Z</time>
      </trkpt>
      <trkpt lat="43.58854" lon="1.30504">
        <ele>184.2</ele>
        <time>2024-07-30T09:25:39Z</time>
      </trkpt>
      <trkpt lat="43.58853" lon="1.30513">
        <ele>184.2</ele>
        <time>2024-07-30T09:25:40Z</time>
      </trkpt>
      <trkpt lat="43.58851" lon="1.30523">
        <ele>184.2</ele>
        <time>2024-07-30T09:25:41Z</time>
      </trkpt>
      <trkpt lat="43.5885" lon="1.30535">
        <ele>184.2</ele>
        <time>2024-07-30T09:25:42Z</time>
      </trkpt>
      <trkpt lat="43.58848" lon="1.30545">
        <ele>184.2</ele>
        <time>2024-07-30T09:25:43Z</time>
      </trkpt>
      <trkpt lat="43.58847" lon="1.30555">
        <ele>184.2</ele>
        <time>2024-07-30T09:25:44Z</time>
      </trkpt>
      <trkpt lat="43.58846" lon="1.30563">
        <ele>184</ele>
        <time>2024-07-30T09:25:45Z</time>
      </trkpt>
      <trkpt lat="43.58844" lon="1.30574">
        <ele>183.8</ele>
        <time>2024-07-30T09:25:46Z</time>
      </trkpt>
      <trkpt lat="43.58842" lon="1.30584">
        <ele>183.8</ele>
        <time>2024-07-30T09:25:47Z</time>
      </trkpt>
      <trkpt lat="43.5884" lon="1.30594">
        <ele>183.8</ele>
        <time>2024-07-30T09:25:48Z</time>
      </trkpt>
      <trkpt lat="43.58839" lon="1.30602">
        <ele>183.6</ele>
        <time>2024-07-30T09:25:49Z</time>
      </trkpt>
      <trkpt lat="43.58836" lon="1.30611">
        <ele>183.6</ele>
        <time>2024-07-30T09:25:50Z</time>
      </trkpt>
      <trkpt lat="43.58833" lon="1.30623">
        <ele>183.6</ele>
        <time>2024-07-30T09:25:51Z</time>
      </trkpt>
      <trkpt lat="43.5883" lon="1.30632">
        <ele>183.6</ele>
        <time>2024-07-30T09:25:52Z</time>
      </trkpt>
      <trkpt lat="43.58827" lon="1.30641">
        <ele>183.6</ele>
        <time>2024-07-30T09:25:53Z</time>
      </trkpt>
      <trkpt lat="43.58824" lon="1.30648">
        <ele>183.6</ele>
        <time>2024-07-30T09:25:54Z</time>
      </trkpt>
      <trkpt lat="43.5882" lon="1.30657">
        <ele>183.6</ele>
        <time>2024-07-30T09:25:55Z</time>
      </trkpt>
      <trkpt lat="43.58816" lon="1.30667">
        <ele>183.8</ele>
        <time>2024-07-30T09:25:56Z</time>
      </trkpt>
      <trkpt lat="43.58812" lon="1.30675">
        <ele>183.8</ele>
        <time>2024-07-30T09:25:57Z</time>
      </trkpt>
      <trkpt lat="43.58809" lon="1.30684">
        <ele>183.8</ele>
        <time>2024-07-30T09:25:58Z</time>
      </trkpt>
      <trkpt lat="43.58806" lon="1.3069">
        <ele>183.8</ele>
        <time>2024-07-30T09:25:59Z</time>
      </trkpt>
      <trkpt lat="43.58802" lon="1.30699">
        <ele>183.8</ele>
        <time>2024-07-30T09:26:00Z</time>
      </trkpt>
      <trkpt lat="43.58798" lon="1.30709">
        <ele>183.8</ele>
        <time>2024-07-30T09:26:01Z</time>
      </trkpt>
      <trkpt lat="43.58795" lon="1.30717">
        <ele>183.8</ele>
        <time>2024-07-30T09:26:02Z</time>
      </trkpt>
      <trkpt lat="43.58792" lon="1.30724">
        <ele>183.8</ele>
        <time>2024-07-30T09:26:03Z</time>
      </trkpt>
      <trkpt lat="43.58789" lon="1.30732">
        <ele>183.8</ele>
        <time>2024-07-30T09:26:04Z</time>
      </trkpt>
      <trkpt lat="43.58786" lon="1.30742">
        <ele>183.8</ele>
        <time>2024-07-30T09:26:05Z</time>
      </trkpt>
      <trkpt lat="43.58783" lon="1.30749">
        <ele>184</ele>
        <time>2024-07-30T09:26:06Z</time>
      </trkpt>
      <trkpt lat="43.5878" lon="1.30757">
        <ele>184</ele>
        <time>2024-07-30T09:26:07Z</time>
      </trkpt>
      <trkpt lat="43.58778" lon="1.30764">
        <ele>184</ele>
        <time>2024-07-30T09:26:08Z</time>
      </trkpt>
      <trkpt lat="43.58775" lon="1.30771">
        <ele>184</ele>
        <time>2024-07-30T09:26:09Z</time>
      </trkpt>
      <trkpt lat="43.58772" lon="1.30779">
        <ele>184.2</ele>
        <time>2024-07-30T09:26:10Z</time>
      </trkpt>
      <trkpt lat="43.58769" lon="1.30788">
        <ele>184.4</ele>
        <time>2024-07-30T09:26:11Z</time>
      </trkpt>
      <trkpt lat="43.58767" lon="1.30794">
        <ele>184.4</ele>
        <time>2024-07-30T09:26:12Z</time>
      </trkpt>
      <trkpt lat="43.58764" lon="1.30802">
        <ele>184.6</ele>
        <time>2024-07-30T09:26:13Z</time>
      </trkpt>
      <trkpt lat="43.58761" lon="1.30809">
        <ele>184.6</ele>
        <time>2024-07-30T09:26:14Z</time>
      </trkpt>
      <trkpt lat="43.58757" lon="1.30819">
        <ele>184.8</ele>
        <time>2024-07-30T09:26:15Z</time>
      </trkpt>
      <trkpt lat="43.58754" lon="1.30827">
        <ele>184.8</ele>
        <time>2024-07-30T09:26:16Z</time>
      </trkpt>
      <trkpt lat="43.58751" lon="1.30834">
        <ele>184.8</ele>
        <time>2024-07-30T09:26:17Z</time>
      </trkpt>
      <trkpt lat="43.58748" lon="1.30843">
        <ele>185</ele>
        <time>2024-07-30T09:26:18Z</time>
      </trkpt>
      <trkpt lat="43.58745" lon="1.30852">
        <ele>185</ele>
        <time>2024-07-30T09:26:19Z</time>
      </trkpt>
      <trkpt lat="43.58741" lon="1.30862">
        <ele>185</ele>
        <time>2024-07-30T09:26:20Z</time>
      </trkpt>
      <trkpt lat="43.58738" lon="1.30871">
        <ele>185.2</ele>
        <time>2024-07-30T09:26:21Z</time>
      </trkpt>
      <trkpt lat="43.58736" lon="1.30878">
        <ele>185.2</ele>
        <time>2024-07-30T09:26:22Z</time>
      </trkpt>
      <trkpt lat="43.58733" lon="1.30887">
        <ele>185.2</ele>
        <time>2024-07-30T09:26:23Z</time>
      </trkpt>
      <trkpt lat="43.5873" lon="1.30898">
        <ele>185.2</ele>
        <time>2024-07-30T09:26:24Z</time>
      </trkpt>
      <trkpt lat="43.58728" lon="1.30907">
        <ele>185.2</ele>
        <time>2024-07-30T09:26:25Z</time>
      </trkpt>
      <trkpt lat="43.58725" lon="1.30917">
        <ele>185.2</ele>
        <time>2024-07-30T09:26:26Z</time>
      </trkpt>
      <trkpt lat="43.58723" lon="1.30924">
        <ele>185</ele>
        <time>2024-07-30T09:26:27Z</time>
      </trkpt>
      <trkpt lat="43.58721" lon="1.30934">
        <ele>185</ele>
        <time>2024-07-30T09:26:28Z</time>
      </trkpt>
      <trkpt lat="43.58719" lon="1.30946">
        <ele>185</ele>
        <time>2024-07-30T09:26:29Z</time>
      </trkpt>
      <trkpt lat="43.58717" lon="1.30955">
        <ele>185</ele>
        <time>2024-07-30T09:26:30Z</time>
      </trkpt>
      <trkpt lat="43.58716" lon="1.30963">
        <ele>185</ele>
        <time>2024-07-30T09:26:31Z</time>
      </trkpt>
      <trkpt lat="43.58714" lon="1.30973">
        <ele>185</ele>
        <time>2024-07-30T09:26:32Z</time>
      </trkpt>
      <trkpt lat="43.58713" lon="1.30983">
        <ele>185</ele>
        <time>2024-07-30T09:26:33Z</time>
      </trkpt>
      <trkpt lat="43.58711" lon="1.30993">
        <ele>184.8</ele>
        <time>2024-07-30T09:26:34Z</time>
      </trkpt>
      <trkpt lat="43.5871" lon="1.31002">
        <ele>184.8</ele>
        <time>2024-07-30T09:26:35Z</time>
      </trkpt>
      <trkpt lat="43.58709" lon="1.31012">
        <ele>185</ele>
        <time>2024-07-30T09:26:36Z</time>
      </trkpt>
      <trkpt lat="43.58708" lon="1.31021">
        <ele>185</ele>
        <time>2024-07-30T09:26:37Z</time>
      </trkpt>
      <trkpt lat="43.58708" lon="1.3103">
        <ele>185</ele>
        <time>2024-07-30T09:26:38Z</time>
      </trkpt>
      <trkpt lat="43.58708" lon="1.31041">
        <ele>185</ele>
        <time>2024-07-30T09:26:39Z</time>
      </trkpt>
      <trkpt lat="43.58708" lon="1.31049">
        <ele>185</ele>
        <time>2024-07-30T09:26:40Z</time>
      </trkpt>
      <trkpt lat="43.58707" lon="1.31057">
        <ele>185</ele>
        <time>2024-07-30T09:26:41Z</time>
      </trkpt>
      <trkpt lat="43.58707" lon="1.31066">
        <ele>185</ele>
        <time>2024-07-30T09:26:42Z</time>
      </trkpt>
      <trkpt lat="43.58706" lon="1.31077">
        <ele>185</ele>
        <time>2024-07-30T09:26:43Z</time>
      </trkpt>
      <trkpt lat="43.58706" lon="1.31087">
        <ele>185</ele>
        <time>2024-07-30T09:26:44Z</time>
      </trkpt>
      <trkpt lat="43.58706" lon="1.31097">
        <ele>185</ele>
        <time>2024-07-30T09:26:45Z</time>
      </trkpt>
      <trkpt lat="43.58706" lon="1.31105">
        <ele>185</ele>
        <time>2024-07-30T09:26:46Z</time>
      </trkpt>
      <trkpt lat="43.58706" lon="1.31114">
        <ele>185.2</ele>
        <time>2024-07-30T09:26:47Z</time>
      </trkpt>
      <trkpt lat="43.58706" lon="1.31126">
        <ele>185.2</ele>
        <time>2024-07-30T09:26:48Z</time>
      </trkpt>
      <trkpt lat="43.58707" lon="1.31137">
        <ele>185</ele>
        <time>2024-07-30T09:26:49Z</time>
      </trkpt>
      <trkpt lat="43.58707" lon="1.31145">
        <ele>185</ele>
        <time>2024-07-30T09:26:50Z</time>
      </trkpt>
      <trkpt lat="43.58708" lon="1.31155">
        <ele>185</ele>
        <time>2024-07-30T09:26:51Z</time>
      </trkpt>
      <trkpt lat="43.58708" lon="1.31166">
        <ele>184.8</ele>
        <time>2024-07-30T09:26:52Z</time>
      </trkpt>
      <trkpt lat="43.58708" lon="1.31178">
        <ele>184.8</ele>
        <time>2024-07-30T09:26:53Z</time>
      </trkpt>
      <trkpt lat="43.58708" lon="1.31189">
        <ele>184.8</ele>
        <time>2024-07-30T09:26:54Z</time>
      </trkpt>
      <trkpt lat="43.58707" lon="1.31199">
        <ele>184.8</ele>
        <time>2024-07-30T09:26:55Z</time>
      </trkpt>
      <trkpt lat="43.58706" lon="1.31208">
        <ele>184.6</ele>
        <time>2024-07-30T09:26:56Z</time>
      </trkpt>
      <trkpt lat="43.58706" lon="1.31218">
        <ele>184.4</ele>
        <time>2024-07-30T09:26:57Z</time>
      </trkpt>
      <trkpt lat="43.58705" lon="1.31228">
        <ele>184.4</ele>
        <time>2024-07-30T09:26:58Z</time>
      </trkpt>
      <trkpt lat="43.58704" lon="1.31238">
        <ele>184.4</ele>
        <time>2024-07-30T09:26:59Z</time>
      </trkpt>
      <trkpt lat="43.58703" lon="1.31249">
        <ele>184.4</ele>
        <time>2024-07-30T09:27:00Z</time>
      </trkpt>
      <trkpt lat="43.58702" lon="1.31259">
        <ele>184.4</ele>
        <time>2024-07-30T09:27:01Z</time>
      </trkpt>
      <trkpt lat="43.58701" lon="1.3127">
        <ele>184.4</ele>
        <time>2024-07-30T09:27:02Z</time>
      </trkpt>
      <trkpt lat="43.587" lon="1.3128">
        <ele>184.4</ele>
        <time>2024-07-30T09:27:03Z</time>
      </trkpt>
      <trkpt lat="43.587" lon="1.3129">
        <ele>184.2</ele>
        <time>2024-07-30T09:27:04Z</time>
      </trkpt>
      <trkpt lat="43.58699" lon="1.313">
        <ele>184.2</ele>
        <time>2024-07-30T09:27:05Z</time>
      </trkpt>
      <trkpt lat="43.58698" lon="1.3131">
        <ele>184.2</ele>
        <time>2024-07-30T09:27:06Z</time>
      </trkpt>
      <trkpt lat="43.58698" lon="1.3132">
        <ele>184.4</ele>
        <time>2024-07-30T09:27:07Z</time>
      </trkpt>
      <trkpt lat="43.58697" lon="1.3133">
        <ele>184.4</ele>
        <time>2024-07-30T09:27:08Z</time>
      </trkpt>
      <trkpt lat="43.58696" lon="1.3134">
        <ele>184.6</ele>
        <time>2024-07-30T09:27:09Z</time>
      </trkpt>
      <trkpt lat="43.58695" lon="1.3135">
        <ele>184.6</ele>
        <time>2024-07-30T09:27:10Z</time>
      </trkpt>
      <trkpt lat="43.58694" lon="1.3136">
        <ele>184.8</ele>
        <time>2024-07-30T09:27:11Z</time>
      </trkpt>
      <trkpt lat="43.58693" lon="1.3137">
        <ele>184.8</ele>
        <time>2024-07-30T09:27:12Z</time>
      </trkpt>
      <trkpt lat="43.58693" lon="1.31381">
        <ele>184.8</ele>
        <time>2024-07-30T09:27:13Z</time>
      </trkpt>
      <trkpt lat="43.58692" lon="1.31391">
        <ele>184.8</ele>
        <time>2024-07-30T09:27:14Z</time>
      </trkpt>
      <trkpt lat="43.58691" lon="1.31401">
        <ele>184.8</ele>
        <time>2024-07-30T09:27:15Z</time>
      </trkpt>
      <trkpt lat="43.58689" lon="1.31411">
        <ele>184.8</ele>
        <time>2024-07-30T09:27:16Z</time>
      </trkpt>
      <trkpt lat="43.58688" lon="1.31421">
        <ele>184.8</ele>
        <time>2024-07-30T09:27:17Z</time>
      </trkpt>
      <trkpt lat="43.58687" lon="1.31431">
        <ele>184.8</ele>
        <time>2024-07-30T09:27:18Z</time>
      </trkpt>
      <trkpt lat="43.58685" lon="1.31441">
        <ele>184.8</ele>
        <time>2024-07-30T09:27:19Z</time>
      </trkpt>
      <trkpt lat="43.58684" lon="1.31451">
        <ele>184.8</ele>
        <time>2024-07-30T09:27:20Z</time>
      </trkpt>
      <trkpt lat="43.58682" lon="1.31461">
        <ele>184.6</ele>
        <time>2024-07-30T09:27:21Z</time>
      </trkpt>
      <trkpt lat="43.58681" lon="1.31471">
        <ele>184.6</ele>
        <time>2024-07-30T09:27:22Z</time>
      </trkpt>
      <trkpt lat="43.58679" lon="1.31481">
        <ele>184.6</ele>
        <time>2024-07-30T09:27:23Z</time>
      </trkpt>
      <trkpt lat="43.58677" lon="1.31491">
        <ele>184.6</ele>
        <time>2024-07-30T09:27:24Z</time>
      </trkpt>
      <trkpt lat="43.58676" lon="1.31502">
        <ele>184.6</ele>
        <time>2024-07-30T09:27:25Z</time>
      </trkpt>
      <trkpt lat="43.58674" lon="1.31512">
        <ele>184.6</ele>
        <time>2024-07-30T09:27:26Z</time>
      </trkpt>
      <trkpt lat="43.58673" lon="1.31523">
        <ele>184.6</ele>
        <time>2024-07-30T09:27:27Z</time>
      </trkpt>
      <trkpt lat="43.58671" lon="1.31534">
        <ele>184.6</ele>
        <time>2024-07-30T09:27:28Z</time>
      </trkpt>
      <trkpt lat="43.5867" lon="1.31544">
        <ele>184.6</ele>
        <time>2024-07-30T09:27:29Z</time>
      </trkpt>
      <trkpt lat="43.58668" lon="1.31554">
        <ele>184.6</ele>
        <time>2024-07-30T09:27:30Z</time>
      </trkpt>
      <trkpt lat="43.58667" lon="1.31565">
        <ele>184.4</ele>
        <time>2024-07-30T09:27:31Z</time>
      </trkpt>
      <trkpt lat="43.58665" lon="1.31575">
        <ele>184.4</ele>
        <time>2024-07-30T09:27:32Z</time>
      </trkpt>
      <trkpt lat="43.58664" lon="1.31585">
        <ele>184.4</ele>
        <time>2024-07-30T09:27:33Z</time>
      </trkpt>
      <trkpt lat="43.58663" lon="1.31596">
        <ele>184.2</ele>
        <time>2024-07-30T09:27:34Z</time>
      </trkpt>
      <trkpt lat="43.58661" lon="1.31606">
        <ele>184.2</ele>
        <time>2024-07-30T09:27:35Z</time>
      </trkpt>
      <trkpt lat="43.58659" lon="1.31616">
        <ele>184.2</ele>
        <time>2024-07-30T09:27:36Z</time>
      </trkpt>
      <trkpt lat="43.58657" lon="1.31628">
        <ele>184.2</ele>
        <time>2024-07-30T09:27:37Z</time>
      </trkpt>
      <trkpt lat="43.58655" lon="1.31638">
        <ele>184.2</ele>
        <time>2024-07-30T09:27:38Z</time>
      </trkpt>
      <trkpt lat="43.58654" lon="1.31648">
        <ele>184.2</ele>
        <time>2024-07-30T09:27:39Z</time>
      </trkpt>
      <trkpt lat="43.58652" lon="1.31656">
        <ele>184.2</ele>
        <time>2024-07-30T09:27:40Z</time>
      </trkpt>
      <trkpt lat="43.58651" lon="1.31666">
        <ele>184.2</ele>
        <time>2024-07-30T09:27:41Z</time>
      </trkpt>
      <trkpt lat="43.58649" lon="1.31676">
        <ele>184.2</ele>
        <time>2024-07-30T09:27:42Z</time>
      </trkpt>
      <trkpt lat="43.58648" lon="1.31684">
        <ele>184.2</ele>
        <time>2024-07-30T09:27:43Z</time>
      </trkpt>
      <trkpt lat="43.58646" lon="1.31692">
        <ele>184.2</ele>
        <time>2024-07-30T09:27:44Z</time>
      </trkpt>
      <trkpt lat="43.58644" lon="1.31696">
        <ele>184.2</ele>
        <time>2024-07-30T09:27:45Z</time>
      </trkpt>
      <trkpt lat="43.58642" lon="1.317">
        <ele>184.2</ele>
        <time>2024-07-30T09:27:46Z</time>
      </trkpt>
      <trkpt lat="43.5864" lon="1.31703">
        <ele>184.2</ele>
        <time>2024-07-30T09:27:47Z</time>
      </trkpt>
      <trkpt lat="43.58638" lon="1.31707">
        <ele>184.2</ele>
        <time>2024-07-30T09:27:48Z</time>
      </trkpt>
      <trkpt lat="43.58637" lon="1.31711">
        <ele>184</ele>
        <time>2024-07-30T09:27:49Z</time>
      </trkpt>
      <trkpt lat="43.58637" lon="1.31717">
        <ele>184</ele>
        <time>2024-07-30T09:27:50Z</time>
      </trkpt>
      <trkpt lat="43.58638" lon="1.31725">
        <ele>184</ele>
        <time>2024-07-30T09:27:51Z</time>
      </trkpt>
      <trkpt lat="43.58639" lon="1.31732">
        <ele>184</ele>
        <time>2024-07-30T09:27:52Z</time>
      </trkpt>
      <trkpt lat="43.5864" lon="1.3174">
        <ele>184</ele>
        <time>2024-07-30T09:27:53Z</time>
      </trkpt>
      <trkpt lat="43.58641" lon="1.31746">
        <ele>184</ele>
        <time>2024-07-30T09:27:54Z</time>
      </trkpt>
      <trkpt lat="43.58642" lon="1.31753">
        <ele>184</ele>
        <time>2024-07-30T09:27:55Z</time>
      </trkpt>
      <trkpt lat="43.58643" lon="1.31761">
        <ele>183.8</ele>
        <time>2024-07-30T09:27:56Z</time>
      </trkpt>
      <trkpt lat="43.58645" lon="1.31771">
        <ele>183.8</ele>
        <time>2024-07-30T09:27:57Z</time>
      </trkpt>
      <trkpt lat="43.58647" lon="1.31779">
        <ele>183.8</ele>
        <time>2024-07-30T09:27:58Z</time>
      </trkpt>
      <trkpt lat="43.58648" lon="1.31786">
        <ele>183.6</ele>
        <time>2024-07-30T09:27:59Z</time>
      </trkpt>
      <trkpt lat="43.58649" lon="1.31794">
        <ele>183.6</ele>
        <time>2024-07-30T09:28:00Z</time>
      </trkpt>
      <trkpt lat="43.58651" lon="1.31805">
        <ele>183.6</ele>
        <time>2024-07-30T09:28:01Z</time>
      </trkpt>
      <trkpt lat="43.58653" lon="1.31813">
        <ele>183.6</ele>
        <time>2024-07-30T09:28:02Z</time>
      </trkpt>
      <trkpt lat="43.58654" lon="1.31822">
        <ele>183.4</ele>
        <time>2024-07-30T09:28:03Z</time>
      </trkpt>
      <trkpt lat="43.58655" lon="1.3183">
        <ele>183.4</ele>
        <time>2024-07-30T09:28:04Z</time>
      </trkpt>
      <trkpt lat="43.58657" lon="1.31839">
        <ele>183.4</ele>
        <time>2024-07-30T09:28:05Z</time>
      </trkpt>
      <trkpt lat="43.58658" lon="1.3185">
        <ele>183.4</ele>
        <time>2024-07-30T09:28:06Z</time>
      </trkpt>
      <trkpt lat="43.5866" lon="1.31859">
        <ele>183.2</ele>
        <time>2024-07-30T09:28:07Z</time>
      </trkpt>
      <trkpt lat="43.58661" lon="1.31868">
        <ele>183.2</ele>
        <time>2024-07-30T09:28:08Z</time>
      </trkpt>
      <trkpt lat="43.58662" lon="1.31876">
        <ele>183.2</ele>
        <time>2024-07-30T09:28:09Z</time>
      </trkpt>
      <trkpt lat="43.58664" lon="1.31887">
        <ele>183</ele>
        <time>2024-07-30T09:28:10Z</time>
      </trkpt>
      <trkpt lat="43.58665" lon="1.31894">
        <ele>183</ele>
        <time>2024-07-30T09:28:11Z</time>
      </trkpt>
      <trkpt lat="43.58667" lon="1.31903">
        <ele>183</ele>
        <time>2024-07-30T09:28:12Z</time>
      </trkpt>
      <trkpt lat="43.58668" lon="1.31912">
        <ele>182.8</ele>
        <time>2024-07-30T09:28:13Z</time>
      </trkpt>
      <trkpt lat="43.5867" lon="1.31921">
        <ele>182.8</ele>
        <time>2024-07-30T09:28:14Z</time>
      </trkpt>
      <trkpt lat="43.58672" lon="1.31932">
        <ele>182.8</ele>
        <time>2024-07-30T09:28:15Z</time>
      </trkpt>
      <trkpt lat="43.58673" lon="1.31939">
        <ele>182.6</ele>
        <time>2024-07-30T09:28:16Z</time>
      </trkpt>
      <trkpt lat="43.58674" lon="1.31949">
        <ele>182.6</ele>
        <time>2024-07-30T09:28:17Z</time>
      </trkpt>
      <trkpt lat="43.58674" lon="1.31956">
        <ele>182.4</ele>
        <time>2024-07-30T09:28:18Z</time>
      </trkpt>
      <trkpt lat="43.58674" lon="1.31964">
        <ele>182.4</ele>
        <time>2024-07-30T09:28:19Z</time>
      </trkpt>
      <trkpt lat="43.58675" lon="1.31973">
        <ele>182.4</ele>
        <time>2024-07-30T09:28:20Z</time>
      </trkpt>
      <trkpt lat="43.58678" lon="1.3198">
        <ele>182.4</ele>
        <time>2024-07-30T09:28:21Z</time>
      </trkpt>
      <trkpt lat="43.58682" lon="1.31987">
        <ele>182.4</ele>
        <time>2024-07-30T09:28:22Z</time>
      </trkpt>
      <trkpt lat="43.58684" lon="1.31993">
        <ele>182.4</ele>
        <time>2024-07-30T09:28:23Z</time>
      </trkpt>
      <trkpt lat="43.58684" lon="1.32002">
        <ele>182.4</ele>
        <time>2024-07-30T09:28:24Z</time>
      </trkpt>
      <trkpt lat="43.58684" lon="1.32012">
        <ele>182.4</ele>
        <time>2024-07-30T09:28:25Z</time>
      </trkpt>
      <trkpt lat="43.58685" lon="1.32021">
        <ele>182.4</ele>
        <time>2024-07-30T09:28:26Z</time>
      </trkpt>
      <trkpt lat="43.58685" lon="1.32028">
        <ele>182.2</ele>
        <time>2024-07-30T09:28:27Z</time>
      </trkpt>
      <trkpt lat="43.58685" lon="1.32038">
        <ele>182.2</ele>
        <time>2024-07-30T09:28:28Z</time>
      </trkpt>
      <trkpt lat="43.58685" lon="1.32049">
        <ele>182.2</ele>
        <time>2024-07-30T09:28:29Z</time>
      </trkpt>
      <trkpt lat="43.58685" lon="1.32058">
        <ele>182</ele>
        <time>2024-07-30T09:28:30Z</time>
      </trkpt>
      <trkpt lat="43.58685" lon="1.32067">
        <ele>181.8</ele>
        <time>2024-07-30T09:28:31Z</time>
      </trkpt>
      <trkpt lat="43.58685" lon="1.32074">
        <ele>181.6</ele>
        <time>2024-07-30T09:28:32Z</time>
      </trkpt>
      <trkpt lat="43.58685" lon="1.32083">
        <ele>181.6</ele>
        <time>2024-07-30T09:28:33Z</time>
      </trkpt>
      <trkpt lat="43.58685" lon="1.32094">
        <ele>181.4</ele>
        <time>2024-07-30T09:28:34Z</time>
      </trkpt>
      <trkpt lat="43.58684" lon="1.32103">
        <ele>181.4</ele>
        <time>2024-07-30T09:28:35Z</time>
      </trkpt>
      <trkpt lat="43.58684" lon="1.32112">
        <ele>181.2</ele>
        <time>2024-07-30T09:28:36Z</time>
      </trkpt>
      <trkpt lat="43.58683" lon="1.32119">
        <ele>181.2</ele>
        <time>2024-07-30T09:28:37Z</time>
      </trkpt>
      <trkpt lat="43.58683" lon="1.32127">
        <ele>181.2</ele>
        <time>2024-07-30T09:28:38Z</time>
      </trkpt>
      <trkpt lat="43.58682" lon="1.32138">
        <ele>181.2</ele>
        <time>2024-07-30T09:28:39Z</time>
      </trkpt>
      <trkpt lat="43.58681" lon="1.32146">
        <ele>181.2</ele>
        <time>2024-07-30T09:28:40Z</time>
      </trkpt>
      <trkpt lat="43.58681" lon="1.32154">
        <ele>181.4</ele>
        <time>2024-07-30T09:28:41Z</time>
      </trkpt>
      <trkpt lat="43.5868" lon="1.32161">
        <ele>181.4</ele>
        <time>2024-07-30T09:28:42Z</time>
      </trkpt>
      <trkpt lat="43.58679" lon="1.32169">
        <ele>181.6</ele>
        <time>2024-07-30T09:28:43Z</time>
      </trkpt>
      <trkpt lat="43.58678" lon="1.32178">
        <ele>181.6</ele>
        <time>2024-07-30T09:28:44Z</time>
      </trkpt>
      <trkpt lat="43.58678" lon="1.32185">
        <ele>181.8</ele>
        <time>2024-07-30T09:28:45Z</time>
      </trkpt>
      <trkpt lat="43.58677" lon="1.32192">
        <ele>181.8</ele>
        <time>2024-07-30T09:28:46Z</time>
      </trkpt>
      <trkpt lat="43.58676" lon="1.32198">
        <ele>181.8</ele>
        <time>2024-07-30T09:28:47Z</time>
      </trkpt>
      <trkpt lat="43.58676" lon="1.32205">
        <ele>181.8</ele>
        <time>2024-07-30T09:28:48Z</time>
      </trkpt>
      <trkpt lat="43.58675" lon="1.32214">
        <ele>181.8</ele>
        <time>2024-07-30T09:28:49Z</time>
      </trkpt>
      <trkpt lat="43.58674" lon="1.32219">
        <ele>181.8</ele>
        <time>2024-07-30T09:28:50Z</time>
      </trkpt>
      <trkpt lat="43.58674" lon="1.32223">
        <ele>181.8</ele>
        <time>2024-07-30T09:28:51Z</time>
      </trkpt>
      <trkpt lat="43.58673" lon="1.32227">
        <ele>181.8</ele>
        <time>2024-07-30T09:28:52Z</time>
      </trkpt>
      <trkpt lat="43.58674" lon="1.3223">
        <ele>181.8</ele>
        <time>2024-07-30T09:28:53Z</time>
      </trkpt>
      <trkpt lat="43.58675" lon="1.32232">
        <ele>181.8</ele>
        <time>2024-07-30T09:28:54Z</time>
      </trkpt>
      <trkpt lat="43.58676" lon="1.32233">
        <ele>181.6</ele>
        <time>2024-07-30T09:28:55Z</time>
      </trkpt>
      <trkpt lat="43.58677" lon="1.32232">
        <ele>181.6</ele>
        <time>2024-07-30T09:28:56Z</time>
      </trkpt>
      <trkpt lat="43.58677" lon="1.3223">
        <ele>181.4</ele>
        <time>2024-07-30T09:28:57Z</time>
      </trkpt>
      <trkpt lat="43.58677" lon="1.32228">
        <ele>181.4</ele>
        <time>2024-07-30T09:28:58Z</time>
      </trkpt>
      <trkpt lat="43.58678" lon="1.32227">
        <ele>181.4</ele>
        <time>2024-07-30T09:28:59Z</time>
      </trkpt>
      <trkpt lat="43.58678" lon="1.32227">
        <ele>181.2</ele>
        <time>2024-07-30T09:29:00Z</time>
      </trkpt>
      <trkpt lat="43.58678" lon="1.32228">
        <ele>181.2</ele>
        <time>2024-07-30T09:29:01Z</time>
      </trkpt>
      <trkpt lat="43.58678" lon="1.32228">
        <ele>181</ele>
        <time>2024-07-30T09:29:02Z</time>
      </trkpt>
    </trkseg>
  </trk>
</gpx>